<?xml version="1.0" encoding="UTF-8" standalone="no" ?>
<gpx xmlns="http://www.topografix.com/GPX/1/1" xmlns:xsi="http://www.w3.org/2001/XMLSchema-instance" xsi:schemaLocation="http://www.topografix.com/GPX/1/1 http://www.topografix.com/GPX/1/1/gpx.xsd" version="1.1" creator="VisuGPX - https://www.visugpx.com">
  <metadata>
    <name>13 10 2019 Mas de vinaigre par Bramariques</name>
  </metadata>
  <trk>
    <name><![CDATA[13 10 2019 Mas de vinaigre par Bramariques_1]]></name>
    <trkseg>
      <trkpt lat="44.22383" lon="2.96193">
        <ele>823</ele>
        <time>2019-10-13T08:10:43.000Z</time>
      </trkpt>
      <trkpt lat="44.22383" lon="2.96193">
        <ele>849</ele>
        <time>2019-10-13T08:10:49.000Z</time>
      </trkpt>
      <trkpt lat="44.22383" lon="2.96193">
        <ele>849</ele>
        <time>2019-10-13T08:10:50.000Z</time>
      </trkpt>
      <trkpt lat="44.22378" lon="2.9619">
        <ele>849</ele>
        <time>2019-10-13T08:10:51.000Z</time>
      </trkpt>
      <trkpt lat="44.22378" lon="2.9619">
        <ele>849</ele>
        <time>2019-10-13T08:10:52.000Z</time>
      </trkpt>
      <trkpt lat="44.22378" lon="2.9619">
        <ele>849</ele>
        <time>2019-10-13T08:10:53.000Z</time>
      </trkpt>
      <trkpt lat="44.22378" lon="2.9619">
        <ele>849</ele>
        <time>2019-10-13T08:10:54.000Z</time>
      </trkpt>
      <trkpt lat="44.22378" lon="2.9619">
        <ele>849</ele>
        <time>2019-10-13T08:10:55.000Z</time>
      </trkpt>
      <trkpt lat="44.22378" lon="2.9619">
        <ele>849</ele>
        <time>2019-10-13T08:10:56.000Z</time>
      </trkpt>
      <trkpt lat="44.22378" lon="2.9619">
        <ele>849</ele>
        <time>2019-10-13T08:10:57.000Z</time>
      </trkpt>
      <trkpt lat="44.22378" lon="2.9619">
        <ele>849</ele>
        <time>2019-10-13T08:10:58.000Z</time>
      </trkpt>
      <trkpt lat="44.22378" lon="2.96191">
        <ele>849</ele>
        <time>2019-10-13T08:10:59.000Z</time>
      </trkpt>
      <trkpt lat="44.22378" lon="2.96191">
        <ele>849</ele>
        <time>2019-10-13T08:11:00.000Z</time>
      </trkpt>
      <trkpt lat="44.22378" lon="2.96191">
        <ele>849</ele>
        <time>2019-10-13T08:11:01.000Z</time>
      </trkpt>
      <trkpt lat="44.22378" lon="2.96191">
        <ele>849</ele>
        <time>2019-10-13T08:11:02.000Z</time>
      </trkpt>
      <trkpt lat="44.22378" lon="2.96191">
        <ele>849</ele>
        <time>2019-10-13T08:11:03.000Z</time>
      </trkpt>
      <trkpt lat="44.22378" lon="2.96191">
        <ele>849</ele>
        <time>2019-10-13T08:11:04.000Z</time>
      </trkpt>
      <trkpt lat="44.22378" lon="2.96191">
        <ele>849</ele>
        <time>2019-10-13T08:11:05.000Z</time>
      </trkpt>
      <trkpt lat="44.22378" lon="2.96191">
        <ele>849</ele>
        <time>2019-10-13T08:11:06.000Z</time>
      </trkpt>
      <trkpt lat="44.22378" lon="2.96191">
        <ele>849</ele>
        <time>2019-10-13T08:11:07.000Z</time>
      </trkpt>
      <trkpt lat="44.22378" lon="2.96191">
        <ele>849</ele>
        <time>2019-10-13T08:11:08.000Z</time>
      </trkpt>
      <trkpt lat="44.22378" lon="2.96191">
        <ele>849</ele>
        <time>2019-10-13T08:11:09.000Z</time>
      </trkpt>
      <trkpt lat="44.22378" lon="2.96191">
        <ele>849</ele>
        <time>2019-10-13T08:11:10.000Z</time>
      </trkpt>
      <trkpt lat="44.22378" lon="2.96191">
        <ele>849</ele>
        <time>2019-10-13T08:11:11.000Z</time>
      </trkpt>
      <trkpt lat="44.22378" lon="2.96191">
        <ele>849</ele>
        <time>2019-10-13T08:11:12.000Z</time>
      </trkpt>
      <trkpt lat="44.22378" lon="2.96191">
        <ele>849</ele>
        <time>2019-10-13T08:11:13.000Z</time>
      </trkpt>
      <trkpt lat="44.22378" lon="2.96191">
        <ele>849</ele>
        <time>2019-10-13T08:11:14.000Z</time>
      </trkpt>
      <trkpt lat="44.22378" lon="2.96191">
        <ele>849</ele>
        <time>2019-10-13T08:11:15.000Z</time>
      </trkpt>
      <trkpt lat="44.22378" lon="2.96191">
        <ele>849</ele>
        <time>2019-10-13T08:11:16.000Z</time>
      </trkpt>
      <trkpt lat="44.22378" lon="2.96191">
        <ele>849</ele>
        <time>2019-10-13T08:11:17.000Z</time>
      </trkpt>
      <trkpt lat="44.22378" lon="2.96191">
        <ele>849</ele>
        <time>2019-10-13T08:11:18.000Z</time>
      </trkpt>
      <trkpt lat="44.22378" lon="2.96191">
        <ele>849</ele>
        <time>2019-10-13T08:11:19.000Z</time>
      </trkpt>
      <trkpt lat="44.22378" lon="2.96191">
        <ele>849</ele>
        <time>2019-10-13T08:11:20.000Z</time>
      </trkpt>
      <trkpt lat="44.22378" lon="2.96191">
        <ele>849</ele>
        <time>2019-10-13T08:11:21.000Z</time>
      </trkpt>
      <trkpt lat="44.22378" lon="2.96191">
        <ele>848</ele>
        <time>2019-10-13T08:11:22.000Z</time>
      </trkpt>
      <trkpt lat="44.22378" lon="2.96191">
        <ele>848</ele>
        <time>2019-10-13T08:11:23.000Z</time>
      </trkpt>
      <trkpt lat="44.22378" lon="2.96191">
        <ele>848</ele>
        <time>2019-10-13T08:11:24.000Z</time>
      </trkpt>
      <trkpt lat="44.22378" lon="2.96191">
        <ele>848</ele>
        <time>2019-10-13T08:11:25.000Z</time>
      </trkpt>
      <trkpt lat="44.22378" lon="2.96191">
        <ele>848</ele>
        <time>2019-10-13T08:11:26.000Z</time>
      </trkpt>
      <trkpt lat="44.22378" lon="2.96191">
        <ele>848</ele>
        <time>2019-10-13T08:11:27.000Z</time>
      </trkpt>
      <trkpt lat="44.22378" lon="2.96191">
        <ele>848</ele>
        <time>2019-10-13T08:11:28.000Z</time>
      </trkpt>
      <trkpt lat="44.22378" lon="2.96191">
        <ele>848</ele>
        <time>2019-10-13T08:11:29.000Z</time>
      </trkpt>
      <trkpt lat="44.22378" lon="2.96191">
        <ele>848</ele>
        <time>2019-10-13T08:11:30.000Z</time>
      </trkpt>
      <trkpt lat="44.22378" lon="2.96191">
        <ele>848</ele>
        <time>2019-10-13T08:11:31.000Z</time>
      </trkpt>
      <trkpt lat="44.22378" lon="2.96191">
        <ele>848</ele>
        <time>2019-10-13T08:11:32.000Z</time>
      </trkpt>
      <trkpt lat="44.22378" lon="2.96191">
        <ele>848</ele>
        <time>2019-10-13T08:11:33.000Z</time>
      </trkpt>
      <trkpt lat="44.22378" lon="2.96191">
        <ele>848</ele>
        <time>2019-10-13T08:11:34.000Z</time>
      </trkpt>
      <trkpt lat="44.22378" lon="2.96191">
        <ele>848</ele>
        <time>2019-10-13T08:11:35.000Z</time>
      </trkpt>
      <trkpt lat="44.22378" lon="2.96191">
        <ele>848</ele>
        <time>2019-10-13T08:11:36.000Z</time>
      </trkpt>
      <trkpt lat="44.22378" lon="2.96191">
        <ele>848</ele>
        <time>2019-10-13T08:11:37.000Z</time>
      </trkpt>
      <trkpt lat="44.22378" lon="2.96191">
        <ele>848</ele>
        <time>2019-10-13T08:11:38.000Z</time>
      </trkpt>
      <trkpt lat="44.22378" lon="2.96191">
        <ele>848</ele>
        <time>2019-10-13T08:11:39.000Z</time>
      </trkpt>
      <trkpt lat="44.22378" lon="2.96191">
        <ele>848</ele>
        <time>2019-10-13T08:11:40.000Z</time>
      </trkpt>
      <trkpt lat="44.22378" lon="2.9619">
        <ele>847</ele>
        <time>2019-10-13T08:11:41.000Z</time>
      </trkpt>
      <trkpt lat="44.22378" lon="2.9619">
        <ele>847</ele>
        <time>2019-10-13T08:11:42.000Z</time>
      </trkpt>
      <trkpt lat="44.22378" lon="2.9619">
        <ele>847</ele>
        <time>2019-10-13T08:11:43.000Z</time>
      </trkpt>
      <trkpt lat="44.22378" lon="2.9619">
        <ele>847</ele>
        <time>2019-10-13T08:11:44.000Z</time>
      </trkpt>
      <trkpt lat="44.22377" lon="2.96189">
        <ele>847</ele>
        <time>2019-10-13T08:11:45.000Z</time>
      </trkpt>
      <trkpt lat="44.22376" lon="2.96188">
        <ele>847</ele>
        <time>2019-10-13T08:11:46.000Z</time>
      </trkpt>
      <trkpt lat="44.22376" lon="2.96186">
        <ele>847</ele>
        <time>2019-10-13T08:11:47.000Z</time>
      </trkpt>
      <trkpt lat="44.22376" lon="2.96185">
        <ele>846</ele>
        <time>2019-10-13T08:11:48.000Z</time>
      </trkpt>
      <trkpt lat="44.22376" lon="2.96183">
        <ele>846</ele>
        <time>2019-10-13T08:11:49.000Z</time>
      </trkpt>
      <trkpt lat="44.22377" lon="2.96182">
        <ele>846</ele>
        <time>2019-10-13T08:11:50.000Z</time>
      </trkpt>
      <trkpt lat="44.22377" lon="2.96181">
        <ele>846</ele>
        <time>2019-10-13T08:11:51.000Z</time>
      </trkpt>
      <trkpt lat="44.22378" lon="2.9618">
        <ele>846</ele>
        <time>2019-10-13T08:11:52.000Z</time>
      </trkpt>
      <trkpt lat="44.22379" lon="2.96179">
        <ele>846</ele>
        <time>2019-10-13T08:11:53.000Z</time>
      </trkpt>
      <trkpt lat="44.22379" lon="2.96177">
        <ele>846</ele>
        <time>2019-10-13T08:11:54.000Z</time>
      </trkpt>
      <trkpt lat="44.2238" lon="2.96176">
        <ele>846</ele>
        <time>2019-10-13T08:11:55.000Z</time>
      </trkpt>
      <trkpt lat="44.2238" lon="2.96175">
        <ele>846</ele>
        <time>2019-10-13T08:11:56.000Z</time>
      </trkpt>
      <trkpt lat="44.22381" lon="2.96173">
        <ele>846</ele>
        <time>2019-10-13T08:11:57.000Z</time>
      </trkpt>
      <trkpt lat="44.22381" lon="2.96172">
        <ele>846</ele>
        <time>2019-10-13T08:11:58.000Z</time>
      </trkpt>
      <trkpt lat="44.22381" lon="2.9617">
        <ele>846</ele>
        <time>2019-10-13T08:11:59.000Z</time>
      </trkpt>
      <trkpt lat="44.22382" lon="2.96168">
        <ele>846</ele>
        <time>2019-10-13T08:12:00.000Z</time>
      </trkpt>
      <trkpt lat="44.22382" lon="2.96167">
        <ele>846</ele>
        <time>2019-10-13T08:12:01.000Z</time>
      </trkpt>
      <trkpt lat="44.22383" lon="2.96165">
        <ele>846</ele>
        <time>2019-10-13T08:12:02.000Z</time>
      </trkpt>
      <trkpt lat="44.22383" lon="2.96164">
        <ele>846</ele>
        <time>2019-10-13T08:12:03.000Z</time>
      </trkpt>
      <trkpt lat="44.22384" lon="2.96162">
        <ele>846</ele>
        <time>2019-10-13T08:12:04.000Z</time>
      </trkpt>
      <trkpt lat="44.22384" lon="2.96161">
        <ele>846</ele>
        <time>2019-10-13T08:12:05.000Z</time>
      </trkpt>
      <trkpt lat="44.22385" lon="2.96159">
        <ele>846</ele>
        <time>2019-10-13T08:12:06.000Z</time>
      </trkpt>
      <trkpt lat="44.22386" lon="2.96157">
        <ele>846</ele>
        <time>2019-10-13T08:12:07.000Z</time>
      </trkpt>
      <trkpt lat="44.22386" lon="2.96155">
        <ele>846</ele>
        <time>2019-10-13T08:12:08.000Z</time>
      </trkpt>
      <trkpt lat="44.22387" lon="2.96154">
        <ele>846</ele>
        <time>2019-10-13T08:12:09.000Z</time>
      </trkpt>
      <trkpt lat="44.22388" lon="2.96153">
        <ele>846</ele>
        <time>2019-10-13T08:12:10.000Z</time>
      </trkpt>
      <trkpt lat="44.22389" lon="2.96152">
        <ele>846</ele>
        <time>2019-10-13T08:12:11.000Z</time>
      </trkpt>
      <trkpt lat="44.2239" lon="2.96152">
        <ele>846</ele>
        <time>2019-10-13T08:12:12.000Z</time>
      </trkpt>
      <trkpt lat="44.2239" lon="2.96151">
        <ele>847</ele>
        <time>2019-10-13T08:12:13.000Z</time>
      </trkpt>
      <trkpt lat="44.22391" lon="2.96151">
        <ele>847</ele>
        <time>2019-10-13T08:12:14.000Z</time>
      </trkpt>
      <trkpt lat="44.2239" lon="2.96151">
        <ele>847</ele>
        <time>2019-10-13T08:12:15.000Z</time>
      </trkpt>
      <trkpt lat="44.2239" lon="2.96151">
        <ele>846</ele>
        <time>2019-10-13T08:12:16.000Z</time>
      </trkpt>
      <trkpt lat="44.2239" lon="2.96151">
        <ele>847</ele>
        <time>2019-10-13T08:12:17.000Z</time>
      </trkpt>
      <trkpt lat="44.22391" lon="2.96151">
        <ele>847</ele>
        <time>2019-10-13T08:12:18.000Z</time>
      </trkpt>
      <trkpt lat="44.22391" lon="2.96151">
        <ele>847</ele>
        <time>2019-10-13T08:12:19.000Z</time>
      </trkpt>
      <trkpt lat="44.22391" lon="2.96151">
        <ele>847</ele>
        <time>2019-10-13T08:12:20.000Z</time>
      </trkpt>
      <trkpt lat="44.2239" lon="2.96151">
        <ele>847</ele>
        <time>2019-10-13T08:12:21.000Z</time>
      </trkpt>
      <trkpt lat="44.22391" lon="2.96151">
        <ele>847</ele>
        <time>2019-10-13T08:12:22.000Z</time>
      </trkpt>
      <trkpt lat="44.2239" lon="2.96151">
        <ele>847</ele>
        <time>2019-10-13T08:12:23.000Z</time>
      </trkpt>
      <trkpt lat="44.2239" lon="2.96151">
        <ele>847</ele>
        <time>2019-10-13T08:12:24.000Z</time>
      </trkpt>
      <trkpt lat="44.2239" lon="2.96151">
        <ele>847</ele>
        <time>2019-10-13T08:12:25.000Z</time>
      </trkpt>
      <trkpt lat="44.2239" lon="2.96151">
        <ele>847</ele>
        <time>2019-10-13T08:12:26.000Z</time>
      </trkpt>
      <trkpt lat="44.2239" lon="2.96151">
        <ele>847</ele>
        <time>2019-10-13T08:12:27.000Z</time>
      </trkpt>
      <trkpt lat="44.2239" lon="2.96151">
        <ele>847</ele>
        <time>2019-10-13T08:12:28.000Z</time>
      </trkpt>
      <trkpt lat="44.2239" lon="2.96151">
        <ele>847</ele>
        <time>2019-10-13T08:12:29.000Z</time>
      </trkpt>
      <trkpt lat="44.2239" lon="2.96151">
        <ele>847</ele>
        <time>2019-10-13T08:12:30.000Z</time>
      </trkpt>
      <trkpt lat="44.2239" lon="2.96152">
        <ele>847</ele>
        <time>2019-10-13T08:12:31.000Z</time>
      </trkpt>
      <trkpt lat="44.22389" lon="2.96152">
        <ele>847</ele>
        <time>2019-10-13T08:12:32.000Z</time>
      </trkpt>
      <trkpt lat="44.22389" lon="2.96152">
        <ele>847</ele>
        <time>2019-10-13T08:12:33.000Z</time>
      </trkpt>
      <trkpt lat="44.22389" lon="2.96152">
        <ele>848</ele>
        <time>2019-10-13T08:12:34.000Z</time>
      </trkpt>
      <trkpt lat="44.22389" lon="2.96152">
        <ele>848</ele>
        <time>2019-10-13T08:12:35.000Z</time>
      </trkpt>
      <trkpt lat="44.22389" lon="2.96152">
        <ele>848</ele>
        <time>2019-10-13T08:12:36.000Z</time>
      </trkpt>
      <trkpt lat="44.22389" lon="2.96152">
        <ele>848</ele>
        <time>2019-10-13T08:12:37.000Z</time>
      </trkpt>
      <trkpt lat="44.22389" lon="2.96152">
        <ele>848</ele>
        <time>2019-10-13T08:12:38.000Z</time>
      </trkpt>
      <trkpt lat="44.22389" lon="2.96152">
        <ele>848</ele>
        <time>2019-10-13T08:12:39.000Z</time>
      </trkpt>
      <trkpt lat="44.22389" lon="2.96152">
        <ele>848</ele>
        <time>2019-10-13T08:12:40.000Z</time>
      </trkpt>
      <trkpt lat="44.22389" lon="2.96152">
        <ele>848</ele>
        <time>2019-10-13T08:12:41.000Z</time>
      </trkpt>
      <trkpt lat="44.22389" lon="2.96152">
        <ele>848</ele>
        <time>2019-10-13T08:12:42.000Z</time>
      </trkpt>
      <trkpt lat="44.22389" lon="2.96152">
        <ele>848</ele>
        <time>2019-10-13T08:12:43.000Z</time>
      </trkpt>
      <trkpt lat="44.22389" lon="2.96152">
        <ele>848</ele>
        <time>2019-10-13T08:12:44.000Z</time>
      </trkpt>
      <trkpt lat="44.22389" lon="2.96152">
        <ele>848</ele>
        <time>2019-10-13T08:12:45.000Z</time>
      </trkpt>
      <trkpt lat="44.22389" lon="2.96151">
        <ele>848</ele>
        <time>2019-10-13T08:12:46.000Z</time>
      </trkpt>
      <trkpt lat="44.22389" lon="2.96151">
        <ele>848</ele>
        <time>2019-10-13T08:12:47.000Z</time>
      </trkpt>
      <trkpt lat="44.22388" lon="2.96151">
        <ele>848</ele>
        <time>2019-10-13T08:12:48.000Z</time>
      </trkpt>
      <trkpt lat="44.22388" lon="2.96152">
        <ele>848</ele>
        <time>2019-10-13T08:12:49.000Z</time>
      </trkpt>
      <trkpt lat="44.22388" lon="2.96152">
        <ele>848</ele>
        <time>2019-10-13T08:12:50.000Z</time>
      </trkpt>
      <trkpt lat="44.22388" lon="2.96152">
        <ele>848</ele>
        <time>2019-10-13T08:12:51.000Z</time>
      </trkpt>
      <trkpt lat="44.22388" lon="2.96152">
        <ele>848</ele>
        <time>2019-10-13T08:12:52.000Z</time>
      </trkpt>
      <trkpt lat="44.22388" lon="2.96152">
        <ele>848</ele>
        <time>2019-10-13T08:12:53.000Z</time>
      </trkpt>
      <trkpt lat="44.22388" lon="2.96152">
        <ele>848</ele>
        <time>2019-10-13T08:12:54.000Z</time>
      </trkpt>
      <trkpt lat="44.22388" lon="2.96153">
        <ele>848</ele>
        <time>2019-10-13T08:12:55.000Z</time>
      </trkpt>
      <trkpt lat="44.22388" lon="2.96153">
        <ele>848</ele>
        <time>2019-10-13T08:12:56.000Z</time>
      </trkpt>
      <trkpt lat="44.22388" lon="2.96154">
        <ele>848</ele>
        <time>2019-10-13T08:12:57.000Z</time>
      </trkpt>
      <trkpt lat="44.22388" lon="2.96154">
        <ele>848</ele>
        <time>2019-10-13T08:12:58.000Z</time>
      </trkpt>
      <trkpt lat="44.22389" lon="2.96155">
        <ele>848</ele>
        <time>2019-10-13T08:12:59.000Z</time>
      </trkpt>
      <trkpt lat="44.22389" lon="2.96155">
        <ele>848</ele>
        <time>2019-10-13T08:13:00.000Z</time>
      </trkpt>
      <trkpt lat="44.22389" lon="2.96155">
        <ele>848</ele>
        <time>2019-10-13T08:13:01.000Z</time>
      </trkpt>
      <trkpt lat="44.22389" lon="2.96155">
        <ele>848</ele>
        <time>2019-10-13T08:13:02.000Z</time>
      </trkpt>
      <trkpt lat="44.22389" lon="2.96155">
        <ele>848</ele>
        <time>2019-10-13T08:13:03.000Z</time>
      </trkpt>
      <trkpt lat="44.22389" lon="2.96156">
        <ele>848</ele>
        <time>2019-10-13T08:13:04.000Z</time>
      </trkpt>
      <trkpt lat="44.22389" lon="2.96156">
        <ele>848</ele>
        <time>2019-10-13T08:13:05.000Z</time>
      </trkpt>
      <trkpt lat="44.22389" lon="2.96156">
        <ele>848</ele>
        <time>2019-10-13T08:13:06.000Z</time>
      </trkpt>
      <trkpt lat="44.22389" lon="2.96156">
        <ele>848</ele>
        <time>2019-10-13T08:13:07.000Z</time>
      </trkpt>
      <trkpt lat="44.22389" lon="2.96156">
        <ele>848</ele>
        <time>2019-10-13T08:13:08.000Z</time>
      </trkpt>
      <trkpt lat="44.22389" lon="2.96156">
        <ele>848</ele>
        <time>2019-10-13T08:13:09.000Z</time>
      </trkpt>
      <trkpt lat="44.22389" lon="2.96156">
        <ele>848</ele>
        <time>2019-10-13T08:13:10.000Z</time>
      </trkpt>
      <trkpt lat="44.22389" lon="2.96156">
        <ele>848</ele>
        <time>2019-10-13T08:13:11.000Z</time>
      </trkpt>
      <trkpt lat="44.22389" lon="2.96156">
        <ele>848</ele>
        <time>2019-10-13T08:13:12.000Z</time>
      </trkpt>
      <trkpt lat="44.22389" lon="2.96156">
        <ele>848</ele>
        <time>2019-10-13T08:13:13.000Z</time>
      </trkpt>
      <trkpt lat="44.22389" lon="2.96156">
        <ele>848</ele>
        <time>2019-10-13T08:13:14.000Z</time>
      </trkpt>
      <trkpt lat="44.22389" lon="2.96156">
        <ele>848</ele>
        <time>2019-10-13T08:13:15.000Z</time>
      </trkpt>
      <trkpt lat="44.22389" lon="2.96156">
        <ele>848</ele>
        <time>2019-10-13T08:13:16.000Z</time>
      </trkpt>
      <trkpt lat="44.22389" lon="2.96156">
        <ele>848</ele>
        <time>2019-10-13T08:13:17.000Z</time>
      </trkpt>
      <trkpt lat="44.22389" lon="2.96156">
        <ele>848</ele>
        <time>2019-10-13T08:13:18.000Z</time>
      </trkpt>
      <trkpt lat="44.22389" lon="2.96156">
        <ele>848</ele>
        <time>2019-10-13T08:13:19.000Z</time>
      </trkpt>
      <trkpt lat="44.22389" lon="2.96155">
        <ele>848</ele>
        <time>2019-10-13T08:13:20.000Z</time>
      </trkpt>
      <trkpt lat="44.22389" lon="2.96156">
        <ele>849</ele>
        <time>2019-10-13T08:13:21.000Z</time>
      </trkpt>
      <trkpt lat="44.22389" lon="2.96156">
        <ele>849</ele>
        <time>2019-10-13T08:13:22.000Z</time>
      </trkpt>
      <trkpt lat="44.22389" lon="2.96156">
        <ele>849</ele>
        <time>2019-10-13T08:13:23.000Z</time>
      </trkpt>
      <trkpt lat="44.22389" lon="2.96156">
        <ele>849</ele>
        <time>2019-10-13T08:13:24.000Z</time>
      </trkpt>
      <trkpt lat="44.22389" lon="2.96156">
        <ele>849</ele>
        <time>2019-10-13T08:13:25.000Z</time>
      </trkpt>
      <trkpt lat="44.22389" lon="2.96156">
        <ele>848</ele>
        <time>2019-10-13T08:13:26.000Z</time>
      </trkpt>
      <trkpt lat="44.22389" lon="2.96156">
        <ele>848</ele>
        <time>2019-10-13T08:13:27.000Z</time>
      </trkpt>
      <trkpt lat="44.22389" lon="2.96156">
        <ele>848</ele>
        <time>2019-10-13T08:13:28.000Z</time>
      </trkpt>
      <trkpt lat="44.22389" lon="2.96156">
        <ele>849</ele>
        <time>2019-10-13T08:13:29.000Z</time>
      </trkpt>
      <trkpt lat="44.22389" lon="2.96156">
        <ele>848</ele>
        <time>2019-10-13T08:13:30.000Z</time>
      </trkpt>
      <trkpt lat="44.22389" lon="2.96156">
        <ele>848</ele>
        <time>2019-10-13T08:13:31.000Z</time>
      </trkpt>
      <trkpt lat="44.22389" lon="2.96156">
        <ele>848</ele>
        <time>2019-10-13T08:13:32.000Z</time>
      </trkpt>
      <trkpt lat="44.22389" lon="2.96156">
        <ele>848</ele>
        <time>2019-10-13T08:13:33.000Z</time>
      </trkpt>
      <trkpt lat="44.22389" lon="2.96156">
        <ele>848</ele>
        <time>2019-10-13T08:13:34.000Z</time>
      </trkpt>
      <trkpt lat="44.22389" lon="2.96156">
        <ele>848</ele>
        <time>2019-10-13T08:13:35.000Z</time>
      </trkpt>
      <trkpt lat="44.22389" lon="2.96156">
        <ele>848</ele>
        <time>2019-10-13T08:13:36.000Z</time>
      </trkpt>
      <trkpt lat="44.22389" lon="2.96156">
        <ele>848</ele>
        <time>2019-10-13T08:13:37.000Z</time>
      </trkpt>
      <trkpt lat="44.22389" lon="2.96155">
        <ele>848</ele>
        <time>2019-10-13T08:13:38.000Z</time>
      </trkpt>
      <trkpt lat="44.22389" lon="2.96155">
        <ele>848</ele>
        <time>2019-10-13T08:13:39.000Z</time>
      </trkpt>
      <trkpt lat="44.22389" lon="2.96155">
        <ele>848</ele>
        <time>2019-10-13T08:13:40.000Z</time>
      </trkpt>
      <trkpt lat="44.22389" lon="2.96156">
        <ele>848</ele>
        <time>2019-10-13T08:13:41.000Z</time>
      </trkpt>
      <trkpt lat="44.22389" lon="2.96155">
        <ele>848</ele>
        <time>2019-10-13T08:13:42.000Z</time>
      </trkpt>
      <trkpt lat="44.22389" lon="2.96155">
        <ele>848</ele>
        <time>2019-10-13T08:13:43.000Z</time>
      </trkpt>
      <trkpt lat="44.22389" lon="2.96155">
        <ele>848</ele>
        <time>2019-10-13T08:13:44.000Z</time>
      </trkpt>
      <trkpt lat="44.22389" lon="2.96155">
        <ele>848</ele>
        <time>2019-10-13T08:13:45.000Z</time>
      </trkpt>
      <trkpt lat="44.22389" lon="2.96156">
        <ele>848</ele>
        <time>2019-10-13T08:13:46.000Z</time>
      </trkpt>
      <trkpt lat="44.22389" lon="2.96156">
        <ele>848</ele>
        <time>2019-10-13T08:13:47.000Z</time>
      </trkpt>
      <trkpt lat="44.22389" lon="2.96156">
        <ele>848</ele>
        <time>2019-10-13T08:13:48.000Z</time>
      </trkpt>
      <trkpt lat="44.22389" lon="2.96156">
        <ele>848</ele>
        <time>2019-10-13T08:13:49.000Z</time>
      </trkpt>
      <trkpt lat="44.22389" lon="2.96156">
        <ele>848</ele>
        <time>2019-10-13T08:13:50.000Z</time>
      </trkpt>
      <trkpt lat="44.22389" lon="2.96155">
        <ele>848</ele>
        <time>2019-10-13T08:13:51.000Z</time>
      </trkpt>
      <trkpt lat="44.22389" lon="2.96155">
        <ele>848</ele>
        <time>2019-10-13T08:13:52.000Z</time>
      </trkpt>
      <trkpt lat="44.22389" lon="2.96155">
        <ele>848</ele>
        <time>2019-10-13T08:13:53.000Z</time>
      </trkpt>
      <trkpt lat="44.22389" lon="2.96156">
        <ele>848</ele>
        <time>2019-10-13T08:13:54.000Z</time>
      </trkpt>
      <trkpt lat="44.22389" lon="2.96155">
        <ele>848</ele>
        <time>2019-10-13T08:13:55.000Z</time>
      </trkpt>
      <trkpt lat="44.22389" lon="2.96156">
        <ele>848</ele>
        <time>2019-10-13T08:13:56.000Z</time>
      </trkpt>
      <trkpt lat="44.22389" lon="2.96155">
        <ele>848</ele>
        <time>2019-10-13T08:13:57.000Z</time>
      </trkpt>
      <trkpt lat="44.22389" lon="2.96156">
        <ele>849</ele>
        <time>2019-10-13T08:13:58.000Z</time>
      </trkpt>
      <trkpt lat="44.22389" lon="2.96156">
        <ele>849</ele>
        <time>2019-10-13T08:13:59.000Z</time>
      </trkpt>
      <trkpt lat="44.22389" lon="2.96155">
        <ele>849</ele>
        <time>2019-10-13T08:14:00.000Z</time>
      </trkpt>
      <trkpt lat="44.22389" lon="2.96155">
        <ele>849</ele>
        <time>2019-10-13T08:14:01.000Z</time>
      </trkpt>
      <trkpt lat="44.22389" lon="2.96155">
        <ele>849</ele>
        <time>2019-10-13T08:14:02.000Z</time>
      </trkpt>
      <trkpt lat="44.22389" lon="2.96155">
        <ele>849</ele>
        <time>2019-10-13T08:14:03.000Z</time>
      </trkpt>
      <trkpt lat="44.22389" lon="2.96155">
        <ele>849</ele>
        <time>2019-10-13T08:14:04.000Z</time>
      </trkpt>
      <trkpt lat="44.22389" lon="2.96155">
        <ele>849</ele>
        <time>2019-10-13T08:14:05.000Z</time>
      </trkpt>
      <trkpt lat="44.22389" lon="2.96155">
        <ele>849</ele>
        <time>2019-10-13T08:14:06.000Z</time>
      </trkpt>
      <trkpt lat="44.22389" lon="2.96155">
        <ele>849</ele>
        <time>2019-10-13T08:14:07.000Z</time>
      </trkpt>
      <trkpt lat="44.22389" lon="2.96155">
        <ele>849</ele>
        <time>2019-10-13T08:14:08.000Z</time>
      </trkpt>
      <trkpt lat="44.22389" lon="2.96155">
        <ele>849</ele>
        <time>2019-10-13T08:14:09.000Z</time>
      </trkpt>
      <trkpt lat="44.22389" lon="2.96155">
        <ele>849</ele>
        <time>2019-10-13T08:14:10.000Z</time>
      </trkpt>
      <trkpt lat="44.22389" lon="2.96155">
        <ele>849</ele>
        <time>2019-10-13T08:14:11.000Z</time>
      </trkpt>
      <trkpt lat="44.22389" lon="2.96155">
        <ele>849</ele>
        <time>2019-10-13T08:14:12.000Z</time>
      </trkpt>
      <trkpt lat="44.22389" lon="2.96155">
        <ele>849</ele>
        <time>2019-10-13T08:14:13.000Z</time>
      </trkpt>
      <trkpt lat="44.22389" lon="2.96155">
        <ele>849</ele>
        <time>2019-10-13T08:14:14.000Z</time>
      </trkpt>
      <trkpt lat="44.22389" lon="2.96155">
        <ele>849</ele>
        <time>2019-10-13T08:14:15.000Z</time>
      </trkpt>
      <trkpt lat="44.22389" lon="2.96155">
        <ele>849</ele>
        <time>2019-10-13T08:14:16.000Z</time>
      </trkpt>
      <trkpt lat="44.22389" lon="2.96155">
        <ele>849</ele>
        <time>2019-10-13T08:14:17.000Z</time>
      </trkpt>
      <trkpt lat="44.22389" lon="2.96155">
        <ele>849</ele>
        <time>2019-10-13T08:14:18.000Z</time>
      </trkpt>
      <trkpt lat="44.22389" lon="2.96155">
        <ele>849</ele>
        <time>2019-10-13T08:14:19.000Z</time>
      </trkpt>
      <trkpt lat="44.22389" lon="2.96155">
        <ele>849</ele>
        <time>2019-10-13T08:14:20.000Z</time>
      </trkpt>
      <trkpt lat="44.22389" lon="2.96155">
        <ele>849</ele>
        <time>2019-10-13T08:14:21.000Z</time>
      </trkpt>
      <trkpt lat="44.22389" lon="2.96155">
        <ele>849</ele>
        <time>2019-10-13T08:14:22.000Z</time>
      </trkpt>
      <trkpt lat="44.22389" lon="2.96155">
        <ele>849</ele>
        <time>2019-10-13T08:14:23.000Z</time>
      </trkpt>
      <trkpt lat="44.22389" lon="2.96155">
        <ele>849</ele>
        <time>2019-10-13T08:14:24.000Z</time>
      </trkpt>
      <trkpt lat="44.22389" lon="2.96155">
        <ele>849</ele>
        <time>2019-10-13T08:14:25.000Z</time>
      </trkpt>
      <trkpt lat="44.22389" lon="2.96155">
        <ele>849</ele>
        <time>2019-10-13T08:14:26.000Z</time>
      </trkpt>
      <trkpt lat="44.22389" lon="2.96155">
        <ele>849</ele>
        <time>2019-10-13T08:14:27.000Z</time>
      </trkpt>
      <trkpt lat="44.22389" lon="2.96155">
        <ele>849</ele>
        <time>2019-10-13T08:14:28.000Z</time>
      </trkpt>
      <trkpt lat="44.22389" lon="2.96155">
        <ele>849</ele>
        <time>2019-10-13T08:14:29.000Z</time>
      </trkpt>
      <trkpt lat="44.22389" lon="2.96155">
        <ele>849</ele>
        <time>2019-10-13T08:14:30.000Z</time>
      </trkpt>
      <trkpt lat="44.22389" lon="2.96155">
        <ele>849</ele>
        <time>2019-10-13T08:14:31.000Z</time>
      </trkpt>
      <trkpt lat="44.22389" lon="2.96155">
        <ele>849</ele>
        <time>2019-10-13T08:14:32.000Z</time>
      </trkpt>
      <trkpt lat="44.22389" lon="2.96155">
        <ele>849</ele>
        <time>2019-10-13T08:14:33.000Z</time>
      </trkpt>
      <trkpt lat="44.22389" lon="2.96155">
        <ele>849</ele>
        <time>2019-10-13T08:14:34.000Z</time>
      </trkpt>
      <trkpt lat="44.22389" lon="2.96155">
        <ele>849</ele>
        <time>2019-10-13T08:14:35.000Z</time>
      </trkpt>
      <trkpt lat="44.22389" lon="2.96155">
        <ele>849</ele>
        <time>2019-10-13T08:14:36.000Z</time>
      </trkpt>
      <trkpt lat="44.22389" lon="2.96155">
        <ele>849</ele>
        <time>2019-10-13T08:14:37.000Z</time>
      </trkpt>
      <trkpt lat="44.22389" lon="2.96155">
        <ele>849</ele>
        <time>2019-10-13T08:14:38.000Z</time>
      </trkpt>
      <trkpt lat="44.22389" lon="2.96155">
        <ele>849</ele>
        <time>2019-10-13T08:14:39.000Z</time>
      </trkpt>
      <trkpt lat="44.22389" lon="2.96155">
        <ele>849</ele>
        <time>2019-10-13T08:14:40.000Z</time>
      </trkpt>
      <trkpt lat="44.22389" lon="2.96155">
        <ele>849</ele>
        <time>2019-10-13T08:14:41.000Z</time>
      </trkpt>
      <trkpt lat="44.22389" lon="2.96155">
        <ele>849</ele>
        <time>2019-10-13T08:14:42.000Z</time>
      </trkpt>
      <trkpt lat="44.22389" lon="2.96155">
        <ele>849</ele>
        <time>2019-10-13T08:14:43.000Z</time>
      </trkpt>
      <trkpt lat="44.22389" lon="2.96155">
        <ele>849</ele>
        <time>2019-10-13T08:14:44.000Z</time>
      </trkpt>
      <trkpt lat="44.22389" lon="2.96155">
        <ele>849</ele>
        <time>2019-10-13T08:14:45.000Z</time>
      </trkpt>
      <trkpt lat="44.22389" lon="2.96155">
        <ele>849</ele>
        <time>2019-10-13T08:14:46.000Z</time>
      </trkpt>
      <trkpt lat="44.22389" lon="2.96155">
        <ele>849</ele>
        <time>2019-10-13T08:14:47.000Z</time>
      </trkpt>
      <trkpt lat="44.22389" lon="2.96155">
        <ele>849</ele>
        <time>2019-10-13T08:14:48.000Z</time>
      </trkpt>
      <trkpt lat="44.22389" lon="2.96155">
        <ele>849</ele>
        <time>2019-10-13T08:14:49.000Z</time>
      </trkpt>
      <trkpt lat="44.22389" lon="2.96155">
        <ele>849</ele>
        <time>2019-10-13T08:14:50.000Z</time>
      </trkpt>
      <trkpt lat="44.22389" lon="2.96155">
        <ele>849</ele>
        <time>2019-10-13T08:14:51.000Z</time>
      </trkpt>
      <trkpt lat="44.22389" lon="2.96155">
        <ele>849</ele>
        <time>2019-10-13T08:14:52.000Z</time>
      </trkpt>
      <trkpt lat="44.22389" lon="2.96154">
        <ele>849</ele>
        <time>2019-10-13T08:14:53.000Z</time>
      </trkpt>
      <trkpt lat="44.22389" lon="2.96154">
        <ele>849</ele>
        <time>2019-10-13T08:14:54.000Z</time>
      </trkpt>
      <trkpt lat="44.22389" lon="2.96154">
        <ele>849</ele>
        <time>2019-10-13T08:14:55.000Z</time>
      </trkpt>
      <trkpt lat="44.22389" lon="2.96154">
        <ele>849</ele>
        <time>2019-10-13T08:14:56.000Z</time>
      </trkpt>
      <trkpt lat="44.22389" lon="2.96154">
        <ele>849</ele>
        <time>2019-10-13T08:14:57.000Z</time>
      </trkpt>
      <trkpt lat="44.22389" lon="2.96154">
        <ele>849</ele>
        <time>2019-10-13T08:14:58.000Z</time>
      </trkpt>
      <trkpt lat="44.22388" lon="2.96153">
        <ele>849</ele>
        <time>2019-10-13T08:14:59.000Z</time>
      </trkpt>
      <trkpt lat="44.22388" lon="2.96152">
        <ele>849</ele>
        <time>2019-10-13T08:15:00.000Z</time>
      </trkpt>
      <trkpt lat="44.22388" lon="2.96151">
        <ele>849</ele>
        <time>2019-10-13T08:15:01.000Z</time>
      </trkpt>
      <trkpt lat="44.22387" lon="2.96149">
        <ele>849</ele>
        <time>2019-10-13T08:15:02.000Z</time>
      </trkpt>
      <trkpt lat="44.22387" lon="2.96148">
        <ele>849</ele>
        <time>2019-10-13T08:15:03.000Z</time>
      </trkpt>
      <trkpt lat="44.22387" lon="2.96148">
        <ele>849</ele>
        <time>2019-10-13T08:15:04.000Z</time>
      </trkpt>
      <trkpt lat="44.22387" lon="2.96148">
        <ele>849</ele>
        <time>2019-10-13T08:15:05.000Z</time>
      </trkpt>
      <trkpt lat="44.22387" lon="2.96148">
        <ele>849</ele>
        <time>2019-10-13T08:15:06.000Z</time>
      </trkpt>
      <trkpt lat="44.22387" lon="2.96148">
        <ele>849</ele>
        <time>2019-10-13T08:15:07.000Z</time>
      </trkpt>
      <trkpt lat="44.22387" lon="2.96148">
        <ele>849</ele>
        <time>2019-10-13T08:15:08.000Z</time>
      </trkpt>
      <trkpt lat="44.22387" lon="2.96148">
        <ele>849</ele>
        <time>2019-10-13T08:15:09.000Z</time>
      </trkpt>
      <trkpt lat="44.22387" lon="2.96148">
        <ele>849</ele>
        <time>2019-10-13T08:15:10.000Z</time>
      </trkpt>
      <trkpt lat="44.22387" lon="2.96147">
        <ele>849</ele>
        <time>2019-10-13T08:15:11.000Z</time>
      </trkpt>
      <trkpt lat="44.22387" lon="2.96147">
        <ele>849</ele>
        <time>2019-10-13T08:15:12.000Z</time>
      </trkpt>
      <trkpt lat="44.22387" lon="2.96147">
        <ele>849</ele>
        <time>2019-10-13T08:15:13.000Z</time>
      </trkpt>
      <trkpt lat="44.22387" lon="2.96147">
        <ele>849</ele>
        <time>2019-10-13T08:15:14.000Z</time>
      </trkpt>
      <trkpt lat="44.22387" lon="2.96147">
        <ele>849</ele>
        <time>2019-10-13T08:15:15.000Z</time>
      </trkpt>
      <trkpt lat="44.22387" lon="2.96147">
        <ele>849</ele>
        <time>2019-10-13T08:15:16.000Z</time>
      </trkpt>
      <trkpt lat="44.22387" lon="2.96147">
        <ele>849</ele>
        <time>2019-10-13T08:15:17.000Z</time>
      </trkpt>
      <trkpt lat="44.22387" lon="2.96147">
        <ele>849</ele>
        <time>2019-10-13T08:15:18.000Z</time>
      </trkpt>
      <trkpt lat="44.22387" lon="2.96147">
        <ele>849</ele>
        <time>2019-10-13T08:15:19.000Z</time>
      </trkpt>
      <trkpt lat="44.22387" lon="2.96147">
        <ele>849</ele>
        <time>2019-10-13T08:15:20.000Z</time>
      </trkpt>
      <trkpt lat="44.22387" lon="2.96147">
        <ele>849</ele>
        <time>2019-10-13T08:15:21.000Z</time>
      </trkpt>
      <trkpt lat="44.22387" lon="2.96147">
        <ele>849</ele>
        <time>2019-10-13T08:15:22.000Z</time>
      </trkpt>
      <trkpt lat="44.22387" lon="2.96147">
        <ele>849</ele>
        <time>2019-10-13T08:15:23.000Z</time>
      </trkpt>
      <trkpt lat="44.22387" lon="2.96147">
        <ele>849</ele>
        <time>2019-10-13T08:15:24.000Z</time>
      </trkpt>
      <trkpt lat="44.22387" lon="2.96147">
        <ele>849</ele>
        <time>2019-10-13T08:15:25.000Z</time>
      </trkpt>
      <trkpt lat="44.22387" lon="2.96147">
        <ele>849</ele>
        <time>2019-10-13T08:15:26.000Z</time>
      </trkpt>
      <trkpt lat="44.22386" lon="2.96147">
        <ele>849</ele>
        <time>2019-10-13T08:15:27.000Z</time>
      </trkpt>
      <trkpt lat="44.22386" lon="2.96147">
        <ele>849</ele>
        <time>2019-10-13T08:15:28.000Z</time>
      </trkpt>
      <trkpt lat="44.22386" lon="2.96147">
        <ele>849</ele>
        <time>2019-10-13T08:15:29.000Z</time>
      </trkpt>
      <trkpt lat="44.22386" lon="2.96147">
        <ele>849</ele>
        <time>2019-10-13T08:15:30.000Z</time>
      </trkpt>
      <trkpt lat="44.22386" lon="2.96147">
        <ele>849</ele>
        <time>2019-10-13T08:15:31.000Z</time>
      </trkpt>
      <trkpt lat="44.22386" lon="2.96147">
        <ele>849</ele>
        <time>2019-10-13T08:15:32.000Z</time>
      </trkpt>
      <trkpt lat="44.22386" lon="2.96147">
        <ele>849</ele>
        <time>2019-10-13T08:15:33.000Z</time>
      </trkpt>
      <trkpt lat="44.22386" lon="2.96147">
        <ele>849</ele>
        <time>2019-10-13T08:15:34.000Z</time>
      </trkpt>
      <trkpt lat="44.22386" lon="2.96147">
        <ele>849</ele>
        <time>2019-10-13T08:15:35.000Z</time>
      </trkpt>
      <trkpt lat="44.22386" lon="2.96146">
        <ele>849</ele>
        <time>2019-10-13T08:15:36.000Z</time>
      </trkpt>
      <trkpt lat="44.22386" lon="2.96146">
        <ele>849</ele>
        <time>2019-10-13T08:15:37.000Z</time>
      </trkpt>
      <trkpt lat="44.22386" lon="2.96146">
        <ele>849</ele>
        <time>2019-10-13T08:15:38.000Z</time>
      </trkpt>
      <trkpt lat="44.22386" lon="2.96146">
        <ele>849</ele>
        <time>2019-10-13T08:15:39.000Z</time>
      </trkpt>
      <trkpt lat="44.22386" lon="2.96146">
        <ele>849</ele>
        <time>2019-10-13T08:15:40.000Z</time>
      </trkpt>
      <trkpt lat="44.22386" lon="2.96146">
        <ele>850</ele>
        <time>2019-10-13T08:15:41.000Z</time>
      </trkpt>
      <trkpt lat="44.22386" lon="2.96145">
        <ele>850</ele>
        <time>2019-10-13T08:15:42.000Z</time>
      </trkpt>
      <trkpt lat="44.22386" lon="2.96146">
        <ele>850</ele>
        <time>2019-10-13T08:15:43.000Z</time>
      </trkpt>
      <trkpt lat="44.22386" lon="2.96146">
        <ele>850</ele>
        <time>2019-10-13T08:15:44.000Z</time>
      </trkpt>
      <trkpt lat="44.22386" lon="2.96146">
        <ele>850</ele>
        <time>2019-10-13T08:15:45.000Z</time>
      </trkpt>
      <trkpt lat="44.22386" lon="2.96146">
        <ele>850</ele>
        <time>2019-10-13T08:15:46.000Z</time>
      </trkpt>
      <trkpt lat="44.22386" lon="2.96146">
        <ele>850</ele>
        <time>2019-10-13T08:15:47.000Z</time>
      </trkpt>
      <trkpt lat="44.22386" lon="2.96146">
        <ele>849</ele>
        <time>2019-10-13T08:15:48.000Z</time>
      </trkpt>
      <trkpt lat="44.22386" lon="2.96146">
        <ele>849</ele>
        <time>2019-10-13T08:15:49.000Z</time>
      </trkpt>
      <trkpt lat="44.22386" lon="2.96146">
        <ele>849</ele>
        <time>2019-10-13T08:15:50.000Z</time>
      </trkpt>
      <trkpt lat="44.22386" lon="2.96146">
        <ele>849</ele>
        <time>2019-10-13T08:15:51.000Z</time>
      </trkpt>
      <trkpt lat="44.22386" lon="2.96146">
        <ele>849</ele>
        <time>2019-10-13T08:15:52.000Z</time>
      </trkpt>
      <trkpt lat="44.22386" lon="2.96146">
        <ele>849</ele>
        <time>2019-10-13T08:15:53.000Z</time>
      </trkpt>
      <trkpt lat="44.22386" lon="2.96146">
        <ele>849</ele>
        <time>2019-10-13T08:15:54.000Z</time>
      </trkpt>
      <trkpt lat="44.22386" lon="2.96146">
        <ele>849</ele>
        <time>2019-10-13T08:15:55.000Z</time>
      </trkpt>
      <trkpt lat="44.22386" lon="2.96146">
        <ele>849</ele>
        <time>2019-10-13T08:15:56.000Z</time>
      </trkpt>
      <trkpt lat="44.22386" lon="2.96146">
        <ele>849</ele>
        <time>2019-10-13T08:15:57.000Z</time>
      </trkpt>
      <trkpt lat="44.22386" lon="2.96146">
        <ele>849</ele>
        <time>2019-10-13T08:15:58.000Z</time>
      </trkpt>
      <trkpt lat="44.22386" lon="2.96146">
        <ele>849</ele>
        <time>2019-10-13T08:15:59.000Z</time>
      </trkpt>
      <trkpt lat="44.22386" lon="2.96146">
        <ele>849</ele>
        <time>2019-10-13T08:16:00.000Z</time>
      </trkpt>
      <trkpt lat="44.22386" lon="2.96145">
        <ele>849</ele>
        <time>2019-10-13T08:16:01.000Z</time>
      </trkpt>
      <trkpt lat="44.22386" lon="2.96145">
        <ele>849</ele>
        <time>2019-10-13T08:16:02.000Z</time>
      </trkpt>
      <trkpt lat="44.22386" lon="2.96145">
        <ele>849</ele>
        <time>2019-10-13T08:16:03.000Z</time>
      </trkpt>
      <trkpt lat="44.22387" lon="2.96145">
        <ele>849</ele>
        <time>2019-10-13T08:16:04.000Z</time>
      </trkpt>
      <trkpt lat="44.22387" lon="2.96145">
        <ele>849</ele>
        <time>2019-10-13T08:16:05.000Z</time>
      </trkpt>
      <trkpt lat="44.22387" lon="2.96145">
        <ele>849</ele>
        <time>2019-10-13T08:16:06.000Z</time>
      </trkpt>
      <trkpt lat="44.22387" lon="2.96145">
        <ele>849</ele>
        <time>2019-10-13T08:16:07.000Z</time>
      </trkpt>
      <trkpt lat="44.22387" lon="2.96145">
        <ele>849</ele>
        <time>2019-10-13T08:16:08.000Z</time>
      </trkpt>
      <trkpt lat="44.22387" lon="2.96145">
        <ele>849</ele>
        <time>2019-10-13T08:16:09.000Z</time>
      </trkpt>
      <trkpt lat="44.22387" lon="2.96145">
        <ele>849</ele>
        <time>2019-10-13T08:16:10.000Z</time>
      </trkpt>
      <trkpt lat="44.22387" lon="2.96145">
        <ele>849</ele>
        <time>2019-10-13T08:16:11.000Z</time>
      </trkpt>
      <trkpt lat="44.22387" lon="2.96145">
        <ele>849</ele>
        <time>2019-10-13T08:16:12.000Z</time>
      </trkpt>
      <trkpt lat="44.22387" lon="2.96145">
        <ele>849</ele>
        <time>2019-10-13T08:16:13.000Z</time>
      </trkpt>
      <trkpt lat="44.22387" lon="2.96145">
        <ele>849</ele>
        <time>2019-10-13T08:16:14.000Z</time>
      </trkpt>
      <trkpt lat="44.22387" lon="2.96144">
        <ele>849</ele>
        <time>2019-10-13T08:16:15.000Z</time>
      </trkpt>
      <trkpt lat="44.22387" lon="2.96144">
        <ele>849</ele>
        <time>2019-10-13T08:16:16.000Z</time>
      </trkpt>
      <trkpt lat="44.22388" lon="2.96143">
        <ele>849</ele>
        <time>2019-10-13T08:16:17.000Z</time>
      </trkpt>
      <trkpt lat="44.2239" lon="2.96143">
        <ele>849</ele>
        <time>2019-10-13T08:16:18.000Z</time>
      </trkpt>
      <trkpt lat="44.22391" lon="2.96142">
        <ele>849</ele>
        <time>2019-10-13T08:16:19.000Z</time>
      </trkpt>
      <trkpt lat="44.22392" lon="2.96142">
        <ele>849</ele>
        <time>2019-10-13T08:16:20.000Z</time>
      </trkpt>
      <trkpt lat="44.22393" lon="2.96142">
        <ele>849</ele>
        <time>2019-10-13T08:16:21.000Z</time>
      </trkpt>
      <trkpt lat="44.22394" lon="2.96141">
        <ele>850</ele>
        <time>2019-10-13T08:16:22.000Z</time>
      </trkpt>
      <trkpt lat="44.22395" lon="2.96141">
        <ele>850</ele>
        <time>2019-10-13T08:16:23.000Z</time>
      </trkpt>
      <trkpt lat="44.22396" lon="2.96141">
        <ele>850</ele>
        <time>2019-10-13T08:16:24.000Z</time>
      </trkpt>
      <trkpt lat="44.22397" lon="2.96141">
        <ele>850</ele>
        <time>2019-10-13T08:16:25.000Z</time>
      </trkpt>
      <trkpt lat="44.22397" lon="2.96141">
        <ele>850</ele>
        <time>2019-10-13T08:16:26.000Z</time>
      </trkpt>
      <trkpt lat="44.22398" lon="2.96141">
        <ele>851</ele>
        <time>2019-10-13T08:16:27.000Z</time>
      </trkpt>
      <trkpt lat="44.22399" lon="2.96142">
        <ele>851</ele>
        <time>2019-10-13T08:16:28.000Z</time>
      </trkpt>
      <trkpt lat="44.22399" lon="2.96143">
        <ele>851</ele>
        <time>2019-10-13T08:16:29.000Z</time>
      </trkpt>
      <trkpt lat="44.224" lon="2.96144">
        <ele>851</ele>
        <time>2019-10-13T08:16:30.000Z</time>
      </trkpt>
      <trkpt lat="44.224" lon="2.96146">
        <ele>850</ele>
        <time>2019-10-13T08:16:31.000Z</time>
      </trkpt>
      <trkpt lat="44.224" lon="2.96148">
        <ele>850</ele>
        <time>2019-10-13T08:16:32.000Z</time>
      </trkpt>
      <trkpt lat="44.22401" lon="2.96149">
        <ele>850</ele>
        <time>2019-10-13T08:16:33.000Z</time>
      </trkpt>
      <trkpt lat="44.22401" lon="2.96151">
        <ele>850</ele>
        <time>2019-10-13T08:16:34.000Z</time>
      </trkpt>
      <trkpt lat="44.22401" lon="2.96152">
        <ele>850</ele>
        <time>2019-10-13T08:16:35.000Z</time>
      </trkpt>
      <trkpt lat="44.22401" lon="2.96154">
        <ele>850</ele>
        <time>2019-10-13T08:16:36.000Z</time>
      </trkpt>
      <trkpt lat="44.22401" lon="2.96155">
        <ele>850</ele>
        <time>2019-10-13T08:16:37.000Z</time>
      </trkpt>
      <trkpt lat="44.22402" lon="2.96156">
        <ele>850</ele>
        <time>2019-10-13T08:16:38.000Z</time>
      </trkpt>
      <trkpt lat="44.22402" lon="2.96156">
        <ele>849</ele>
        <time>2019-10-13T08:16:39.000Z</time>
      </trkpt>
      <trkpt lat="44.22402" lon="2.96157">
        <ele>849</ele>
        <time>2019-10-13T08:16:40.000Z</time>
      </trkpt>
      <trkpt lat="44.22402" lon="2.96159">
        <ele>849</ele>
        <time>2019-10-13T08:16:41.000Z</time>
      </trkpt>
      <trkpt lat="44.22402" lon="2.9616">
        <ele>849</ele>
        <time>2019-10-13T08:16:42.000Z</time>
      </trkpt>
      <trkpt lat="44.22402" lon="2.96161">
        <ele>849</ele>
        <time>2019-10-13T08:16:43.000Z</time>
      </trkpt>
      <trkpt lat="44.22402" lon="2.96163">
        <ele>849</ele>
        <time>2019-10-13T08:16:44.000Z</time>
      </trkpt>
      <trkpt lat="44.22403" lon="2.96165">
        <ele>849</ele>
        <time>2019-10-13T08:16:45.000Z</time>
      </trkpt>
      <trkpt lat="44.22404" lon="2.96166">
        <ele>849</ele>
        <time>2019-10-13T08:16:46.000Z</time>
      </trkpt>
      <trkpt lat="44.22404" lon="2.96168">
        <ele>849</ele>
        <time>2019-10-13T08:16:47.000Z</time>
      </trkpt>
      <trkpt lat="44.22405" lon="2.96169">
        <ele>849</ele>
        <time>2019-10-13T08:16:48.000Z</time>
      </trkpt>
      <trkpt lat="44.22406" lon="2.9617">
        <ele>849</ele>
        <time>2019-10-13T08:16:49.000Z</time>
      </trkpt>
      <trkpt lat="44.22406" lon="2.96172">
        <ele>849</ele>
        <time>2019-10-13T08:16:50.000Z</time>
      </trkpt>
      <trkpt lat="44.22407" lon="2.96174">
        <ele>849</ele>
        <time>2019-10-13T08:16:51.000Z</time>
      </trkpt>
      <trkpt lat="44.22408" lon="2.96175">
        <ele>850</ele>
        <time>2019-10-13T08:16:52.000Z</time>
      </trkpt>
      <trkpt lat="44.22409" lon="2.96176">
        <ele>850</ele>
        <time>2019-10-13T08:16:53.000Z</time>
      </trkpt>
      <trkpt lat="44.22409" lon="2.96177">
        <ele>850</ele>
        <time>2019-10-13T08:16:54.000Z</time>
      </trkpt>
      <trkpt lat="44.2241" lon="2.96179">
        <ele>850</ele>
        <time>2019-10-13T08:16:55.000Z</time>
      </trkpt>
      <trkpt lat="44.22411" lon="2.9618">
        <ele>850</ele>
        <time>2019-10-13T08:16:56.000Z</time>
      </trkpt>
      <trkpt lat="44.22413" lon="2.96182">
        <ele>850</ele>
        <time>2019-10-13T08:16:57.000Z</time>
      </trkpt>
      <trkpt lat="44.22414" lon="2.96183">
        <ele>850</ele>
        <time>2019-10-13T08:16:58.000Z</time>
      </trkpt>
      <trkpt lat="44.22415" lon="2.96185">
        <ele>850</ele>
        <time>2019-10-13T08:16:59.000Z</time>
      </trkpt>
      <trkpt lat="44.22416" lon="2.96186">
        <ele>850</ele>
        <time>2019-10-13T08:17:00.000Z</time>
      </trkpt>
      <trkpt lat="44.22417" lon="2.96188">
        <ele>850</ele>
        <time>2019-10-13T08:17:01.000Z</time>
      </trkpt>
      <trkpt lat="44.22418" lon="2.96189">
        <ele>850</ele>
        <time>2019-10-13T08:17:02.000Z</time>
      </trkpt>
      <trkpt lat="44.22419" lon="2.9619">
        <ele>850</ele>
        <time>2019-10-13T08:17:03.000Z</time>
      </trkpt>
      <trkpt lat="44.2242" lon="2.96192">
        <ele>850</ele>
        <time>2019-10-13T08:17:04.000Z</time>
      </trkpt>
      <trkpt lat="44.22421" lon="2.96193">
        <ele>850</ele>
        <time>2019-10-13T08:17:05.000Z</time>
      </trkpt>
      <trkpt lat="44.22423" lon="2.96194">
        <ele>850</ele>
        <time>2019-10-13T08:17:06.000Z</time>
      </trkpt>
      <trkpt lat="44.22424" lon="2.96195">
        <ele>850</ele>
        <time>2019-10-13T08:17:07.000Z</time>
      </trkpt>
      <trkpt lat="44.22425" lon="2.96197">
        <ele>850</ele>
        <time>2019-10-13T08:17:08.000Z</time>
      </trkpt>
      <trkpt lat="44.22425" lon="2.96197">
        <ele>850</ele>
        <time>2019-10-13T08:17:09.000Z</time>
      </trkpt>
      <trkpt lat="44.22426" lon="2.96197">
        <ele>850</ele>
        <time>2019-10-13T08:17:10.000Z</time>
      </trkpt>
      <trkpt lat="44.22427" lon="2.96198">
        <ele>850</ele>
        <time>2019-10-13T08:17:11.000Z</time>
      </trkpt>
      <trkpt lat="44.22428" lon="2.96199">
        <ele>850</ele>
        <time>2019-10-13T08:17:12.000Z</time>
      </trkpt>
      <trkpt lat="44.22429" lon="2.962">
        <ele>850</ele>
        <time>2019-10-13T08:17:13.000Z</time>
      </trkpt>
      <trkpt lat="44.2243" lon="2.96202">
        <ele>850</ele>
        <time>2019-10-13T08:17:14.000Z</time>
      </trkpt>
      <trkpt lat="44.22431" lon="2.96203">
        <ele>850</ele>
        <time>2019-10-13T08:17:15.000Z</time>
      </trkpt>
      <trkpt lat="44.22432" lon="2.96205">
        <ele>850</ele>
        <time>2019-10-13T08:17:16.000Z</time>
      </trkpt>
      <trkpt lat="44.22433" lon="2.96206">
        <ele>850</ele>
        <time>2019-10-13T08:17:17.000Z</time>
      </trkpt>
      <trkpt lat="44.22434" lon="2.96208">
        <ele>850</ele>
        <time>2019-10-13T08:17:18.000Z</time>
      </trkpt>
      <trkpt lat="44.22435" lon="2.96209">
        <ele>850</ele>
        <time>2019-10-13T08:17:19.000Z</time>
      </trkpt>
      <trkpt lat="44.22436" lon="2.96211">
        <ele>850</ele>
        <time>2019-10-13T08:17:20.000Z</time>
      </trkpt>
      <trkpt lat="44.22438" lon="2.96212">
        <ele>850</ele>
        <time>2019-10-13T08:17:21.000Z</time>
      </trkpt>
      <trkpt lat="44.22439" lon="2.96214">
        <ele>850</ele>
        <time>2019-10-13T08:17:22.000Z</time>
      </trkpt>
      <trkpt lat="44.2244" lon="2.96215">
        <ele>850</ele>
        <time>2019-10-13T08:17:23.000Z</time>
      </trkpt>
      <trkpt lat="44.22441" lon="2.96217">
        <ele>850</ele>
        <time>2019-10-13T08:17:24.000Z</time>
      </trkpt>
      <trkpt lat="44.22442" lon="2.96218">
        <ele>850</ele>
        <time>2019-10-13T08:17:25.000Z</time>
      </trkpt>
      <trkpt lat="44.22444" lon="2.96219">
        <ele>850</ele>
        <time>2019-10-13T08:17:26.000Z</time>
      </trkpt>
      <trkpt lat="44.22445" lon="2.96221">
        <ele>850</ele>
        <time>2019-10-13T08:17:27.000Z</time>
      </trkpt>
      <trkpt lat="44.22446" lon="2.96222">
        <ele>850</ele>
        <time>2019-10-13T08:17:28.000Z</time>
      </trkpt>
      <trkpt lat="44.22447" lon="2.96224">
        <ele>850</ele>
        <time>2019-10-13T08:17:29.000Z</time>
      </trkpt>
      <trkpt lat="44.22449" lon="2.96225">
        <ele>850</ele>
        <time>2019-10-13T08:17:30.000Z</time>
      </trkpt>
      <trkpt lat="44.2245" lon="2.96227">
        <ele>850</ele>
        <time>2019-10-13T08:17:31.000Z</time>
      </trkpt>
      <trkpt lat="44.22451" lon="2.96228">
        <ele>850</ele>
        <time>2019-10-13T08:17:32.000Z</time>
      </trkpt>
      <trkpt lat="44.22452" lon="2.9623">
        <ele>850</ele>
        <time>2019-10-13T08:17:33.000Z</time>
      </trkpt>
      <trkpt lat="44.22454" lon="2.96231">
        <ele>850</ele>
        <time>2019-10-13T08:17:34.000Z</time>
      </trkpt>
      <trkpt lat="44.22455" lon="2.96233">
        <ele>850</ele>
        <time>2019-10-13T08:17:35.000Z</time>
      </trkpt>
      <trkpt lat="44.22456" lon="2.96234">
        <ele>850</ele>
        <time>2019-10-13T08:17:36.000Z</time>
      </trkpt>
      <trkpt lat="44.22457" lon="2.96235">
        <ele>850</ele>
        <time>2019-10-13T08:17:37.000Z</time>
      </trkpt>
      <trkpt lat="44.22458" lon="2.96237">
        <ele>850</ele>
        <time>2019-10-13T08:17:38.000Z</time>
      </trkpt>
      <trkpt lat="44.2246" lon="2.96238">
        <ele>850</ele>
        <time>2019-10-13T08:17:39.000Z</time>
      </trkpt>
      <trkpt lat="44.22461" lon="2.96239">
        <ele>850</ele>
        <time>2019-10-13T08:17:40.000Z</time>
      </trkpt>
      <trkpt lat="44.22462" lon="2.96241">
        <ele>850</ele>
        <time>2019-10-13T08:17:41.000Z</time>
      </trkpt>
      <trkpt lat="44.22463" lon="2.96242">
        <ele>850</ele>
        <time>2019-10-13T08:17:42.000Z</time>
      </trkpt>
      <trkpt lat="44.22464" lon="2.96243">
        <ele>850</ele>
        <time>2019-10-13T08:17:43.000Z</time>
      </trkpt>
      <trkpt lat="44.22466" lon="2.96244">
        <ele>850</ele>
        <time>2019-10-13T08:17:44.000Z</time>
      </trkpt>
      <trkpt lat="44.22467" lon="2.96245">
        <ele>850</ele>
        <time>2019-10-13T08:17:45.000Z</time>
      </trkpt>
      <trkpt lat="44.22468" lon="2.96247">
        <ele>850</ele>
        <time>2019-10-13T08:17:46.000Z</time>
      </trkpt>
      <trkpt lat="44.22469" lon="2.96248">
        <ele>850</ele>
        <time>2019-10-13T08:17:47.000Z</time>
      </trkpt>
      <trkpt lat="44.2247" lon="2.96249">
        <ele>850</ele>
        <time>2019-10-13T08:17:48.000Z</time>
      </trkpt>
      <trkpt lat="44.22471" lon="2.96251">
        <ele>850</ele>
        <time>2019-10-13T08:17:49.000Z</time>
      </trkpt>
      <trkpt lat="44.22472" lon="2.96252">
        <ele>850</ele>
        <time>2019-10-13T08:17:50.000Z</time>
      </trkpt>
      <trkpt lat="44.22473" lon="2.96254">
        <ele>850</ele>
        <time>2019-10-13T08:17:51.000Z</time>
      </trkpt>
      <trkpt lat="44.22475" lon="2.96255">
        <ele>850</ele>
        <time>2019-10-13T08:17:52.000Z</time>
      </trkpt>
      <trkpt lat="44.22476" lon="2.96257">
        <ele>850</ele>
        <time>2019-10-13T08:17:53.000Z</time>
      </trkpt>
      <trkpt lat="44.22477" lon="2.96258">
        <ele>850</ele>
        <time>2019-10-13T08:17:54.000Z</time>
      </trkpt>
      <trkpt lat="44.22478" lon="2.96259">
        <ele>850</ele>
        <time>2019-10-13T08:17:55.000Z</time>
      </trkpt>
      <trkpt lat="44.2248" lon="2.96261">
        <ele>850</ele>
        <time>2019-10-13T08:17:56.000Z</time>
      </trkpt>
      <trkpt lat="44.22481" lon="2.96262">
        <ele>850</ele>
        <time>2019-10-13T08:17:57.000Z</time>
      </trkpt>
      <trkpt lat="44.22482" lon="2.96263">
        <ele>850</ele>
        <time>2019-10-13T08:17:58.000Z</time>
      </trkpt>
      <trkpt lat="44.22482" lon="2.96263">
        <ele>850</ele>
        <time>2019-10-13T08:17:59.000Z</time>
      </trkpt>
      <trkpt lat="44.22482" lon="2.96264">
        <ele>850</ele>
        <time>2019-10-13T08:18:00.000Z</time>
      </trkpt>
      <trkpt lat="44.22482" lon="2.96264">
        <ele>850</ele>
        <time>2019-10-13T08:18:01.000Z</time>
      </trkpt>
      <trkpt lat="44.22483" lon="2.96265">
        <ele>850</ele>
        <time>2019-10-13T08:18:02.000Z</time>
      </trkpt>
      <trkpt lat="44.22484" lon="2.96267">
        <ele>850</ele>
        <time>2019-10-13T08:18:03.000Z</time>
      </trkpt>
      <trkpt lat="44.22485" lon="2.96268">
        <ele>850</ele>
        <time>2019-10-13T08:18:04.000Z</time>
      </trkpt>
      <trkpt lat="44.22486" lon="2.96269">
        <ele>849</ele>
        <time>2019-10-13T08:18:05.000Z</time>
      </trkpt>
      <trkpt lat="44.22488" lon="2.96271">
        <ele>849</ele>
        <time>2019-10-13T08:18:06.000Z</time>
      </trkpt>
      <trkpt lat="44.22489" lon="2.96273">
        <ele>849</ele>
        <time>2019-10-13T08:18:07.000Z</time>
      </trkpt>
      <trkpt lat="44.2249" lon="2.96274">
        <ele>849</ele>
        <time>2019-10-13T08:18:08.000Z</time>
      </trkpt>
      <trkpt lat="44.22491" lon="2.96276">
        <ele>849</ele>
        <time>2019-10-13T08:18:09.000Z</time>
      </trkpt>
      <trkpt lat="44.22492" lon="2.96277">
        <ele>849</ele>
        <time>2019-10-13T08:18:10.000Z</time>
      </trkpt>
      <trkpt lat="44.22493" lon="2.96278">
        <ele>849</ele>
        <time>2019-10-13T08:18:11.000Z</time>
      </trkpt>
      <trkpt lat="44.22493" lon="2.96279">
        <ele>849</ele>
        <time>2019-10-13T08:18:12.000Z</time>
      </trkpt>
      <trkpt lat="44.22493" lon="2.96279">
        <ele>849</ele>
        <time>2019-10-13T08:18:13.000Z</time>
      </trkpt>
      <trkpt lat="44.22493" lon="2.96279">
        <ele>849</ele>
        <time>2019-10-13T08:18:14.000Z</time>
      </trkpt>
      <trkpt lat="44.22494" lon="2.96279">
        <ele>849</ele>
        <time>2019-10-13T08:18:15.000Z</time>
      </trkpt>
      <trkpt lat="44.22494" lon="2.96279">
        <ele>849</ele>
        <time>2019-10-13T08:18:16.000Z</time>
      </trkpt>
      <trkpt lat="44.22494" lon="2.9628">
        <ele>849</ele>
        <time>2019-10-13T08:18:17.000Z</time>
      </trkpt>
      <trkpt lat="44.22494" lon="2.9628">
        <ele>849</ele>
        <time>2019-10-13T08:18:18.000Z</time>
      </trkpt>
      <trkpt lat="44.22495" lon="2.96281">
        <ele>849</ele>
        <time>2019-10-13T08:18:19.000Z</time>
      </trkpt>
      <trkpt lat="44.22495" lon="2.96282">
        <ele>849</ele>
        <time>2019-10-13T08:18:20.000Z</time>
      </trkpt>
      <trkpt lat="44.22496" lon="2.96283">
        <ele>849</ele>
        <time>2019-10-13T08:18:21.000Z</time>
      </trkpt>
      <trkpt lat="44.22497" lon="2.96284">
        <ele>849</ele>
        <time>2019-10-13T08:18:22.000Z</time>
      </trkpt>
      <trkpt lat="44.22498" lon="2.96285">
        <ele>849</ele>
        <time>2019-10-13T08:18:23.000Z</time>
      </trkpt>
      <trkpt lat="44.22499" lon="2.96286">
        <ele>849</ele>
        <time>2019-10-13T08:18:24.000Z</time>
      </trkpt>
      <trkpt lat="44.225" lon="2.96288">
        <ele>849</ele>
        <time>2019-10-13T08:18:25.000Z</time>
      </trkpt>
      <trkpt lat="44.22502" lon="2.96289">
        <ele>849</ele>
        <time>2019-10-13T08:18:26.000Z</time>
      </trkpt>
      <trkpt lat="44.22503" lon="2.9629">
        <ele>849</ele>
        <time>2019-10-13T08:18:27.000Z</time>
      </trkpt>
      <trkpt lat="44.22504" lon="2.96292">
        <ele>849</ele>
        <time>2019-10-13T08:18:28.000Z</time>
      </trkpt>
      <trkpt lat="44.22505" lon="2.96293">
        <ele>849</ele>
        <time>2019-10-13T08:18:29.000Z</time>
      </trkpt>
      <trkpt lat="44.22507" lon="2.96295">
        <ele>848</ele>
        <time>2019-10-13T08:18:30.000Z</time>
      </trkpt>
      <trkpt lat="44.22508" lon="2.96297">
        <ele>848</ele>
        <time>2019-10-13T08:18:31.000Z</time>
      </trkpt>
      <trkpt lat="44.2251" lon="2.96298">
        <ele>849</ele>
        <time>2019-10-13T08:18:32.000Z</time>
      </trkpt>
      <trkpt lat="44.22511" lon="2.963">
        <ele>848</ele>
        <time>2019-10-13T08:18:33.000Z</time>
      </trkpt>
      <trkpt lat="44.22513" lon="2.96302">
        <ele>848</ele>
        <time>2019-10-13T08:18:34.000Z</time>
      </trkpt>
      <trkpt lat="44.22514" lon="2.96304">
        <ele>848</ele>
        <time>2019-10-13T08:18:35.000Z</time>
      </trkpt>
      <trkpt lat="44.22516" lon="2.96306">
        <ele>848</ele>
        <time>2019-10-13T08:18:36.000Z</time>
      </trkpt>
      <trkpt lat="44.22517" lon="2.96307">
        <ele>848</ele>
        <time>2019-10-13T08:18:37.000Z</time>
      </trkpt>
      <trkpt lat="44.22518" lon="2.96309">
        <ele>848</ele>
        <time>2019-10-13T08:18:38.000Z</time>
      </trkpt>
      <trkpt lat="44.22519" lon="2.9631">
        <ele>848</ele>
        <time>2019-10-13T08:18:39.000Z</time>
      </trkpt>
      <trkpt lat="44.22521" lon="2.96312">
        <ele>848</ele>
        <time>2019-10-13T08:18:40.000Z</time>
      </trkpt>
      <trkpt lat="44.22522" lon="2.96313">
        <ele>848</ele>
        <time>2019-10-13T08:18:41.000Z</time>
      </trkpt>
      <trkpt lat="44.22523" lon="2.96314">
        <ele>848</ele>
        <time>2019-10-13T08:18:42.000Z</time>
      </trkpt>
      <trkpt lat="44.22525" lon="2.96315">
        <ele>848</ele>
        <time>2019-10-13T08:18:43.000Z</time>
      </trkpt>
      <trkpt lat="44.22526" lon="2.96316">
        <ele>848</ele>
        <time>2019-10-13T08:18:44.000Z</time>
      </trkpt>
      <trkpt lat="44.22527" lon="2.96318">
        <ele>848</ele>
        <time>2019-10-13T08:18:45.000Z</time>
      </trkpt>
      <trkpt lat="44.22528" lon="2.96319">
        <ele>848</ele>
        <time>2019-10-13T08:18:46.000Z</time>
      </trkpt>
      <trkpt lat="44.2253" lon="2.96321">
        <ele>848</ele>
        <time>2019-10-13T08:18:47.000Z</time>
      </trkpt>
      <trkpt lat="44.22531" lon="2.96322">
        <ele>848</ele>
        <time>2019-10-13T08:18:48.000Z</time>
      </trkpt>
      <trkpt lat="44.22533" lon="2.96323">
        <ele>848</ele>
        <time>2019-10-13T08:18:49.000Z</time>
      </trkpt>
      <trkpt lat="44.22534" lon="2.96325">
        <ele>848</ele>
        <time>2019-10-13T08:18:50.000Z</time>
      </trkpt>
      <trkpt lat="44.22535" lon="2.96326">
        <ele>848</ele>
        <time>2019-10-13T08:18:51.000Z</time>
      </trkpt>
      <trkpt lat="44.22536" lon="2.96327">
        <ele>848</ele>
        <time>2019-10-13T08:18:52.000Z</time>
      </trkpt>
      <trkpt lat="44.22538" lon="2.96328">
        <ele>848</ele>
        <time>2019-10-13T08:18:53.000Z</time>
      </trkpt>
      <trkpt lat="44.22539" lon="2.96329">
        <ele>847</ele>
        <time>2019-10-13T08:18:54.000Z</time>
      </trkpt>
      <trkpt lat="44.2254" lon="2.9633">
        <ele>847</ele>
        <time>2019-10-13T08:18:55.000Z</time>
      </trkpt>
      <trkpt lat="44.22542" lon="2.96331">
        <ele>847</ele>
        <time>2019-10-13T08:18:56.000Z</time>
      </trkpt>
      <trkpt lat="44.22543" lon="2.96332">
        <ele>847</ele>
        <time>2019-10-13T08:18:57.000Z</time>
      </trkpt>
      <trkpt lat="44.22545" lon="2.96332">
        <ele>847</ele>
        <time>2019-10-13T08:18:58.000Z</time>
      </trkpt>
      <trkpt lat="44.22546" lon="2.96333">
        <ele>847</ele>
        <time>2019-10-13T08:18:59.000Z</time>
      </trkpt>
      <trkpt lat="44.22548" lon="2.96333">
        <ele>847</ele>
        <time>2019-10-13T08:19:00.000Z</time>
      </trkpt>
      <trkpt lat="44.22549" lon="2.96334">
        <ele>847</ele>
        <time>2019-10-13T08:19:01.000Z</time>
      </trkpt>
      <trkpt lat="44.22551" lon="2.96335">
        <ele>846</ele>
        <time>2019-10-13T08:19:02.000Z</time>
      </trkpt>
      <trkpt lat="44.22553" lon="2.96336">
        <ele>846</ele>
        <time>2019-10-13T08:19:03.000Z</time>
      </trkpt>
      <trkpt lat="44.22554" lon="2.96337">
        <ele>846</ele>
        <time>2019-10-13T08:19:04.000Z</time>
      </trkpt>
      <trkpt lat="44.22556" lon="2.96338">
        <ele>846</ele>
        <time>2019-10-13T08:19:05.000Z</time>
      </trkpt>
      <trkpt lat="44.22557" lon="2.96338">
        <ele>846</ele>
        <time>2019-10-13T08:19:06.000Z</time>
      </trkpt>
      <trkpt lat="44.22559" lon="2.96339">
        <ele>846</ele>
        <time>2019-10-13T08:19:07.000Z</time>
      </trkpt>
      <trkpt lat="44.2256" lon="2.9634">
        <ele>846</ele>
        <time>2019-10-13T08:19:08.000Z</time>
      </trkpt>
      <trkpt lat="44.22561" lon="2.9634">
        <ele>846</ele>
        <time>2019-10-13T08:19:09.000Z</time>
      </trkpt>
      <trkpt lat="44.22563" lon="2.96341">
        <ele>846</ele>
        <time>2019-10-13T08:19:10.000Z</time>
      </trkpt>
      <trkpt lat="44.22564" lon="2.96342">
        <ele>845</ele>
        <time>2019-10-13T08:19:11.000Z</time>
      </trkpt>
      <trkpt lat="44.22565" lon="2.96342">
        <ele>845</ele>
        <time>2019-10-13T08:19:12.000Z</time>
      </trkpt>
      <trkpt lat="44.22565" lon="2.96342">
        <ele>845</ele>
        <time>2019-10-13T08:19:13.000Z</time>
      </trkpt>
      <trkpt lat="44.22565" lon="2.96342">
        <ele>845</ele>
        <time>2019-10-13T08:19:14.000Z</time>
      </trkpt>
      <trkpt lat="44.22567" lon="2.96343">
        <ele>845</ele>
        <time>2019-10-13T08:19:15.000Z</time>
      </trkpt>
      <trkpt lat="44.22568" lon="2.96344">
        <ele>845</ele>
        <time>2019-10-13T08:19:16.000Z</time>
      </trkpt>
      <trkpt lat="44.2257" lon="2.96344">
        <ele>845</ele>
        <time>2019-10-13T08:19:17.000Z</time>
      </trkpt>
      <trkpt lat="44.22571" lon="2.96345">
        <ele>845</ele>
        <time>2019-10-13T08:19:18.000Z</time>
      </trkpt>
      <trkpt lat="44.22573" lon="2.96346">
        <ele>845</ele>
        <time>2019-10-13T08:19:19.000Z</time>
      </trkpt>
      <trkpt lat="44.22574" lon="2.96347">
        <ele>845</ele>
        <time>2019-10-13T08:19:20.000Z</time>
      </trkpt>
      <trkpt lat="44.22576" lon="2.96348">
        <ele>845</ele>
        <time>2019-10-13T08:19:21.000Z</time>
      </trkpt>
      <trkpt lat="44.22577" lon="2.96349">
        <ele>844</ele>
        <time>2019-10-13T08:19:22.000Z</time>
      </trkpt>
      <trkpt lat="44.22578" lon="2.96351">
        <ele>844</ele>
        <time>2019-10-13T08:19:23.000Z</time>
      </trkpt>
      <trkpt lat="44.2258" lon="2.96352">
        <ele>844</ele>
        <time>2019-10-13T08:19:24.000Z</time>
      </trkpt>
      <trkpt lat="44.22581" lon="2.96354">
        <ele>844</ele>
        <time>2019-10-13T08:19:25.000Z</time>
      </trkpt>
      <trkpt lat="44.22582" lon="2.96355">
        <ele>844</ele>
        <time>2019-10-13T08:19:26.000Z</time>
      </trkpt>
      <trkpt lat="44.22584" lon="2.96357">
        <ele>844</ele>
        <time>2019-10-13T08:19:27.000Z</time>
      </trkpt>
      <trkpt lat="44.22585" lon="2.96358">
        <ele>844</ele>
        <time>2019-10-13T08:19:28.000Z</time>
      </trkpt>
      <trkpt lat="44.22587" lon="2.9636">
        <ele>843</ele>
        <time>2019-10-13T08:19:29.000Z</time>
      </trkpt>
      <trkpt lat="44.22588" lon="2.96362">
        <ele>843</ele>
        <time>2019-10-13T08:19:30.000Z</time>
      </trkpt>
      <trkpt lat="44.22589" lon="2.96363">
        <ele>843</ele>
        <time>2019-10-13T08:19:31.000Z</time>
      </trkpt>
      <trkpt lat="44.2259" lon="2.96365">
        <ele>843</ele>
        <time>2019-10-13T08:19:32.000Z</time>
      </trkpt>
      <trkpt lat="44.22592" lon="2.96366">
        <ele>843</ele>
        <time>2019-10-13T08:19:33.000Z</time>
      </trkpt>
      <trkpt lat="44.22593" lon="2.96368">
        <ele>843</ele>
        <time>2019-10-13T08:19:34.000Z</time>
      </trkpt>
      <trkpt lat="44.22594" lon="2.96369">
        <ele>843</ele>
        <time>2019-10-13T08:19:35.000Z</time>
      </trkpt>
      <trkpt lat="44.22595" lon="2.96371">
        <ele>842</ele>
        <time>2019-10-13T08:19:36.000Z</time>
      </trkpt>
      <trkpt lat="44.22597" lon="2.96372">
        <ele>842</ele>
        <time>2019-10-13T08:19:37.000Z</time>
      </trkpt>
      <trkpt lat="44.22598" lon="2.96373">
        <ele>842</ele>
        <time>2019-10-13T08:19:38.000Z</time>
      </trkpt>
      <trkpt lat="44.22599" lon="2.96375">
        <ele>842</ele>
        <time>2019-10-13T08:19:39.000Z</time>
      </trkpt>
      <trkpt lat="44.226" lon="2.96376">
        <ele>842</ele>
        <time>2019-10-13T08:19:40.000Z</time>
      </trkpt>
      <trkpt lat="44.22601" lon="2.96377">
        <ele>842</ele>
        <time>2019-10-13T08:19:41.000Z</time>
      </trkpt>
      <trkpt lat="44.22602" lon="2.96378">
        <ele>842</ele>
        <time>2019-10-13T08:19:42.000Z</time>
      </trkpt>
      <trkpt lat="44.22603" lon="2.9638">
        <ele>842</ele>
        <time>2019-10-13T08:19:43.000Z</time>
      </trkpt>
      <trkpt lat="44.22604" lon="2.96381">
        <ele>842</ele>
        <time>2019-10-13T08:19:44.000Z</time>
      </trkpt>
      <trkpt lat="44.22605" lon="2.96382">
        <ele>842</ele>
        <time>2019-10-13T08:19:45.000Z</time>
      </trkpt>
      <trkpt lat="44.22606" lon="2.96383">
        <ele>842</ele>
        <time>2019-10-13T08:19:46.000Z</time>
      </trkpt>
      <trkpt lat="44.22607" lon="2.96385">
        <ele>842</ele>
        <time>2019-10-13T08:19:47.000Z</time>
      </trkpt>
      <trkpt lat="44.22609" lon="2.96386">
        <ele>841</ele>
        <time>2019-10-13T08:19:48.000Z</time>
      </trkpt>
      <trkpt lat="44.2261" lon="2.96388">
        <ele>841</ele>
        <time>2019-10-13T08:19:49.000Z</time>
      </trkpt>
      <trkpt lat="44.22611" lon="2.96389">
        <ele>841</ele>
        <time>2019-10-13T08:19:50.000Z</time>
      </trkpt>
      <trkpt lat="44.22612" lon="2.9639">
        <ele>841</ele>
        <time>2019-10-13T08:19:51.000Z</time>
      </trkpt>
      <trkpt lat="44.22613" lon="2.96391">
        <ele>841</ele>
        <time>2019-10-13T08:19:52.000Z</time>
      </trkpt>
      <trkpt lat="44.22614" lon="2.96392">
        <ele>840</ele>
        <time>2019-10-13T08:19:53.000Z</time>
      </trkpt>
      <trkpt lat="44.22615" lon="2.96394">
        <ele>840</ele>
        <time>2019-10-13T08:19:54.000Z</time>
      </trkpt>
      <trkpt lat="44.22616" lon="2.96395">
        <ele>840</ele>
        <time>2019-10-13T08:19:55.000Z</time>
      </trkpt>
      <trkpt lat="44.22617" lon="2.96396">
        <ele>840</ele>
        <time>2019-10-13T08:19:56.000Z</time>
      </trkpt>
      <trkpt lat="44.22618" lon="2.96397">
        <ele>840</ele>
        <time>2019-10-13T08:19:57.000Z</time>
      </trkpt>
      <trkpt lat="44.22619" lon="2.96399">
        <ele>840</ele>
        <time>2019-10-13T08:19:58.000Z</time>
      </trkpt>
      <trkpt lat="44.2262" lon="2.964">
        <ele>840</ele>
        <time>2019-10-13T08:19:59.000Z</time>
      </trkpt>
      <trkpt lat="44.22621" lon="2.96401">
        <ele>840</ele>
        <time>2019-10-13T08:20:00.000Z</time>
      </trkpt>
      <trkpt lat="44.22622" lon="2.96402">
        <ele>840</ele>
        <time>2019-10-13T08:20:01.000Z</time>
      </trkpt>
      <trkpt lat="44.22623" lon="2.96403">
        <ele>840</ele>
        <time>2019-10-13T08:20:02.000Z</time>
      </trkpt>
      <trkpt lat="44.22625" lon="2.96405">
        <ele>840</ele>
        <time>2019-10-13T08:20:03.000Z</time>
      </trkpt>
      <trkpt lat="44.22626" lon="2.96406">
        <ele>840</ele>
        <time>2019-10-13T08:20:04.000Z</time>
      </trkpt>
      <trkpt lat="44.22627" lon="2.96407">
        <ele>840</ele>
        <time>2019-10-13T08:20:05.000Z</time>
      </trkpt>
      <trkpt lat="44.22629" lon="2.96409">
        <ele>839</ele>
        <time>2019-10-13T08:20:06.000Z</time>
      </trkpt>
      <trkpt lat="44.2263" lon="2.9641">
        <ele>839</ele>
        <time>2019-10-13T08:20:07.000Z</time>
      </trkpt>
      <trkpt lat="44.22631" lon="2.96411">
        <ele>839</ele>
        <time>2019-10-13T08:20:08.000Z</time>
      </trkpt>
      <trkpt lat="44.22632" lon="2.96412">
        <ele>839</ele>
        <time>2019-10-13T08:20:09.000Z</time>
      </trkpt>
      <trkpt lat="44.22633" lon="2.96413">
        <ele>839</ele>
        <time>2019-10-13T08:20:10.000Z</time>
      </trkpt>
      <trkpt lat="44.22634" lon="2.96415">
        <ele>839</ele>
        <time>2019-10-13T08:20:11.000Z</time>
      </trkpt>
      <trkpt lat="44.22635" lon="2.96416">
        <ele>838</ele>
        <time>2019-10-13T08:20:12.000Z</time>
      </trkpt>
      <trkpt lat="44.22636" lon="2.96417">
        <ele>838</ele>
        <time>2019-10-13T08:20:13.000Z</time>
      </trkpt>
      <trkpt lat="44.22637" lon="2.96418">
        <ele>838</ele>
        <time>2019-10-13T08:20:14.000Z</time>
      </trkpt>
      <trkpt lat="44.22638" lon="2.96419">
        <ele>838</ele>
        <time>2019-10-13T08:20:15.000Z</time>
      </trkpt>
      <trkpt lat="44.22638" lon="2.9642">
        <ele>837</ele>
        <time>2019-10-13T08:20:16.000Z</time>
      </trkpt>
      <trkpt lat="44.22639" lon="2.96421">
        <ele>837</ele>
        <time>2019-10-13T08:20:17.000Z</time>
      </trkpt>
      <trkpt lat="44.2264" lon="2.96422">
        <ele>837</ele>
        <time>2019-10-13T08:20:18.000Z</time>
      </trkpt>
      <trkpt lat="44.22641" lon="2.96423">
        <ele>837</ele>
        <time>2019-10-13T08:20:19.000Z</time>
      </trkpt>
      <trkpt lat="44.22641" lon="2.96425">
        <ele>837</ele>
        <time>2019-10-13T08:20:20.000Z</time>
      </trkpt>
      <trkpt lat="44.22642" lon="2.96426">
        <ele>837</ele>
        <time>2019-10-13T08:20:21.000Z</time>
      </trkpt>
      <trkpt lat="44.22643" lon="2.96427">
        <ele>837</ele>
        <time>2019-10-13T08:20:22.000Z</time>
      </trkpt>
      <trkpt lat="44.22643" lon="2.96428">
        <ele>837</ele>
        <time>2019-10-13T08:20:23.000Z</time>
      </trkpt>
      <trkpt lat="44.22644" lon="2.96429">
        <ele>836</ele>
        <time>2019-10-13T08:20:24.000Z</time>
      </trkpt>
      <trkpt lat="44.22645" lon="2.96431">
        <ele>836</ele>
        <time>2019-10-13T08:20:25.000Z</time>
      </trkpt>
      <trkpt lat="44.22646" lon="2.96432">
        <ele>836</ele>
        <time>2019-10-13T08:20:26.000Z</time>
      </trkpt>
      <trkpt lat="44.22647" lon="2.96433">
        <ele>836</ele>
        <time>2019-10-13T08:20:27.000Z</time>
      </trkpt>
      <trkpt lat="44.22648" lon="2.96434">
        <ele>836</ele>
        <time>2019-10-13T08:20:28.000Z</time>
      </trkpt>
      <trkpt lat="44.22649" lon="2.96435">
        <ele>836</ele>
        <time>2019-10-13T08:20:29.000Z</time>
      </trkpt>
      <trkpt lat="44.2265" lon="2.96437">
        <ele>836</ele>
        <time>2019-10-13T08:20:30.000Z</time>
      </trkpt>
      <trkpt lat="44.22651" lon="2.96437">
        <ele>836</ele>
        <time>2019-10-13T08:20:31.000Z</time>
      </trkpt>
      <trkpt lat="44.22652" lon="2.96438">
        <ele>836</ele>
        <time>2019-10-13T08:20:32.000Z</time>
      </trkpt>
      <trkpt lat="44.22653" lon="2.96439">
        <ele>836</ele>
        <time>2019-10-13T08:20:33.000Z</time>
      </trkpt>
      <trkpt lat="44.22655" lon="2.9644">
        <ele>836</ele>
        <time>2019-10-13T08:20:34.000Z</time>
      </trkpt>
      <trkpt lat="44.22656" lon="2.9644">
        <ele>836</ele>
        <time>2019-10-13T08:20:35.000Z</time>
      </trkpt>
      <trkpt lat="44.22656" lon="2.96441">
        <ele>836</ele>
        <time>2019-10-13T08:20:36.000Z</time>
      </trkpt>
      <trkpt lat="44.22657" lon="2.96441">
        <ele>836</ele>
        <time>2019-10-13T08:20:37.000Z</time>
      </trkpt>
      <trkpt lat="44.22659" lon="2.96441">
        <ele>836</ele>
        <time>2019-10-13T08:20:38.000Z</time>
      </trkpt>
      <trkpt lat="44.2266" lon="2.96442">
        <ele>836</ele>
        <time>2019-10-13T08:20:39.000Z</time>
      </trkpt>
      <trkpt lat="44.22661" lon="2.96442">
        <ele>836</ele>
        <time>2019-10-13T08:20:40.000Z</time>
      </trkpt>
      <trkpt lat="44.22662" lon="2.96442">
        <ele>835</ele>
        <time>2019-10-13T08:20:41.000Z</time>
      </trkpt>
      <trkpt lat="44.22663" lon="2.96441">
        <ele>835</ele>
        <time>2019-10-13T08:20:42.000Z</time>
      </trkpt>
      <trkpt lat="44.22664" lon="2.96441">
        <ele>835</ele>
        <time>2019-10-13T08:20:43.000Z</time>
      </trkpt>
      <trkpt lat="44.22665" lon="2.9644">
        <ele>835</ele>
        <time>2019-10-13T08:20:44.000Z</time>
      </trkpt>
      <trkpt lat="44.22666" lon="2.96439">
        <ele>835</ele>
        <time>2019-10-13T08:20:45.000Z</time>
      </trkpt>
      <trkpt lat="44.22667" lon="2.96438">
        <ele>835</ele>
        <time>2019-10-13T08:20:46.000Z</time>
      </trkpt>
      <trkpt lat="44.22668" lon="2.96438">
        <ele>835</ele>
        <time>2019-10-13T08:20:47.000Z</time>
      </trkpt>
      <trkpt lat="44.22669" lon="2.96438">
        <ele>835</ele>
        <time>2019-10-13T08:20:48.000Z</time>
      </trkpt>
      <trkpt lat="44.2267" lon="2.96437">
        <ele>835</ele>
        <time>2019-10-13T08:20:49.000Z</time>
      </trkpt>
      <trkpt lat="44.22671" lon="2.96437">
        <ele>835</ele>
        <time>2019-10-13T08:20:50.000Z</time>
      </trkpt>
      <trkpt lat="44.22672" lon="2.96437">
        <ele>835</ele>
        <time>2019-10-13T08:20:51.000Z</time>
      </trkpt>
      <trkpt lat="44.22674" lon="2.96437">
        <ele>835</ele>
        <time>2019-10-13T08:20:52.000Z</time>
      </trkpt>
      <trkpt lat="44.22675" lon="2.96437">
        <ele>835</ele>
        <time>2019-10-13T08:20:53.000Z</time>
      </trkpt>
      <trkpt lat="44.22676" lon="2.96437">
        <ele>835</ele>
        <time>2019-10-13T08:20:54.000Z</time>
      </trkpt>
      <trkpt lat="44.22678" lon="2.96438">
        <ele>834</ele>
        <time>2019-10-13T08:20:55.000Z</time>
      </trkpt>
      <trkpt lat="44.22679" lon="2.96438">
        <ele>834</ele>
        <time>2019-10-13T08:20:56.000Z</time>
      </trkpt>
      <trkpt lat="44.2268" lon="2.96439">
        <ele>834</ele>
        <time>2019-10-13T08:20:57.000Z</time>
      </trkpt>
      <trkpt lat="44.22682" lon="2.9644">
        <ele>834</ele>
        <time>2019-10-13T08:20:58.000Z</time>
      </trkpt>
      <trkpt lat="44.22683" lon="2.96441">
        <ele>834</ele>
        <time>2019-10-13T08:20:59.000Z</time>
      </trkpt>
      <trkpt lat="44.22685" lon="2.96442">
        <ele>834</ele>
        <time>2019-10-13T08:21:00.000Z</time>
      </trkpt>
      <trkpt lat="44.22686" lon="2.96442">
        <ele>834</ele>
        <time>2019-10-13T08:21:01.000Z</time>
      </trkpt>
      <trkpt lat="44.22688" lon="2.96442">
        <ele>833</ele>
        <time>2019-10-13T08:21:02.000Z</time>
      </trkpt>
      <trkpt lat="44.22689" lon="2.96443">
        <ele>833</ele>
        <time>2019-10-13T08:21:03.000Z</time>
      </trkpt>
      <trkpt lat="44.22691" lon="2.96443">
        <ele>833</ele>
        <time>2019-10-13T08:21:04.000Z</time>
      </trkpt>
      <trkpt lat="44.22692" lon="2.96443">
        <ele>833</ele>
        <time>2019-10-13T08:21:05.000Z</time>
      </trkpt>
      <trkpt lat="44.22693" lon="2.96444">
        <ele>833</ele>
        <time>2019-10-13T08:21:06.000Z</time>
      </trkpt>
      <trkpt lat="44.22695" lon="2.96444">
        <ele>832</ele>
        <time>2019-10-13T08:21:07.000Z</time>
      </trkpt>
      <trkpt lat="44.22696" lon="2.96444">
        <ele>832</ele>
        <time>2019-10-13T08:21:08.000Z</time>
      </trkpt>
      <trkpt lat="44.22698" lon="2.96445">
        <ele>832</ele>
        <time>2019-10-13T08:21:09.000Z</time>
      </trkpt>
      <trkpt lat="44.22699" lon="2.96446">
        <ele>832</ele>
        <time>2019-10-13T08:21:10.000Z</time>
      </trkpt>
      <trkpt lat="44.22701" lon="2.96447">
        <ele>832</ele>
        <time>2019-10-13T08:21:11.000Z</time>
      </trkpt>
      <trkpt lat="44.22703" lon="2.96447">
        <ele>832</ele>
        <time>2019-10-13T08:21:12.000Z</time>
      </trkpt>
      <trkpt lat="44.22704" lon="2.96448">
        <ele>832</ele>
        <time>2019-10-13T08:21:13.000Z</time>
      </trkpt>
      <trkpt lat="44.22706" lon="2.96448">
        <ele>831</ele>
        <time>2019-10-13T08:21:14.000Z</time>
      </trkpt>
      <trkpt lat="44.22707" lon="2.96448">
        <ele>831</ele>
        <time>2019-10-13T08:21:15.000Z</time>
      </trkpt>
      <trkpt lat="44.22709" lon="2.96449">
        <ele>831</ele>
        <time>2019-10-13T08:21:16.000Z</time>
      </trkpt>
      <trkpt lat="44.2271" lon="2.96449">
        <ele>830</ele>
        <time>2019-10-13T08:21:17.000Z</time>
      </trkpt>
      <trkpt lat="44.22712" lon="2.96449">
        <ele>830</ele>
        <time>2019-10-13T08:21:18.000Z</time>
      </trkpt>
      <trkpt lat="44.22713" lon="2.96449">
        <ele>830</ele>
        <time>2019-10-13T08:21:19.000Z</time>
      </trkpt>
      <trkpt lat="44.22715" lon="2.96449">
        <ele>829</ele>
        <time>2019-10-13T08:21:20.000Z</time>
      </trkpt>
      <trkpt lat="44.22716" lon="2.9645">
        <ele>829</ele>
        <time>2019-10-13T08:21:21.000Z</time>
      </trkpt>
      <trkpt lat="44.22717" lon="2.9645">
        <ele>829</ele>
        <time>2019-10-13T08:21:22.000Z</time>
      </trkpt>
      <trkpt lat="44.22719" lon="2.9645">
        <ele>828</ele>
        <time>2019-10-13T08:21:23.000Z</time>
      </trkpt>
      <trkpt lat="44.2272" lon="2.9645">
        <ele>828</ele>
        <time>2019-10-13T08:21:24.000Z</time>
      </trkpt>
      <trkpt lat="44.22722" lon="2.9645">
        <ele>827</ele>
        <time>2019-10-13T08:21:25.000Z</time>
      </trkpt>
      <trkpt lat="44.22723" lon="2.9645">
        <ele>827</ele>
        <time>2019-10-13T08:21:26.000Z</time>
      </trkpt>
      <trkpt lat="44.22724" lon="2.96451">
        <ele>826</ele>
        <time>2019-10-13T08:21:27.000Z</time>
      </trkpt>
      <trkpt lat="44.22726" lon="2.96451">
        <ele>826</ele>
        <time>2019-10-13T08:21:28.000Z</time>
      </trkpt>
      <trkpt lat="44.22727" lon="2.96451">
        <ele>825</ele>
        <time>2019-10-13T08:21:29.000Z</time>
      </trkpt>
      <trkpt lat="44.22729" lon="2.96451">
        <ele>825</ele>
        <time>2019-10-13T08:21:30.000Z</time>
      </trkpt>
      <trkpt lat="44.2273" lon="2.96451">
        <ele>824</ele>
        <time>2019-10-13T08:21:31.000Z</time>
      </trkpt>
      <trkpt lat="44.22731" lon="2.96451">
        <ele>824</ele>
        <time>2019-10-13T08:21:32.000Z</time>
      </trkpt>
      <trkpt lat="44.22732" lon="2.96451">
        <ele>824</ele>
        <time>2019-10-13T08:21:33.000Z</time>
      </trkpt>
      <trkpt lat="44.22733" lon="2.96451">
        <ele>823</ele>
        <time>2019-10-13T08:21:34.000Z</time>
      </trkpt>
      <trkpt lat="44.22734" lon="2.96451">
        <ele>823</ele>
        <time>2019-10-13T08:21:35.000Z</time>
      </trkpt>
      <trkpt lat="44.22735" lon="2.96451">
        <ele>823</ele>
        <time>2019-10-13T08:21:36.000Z</time>
      </trkpt>
      <trkpt lat="44.22736" lon="2.96451">
        <ele>822</ele>
        <time>2019-10-13T08:21:37.000Z</time>
      </trkpt>
      <trkpt lat="44.22737" lon="2.96451">
        <ele>822</ele>
        <time>2019-10-13T08:21:38.000Z</time>
      </trkpt>
      <trkpt lat="44.22739" lon="2.96451">
        <ele>822</ele>
        <time>2019-10-13T08:21:39.000Z</time>
      </trkpt>
      <trkpt lat="44.2274" lon="2.96451">
        <ele>821</ele>
        <time>2019-10-13T08:21:40.000Z</time>
      </trkpt>
      <trkpt lat="44.22741" lon="2.96451">
        <ele>821</ele>
        <time>2019-10-13T08:21:41.000Z</time>
      </trkpt>
      <trkpt lat="44.22743" lon="2.9645">
        <ele>821</ele>
        <time>2019-10-13T08:21:42.000Z</time>
      </trkpt>
      <trkpt lat="44.22744" lon="2.9645">
        <ele>821</ele>
        <time>2019-10-13T08:21:43.000Z</time>
      </trkpt>
      <trkpt lat="44.22745" lon="2.9645">
        <ele>820</ele>
        <time>2019-10-13T08:21:44.000Z</time>
      </trkpt>
      <trkpt lat="44.22747" lon="2.96451">
        <ele>820</ele>
        <time>2019-10-13T08:21:45.000Z</time>
      </trkpt>
      <trkpt lat="44.22748" lon="2.96451">
        <ele>820</ele>
        <time>2019-10-13T08:21:46.000Z</time>
      </trkpt>
      <trkpt lat="44.22749" lon="2.96451">
        <ele>820</ele>
        <time>2019-10-13T08:21:47.000Z</time>
      </trkpt>
      <trkpt lat="44.22751" lon="2.96451">
        <ele>820</ele>
        <time>2019-10-13T08:21:48.000Z</time>
      </trkpt>
      <trkpt lat="44.22752" lon="2.96451">
        <ele>820</ele>
        <time>2019-10-13T08:21:49.000Z</time>
      </trkpt>
      <trkpt lat="44.22753" lon="2.96451">
        <ele>819</ele>
        <time>2019-10-13T08:21:50.000Z</time>
      </trkpt>
      <trkpt lat="44.22755" lon="2.96451">
        <ele>819</ele>
        <time>2019-10-13T08:21:51.000Z</time>
      </trkpt>
      <trkpt lat="44.22756" lon="2.96451">
        <ele>819</ele>
        <time>2019-10-13T08:21:52.000Z</time>
      </trkpt>
      <trkpt lat="44.22758" lon="2.96452">
        <ele>819</ele>
        <time>2019-10-13T08:21:53.000Z</time>
      </trkpt>
      <trkpt lat="44.22759" lon="2.96452">
        <ele>819</ele>
        <time>2019-10-13T08:21:54.000Z</time>
      </trkpt>
      <trkpt lat="44.22761" lon="2.96453">
        <ele>819</ele>
        <time>2019-10-13T08:21:55.000Z</time>
      </trkpt>
      <trkpt lat="44.22762" lon="2.96453">
        <ele>819</ele>
        <time>2019-10-13T08:21:56.000Z</time>
      </trkpt>
      <trkpt lat="44.22764" lon="2.96453">
        <ele>818</ele>
        <time>2019-10-13T08:21:57.000Z</time>
      </trkpt>
      <trkpt lat="44.22765" lon="2.96454">
        <ele>818</ele>
        <time>2019-10-13T08:21:58.000Z</time>
      </trkpt>
      <trkpt lat="44.22766" lon="2.96455">
        <ele>818</ele>
        <time>2019-10-13T08:21:59.000Z</time>
      </trkpt>
      <trkpt lat="44.22768" lon="2.96455">
        <ele>818</ele>
        <time>2019-10-13T08:22:00.000Z</time>
      </trkpt>
      <trkpt lat="44.22769" lon="2.96456">
        <ele>818</ele>
        <time>2019-10-13T08:22:01.000Z</time>
      </trkpt>
      <trkpt lat="44.22771" lon="2.96456">
        <ele>818</ele>
        <time>2019-10-13T08:22:02.000Z</time>
      </trkpt>
      <trkpt lat="44.22772" lon="2.96456">
        <ele>818</ele>
        <time>2019-10-13T08:22:03.000Z</time>
      </trkpt>
      <trkpt lat="44.22773" lon="2.96457">
        <ele>818</ele>
        <time>2019-10-13T08:22:04.000Z</time>
      </trkpt>
      <trkpt lat="44.22774" lon="2.96457">
        <ele>818</ele>
        <time>2019-10-13T08:22:05.000Z</time>
      </trkpt>
      <trkpt lat="44.22775" lon="2.96458">
        <ele>818</ele>
        <time>2019-10-13T08:22:06.000Z</time>
      </trkpt>
      <trkpt lat="44.22776" lon="2.96458">
        <ele>818</ele>
        <time>2019-10-13T08:22:07.000Z</time>
      </trkpt>
      <trkpt lat="44.22777" lon="2.96459">
        <ele>818</ele>
        <time>2019-10-13T08:22:08.000Z</time>
      </trkpt>
      <trkpt lat="44.22779" lon="2.96459">
        <ele>818</ele>
        <time>2019-10-13T08:22:09.000Z</time>
      </trkpt>
      <trkpt lat="44.2278" lon="2.9646">
        <ele>818</ele>
        <time>2019-10-13T08:22:10.000Z</time>
      </trkpt>
      <trkpt lat="44.22781" lon="2.96461">
        <ele>818</ele>
        <time>2019-10-13T08:22:11.000Z</time>
      </trkpt>
      <trkpt lat="44.22783" lon="2.96461">
        <ele>817</ele>
        <time>2019-10-13T08:22:12.000Z</time>
      </trkpt>
      <trkpt lat="44.22784" lon="2.96462">
        <ele>817</ele>
        <time>2019-10-13T08:22:13.000Z</time>
      </trkpt>
      <trkpt lat="44.22785" lon="2.96462">
        <ele>817</ele>
        <time>2019-10-13T08:22:14.000Z</time>
      </trkpt>
      <trkpt lat="44.22787" lon="2.96463">
        <ele>817</ele>
        <time>2019-10-13T08:22:15.000Z</time>
      </trkpt>
      <trkpt lat="44.22788" lon="2.96464">
        <ele>817</ele>
        <time>2019-10-13T08:22:16.000Z</time>
      </trkpt>
      <trkpt lat="44.2279" lon="2.96464">
        <ele>817</ele>
        <time>2019-10-13T08:22:17.000Z</time>
      </trkpt>
      <trkpt lat="44.22791" lon="2.96465">
        <ele>817</ele>
        <time>2019-10-13T08:22:18.000Z</time>
      </trkpt>
      <trkpt lat="44.22793" lon="2.96466">
        <ele>816</ele>
        <time>2019-10-13T08:22:19.000Z</time>
      </trkpt>
      <trkpt lat="44.22795" lon="2.96467">
        <ele>816</ele>
        <time>2019-10-13T08:22:20.000Z</time>
      </trkpt>
      <trkpt lat="44.22797" lon="2.96468">
        <ele>816</ele>
        <time>2019-10-13T08:22:21.000Z</time>
      </trkpt>
      <trkpt lat="44.22798" lon="2.96468">
        <ele>816</ele>
        <time>2019-10-13T08:22:22.000Z</time>
      </trkpt>
      <trkpt lat="44.228" lon="2.96469">
        <ele>816</ele>
        <time>2019-10-13T08:22:23.000Z</time>
      </trkpt>
      <trkpt lat="44.22801" lon="2.96469">
        <ele>815</ele>
        <time>2019-10-13T08:22:24.000Z</time>
      </trkpt>
      <trkpt lat="44.22803" lon="2.9647">
        <ele>815</ele>
        <time>2019-10-13T08:22:25.000Z</time>
      </trkpt>
      <trkpt lat="44.22804" lon="2.96471">
        <ele>815</ele>
        <time>2019-10-13T08:22:26.000Z</time>
      </trkpt>
      <trkpt lat="44.22805" lon="2.96472">
        <ele>815</ele>
        <time>2019-10-13T08:22:27.000Z</time>
      </trkpt>
      <trkpt lat="44.22807" lon="2.96473">
        <ele>815</ele>
        <time>2019-10-13T08:22:28.000Z</time>
      </trkpt>
      <trkpt lat="44.22808" lon="2.96474">
        <ele>814</ele>
        <time>2019-10-13T08:22:29.000Z</time>
      </trkpt>
      <trkpt lat="44.2281" lon="2.96475">
        <ele>814</ele>
        <time>2019-10-13T08:22:30.000Z</time>
      </trkpt>
      <trkpt lat="44.22811" lon="2.96477">
        <ele>814</ele>
        <time>2019-10-13T08:22:31.000Z</time>
      </trkpt>
      <trkpt lat="44.22813" lon="2.96478">
        <ele>814</ele>
        <time>2019-10-13T08:22:32.000Z</time>
      </trkpt>
      <trkpt lat="44.22814" lon="2.96479">
        <ele>814</ele>
        <time>2019-10-13T08:22:33.000Z</time>
      </trkpt>
      <trkpt lat="44.22816" lon="2.9648">
        <ele>814</ele>
        <time>2019-10-13T08:22:34.000Z</time>
      </trkpt>
      <trkpt lat="44.22817" lon="2.96481">
        <ele>813</ele>
        <time>2019-10-13T08:22:35.000Z</time>
      </trkpt>
      <trkpt lat="44.22818" lon="2.96483">
        <ele>813</ele>
        <time>2019-10-13T08:22:36.000Z</time>
      </trkpt>
      <trkpt lat="44.2282" lon="2.96484">
        <ele>813</ele>
        <time>2019-10-13T08:22:37.000Z</time>
      </trkpt>
      <trkpt lat="44.22821" lon="2.96486">
        <ele>813</ele>
        <time>2019-10-13T08:22:38.000Z</time>
      </trkpt>
      <trkpt lat="44.22822" lon="2.96488">
        <ele>813</ele>
        <time>2019-10-13T08:22:39.000Z</time>
      </trkpt>
      <trkpt lat="44.22823" lon="2.9649">
        <ele>813</ele>
        <time>2019-10-13T08:22:40.000Z</time>
      </trkpt>
      <trkpt lat="44.22824" lon="2.96492">
        <ele>812</ele>
        <time>2019-10-13T08:22:41.000Z</time>
      </trkpt>
      <trkpt lat="44.22825" lon="2.96494">
        <ele>812</ele>
        <time>2019-10-13T08:22:42.000Z</time>
      </trkpt>
      <trkpt lat="44.22825" lon="2.96496">
        <ele>812</ele>
        <time>2019-10-13T08:22:43.000Z</time>
      </trkpt>
      <trkpt lat="44.22825" lon="2.96498">
        <ele>812</ele>
        <time>2019-10-13T08:22:44.000Z</time>
      </trkpt>
      <trkpt lat="44.22825" lon="2.965">
        <ele>811</ele>
        <time>2019-10-13T08:22:45.000Z</time>
      </trkpt>
      <trkpt lat="44.22825" lon="2.96502">
        <ele>811</ele>
        <time>2019-10-13T08:22:46.000Z</time>
      </trkpt>
      <trkpt lat="44.22824" lon="2.96504">
        <ele>811</ele>
        <time>2019-10-13T08:22:47.000Z</time>
      </trkpt>
      <trkpt lat="44.22823" lon="2.96505">
        <ele>811</ele>
        <time>2019-10-13T08:22:48.000Z</time>
      </trkpt>
      <trkpt lat="44.22823" lon="2.96507">
        <ele>810</ele>
        <time>2019-10-13T08:22:49.000Z</time>
      </trkpt>
      <trkpt lat="44.22822" lon="2.96508">
        <ele>810</ele>
        <time>2019-10-13T08:22:50.000Z</time>
      </trkpt>
      <trkpt lat="44.22821" lon="2.9651">
        <ele>810</ele>
        <time>2019-10-13T08:22:51.000Z</time>
      </trkpt>
      <trkpt lat="44.2282" lon="2.96511">
        <ele>810</ele>
        <time>2019-10-13T08:22:52.000Z</time>
      </trkpt>
      <trkpt lat="44.22819" lon="2.96512">
        <ele>809</ele>
        <time>2019-10-13T08:22:53.000Z</time>
      </trkpt>
      <trkpt lat="44.22818" lon="2.96513">
        <ele>809</ele>
        <time>2019-10-13T08:22:54.000Z</time>
      </trkpt>
      <trkpt lat="44.22817" lon="2.96515">
        <ele>809</ele>
        <time>2019-10-13T08:22:55.000Z</time>
      </trkpt>
      <trkpt lat="44.22816" lon="2.96516">
        <ele>809</ele>
        <time>2019-10-13T08:22:56.000Z</time>
      </trkpt>
      <trkpt lat="44.22815" lon="2.96517">
        <ele>808</ele>
        <time>2019-10-13T08:22:57.000Z</time>
      </trkpt>
      <trkpt lat="44.22814" lon="2.96519">
        <ele>808</ele>
        <time>2019-10-13T08:22:58.000Z</time>
      </trkpt>
      <trkpt lat="44.22813" lon="2.9652">
        <ele>808</ele>
        <time>2019-10-13T08:22:59.000Z</time>
      </trkpt>
      <trkpt lat="44.22812" lon="2.96521">
        <ele>808</ele>
        <time>2019-10-13T08:23:00.000Z</time>
      </trkpt>
      <trkpt lat="44.22811" lon="2.96522">
        <ele>808</ele>
        <time>2019-10-13T08:23:01.000Z</time>
      </trkpt>
      <trkpt lat="44.2281" lon="2.96523">
        <ele>808</ele>
        <time>2019-10-13T08:23:02.000Z</time>
      </trkpt>
      <trkpt lat="44.22809" lon="2.96525">
        <ele>807</ele>
        <time>2019-10-13T08:23:03.000Z</time>
      </trkpt>
      <trkpt lat="44.22808" lon="2.96526">
        <ele>807</ele>
        <time>2019-10-13T08:23:04.000Z</time>
      </trkpt>
      <trkpt lat="44.22807" lon="2.96527">
        <ele>807</ele>
        <time>2019-10-13T08:23:05.000Z</time>
      </trkpt>
      <trkpt lat="44.22806" lon="2.96528">
        <ele>807</ele>
        <time>2019-10-13T08:23:06.000Z</time>
      </trkpt>
      <trkpt lat="44.22805" lon="2.96529">
        <ele>807</ele>
        <time>2019-10-13T08:23:07.000Z</time>
      </trkpt>
      <trkpt lat="44.22804" lon="2.9653">
        <ele>807</ele>
        <time>2019-10-13T08:23:08.000Z</time>
      </trkpt>
      <trkpt lat="44.22803" lon="2.96531">
        <ele>806</ele>
        <time>2019-10-13T08:23:09.000Z</time>
      </trkpt>
      <trkpt lat="44.22801" lon="2.96532">
        <ele>806</ele>
        <time>2019-10-13T08:23:10.000Z</time>
      </trkpt>
      <trkpt lat="44.228" lon="2.96533">
        <ele>806</ele>
        <time>2019-10-13T08:23:11.000Z</time>
      </trkpt>
      <trkpt lat="44.22799" lon="2.96534">
        <ele>806</ele>
        <time>2019-10-13T08:23:12.000Z</time>
      </trkpt>
      <trkpt lat="44.22798" lon="2.96535">
        <ele>806</ele>
        <time>2019-10-13T08:23:13.000Z</time>
      </trkpt>
      <trkpt lat="44.22797" lon="2.96536">
        <ele>806</ele>
        <time>2019-10-13T08:23:14.000Z</time>
      </trkpt>
      <trkpt lat="44.22796" lon="2.96537">
        <ele>806</ele>
        <time>2019-10-13T08:23:15.000Z</time>
      </trkpt>
      <trkpt lat="44.22795" lon="2.96539">
        <ele>805</ele>
        <time>2019-10-13T08:23:16.000Z</time>
      </trkpt>
      <trkpt lat="44.22793" lon="2.9654">
        <ele>805</ele>
        <time>2019-10-13T08:23:17.000Z</time>
      </trkpt>
      <trkpt lat="44.22792" lon="2.96541">
        <ele>805</ele>
        <time>2019-10-13T08:23:18.000Z</time>
      </trkpt>
      <trkpt lat="44.22791" lon="2.96542">
        <ele>805</ele>
        <time>2019-10-13T08:23:19.000Z</time>
      </trkpt>
      <trkpt lat="44.2279" lon="2.96544">
        <ele>804</ele>
        <time>2019-10-13T08:23:20.000Z</time>
      </trkpt>
      <trkpt lat="44.22789" lon="2.96545">
        <ele>804</ele>
        <time>2019-10-13T08:23:21.000Z</time>
      </trkpt>
      <trkpt lat="44.22788" lon="2.96546">
        <ele>804</ele>
        <time>2019-10-13T08:23:22.000Z</time>
      </trkpt>
      <trkpt lat="44.22787" lon="2.96547">
        <ele>804</ele>
        <time>2019-10-13T08:23:23.000Z</time>
      </trkpt>
      <trkpt lat="44.22787" lon="2.96547">
        <ele>804</ele>
        <time>2019-10-13T08:23:24.000Z</time>
      </trkpt>
      <trkpt lat="44.22786" lon="2.96548">
        <ele>804</ele>
        <time>2019-10-13T08:23:25.000Z</time>
      </trkpt>
      <trkpt lat="44.22785" lon="2.96549">
        <ele>804</ele>
        <time>2019-10-13T08:23:26.000Z</time>
      </trkpt>
      <trkpt lat="44.22785" lon="2.9655">
        <ele>804</ele>
        <time>2019-10-13T08:23:27.000Z</time>
      </trkpt>
      <trkpt lat="44.22784" lon="2.96551">
        <ele>803</ele>
        <time>2019-10-13T08:23:28.000Z</time>
      </trkpt>
      <trkpt lat="44.22783" lon="2.96552">
        <ele>803</ele>
        <time>2019-10-13T08:23:29.000Z</time>
      </trkpt>
      <trkpt lat="44.22783" lon="2.96554">
        <ele>803</ele>
        <time>2019-10-13T08:23:30.000Z</time>
      </trkpt>
      <trkpt lat="44.22782" lon="2.96555">
        <ele>803</ele>
        <time>2019-10-13T08:23:31.000Z</time>
      </trkpt>
      <trkpt lat="44.22781" lon="2.96556">
        <ele>803</ele>
        <time>2019-10-13T08:23:32.000Z</time>
      </trkpt>
      <trkpt lat="44.22781" lon="2.96558">
        <ele>803</ele>
        <time>2019-10-13T08:23:33.000Z</time>
      </trkpt>
      <trkpt lat="44.2278" lon="2.96559">
        <ele>803</ele>
        <time>2019-10-13T08:23:34.000Z</time>
      </trkpt>
      <trkpt lat="44.22779" lon="2.96561">
        <ele>802</ele>
        <time>2019-10-13T08:23:35.000Z</time>
      </trkpt>
      <trkpt lat="44.22778" lon="2.96562">
        <ele>802</ele>
        <time>2019-10-13T08:23:36.000Z</time>
      </trkpt>
      <trkpt lat="44.22776" lon="2.96563">
        <ele>802</ele>
        <time>2019-10-13T08:23:37.000Z</time>
      </trkpt>
      <trkpt lat="44.22775" lon="2.96565">
        <ele>802</ele>
        <time>2019-10-13T08:23:38.000Z</time>
      </trkpt>
      <trkpt lat="44.22774" lon="2.96566">
        <ele>802</ele>
        <time>2019-10-13T08:23:39.000Z</time>
      </trkpt>
      <trkpt lat="44.22773" lon="2.96567">
        <ele>801</ele>
        <time>2019-10-13T08:23:40.000Z</time>
      </trkpt>
      <trkpt lat="44.22772" lon="2.96569">
        <ele>801</ele>
        <time>2019-10-13T08:23:41.000Z</time>
      </trkpt>
      <trkpt lat="44.22771" lon="2.9657">
        <ele>801</ele>
        <time>2019-10-13T08:23:42.000Z</time>
      </trkpt>
      <trkpt lat="44.2277" lon="2.96571">
        <ele>801</ele>
        <time>2019-10-13T08:23:43.000Z</time>
      </trkpt>
      <trkpt lat="44.22769" lon="2.96572">
        <ele>801</ele>
        <time>2019-10-13T08:23:44.000Z</time>
      </trkpt>
      <trkpt lat="44.22768" lon="2.96573">
        <ele>801</ele>
        <time>2019-10-13T08:23:45.000Z</time>
      </trkpt>
      <trkpt lat="44.22767" lon="2.96575">
        <ele>800</ele>
        <time>2019-10-13T08:23:46.000Z</time>
      </trkpt>
      <trkpt lat="44.22765" lon="2.96576">
        <ele>800</ele>
        <time>2019-10-13T08:23:47.000Z</time>
      </trkpt>
      <trkpt lat="44.22764" lon="2.96577">
        <ele>800</ele>
        <time>2019-10-13T08:23:48.000Z</time>
      </trkpt>
      <trkpt lat="44.22763" lon="2.96579">
        <ele>800</ele>
        <time>2019-10-13T08:23:49.000Z</time>
      </trkpt>
      <trkpt lat="44.22762" lon="2.9658">
        <ele>800</ele>
        <time>2019-10-13T08:23:50.000Z</time>
      </trkpt>
      <trkpt lat="44.22761" lon="2.96581">
        <ele>800</ele>
        <time>2019-10-13T08:23:51.000Z</time>
      </trkpt>
      <trkpt lat="44.2276" lon="2.96583">
        <ele>800</ele>
        <time>2019-10-13T08:23:52.000Z</time>
      </trkpt>
      <trkpt lat="44.22759" lon="2.96584">
        <ele>799</ele>
        <time>2019-10-13T08:23:53.000Z</time>
      </trkpt>
      <trkpt lat="44.22758" lon="2.96585">
        <ele>799</ele>
        <time>2019-10-13T08:23:54.000Z</time>
      </trkpt>
      <trkpt lat="44.22757" lon="2.96587">
        <ele>799</ele>
        <time>2019-10-13T08:23:55.000Z</time>
      </trkpt>
      <trkpt lat="44.22756" lon="2.96588">
        <ele>799</ele>
        <time>2019-10-13T08:23:56.000Z</time>
      </trkpt>
      <trkpt lat="44.22755" lon="2.96589">
        <ele>799</ele>
        <time>2019-10-13T08:23:57.000Z</time>
      </trkpt>
      <trkpt lat="44.22754" lon="2.96591">
        <ele>799</ele>
        <time>2019-10-13T08:23:58.000Z</time>
      </trkpt>
      <trkpt lat="44.22753" lon="2.96592">
        <ele>798</ele>
        <time>2019-10-13T08:23:59.000Z</time>
      </trkpt>
      <trkpt lat="44.22752" lon="2.96593">
        <ele>798</ele>
        <time>2019-10-13T08:24:00.000Z</time>
      </trkpt>
      <trkpt lat="44.22751" lon="2.96594">
        <ele>798</ele>
        <time>2019-10-13T08:24:01.000Z</time>
      </trkpt>
      <trkpt lat="44.2275" lon="2.96595">
        <ele>798</ele>
        <time>2019-10-13T08:24:02.000Z</time>
      </trkpt>
      <trkpt lat="44.22749" lon="2.96595">
        <ele>798</ele>
        <time>2019-10-13T08:24:03.000Z</time>
      </trkpt>
      <trkpt lat="44.22748" lon="2.96596">
        <ele>797</ele>
        <time>2019-10-13T08:24:04.000Z</time>
      </trkpt>
      <trkpt lat="44.22746" lon="2.96597">
        <ele>797</ele>
        <time>2019-10-13T08:24:05.000Z</time>
      </trkpt>
      <trkpt lat="44.22745" lon="2.96598">
        <ele>797</ele>
        <time>2019-10-13T08:24:06.000Z</time>
      </trkpt>
      <trkpt lat="44.22744" lon="2.96599">
        <ele>797</ele>
        <time>2019-10-13T08:24:07.000Z</time>
      </trkpt>
      <trkpt lat="44.22743" lon="2.96601">
        <ele>796</ele>
        <time>2019-10-13T08:24:08.000Z</time>
      </trkpt>
      <trkpt lat="44.22742" lon="2.96602">
        <ele>796</ele>
        <time>2019-10-13T08:24:09.000Z</time>
      </trkpt>
      <trkpt lat="44.22741" lon="2.96603">
        <ele>796</ele>
        <time>2019-10-13T08:24:10.000Z</time>
      </trkpt>
      <trkpt lat="44.22739" lon="2.96605">
        <ele>796</ele>
        <time>2019-10-13T08:24:11.000Z</time>
      </trkpt>
      <trkpt lat="44.22738" lon="2.96606">
        <ele>796</ele>
        <time>2019-10-13T08:24:12.000Z</time>
      </trkpt>
      <trkpt lat="44.22737" lon="2.96607">
        <ele>796</ele>
        <time>2019-10-13T08:24:13.000Z</time>
      </trkpt>
      <trkpt lat="44.22736" lon="2.96609">
        <ele>796</ele>
        <time>2019-10-13T08:24:14.000Z</time>
      </trkpt>
      <trkpt lat="44.22735" lon="2.9661">
        <ele>796</ele>
        <time>2019-10-13T08:24:15.000Z</time>
      </trkpt>
      <trkpt lat="44.22734" lon="2.96611">
        <ele>795</ele>
        <time>2019-10-13T08:24:16.000Z</time>
      </trkpt>
      <trkpt lat="44.22732" lon="2.96612">
        <ele>795</ele>
        <time>2019-10-13T08:24:17.000Z</time>
      </trkpt>
      <trkpt lat="44.22731" lon="2.96613">
        <ele>795</ele>
        <time>2019-10-13T08:24:18.000Z</time>
      </trkpt>
      <trkpt lat="44.2273" lon="2.96614">
        <ele>795</ele>
        <time>2019-10-13T08:24:19.000Z</time>
      </trkpt>
      <trkpt lat="44.22729" lon="2.96615">
        <ele>795</ele>
        <time>2019-10-13T08:24:20.000Z</time>
      </trkpt>
      <trkpt lat="44.22728" lon="2.96616">
        <ele>794</ele>
        <time>2019-10-13T08:24:21.000Z</time>
      </trkpt>
      <trkpt lat="44.22726" lon="2.96617">
        <ele>794</ele>
        <time>2019-10-13T08:24:22.000Z</time>
      </trkpt>
      <trkpt lat="44.22725" lon="2.96618">
        <ele>794</ele>
        <time>2019-10-13T08:24:23.000Z</time>
      </trkpt>
      <trkpt lat="44.22724" lon="2.96619">
        <ele>794</ele>
        <time>2019-10-13T08:24:24.000Z</time>
      </trkpt>
      <trkpt lat="44.22723" lon="2.9662">
        <ele>793</ele>
        <time>2019-10-13T08:24:25.000Z</time>
      </trkpt>
      <trkpt lat="44.22722" lon="2.96621">
        <ele>793</ele>
        <time>2019-10-13T08:24:26.000Z</time>
      </trkpt>
      <trkpt lat="44.2272" lon="2.96622">
        <ele>793</ele>
        <time>2019-10-13T08:24:27.000Z</time>
      </trkpt>
      <trkpt lat="44.22719" lon="2.96623">
        <ele>793</ele>
        <time>2019-10-13T08:24:28.000Z</time>
      </trkpt>
      <trkpt lat="44.22718" lon="2.96624">
        <ele>793</ele>
        <time>2019-10-13T08:24:29.000Z</time>
      </trkpt>
      <trkpt lat="44.22717" lon="2.96625">
        <ele>792</ele>
        <time>2019-10-13T08:24:30.000Z</time>
      </trkpt>
      <trkpt lat="44.22716" lon="2.96626">
        <ele>792</ele>
        <time>2019-10-13T08:24:31.000Z</time>
      </trkpt>
      <trkpt lat="44.22714" lon="2.96627">
        <ele>792</ele>
        <time>2019-10-13T08:24:32.000Z</time>
      </trkpt>
      <trkpt lat="44.22713" lon="2.96628">
        <ele>792</ele>
        <time>2019-10-13T08:24:33.000Z</time>
      </trkpt>
      <trkpt lat="44.22712" lon="2.96629">
        <ele>791</ele>
        <time>2019-10-13T08:24:34.000Z</time>
      </trkpt>
      <trkpt lat="44.22711" lon="2.9663">
        <ele>791</ele>
        <time>2019-10-13T08:24:35.000Z</time>
      </trkpt>
      <trkpt lat="44.2271" lon="2.96631">
        <ele>791</ele>
        <time>2019-10-13T08:24:36.000Z</time>
      </trkpt>
      <trkpt lat="44.22709" lon="2.96632">
        <ele>791</ele>
        <time>2019-10-13T08:24:37.000Z</time>
      </trkpt>
      <trkpt lat="44.22708" lon="2.96633">
        <ele>791</ele>
        <time>2019-10-13T08:24:38.000Z</time>
      </trkpt>
      <trkpt lat="44.22706" lon="2.96634">
        <ele>791</ele>
        <time>2019-10-13T08:24:39.000Z</time>
      </trkpt>
      <trkpt lat="44.22705" lon="2.96635">
        <ele>791</ele>
        <time>2019-10-13T08:24:40.000Z</time>
      </trkpt>
      <trkpt lat="44.22704" lon="2.96636">
        <ele>790</ele>
        <time>2019-10-13T08:24:41.000Z</time>
      </trkpt>
      <trkpt lat="44.22703" lon="2.96637">
        <ele>790</ele>
        <time>2019-10-13T08:24:42.000Z</time>
      </trkpt>
      <trkpt lat="44.22701" lon="2.96638">
        <ele>790</ele>
        <time>2019-10-13T08:24:43.000Z</time>
      </trkpt>
      <trkpt lat="44.227" lon="2.96639">
        <ele>790</ele>
        <time>2019-10-13T08:24:44.000Z</time>
      </trkpt>
      <trkpt lat="44.22699" lon="2.9664">
        <ele>790</ele>
        <time>2019-10-13T08:24:45.000Z</time>
      </trkpt>
      <trkpt lat="44.22698" lon="2.96641">
        <ele>790</ele>
        <time>2019-10-13T08:24:46.000Z</time>
      </trkpt>
      <trkpt lat="44.22696" lon="2.96642">
        <ele>790</ele>
        <time>2019-10-13T08:24:47.000Z</time>
      </trkpt>
      <trkpt lat="44.22695" lon="2.96644">
        <ele>790</ele>
        <time>2019-10-13T08:24:48.000Z</time>
      </trkpt>
      <trkpt lat="44.22694" lon="2.96645">
        <ele>790</ele>
        <time>2019-10-13T08:24:49.000Z</time>
      </trkpt>
      <trkpt lat="44.22693" lon="2.96646">
        <ele>790</ele>
        <time>2019-10-13T08:24:50.000Z</time>
      </trkpt>
      <trkpt lat="44.22692" lon="2.96647">
        <ele>790</ele>
        <time>2019-10-13T08:24:51.000Z</time>
      </trkpt>
      <trkpt lat="44.22691" lon="2.96648">
        <ele>789</ele>
        <time>2019-10-13T08:24:52.000Z</time>
      </trkpt>
      <trkpt lat="44.2269" lon="2.96649">
        <ele>789</ele>
        <time>2019-10-13T08:24:53.000Z</time>
      </trkpt>
      <trkpt lat="44.22689" lon="2.9665">
        <ele>789</ele>
        <time>2019-10-13T08:24:54.000Z</time>
      </trkpt>
      <trkpt lat="44.22688" lon="2.96651">
        <ele>789</ele>
        <time>2019-10-13T08:24:55.000Z</time>
      </trkpt>
      <trkpt lat="44.22687" lon="2.96652">
        <ele>789</ele>
        <time>2019-10-13T08:24:56.000Z</time>
      </trkpt>
      <trkpt lat="44.22686" lon="2.96654">
        <ele>789</ele>
        <time>2019-10-13T08:24:57.000Z</time>
      </trkpt>
      <trkpt lat="44.22685" lon="2.96655">
        <ele>789</ele>
        <time>2019-10-13T08:24:58.000Z</time>
      </trkpt>
      <trkpt lat="44.22684" lon="2.96656">
        <ele>789</ele>
        <time>2019-10-13T08:24:59.000Z</time>
      </trkpt>
      <trkpt lat="44.22683" lon="2.96657">
        <ele>789</ele>
        <time>2019-10-13T08:25:00.000Z</time>
      </trkpt>
      <trkpt lat="44.22682" lon="2.96658">
        <ele>789</ele>
        <time>2019-10-13T08:25:01.000Z</time>
      </trkpt>
      <trkpt lat="44.22681" lon="2.96659">
        <ele>789</ele>
        <time>2019-10-13T08:25:02.000Z</time>
      </trkpt>
      <trkpt lat="44.2268" lon="2.9666">
        <ele>789</ele>
        <time>2019-10-13T08:25:03.000Z</time>
      </trkpt>
      <trkpt lat="44.22679" lon="2.96662">
        <ele>789</ele>
        <time>2019-10-13T08:25:04.000Z</time>
      </trkpt>
      <trkpt lat="44.22678" lon="2.96663">
        <ele>789</ele>
        <time>2019-10-13T08:25:05.000Z</time>
      </trkpt>
      <trkpt lat="44.22677" lon="2.96664">
        <ele>789</ele>
        <time>2019-10-13T08:25:06.000Z</time>
      </trkpt>
      <trkpt lat="44.22677" lon="2.96665">
        <ele>789</ele>
        <time>2019-10-13T08:25:07.000Z</time>
      </trkpt>
      <trkpt lat="44.22676" lon="2.96667">
        <ele>789</ele>
        <time>2019-10-13T08:25:08.000Z</time>
      </trkpt>
      <trkpt lat="44.22675" lon="2.96668">
        <ele>789</ele>
        <time>2019-10-13T08:25:09.000Z</time>
      </trkpt>
      <trkpt lat="44.22675" lon="2.96669">
        <ele>788</ele>
        <time>2019-10-13T08:25:10.000Z</time>
      </trkpt>
      <trkpt lat="44.22674" lon="2.96671">
        <ele>788</ele>
        <time>2019-10-13T08:25:11.000Z</time>
      </trkpt>
      <trkpt lat="44.22674" lon="2.96672">
        <ele>788</ele>
        <time>2019-10-13T08:25:12.000Z</time>
      </trkpt>
      <trkpt lat="44.22673" lon="2.96673">
        <ele>788</ele>
        <time>2019-10-13T08:25:13.000Z</time>
      </trkpt>
      <trkpt lat="44.22672" lon="2.96675">
        <ele>788</ele>
        <time>2019-10-13T08:25:14.000Z</time>
      </trkpt>
      <trkpt lat="44.22672" lon="2.96676">
        <ele>788</ele>
        <time>2019-10-13T08:25:15.000Z</time>
      </trkpt>
      <trkpt lat="44.22671" lon="2.96678">
        <ele>788</ele>
        <time>2019-10-13T08:25:16.000Z</time>
      </trkpt>
      <trkpt lat="44.2267" lon="2.9668">
        <ele>788</ele>
        <time>2019-10-13T08:25:17.000Z</time>
      </trkpt>
      <trkpt lat="44.2267" lon="2.96681">
        <ele>788</ele>
        <time>2019-10-13T08:25:18.000Z</time>
      </trkpt>
      <trkpt lat="44.22669" lon="2.96683">
        <ele>788</ele>
        <time>2019-10-13T08:25:19.000Z</time>
      </trkpt>
      <trkpt lat="44.22668" lon="2.96684">
        <ele>788</ele>
        <time>2019-10-13T08:25:20.000Z</time>
      </trkpt>
      <trkpt lat="44.22668" lon="2.96686">
        <ele>788</ele>
        <time>2019-10-13T08:25:21.000Z</time>
      </trkpt>
      <trkpt lat="44.22667" lon="2.96687">
        <ele>788</ele>
        <time>2019-10-13T08:25:22.000Z</time>
      </trkpt>
      <trkpt lat="44.22667" lon="2.96689">
        <ele>788</ele>
        <time>2019-10-13T08:25:23.000Z</time>
      </trkpt>
      <trkpt lat="44.22666" lon="2.9669">
        <ele>788</ele>
        <time>2019-10-13T08:25:24.000Z</time>
      </trkpt>
      <trkpt lat="44.22665" lon="2.96692">
        <ele>788</ele>
        <time>2019-10-13T08:25:25.000Z</time>
      </trkpt>
      <trkpt lat="44.22665" lon="2.96694">
        <ele>788</ele>
        <time>2019-10-13T08:25:26.000Z</time>
      </trkpt>
      <trkpt lat="44.22664" lon="2.96695">
        <ele>788</ele>
        <time>2019-10-13T08:25:27.000Z</time>
      </trkpt>
      <trkpt lat="44.22664" lon="2.96697">
        <ele>788</ele>
        <time>2019-10-13T08:25:28.000Z</time>
      </trkpt>
      <trkpt lat="44.22663" lon="2.96698">
        <ele>788</ele>
        <time>2019-10-13T08:25:29.000Z</time>
      </trkpt>
      <trkpt lat="44.22663" lon="2.967">
        <ele>788</ele>
        <time>2019-10-13T08:25:30.000Z</time>
      </trkpt>
      <trkpt lat="44.22662" lon="2.96702">
        <ele>788</ele>
        <time>2019-10-13T08:25:31.000Z</time>
      </trkpt>
      <trkpt lat="44.22662" lon="2.96703">
        <ele>788</ele>
        <time>2019-10-13T08:25:32.000Z</time>
      </trkpt>
      <trkpt lat="44.22661" lon="2.96705">
        <ele>788</ele>
        <time>2019-10-13T08:25:33.000Z</time>
      </trkpt>
      <trkpt lat="44.22661" lon="2.96706">
        <ele>788</ele>
        <time>2019-10-13T08:25:34.000Z</time>
      </trkpt>
      <trkpt lat="44.2266" lon="2.96708">
        <ele>788</ele>
        <time>2019-10-13T08:25:35.000Z</time>
      </trkpt>
      <trkpt lat="44.2266" lon="2.96709">
        <ele>788</ele>
        <time>2019-10-13T08:25:36.000Z</time>
      </trkpt>
      <trkpt lat="44.22659" lon="2.96711">
        <ele>788</ele>
        <time>2019-10-13T08:25:37.000Z</time>
      </trkpt>
      <trkpt lat="44.22659" lon="2.96712">
        <ele>788</ele>
        <time>2019-10-13T08:25:38.000Z</time>
      </trkpt>
      <trkpt lat="44.22658" lon="2.96713">
        <ele>788</ele>
        <time>2019-10-13T08:25:39.000Z</time>
      </trkpt>
      <trkpt lat="44.22658" lon="2.96715">
        <ele>788</ele>
        <time>2019-10-13T08:25:40.000Z</time>
      </trkpt>
      <trkpt lat="44.22657" lon="2.96716">
        <ele>789</ele>
        <time>2019-10-13T08:25:41.000Z</time>
      </trkpt>
      <trkpt lat="44.22657" lon="2.96718">
        <ele>789</ele>
        <time>2019-10-13T08:25:42.000Z</time>
      </trkpt>
      <trkpt lat="44.22656" lon="2.96719">
        <ele>789</ele>
        <time>2019-10-13T08:25:43.000Z</time>
      </trkpt>
      <trkpt lat="44.22656" lon="2.96721">
        <ele>789</ele>
        <time>2019-10-13T08:25:44.000Z</time>
      </trkpt>
      <trkpt lat="44.22655" lon="2.96722">
        <ele>789</ele>
        <time>2019-10-13T08:25:45.000Z</time>
      </trkpt>
      <trkpt lat="44.22655" lon="2.96724">
        <ele>789</ele>
        <time>2019-10-13T08:25:46.000Z</time>
      </trkpt>
      <trkpt lat="44.22654" lon="2.96725">
        <ele>789</ele>
        <time>2019-10-13T08:25:47.000Z</time>
      </trkpt>
      <trkpt lat="44.22654" lon="2.96727">
        <ele>789</ele>
        <time>2019-10-13T08:25:48.000Z</time>
      </trkpt>
      <trkpt lat="44.22653" lon="2.96728">
        <ele>789</ele>
        <time>2019-10-13T08:25:49.000Z</time>
      </trkpt>
      <trkpt lat="44.22653" lon="2.9673">
        <ele>789</ele>
        <time>2019-10-13T08:25:50.000Z</time>
      </trkpt>
      <trkpt lat="44.22652" lon="2.96731">
        <ele>790</ele>
        <time>2019-10-13T08:25:51.000Z</time>
      </trkpt>
      <trkpt lat="44.22652" lon="2.96733">
        <ele>790</ele>
        <time>2019-10-13T08:25:52.000Z</time>
      </trkpt>
      <trkpt lat="44.22651" lon="2.96734">
        <ele>790</ele>
        <time>2019-10-13T08:25:53.000Z</time>
      </trkpt>
      <trkpt lat="44.22651" lon="2.96736">
        <ele>790</ele>
        <time>2019-10-13T08:25:54.000Z</time>
      </trkpt>
      <trkpt lat="44.2265" lon="2.96738">
        <ele>790</ele>
        <time>2019-10-13T08:25:55.000Z</time>
      </trkpt>
      <trkpt lat="44.22649" lon="2.96739">
        <ele>790</ele>
        <time>2019-10-13T08:25:56.000Z</time>
      </trkpt>
      <trkpt lat="44.22649" lon="2.96741">
        <ele>790</ele>
        <time>2019-10-13T08:25:57.000Z</time>
      </trkpt>
      <trkpt lat="44.22648" lon="2.96743">
        <ele>790</ele>
        <time>2019-10-13T08:25:58.000Z</time>
      </trkpt>
      <trkpt lat="44.22647" lon="2.96744">
        <ele>790</ele>
        <time>2019-10-13T08:25:59.000Z</time>
      </trkpt>
      <trkpt lat="44.22647" lon="2.96746">
        <ele>790</ele>
        <time>2019-10-13T08:26:00.000Z</time>
      </trkpt>
      <trkpt lat="44.22646" lon="2.96748">
        <ele>790</ele>
        <time>2019-10-13T08:26:01.000Z</time>
      </trkpt>
      <trkpt lat="44.22646" lon="2.96749">
        <ele>790</ele>
        <time>2019-10-13T08:26:02.000Z</time>
      </trkpt>
      <trkpt lat="44.22645" lon="2.96751">
        <ele>790</ele>
        <time>2019-10-13T08:26:03.000Z</time>
      </trkpt>
      <trkpt lat="44.22644" lon="2.96753">
        <ele>790</ele>
        <time>2019-10-13T08:26:04.000Z</time>
      </trkpt>
      <trkpt lat="44.22643" lon="2.96755">
        <ele>790</ele>
        <time>2019-10-13T08:26:05.000Z</time>
      </trkpt>
      <trkpt lat="44.22643" lon="2.96756">
        <ele>790</ele>
        <time>2019-10-13T08:26:06.000Z</time>
      </trkpt>
      <trkpt lat="44.22642" lon="2.96758">
        <ele>790</ele>
        <time>2019-10-13T08:26:07.000Z</time>
      </trkpt>
      <trkpt lat="44.22641" lon="2.96759">
        <ele>790</ele>
        <time>2019-10-13T08:26:08.000Z</time>
      </trkpt>
      <trkpt lat="44.2264" lon="2.96761">
        <ele>790</ele>
        <time>2019-10-13T08:26:09.000Z</time>
      </trkpt>
      <trkpt lat="44.2264" lon="2.96762">
        <ele>790</ele>
        <time>2019-10-13T08:26:10.000Z</time>
      </trkpt>
      <trkpt lat="44.22639" lon="2.96764">
        <ele>790</ele>
        <time>2019-10-13T08:26:11.000Z</time>
      </trkpt>
      <trkpt lat="44.22638" lon="2.96765">
        <ele>790</ele>
        <time>2019-10-13T08:26:12.000Z</time>
      </trkpt>
      <trkpt lat="44.22637" lon="2.96766">
        <ele>790</ele>
        <time>2019-10-13T08:26:13.000Z</time>
      </trkpt>
      <trkpt lat="44.22637" lon="2.96768">
        <ele>790</ele>
        <time>2019-10-13T08:26:14.000Z</time>
      </trkpt>
      <trkpt lat="44.22636" lon="2.96769">
        <ele>790</ele>
        <time>2019-10-13T08:26:15.000Z</time>
      </trkpt>
      <trkpt lat="44.22635" lon="2.9677">
        <ele>790</ele>
        <time>2019-10-13T08:26:16.000Z</time>
      </trkpt>
      <trkpt lat="44.22634" lon="2.96771">
        <ele>790</ele>
        <time>2019-10-13T08:26:17.000Z</time>
      </trkpt>
      <trkpt lat="44.22634" lon="2.96773">
        <ele>790</ele>
        <time>2019-10-13T08:26:18.000Z</time>
      </trkpt>
      <trkpt lat="44.22633" lon="2.96774">
        <ele>790</ele>
        <time>2019-10-13T08:26:19.000Z</time>
      </trkpt>
      <trkpt lat="44.22632" lon="2.96775">
        <ele>790</ele>
        <time>2019-10-13T08:26:20.000Z</time>
      </trkpt>
      <trkpt lat="44.22632" lon="2.96776">
        <ele>790</ele>
        <time>2019-10-13T08:26:21.000Z</time>
      </trkpt>
      <trkpt lat="44.22631" lon="2.96778">
        <ele>789</ele>
        <time>2019-10-13T08:26:22.000Z</time>
      </trkpt>
      <trkpt lat="44.2263" lon="2.96779">
        <ele>789</ele>
        <time>2019-10-13T08:26:23.000Z</time>
      </trkpt>
      <trkpt lat="44.2263" lon="2.9678">
        <ele>789</ele>
        <time>2019-10-13T08:26:24.000Z</time>
      </trkpt>
      <trkpt lat="44.22629" lon="2.96781">
        <ele>789</ele>
        <time>2019-10-13T08:26:25.000Z</time>
      </trkpt>
      <trkpt lat="44.22628" lon="2.96782">
        <ele>789</ele>
        <time>2019-10-13T08:26:26.000Z</time>
      </trkpt>
      <trkpt lat="44.22627" lon="2.96783">
        <ele>789</ele>
        <time>2019-10-13T08:26:27.000Z</time>
      </trkpt>
      <trkpt lat="44.22626" lon="2.96785">
        <ele>789</ele>
        <time>2019-10-13T08:26:28.000Z</time>
      </trkpt>
      <trkpt lat="44.22625" lon="2.96786">
        <ele>789</ele>
        <time>2019-10-13T08:26:29.000Z</time>
      </trkpt>
      <trkpt lat="44.22624" lon="2.96788">
        <ele>789</ele>
        <time>2019-10-13T08:26:30.000Z</time>
      </trkpt>
      <trkpt lat="44.22623" lon="2.96789">
        <ele>789</ele>
        <time>2019-10-13T08:26:31.000Z</time>
      </trkpt>
      <trkpt lat="44.22622" lon="2.96791">
        <ele>789</ele>
        <time>2019-10-13T08:26:32.000Z</time>
      </trkpt>
      <trkpt lat="44.22621" lon="2.96792">
        <ele>789</ele>
        <time>2019-10-13T08:26:33.000Z</time>
      </trkpt>
      <trkpt lat="44.2262" lon="2.96793">
        <ele>789</ele>
        <time>2019-10-13T08:26:34.000Z</time>
      </trkpt>
      <trkpt lat="44.22619" lon="2.96794">
        <ele>788</ele>
        <time>2019-10-13T08:26:35.000Z</time>
      </trkpt>
      <trkpt lat="44.22618" lon="2.96796">
        <ele>788</ele>
        <time>2019-10-13T08:26:36.000Z</time>
      </trkpt>
      <trkpt lat="44.22617" lon="2.96797">
        <ele>788</ele>
        <time>2019-10-13T08:26:37.000Z</time>
      </trkpt>
      <trkpt lat="44.22617" lon="2.96799">
        <ele>788</ele>
        <time>2019-10-13T08:26:38.000Z</time>
      </trkpt>
      <trkpt lat="44.22615" lon="2.968">
        <ele>788</ele>
        <time>2019-10-13T08:26:39.000Z</time>
      </trkpt>
      <trkpt lat="44.22615" lon="2.96801">
        <ele>788</ele>
        <time>2019-10-13T08:26:40.000Z</time>
      </trkpt>
      <trkpt lat="44.22614" lon="2.96803">
        <ele>788</ele>
        <time>2019-10-13T08:26:41.000Z</time>
      </trkpt>
      <trkpt lat="44.22613" lon="2.96804">
        <ele>788</ele>
        <time>2019-10-13T08:26:42.000Z</time>
      </trkpt>
      <trkpt lat="44.22612" lon="2.96806">
        <ele>788</ele>
        <time>2019-10-13T08:26:43.000Z</time>
      </trkpt>
      <trkpt lat="44.22611" lon="2.96807">
        <ele>788</ele>
        <time>2019-10-13T08:26:44.000Z</time>
      </trkpt>
      <trkpt lat="44.2261" lon="2.96809">
        <ele>788</ele>
        <time>2019-10-13T08:26:45.000Z</time>
      </trkpt>
      <trkpt lat="44.22609" lon="2.9681">
        <ele>788</ele>
        <time>2019-10-13T08:26:46.000Z</time>
      </trkpt>
      <trkpt lat="44.22608" lon="2.96811">
        <ele>788</ele>
        <time>2019-10-13T08:26:47.000Z</time>
      </trkpt>
      <trkpt lat="44.22607" lon="2.96812">
        <ele>788</ele>
        <time>2019-10-13T08:26:48.000Z</time>
      </trkpt>
      <trkpt lat="44.22606" lon="2.96814">
        <ele>788</ele>
        <time>2019-10-13T08:26:49.000Z</time>
      </trkpt>
      <trkpt lat="44.22605" lon="2.96815">
        <ele>788</ele>
        <time>2019-10-13T08:26:50.000Z</time>
      </trkpt>
      <trkpt lat="44.22604" lon="2.96817">
        <ele>788</ele>
        <time>2019-10-13T08:26:51.000Z</time>
      </trkpt>
      <trkpt lat="44.22603" lon="2.96818">
        <ele>788</ele>
        <time>2019-10-13T08:26:52.000Z</time>
      </trkpt>
      <trkpt lat="44.22602" lon="2.96819">
        <ele>788</ele>
        <time>2019-10-13T08:26:53.000Z</time>
      </trkpt>
      <trkpt lat="44.22601" lon="2.96821">
        <ele>788</ele>
        <time>2019-10-13T08:26:54.000Z</time>
      </trkpt>
      <trkpt lat="44.226" lon="2.96822">
        <ele>788</ele>
        <time>2019-10-13T08:26:55.000Z</time>
      </trkpt>
      <trkpt lat="44.22599" lon="2.96824">
        <ele>788</ele>
        <time>2019-10-13T08:26:56.000Z</time>
      </trkpt>
      <trkpt lat="44.22598" lon="2.96825">
        <ele>788</ele>
        <time>2019-10-13T08:26:57.000Z</time>
      </trkpt>
      <trkpt lat="44.22597" lon="2.96826">
        <ele>788</ele>
        <time>2019-10-13T08:26:58.000Z</time>
      </trkpt>
      <trkpt lat="44.22596" lon="2.96828">
        <ele>788</ele>
        <time>2019-10-13T08:26:59.000Z</time>
      </trkpt>
      <trkpt lat="44.22595" lon="2.96829">
        <ele>788</ele>
        <time>2019-10-13T08:27:00.000Z</time>
      </trkpt>
      <trkpt lat="44.22594" lon="2.96831">
        <ele>788</ele>
        <time>2019-10-13T08:27:01.000Z</time>
      </trkpt>
      <trkpt lat="44.22593" lon="2.96832">
        <ele>788</ele>
        <time>2019-10-13T08:27:02.000Z</time>
      </trkpt>
      <trkpt lat="44.22592" lon="2.96833">
        <ele>788</ele>
        <time>2019-10-13T08:27:03.000Z</time>
      </trkpt>
      <trkpt lat="44.22591" lon="2.96835">
        <ele>788</ele>
        <time>2019-10-13T08:27:04.000Z</time>
      </trkpt>
      <trkpt lat="44.2259" lon="2.96836">
        <ele>788</ele>
        <time>2019-10-13T08:27:05.000Z</time>
      </trkpt>
      <trkpt lat="44.22589" lon="2.96837">
        <ele>788</ele>
        <time>2019-10-13T08:27:06.000Z</time>
      </trkpt>
      <trkpt lat="44.22588" lon="2.96839">
        <ele>788</ele>
        <time>2019-10-13T08:27:07.000Z</time>
      </trkpt>
      <trkpt lat="44.22587" lon="2.9684">
        <ele>788</ele>
        <time>2019-10-13T08:27:08.000Z</time>
      </trkpt>
      <trkpt lat="44.22587" lon="2.96842">
        <ele>788</ele>
        <time>2019-10-13T08:27:09.000Z</time>
      </trkpt>
      <trkpt lat="44.22586" lon="2.96843">
        <ele>788</ele>
        <time>2019-10-13T08:27:10.000Z</time>
      </trkpt>
      <trkpt lat="44.22585" lon="2.96844">
        <ele>788</ele>
        <time>2019-10-13T08:27:11.000Z</time>
      </trkpt>
      <trkpt lat="44.22584" lon="2.96846">
        <ele>788</ele>
        <time>2019-10-13T08:27:12.000Z</time>
      </trkpt>
      <trkpt lat="44.22583" lon="2.96847">
        <ele>788</ele>
        <time>2019-10-13T08:27:13.000Z</time>
      </trkpt>
      <trkpt lat="44.22582" lon="2.96848">
        <ele>788</ele>
        <time>2019-10-13T08:27:14.000Z</time>
      </trkpt>
      <trkpt lat="44.22582" lon="2.96849">
        <ele>788</ele>
        <time>2019-10-13T08:27:15.000Z</time>
      </trkpt>
      <trkpt lat="44.2258" lon="2.9685">
        <ele>788</ele>
        <time>2019-10-13T08:27:16.000Z</time>
      </trkpt>
      <trkpt lat="44.2258" lon="2.96851">
        <ele>787</ele>
        <time>2019-10-13T08:27:17.000Z</time>
      </trkpt>
      <trkpt lat="44.22579" lon="2.96853">
        <ele>787</ele>
        <time>2019-10-13T08:27:18.000Z</time>
      </trkpt>
      <trkpt lat="44.22578" lon="2.96854">
        <ele>787</ele>
        <time>2019-10-13T08:27:19.000Z</time>
      </trkpt>
      <trkpt lat="44.22577" lon="2.96855">
        <ele>787</ele>
        <time>2019-10-13T08:27:20.000Z</time>
      </trkpt>
      <trkpt lat="44.22576" lon="2.96857">
        <ele>787</ele>
        <time>2019-10-13T08:27:21.000Z</time>
      </trkpt>
      <trkpt lat="44.22576" lon="2.96858">
        <ele>787</ele>
        <time>2019-10-13T08:27:22.000Z</time>
      </trkpt>
      <trkpt lat="44.22575" lon="2.96859">
        <ele>787</ele>
        <time>2019-10-13T08:27:23.000Z</time>
      </trkpt>
      <trkpt lat="44.22574" lon="2.9686">
        <ele>787</ele>
        <time>2019-10-13T08:27:24.000Z</time>
      </trkpt>
      <trkpt lat="44.22573" lon="2.96862">
        <ele>786</ele>
        <time>2019-10-13T08:27:25.000Z</time>
      </trkpt>
      <trkpt lat="44.22573" lon="2.96863">
        <ele>786</ele>
        <time>2019-10-13T08:27:26.000Z</time>
      </trkpt>
      <trkpt lat="44.22572" lon="2.96864">
        <ele>786</ele>
        <time>2019-10-13T08:27:27.000Z</time>
      </trkpt>
      <trkpt lat="44.22571" lon="2.96866">
        <ele>786</ele>
        <time>2019-10-13T08:27:28.000Z</time>
      </trkpt>
      <trkpt lat="44.2257" lon="2.96867">
        <ele>786</ele>
        <time>2019-10-13T08:27:29.000Z</time>
      </trkpt>
      <trkpt lat="44.22569" lon="2.96869">
        <ele>786</ele>
        <time>2019-10-13T08:27:30.000Z</time>
      </trkpt>
      <trkpt lat="44.22569" lon="2.9687">
        <ele>786</ele>
        <time>2019-10-13T08:27:31.000Z</time>
      </trkpt>
      <trkpt lat="44.22568" lon="2.96871">
        <ele>786</ele>
        <time>2019-10-13T08:27:32.000Z</time>
      </trkpt>
      <trkpt lat="44.22567" lon="2.96873">
        <ele>785</ele>
        <time>2019-10-13T08:27:33.000Z</time>
      </trkpt>
      <trkpt lat="44.22566" lon="2.96874">
        <ele>785</ele>
        <time>2019-10-13T08:27:34.000Z</time>
      </trkpt>
      <trkpt lat="44.22565" lon="2.96875">
        <ele>785</ele>
        <time>2019-10-13T08:27:35.000Z</time>
      </trkpt>
      <trkpt lat="44.22564" lon="2.96877">
        <ele>785</ele>
        <time>2019-10-13T08:27:36.000Z</time>
      </trkpt>
      <trkpt lat="44.22563" lon="2.96878">
        <ele>785</ele>
        <time>2019-10-13T08:27:37.000Z</time>
      </trkpt>
      <trkpt lat="44.22563" lon="2.96879">
        <ele>785</ele>
        <time>2019-10-13T08:27:38.000Z</time>
      </trkpt>
      <trkpt lat="44.22562" lon="2.96881">
        <ele>785</ele>
        <time>2019-10-13T08:27:39.000Z</time>
      </trkpt>
      <trkpt lat="44.22561" lon="2.96882">
        <ele>785</ele>
        <time>2019-10-13T08:27:40.000Z</time>
      </trkpt>
      <trkpt lat="44.2256" lon="2.96884">
        <ele>784</ele>
        <time>2019-10-13T08:27:41.000Z</time>
      </trkpt>
      <trkpt lat="44.22559" lon="2.96885">
        <ele>784</ele>
        <time>2019-10-13T08:27:42.000Z</time>
      </trkpt>
      <trkpt lat="44.22559" lon="2.96886">
        <ele>784</ele>
        <time>2019-10-13T08:27:43.000Z</time>
      </trkpt>
      <trkpt lat="44.22558" lon="2.96888">
        <ele>784</ele>
        <time>2019-10-13T08:27:44.000Z</time>
      </trkpt>
      <trkpt lat="44.22557" lon="2.96889">
        <ele>784</ele>
        <time>2019-10-13T08:27:45.000Z</time>
      </trkpt>
      <trkpt lat="44.22556" lon="2.96891">
        <ele>784</ele>
        <time>2019-10-13T08:27:46.000Z</time>
      </trkpt>
      <trkpt lat="44.22555" lon="2.96892">
        <ele>784</ele>
        <time>2019-10-13T08:27:47.000Z</time>
      </trkpt>
      <trkpt lat="44.22554" lon="2.96894">
        <ele>784</ele>
        <time>2019-10-13T08:27:48.000Z</time>
      </trkpt>
      <trkpt lat="44.22554" lon="2.96895">
        <ele>784</ele>
        <time>2019-10-13T08:27:49.000Z</time>
      </trkpt>
      <trkpt lat="44.22553" lon="2.96897">
        <ele>784</ele>
        <time>2019-10-13T08:27:50.000Z</time>
      </trkpt>
      <trkpt lat="44.22552" lon="2.96898">
        <ele>784</ele>
        <time>2019-10-13T08:27:51.000Z</time>
      </trkpt>
      <trkpt lat="44.22551" lon="2.969">
        <ele>784</ele>
        <time>2019-10-13T08:27:52.000Z</time>
      </trkpt>
      <trkpt lat="44.22551" lon="2.96901">
        <ele>784</ele>
        <time>2019-10-13T08:27:53.000Z</time>
      </trkpt>
      <trkpt lat="44.2255" lon="2.96902">
        <ele>784</ele>
        <time>2019-10-13T08:27:54.000Z</time>
      </trkpt>
      <trkpt lat="44.22549" lon="2.96904">
        <ele>783</ele>
        <time>2019-10-13T08:27:55.000Z</time>
      </trkpt>
      <trkpt lat="44.22548" lon="2.96906">
        <ele>783</ele>
        <time>2019-10-13T08:27:56.000Z</time>
      </trkpt>
      <trkpt lat="44.22548" lon="2.96907">
        <ele>783</ele>
        <time>2019-10-13T08:27:57.000Z</time>
      </trkpt>
      <trkpt lat="44.22547" lon="2.96909">
        <ele>783</ele>
        <time>2019-10-13T08:27:58.000Z</time>
      </trkpt>
      <trkpt lat="44.22547" lon="2.9691">
        <ele>783</ele>
        <time>2019-10-13T08:27:59.000Z</time>
      </trkpt>
      <trkpt lat="44.22546" lon="2.96912">
        <ele>783</ele>
        <time>2019-10-13T08:28:00.000Z</time>
      </trkpt>
      <trkpt lat="44.22545" lon="2.96913">
        <ele>783</ele>
        <time>2019-10-13T08:28:01.000Z</time>
      </trkpt>
      <trkpt lat="44.22544" lon="2.96915">
        <ele>783</ele>
        <time>2019-10-13T08:28:02.000Z</time>
      </trkpt>
      <trkpt lat="44.22543" lon="2.96917">
        <ele>782</ele>
        <time>2019-10-13T08:28:03.000Z</time>
      </trkpt>
      <trkpt lat="44.22543" lon="2.96918">
        <ele>782</ele>
        <time>2019-10-13T08:28:04.000Z</time>
      </trkpt>
      <trkpt lat="44.22542" lon="2.9692">
        <ele>782</ele>
        <time>2019-10-13T08:28:05.000Z</time>
      </trkpt>
      <trkpt lat="44.22542" lon="2.96921">
        <ele>782</ele>
        <time>2019-10-13T08:28:06.000Z</time>
      </trkpt>
      <trkpt lat="44.22541" lon="2.96923">
        <ele>782</ele>
        <time>2019-10-13T08:28:07.000Z</time>
      </trkpt>
      <trkpt lat="44.2254" lon="2.96924">
        <ele>782</ele>
        <time>2019-10-13T08:28:08.000Z</time>
      </trkpt>
      <trkpt lat="44.2254" lon="2.96926">
        <ele>782</ele>
        <time>2019-10-13T08:28:09.000Z</time>
      </trkpt>
      <trkpt lat="44.22539" lon="2.96927">
        <ele>782</ele>
        <time>2019-10-13T08:28:10.000Z</time>
      </trkpt>
      <trkpt lat="44.22538" lon="2.96929">
        <ele>782</ele>
        <time>2019-10-13T08:28:11.000Z</time>
      </trkpt>
      <trkpt lat="44.22538" lon="2.9693">
        <ele>781</ele>
        <time>2019-10-13T08:28:12.000Z</time>
      </trkpt>
      <trkpt lat="44.22537" lon="2.96932">
        <ele>781</ele>
        <time>2019-10-13T08:28:13.000Z</time>
      </trkpt>
      <trkpt lat="44.22536" lon="2.96933">
        <ele>781</ele>
        <time>2019-10-13T08:28:14.000Z</time>
      </trkpt>
      <trkpt lat="44.22536" lon="2.96934">
        <ele>781</ele>
        <time>2019-10-13T08:28:15.000Z</time>
      </trkpt>
      <trkpt lat="44.22535" lon="2.96935">
        <ele>781</ele>
        <time>2019-10-13T08:28:16.000Z</time>
      </trkpt>
      <trkpt lat="44.22534" lon="2.96937">
        <ele>781</ele>
        <time>2019-10-13T08:28:17.000Z</time>
      </trkpt>
      <trkpt lat="44.22534" lon="2.96938">
        <ele>781</ele>
        <time>2019-10-13T08:28:18.000Z</time>
      </trkpt>
      <trkpt lat="44.22533" lon="2.9694">
        <ele>781</ele>
        <time>2019-10-13T08:28:19.000Z</time>
      </trkpt>
      <trkpt lat="44.22532" lon="2.96941">
        <ele>781</ele>
        <time>2019-10-13T08:28:20.000Z</time>
      </trkpt>
      <trkpt lat="44.22532" lon="2.96942">
        <ele>781</ele>
        <time>2019-10-13T08:28:21.000Z</time>
      </trkpt>
      <trkpt lat="44.22531" lon="2.96944">
        <ele>781</ele>
        <time>2019-10-13T08:28:22.000Z</time>
      </trkpt>
      <trkpt lat="44.2253" lon="2.96946">
        <ele>780</ele>
        <time>2019-10-13T08:28:23.000Z</time>
      </trkpt>
      <trkpt lat="44.22529" lon="2.96947">
        <ele>780</ele>
        <time>2019-10-13T08:28:24.000Z</time>
      </trkpt>
      <trkpt lat="44.22529" lon="2.96948">
        <ele>780</ele>
        <time>2019-10-13T08:28:25.000Z</time>
      </trkpt>
      <trkpt lat="44.22528" lon="2.96949">
        <ele>780</ele>
        <time>2019-10-13T08:28:26.000Z</time>
      </trkpt>
      <trkpt lat="44.22527" lon="2.96951">
        <ele>780</ele>
        <time>2019-10-13T08:28:27.000Z</time>
      </trkpt>
      <trkpt lat="44.22526" lon="2.96952">
        <ele>780</ele>
        <time>2019-10-13T08:28:28.000Z</time>
      </trkpt>
      <trkpt lat="44.22526" lon="2.96954">
        <ele>779</ele>
        <time>2019-10-13T08:28:29.000Z</time>
      </trkpt>
      <trkpt lat="44.22525" lon="2.96956">
        <ele>779</ele>
        <time>2019-10-13T08:28:30.000Z</time>
      </trkpt>
      <trkpt lat="44.22524" lon="2.96957">
        <ele>779</ele>
        <time>2019-10-13T08:28:31.000Z</time>
      </trkpt>
      <trkpt lat="44.22523" lon="2.96959">
        <ele>779</ele>
        <time>2019-10-13T08:28:32.000Z</time>
      </trkpt>
      <trkpt lat="44.22522" lon="2.96961">
        <ele>779</ele>
        <time>2019-10-13T08:28:33.000Z</time>
      </trkpt>
      <trkpt lat="44.22522" lon="2.96962">
        <ele>779</ele>
        <time>2019-10-13T08:28:34.000Z</time>
      </trkpt>
      <trkpt lat="44.22521" lon="2.96964">
        <ele>779</ele>
        <time>2019-10-13T08:28:35.000Z</time>
      </trkpt>
      <trkpt lat="44.2252" lon="2.96965">
        <ele>779</ele>
        <time>2019-10-13T08:28:36.000Z</time>
      </trkpt>
      <trkpt lat="44.22519" lon="2.96967">
        <ele>779</ele>
        <time>2019-10-13T08:28:37.000Z</time>
      </trkpt>
      <trkpt lat="44.22518" lon="2.96968">
        <ele>779</ele>
        <time>2019-10-13T08:28:38.000Z</time>
      </trkpt>
      <trkpt lat="44.22517" lon="2.96969">
        <ele>778</ele>
        <time>2019-10-13T08:28:39.000Z</time>
      </trkpt>
      <trkpt lat="44.22516" lon="2.96971">
        <ele>778</ele>
        <time>2019-10-13T08:28:40.000Z</time>
      </trkpt>
      <trkpt lat="44.22515" lon="2.96972">
        <ele>778</ele>
        <time>2019-10-13T08:28:41.000Z</time>
      </trkpt>
      <trkpt lat="44.22514" lon="2.96974">
        <ele>778</ele>
        <time>2019-10-13T08:28:42.000Z</time>
      </trkpt>
      <trkpt lat="44.22513" lon="2.96975">
        <ele>778</ele>
        <time>2019-10-13T08:28:43.000Z</time>
      </trkpt>
      <trkpt lat="44.22512" lon="2.96977">
        <ele>778</ele>
        <time>2019-10-13T08:28:44.000Z</time>
      </trkpt>
      <trkpt lat="44.22511" lon="2.96978">
        <ele>778</ele>
        <time>2019-10-13T08:28:45.000Z</time>
      </trkpt>
      <trkpt lat="44.22511" lon="2.9698">
        <ele>778</ele>
        <time>2019-10-13T08:28:46.000Z</time>
      </trkpt>
      <trkpt lat="44.2251" lon="2.96982">
        <ele>778</ele>
        <time>2019-10-13T08:28:47.000Z</time>
      </trkpt>
      <trkpt lat="44.22509" lon="2.96983">
        <ele>778</ele>
        <time>2019-10-13T08:28:48.000Z</time>
      </trkpt>
      <trkpt lat="44.22508" lon="2.96985">
        <ele>777</ele>
        <time>2019-10-13T08:28:49.000Z</time>
      </trkpt>
      <trkpt lat="44.22507" lon="2.96986">
        <ele>777</ele>
        <time>2019-10-13T08:28:50.000Z</time>
      </trkpt>
      <trkpt lat="44.22506" lon="2.96987">
        <ele>777</ele>
        <time>2019-10-13T08:28:51.000Z</time>
      </trkpt>
      <trkpt lat="44.22505" lon="2.96989">
        <ele>777</ele>
        <time>2019-10-13T08:28:52.000Z</time>
      </trkpt>
      <trkpt lat="44.22504" lon="2.9699">
        <ele>777</ele>
        <time>2019-10-13T08:28:53.000Z</time>
      </trkpt>
      <trkpt lat="44.22503" lon="2.96992">
        <ele>777</ele>
        <time>2019-10-13T08:28:54.000Z</time>
      </trkpt>
      <trkpt lat="44.22502" lon="2.96993">
        <ele>777</ele>
        <time>2019-10-13T08:28:55.000Z</time>
      </trkpt>
      <trkpt lat="44.22501" lon="2.96995">
        <ele>777</ele>
        <time>2019-10-13T08:28:56.000Z</time>
      </trkpt>
      <trkpt lat="44.225" lon="2.96996">
        <ele>777</ele>
        <time>2019-10-13T08:28:57.000Z</time>
      </trkpt>
      <trkpt lat="44.22499" lon="2.96997">
        <ele>777</ele>
        <time>2019-10-13T08:28:58.000Z</time>
      </trkpt>
      <trkpt lat="44.22498" lon="2.96999">
        <ele>777</ele>
        <time>2019-10-13T08:28:59.000Z</time>
      </trkpt>
      <trkpt lat="44.22497" lon="2.97">
        <ele>777</ele>
        <time>2019-10-13T08:29:00.000Z</time>
      </trkpt>
      <trkpt lat="44.22496" lon="2.97002">
        <ele>777</ele>
        <time>2019-10-13T08:29:01.000Z</time>
      </trkpt>
      <trkpt lat="44.22495" lon="2.97003">
        <ele>777</ele>
        <time>2019-10-13T08:29:02.000Z</time>
      </trkpt>
      <trkpt lat="44.22494" lon="2.97004">
        <ele>777</ele>
        <time>2019-10-13T08:29:03.000Z</time>
      </trkpt>
      <trkpt lat="44.22493" lon="2.97005">
        <ele>777</ele>
        <time>2019-10-13T08:29:04.000Z</time>
      </trkpt>
      <trkpt lat="44.22492" lon="2.97007">
        <ele>777</ele>
        <time>2019-10-13T08:29:05.000Z</time>
      </trkpt>
      <trkpt lat="44.22491" lon="2.97008">
        <ele>777</ele>
        <time>2019-10-13T08:29:06.000Z</time>
      </trkpt>
      <trkpt lat="44.2249" lon="2.97009">
        <ele>777</ele>
        <time>2019-10-13T08:29:07.000Z</time>
      </trkpt>
      <trkpt lat="44.22489" lon="2.9701">
        <ele>777</ele>
        <time>2019-10-13T08:29:08.000Z</time>
      </trkpt>
      <trkpt lat="44.22488" lon="2.97011">
        <ele>777</ele>
        <time>2019-10-13T08:29:09.000Z</time>
      </trkpt>
      <trkpt lat="44.22487" lon="2.97013">
        <ele>777</ele>
        <time>2019-10-13T08:29:10.000Z</time>
      </trkpt>
      <trkpt lat="44.22486" lon="2.97013">
        <ele>777</ele>
        <time>2019-10-13T08:29:11.000Z</time>
      </trkpt>
      <trkpt lat="44.22485" lon="2.97014">
        <ele>777</ele>
        <time>2019-10-13T08:29:12.000Z</time>
      </trkpt>
      <trkpt lat="44.22483" lon="2.97015">
        <ele>776</ele>
        <time>2019-10-13T08:29:13.000Z</time>
      </trkpt>
      <trkpt lat="44.22482" lon="2.97016">
        <ele>777</ele>
        <time>2019-10-13T08:29:14.000Z</time>
      </trkpt>
      <trkpt lat="44.22481" lon="2.97017">
        <ele>777</ele>
        <time>2019-10-13T08:29:15.000Z</time>
      </trkpt>
      <trkpt lat="44.2248" lon="2.97018">
        <ele>776</ele>
        <time>2019-10-13T08:29:16.000Z</time>
      </trkpt>
      <trkpt lat="44.22479" lon="2.97019">
        <ele>776</ele>
        <time>2019-10-13T08:29:17.000Z</time>
      </trkpt>
      <trkpt lat="44.22478" lon="2.97021">
        <ele>777</ele>
        <time>2019-10-13T08:29:18.000Z</time>
      </trkpt>
      <trkpt lat="44.22477" lon="2.97022">
        <ele>777</ele>
        <time>2019-10-13T08:29:19.000Z</time>
      </trkpt>
      <trkpt lat="44.22475" lon="2.97023">
        <ele>777</ele>
        <time>2019-10-13T08:29:20.000Z</time>
      </trkpt>
      <trkpt lat="44.22474" lon="2.97024">
        <ele>777</ele>
        <time>2019-10-13T08:29:21.000Z</time>
      </trkpt>
      <trkpt lat="44.22473" lon="2.97025">
        <ele>777</ele>
        <time>2019-10-13T08:29:22.000Z</time>
      </trkpt>
      <trkpt lat="44.22472" lon="2.97027">
        <ele>777</ele>
        <time>2019-10-13T08:29:23.000Z</time>
      </trkpt>
      <trkpt lat="44.22471" lon="2.97028">
        <ele>777</ele>
        <time>2019-10-13T08:29:24.000Z</time>
      </trkpt>
      <trkpt lat="44.2247" lon="2.97029">
        <ele>777</ele>
        <time>2019-10-13T08:29:25.000Z</time>
      </trkpt>
      <trkpt lat="44.22469" lon="2.9703">
        <ele>777</ele>
        <time>2019-10-13T08:29:26.000Z</time>
      </trkpt>
      <trkpt lat="44.22468" lon="2.97031">
        <ele>777</ele>
        <time>2019-10-13T08:29:27.000Z</time>
      </trkpt>
      <trkpt lat="44.22467" lon="2.97032">
        <ele>777</ele>
        <time>2019-10-13T08:29:28.000Z</time>
      </trkpt>
      <trkpt lat="44.22466" lon="2.97033">
        <ele>777</ele>
        <time>2019-10-13T08:29:29.000Z</time>
      </trkpt>
      <trkpt lat="44.22464" lon="2.97034">
        <ele>777</ele>
        <time>2019-10-13T08:29:30.000Z</time>
      </trkpt>
      <trkpt lat="44.22463" lon="2.97036">
        <ele>777</ele>
        <time>2019-10-13T08:29:31.000Z</time>
      </trkpt>
      <trkpt lat="44.22462" lon="2.97037">
        <ele>777</ele>
        <time>2019-10-13T08:29:32.000Z</time>
      </trkpt>
      <trkpt lat="44.22461" lon="2.97038">
        <ele>777</ele>
        <time>2019-10-13T08:29:33.000Z</time>
      </trkpt>
      <trkpt lat="44.2246" lon="2.97039">
        <ele>777</ele>
        <time>2019-10-13T08:29:34.000Z</time>
      </trkpt>
      <trkpt lat="44.22459" lon="2.9704">
        <ele>777</ele>
        <time>2019-10-13T08:29:35.000Z</time>
      </trkpt>
      <trkpt lat="44.22457" lon="2.97041">
        <ele>777</ele>
        <time>2019-10-13T08:29:36.000Z</time>
      </trkpt>
      <trkpt lat="44.22456" lon="2.97042">
        <ele>777</ele>
        <time>2019-10-13T08:29:37.000Z</time>
      </trkpt>
      <trkpt lat="44.22455" lon="2.97043">
        <ele>777</ele>
        <time>2019-10-13T08:29:38.000Z</time>
      </trkpt>
      <trkpt lat="44.22454" lon="2.97044">
        <ele>777</ele>
        <time>2019-10-13T08:29:39.000Z</time>
      </trkpt>
      <trkpt lat="44.22453" lon="2.97045">
        <ele>777</ele>
        <time>2019-10-13T08:29:40.000Z</time>
      </trkpt>
      <trkpt lat="44.22451" lon="2.97046">
        <ele>777</ele>
        <time>2019-10-13T08:29:41.000Z</time>
      </trkpt>
      <trkpt lat="44.2245" lon="2.97047">
        <ele>777</ele>
        <time>2019-10-13T08:29:42.000Z</time>
      </trkpt>
      <trkpt lat="44.22449" lon="2.97048">
        <ele>777</ele>
        <time>2019-10-13T08:29:43.000Z</time>
      </trkpt>
      <trkpt lat="44.22448" lon="2.97049">
        <ele>777</ele>
        <time>2019-10-13T08:29:44.000Z</time>
      </trkpt>
      <trkpt lat="44.22446" lon="2.9705">
        <ele>777</ele>
        <time>2019-10-13T08:29:45.000Z</time>
      </trkpt>
      <trkpt lat="44.22445" lon="2.97051">
        <ele>777</ele>
        <time>2019-10-13T08:29:46.000Z</time>
      </trkpt>
      <trkpt lat="44.22444" lon="2.97051">
        <ele>776</ele>
        <time>2019-10-13T08:29:47.000Z</time>
      </trkpt>
      <trkpt lat="44.22443" lon="2.97052">
        <ele>776</ele>
        <time>2019-10-13T08:29:48.000Z</time>
      </trkpt>
      <trkpt lat="44.22441" lon="2.97053">
        <ele>776</ele>
        <time>2019-10-13T08:29:49.000Z</time>
      </trkpt>
      <trkpt lat="44.2244" lon="2.97054">
        <ele>776</ele>
        <time>2019-10-13T08:29:50.000Z</time>
      </trkpt>
      <trkpt lat="44.22438" lon="2.97055">
        <ele>776</ele>
        <time>2019-10-13T08:29:51.000Z</time>
      </trkpt>
      <trkpt lat="44.22437" lon="2.97056">
        <ele>776</ele>
        <time>2019-10-13T08:29:52.000Z</time>
      </trkpt>
      <trkpt lat="44.22436" lon="2.97057">
        <ele>776</ele>
        <time>2019-10-13T08:29:53.000Z</time>
      </trkpt>
      <trkpt lat="44.22435" lon="2.97058">
        <ele>776</ele>
        <time>2019-10-13T08:29:54.000Z</time>
      </trkpt>
      <trkpt lat="44.22433" lon="2.97059">
        <ele>776</ele>
        <time>2019-10-13T08:29:55.000Z</time>
      </trkpt>
      <trkpt lat="44.22432" lon="2.9706">
        <ele>776</ele>
        <time>2019-10-13T08:29:56.000Z</time>
      </trkpt>
      <trkpt lat="44.22431" lon="2.97061">
        <ele>776</ele>
        <time>2019-10-13T08:29:57.000Z</time>
      </trkpt>
      <trkpt lat="44.2243" lon="2.97063">
        <ele>776</ele>
        <time>2019-10-13T08:29:58.000Z</time>
      </trkpt>
      <trkpt lat="44.22428" lon="2.97064">
        <ele>776</ele>
        <time>2019-10-13T08:29:59.000Z</time>
      </trkpt>
      <trkpt lat="44.22427" lon="2.97065">
        <ele>776</ele>
        <time>2019-10-13T08:30:00.000Z</time>
      </trkpt>
      <trkpt lat="44.22425" lon="2.97066">
        <ele>776</ele>
        <time>2019-10-13T08:30:01.000Z</time>
      </trkpt>
      <trkpt lat="44.22424" lon="2.97066">
        <ele>776</ele>
        <time>2019-10-13T08:30:02.000Z</time>
      </trkpt>
      <trkpt lat="44.22423" lon="2.97068">
        <ele>776</ele>
        <time>2019-10-13T08:30:03.000Z</time>
      </trkpt>
      <trkpt lat="44.22421" lon="2.97068">
        <ele>776</ele>
        <time>2019-10-13T08:30:04.000Z</time>
      </trkpt>
      <trkpt lat="44.2242" lon="2.97069">
        <ele>776</ele>
        <time>2019-10-13T08:30:05.000Z</time>
      </trkpt>
      <trkpt lat="44.22418" lon="2.9707">
        <ele>776</ele>
        <time>2019-10-13T08:30:06.000Z</time>
      </trkpt>
      <trkpt lat="44.22417" lon="2.97071">
        <ele>776</ele>
        <time>2019-10-13T08:30:07.000Z</time>
      </trkpt>
      <trkpt lat="44.22415" lon="2.97072">
        <ele>776</ele>
        <time>2019-10-13T08:30:08.000Z</time>
      </trkpt>
      <trkpt lat="44.22414" lon="2.97073">
        <ele>776</ele>
        <time>2019-10-13T08:30:09.000Z</time>
      </trkpt>
      <trkpt lat="44.22413" lon="2.97074">
        <ele>776</ele>
        <time>2019-10-13T08:30:10.000Z</time>
      </trkpt>
      <trkpt lat="44.22412" lon="2.97074">
        <ele>776</ele>
        <time>2019-10-13T08:30:11.000Z</time>
      </trkpt>
      <trkpt lat="44.22411" lon="2.97075">
        <ele>776</ele>
        <time>2019-10-13T08:30:12.000Z</time>
      </trkpt>
      <trkpt lat="44.22409" lon="2.97075">
        <ele>776</ele>
        <time>2019-10-13T08:30:13.000Z</time>
      </trkpt>
      <trkpt lat="44.22408" lon="2.97076">
        <ele>776</ele>
        <time>2019-10-13T08:30:14.000Z</time>
      </trkpt>
      <trkpt lat="44.22407" lon="2.97076">
        <ele>776</ele>
        <time>2019-10-13T08:30:15.000Z</time>
      </trkpt>
      <trkpt lat="44.22405" lon="2.97077">
        <ele>776</ele>
        <time>2019-10-13T08:30:16.000Z</time>
      </trkpt>
      <trkpt lat="44.22404" lon="2.97077">
        <ele>776</ele>
        <time>2019-10-13T08:30:17.000Z</time>
      </trkpt>
      <trkpt lat="44.22403" lon="2.97078">
        <ele>776</ele>
        <time>2019-10-13T08:30:18.000Z</time>
      </trkpt>
      <trkpt lat="44.22401" lon="2.97079">
        <ele>776</ele>
        <time>2019-10-13T08:30:19.000Z</time>
      </trkpt>
      <trkpt lat="44.224" lon="2.97079">
        <ele>776</ele>
        <time>2019-10-13T08:30:20.000Z</time>
      </trkpt>
      <trkpt lat="44.22398" lon="2.97079">
        <ele>777</ele>
        <time>2019-10-13T08:30:21.000Z</time>
      </trkpt>
      <trkpt lat="44.22397" lon="2.9708">
        <ele>776</ele>
        <time>2019-10-13T08:30:22.000Z</time>
      </trkpt>
      <trkpt lat="44.22395" lon="2.9708">
        <ele>777</ele>
        <time>2019-10-13T08:30:23.000Z</time>
      </trkpt>
      <trkpt lat="44.22394" lon="2.97081">
        <ele>777</ele>
        <time>2019-10-13T08:30:24.000Z</time>
      </trkpt>
      <trkpt lat="44.22392" lon="2.97081">
        <ele>777</ele>
        <time>2019-10-13T08:30:25.000Z</time>
      </trkpt>
      <trkpt lat="44.22391" lon="2.97082">
        <ele>777</ele>
        <time>2019-10-13T08:30:26.000Z</time>
      </trkpt>
      <trkpt lat="44.22389" lon="2.97082">
        <ele>777</ele>
        <time>2019-10-13T08:30:27.000Z</time>
      </trkpt>
      <trkpt lat="44.22388" lon="2.97082">
        <ele>777</ele>
        <time>2019-10-13T08:30:28.000Z</time>
      </trkpt>
      <trkpt lat="44.22386" lon="2.97083">
        <ele>777</ele>
        <time>2019-10-13T08:30:29.000Z</time>
      </trkpt>
      <trkpt lat="44.22384" lon="2.97083">
        <ele>777</ele>
        <time>2019-10-13T08:30:30.000Z</time>
      </trkpt>
      <trkpt lat="44.22383" lon="2.97084">
        <ele>777</ele>
        <time>2019-10-13T08:30:31.000Z</time>
      </trkpt>
      <trkpt lat="44.22381" lon="2.97085">
        <ele>777</ele>
        <time>2019-10-13T08:30:32.000Z</time>
      </trkpt>
      <trkpt lat="44.22379" lon="2.97085">
        <ele>777</ele>
        <time>2019-10-13T08:30:33.000Z</time>
      </trkpt>
      <trkpt lat="44.22378" lon="2.97086">
        <ele>777</ele>
        <time>2019-10-13T08:30:34.000Z</time>
      </trkpt>
      <trkpt lat="44.22376" lon="2.97087">
        <ele>777</ele>
        <time>2019-10-13T08:30:35.000Z</time>
      </trkpt>
      <trkpt lat="44.22375" lon="2.97088">
        <ele>777</ele>
        <time>2019-10-13T08:30:36.000Z</time>
      </trkpt>
      <trkpt lat="44.22373" lon="2.97089">
        <ele>777</ele>
        <time>2019-10-13T08:30:37.000Z</time>
      </trkpt>
      <trkpt lat="44.22372" lon="2.9709">
        <ele>777</ele>
        <time>2019-10-13T08:30:38.000Z</time>
      </trkpt>
      <trkpt lat="44.2237" lon="2.97091">
        <ele>777</ele>
        <time>2019-10-13T08:30:39.000Z</time>
      </trkpt>
      <trkpt lat="44.22369" lon="2.97092">
        <ele>777</ele>
        <time>2019-10-13T08:30:40.000Z</time>
      </trkpt>
      <trkpt lat="44.22367" lon="2.97094">
        <ele>777</ele>
        <time>2019-10-13T08:30:41.000Z</time>
      </trkpt>
      <trkpt lat="44.22366" lon="2.97095">
        <ele>777</ele>
        <time>2019-10-13T08:30:42.000Z</time>
      </trkpt>
      <trkpt lat="44.22364" lon="2.97096">
        <ele>777</ele>
        <time>2019-10-13T08:30:43.000Z</time>
      </trkpt>
      <trkpt lat="44.22363" lon="2.97098">
        <ele>777</ele>
        <time>2019-10-13T08:30:44.000Z</time>
      </trkpt>
      <trkpt lat="44.22362" lon="2.97099">
        <ele>777</ele>
        <time>2019-10-13T08:30:45.000Z</time>
      </trkpt>
      <trkpt lat="44.22361" lon="2.97101">
        <ele>776</ele>
        <time>2019-10-13T08:30:46.000Z</time>
      </trkpt>
      <trkpt lat="44.2236" lon="2.97102">
        <ele>776</ele>
        <time>2019-10-13T08:30:47.000Z</time>
      </trkpt>
      <trkpt lat="44.22359" lon="2.97104">
        <ele>776</ele>
        <time>2019-10-13T08:30:48.000Z</time>
      </trkpt>
      <trkpt lat="44.22358" lon="2.97106">
        <ele>776</ele>
        <time>2019-10-13T08:30:49.000Z</time>
      </trkpt>
      <trkpt lat="44.22357" lon="2.97107">
        <ele>776</ele>
        <time>2019-10-13T08:30:50.000Z</time>
      </trkpt>
      <trkpt lat="44.22357" lon="2.97109">
        <ele>776</ele>
        <time>2019-10-13T08:30:51.000Z</time>
      </trkpt>
      <trkpt lat="44.22356" lon="2.97111">
        <ele>776</ele>
        <time>2019-10-13T08:30:52.000Z</time>
      </trkpt>
      <trkpt lat="44.22356" lon="2.97112">
        <ele>776</ele>
        <time>2019-10-13T08:30:53.000Z</time>
      </trkpt>
      <trkpt lat="44.22356" lon="2.97114">
        <ele>776</ele>
        <time>2019-10-13T08:30:54.000Z</time>
      </trkpt>
      <trkpt lat="44.22355" lon="2.97116">
        <ele>776</ele>
        <time>2019-10-13T08:30:55.000Z</time>
      </trkpt>
      <trkpt lat="44.22355" lon="2.97118">
        <ele>776</ele>
        <time>2019-10-13T08:30:56.000Z</time>
      </trkpt>
      <trkpt lat="44.22355" lon="2.97119">
        <ele>776</ele>
        <time>2019-10-13T08:30:57.000Z</time>
      </trkpt>
      <trkpt lat="44.22354" lon="2.97121">
        <ele>775</ele>
        <time>2019-10-13T08:30:58.000Z</time>
      </trkpt>
      <trkpt lat="44.22354" lon="2.97123">
        <ele>775</ele>
        <time>2019-10-13T08:30:59.000Z</time>
      </trkpt>
      <trkpt lat="44.22354" lon="2.97124">
        <ele>775</ele>
        <time>2019-10-13T08:31:00.000Z</time>
      </trkpt>
      <trkpt lat="44.22354" lon="2.97126">
        <ele>775</ele>
        <time>2019-10-13T08:31:01.000Z</time>
      </trkpt>
      <trkpt lat="44.22354" lon="2.97127">
        <ele>775</ele>
        <time>2019-10-13T08:31:02.000Z</time>
      </trkpt>
      <trkpt lat="44.22354" lon="2.97129">
        <ele>775</ele>
        <time>2019-10-13T08:31:03.000Z</time>
      </trkpt>
      <trkpt lat="44.22354" lon="2.97131">
        <ele>774</ele>
        <time>2019-10-13T08:31:04.000Z</time>
      </trkpt>
      <trkpt lat="44.22354" lon="2.97132">
        <ele>774</ele>
        <time>2019-10-13T08:31:05.000Z</time>
      </trkpt>
      <trkpt lat="44.22354" lon="2.97134">
        <ele>774</ele>
        <time>2019-10-13T08:31:06.000Z</time>
      </trkpt>
      <trkpt lat="44.22354" lon="2.97136">
        <ele>774</ele>
        <time>2019-10-13T08:31:07.000Z</time>
      </trkpt>
      <trkpt lat="44.22354" lon="2.97138">
        <ele>774</ele>
        <time>2019-10-13T08:31:08.000Z</time>
      </trkpt>
      <trkpt lat="44.22355" lon="2.97139">
        <ele>774</ele>
        <time>2019-10-13T08:31:09.000Z</time>
      </trkpt>
      <trkpt lat="44.22355" lon="2.97141">
        <ele>774</ele>
        <time>2019-10-13T08:31:10.000Z</time>
      </trkpt>
      <trkpt lat="44.22355" lon="2.97143">
        <ele>774</ele>
        <time>2019-10-13T08:31:11.000Z</time>
      </trkpt>
      <trkpt lat="44.22356" lon="2.97145">
        <ele>773</ele>
        <time>2019-10-13T08:31:12.000Z</time>
      </trkpt>
      <trkpt lat="44.22356" lon="2.97147">
        <ele>773</ele>
        <time>2019-10-13T08:31:13.000Z</time>
      </trkpt>
      <trkpt lat="44.22356" lon="2.97148">
        <ele>773</ele>
        <time>2019-10-13T08:31:14.000Z</time>
      </trkpt>
      <trkpt lat="44.22357" lon="2.9715">
        <ele>773</ele>
        <time>2019-10-13T08:31:15.000Z</time>
      </trkpt>
      <trkpt lat="44.22357" lon="2.97152">
        <ele>773</ele>
        <time>2019-10-13T08:31:16.000Z</time>
      </trkpt>
      <trkpt lat="44.22357" lon="2.97153">
        <ele>773</ele>
        <time>2019-10-13T08:31:17.000Z</time>
      </trkpt>
      <trkpt lat="44.22358" lon="2.97155">
        <ele>773</ele>
        <time>2019-10-13T08:31:18.000Z</time>
      </trkpt>
      <trkpt lat="44.22358" lon="2.97157">
        <ele>772</ele>
        <time>2019-10-13T08:31:19.000Z</time>
      </trkpt>
      <trkpt lat="44.22359" lon="2.97159">
        <ele>772</ele>
        <time>2019-10-13T08:31:20.000Z</time>
      </trkpt>
      <trkpt lat="44.22359" lon="2.9716">
        <ele>772</ele>
        <time>2019-10-13T08:31:21.000Z</time>
      </trkpt>
      <trkpt lat="44.2236" lon="2.97162">
        <ele>772</ele>
        <time>2019-10-13T08:31:22.000Z</time>
      </trkpt>
      <trkpt lat="44.2236" lon="2.97164">
        <ele>772</ele>
        <time>2019-10-13T08:31:23.000Z</time>
      </trkpt>
      <trkpt lat="44.2236" lon="2.97166">
        <ele>772</ele>
        <time>2019-10-13T08:31:24.000Z</time>
      </trkpt>
      <trkpt lat="44.22361" lon="2.97167">
        <ele>772</ele>
        <time>2019-10-13T08:31:25.000Z</time>
      </trkpt>
      <trkpt lat="44.22361" lon="2.97169">
        <ele>772</ele>
        <time>2019-10-13T08:31:26.000Z</time>
      </trkpt>
      <trkpt lat="44.22362" lon="2.97171">
        <ele>772</ele>
        <time>2019-10-13T08:31:27.000Z</time>
      </trkpt>
      <trkpt lat="44.22362" lon="2.97173">
        <ele>772</ele>
        <time>2019-10-13T08:31:28.000Z</time>
      </trkpt>
      <trkpt lat="44.22362" lon="2.97175">
        <ele>772</ele>
        <time>2019-10-13T08:31:29.000Z</time>
      </trkpt>
      <trkpt lat="44.22363" lon="2.97177">
        <ele>772</ele>
        <time>2019-10-13T08:31:30.000Z</time>
      </trkpt>
      <trkpt lat="44.22363" lon="2.97179">
        <ele>772</ele>
        <time>2019-10-13T08:31:31.000Z</time>
      </trkpt>
      <trkpt lat="44.22363" lon="2.9718">
        <ele>772</ele>
        <time>2019-10-13T08:31:32.000Z</time>
      </trkpt>
      <trkpt lat="44.22364" lon="2.97182">
        <ele>772</ele>
        <time>2019-10-13T08:31:33.000Z</time>
      </trkpt>
      <trkpt lat="44.22364" lon="2.97184">
        <ele>772</ele>
        <time>2019-10-13T08:31:34.000Z</time>
      </trkpt>
      <trkpt lat="44.22364" lon="2.97186">
        <ele>772</ele>
        <time>2019-10-13T08:31:35.000Z</time>
      </trkpt>
      <trkpt lat="44.22364" lon="2.97188">
        <ele>772</ele>
        <time>2019-10-13T08:31:36.000Z</time>
      </trkpt>
      <trkpt lat="44.22365" lon="2.9719">
        <ele>772</ele>
        <time>2019-10-13T08:31:37.000Z</time>
      </trkpt>
      <trkpt lat="44.22365" lon="2.97191">
        <ele>772</ele>
        <time>2019-10-13T08:31:38.000Z</time>
      </trkpt>
      <trkpt lat="44.22365" lon="2.97193">
        <ele>772</ele>
        <time>2019-10-13T08:31:39.000Z</time>
      </trkpt>
      <trkpt lat="44.22365" lon="2.97195">
        <ele>772</ele>
        <time>2019-10-13T08:31:40.000Z</time>
      </trkpt>
      <trkpt lat="44.22365" lon="2.97196">
        <ele>772</ele>
        <time>2019-10-13T08:31:41.000Z</time>
      </trkpt>
      <trkpt lat="44.22365" lon="2.97198">
        <ele>772</ele>
        <time>2019-10-13T08:31:42.000Z</time>
      </trkpt>
      <trkpt lat="44.22365" lon="2.97199">
        <ele>772</ele>
        <time>2019-10-13T08:31:43.000Z</time>
      </trkpt>
      <trkpt lat="44.22366" lon="2.97201">
        <ele>772</ele>
        <time>2019-10-13T08:31:44.000Z</time>
      </trkpt>
      <trkpt lat="44.22366" lon="2.97203">
        <ele>772</ele>
        <time>2019-10-13T08:31:45.000Z</time>
      </trkpt>
      <trkpt lat="44.22366" lon="2.97205">
        <ele>772</ele>
        <time>2019-10-13T08:31:46.000Z</time>
      </trkpt>
      <trkpt lat="44.22366" lon="2.97206">
        <ele>772</ele>
        <time>2019-10-13T08:31:47.000Z</time>
      </trkpt>
      <trkpt lat="44.22366" lon="2.97208">
        <ele>772</ele>
        <time>2019-10-13T08:31:48.000Z</time>
      </trkpt>
      <trkpt lat="44.22366" lon="2.9721">
        <ele>772</ele>
        <time>2019-10-13T08:31:49.000Z</time>
      </trkpt>
      <trkpt lat="44.22366" lon="2.97212">
        <ele>772</ele>
        <time>2019-10-13T08:31:50.000Z</time>
      </trkpt>
      <trkpt lat="44.22366" lon="2.97214">
        <ele>772</ele>
        <time>2019-10-13T08:31:51.000Z</time>
      </trkpt>
      <trkpt lat="44.22366" lon="2.97216">
        <ele>771</ele>
        <time>2019-10-13T08:31:52.000Z</time>
      </trkpt>
      <trkpt lat="44.22366" lon="2.97218">
        <ele>771</ele>
        <time>2019-10-13T08:31:53.000Z</time>
      </trkpt>
      <trkpt lat="44.22367" lon="2.97219">
        <ele>771</ele>
        <time>2019-10-13T08:31:54.000Z</time>
      </trkpt>
      <trkpt lat="44.22367" lon="2.97221">
        <ele>771</ele>
        <time>2019-10-13T08:31:55.000Z</time>
      </trkpt>
      <trkpt lat="44.22367" lon="2.97223">
        <ele>771</ele>
        <time>2019-10-13T08:31:56.000Z</time>
      </trkpt>
      <trkpt lat="44.22367" lon="2.97225">
        <ele>771</ele>
        <time>2019-10-13T08:31:57.000Z</time>
      </trkpt>
      <trkpt lat="44.22367" lon="2.97227">
        <ele>771</ele>
        <time>2019-10-13T08:31:58.000Z</time>
      </trkpt>
      <trkpt lat="44.22367" lon="2.97228">
        <ele>771</ele>
        <time>2019-10-13T08:31:59.000Z</time>
      </trkpt>
      <trkpt lat="44.22367" lon="2.9723">
        <ele>771</ele>
        <time>2019-10-13T08:32:00.000Z</time>
      </trkpt>
      <trkpt lat="44.22367" lon="2.97232">
        <ele>771</ele>
        <time>2019-10-13T08:32:01.000Z</time>
      </trkpt>
      <trkpt lat="44.22367" lon="2.97234">
        <ele>770</ele>
        <time>2019-10-13T08:32:02.000Z</time>
      </trkpt>
      <trkpt lat="44.22367" lon="2.97236">
        <ele>770</ele>
        <time>2019-10-13T08:32:03.000Z</time>
      </trkpt>
      <trkpt lat="44.22367" lon="2.97238">
        <ele>770</ele>
        <time>2019-10-13T08:32:04.000Z</time>
      </trkpt>
      <trkpt lat="44.22366" lon="2.97239">
        <ele>770</ele>
        <time>2019-10-13T08:32:05.000Z</time>
      </trkpt>
      <trkpt lat="44.22366" lon="2.97241">
        <ele>770</ele>
        <time>2019-10-13T08:32:06.000Z</time>
      </trkpt>
      <trkpt lat="44.22366" lon="2.97243">
        <ele>770</ele>
        <time>2019-10-13T08:32:07.000Z</time>
      </trkpt>
      <trkpt lat="44.22366" lon="2.97245">
        <ele>769</ele>
        <time>2019-10-13T08:32:08.000Z</time>
      </trkpt>
      <trkpt lat="44.22366" lon="2.97247">
        <ele>769</ele>
        <time>2019-10-13T08:32:09.000Z</time>
      </trkpt>
      <trkpt lat="44.22366" lon="2.97248">
        <ele>769</ele>
        <time>2019-10-13T08:32:10.000Z</time>
      </trkpt>
      <trkpt lat="44.22366" lon="2.9725">
        <ele>769</ele>
        <time>2019-10-13T08:32:11.000Z</time>
      </trkpt>
      <trkpt lat="44.22366" lon="2.97252">
        <ele>769</ele>
        <time>2019-10-13T08:32:12.000Z</time>
      </trkpt>
      <trkpt lat="44.22366" lon="2.97254">
        <ele>769</ele>
        <time>2019-10-13T08:32:13.000Z</time>
      </trkpt>
      <trkpt lat="44.22366" lon="2.97256">
        <ele>769</ele>
        <time>2019-10-13T08:32:14.000Z</time>
      </trkpt>
      <trkpt lat="44.22366" lon="2.97258">
        <ele>769</ele>
        <time>2019-10-13T08:32:15.000Z</time>
      </trkpt>
      <trkpt lat="44.22366" lon="2.97259">
        <ele>769</ele>
        <time>2019-10-13T08:32:16.000Z</time>
      </trkpt>
      <trkpt lat="44.22367" lon="2.97261">
        <ele>769</ele>
        <time>2019-10-13T08:32:17.000Z</time>
      </trkpt>
      <trkpt lat="44.22367" lon="2.97263">
        <ele>769</ele>
        <time>2019-10-13T08:32:18.000Z</time>
      </trkpt>
      <trkpt lat="44.22367" lon="2.97266">
        <ele>769</ele>
        <time>2019-10-13T08:32:19.000Z</time>
      </trkpt>
      <trkpt lat="44.22367" lon="2.97268">
        <ele>769</ele>
        <time>2019-10-13T08:32:20.000Z</time>
      </trkpt>
      <trkpt lat="44.22368" lon="2.9727">
        <ele>769</ele>
        <time>2019-10-13T08:32:21.000Z</time>
      </trkpt>
      <trkpt lat="44.22368" lon="2.97272">
        <ele>769</ele>
        <time>2019-10-13T08:32:22.000Z</time>
      </trkpt>
      <trkpt lat="44.22368" lon="2.97274">
        <ele>769</ele>
        <time>2019-10-13T08:32:23.000Z</time>
      </trkpt>
      <trkpt lat="44.22368" lon="2.97276">
        <ele>769</ele>
        <time>2019-10-13T08:32:24.000Z</time>
      </trkpt>
      <trkpt lat="44.22369" lon="2.97277">
        <ele>768</ele>
        <time>2019-10-13T08:32:25.000Z</time>
      </trkpt>
      <trkpt lat="44.22369" lon="2.97279">
        <ele>768</ele>
        <time>2019-10-13T08:32:26.000Z</time>
      </trkpt>
      <trkpt lat="44.22369" lon="2.97281">
        <ele>768</ele>
        <time>2019-10-13T08:32:27.000Z</time>
      </trkpt>
      <trkpt lat="44.22369" lon="2.97283">
        <ele>768</ele>
        <time>2019-10-13T08:32:28.000Z</time>
      </trkpt>
      <trkpt lat="44.22369" lon="2.97285">
        <ele>768</ele>
        <time>2019-10-13T08:32:29.000Z</time>
      </trkpt>
      <trkpt lat="44.22369" lon="2.97287">
        <ele>768</ele>
        <time>2019-10-13T08:32:30.000Z</time>
      </trkpt>
      <trkpt lat="44.22369" lon="2.97288">
        <ele>768</ele>
        <time>2019-10-13T08:32:31.000Z</time>
      </trkpt>
      <trkpt lat="44.22369" lon="2.9729">
        <ele>768</ele>
        <time>2019-10-13T08:32:32.000Z</time>
      </trkpt>
      <trkpt lat="44.2237" lon="2.97292">
        <ele>768</ele>
        <time>2019-10-13T08:32:33.000Z</time>
      </trkpt>
      <trkpt lat="44.2237" lon="2.97294">
        <ele>768</ele>
        <time>2019-10-13T08:32:34.000Z</time>
      </trkpt>
      <trkpt lat="44.2237" lon="2.97296">
        <ele>768</ele>
        <time>2019-10-13T08:32:35.000Z</time>
      </trkpt>
      <trkpt lat="44.22371" lon="2.97298">
        <ele>768</ele>
        <time>2019-10-13T08:32:36.000Z</time>
      </trkpt>
      <trkpt lat="44.22371" lon="2.973">
        <ele>768</ele>
        <time>2019-10-13T08:32:37.000Z</time>
      </trkpt>
      <trkpt lat="44.22371" lon="2.97301">
        <ele>768</ele>
        <time>2019-10-13T08:32:38.000Z</time>
      </trkpt>
      <trkpt lat="44.22371" lon="2.97303">
        <ele>767</ele>
        <time>2019-10-13T08:32:39.000Z</time>
      </trkpt>
      <trkpt lat="44.22371" lon="2.97305">
        <ele>767</ele>
        <time>2019-10-13T08:32:40.000Z</time>
      </trkpt>
      <trkpt lat="44.22372" lon="2.97307">
        <ele>767</ele>
        <time>2019-10-13T08:32:41.000Z</time>
      </trkpt>
      <trkpt lat="44.22372" lon="2.97308">
        <ele>767</ele>
        <time>2019-10-13T08:32:42.000Z</time>
      </trkpt>
      <trkpt lat="44.22372" lon="2.9731">
        <ele>767</ele>
        <time>2019-10-13T08:32:43.000Z</time>
      </trkpt>
      <trkpt lat="44.22373" lon="2.97312">
        <ele>767</ele>
        <time>2019-10-13T08:32:44.000Z</time>
      </trkpt>
      <trkpt lat="44.22373" lon="2.97314">
        <ele>767</ele>
        <time>2019-10-13T08:32:45.000Z</time>
      </trkpt>
      <trkpt lat="44.22374" lon="2.97315">
        <ele>767</ele>
        <time>2019-10-13T08:32:46.000Z</time>
      </trkpt>
      <trkpt lat="44.22375" lon="2.97316">
        <ele>766</ele>
        <time>2019-10-13T08:32:47.000Z</time>
      </trkpt>
      <trkpt lat="44.22376" lon="2.97317">
        <ele>766</ele>
        <time>2019-10-13T08:32:48.000Z</time>
      </trkpt>
      <trkpt lat="44.22377" lon="2.97317">
        <ele>766</ele>
        <time>2019-10-13T08:32:49.000Z</time>
      </trkpt>
      <trkpt lat="44.22378" lon="2.97318">
        <ele>766</ele>
        <time>2019-10-13T08:32:50.000Z</time>
      </trkpt>
      <trkpt lat="44.22379" lon="2.97318">
        <ele>766</ele>
        <time>2019-10-13T08:32:51.000Z</time>
      </trkpt>
      <trkpt lat="44.2238" lon="2.97318">
        <ele>766</ele>
        <time>2019-10-13T08:32:52.000Z</time>
      </trkpt>
      <trkpt lat="44.22381" lon="2.97317">
        <ele>766</ele>
        <time>2019-10-13T08:32:53.000Z</time>
      </trkpt>
      <trkpt lat="44.22382" lon="2.97316">
        <ele>766</ele>
        <time>2019-10-13T08:32:54.000Z</time>
      </trkpt>
      <trkpt lat="44.22383" lon="2.97315">
        <ele>766</ele>
        <time>2019-10-13T08:32:55.000Z</time>
      </trkpt>
      <trkpt lat="44.22385" lon="2.97313">
        <ele>765</ele>
        <time>2019-10-13T08:32:56.000Z</time>
      </trkpt>
      <trkpt lat="44.22386" lon="2.97312">
        <ele>765</ele>
        <time>2019-10-13T08:32:57.000Z</time>
      </trkpt>
      <trkpt lat="44.22387" lon="2.9731">
        <ele>765</ele>
        <time>2019-10-13T08:32:58.000Z</time>
      </trkpt>
      <trkpt lat="44.22388" lon="2.97309">
        <ele>765</ele>
        <time>2019-10-13T08:32:59.000Z</time>
      </trkpt>
      <trkpt lat="44.22389" lon="2.97307">
        <ele>765</ele>
        <time>2019-10-13T08:33:00.000Z</time>
      </trkpt>
      <trkpt lat="44.2239" lon="2.97305">
        <ele>765</ele>
        <time>2019-10-13T08:33:01.000Z</time>
      </trkpt>
      <trkpt lat="44.22391" lon="2.97304">
        <ele>765</ele>
        <time>2019-10-13T08:33:02.000Z</time>
      </trkpt>
      <trkpt lat="44.22392" lon="2.97302">
        <ele>764</ele>
        <time>2019-10-13T08:33:03.000Z</time>
      </trkpt>
      <trkpt lat="44.22393" lon="2.973">
        <ele>764</ele>
        <time>2019-10-13T08:33:04.000Z</time>
      </trkpt>
      <trkpt lat="44.22394" lon="2.97299">
        <ele>764</ele>
        <time>2019-10-13T08:33:05.000Z</time>
      </trkpt>
      <trkpt lat="44.22395" lon="2.97297">
        <ele>764</ele>
        <time>2019-10-13T08:33:06.000Z</time>
      </trkpt>
      <trkpt lat="44.22396" lon="2.97296">
        <ele>764</ele>
        <time>2019-10-13T08:33:07.000Z</time>
      </trkpt>
      <trkpt lat="44.22398" lon="2.97294">
        <ele>764</ele>
        <time>2019-10-13T08:33:08.000Z</time>
      </trkpt>
      <trkpt lat="44.22399" lon="2.97293">
        <ele>764</ele>
        <time>2019-10-13T08:33:09.000Z</time>
      </trkpt>
      <trkpt lat="44.224" lon="2.97291">
        <ele>764</ele>
        <time>2019-10-13T08:33:10.000Z</time>
      </trkpt>
      <trkpt lat="44.22401" lon="2.9729">
        <ele>764</ele>
        <time>2019-10-13T08:33:11.000Z</time>
      </trkpt>
      <trkpt lat="44.22402" lon="2.97288">
        <ele>764</ele>
        <time>2019-10-13T08:33:12.000Z</time>
      </trkpt>
      <trkpt lat="44.22403" lon="2.97287">
        <ele>764</ele>
        <time>2019-10-13T08:33:13.000Z</time>
      </trkpt>
      <trkpt lat="44.22405" lon="2.97285">
        <ele>764</ele>
        <time>2019-10-13T08:33:14.000Z</time>
      </trkpt>
      <trkpt lat="44.22406" lon="2.97284">
        <ele>764</ele>
        <time>2019-10-13T08:33:15.000Z</time>
      </trkpt>
      <trkpt lat="44.22407" lon="2.97283">
        <ele>764</ele>
        <time>2019-10-13T08:33:16.000Z</time>
      </trkpt>
      <trkpt lat="44.22408" lon="2.97282">
        <ele>764</ele>
        <time>2019-10-13T08:33:17.000Z</time>
      </trkpt>
      <trkpt lat="44.2241" lon="2.97281">
        <ele>764</ele>
        <time>2019-10-13T08:33:18.000Z</time>
      </trkpt>
      <trkpt lat="44.22411" lon="2.9728">
        <ele>764</ele>
        <time>2019-10-13T08:33:19.000Z</time>
      </trkpt>
      <trkpt lat="44.22412" lon="2.97279">
        <ele>763</ele>
        <time>2019-10-13T08:33:20.000Z</time>
      </trkpt>
      <trkpt lat="44.22413" lon="2.97277">
        <ele>763</ele>
        <time>2019-10-13T08:33:21.000Z</time>
      </trkpt>
      <trkpt lat="44.22414" lon="2.97276">
        <ele>763</ele>
        <time>2019-10-13T08:33:22.000Z</time>
      </trkpt>
      <trkpt lat="44.22415" lon="2.97274">
        <ele>763</ele>
        <time>2019-10-13T08:33:23.000Z</time>
      </trkpt>
      <trkpt lat="44.22416" lon="2.97272">
        <ele>763</ele>
        <time>2019-10-13T08:33:24.000Z</time>
      </trkpt>
      <trkpt lat="44.22417" lon="2.97271">
        <ele>763</ele>
        <time>2019-10-13T08:33:25.000Z</time>
      </trkpt>
      <trkpt lat="44.22419" lon="2.9727">
        <ele>763</ele>
        <time>2019-10-13T08:33:26.000Z</time>
      </trkpt>
      <trkpt lat="44.2242" lon="2.97268">
        <ele>763</ele>
        <time>2019-10-13T08:33:27.000Z</time>
      </trkpt>
      <trkpt lat="44.22421" lon="2.97266">
        <ele>763</ele>
        <time>2019-10-13T08:33:28.000Z</time>
      </trkpt>
      <trkpt lat="44.22422" lon="2.97265">
        <ele>763</ele>
        <time>2019-10-13T08:33:29.000Z</time>
      </trkpt>
      <trkpt lat="44.22423" lon="2.97263">
        <ele>763</ele>
        <time>2019-10-13T08:33:30.000Z</time>
      </trkpt>
      <trkpt lat="44.22424" lon="2.97261">
        <ele>763</ele>
        <time>2019-10-13T08:33:31.000Z</time>
      </trkpt>
      <trkpt lat="44.22425" lon="2.9726">
        <ele>763</ele>
        <time>2019-10-13T08:33:32.000Z</time>
      </trkpt>
      <trkpt lat="44.22427" lon="2.97258">
        <ele>763</ele>
        <time>2019-10-13T08:33:33.000Z</time>
      </trkpt>
      <trkpt lat="44.22427" lon="2.97256">
        <ele>763</ele>
        <time>2019-10-13T08:33:34.000Z</time>
      </trkpt>
      <trkpt lat="44.22428" lon="2.97255">
        <ele>764</ele>
        <time>2019-10-13T08:33:35.000Z</time>
      </trkpt>
      <trkpt lat="44.2243" lon="2.97253">
        <ele>764</ele>
        <time>2019-10-13T08:33:36.000Z</time>
      </trkpt>
      <trkpt lat="44.22431" lon="2.97252">
        <ele>764</ele>
        <time>2019-10-13T08:33:37.000Z</time>
      </trkpt>
      <trkpt lat="44.22432" lon="2.9725">
        <ele>764</ele>
        <time>2019-10-13T08:33:38.000Z</time>
      </trkpt>
      <trkpt lat="44.22433" lon="2.97249">
        <ele>764</ele>
        <time>2019-10-13T08:33:39.000Z</time>
      </trkpt>
      <trkpt lat="44.22434" lon="2.97247">
        <ele>764</ele>
        <time>2019-10-13T08:33:40.000Z</time>
      </trkpt>
      <trkpt lat="44.22436" lon="2.97246">
        <ele>764</ele>
        <time>2019-10-13T08:33:41.000Z</time>
      </trkpt>
      <trkpt lat="44.22437" lon="2.97245">
        <ele>764</ele>
        <time>2019-10-13T08:33:42.000Z</time>
      </trkpt>
      <trkpt lat="44.22438" lon="2.97244">
        <ele>764</ele>
        <time>2019-10-13T08:33:43.000Z</time>
      </trkpt>
      <trkpt lat="44.22439" lon="2.97242">
        <ele>765</ele>
        <time>2019-10-13T08:33:44.000Z</time>
      </trkpt>
      <trkpt lat="44.2244" lon="2.97241">
        <ele>765</ele>
        <time>2019-10-13T08:33:45.000Z</time>
      </trkpt>
      <trkpt lat="44.22441" lon="2.9724">
        <ele>765</ele>
        <time>2019-10-13T08:33:46.000Z</time>
      </trkpt>
      <trkpt lat="44.22443" lon="2.97238">
        <ele>765</ele>
        <time>2019-10-13T08:33:47.000Z</time>
      </trkpt>
      <trkpt lat="44.22444" lon="2.97237">
        <ele>765</ele>
        <time>2019-10-13T08:33:48.000Z</time>
      </trkpt>
      <trkpt lat="44.22445" lon="2.97235">
        <ele>765</ele>
        <time>2019-10-13T08:33:49.000Z</time>
      </trkpt>
      <trkpt lat="44.22446" lon="2.97234">
        <ele>765</ele>
        <time>2019-10-13T08:33:50.000Z</time>
      </trkpt>
      <trkpt lat="44.22447" lon="2.97233">
        <ele>765</ele>
        <time>2019-10-13T08:33:51.000Z</time>
      </trkpt>
      <trkpt lat="44.22449" lon="2.97231">
        <ele>765</ele>
        <time>2019-10-13T08:33:52.000Z</time>
      </trkpt>
      <trkpt lat="44.2245" lon="2.9723">
        <ele>765</ele>
        <time>2019-10-13T08:33:53.000Z</time>
      </trkpt>
      <trkpt lat="44.22451" lon="2.97229">
        <ele>765</ele>
        <time>2019-10-13T08:33:54.000Z</time>
      </trkpt>
      <trkpt lat="44.22453" lon="2.97228">
        <ele>765</ele>
        <time>2019-10-13T08:33:55.000Z</time>
      </trkpt>
      <trkpt lat="44.22454" lon="2.97228">
        <ele>766</ele>
        <time>2019-10-13T08:33:56.000Z</time>
      </trkpt>
      <trkpt lat="44.22456" lon="2.97227">
        <ele>766</ele>
        <time>2019-10-13T08:33:57.000Z</time>
      </trkpt>
      <trkpt lat="44.22457" lon="2.97226">
        <ele>766</ele>
        <time>2019-10-13T08:33:58.000Z</time>
      </trkpt>
      <trkpt lat="44.22458" lon="2.97226">
        <ele>766</ele>
        <time>2019-10-13T08:33:59.000Z</time>
      </trkpt>
      <trkpt lat="44.2246" lon="2.97225">
        <ele>766</ele>
        <time>2019-10-13T08:34:00.000Z</time>
      </trkpt>
      <trkpt lat="44.22461" lon="2.97225">
        <ele>766</ele>
        <time>2019-10-13T08:34:01.000Z</time>
      </trkpt>
      <trkpt lat="44.22462" lon="2.97224">
        <ele>766</ele>
        <time>2019-10-13T08:34:02.000Z</time>
      </trkpt>
      <trkpt lat="44.22463" lon="2.97224">
        <ele>767</ele>
        <time>2019-10-13T08:34:03.000Z</time>
      </trkpt>
      <trkpt lat="44.22465" lon="2.97224">
        <ele>767</ele>
        <time>2019-10-13T08:34:04.000Z</time>
      </trkpt>
      <trkpt lat="44.22466" lon="2.97223">
        <ele>767</ele>
        <time>2019-10-13T08:34:05.000Z</time>
      </trkpt>
      <trkpt lat="44.22467" lon="2.97223">
        <ele>767</ele>
        <time>2019-10-13T08:34:06.000Z</time>
      </trkpt>
      <trkpt lat="44.22468" lon="2.97222">
        <ele>767</ele>
        <time>2019-10-13T08:34:07.000Z</time>
      </trkpt>
      <trkpt lat="44.2247" lon="2.97222">
        <ele>768</ele>
        <time>2019-10-13T08:34:08.000Z</time>
      </trkpt>
      <trkpt lat="44.22471" lon="2.97221">
        <ele>768</ele>
        <time>2019-10-13T08:34:09.000Z</time>
      </trkpt>
      <trkpt lat="44.22472" lon="2.9722">
        <ele>768</ele>
        <time>2019-10-13T08:34:10.000Z</time>
      </trkpt>
      <trkpt lat="44.22474" lon="2.9722">
        <ele>768</ele>
        <time>2019-10-13T08:34:11.000Z</time>
      </trkpt>
      <trkpt lat="44.22475" lon="2.97219">
        <ele>768</ele>
        <time>2019-10-13T08:34:12.000Z</time>
      </trkpt>
      <trkpt lat="44.22477" lon="2.97219">
        <ele>769</ele>
        <time>2019-10-13T08:34:13.000Z</time>
      </trkpt>
      <trkpt lat="44.22478" lon="2.97219">
        <ele>769</ele>
        <time>2019-10-13T08:34:14.000Z</time>
      </trkpt>
      <trkpt lat="44.2248" lon="2.97218">
        <ele>769</ele>
        <time>2019-10-13T08:34:15.000Z</time>
      </trkpt>
      <trkpt lat="44.22481" lon="2.97218">
        <ele>769</ele>
        <time>2019-10-13T08:34:16.000Z</time>
      </trkpt>
      <trkpt lat="44.22483" lon="2.97218">
        <ele>769</ele>
        <time>2019-10-13T08:34:17.000Z</time>
      </trkpt>
      <trkpt lat="44.22484" lon="2.97218">
        <ele>769</ele>
        <time>2019-10-13T08:34:18.000Z</time>
      </trkpt>
      <trkpt lat="44.22485" lon="2.97217">
        <ele>770</ele>
        <time>2019-10-13T08:34:19.000Z</time>
      </trkpt>
      <trkpt lat="44.22486" lon="2.97217">
        <ele>770</ele>
        <time>2019-10-13T08:34:20.000Z</time>
      </trkpt>
      <trkpt lat="44.22488" lon="2.97217">
        <ele>770</ele>
        <time>2019-10-13T08:34:21.000Z</time>
      </trkpt>
      <trkpt lat="44.22489" lon="2.97216">
        <ele>770</ele>
        <time>2019-10-13T08:34:22.000Z</time>
      </trkpt>
      <trkpt lat="44.22489" lon="2.97216">
        <ele>770</ele>
        <time>2019-10-13T08:34:23.000Z</time>
      </trkpt>
      <trkpt lat="44.22491" lon="2.97215">
        <ele>770</ele>
        <time>2019-10-13T08:34:24.000Z</time>
      </trkpt>
      <trkpt lat="44.22492" lon="2.97215">
        <ele>770</ele>
        <time>2019-10-13T08:34:25.000Z</time>
      </trkpt>
      <trkpt lat="44.22493" lon="2.97214">
        <ele>770</ele>
        <time>2019-10-13T08:34:26.000Z</time>
      </trkpt>
      <trkpt lat="44.22494" lon="2.97214">
        <ele>770</ele>
        <time>2019-10-13T08:34:27.000Z</time>
      </trkpt>
      <trkpt lat="44.22496" lon="2.97214">
        <ele>771</ele>
        <time>2019-10-13T08:34:28.000Z</time>
      </trkpt>
      <trkpt lat="44.22497" lon="2.97213">
        <ele>771</ele>
        <time>2019-10-13T08:34:29.000Z</time>
      </trkpt>
      <trkpt lat="44.22498" lon="2.97213">
        <ele>771</ele>
        <time>2019-10-13T08:34:30.000Z</time>
      </trkpt>
      <trkpt lat="44.225" lon="2.97213">
        <ele>771</ele>
        <time>2019-10-13T08:34:31.000Z</time>
      </trkpt>
      <trkpt lat="44.22501" lon="2.97213">
        <ele>771</ele>
        <time>2019-10-13T08:34:32.000Z</time>
      </trkpt>
      <trkpt lat="44.22502" lon="2.97212">
        <ele>771</ele>
        <time>2019-10-13T08:34:33.000Z</time>
      </trkpt>
      <trkpt lat="44.22503" lon="2.97212">
        <ele>771</ele>
        <time>2019-10-13T08:34:34.000Z</time>
      </trkpt>
      <trkpt lat="44.22505" lon="2.97212">
        <ele>771</ele>
        <time>2019-10-13T08:34:35.000Z</time>
      </trkpt>
      <trkpt lat="44.22506" lon="2.97211">
        <ele>771</ele>
        <time>2019-10-13T08:34:36.000Z</time>
      </trkpt>
      <trkpt lat="44.22507" lon="2.97211">
        <ele>771</ele>
        <time>2019-10-13T08:34:37.000Z</time>
      </trkpt>
      <trkpt lat="44.22508" lon="2.97211">
        <ele>771</ele>
        <time>2019-10-13T08:34:38.000Z</time>
      </trkpt>
      <trkpt lat="44.2251" lon="2.97211">
        <ele>771</ele>
        <time>2019-10-13T08:34:39.000Z</time>
      </trkpt>
      <trkpt lat="44.22511" lon="2.97211">
        <ele>771</ele>
        <time>2019-10-13T08:34:40.000Z</time>
      </trkpt>
      <trkpt lat="44.22512" lon="2.9721">
        <ele>772</ele>
        <time>2019-10-13T08:34:41.000Z</time>
      </trkpt>
      <trkpt lat="44.22514" lon="2.9721">
        <ele>772</ele>
        <time>2019-10-13T08:34:42.000Z</time>
      </trkpt>
      <trkpt lat="44.22515" lon="2.9721">
        <ele>772</ele>
        <time>2019-10-13T08:34:43.000Z</time>
      </trkpt>
      <trkpt lat="44.22517" lon="2.9721">
        <ele>772</ele>
        <time>2019-10-13T08:34:44.000Z</time>
      </trkpt>
      <trkpt lat="44.22518" lon="2.9721">
        <ele>772</ele>
        <time>2019-10-13T08:34:45.000Z</time>
      </trkpt>
      <trkpt lat="44.22519" lon="2.9721">
        <ele>772</ele>
        <time>2019-10-13T08:34:46.000Z</time>
      </trkpt>
      <trkpt lat="44.22521" lon="2.97211">
        <ele>772</ele>
        <time>2019-10-13T08:34:47.000Z</time>
      </trkpt>
      <trkpt lat="44.22522" lon="2.97211">
        <ele>773</ele>
        <time>2019-10-13T08:34:48.000Z</time>
      </trkpt>
      <trkpt lat="44.22523" lon="2.97211">
        <ele>773</ele>
        <time>2019-10-13T08:34:49.000Z</time>
      </trkpt>
      <trkpt lat="44.22524" lon="2.97212">
        <ele>773</ele>
        <time>2019-10-13T08:34:50.000Z</time>
      </trkpt>
      <trkpt lat="44.22525" lon="2.97212">
        <ele>773</ele>
        <time>2019-10-13T08:34:51.000Z</time>
      </trkpt>
      <trkpt lat="44.22527" lon="2.97212">
        <ele>773</ele>
        <time>2019-10-13T08:34:52.000Z</time>
      </trkpt>
      <trkpt lat="44.22528" lon="2.97213">
        <ele>773</ele>
        <time>2019-10-13T08:34:53.000Z</time>
      </trkpt>
      <trkpt lat="44.22529" lon="2.97214">
        <ele>773</ele>
        <time>2019-10-13T08:34:54.000Z</time>
      </trkpt>
      <trkpt lat="44.22531" lon="2.97215">
        <ele>773</ele>
        <time>2019-10-13T08:34:55.000Z</time>
      </trkpt>
      <trkpt lat="44.22532" lon="2.97216">
        <ele>773</ele>
        <time>2019-10-13T08:34:56.000Z</time>
      </trkpt>
      <trkpt lat="44.22534" lon="2.97217">
        <ele>773</ele>
        <time>2019-10-13T08:34:57.000Z</time>
      </trkpt>
      <trkpt lat="44.22535" lon="2.97217">
        <ele>774</ele>
        <time>2019-10-13T08:34:58.000Z</time>
      </trkpt>
      <trkpt lat="44.22536" lon="2.97218">
        <ele>774</ele>
        <time>2019-10-13T08:34:59.000Z</time>
      </trkpt>
      <trkpt lat="44.22538" lon="2.97219">
        <ele>774</ele>
        <time>2019-10-13T08:35:00.000Z</time>
      </trkpt>
      <trkpt lat="44.22539" lon="2.9722">
        <ele>774</ele>
        <time>2019-10-13T08:35:01.000Z</time>
      </trkpt>
      <trkpt lat="44.2254" lon="2.97221">
        <ele>774</ele>
        <time>2019-10-13T08:35:02.000Z</time>
      </trkpt>
      <trkpt lat="44.22541" lon="2.97222">
        <ele>774</ele>
        <time>2019-10-13T08:35:03.000Z</time>
      </trkpt>
      <trkpt lat="44.22542" lon="2.97224">
        <ele>774</ele>
        <time>2019-10-13T08:35:04.000Z</time>
      </trkpt>
      <trkpt lat="44.22544" lon="2.97225">
        <ele>774</ele>
        <time>2019-10-13T08:35:05.000Z</time>
      </trkpt>
      <trkpt lat="44.22545" lon="2.97226">
        <ele>775</ele>
        <time>2019-10-13T08:35:06.000Z</time>
      </trkpt>
      <trkpt lat="44.22547" lon="2.97227">
        <ele>775</ele>
        <time>2019-10-13T08:35:07.000Z</time>
      </trkpt>
      <trkpt lat="44.22548" lon="2.97228">
        <ele>775</ele>
        <time>2019-10-13T08:35:08.000Z</time>
      </trkpt>
      <trkpt lat="44.2255" lon="2.9723">
        <ele>775</ele>
        <time>2019-10-13T08:35:09.000Z</time>
      </trkpt>
      <trkpt lat="44.22551" lon="2.97231">
        <ele>775</ele>
        <time>2019-10-13T08:35:10.000Z</time>
      </trkpt>
      <trkpt lat="44.22552" lon="2.97231">
        <ele>775</ele>
        <time>2019-10-13T08:35:11.000Z</time>
      </trkpt>
      <trkpt lat="44.22554" lon="2.97232">
        <ele>775</ele>
        <time>2019-10-13T08:35:12.000Z</time>
      </trkpt>
      <trkpt lat="44.22555" lon="2.97233">
        <ele>775</ele>
        <time>2019-10-13T08:35:13.000Z</time>
      </trkpt>
      <trkpt lat="44.22557" lon="2.97234">
        <ele>775</ele>
        <time>2019-10-13T08:35:14.000Z</time>
      </trkpt>
      <trkpt lat="44.22558" lon="2.97235">
        <ele>776</ele>
        <time>2019-10-13T08:35:15.000Z</time>
      </trkpt>
      <trkpt lat="44.2256" lon="2.97235">
        <ele>776</ele>
        <time>2019-10-13T08:35:16.000Z</time>
      </trkpt>
      <trkpt lat="44.22561" lon="2.97236">
        <ele>776</ele>
        <time>2019-10-13T08:35:17.000Z</time>
      </trkpt>
      <trkpt lat="44.22562" lon="2.97236">
        <ele>776</ele>
        <time>2019-10-13T08:35:18.000Z</time>
      </trkpt>
      <trkpt lat="44.22564" lon="2.97237">
        <ele>776</ele>
        <time>2019-10-13T08:35:19.000Z</time>
      </trkpt>
      <trkpt lat="44.22565" lon="2.97238">
        <ele>776</ele>
        <time>2019-10-13T08:35:20.000Z</time>
      </trkpt>
      <trkpt lat="44.22567" lon="2.97239">
        <ele>776</ele>
        <time>2019-10-13T08:35:21.000Z</time>
      </trkpt>
      <trkpt lat="44.22568" lon="2.97239">
        <ele>776</ele>
        <time>2019-10-13T08:35:22.000Z</time>
      </trkpt>
      <trkpt lat="44.22569" lon="2.9724">
        <ele>776</ele>
        <time>2019-10-13T08:35:23.000Z</time>
      </trkpt>
      <trkpt lat="44.22571" lon="2.97241">
        <ele>777</ele>
        <time>2019-10-13T08:35:24.000Z</time>
      </trkpt>
      <trkpt lat="44.22572" lon="2.97242">
        <ele>777</ele>
        <time>2019-10-13T08:35:25.000Z</time>
      </trkpt>
      <trkpt lat="44.22574" lon="2.97243">
        <ele>777</ele>
        <time>2019-10-13T08:35:26.000Z</time>
      </trkpt>
      <trkpt lat="44.22575" lon="2.97243">
        <ele>777</ele>
        <time>2019-10-13T08:35:27.000Z</time>
      </trkpt>
      <trkpt lat="44.22576" lon="2.97244">
        <ele>777</ele>
        <time>2019-10-13T08:35:28.000Z</time>
      </trkpt>
      <trkpt lat="44.22578" lon="2.97244">
        <ele>777</ele>
        <time>2019-10-13T08:35:29.000Z</time>
      </trkpt>
      <trkpt lat="44.22579" lon="2.97245">
        <ele>778</ele>
        <time>2019-10-13T08:35:30.000Z</time>
      </trkpt>
      <trkpt lat="44.2258" lon="2.97246">
        <ele>778</ele>
        <time>2019-10-13T08:35:31.000Z</time>
      </trkpt>
      <trkpt lat="44.22581" lon="2.97246">
        <ele>778</ele>
        <time>2019-10-13T08:35:32.000Z</time>
      </trkpt>
      <trkpt lat="44.22583" lon="2.97247">
        <ele>778</ele>
        <time>2019-10-13T08:35:33.000Z</time>
      </trkpt>
      <trkpt lat="44.22584" lon="2.97248">
        <ele>778</ele>
        <time>2019-10-13T08:35:34.000Z</time>
      </trkpt>
      <trkpt lat="44.22585" lon="2.97248">
        <ele>779</ele>
        <time>2019-10-13T08:35:35.000Z</time>
      </trkpt>
      <trkpt lat="44.22586" lon="2.97249">
        <ele>779</ele>
        <time>2019-10-13T08:35:36.000Z</time>
      </trkpt>
      <trkpt lat="44.22588" lon="2.9725">
        <ele>779</ele>
        <time>2019-10-13T08:35:37.000Z</time>
      </trkpt>
      <trkpt lat="44.2259" lon="2.97251">
        <ele>779</ele>
        <time>2019-10-13T08:35:38.000Z</time>
      </trkpt>
      <trkpt lat="44.22592" lon="2.97252">
        <ele>779</ele>
        <time>2019-10-13T08:35:39.000Z</time>
      </trkpt>
      <trkpt lat="44.22593" lon="2.97254">
        <ele>779</ele>
        <time>2019-10-13T08:35:40.000Z</time>
      </trkpt>
      <trkpt lat="44.22595" lon="2.97254">
        <ele>779</ele>
        <time>2019-10-13T08:35:41.000Z</time>
      </trkpt>
      <trkpt lat="44.22597" lon="2.97255">
        <ele>779</ele>
        <time>2019-10-13T08:35:42.000Z</time>
      </trkpt>
      <trkpt lat="44.22599" lon="2.97255">
        <ele>779</ele>
        <time>2019-10-13T08:35:43.000Z</time>
      </trkpt>
      <trkpt lat="44.226" lon="2.97256">
        <ele>780</ele>
        <time>2019-10-13T08:35:44.000Z</time>
      </trkpt>
      <trkpt lat="44.22601" lon="2.97257">
        <ele>780</ele>
        <time>2019-10-13T08:35:45.000Z</time>
      </trkpt>
      <trkpt lat="44.22603" lon="2.97258">
        <ele>780</ele>
        <time>2019-10-13T08:35:46.000Z</time>
      </trkpt>
      <trkpt lat="44.22605" lon="2.97259">
        <ele>780</ele>
        <time>2019-10-13T08:35:47.000Z</time>
      </trkpt>
      <trkpt lat="44.22607" lon="2.9726">
        <ele>780</ele>
        <time>2019-10-13T08:35:48.000Z</time>
      </trkpt>
      <trkpt lat="44.22609" lon="2.97261">
        <ele>780</ele>
        <time>2019-10-13T08:35:49.000Z</time>
      </trkpt>
      <trkpt lat="44.22611" lon="2.97262">
        <ele>780</ele>
        <time>2019-10-13T08:35:50.000Z</time>
      </trkpt>
      <trkpt lat="44.22613" lon="2.97263">
        <ele>781</ele>
        <time>2019-10-13T08:35:51.000Z</time>
      </trkpt>
      <trkpt lat="44.22615" lon="2.97264">
        <ele>781</ele>
        <time>2019-10-13T08:35:52.000Z</time>
      </trkpt>
      <trkpt lat="44.22618" lon="2.97266">
        <ele>781</ele>
        <time>2019-10-13T08:35:53.000Z</time>
      </trkpt>
      <trkpt lat="44.22621" lon="2.97267">
        <ele>781</ele>
        <time>2019-10-13T08:35:54.000Z</time>
      </trkpt>
      <trkpt lat="44.22624" lon="2.97267">
        <ele>781</ele>
        <time>2019-10-13T08:35:55.000Z</time>
      </trkpt>
      <trkpt lat="44.22627" lon="2.97268">
        <ele>781</ele>
        <time>2019-10-13T08:35:56.000Z</time>
      </trkpt>
      <trkpt lat="44.22629" lon="2.9727">
        <ele>781</ele>
        <time>2019-10-13T08:35:57.000Z</time>
      </trkpt>
      <trkpt lat="44.22632" lon="2.97271">
        <ele>781</ele>
        <time>2019-10-13T08:35:58.000Z</time>
      </trkpt>
      <trkpt lat="44.22635" lon="2.97273">
        <ele>781</ele>
        <time>2019-10-13T08:35:59.000Z</time>
      </trkpt>
      <trkpt lat="44.22637" lon="2.97275">
        <ele>782</ele>
        <time>2019-10-13T08:36:00.000Z</time>
      </trkpt>
      <trkpt lat="44.2264" lon="2.97277">
        <ele>782</ele>
        <time>2019-10-13T08:36:01.000Z</time>
      </trkpt>
      <trkpt lat="44.22643" lon="2.9728">
        <ele>782</ele>
        <time>2019-10-13T08:36:02.000Z</time>
      </trkpt>
      <trkpt lat="44.22645" lon="2.97283">
        <ele>782</ele>
        <time>2019-10-13T08:36:03.000Z</time>
      </trkpt>
      <trkpt lat="44.22648" lon="2.97286">
        <ele>782</ele>
        <time>2019-10-13T08:36:04.000Z</time>
      </trkpt>
      <trkpt lat="44.22651" lon="2.9729">
        <ele>782</ele>
        <time>2019-10-13T08:36:05.000Z</time>
      </trkpt>
      <trkpt lat="44.22653" lon="2.97293">
        <ele>783</ele>
        <time>2019-10-13T08:36:06.000Z</time>
      </trkpt>
      <trkpt lat="44.22656" lon="2.97296">
        <ele>783</ele>
        <time>2019-10-13T08:36:07.000Z</time>
      </trkpt>
      <trkpt lat="44.2266" lon="2.97298">
        <ele>783</ele>
        <time>2019-10-13T08:36:08.000Z</time>
      </trkpt>
      <trkpt lat="44.22663" lon="2.973">
        <ele>783</ele>
        <time>2019-10-13T08:36:09.000Z</time>
      </trkpt>
      <trkpt lat="44.22667" lon="2.97302">
        <ele>783</ele>
        <time>2019-10-13T08:36:10.000Z</time>
      </trkpt>
      <trkpt lat="44.22672" lon="2.97304">
        <ele>783</ele>
        <time>2019-10-13T08:36:11.000Z</time>
      </trkpt>
      <trkpt lat="44.22677" lon="2.97306">
        <ele>784</ele>
        <time>2019-10-13T08:36:12.000Z</time>
      </trkpt>
      <trkpt lat="44.22682" lon="2.97309">
        <ele>784</ele>
        <time>2019-10-13T08:36:13.000Z</time>
      </trkpt>
      <trkpt lat="44.22687" lon="2.97313">
        <ele>784</ele>
        <time>2019-10-13T08:36:14.000Z</time>
      </trkpt>
      <trkpt lat="44.22692" lon="2.97316">
        <ele>784</ele>
        <time>2019-10-13T08:36:15.000Z</time>
      </trkpt>
      <trkpt lat="44.22697" lon="2.97319">
        <ele>785</ele>
        <time>2019-10-13T08:36:16.000Z</time>
      </trkpt>
      <trkpt lat="44.22701" lon="2.97322">
        <ele>785</ele>
        <time>2019-10-13T08:36:17.000Z</time>
      </trkpt>
      <trkpt lat="44.22706" lon="2.97325">
        <ele>786</ele>
        <time>2019-10-13T08:36:18.000Z</time>
      </trkpt>
      <trkpt lat="44.22711" lon="2.97327">
        <ele>787</ele>
        <time>2019-10-13T08:36:19.000Z</time>
      </trkpt>
      <trkpt lat="44.22717" lon="2.97329">
        <ele>787</ele>
        <time>2019-10-13T08:36:20.000Z</time>
      </trkpt>
      <trkpt lat="44.22722" lon="2.9733">
        <ele>788</ele>
        <time>2019-10-13T08:36:21.000Z</time>
      </trkpt>
      <trkpt lat="44.22727" lon="2.97331">
        <ele>789</ele>
        <time>2019-10-13T08:36:22.000Z</time>
      </trkpt>
      <trkpt lat="44.22732" lon="2.97333">
        <ele>790</ele>
        <time>2019-10-13T08:36:23.000Z</time>
      </trkpt>
      <trkpt lat="44.22737" lon="2.97335">
        <ele>790</ele>
        <time>2019-10-13T08:36:24.000Z</time>
      </trkpt>
      <trkpt lat="44.22742" lon="2.97339">
        <ele>791</ele>
        <time>2019-10-13T08:36:25.000Z</time>
      </trkpt>
      <trkpt lat="44.22747" lon="2.97342">
        <ele>792</ele>
        <time>2019-10-13T08:36:26.000Z</time>
      </trkpt>
      <trkpt lat="44.22752" lon="2.97346">
        <ele>792</ele>
        <time>2019-10-13T08:36:27.000Z</time>
      </trkpt>
      <trkpt lat="44.22756" lon="2.97349">
        <ele>793</ele>
        <time>2019-10-13T08:36:28.000Z</time>
      </trkpt>
      <trkpt lat="44.22761" lon="2.97352">
        <ele>793</ele>
        <time>2019-10-13T08:36:29.000Z</time>
      </trkpt>
      <trkpt lat="44.22766" lon="2.97355">
        <ele>794</ele>
        <time>2019-10-13T08:36:30.000Z</time>
      </trkpt>
      <trkpt lat="44.22772" lon="2.97359">
        <ele>794</ele>
        <time>2019-10-13T08:36:31.000Z</time>
      </trkpt>
      <trkpt lat="44.22777" lon="2.97363">
        <ele>795</ele>
        <time>2019-10-13T08:36:32.000Z</time>
      </trkpt>
      <trkpt lat="44.22783" lon="2.97367">
        <ele>795</ele>
        <time>2019-10-13T08:36:33.000Z</time>
      </trkpt>
      <trkpt lat="44.22788" lon="2.9737">
        <ele>795</ele>
        <time>2019-10-13T08:36:34.000Z</time>
      </trkpt>
      <trkpt lat="44.22794" lon="2.97374">
        <ele>796</ele>
        <time>2019-10-13T08:36:35.000Z</time>
      </trkpt>
      <trkpt lat="44.22799" lon="2.97376">
        <ele>796</ele>
        <time>2019-10-13T08:36:36.000Z</time>
      </trkpt>
      <trkpt lat="44.22805" lon="2.97379">
        <ele>797</ele>
        <time>2019-10-13T08:36:37.000Z</time>
      </trkpt>
      <trkpt lat="44.2281" lon="2.97381">
        <ele>797</ele>
        <time>2019-10-13T08:36:38.000Z</time>
      </trkpt>
      <trkpt lat="44.22815" lon="2.97382">
        <ele>797</ele>
        <time>2019-10-13T08:36:39.000Z</time>
      </trkpt>
      <trkpt lat="44.2282" lon="2.97384">
        <ele>797</ele>
        <time>2019-10-13T08:36:40.000Z</time>
      </trkpt>
      <trkpt lat="44.22824" lon="2.97385">
        <ele>798</ele>
        <time>2019-10-13T08:36:41.000Z</time>
      </trkpt>
      <trkpt lat="44.22828" lon="2.97385">
        <ele>798</ele>
        <time>2019-10-13T08:36:42.000Z</time>
      </trkpt>
      <trkpt lat="44.22833" lon="2.97385">
        <ele>798</ele>
        <time>2019-10-13T08:36:43.000Z</time>
      </trkpt>
      <trkpt lat="44.22838" lon="2.97384">
        <ele>798</ele>
        <time>2019-10-13T08:36:44.000Z</time>
      </trkpt>
      <trkpt lat="44.22843" lon="2.97384">
        <ele>798</ele>
        <time>2019-10-13T08:36:45.000Z</time>
      </trkpt>
      <trkpt lat="44.22849" lon="2.97384">
        <ele>799</ele>
        <time>2019-10-13T08:36:46.000Z</time>
      </trkpt>
      <trkpt lat="44.22855" lon="2.97384">
        <ele>799</ele>
        <time>2019-10-13T08:36:47.000Z</time>
      </trkpt>
      <trkpt lat="44.22861" lon="2.97384">
        <ele>799</ele>
        <time>2019-10-13T08:36:48.000Z</time>
      </trkpt>
      <trkpt lat="44.22867" lon="2.97385">
        <ele>799</ele>
        <time>2019-10-13T08:36:49.000Z</time>
      </trkpt>
      <trkpt lat="44.22873" lon="2.97386">
        <ele>799</ele>
        <time>2019-10-13T08:36:50.000Z</time>
      </trkpt>
      <trkpt lat="44.22879" lon="2.97387">
        <ele>800</ele>
        <time>2019-10-13T08:36:51.000Z</time>
      </trkpt>
      <trkpt lat="44.22885" lon="2.97389">
        <ele>800</ele>
        <time>2019-10-13T08:36:52.000Z</time>
      </trkpt>
      <trkpt lat="44.22891" lon="2.97391">
        <ele>800</ele>
        <time>2019-10-13T08:36:53.000Z</time>
      </trkpt>
      <trkpt lat="44.22896" lon="2.97393">
        <ele>800</ele>
        <time>2019-10-13T08:36:54.000Z</time>
      </trkpt>
      <trkpt lat="44.22902" lon="2.97395">
        <ele>801</ele>
        <time>2019-10-13T08:36:55.000Z</time>
      </trkpt>
      <trkpt lat="44.22906" lon="2.97397">
        <ele>801</ele>
        <time>2019-10-13T08:36:56.000Z</time>
      </trkpt>
      <trkpt lat="44.22911" lon="2.97398">
        <ele>801</ele>
        <time>2019-10-13T08:36:57.000Z</time>
      </trkpt>
      <trkpt lat="44.22916" lon="2.97399">
        <ele>801</ele>
        <time>2019-10-13T08:36:58.000Z</time>
      </trkpt>
      <trkpt lat="44.22921" lon="2.974">
        <ele>801</ele>
        <time>2019-10-13T08:36:59.000Z</time>
      </trkpt>
      <trkpt lat="44.22926" lon="2.97402">
        <ele>802</ele>
        <time>2019-10-13T08:37:00.000Z</time>
      </trkpt>
      <trkpt lat="44.22931" lon="2.97403">
        <ele>802</ele>
        <time>2019-10-13T08:37:01.000Z</time>
      </trkpt>
      <trkpt lat="44.22936" lon="2.97405">
        <ele>802</ele>
        <time>2019-10-13T08:37:02.000Z</time>
      </trkpt>
      <trkpt lat="44.2294" lon="2.97407">
        <ele>802</ele>
        <time>2019-10-13T08:37:03.000Z</time>
      </trkpt>
      <trkpt lat="44.22945" lon="2.97408">
        <ele>802</ele>
        <time>2019-10-13T08:37:04.000Z</time>
      </trkpt>
      <trkpt lat="44.2295" lon="2.9741">
        <ele>803</ele>
        <time>2019-10-13T08:37:05.000Z</time>
      </trkpt>
      <trkpt lat="44.22955" lon="2.97412">
        <ele>803</ele>
        <time>2019-10-13T08:37:06.000Z</time>
      </trkpt>
      <trkpt lat="44.2296" lon="2.97413">
        <ele>803</ele>
        <time>2019-10-13T08:37:07.000Z</time>
      </trkpt>
      <trkpt lat="44.22965" lon="2.97415">
        <ele>803</ele>
        <time>2019-10-13T08:37:08.000Z</time>
      </trkpt>
      <trkpt lat="44.22971" lon="2.97416">
        <ele>803</ele>
        <time>2019-10-13T08:37:09.000Z</time>
      </trkpt>
      <trkpt lat="44.22975" lon="2.97417">
        <ele>804</ele>
        <time>2019-10-13T08:37:10.000Z</time>
      </trkpt>
      <trkpt lat="44.2298" lon="2.97418">
        <ele>804</ele>
        <time>2019-10-13T08:37:11.000Z</time>
      </trkpt>
      <trkpt lat="44.22984" lon="2.97419">
        <ele>804</ele>
        <time>2019-10-13T08:37:12.000Z</time>
      </trkpt>
      <trkpt lat="44.22988" lon="2.97419">
        <ele>804</ele>
        <time>2019-10-13T08:37:13.000Z</time>
      </trkpt>
      <trkpt lat="44.22992" lon="2.97419">
        <ele>805</ele>
        <time>2019-10-13T08:37:14.000Z</time>
      </trkpt>
      <trkpt lat="44.22996" lon="2.97419">
        <ele>805</ele>
        <time>2019-10-13T08:37:15.000Z</time>
      </trkpt>
      <trkpt lat="44.22999" lon="2.97419">
        <ele>805</ele>
        <time>2019-10-13T08:37:16.000Z</time>
      </trkpt>
      <trkpt lat="44.23002" lon="2.9742">
        <ele>806</ele>
        <time>2019-10-13T08:37:17.000Z</time>
      </trkpt>
      <trkpt lat="44.23004" lon="2.9742">
        <ele>806</ele>
        <time>2019-10-13T08:37:18.000Z</time>
      </trkpt>
      <trkpt lat="44.23006" lon="2.9742">
        <ele>806</ele>
        <time>2019-10-13T08:37:19.000Z</time>
      </trkpt>
      <trkpt lat="44.23007" lon="2.9742">
        <ele>806</ele>
        <time>2019-10-13T08:37:20.000Z</time>
      </trkpt>
      <trkpt lat="44.23008" lon="2.9742">
        <ele>807</ele>
        <time>2019-10-13T08:37:21.000Z</time>
      </trkpt>
      <trkpt lat="44.23008" lon="2.9742">
        <ele>807</ele>
        <time>2019-10-13T08:37:22.000Z</time>
      </trkpt>
      <trkpt lat="44.23008" lon="2.9742">
        <ele>807</ele>
        <time>2019-10-13T08:37:23.000Z</time>
      </trkpt>
      <trkpt lat="44.23008" lon="2.9742">
        <ele>807</ele>
        <time>2019-10-13T08:37:24.000Z</time>
      </trkpt>
      <trkpt lat="44.23008" lon="2.97421">
        <ele>808</ele>
        <time>2019-10-13T08:37:25.000Z</time>
      </trkpt>
      <trkpt lat="44.23008" lon="2.97421">
        <ele>808</ele>
        <time>2019-10-13T08:37:26.000Z</time>
      </trkpt>
      <trkpt lat="44.23008" lon="2.97421">
        <ele>808</ele>
        <time>2019-10-13T08:37:27.000Z</time>
      </trkpt>
      <trkpt lat="44.23009" lon="2.97421">
        <ele>809</ele>
        <time>2019-10-13T08:37:28.000Z</time>
      </trkpt>
      <trkpt lat="44.2301" lon="2.97421">
        <ele>809</ele>
        <time>2019-10-13T08:37:29.000Z</time>
      </trkpt>
      <trkpt lat="44.23011" lon="2.9742">
        <ele>809</ele>
        <time>2019-10-13T08:37:30.000Z</time>
      </trkpt>
      <trkpt lat="44.23012" lon="2.9742">
        <ele>810</ele>
        <time>2019-10-13T08:37:31.000Z</time>
      </trkpt>
      <trkpt lat="44.23014" lon="2.9742">
        <ele>810</ele>
        <time>2019-10-13T08:37:32.000Z</time>
      </trkpt>
      <trkpt lat="44.23015" lon="2.97419">
        <ele>811</ele>
        <time>2019-10-13T08:37:33.000Z</time>
      </trkpt>
      <trkpt lat="44.23016" lon="2.97419">
        <ele>811</ele>
        <time>2019-10-13T08:37:34.000Z</time>
      </trkpt>
      <trkpt lat="44.23017" lon="2.97419">
        <ele>812</ele>
        <time>2019-10-13T08:37:35.000Z</time>
      </trkpt>
      <trkpt lat="44.23018" lon="2.97419">
        <ele>812</ele>
        <time>2019-10-13T08:37:36.000Z</time>
      </trkpt>
      <trkpt lat="44.2302" lon="2.97419">
        <ele>812</ele>
        <time>2019-10-13T08:37:37.000Z</time>
      </trkpt>
      <trkpt lat="44.23021" lon="2.97419">
        <ele>813</ele>
        <time>2019-10-13T08:37:38.000Z</time>
      </trkpt>
      <trkpt lat="44.23022" lon="2.9742">
        <ele>813</ele>
        <time>2019-10-13T08:37:39.000Z</time>
      </trkpt>
      <trkpt lat="44.23023" lon="2.9742">
        <ele>813</ele>
        <time>2019-10-13T08:37:40.000Z</time>
      </trkpt>
      <trkpt lat="44.23024" lon="2.9742">
        <ele>814</ele>
        <time>2019-10-13T08:37:41.000Z</time>
      </trkpt>
      <trkpt lat="44.23026" lon="2.9742">
        <ele>814</ele>
        <time>2019-10-13T08:37:42.000Z</time>
      </trkpt>
      <trkpt lat="44.23027" lon="2.97421">
        <ele>814</ele>
        <time>2019-10-13T08:37:43.000Z</time>
      </trkpt>
      <trkpt lat="44.23028" lon="2.97421">
        <ele>814</ele>
        <time>2019-10-13T08:37:44.000Z</time>
      </trkpt>
      <trkpt lat="44.23029" lon="2.97421">
        <ele>815</ele>
        <time>2019-10-13T08:37:45.000Z</time>
      </trkpt>
      <trkpt lat="44.23031" lon="2.97421">
        <ele>815</ele>
        <time>2019-10-13T08:37:46.000Z</time>
      </trkpt>
      <trkpt lat="44.23032" lon="2.97421">
        <ele>815</ele>
        <time>2019-10-13T08:37:47.000Z</time>
      </trkpt>
      <trkpt lat="44.23033" lon="2.97422">
        <ele>816</ele>
        <time>2019-10-13T08:37:48.000Z</time>
      </trkpt>
      <trkpt lat="44.23035" lon="2.97422">
        <ele>816</ele>
        <time>2019-10-13T08:37:49.000Z</time>
      </trkpt>
      <trkpt lat="44.23036" lon="2.97423">
        <ele>817</ele>
        <time>2019-10-13T08:37:50.000Z</time>
      </trkpt>
      <trkpt lat="44.23037" lon="2.97423">
        <ele>817</ele>
        <time>2019-10-13T08:37:51.000Z</time>
      </trkpt>
      <trkpt lat="44.23038" lon="2.97424">
        <ele>817</ele>
        <time>2019-10-13T08:37:52.000Z</time>
      </trkpt>
      <trkpt lat="44.23039" lon="2.97425">
        <ele>818</ele>
        <time>2019-10-13T08:37:53.000Z</time>
      </trkpt>
      <trkpt lat="44.23041" lon="2.97425">
        <ele>818</ele>
        <time>2019-10-13T08:37:54.000Z</time>
      </trkpt>
      <trkpt lat="44.23042" lon="2.97426">
        <ele>819</ele>
        <time>2019-10-13T08:37:55.000Z</time>
      </trkpt>
      <trkpt lat="44.23043" lon="2.97426">
        <ele>819</ele>
        <time>2019-10-13T08:37:56.000Z</time>
      </trkpt>
      <trkpt lat="44.23043" lon="2.97426">
        <ele>819</ele>
        <time>2019-10-13T08:37:57.000Z</time>
      </trkpt>
      <trkpt lat="44.23043" lon="2.97426">
        <ele>819</ele>
        <time>2019-10-13T08:37:58.000Z</time>
      </trkpt>
      <trkpt lat="44.23042" lon="2.97426">
        <ele>819</ele>
        <time>2019-10-13T08:37:59.000Z</time>
      </trkpt>
      <trkpt lat="44.23042" lon="2.97426">
        <ele>819</ele>
        <time>2019-10-13T08:38:00.000Z</time>
      </trkpt>
      <trkpt lat="44.23042" lon="2.97426">
        <ele>819</ele>
        <time>2019-10-13T08:38:01.000Z</time>
      </trkpt>
      <trkpt lat="44.23042" lon="2.97427">
        <ele>820</ele>
        <time>2019-10-13T08:38:02.000Z</time>
      </trkpt>
      <trkpt lat="44.23042" lon="2.97426">
        <ele>820</ele>
        <time>2019-10-13T08:38:03.000Z</time>
      </trkpt>
      <trkpt lat="44.23042" lon="2.97427">
        <ele>820</ele>
        <time>2019-10-13T08:38:04.000Z</time>
      </trkpt>
      <trkpt lat="44.23042" lon="2.97426">
        <ele>820</ele>
        <time>2019-10-13T08:38:05.000Z</time>
      </trkpt>
      <trkpt lat="44.23041" lon="2.97427">
        <ele>820</ele>
        <time>2019-10-13T08:38:06.000Z</time>
      </trkpt>
      <trkpt lat="44.23041" lon="2.97427">
        <ele>820</ele>
        <time>2019-10-13T08:38:07.000Z</time>
      </trkpt>
      <trkpt lat="44.23041" lon="2.97427">
        <ele>821</ele>
        <time>2019-10-13T08:38:08.000Z</time>
      </trkpt>
      <trkpt lat="44.23042" lon="2.97426">
        <ele>821</ele>
        <time>2019-10-13T08:38:09.000Z</time>
      </trkpt>
      <trkpt lat="44.23043" lon="2.97427">
        <ele>821</ele>
        <time>2019-10-13T08:38:10.000Z</time>
      </trkpt>
      <trkpt lat="44.23045" lon="2.97428">
        <ele>821</ele>
        <time>2019-10-13T08:38:11.000Z</time>
      </trkpt>
      <trkpt lat="44.23047" lon="2.97429">
        <ele>821</ele>
        <time>2019-10-13T08:38:12.000Z</time>
      </trkpt>
      <trkpt lat="44.23049" lon="2.9743">
        <ele>822</ele>
        <time>2019-10-13T08:38:13.000Z</time>
      </trkpt>
      <trkpt lat="44.23052" lon="2.97432">
        <ele>822</ele>
        <time>2019-10-13T08:38:14.000Z</time>
      </trkpt>
      <trkpt lat="44.23054" lon="2.97433">
        <ele>822</ele>
        <time>2019-10-13T08:38:15.000Z</time>
      </trkpt>
      <trkpt lat="44.23056" lon="2.97434">
        <ele>822</ele>
        <time>2019-10-13T08:38:16.000Z</time>
      </trkpt>
      <trkpt lat="44.23058" lon="2.97434">
        <ele>822</ele>
        <time>2019-10-13T08:38:17.000Z</time>
      </trkpt>
      <trkpt lat="44.2306" lon="2.97435">
        <ele>823</ele>
        <time>2019-10-13T08:38:18.000Z</time>
      </trkpt>
      <trkpt lat="44.23062" lon="2.97436">
        <ele>823</ele>
        <time>2019-10-13T08:38:19.000Z</time>
      </trkpt>
      <trkpt lat="44.23065" lon="2.97437">
        <ele>823</ele>
        <time>2019-10-13T08:38:20.000Z</time>
      </trkpt>
      <trkpt lat="44.23068" lon="2.97438">
        <ele>823</ele>
        <time>2019-10-13T08:38:21.000Z</time>
      </trkpt>
      <trkpt lat="44.2307" lon="2.97438">
        <ele>824</ele>
        <time>2019-10-13T08:38:22.000Z</time>
      </trkpt>
      <trkpt lat="44.23073" lon="2.97437">
        <ele>824</ele>
        <time>2019-10-13T08:38:23.000Z</time>
      </trkpt>
      <trkpt lat="44.23075" lon="2.97437">
        <ele>824</ele>
        <time>2019-10-13T08:38:24.000Z</time>
      </trkpt>
      <trkpt lat="44.23078" lon="2.97435">
        <ele>824</ele>
        <time>2019-10-13T08:38:25.000Z</time>
      </trkpt>
      <trkpt lat="44.2308" lon="2.97434">
        <ele>825</ele>
        <time>2019-10-13T08:38:26.000Z</time>
      </trkpt>
      <trkpt lat="44.23083" lon="2.97432">
        <ele>825</ele>
        <time>2019-10-13T08:38:27.000Z</time>
      </trkpt>
      <trkpt lat="44.23085" lon="2.97429">
        <ele>825</ele>
        <time>2019-10-13T08:38:28.000Z</time>
      </trkpt>
      <trkpt lat="44.23088" lon="2.97427">
        <ele>825</ele>
        <time>2019-10-13T08:38:29.000Z</time>
      </trkpt>
      <trkpt lat="44.2309" lon="2.97424">
        <ele>826</ele>
        <time>2019-10-13T08:38:30.000Z</time>
      </trkpt>
      <trkpt lat="44.23092" lon="2.97422">
        <ele>826</ele>
        <time>2019-10-13T08:38:31.000Z</time>
      </trkpt>
      <trkpt lat="44.23093" lon="2.9742">
        <ele>826</ele>
        <time>2019-10-13T08:38:32.000Z</time>
      </trkpt>
      <trkpt lat="44.23095" lon="2.97418">
        <ele>826</ele>
        <time>2019-10-13T08:38:33.000Z</time>
      </trkpt>
      <trkpt lat="44.23096" lon="2.97416">
        <ele>827</ele>
        <time>2019-10-13T08:38:34.000Z</time>
      </trkpt>
      <trkpt lat="44.23098" lon="2.97414">
        <ele>827</ele>
        <time>2019-10-13T08:38:35.000Z</time>
      </trkpt>
      <trkpt lat="44.23099" lon="2.97413">
        <ele>827</ele>
        <time>2019-10-13T08:38:36.000Z</time>
      </trkpt>
      <trkpt lat="44.231" lon="2.97412">
        <ele>828</ele>
        <time>2019-10-13T08:38:37.000Z</time>
      </trkpt>
      <trkpt lat="44.23102" lon="2.97411">
        <ele>828</ele>
        <time>2019-10-13T08:38:38.000Z</time>
      </trkpt>
      <trkpt lat="44.23103" lon="2.97411">
        <ele>828</ele>
        <time>2019-10-13T08:38:39.000Z</time>
      </trkpt>
      <trkpt lat="44.23105" lon="2.9741">
        <ele>828</ele>
        <time>2019-10-13T08:38:40.000Z</time>
      </trkpt>
      <trkpt lat="44.23107" lon="2.97409">
        <ele>829</ele>
        <time>2019-10-13T08:38:41.000Z</time>
      </trkpt>
      <trkpt lat="44.23108" lon="2.97409">
        <ele>829</ele>
        <time>2019-10-13T08:38:42.000Z</time>
      </trkpt>
      <trkpt lat="44.23109" lon="2.97408">
        <ele>829</ele>
        <time>2019-10-13T08:38:43.000Z</time>
      </trkpt>
      <trkpt lat="44.23111" lon="2.97407">
        <ele>829</ele>
        <time>2019-10-13T08:38:44.000Z</time>
      </trkpt>
      <trkpt lat="44.23112" lon="2.97407">
        <ele>829</ele>
        <time>2019-10-13T08:38:45.000Z</time>
      </trkpt>
      <trkpt lat="44.23113" lon="2.97407">
        <ele>830</ele>
        <time>2019-10-13T08:38:46.000Z</time>
      </trkpt>
      <trkpt lat="44.23115" lon="2.97406">
        <ele>830</ele>
        <time>2019-10-13T08:38:47.000Z</time>
      </trkpt>
      <trkpt lat="44.23116" lon="2.97406">
        <ele>830</ele>
        <time>2019-10-13T08:38:48.000Z</time>
      </trkpt>
      <trkpt lat="44.23118" lon="2.97407">
        <ele>830</ele>
        <time>2019-10-13T08:38:49.000Z</time>
      </trkpt>
      <trkpt lat="44.23119" lon="2.97407">
        <ele>831</ele>
        <time>2019-10-13T08:38:50.000Z</time>
      </trkpt>
      <trkpt lat="44.2312" lon="2.97407">
        <ele>831</ele>
        <time>2019-10-13T08:38:51.000Z</time>
      </trkpt>
      <trkpt lat="44.23121" lon="2.97407">
        <ele>831</ele>
        <time>2019-10-13T08:38:52.000Z</time>
      </trkpt>
      <trkpt lat="44.23122" lon="2.97407">
        <ele>832</ele>
        <time>2019-10-13T08:38:53.000Z</time>
      </trkpt>
      <trkpt lat="44.23124" lon="2.97406">
        <ele>832</ele>
        <time>2019-10-13T08:38:54.000Z</time>
      </trkpt>
      <trkpt lat="44.23125" lon="2.97406">
        <ele>832</ele>
        <time>2019-10-13T08:38:55.000Z</time>
      </trkpt>
      <trkpt lat="44.23127" lon="2.97406">
        <ele>832</ele>
        <time>2019-10-13T08:38:56.000Z</time>
      </trkpt>
      <trkpt lat="44.23129" lon="2.97405">
        <ele>832</ele>
        <time>2019-10-13T08:38:57.000Z</time>
      </trkpt>
      <trkpt lat="44.2313" lon="2.97405">
        <ele>833</ele>
        <time>2019-10-13T08:38:58.000Z</time>
      </trkpt>
      <trkpt lat="44.23132" lon="2.97405">
        <ele>833</ele>
        <time>2019-10-13T08:38:59.000Z</time>
      </trkpt>
      <trkpt lat="44.23133" lon="2.97404">
        <ele>833</ele>
        <time>2019-10-13T08:39:00.000Z</time>
      </trkpt>
      <trkpt lat="44.23135" lon="2.97404">
        <ele>833</ele>
        <time>2019-10-13T08:39:01.000Z</time>
      </trkpt>
      <trkpt lat="44.23136" lon="2.97403">
        <ele>834</ele>
        <time>2019-10-13T08:39:02.000Z</time>
      </trkpt>
      <trkpt lat="44.23138" lon="2.97403">
        <ele>834</ele>
        <time>2019-10-13T08:39:03.000Z</time>
      </trkpt>
      <trkpt lat="44.2314" lon="2.97402">
        <ele>834</ele>
        <time>2019-10-13T08:39:04.000Z</time>
      </trkpt>
      <trkpt lat="44.23142" lon="2.97402">
        <ele>834</ele>
        <time>2019-10-13T08:39:05.000Z</time>
      </trkpt>
      <trkpt lat="44.23144" lon="2.97402">
        <ele>835</ele>
        <time>2019-10-13T08:39:06.000Z</time>
      </trkpt>
      <trkpt lat="44.23146" lon="2.97402">
        <ele>835</ele>
        <time>2019-10-13T08:39:07.000Z</time>
      </trkpt>
      <trkpt lat="44.23147" lon="2.97402">
        <ele>835</ele>
        <time>2019-10-13T08:39:08.000Z</time>
      </trkpt>
      <trkpt lat="44.23148" lon="2.97403">
        <ele>835</ele>
        <time>2019-10-13T08:39:09.000Z</time>
      </trkpt>
      <trkpt lat="44.23148" lon="2.97403">
        <ele>835</ele>
        <time>2019-10-13T08:39:10.000Z</time>
      </trkpt>
      <trkpt lat="44.23148" lon="2.97403">
        <ele>836</ele>
        <time>2019-10-13T08:39:11.000Z</time>
      </trkpt>
      <trkpt lat="44.23148" lon="2.97403">
        <ele>836</ele>
        <time>2019-10-13T08:39:12.000Z</time>
      </trkpt>
      <trkpt lat="44.23148" lon="2.97402">
        <ele>836</ele>
        <time>2019-10-13T08:39:13.000Z</time>
      </trkpt>
      <trkpt lat="44.23148" lon="2.97402">
        <ele>836</ele>
        <time>2019-10-13T08:39:14.000Z</time>
      </trkpt>
      <trkpt lat="44.23148" lon="2.97402">
        <ele>836</ele>
        <time>2019-10-13T08:39:15.000Z</time>
      </trkpt>
      <trkpt lat="44.23148" lon="2.97402">
        <ele>836</ele>
        <time>2019-10-13T08:39:16.000Z</time>
      </trkpt>
      <trkpt lat="44.23148" lon="2.97403">
        <ele>836</ele>
        <time>2019-10-13T08:39:17.000Z</time>
      </trkpt>
      <trkpt lat="44.23149" lon="2.97403">
        <ele>836</ele>
        <time>2019-10-13T08:39:18.000Z</time>
      </trkpt>
      <trkpt lat="44.2315" lon="2.97403">
        <ele>837</ele>
        <time>2019-10-13T08:39:19.000Z</time>
      </trkpt>
      <trkpt lat="44.23152" lon="2.97403">
        <ele>837</ele>
        <time>2019-10-13T08:39:20.000Z</time>
      </trkpt>
      <trkpt lat="44.23153" lon="2.97403">
        <ele>837</ele>
        <time>2019-10-13T08:39:21.000Z</time>
      </trkpt>
      <trkpt lat="44.23155" lon="2.97404">
        <ele>837</ele>
        <time>2019-10-13T08:39:22.000Z</time>
      </trkpt>
      <trkpt lat="44.23156" lon="2.97404">
        <ele>837</ele>
        <time>2019-10-13T08:39:23.000Z</time>
      </trkpt>
      <trkpt lat="44.23158" lon="2.97405">
        <ele>837</ele>
        <time>2019-10-13T08:39:24.000Z</time>
      </trkpt>
      <trkpt lat="44.23159" lon="2.97405">
        <ele>837</ele>
        <time>2019-10-13T08:39:25.000Z</time>
      </trkpt>
      <trkpt lat="44.2316" lon="2.97407">
        <ele>837</ele>
        <time>2019-10-13T08:39:26.000Z</time>
      </trkpt>
      <trkpt lat="44.23161" lon="2.97408">
        <ele>837</ele>
        <time>2019-10-13T08:39:27.000Z</time>
      </trkpt>
      <trkpt lat="44.23162" lon="2.9741">
        <ele>837</ele>
        <time>2019-10-13T08:39:28.000Z</time>
      </trkpt>
      <trkpt lat="44.23163" lon="2.97412">
        <ele>837</ele>
        <time>2019-10-13T08:39:29.000Z</time>
      </trkpt>
      <trkpt lat="44.23164" lon="2.97413">
        <ele>838</ele>
        <time>2019-10-13T08:39:30.000Z</time>
      </trkpt>
      <trkpt lat="44.23165" lon="2.97414">
        <ele>838</ele>
        <time>2019-10-13T08:39:31.000Z</time>
      </trkpt>
      <trkpt lat="44.23166" lon="2.97415">
        <ele>838</ele>
        <time>2019-10-13T08:39:32.000Z</time>
      </trkpt>
      <trkpt lat="44.23166" lon="2.97415">
        <ele>838</ele>
        <time>2019-10-13T08:39:33.000Z</time>
      </trkpt>
      <trkpt lat="44.23167" lon="2.97416">
        <ele>838</ele>
        <time>2019-10-13T08:39:34.000Z</time>
      </trkpt>
      <trkpt lat="44.23167" lon="2.97416">
        <ele>838</ele>
        <time>2019-10-13T08:39:35.000Z</time>
      </trkpt>
      <trkpt lat="44.23167" lon="2.97416">
        <ele>838</ele>
        <time>2019-10-13T08:39:36.000Z</time>
      </trkpt>
      <trkpt lat="44.23168" lon="2.97414">
        <ele>838</ele>
        <time>2019-10-13T08:39:37.000Z</time>
      </trkpt>
      <trkpt lat="44.23168" lon="2.97413">
        <ele>838</ele>
        <time>2019-10-13T08:39:38.000Z</time>
      </trkpt>
      <trkpt lat="44.23168" lon="2.97413">
        <ele>838</ele>
        <time>2019-10-13T08:39:39.000Z</time>
      </trkpt>
      <trkpt lat="44.23169" lon="2.97412">
        <ele>838</ele>
        <time>2019-10-13T08:39:40.000Z</time>
      </trkpt>
      <trkpt lat="44.23169" lon="2.97411">
        <ele>838</ele>
        <time>2019-10-13T08:39:41.000Z</time>
      </trkpt>
      <trkpt lat="44.23169" lon="2.97412">
        <ele>839</ele>
        <time>2019-10-13T08:39:42.000Z</time>
      </trkpt>
      <trkpt lat="44.23169" lon="2.97412">
        <ele>839</ele>
        <time>2019-10-13T08:39:43.000Z</time>
      </trkpt>
      <trkpt lat="44.23168" lon="2.97412">
        <ele>839</ele>
        <time>2019-10-13T08:39:44.000Z</time>
      </trkpt>
      <trkpt lat="44.23168" lon="2.97411">
        <ele>839</ele>
        <time>2019-10-13T08:39:45.000Z</time>
      </trkpt>
      <trkpt lat="44.23168" lon="2.97411">
        <ele>839</ele>
        <time>2019-10-13T08:39:46.000Z</time>
      </trkpt>
      <trkpt lat="44.23167" lon="2.97411">
        <ele>839</ele>
        <time>2019-10-13T08:39:47.000Z</time>
      </trkpt>
      <trkpt lat="44.23167" lon="2.97411">
        <ele>839</ele>
        <time>2019-10-13T08:39:48.000Z</time>
      </trkpt>
      <trkpt lat="44.23166" lon="2.97411">
        <ele>839</ele>
        <time>2019-10-13T08:39:49.000Z</time>
      </trkpt>
      <trkpt lat="44.23166" lon="2.97411">
        <ele>839</ele>
        <time>2019-10-13T08:39:50.000Z</time>
      </trkpt>
      <trkpt lat="44.23165" lon="2.97411">
        <ele>839</ele>
        <time>2019-10-13T08:39:51.000Z</time>
      </trkpt>
      <trkpt lat="44.23164" lon="2.97413">
        <ele>838</ele>
        <time>2019-10-13T08:39:52.000Z</time>
      </trkpt>
      <trkpt lat="44.23164" lon="2.97415">
        <ele>838</ele>
        <time>2019-10-13T08:39:53.000Z</time>
      </trkpt>
      <trkpt lat="44.23165" lon="2.97417">
        <ele>838</ele>
        <time>2019-10-13T08:39:54.000Z</time>
      </trkpt>
      <trkpt lat="44.23165" lon="2.97419">
        <ele>838</ele>
        <time>2019-10-13T08:39:55.000Z</time>
      </trkpt>
      <trkpt lat="44.23166" lon="2.97421">
        <ele>838</ele>
        <time>2019-10-13T08:39:56.000Z</time>
      </trkpt>
      <trkpt lat="44.23167" lon="2.97422">
        <ele>838</ele>
        <time>2019-10-13T08:39:57.000Z</time>
      </trkpt>
      <trkpt lat="44.23168" lon="2.97424">
        <ele>838</ele>
        <time>2019-10-13T08:39:58.000Z</time>
      </trkpt>
      <trkpt lat="44.23169" lon="2.97425">
        <ele>838</ele>
        <time>2019-10-13T08:39:59.000Z</time>
      </trkpt>
      <trkpt lat="44.23169" lon="2.97427">
        <ele>839</ele>
        <time>2019-10-13T08:40:00.000Z</time>
      </trkpt>
      <trkpt lat="44.2317" lon="2.97428">
        <ele>839</ele>
        <time>2019-10-13T08:40:01.000Z</time>
      </trkpt>
      <trkpt lat="44.23171" lon="2.9743">
        <ele>839</ele>
        <time>2019-10-13T08:40:02.000Z</time>
      </trkpt>
      <trkpt lat="44.23172" lon="2.97432">
        <ele>839</ele>
        <time>2019-10-13T08:40:03.000Z</time>
      </trkpt>
      <trkpt lat="44.23173" lon="2.97434">
        <ele>839</ele>
        <time>2019-10-13T08:40:04.000Z</time>
      </trkpt>
      <trkpt lat="44.23174" lon="2.97436">
        <ele>839</ele>
        <time>2019-10-13T08:40:05.000Z</time>
      </trkpt>
      <trkpt lat="44.23175" lon="2.97437">
        <ele>839</ele>
        <time>2019-10-13T08:40:06.000Z</time>
      </trkpt>
      <trkpt lat="44.23176" lon="2.97438">
        <ele>839</ele>
        <time>2019-10-13T08:40:07.000Z</time>
      </trkpt>
      <trkpt lat="44.23177" lon="2.97439">
        <ele>839</ele>
        <time>2019-10-13T08:40:08.000Z</time>
      </trkpt>
      <trkpt lat="44.23178" lon="2.9744">
        <ele>839</ele>
        <time>2019-10-13T08:40:09.000Z</time>
      </trkpt>
      <trkpt lat="44.2318" lon="2.97441">
        <ele>839</ele>
        <time>2019-10-13T08:40:10.000Z</time>
      </trkpt>
      <trkpt lat="44.2318" lon="2.97441">
        <ele>839</ele>
        <time>2019-10-13T08:40:11.000Z</time>
      </trkpt>
      <trkpt lat="44.2318" lon="2.97441">
        <ele>840</ele>
        <time>2019-10-13T08:40:12.000Z</time>
      </trkpt>
      <trkpt lat="44.2318" lon="2.97441">
        <ele>840</ele>
        <time>2019-10-13T08:40:13.000Z</time>
      </trkpt>
      <trkpt lat="44.23181" lon="2.97441">
        <ele>839</ele>
        <time>2019-10-13T08:40:14.000Z</time>
      </trkpt>
      <trkpt lat="44.23183" lon="2.97442">
        <ele>839</ele>
        <time>2019-10-13T08:40:15.000Z</time>
      </trkpt>
      <trkpt lat="44.23185" lon="2.97442">
        <ele>840</ele>
        <time>2019-10-13T08:40:16.000Z</time>
      </trkpt>
      <trkpt lat="44.23187" lon="2.97442">
        <ele>840</ele>
        <time>2019-10-13T08:40:17.000Z</time>
      </trkpt>
      <trkpt lat="44.23187" lon="2.97442">
        <ele>840</ele>
        <time>2019-10-13T08:40:18.000Z</time>
      </trkpt>
      <trkpt lat="44.23188" lon="2.97442">
        <ele>840</ele>
        <time>2019-10-13T08:40:19.000Z</time>
      </trkpt>
      <trkpt lat="44.23189" lon="2.97443">
        <ele>840</ele>
        <time>2019-10-13T08:40:20.000Z</time>
      </trkpt>
      <trkpt lat="44.2319" lon="2.97443">
        <ele>840</ele>
        <time>2019-10-13T08:40:21.000Z</time>
      </trkpt>
      <trkpt lat="44.23191" lon="2.97444">
        <ele>840</ele>
        <time>2019-10-13T08:40:22.000Z</time>
      </trkpt>
      <trkpt lat="44.23192" lon="2.97444">
        <ele>840</ele>
        <time>2019-10-13T08:40:23.000Z</time>
      </trkpt>
      <trkpt lat="44.23193" lon="2.97445">
        <ele>840</ele>
        <time>2019-10-13T08:40:24.000Z</time>
      </trkpt>
      <trkpt lat="44.23195" lon="2.97445">
        <ele>840</ele>
        <time>2019-10-13T08:40:25.000Z</time>
      </trkpt>
      <trkpt lat="44.23196" lon="2.97446">
        <ele>840</ele>
        <time>2019-10-13T08:40:26.000Z</time>
      </trkpt>
      <trkpt lat="44.23197" lon="2.97447">
        <ele>840</ele>
        <time>2019-10-13T08:40:27.000Z</time>
      </trkpt>
      <trkpt lat="44.23198" lon="2.97449">
        <ele>840</ele>
        <time>2019-10-13T08:40:28.000Z</time>
      </trkpt>
      <trkpt lat="44.23199" lon="2.9745">
        <ele>840</ele>
        <time>2019-10-13T08:40:29.000Z</time>
      </trkpt>
      <trkpt lat="44.232" lon="2.97452">
        <ele>840</ele>
        <time>2019-10-13T08:40:30.000Z</time>
      </trkpt>
      <trkpt lat="44.23201" lon="2.97454">
        <ele>840</ele>
        <time>2019-10-13T08:40:31.000Z</time>
      </trkpt>
      <trkpt lat="44.23202" lon="2.97456">
        <ele>840</ele>
        <time>2019-10-13T08:40:32.000Z</time>
      </trkpt>
      <trkpt lat="44.23203" lon="2.97457">
        <ele>840</ele>
        <time>2019-10-13T08:40:33.000Z</time>
      </trkpt>
      <trkpt lat="44.23204" lon="2.97458">
        <ele>840</ele>
        <time>2019-10-13T08:40:34.000Z</time>
      </trkpt>
      <trkpt lat="44.23205" lon="2.9746">
        <ele>839</ele>
        <time>2019-10-13T08:40:35.000Z</time>
      </trkpt>
      <trkpt lat="44.23206" lon="2.97461">
        <ele>839</ele>
        <time>2019-10-13T08:40:36.000Z</time>
      </trkpt>
      <trkpt lat="44.23206" lon="2.97463">
        <ele>839</ele>
        <time>2019-10-13T08:40:37.000Z</time>
      </trkpt>
      <trkpt lat="44.23207" lon="2.97464">
        <ele>839</ele>
        <time>2019-10-13T08:40:38.000Z</time>
      </trkpt>
      <trkpt lat="44.23207" lon="2.97466">
        <ele>839</ele>
        <time>2019-10-13T08:40:39.000Z</time>
      </trkpt>
      <trkpt lat="44.23208" lon="2.97467">
        <ele>839</ele>
        <time>2019-10-13T08:40:40.000Z</time>
      </trkpt>
      <trkpt lat="44.23209" lon="2.97469">
        <ele>839</ele>
        <time>2019-10-13T08:40:41.000Z</time>
      </trkpt>
      <trkpt lat="44.2321" lon="2.9747">
        <ele>839</ele>
        <time>2019-10-13T08:40:42.000Z</time>
      </trkpt>
      <trkpt lat="44.23212" lon="2.97471">
        <ele>839</ele>
        <time>2019-10-13T08:40:43.000Z</time>
      </trkpt>
      <trkpt lat="44.23213" lon="2.97473">
        <ele>839</ele>
        <time>2019-10-13T08:40:44.000Z</time>
      </trkpt>
      <trkpt lat="44.23214" lon="2.97474">
        <ele>839</ele>
        <time>2019-10-13T08:40:45.000Z</time>
      </trkpt>
      <trkpt lat="44.23215" lon="2.97476">
        <ele>839</ele>
        <time>2019-10-13T08:40:46.000Z</time>
      </trkpt>
      <trkpt lat="44.23216" lon="2.97477">
        <ele>840</ele>
        <time>2019-10-13T08:40:47.000Z</time>
      </trkpt>
      <trkpt lat="44.23218" lon="2.97478">
        <ele>839</ele>
        <time>2019-10-13T08:40:48.000Z</time>
      </trkpt>
      <trkpt lat="44.23219" lon="2.9748">
        <ele>840</ele>
        <time>2019-10-13T08:40:49.000Z</time>
      </trkpt>
      <trkpt lat="44.2322" lon="2.97481">
        <ele>840</ele>
        <time>2019-10-13T08:40:50.000Z</time>
      </trkpt>
      <trkpt lat="44.23222" lon="2.97482">
        <ele>840</ele>
        <time>2019-10-13T08:40:51.000Z</time>
      </trkpt>
      <trkpt lat="44.23223" lon="2.97483">
        <ele>840</ele>
        <time>2019-10-13T08:40:52.000Z</time>
      </trkpt>
      <trkpt lat="44.23224" lon="2.97484">
        <ele>840</ele>
        <time>2019-10-13T08:40:53.000Z</time>
      </trkpt>
      <trkpt lat="44.23226" lon="2.97485">
        <ele>840</ele>
        <time>2019-10-13T08:40:54.000Z</time>
      </trkpt>
      <trkpt lat="44.23227" lon="2.97485">
        <ele>840</ele>
        <time>2019-10-13T08:40:55.000Z</time>
      </trkpt>
      <trkpt lat="44.23229" lon="2.97487">
        <ele>840</ele>
        <time>2019-10-13T08:40:56.000Z</time>
      </trkpt>
      <trkpt lat="44.23231" lon="2.97488">
        <ele>840</ele>
        <time>2019-10-13T08:40:57.000Z</time>
      </trkpt>
      <trkpt lat="44.23232" lon="2.97489">
        <ele>840</ele>
        <time>2019-10-13T08:40:58.000Z</time>
      </trkpt>
      <trkpt lat="44.23234" lon="2.97489">
        <ele>840</ele>
        <time>2019-10-13T08:40:59.000Z</time>
      </trkpt>
      <trkpt lat="44.23235" lon="2.9749">
        <ele>840</ele>
        <time>2019-10-13T08:41:00.000Z</time>
      </trkpt>
      <trkpt lat="44.23237" lon="2.97491">
        <ele>840</ele>
        <time>2019-10-13T08:41:01.000Z</time>
      </trkpt>
      <trkpt lat="44.23238" lon="2.97491">
        <ele>840</ele>
        <time>2019-10-13T08:41:02.000Z</time>
      </trkpt>
      <trkpt lat="44.23239" lon="2.97492">
        <ele>840</ele>
        <time>2019-10-13T08:41:03.000Z</time>
      </trkpt>
      <trkpt lat="44.2324" lon="2.97493">
        <ele>840</ele>
        <time>2019-10-13T08:41:04.000Z</time>
      </trkpt>
      <trkpt lat="44.23242" lon="2.97493">
        <ele>840</ele>
        <time>2019-10-13T08:41:05.000Z</time>
      </trkpt>
      <trkpt lat="44.23243" lon="2.97494">
        <ele>840</ele>
        <time>2019-10-13T08:41:06.000Z</time>
      </trkpt>
      <trkpt lat="44.23244" lon="2.97494">
        <ele>840</ele>
        <time>2019-10-13T08:41:07.000Z</time>
      </trkpt>
      <trkpt lat="44.23245" lon="2.97495">
        <ele>840</ele>
        <time>2019-10-13T08:41:08.000Z</time>
      </trkpt>
      <trkpt lat="44.23246" lon="2.97496">
        <ele>840</ele>
        <time>2019-10-13T08:41:09.000Z</time>
      </trkpt>
      <trkpt lat="44.23247" lon="2.97496">
        <ele>840</ele>
        <time>2019-10-13T08:41:10.000Z</time>
      </trkpt>
      <trkpt lat="44.23248" lon="2.97497">
        <ele>840</ele>
        <time>2019-10-13T08:41:11.000Z</time>
      </trkpt>
      <trkpt lat="44.23249" lon="2.97498">
        <ele>840</ele>
        <time>2019-10-13T08:41:12.000Z</time>
      </trkpt>
      <trkpt lat="44.2325" lon="2.97499">
        <ele>840</ele>
        <time>2019-10-13T08:41:13.000Z</time>
      </trkpt>
      <trkpt lat="44.23252" lon="2.975">
        <ele>840</ele>
        <time>2019-10-13T08:41:14.000Z</time>
      </trkpt>
      <trkpt lat="44.23253" lon="2.97501">
        <ele>840</ele>
        <time>2019-10-13T08:41:15.000Z</time>
      </trkpt>
      <trkpt lat="44.23254" lon="2.97502">
        <ele>840</ele>
        <time>2019-10-13T08:41:16.000Z</time>
      </trkpt>
      <trkpt lat="44.23255" lon="2.97502">
        <ele>840</ele>
        <time>2019-10-13T08:41:17.000Z</time>
      </trkpt>
      <trkpt lat="44.23257" lon="2.97503">
        <ele>840</ele>
        <time>2019-10-13T08:41:18.000Z</time>
      </trkpt>
      <trkpt lat="44.23258" lon="2.97504">
        <ele>840</ele>
        <time>2019-10-13T08:41:19.000Z</time>
      </trkpt>
      <trkpt lat="44.23259" lon="2.97505">
        <ele>840</ele>
        <time>2019-10-13T08:41:20.000Z</time>
      </trkpt>
      <trkpt lat="44.23261" lon="2.97506">
        <ele>840</ele>
        <time>2019-10-13T08:41:21.000Z</time>
      </trkpt>
      <trkpt lat="44.23262" lon="2.97507">
        <ele>840</ele>
        <time>2019-10-13T08:41:22.000Z</time>
      </trkpt>
      <trkpt lat="44.23264" lon="2.97507">
        <ele>840</ele>
        <time>2019-10-13T08:41:23.000Z</time>
      </trkpt>
      <trkpt lat="44.23265" lon="2.97508">
        <ele>840</ele>
        <time>2019-10-13T08:41:24.000Z</time>
      </trkpt>
      <trkpt lat="44.23267" lon="2.97509">
        <ele>840</ele>
        <time>2019-10-13T08:41:25.000Z</time>
      </trkpt>
      <trkpt lat="44.23268" lon="2.9751">
        <ele>840</ele>
        <time>2019-10-13T08:41:26.000Z</time>
      </trkpt>
      <trkpt lat="44.2327" lon="2.97511">
        <ele>840</ele>
        <time>2019-10-13T08:41:27.000Z</time>
      </trkpt>
      <trkpt lat="44.23271" lon="2.97512">
        <ele>840</ele>
        <time>2019-10-13T08:41:28.000Z</time>
      </trkpt>
      <trkpt lat="44.23272" lon="2.97513">
        <ele>840</ele>
        <time>2019-10-13T08:41:29.000Z</time>
      </trkpt>
      <trkpt lat="44.23274" lon="2.97513">
        <ele>840</ele>
        <time>2019-10-13T08:41:30.000Z</time>
      </trkpt>
      <trkpt lat="44.23275" lon="2.97514">
        <ele>840</ele>
        <time>2019-10-13T08:41:31.000Z</time>
      </trkpt>
      <trkpt lat="44.23277" lon="2.97515">
        <ele>840</ele>
        <time>2019-10-13T08:41:32.000Z</time>
      </trkpt>
      <trkpt lat="44.23278" lon="2.97516">
        <ele>840</ele>
        <time>2019-10-13T08:41:33.000Z</time>
      </trkpt>
      <trkpt lat="44.2328" lon="2.97517">
        <ele>840</ele>
        <time>2019-10-13T08:41:34.000Z</time>
      </trkpt>
      <trkpt lat="44.23281" lon="2.97518">
        <ele>840</ele>
        <time>2019-10-13T08:41:35.000Z</time>
      </trkpt>
      <trkpt lat="44.23283" lon="2.97519">
        <ele>840</ele>
        <time>2019-10-13T08:41:36.000Z</time>
      </trkpt>
      <trkpt lat="44.23285" lon="2.97521">
        <ele>840</ele>
        <time>2019-10-13T08:41:37.000Z</time>
      </trkpt>
      <trkpt lat="44.23286" lon="2.97522">
        <ele>840</ele>
        <time>2019-10-13T08:41:38.000Z</time>
      </trkpt>
      <trkpt lat="44.23288" lon="2.97523">
        <ele>840</ele>
        <time>2019-10-13T08:41:39.000Z</time>
      </trkpt>
      <trkpt lat="44.23289" lon="2.97524">
        <ele>840</ele>
        <time>2019-10-13T08:41:40.000Z</time>
      </trkpt>
      <trkpt lat="44.2329" lon="2.97525">
        <ele>840</ele>
        <time>2019-10-13T08:41:41.000Z</time>
      </trkpt>
      <trkpt lat="44.23291" lon="2.97526">
        <ele>840</ele>
        <time>2019-10-13T08:41:42.000Z</time>
      </trkpt>
      <trkpt lat="44.23293" lon="2.97527">
        <ele>840</ele>
        <time>2019-10-13T08:41:43.000Z</time>
      </trkpt>
      <trkpt lat="44.23294" lon="2.97527">
        <ele>840</ele>
        <time>2019-10-13T08:41:44.000Z</time>
      </trkpt>
      <trkpt lat="44.23295" lon="2.97528">
        <ele>840</ele>
        <time>2019-10-13T08:41:45.000Z</time>
      </trkpt>
      <trkpt lat="44.23296" lon="2.97529">
        <ele>840</ele>
        <time>2019-10-13T08:41:46.000Z</time>
      </trkpt>
      <trkpt lat="44.23297" lon="2.9753">
        <ele>840</ele>
        <time>2019-10-13T08:41:47.000Z</time>
      </trkpt>
      <trkpt lat="44.23299" lon="2.97531">
        <ele>840</ele>
        <time>2019-10-13T08:41:48.000Z</time>
      </trkpt>
      <trkpt lat="44.233" lon="2.97532">
        <ele>840</ele>
        <time>2019-10-13T08:41:49.000Z</time>
      </trkpt>
      <trkpt lat="44.23301" lon="2.97533">
        <ele>839</ele>
        <time>2019-10-13T08:41:50.000Z</time>
      </trkpt>
      <trkpt lat="44.23303" lon="2.97534">
        <ele>839</ele>
        <time>2019-10-13T08:41:51.000Z</time>
      </trkpt>
      <trkpt lat="44.23304" lon="2.97535">
        <ele>839</ele>
        <time>2019-10-13T08:41:52.000Z</time>
      </trkpt>
      <trkpt lat="44.23305" lon="2.97536">
        <ele>839</ele>
        <time>2019-10-13T08:41:53.000Z</time>
      </trkpt>
      <trkpt lat="44.23307" lon="2.97537">
        <ele>839</ele>
        <time>2019-10-13T08:41:54.000Z</time>
      </trkpt>
      <trkpt lat="44.23308" lon="2.97538">
        <ele>839</ele>
        <time>2019-10-13T08:41:55.000Z</time>
      </trkpt>
      <trkpt lat="44.23309" lon="2.9754">
        <ele>839</ele>
        <time>2019-10-13T08:41:56.000Z</time>
      </trkpt>
      <trkpt lat="44.2331" lon="2.97541">
        <ele>839</ele>
        <time>2019-10-13T08:41:57.000Z</time>
      </trkpt>
      <trkpt lat="44.23312" lon="2.97542">
        <ele>839</ele>
        <time>2019-10-13T08:41:58.000Z</time>
      </trkpt>
      <trkpt lat="44.23313" lon="2.97543">
        <ele>838</ele>
        <time>2019-10-13T08:41:59.000Z</time>
      </trkpt>
      <trkpt lat="44.23314" lon="2.97544">
        <ele>838</ele>
        <time>2019-10-13T08:42:00.000Z</time>
      </trkpt>
      <trkpt lat="44.23316" lon="2.97546">
        <ele>838</ele>
        <time>2019-10-13T08:42:01.000Z</time>
      </trkpt>
      <trkpt lat="44.23317" lon="2.97547">
        <ele>838</ele>
        <time>2019-10-13T08:42:02.000Z</time>
      </trkpt>
      <trkpt lat="44.23318" lon="2.97548">
        <ele>838</ele>
        <time>2019-10-13T08:42:03.000Z</time>
      </trkpt>
      <trkpt lat="44.23319" lon="2.97549">
        <ele>838</ele>
        <time>2019-10-13T08:42:04.000Z</time>
      </trkpt>
      <trkpt lat="44.2332" lon="2.9755">
        <ele>838</ele>
        <time>2019-10-13T08:42:05.000Z</time>
      </trkpt>
      <trkpt lat="44.23321" lon="2.9755">
        <ele>838</ele>
        <time>2019-10-13T08:42:06.000Z</time>
      </trkpt>
      <trkpt lat="44.23323" lon="2.97551">
        <ele>838</ele>
        <time>2019-10-13T08:42:07.000Z</time>
      </trkpt>
      <trkpt lat="44.23324" lon="2.97552">
        <ele>837</ele>
        <time>2019-10-13T08:42:08.000Z</time>
      </trkpt>
      <trkpt lat="44.23325" lon="2.97553">
        <ele>837</ele>
        <time>2019-10-13T08:42:09.000Z</time>
      </trkpt>
      <trkpt lat="44.23327" lon="2.97554">
        <ele>837</ele>
        <time>2019-10-13T08:42:10.000Z</time>
      </trkpt>
      <trkpt lat="44.23328" lon="2.97556">
        <ele>837</ele>
        <time>2019-10-13T08:42:11.000Z</time>
      </trkpt>
      <trkpt lat="44.23329" lon="2.97557">
        <ele>837</ele>
        <time>2019-10-13T08:42:12.000Z</time>
      </trkpt>
      <trkpt lat="44.2333" lon="2.97558">
        <ele>837</ele>
        <time>2019-10-13T08:42:13.000Z</time>
      </trkpt>
      <trkpt lat="44.23332" lon="2.97559">
        <ele>837</ele>
        <time>2019-10-13T08:42:14.000Z</time>
      </trkpt>
      <trkpt lat="44.23333" lon="2.9756">
        <ele>837</ele>
        <time>2019-10-13T08:42:15.000Z</time>
      </trkpt>
      <trkpt lat="44.23334" lon="2.97561">
        <ele>837</ele>
        <time>2019-10-13T08:42:16.000Z</time>
      </trkpt>
      <trkpt lat="44.23336" lon="2.97563">
        <ele>836</ele>
        <time>2019-10-13T08:42:17.000Z</time>
      </trkpt>
      <trkpt lat="44.23337" lon="2.97565">
        <ele>836</ele>
        <time>2019-10-13T08:42:18.000Z</time>
      </trkpt>
      <trkpt lat="44.23338" lon="2.97566">
        <ele>836</ele>
        <time>2019-10-13T08:42:19.000Z</time>
      </trkpt>
      <trkpt lat="44.23339" lon="2.97568">
        <ele>836</ele>
        <time>2019-10-13T08:42:20.000Z</time>
      </trkpt>
      <trkpt lat="44.2334" lon="2.97569">
        <ele>836</ele>
        <time>2019-10-13T08:42:21.000Z</time>
      </trkpt>
      <trkpt lat="44.23341" lon="2.9757">
        <ele>836</ele>
        <time>2019-10-13T08:42:22.000Z</time>
      </trkpt>
      <trkpt lat="44.23343" lon="2.97572">
        <ele>836</ele>
        <time>2019-10-13T08:42:23.000Z</time>
      </trkpt>
      <trkpt lat="44.23344" lon="2.97573">
        <ele>835</ele>
        <time>2019-10-13T08:42:24.000Z</time>
      </trkpt>
      <trkpt lat="44.23345" lon="2.97574">
        <ele>835</ele>
        <time>2019-10-13T08:42:25.000Z</time>
      </trkpt>
      <trkpt lat="44.23346" lon="2.97576">
        <ele>835</ele>
        <time>2019-10-13T08:42:26.000Z</time>
      </trkpt>
      <trkpt lat="44.23347" lon="2.97577">
        <ele>835</ele>
        <time>2019-10-13T08:42:27.000Z</time>
      </trkpt>
      <trkpt lat="44.23347" lon="2.97579">
        <ele>835</ele>
        <time>2019-10-13T08:42:28.000Z</time>
      </trkpt>
      <trkpt lat="44.23347" lon="2.97581">
        <ele>835</ele>
        <time>2019-10-13T08:42:29.000Z</time>
      </trkpt>
      <trkpt lat="44.23347" lon="2.97583">
        <ele>835</ele>
        <time>2019-10-13T08:42:30.000Z</time>
      </trkpt>
      <trkpt lat="44.23347" lon="2.97585">
        <ele>835</ele>
        <time>2019-10-13T08:42:31.000Z</time>
      </trkpt>
      <trkpt lat="44.23346" lon="2.97587">
        <ele>835</ele>
        <time>2019-10-13T08:42:32.000Z</time>
      </trkpt>
      <trkpt lat="44.23345" lon="2.97588">
        <ele>835</ele>
        <time>2019-10-13T08:42:33.000Z</time>
      </trkpt>
      <trkpt lat="44.23344" lon="2.97589">
        <ele>834</ele>
        <time>2019-10-13T08:42:34.000Z</time>
      </trkpt>
      <trkpt lat="44.23343" lon="2.9759">
        <ele>834</ele>
        <time>2019-10-13T08:42:35.000Z</time>
      </trkpt>
      <trkpt lat="44.23342" lon="2.97591">
        <ele>834</ele>
        <time>2019-10-13T08:42:36.000Z</time>
      </trkpt>
      <trkpt lat="44.23341" lon="2.97592">
        <ele>834</ele>
        <time>2019-10-13T08:42:37.000Z</time>
      </trkpt>
      <trkpt lat="44.2334" lon="2.97593">
        <ele>834</ele>
        <time>2019-10-13T08:42:38.000Z</time>
      </trkpt>
      <trkpt lat="44.23338" lon="2.97594">
        <ele>834</ele>
        <time>2019-10-13T08:42:39.000Z</time>
      </trkpt>
      <trkpt lat="44.23337" lon="2.97596">
        <ele>834</ele>
        <time>2019-10-13T08:42:40.000Z</time>
      </trkpt>
      <trkpt lat="44.23336" lon="2.97597">
        <ele>834</ele>
        <time>2019-10-13T08:42:41.000Z</time>
      </trkpt>
      <trkpt lat="44.23335" lon="2.97599">
        <ele>834</ele>
        <time>2019-10-13T08:42:42.000Z</time>
      </trkpt>
      <trkpt lat="44.23333" lon="2.976">
        <ele>834</ele>
        <time>2019-10-13T08:42:43.000Z</time>
      </trkpt>
      <trkpt lat="44.23332" lon="2.97601">
        <ele>834</ele>
        <time>2019-10-13T08:42:44.000Z</time>
      </trkpt>
      <trkpt lat="44.23331" lon="2.97603">
        <ele>834</ele>
        <time>2019-10-13T08:42:45.000Z</time>
      </trkpt>
      <trkpt lat="44.2333" lon="2.97604">
        <ele>833</ele>
        <time>2019-10-13T08:42:46.000Z</time>
      </trkpt>
      <trkpt lat="44.23329" lon="2.97605">
        <ele>833</ele>
        <time>2019-10-13T08:42:47.000Z</time>
      </trkpt>
      <trkpt lat="44.23328" lon="2.97607">
        <ele>833</ele>
        <time>2019-10-13T08:42:48.000Z</time>
      </trkpt>
      <trkpt lat="44.23327" lon="2.97607">
        <ele>833</ele>
        <time>2019-10-13T08:42:49.000Z</time>
      </trkpt>
      <trkpt lat="44.23326" lon="2.97608">
        <ele>834</ele>
        <time>2019-10-13T08:42:50.000Z</time>
      </trkpt>
      <trkpt lat="44.23327" lon="2.97608">
        <ele>834</ele>
        <time>2019-10-13T08:42:51.000Z</time>
      </trkpt>
      <trkpt lat="44.23327" lon="2.97607">
        <ele>834</ele>
        <time>2019-10-13T08:42:52.000Z</time>
      </trkpt>
      <trkpt lat="44.23327" lon="2.97607">
        <ele>834</ele>
        <time>2019-10-13T08:42:53.000Z</time>
      </trkpt>
      <trkpt lat="44.23327" lon="2.97608">
        <ele>834</ele>
        <time>2019-10-13T08:42:54.000Z</time>
      </trkpt>
      <trkpt lat="44.23326" lon="2.97608">
        <ele>834</ele>
        <time>2019-10-13T08:42:55.000Z</time>
      </trkpt>
      <trkpt lat="44.23325" lon="2.97609">
        <ele>834</ele>
        <time>2019-10-13T08:42:56.000Z</time>
      </trkpt>
      <trkpt lat="44.23324" lon="2.9761">
        <ele>834</ele>
        <time>2019-10-13T08:42:57.000Z</time>
      </trkpt>
      <trkpt lat="44.23323" lon="2.97612">
        <ele>834</ele>
        <time>2019-10-13T08:42:58.000Z</time>
      </trkpt>
      <trkpt lat="44.23322" lon="2.97613">
        <ele>834</ele>
        <time>2019-10-13T08:42:59.000Z</time>
      </trkpt>
      <trkpt lat="44.23321" lon="2.97615">
        <ele>834</ele>
        <time>2019-10-13T08:43:00.000Z</time>
      </trkpt>
      <trkpt lat="44.2332" lon="2.97616">
        <ele>834</ele>
        <time>2019-10-13T08:43:01.000Z</time>
      </trkpt>
      <trkpt lat="44.23319" lon="2.97617">
        <ele>834</ele>
        <time>2019-10-13T08:43:02.000Z</time>
      </trkpt>
      <trkpt lat="44.23317" lon="2.97618">
        <ele>833</ele>
        <time>2019-10-13T08:43:03.000Z</time>
      </trkpt>
      <trkpt lat="44.23316" lon="2.97619">
        <ele>833</ele>
        <time>2019-10-13T08:43:04.000Z</time>
      </trkpt>
      <trkpt lat="44.23315" lon="2.97621">
        <ele>833</ele>
        <time>2019-10-13T08:43:05.000Z</time>
      </trkpt>
      <trkpt lat="44.23313" lon="2.97622">
        <ele>833</ele>
        <time>2019-10-13T08:43:06.000Z</time>
      </trkpt>
      <trkpt lat="44.23312" lon="2.97623">
        <ele>833</ele>
        <time>2019-10-13T08:43:07.000Z</time>
      </trkpt>
      <trkpt lat="44.2331" lon="2.97625">
        <ele>833</ele>
        <time>2019-10-13T08:43:08.000Z</time>
      </trkpt>
      <trkpt lat="44.23309" lon="2.97626">
        <ele>833</ele>
        <time>2019-10-13T08:43:09.000Z</time>
      </trkpt>
      <trkpt lat="44.23308" lon="2.97627">
        <ele>833</ele>
        <time>2019-10-13T08:43:10.000Z</time>
      </trkpt>
      <trkpt lat="44.23306" lon="2.97628">
        <ele>833</ele>
        <time>2019-10-13T08:43:11.000Z</time>
      </trkpt>
      <trkpt lat="44.23305" lon="2.9763">
        <ele>833</ele>
        <time>2019-10-13T08:43:12.000Z</time>
      </trkpt>
      <trkpt lat="44.23303" lon="2.97631">
        <ele>833</ele>
        <time>2019-10-13T08:43:13.000Z</time>
      </trkpt>
      <trkpt lat="44.23302" lon="2.97632">
        <ele>833</ele>
        <time>2019-10-13T08:43:14.000Z</time>
      </trkpt>
      <trkpt lat="44.23301" lon="2.97634">
        <ele>833</ele>
        <time>2019-10-13T08:43:15.000Z</time>
      </trkpt>
      <trkpt lat="44.233" lon="2.97636">
        <ele>833</ele>
        <time>2019-10-13T08:43:16.000Z</time>
      </trkpt>
      <trkpt lat="44.23299" lon="2.97637">
        <ele>833</ele>
        <time>2019-10-13T08:43:17.000Z</time>
      </trkpt>
      <trkpt lat="44.23298" lon="2.97639">
        <ele>833</ele>
        <time>2019-10-13T08:43:18.000Z</time>
      </trkpt>
      <trkpt lat="44.23297" lon="2.97641">
        <ele>833</ele>
        <time>2019-10-13T08:43:19.000Z</time>
      </trkpt>
      <trkpt lat="44.23296" lon="2.97643">
        <ele>833</ele>
        <time>2019-10-13T08:43:20.000Z</time>
      </trkpt>
      <trkpt lat="44.23295" lon="2.97645">
        <ele>833</ele>
        <time>2019-10-13T08:43:21.000Z</time>
      </trkpt>
      <trkpt lat="44.23295" lon="2.97647">
        <ele>833</ele>
        <time>2019-10-13T08:43:22.000Z</time>
      </trkpt>
      <trkpt lat="44.23294" lon="2.97649">
        <ele>833</ele>
        <time>2019-10-13T08:43:23.000Z</time>
      </trkpt>
      <trkpt lat="44.23294" lon="2.97651">
        <ele>833</ele>
        <time>2019-10-13T08:43:24.000Z</time>
      </trkpt>
      <trkpt lat="44.23294" lon="2.97653">
        <ele>833</ele>
        <time>2019-10-13T08:43:25.000Z</time>
      </trkpt>
      <trkpt lat="44.23293" lon="2.97655">
        <ele>833</ele>
        <time>2019-10-13T08:43:26.000Z</time>
      </trkpt>
      <trkpt lat="44.23293" lon="2.97657">
        <ele>833</ele>
        <time>2019-10-13T08:43:27.000Z</time>
      </trkpt>
      <trkpt lat="44.23293" lon="2.97659">
        <ele>833</ele>
        <time>2019-10-13T08:43:28.000Z</time>
      </trkpt>
      <trkpt lat="44.23293" lon="2.97661">
        <ele>833</ele>
        <time>2019-10-13T08:43:29.000Z</time>
      </trkpt>
      <trkpt lat="44.23293" lon="2.97664">
        <ele>833</ele>
        <time>2019-10-13T08:43:30.000Z</time>
      </trkpt>
      <trkpt lat="44.23293" lon="2.97664">
        <ele>833</ele>
        <time>2019-10-13T08:43:31.000Z</time>
      </trkpt>
      <trkpt lat="44.23293" lon="2.97665">
        <ele>833</ele>
        <time>2019-10-13T08:43:32.000Z</time>
      </trkpt>
      <trkpt lat="44.23293" lon="2.97667">
        <ele>832</ele>
        <time>2019-10-13T08:43:33.000Z</time>
      </trkpt>
      <trkpt lat="44.23294" lon="2.97669">
        <ele>832</ele>
        <time>2019-10-13T08:43:34.000Z</time>
      </trkpt>
      <trkpt lat="44.23294" lon="2.97671">
        <ele>832</ele>
        <time>2019-10-13T08:43:35.000Z</time>
      </trkpt>
      <trkpt lat="44.23294" lon="2.97672">
        <ele>832</ele>
        <time>2019-10-13T08:43:36.000Z</time>
      </trkpt>
      <trkpt lat="44.23295" lon="2.97674">
        <ele>832</ele>
        <time>2019-10-13T08:43:37.000Z</time>
      </trkpt>
      <trkpt lat="44.23295" lon="2.97677">
        <ele>832</ele>
        <time>2019-10-13T08:43:38.000Z</time>
      </trkpt>
      <trkpt lat="44.23295" lon="2.97679">
        <ele>831</ele>
        <time>2019-10-13T08:43:39.000Z</time>
      </trkpt>
      <trkpt lat="44.23295" lon="2.97681">
        <ele>831</ele>
        <time>2019-10-13T08:43:40.000Z</time>
      </trkpt>
      <trkpt lat="44.23295" lon="2.97683">
        <ele>831</ele>
        <time>2019-10-13T08:43:41.000Z</time>
      </trkpt>
      <trkpt lat="44.23294" lon="2.97686">
        <ele>831</ele>
        <time>2019-10-13T08:43:42.000Z</time>
      </trkpt>
      <trkpt lat="44.23294" lon="2.97688">
        <ele>831</ele>
        <time>2019-10-13T08:43:43.000Z</time>
      </trkpt>
      <trkpt lat="44.23294" lon="2.9769">
        <ele>831</ele>
        <time>2019-10-13T08:43:44.000Z</time>
      </trkpt>
      <trkpt lat="44.23294" lon="2.97693">
        <ele>831</ele>
        <time>2019-10-13T08:43:45.000Z</time>
      </trkpt>
      <trkpt lat="44.23294" lon="2.97695">
        <ele>831</ele>
        <time>2019-10-13T08:43:46.000Z</time>
      </trkpt>
      <trkpt lat="44.23294" lon="2.97697">
        <ele>830</ele>
        <time>2019-10-13T08:43:47.000Z</time>
      </trkpt>
      <trkpt lat="44.23293" lon="2.97699">
        <ele>830</ele>
        <time>2019-10-13T08:43:48.000Z</time>
      </trkpt>
      <trkpt lat="44.23293" lon="2.97702">
        <ele>830</ele>
        <time>2019-10-13T08:43:49.000Z</time>
      </trkpt>
      <trkpt lat="44.23293" lon="2.97704">
        <ele>830</ele>
        <time>2019-10-13T08:43:50.000Z</time>
      </trkpt>
      <trkpt lat="44.23293" lon="2.97706">
        <ele>830</ele>
        <time>2019-10-13T08:43:51.000Z</time>
      </trkpt>
      <trkpt lat="44.23292" lon="2.97708">
        <ele>830</ele>
        <time>2019-10-13T08:43:52.000Z</time>
      </trkpt>
      <trkpt lat="44.23292" lon="2.9771">
        <ele>829</ele>
        <time>2019-10-13T08:43:53.000Z</time>
      </trkpt>
      <trkpt lat="44.23291" lon="2.97712">
        <ele>829</ele>
        <time>2019-10-13T08:43:54.000Z</time>
      </trkpt>
      <trkpt lat="44.23291" lon="2.97715">
        <ele>829</ele>
        <time>2019-10-13T08:43:55.000Z</time>
      </trkpt>
      <trkpt lat="44.2329" lon="2.97717">
        <ele>829</ele>
        <time>2019-10-13T08:43:56.000Z</time>
      </trkpt>
      <trkpt lat="44.2329" lon="2.97719">
        <ele>829</ele>
        <time>2019-10-13T08:43:57.000Z</time>
      </trkpt>
      <trkpt lat="44.23289" lon="2.97721">
        <ele>829</ele>
        <time>2019-10-13T08:43:58.000Z</time>
      </trkpt>
      <trkpt lat="44.23289" lon="2.97723">
        <ele>829</ele>
        <time>2019-10-13T08:43:59.000Z</time>
      </trkpt>
      <trkpt lat="44.23289" lon="2.97726">
        <ele>828</ele>
        <time>2019-10-13T08:44:00.000Z</time>
      </trkpt>
      <trkpt lat="44.23289" lon="2.97728">
        <ele>828</ele>
        <time>2019-10-13T08:44:01.000Z</time>
      </trkpt>
      <trkpt lat="44.23289" lon="2.9773">
        <ele>828</ele>
        <time>2019-10-13T08:44:02.000Z</time>
      </trkpt>
      <trkpt lat="44.23289" lon="2.97732">
        <ele>828</ele>
        <time>2019-10-13T08:44:03.000Z</time>
      </trkpt>
      <trkpt lat="44.23289" lon="2.97734">
        <ele>828</ele>
        <time>2019-10-13T08:44:04.000Z</time>
      </trkpt>
      <trkpt lat="44.23288" lon="2.97737">
        <ele>828</ele>
        <time>2019-10-13T08:44:05.000Z</time>
      </trkpt>
      <trkpt lat="44.23288" lon="2.97739">
        <ele>828</ele>
        <time>2019-10-13T08:44:06.000Z</time>
      </trkpt>
      <trkpt lat="44.23288" lon="2.97742">
        <ele>828</ele>
        <time>2019-10-13T08:44:07.000Z</time>
      </trkpt>
      <trkpt lat="44.23288" lon="2.97744">
        <ele>828</ele>
        <time>2019-10-13T08:44:08.000Z</time>
      </trkpt>
      <trkpt lat="44.23288" lon="2.97746">
        <ele>828</ele>
        <time>2019-10-13T08:44:09.000Z</time>
      </trkpt>
      <trkpt lat="44.23288" lon="2.97748">
        <ele>827</ele>
        <time>2019-10-13T08:44:10.000Z</time>
      </trkpt>
      <trkpt lat="44.23288" lon="2.97751">
        <ele>827</ele>
        <time>2019-10-13T08:44:11.000Z</time>
      </trkpt>
      <trkpt lat="44.23288" lon="2.97753">
        <ele>827</ele>
        <time>2019-10-13T08:44:12.000Z</time>
      </trkpt>
      <trkpt lat="44.23287" lon="2.97755">
        <ele>827</ele>
        <time>2019-10-13T08:44:13.000Z</time>
      </trkpt>
      <trkpt lat="44.23287" lon="2.97758">
        <ele>827</ele>
        <time>2019-10-13T08:44:14.000Z</time>
      </trkpt>
      <trkpt lat="44.23287" lon="2.9776">
        <ele>827</ele>
        <time>2019-10-13T08:44:15.000Z</time>
      </trkpt>
      <trkpt lat="44.23287" lon="2.97762">
        <ele>827</ele>
        <time>2019-10-13T08:44:16.000Z</time>
      </trkpt>
      <trkpt lat="44.23287" lon="2.97765">
        <ele>826</ele>
        <time>2019-10-13T08:44:17.000Z</time>
      </trkpt>
      <trkpt lat="44.23287" lon="2.97767">
        <ele>826</ele>
        <time>2019-10-13T08:44:18.000Z</time>
      </trkpt>
      <trkpt lat="44.23287" lon="2.97769">
        <ele>826</ele>
        <time>2019-10-13T08:44:19.000Z</time>
      </trkpt>
      <trkpt lat="44.23288" lon="2.97771">
        <ele>826</ele>
        <time>2019-10-13T08:44:20.000Z</time>
      </trkpt>
      <trkpt lat="44.23288" lon="2.97773">
        <ele>826</ele>
        <time>2019-10-13T08:44:21.000Z</time>
      </trkpt>
      <trkpt lat="44.23288" lon="2.97776">
        <ele>826</ele>
        <time>2019-10-13T08:44:22.000Z</time>
      </trkpt>
      <trkpt lat="44.23289" lon="2.97778">
        <ele>826</ele>
        <time>2019-10-13T08:44:23.000Z</time>
      </trkpt>
      <trkpt lat="44.23289" lon="2.9778">
        <ele>825</ele>
        <time>2019-10-13T08:44:24.000Z</time>
      </trkpt>
      <trkpt lat="44.23289" lon="2.97782">
        <ele>825</ele>
        <time>2019-10-13T08:44:25.000Z</time>
      </trkpt>
      <trkpt lat="44.2329" lon="2.97784">
        <ele>825</ele>
        <time>2019-10-13T08:44:26.000Z</time>
      </trkpt>
      <trkpt lat="44.2329" lon="2.97786">
        <ele>825</ele>
        <time>2019-10-13T08:44:27.000Z</time>
      </trkpt>
      <trkpt lat="44.23291" lon="2.97788">
        <ele>825</ele>
        <time>2019-10-13T08:44:28.000Z</time>
      </trkpt>
      <trkpt lat="44.23292" lon="2.9779">
        <ele>824</ele>
        <time>2019-10-13T08:44:29.000Z</time>
      </trkpt>
      <trkpt lat="44.23292" lon="2.97792">
        <ele>824</ele>
        <time>2019-10-13T08:44:30.000Z</time>
      </trkpt>
      <trkpt lat="44.23293" lon="2.97794">
        <ele>824</ele>
        <time>2019-10-13T08:44:31.000Z</time>
      </trkpt>
      <trkpt lat="44.23293" lon="2.97796">
        <ele>824</ele>
        <time>2019-10-13T08:44:32.000Z</time>
      </trkpt>
      <trkpt lat="44.23294" lon="2.97798">
        <ele>824</ele>
        <time>2019-10-13T08:44:33.000Z</time>
      </trkpt>
      <trkpt lat="44.23294" lon="2.978">
        <ele>824</ele>
        <time>2019-10-13T08:44:34.000Z</time>
      </trkpt>
      <trkpt lat="44.23295" lon="2.97802">
        <ele>824</ele>
        <time>2019-10-13T08:44:35.000Z</time>
      </trkpt>
      <trkpt lat="44.23295" lon="2.97805">
        <ele>823</ele>
        <time>2019-10-13T08:44:36.000Z</time>
      </trkpt>
      <trkpt lat="44.23296" lon="2.97807">
        <ele>823</ele>
        <time>2019-10-13T08:44:37.000Z</time>
      </trkpt>
      <trkpt lat="44.23296" lon="2.97809">
        <ele>823</ele>
        <time>2019-10-13T08:44:38.000Z</time>
      </trkpt>
      <trkpt lat="44.23296" lon="2.97811">
        <ele>823</ele>
        <time>2019-10-13T08:44:39.000Z</time>
      </trkpt>
      <trkpt lat="44.23296" lon="2.97813">
        <ele>823</ele>
        <time>2019-10-13T08:44:40.000Z</time>
      </trkpt>
      <trkpt lat="44.23296" lon="2.97815">
        <ele>823</ele>
        <time>2019-10-13T08:44:41.000Z</time>
      </trkpt>
      <trkpt lat="44.23296" lon="2.97817">
        <ele>822</ele>
        <time>2019-10-13T08:44:42.000Z</time>
      </trkpt>
      <trkpt lat="44.23296" lon="2.97819">
        <ele>822</ele>
        <time>2019-10-13T08:44:43.000Z</time>
      </trkpt>
      <trkpt lat="44.23296" lon="2.97821">
        <ele>822</ele>
        <time>2019-10-13T08:44:44.000Z</time>
      </trkpt>
      <trkpt lat="44.23296" lon="2.97823">
        <ele>822</ele>
        <time>2019-10-13T08:44:45.000Z</time>
      </trkpt>
      <trkpt lat="44.23296" lon="2.97825">
        <ele>822</ele>
        <time>2019-10-13T08:44:46.000Z</time>
      </trkpt>
      <trkpt lat="44.23296" lon="2.97827">
        <ele>822</ele>
        <time>2019-10-13T08:44:47.000Z</time>
      </trkpt>
      <trkpt lat="44.23296" lon="2.97829">
        <ele>821</ele>
        <time>2019-10-13T08:44:48.000Z</time>
      </trkpt>
      <trkpt lat="44.23297" lon="2.9783">
        <ele>821</ele>
        <time>2019-10-13T08:44:49.000Z</time>
      </trkpt>
      <trkpt lat="44.23297" lon="2.97832">
        <ele>821</ele>
        <time>2019-10-13T08:44:50.000Z</time>
      </trkpt>
      <trkpt lat="44.23297" lon="2.97834">
        <ele>821</ele>
        <time>2019-10-13T08:44:51.000Z</time>
      </trkpt>
      <trkpt lat="44.23297" lon="2.97836">
        <ele>820</ele>
        <time>2019-10-13T08:44:52.000Z</time>
      </trkpt>
      <trkpt lat="44.23297" lon="2.97838">
        <ele>820</ele>
        <time>2019-10-13T08:44:53.000Z</time>
      </trkpt>
      <trkpt lat="44.23298" lon="2.9784">
        <ele>820</ele>
        <time>2019-10-13T08:44:54.000Z</time>
      </trkpt>
      <trkpt lat="44.23299" lon="2.97842">
        <ele>820</ele>
        <time>2019-10-13T08:44:55.000Z</time>
      </trkpt>
      <trkpt lat="44.23299" lon="2.97844">
        <ele>819</ele>
        <time>2019-10-13T08:44:56.000Z</time>
      </trkpt>
      <trkpt lat="44.233" lon="2.97846">
        <ele>819</ele>
        <time>2019-10-13T08:44:57.000Z</time>
      </trkpt>
      <trkpt lat="44.233" lon="2.97848">
        <ele>819</ele>
        <time>2019-10-13T08:44:58.000Z</time>
      </trkpt>
      <trkpt lat="44.233" lon="2.9785">
        <ele>819</ele>
        <time>2019-10-13T08:44:59.000Z</time>
      </trkpt>
      <trkpt lat="44.233" lon="2.97852">
        <ele>819</ele>
        <time>2019-10-13T08:45:00.000Z</time>
      </trkpt>
      <trkpt lat="44.233" lon="2.97854">
        <ele>819</ele>
        <time>2019-10-13T08:45:01.000Z</time>
      </trkpt>
      <trkpt lat="44.233" lon="2.97855">
        <ele>818</ele>
        <time>2019-10-13T08:45:02.000Z</time>
      </trkpt>
      <trkpt lat="44.23301" lon="2.97857">
        <ele>818</ele>
        <time>2019-10-13T08:45:03.000Z</time>
      </trkpt>
      <trkpt lat="44.23301" lon="2.97859">
        <ele>818</ele>
        <time>2019-10-13T08:45:04.000Z</time>
      </trkpt>
      <trkpt lat="44.23301" lon="2.97861">
        <ele>818</ele>
        <time>2019-10-13T08:45:05.000Z</time>
      </trkpt>
      <trkpt lat="44.23301" lon="2.97863">
        <ele>818</ele>
        <time>2019-10-13T08:45:06.000Z</time>
      </trkpt>
      <trkpt lat="44.233" lon="2.97865">
        <ele>818</ele>
        <time>2019-10-13T08:45:07.000Z</time>
      </trkpt>
      <trkpt lat="44.233" lon="2.97867">
        <ele>817</ele>
        <time>2019-10-13T08:45:08.000Z</time>
      </trkpt>
      <trkpt lat="44.233" lon="2.97869">
        <ele>817</ele>
        <time>2019-10-13T08:45:09.000Z</time>
      </trkpt>
      <trkpt lat="44.233" lon="2.97871">
        <ele>817</ele>
        <time>2019-10-13T08:45:10.000Z</time>
      </trkpt>
      <trkpt lat="44.23299" lon="2.97874">
        <ele>816</ele>
        <time>2019-10-13T08:45:11.000Z</time>
      </trkpt>
      <trkpt lat="44.23299" lon="2.97876">
        <ele>816</ele>
        <time>2019-10-13T08:45:12.000Z</time>
      </trkpt>
      <trkpt lat="44.23298" lon="2.97878">
        <ele>816</ele>
        <time>2019-10-13T08:45:13.000Z</time>
      </trkpt>
      <trkpt lat="44.23298" lon="2.9788">
        <ele>816</ele>
        <time>2019-10-13T08:45:14.000Z</time>
      </trkpt>
      <trkpt lat="44.23298" lon="2.97882">
        <ele>816</ele>
        <time>2019-10-13T08:45:15.000Z</time>
      </trkpt>
      <trkpt lat="44.23297" lon="2.97884">
        <ele>815</ele>
        <time>2019-10-13T08:45:16.000Z</time>
      </trkpt>
      <trkpt lat="44.23297" lon="2.97887">
        <ele>815</ele>
        <time>2019-10-13T08:45:17.000Z</time>
      </trkpt>
      <trkpt lat="44.23297" lon="2.97889">
        <ele>815</ele>
        <time>2019-10-13T08:45:18.000Z</time>
      </trkpt>
      <trkpt lat="44.23297" lon="2.97891">
        <ele>815</ele>
        <time>2019-10-13T08:45:19.000Z</time>
      </trkpt>
      <trkpt lat="44.23297" lon="2.97893">
        <ele>815</ele>
        <time>2019-10-13T08:45:20.000Z</time>
      </trkpt>
      <trkpt lat="44.23297" lon="2.97895">
        <ele>814</ele>
        <time>2019-10-13T08:45:21.000Z</time>
      </trkpt>
      <trkpt lat="44.23296" lon="2.97897">
        <ele>814</ele>
        <time>2019-10-13T08:45:22.000Z</time>
      </trkpt>
      <trkpt lat="44.23296" lon="2.979">
        <ele>814</ele>
        <time>2019-10-13T08:45:23.000Z</time>
      </trkpt>
      <trkpt lat="44.23296" lon="2.97901">
        <ele>814</ele>
        <time>2019-10-13T08:45:24.000Z</time>
      </trkpt>
      <trkpt lat="44.23296" lon="2.97903">
        <ele>814</ele>
        <time>2019-10-13T08:45:25.000Z</time>
      </trkpt>
      <trkpt lat="44.23296" lon="2.97906">
        <ele>813</ele>
        <time>2019-10-13T08:45:26.000Z</time>
      </trkpt>
      <trkpt lat="44.23296" lon="2.97908">
        <ele>813</ele>
        <time>2019-10-13T08:45:27.000Z</time>
      </trkpt>
      <trkpt lat="44.23296" lon="2.9791">
        <ele>813</ele>
        <time>2019-10-13T08:45:28.000Z</time>
      </trkpt>
      <trkpt lat="44.23296" lon="2.97912">
        <ele>813</ele>
        <time>2019-10-13T08:45:29.000Z</time>
      </trkpt>
      <trkpt lat="44.23295" lon="2.97913">
        <ele>813</ele>
        <time>2019-10-13T08:45:30.000Z</time>
      </trkpt>
      <trkpt lat="44.23295" lon="2.97915">
        <ele>812</ele>
        <time>2019-10-13T08:45:31.000Z</time>
      </trkpt>
      <trkpt lat="44.23295" lon="2.97917">
        <ele>812</ele>
        <time>2019-10-13T08:45:32.000Z</time>
      </trkpt>
      <trkpt lat="44.23295" lon="2.97919">
        <ele>812</ele>
        <time>2019-10-13T08:45:33.000Z</time>
      </trkpt>
      <trkpt lat="44.23294" lon="2.97921">
        <ele>812</ele>
        <time>2019-10-13T08:45:34.000Z</time>
      </trkpt>
      <trkpt lat="44.23293" lon="2.97923">
        <ele>811</ele>
        <time>2019-10-13T08:45:35.000Z</time>
      </trkpt>
      <trkpt lat="44.23293" lon="2.97924">
        <ele>811</ele>
        <time>2019-10-13T08:45:36.000Z</time>
      </trkpt>
      <trkpt lat="44.23292" lon="2.97926">
        <ele>811</ele>
        <time>2019-10-13T08:45:37.000Z</time>
      </trkpt>
      <trkpt lat="44.23291" lon="2.97928">
        <ele>811</ele>
        <time>2019-10-13T08:45:38.000Z</time>
      </trkpt>
      <trkpt lat="44.2329" lon="2.97929">
        <ele>811</ele>
        <time>2019-10-13T08:45:39.000Z</time>
      </trkpt>
      <trkpt lat="44.23289" lon="2.97931">
        <ele>810</ele>
        <time>2019-10-13T08:45:40.000Z</time>
      </trkpt>
      <trkpt lat="44.23287" lon="2.97933">
        <ele>810</ele>
        <time>2019-10-13T08:45:41.000Z</time>
      </trkpt>
      <trkpt lat="44.23286" lon="2.97934">
        <ele>810</ele>
        <time>2019-10-13T08:45:42.000Z</time>
      </trkpt>
      <trkpt lat="44.23285" lon="2.97936">
        <ele>810</ele>
        <time>2019-10-13T08:45:43.000Z</time>
      </trkpt>
      <trkpt lat="44.23284" lon="2.97937">
        <ele>810</ele>
        <time>2019-10-13T08:45:44.000Z</time>
      </trkpt>
      <trkpt lat="44.23283" lon="2.97938">
        <ele>810</ele>
        <time>2019-10-13T08:45:45.000Z</time>
      </trkpt>
      <trkpt lat="44.23281" lon="2.97939">
        <ele>810</ele>
        <time>2019-10-13T08:45:46.000Z</time>
      </trkpt>
      <trkpt lat="44.2328" lon="2.97941">
        <ele>809</ele>
        <time>2019-10-13T08:45:47.000Z</time>
      </trkpt>
      <trkpt lat="44.23278" lon="2.97942">
        <ele>809</ele>
        <time>2019-10-13T08:45:48.000Z</time>
      </trkpt>
      <trkpt lat="44.23277" lon="2.97943">
        <ele>809</ele>
        <time>2019-10-13T08:45:49.000Z</time>
      </trkpt>
      <trkpt lat="44.23275" lon="2.97944">
        <ele>809</ele>
        <time>2019-10-13T08:45:50.000Z</time>
      </trkpt>
      <trkpt lat="44.23274" lon="2.97946">
        <ele>809</ele>
        <time>2019-10-13T08:45:51.000Z</time>
      </trkpt>
      <trkpt lat="44.23273" lon="2.97947">
        <ele>809</ele>
        <time>2019-10-13T08:45:52.000Z</time>
      </trkpt>
      <trkpt lat="44.23272" lon="2.97948">
        <ele>809</ele>
        <time>2019-10-13T08:45:53.000Z</time>
      </trkpt>
      <trkpt lat="44.23271" lon="2.9795">
        <ele>809</ele>
        <time>2019-10-13T08:45:54.000Z</time>
      </trkpt>
      <trkpt lat="44.2327" lon="2.97951">
        <ele>809</ele>
        <time>2019-10-13T08:45:55.000Z</time>
      </trkpt>
      <trkpt lat="44.23268" lon="2.97952">
        <ele>809</ele>
        <time>2019-10-13T08:45:56.000Z</time>
      </trkpt>
      <trkpt lat="44.23267" lon="2.97953">
        <ele>809</ele>
        <time>2019-10-13T08:45:57.000Z</time>
      </trkpt>
      <trkpt lat="44.23266" lon="2.97954">
        <ele>809</ele>
        <time>2019-10-13T08:45:58.000Z</time>
      </trkpt>
      <trkpt lat="44.23264" lon="2.97954">
        <ele>808</ele>
        <time>2019-10-13T08:45:59.000Z</time>
      </trkpt>
      <trkpt lat="44.23263" lon="2.97955">
        <ele>808</ele>
        <time>2019-10-13T08:46:00.000Z</time>
      </trkpt>
      <trkpt lat="44.23262" lon="2.97956">
        <ele>808</ele>
        <time>2019-10-13T08:46:01.000Z</time>
      </trkpt>
      <trkpt lat="44.23261" lon="2.97957">
        <ele>808</ele>
        <time>2019-10-13T08:46:02.000Z</time>
      </trkpt>
      <trkpt lat="44.2326" lon="2.97958">
        <ele>808</ele>
        <time>2019-10-13T08:46:03.000Z</time>
      </trkpt>
      <trkpt lat="44.23258" lon="2.97959">
        <ele>808</ele>
        <time>2019-10-13T08:46:04.000Z</time>
      </trkpt>
      <trkpt lat="44.23257" lon="2.9796">
        <ele>807</ele>
        <time>2019-10-13T08:46:05.000Z</time>
      </trkpt>
      <trkpt lat="44.23255" lon="2.97961">
        <ele>807</ele>
        <time>2019-10-13T08:46:06.000Z</time>
      </trkpt>
      <trkpt lat="44.23254" lon="2.97962">
        <ele>807</ele>
        <time>2019-10-13T08:46:07.000Z</time>
      </trkpt>
      <trkpt lat="44.23252" lon="2.97963">
        <ele>807</ele>
        <time>2019-10-13T08:46:08.000Z</time>
      </trkpt>
      <trkpt lat="44.23251" lon="2.97964">
        <ele>807</ele>
        <time>2019-10-13T08:46:09.000Z</time>
      </trkpt>
      <trkpt lat="44.23249" lon="2.97965">
        <ele>807</ele>
        <time>2019-10-13T08:46:10.000Z</time>
      </trkpt>
      <trkpt lat="44.23248" lon="2.97966">
        <ele>806</ele>
        <time>2019-10-13T08:46:11.000Z</time>
      </trkpt>
      <trkpt lat="44.23246" lon="2.97967">
        <ele>806</ele>
        <time>2019-10-13T08:46:12.000Z</time>
      </trkpt>
      <trkpt lat="44.23245" lon="2.97967">
        <ele>806</ele>
        <time>2019-10-13T08:46:13.000Z</time>
      </trkpt>
      <trkpt lat="44.23243" lon="2.97968">
        <ele>806</ele>
        <time>2019-10-13T08:46:14.000Z</time>
      </trkpt>
      <trkpt lat="44.23242" lon="2.97968">
        <ele>806</ele>
        <time>2019-10-13T08:46:15.000Z</time>
      </trkpt>
      <trkpt lat="44.23241" lon="2.97968">
        <ele>805</ele>
        <time>2019-10-13T08:46:16.000Z</time>
      </trkpt>
      <trkpt lat="44.23239" lon="2.97969">
        <ele>805</ele>
        <time>2019-10-13T08:46:17.000Z</time>
      </trkpt>
      <trkpt lat="44.23238" lon="2.97969">
        <ele>805</ele>
        <time>2019-10-13T08:46:18.000Z</time>
      </trkpt>
      <trkpt lat="44.23237" lon="2.97969">
        <ele>805</ele>
        <time>2019-10-13T08:46:19.000Z</time>
      </trkpt>
      <trkpt lat="44.23236" lon="2.97969">
        <ele>805</ele>
        <time>2019-10-13T08:46:20.000Z</time>
      </trkpt>
      <trkpt lat="44.23234" lon="2.9797">
        <ele>804</ele>
        <time>2019-10-13T08:46:21.000Z</time>
      </trkpt>
      <trkpt lat="44.23232" lon="2.9797">
        <ele>804</ele>
        <time>2019-10-13T08:46:22.000Z</time>
      </trkpt>
      <trkpt lat="44.23231" lon="2.9797">
        <ele>804</ele>
        <time>2019-10-13T08:46:23.000Z</time>
      </trkpt>
      <trkpt lat="44.23229" lon="2.9797">
        <ele>804</ele>
        <time>2019-10-13T08:46:24.000Z</time>
      </trkpt>
      <trkpt lat="44.23228" lon="2.97971">
        <ele>804</ele>
        <time>2019-10-13T08:46:25.000Z</time>
      </trkpt>
      <trkpt lat="44.23226" lon="2.97971">
        <ele>803</ele>
        <time>2019-10-13T08:46:26.000Z</time>
      </trkpt>
      <trkpt lat="44.23225" lon="2.97971">
        <ele>803</ele>
        <time>2019-10-13T08:46:27.000Z</time>
      </trkpt>
      <trkpt lat="44.23223" lon="2.97972">
        <ele>803</ele>
        <time>2019-10-13T08:46:28.000Z</time>
      </trkpt>
      <trkpt lat="44.23222" lon="2.97973">
        <ele>803</ele>
        <time>2019-10-13T08:46:29.000Z</time>
      </trkpt>
      <trkpt lat="44.2322" lon="2.97974">
        <ele>803</ele>
        <time>2019-10-13T08:46:30.000Z</time>
      </trkpt>
      <trkpt lat="44.23219" lon="2.97974">
        <ele>802</ele>
        <time>2019-10-13T08:46:31.000Z</time>
      </trkpt>
      <trkpt lat="44.23218" lon="2.97975">
        <ele>802</ele>
        <time>2019-10-13T08:46:32.000Z</time>
      </trkpt>
      <trkpt lat="44.23216" lon="2.97977">
        <ele>802</ele>
        <time>2019-10-13T08:46:33.000Z</time>
      </trkpt>
      <trkpt lat="44.23215" lon="2.97978">
        <ele>802</ele>
        <time>2019-10-13T08:46:34.000Z</time>
      </trkpt>
      <trkpt lat="44.23214" lon="2.97979">
        <ele>802</ele>
        <time>2019-10-13T08:46:35.000Z</time>
      </trkpt>
      <trkpt lat="44.23213" lon="2.97981">
        <ele>801</ele>
        <time>2019-10-13T08:46:36.000Z</time>
      </trkpt>
      <trkpt lat="44.23212" lon="2.97982">
        <ele>801</ele>
        <time>2019-10-13T08:46:37.000Z</time>
      </trkpt>
      <trkpt lat="44.23211" lon="2.97984">
        <ele>801</ele>
        <time>2019-10-13T08:46:38.000Z</time>
      </trkpt>
      <trkpt lat="44.2321" lon="2.97986">
        <ele>801</ele>
        <time>2019-10-13T08:46:39.000Z</time>
      </trkpt>
      <trkpt lat="44.23209" lon="2.97988">
        <ele>800</ele>
        <time>2019-10-13T08:46:40.000Z</time>
      </trkpt>
      <trkpt lat="44.23207" lon="2.97989">
        <ele>800</ele>
        <time>2019-10-13T08:46:41.000Z</time>
      </trkpt>
      <trkpt lat="44.23206" lon="2.9799">
        <ele>799</ele>
        <time>2019-10-13T08:46:42.000Z</time>
      </trkpt>
      <trkpt lat="44.23204" lon="2.97992">
        <ele>799</ele>
        <time>2019-10-13T08:46:43.000Z</time>
      </trkpt>
      <trkpt lat="44.23203" lon="2.97993">
        <ele>799</ele>
        <time>2019-10-13T08:46:44.000Z</time>
      </trkpt>
      <trkpt lat="44.23201" lon="2.97994">
        <ele>798</ele>
        <time>2019-10-13T08:46:45.000Z</time>
      </trkpt>
      <trkpt lat="44.232" lon="2.97995">
        <ele>798</ele>
        <time>2019-10-13T08:46:46.000Z</time>
      </trkpt>
      <trkpt lat="44.23199" lon="2.97996">
        <ele>798</ele>
        <time>2019-10-13T08:46:47.000Z</time>
      </trkpt>
      <trkpt lat="44.23197" lon="2.97997">
        <ele>798</ele>
        <time>2019-10-13T08:46:48.000Z</time>
      </trkpt>
      <trkpt lat="44.23196" lon="2.97998">
        <ele>798</ele>
        <time>2019-10-13T08:46:49.000Z</time>
      </trkpt>
      <trkpt lat="44.23194" lon="2.97998">
        <ele>797</ele>
        <time>2019-10-13T08:46:50.000Z</time>
      </trkpt>
      <trkpt lat="44.23192" lon="2.97998">
        <ele>797</ele>
        <time>2019-10-13T08:46:51.000Z</time>
      </trkpt>
      <trkpt lat="44.2319" lon="2.97998">
        <ele>797</ele>
        <time>2019-10-13T08:46:52.000Z</time>
      </trkpt>
      <trkpt lat="44.23188" lon="2.97999">
        <ele>797</ele>
        <time>2019-10-13T08:46:53.000Z</time>
      </trkpt>
      <trkpt lat="44.23187" lon="2.97999">
        <ele>797</ele>
        <time>2019-10-13T08:46:54.000Z</time>
      </trkpt>
      <trkpt lat="44.23185" lon="2.98">
        <ele>796</ele>
        <time>2019-10-13T08:46:55.000Z</time>
      </trkpt>
      <trkpt lat="44.23183" lon="2.98">
        <ele>796</ele>
        <time>2019-10-13T08:46:56.000Z</time>
      </trkpt>
      <trkpt lat="44.23181" lon="2.98001">
        <ele>796</ele>
        <time>2019-10-13T08:46:57.000Z</time>
      </trkpt>
      <trkpt lat="44.2318" lon="2.98001">
        <ele>796</ele>
        <time>2019-10-13T08:46:58.000Z</time>
      </trkpt>
      <trkpt lat="44.23178" lon="2.98002">
        <ele>795</ele>
        <time>2019-10-13T08:46:59.000Z</time>
      </trkpt>
      <trkpt lat="44.23177" lon="2.98002">
        <ele>795</ele>
        <time>2019-10-13T08:47:00.000Z</time>
      </trkpt>
      <trkpt lat="44.23175" lon="2.98002">
        <ele>795</ele>
        <time>2019-10-13T08:47:01.000Z</time>
      </trkpt>
      <trkpt lat="44.23173" lon="2.98003">
        <ele>795</ele>
        <time>2019-10-13T08:47:02.000Z</time>
      </trkpt>
      <trkpt lat="44.23172" lon="2.98003">
        <ele>794</ele>
        <time>2019-10-13T08:47:03.000Z</time>
      </trkpt>
      <trkpt lat="44.2317" lon="2.98003">
        <ele>794</ele>
        <time>2019-10-13T08:47:04.000Z</time>
      </trkpt>
      <trkpt lat="44.23169" lon="2.98003">
        <ele>794</ele>
        <time>2019-10-13T08:47:05.000Z</time>
      </trkpt>
      <trkpt lat="44.23167" lon="2.98003">
        <ele>793</ele>
        <time>2019-10-13T08:47:06.000Z</time>
      </trkpt>
      <trkpt lat="44.23166" lon="2.98003">
        <ele>793</ele>
        <time>2019-10-13T08:47:07.000Z</time>
      </trkpt>
      <trkpt lat="44.23164" lon="2.98003">
        <ele>793</ele>
        <time>2019-10-13T08:47:08.000Z</time>
      </trkpt>
      <trkpt lat="44.23163" lon="2.98003">
        <ele>792</ele>
        <time>2019-10-13T08:47:09.000Z</time>
      </trkpt>
      <trkpt lat="44.23161" lon="2.98003">
        <ele>792</ele>
        <time>2019-10-13T08:47:10.000Z</time>
      </trkpt>
      <trkpt lat="44.23159" lon="2.98002">
        <ele>792</ele>
        <time>2019-10-13T08:47:11.000Z</time>
      </trkpt>
      <trkpt lat="44.23158" lon="2.98002">
        <ele>792</ele>
        <time>2019-10-13T08:47:12.000Z</time>
      </trkpt>
      <trkpt lat="44.23156" lon="2.98001">
        <ele>792</ele>
        <time>2019-10-13T08:47:13.000Z</time>
      </trkpt>
      <trkpt lat="44.23155" lon="2.98">
        <ele>791</ele>
        <time>2019-10-13T08:47:14.000Z</time>
      </trkpt>
      <trkpt lat="44.23154" lon="2.97998">
        <ele>791</ele>
        <time>2019-10-13T08:47:15.000Z</time>
      </trkpt>
      <trkpt lat="44.23153" lon="2.97997">
        <ele>791</ele>
        <time>2019-10-13T08:47:16.000Z</time>
      </trkpt>
      <trkpt lat="44.23152" lon="2.97996">
        <ele>791</ele>
        <time>2019-10-13T08:47:17.000Z</time>
      </trkpt>
      <trkpt lat="44.23151" lon="2.97994">
        <ele>791</ele>
        <time>2019-10-13T08:47:18.000Z</time>
      </trkpt>
      <trkpt lat="44.2315" lon="2.97993">
        <ele>791</ele>
        <time>2019-10-13T08:47:19.000Z</time>
      </trkpt>
      <trkpt lat="44.23149" lon="2.97991">
        <ele>791</ele>
        <time>2019-10-13T08:47:20.000Z</time>
      </trkpt>
      <trkpt lat="44.23148" lon="2.9799">
        <ele>791</ele>
        <time>2019-10-13T08:47:21.000Z</time>
      </trkpt>
      <trkpt lat="44.23147" lon="2.97987">
        <ele>791</ele>
        <time>2019-10-13T08:47:22.000Z</time>
      </trkpt>
      <trkpt lat="44.23146" lon="2.97985">
        <ele>791</ele>
        <time>2019-10-13T08:47:23.000Z</time>
      </trkpt>
      <trkpt lat="44.23145" lon="2.97983">
        <ele>791</ele>
        <time>2019-10-13T08:47:24.000Z</time>
      </trkpt>
      <trkpt lat="44.23145" lon="2.97982">
        <ele>791</ele>
        <time>2019-10-13T08:47:25.000Z</time>
      </trkpt>
      <trkpt lat="44.23144" lon="2.9798">
        <ele>791</ele>
        <time>2019-10-13T08:47:26.000Z</time>
      </trkpt>
      <trkpt lat="44.23143" lon="2.97979">
        <ele>791</ele>
        <time>2019-10-13T08:47:27.000Z</time>
      </trkpt>
      <trkpt lat="44.23143" lon="2.97977">
        <ele>791</ele>
        <time>2019-10-13T08:47:28.000Z</time>
      </trkpt>
      <trkpt lat="44.23142" lon="2.97976">
        <ele>791</ele>
        <time>2019-10-13T08:47:29.000Z</time>
      </trkpt>
      <trkpt lat="44.23141" lon="2.97975">
        <ele>791</ele>
        <time>2019-10-13T08:47:30.000Z</time>
      </trkpt>
      <trkpt lat="44.2314" lon="2.97973">
        <ele>791</ele>
        <time>2019-10-13T08:47:31.000Z</time>
      </trkpt>
      <trkpt lat="44.23139" lon="2.97972">
        <ele>791</ele>
        <time>2019-10-13T08:47:32.000Z</time>
      </trkpt>
      <trkpt lat="44.23138" lon="2.97971">
        <ele>791</ele>
        <time>2019-10-13T08:47:33.000Z</time>
      </trkpt>
      <trkpt lat="44.23137" lon="2.97969">
        <ele>791</ele>
        <time>2019-10-13T08:47:34.000Z</time>
      </trkpt>
      <trkpt lat="44.23136" lon="2.97968">
        <ele>791</ele>
        <time>2019-10-13T08:47:35.000Z</time>
      </trkpt>
      <trkpt lat="44.23134" lon="2.97967">
        <ele>791</ele>
        <time>2019-10-13T08:47:36.000Z</time>
      </trkpt>
      <trkpt lat="44.23133" lon="2.97966">
        <ele>791</ele>
        <time>2019-10-13T08:47:37.000Z</time>
      </trkpt>
      <trkpt lat="44.23132" lon="2.97965">
        <ele>791</ele>
        <time>2019-10-13T08:47:38.000Z</time>
      </trkpt>
      <trkpt lat="44.23131" lon="2.97964">
        <ele>791</ele>
        <time>2019-10-13T08:47:39.000Z</time>
      </trkpt>
      <trkpt lat="44.23129" lon="2.97964">
        <ele>791</ele>
        <time>2019-10-13T08:47:40.000Z</time>
      </trkpt>
      <trkpt lat="44.23128" lon="2.97963">
        <ele>791</ele>
        <time>2019-10-13T08:47:41.000Z</time>
      </trkpt>
      <trkpt lat="44.23126" lon="2.97962">
        <ele>791</ele>
        <time>2019-10-13T08:47:42.000Z</time>
      </trkpt>
      <trkpt lat="44.23125" lon="2.97962">
        <ele>791</ele>
        <time>2019-10-13T08:47:43.000Z</time>
      </trkpt>
      <trkpt lat="44.23123" lon="2.97962">
        <ele>791</ele>
        <time>2019-10-13T08:47:44.000Z</time>
      </trkpt>
      <trkpt lat="44.23122" lon="2.97961">
        <ele>791</ele>
        <time>2019-10-13T08:47:45.000Z</time>
      </trkpt>
      <trkpt lat="44.23121" lon="2.97961">
        <ele>791</ele>
        <time>2019-10-13T08:47:46.000Z</time>
      </trkpt>
      <trkpt lat="44.2312" lon="2.97961">
        <ele>791</ele>
        <time>2019-10-13T08:47:47.000Z</time>
      </trkpt>
      <trkpt lat="44.23119" lon="2.9796">
        <ele>791</ele>
        <time>2019-10-13T08:47:48.000Z</time>
      </trkpt>
      <trkpt lat="44.23117" lon="2.9796">
        <ele>791</ele>
        <time>2019-10-13T08:47:49.000Z</time>
      </trkpt>
      <trkpt lat="44.23116" lon="2.97959">
        <ele>791</ele>
        <time>2019-10-13T08:47:50.000Z</time>
      </trkpt>
      <trkpt lat="44.23115" lon="2.97959">
        <ele>792</ele>
        <time>2019-10-13T08:47:51.000Z</time>
      </trkpt>
      <trkpt lat="44.23114" lon="2.97958">
        <ele>792</ele>
        <time>2019-10-13T08:47:52.000Z</time>
      </trkpt>
      <trkpt lat="44.23112" lon="2.97958">
        <ele>792</ele>
        <time>2019-10-13T08:47:53.000Z</time>
      </trkpt>
      <trkpt lat="44.23111" lon="2.97958">
        <ele>792</ele>
        <time>2019-10-13T08:47:54.000Z</time>
      </trkpt>
      <trkpt lat="44.2311" lon="2.97958">
        <ele>792</ele>
        <time>2019-10-13T08:47:55.000Z</time>
      </trkpt>
      <trkpt lat="44.23109" lon="2.97958">
        <ele>792</ele>
        <time>2019-10-13T08:47:56.000Z</time>
      </trkpt>
      <trkpt lat="44.23108" lon="2.97958">
        <ele>792</ele>
        <time>2019-10-13T08:47:57.000Z</time>
      </trkpt>
      <trkpt lat="44.23106" lon="2.97958">
        <ele>792</ele>
        <time>2019-10-13T08:47:58.000Z</time>
      </trkpt>
      <trkpt lat="44.23104" lon="2.97958">
        <ele>792</ele>
        <time>2019-10-13T08:47:59.000Z</time>
      </trkpt>
      <trkpt lat="44.23103" lon="2.97958">
        <ele>792</ele>
        <time>2019-10-13T08:48:00.000Z</time>
      </trkpt>
      <trkpt lat="44.23101" lon="2.97958">
        <ele>792</ele>
        <time>2019-10-13T08:48:01.000Z</time>
      </trkpt>
      <trkpt lat="44.231" lon="2.97958">
        <ele>792</ele>
        <time>2019-10-13T08:48:02.000Z</time>
      </trkpt>
      <trkpt lat="44.23098" lon="2.97958">
        <ele>792</ele>
        <time>2019-10-13T08:48:03.000Z</time>
      </trkpt>
      <trkpt lat="44.23097" lon="2.97959">
        <ele>792</ele>
        <time>2019-10-13T08:48:04.000Z</time>
      </trkpt>
      <trkpt lat="44.23096" lon="2.9796">
        <ele>792</ele>
        <time>2019-10-13T08:48:05.000Z</time>
      </trkpt>
      <trkpt lat="44.23095" lon="2.97961">
        <ele>792</ele>
        <time>2019-10-13T08:48:06.000Z</time>
      </trkpt>
      <trkpt lat="44.23095" lon="2.97962">
        <ele>793</ele>
        <time>2019-10-13T08:48:07.000Z</time>
      </trkpt>
      <trkpt lat="44.23094" lon="2.97964">
        <ele>793</ele>
        <time>2019-10-13T08:48:08.000Z</time>
      </trkpt>
      <trkpt lat="44.23094" lon="2.97965">
        <ele>793</ele>
        <time>2019-10-13T08:48:09.000Z</time>
      </trkpt>
      <trkpt lat="44.23094" lon="2.97967">
        <ele>793</ele>
        <time>2019-10-13T08:48:10.000Z</time>
      </trkpt>
      <trkpt lat="44.23094" lon="2.97968">
        <ele>793</ele>
        <time>2019-10-13T08:48:11.000Z</time>
      </trkpt>
      <trkpt lat="44.23095" lon="2.9797">
        <ele>793</ele>
        <time>2019-10-13T08:48:12.000Z</time>
      </trkpt>
      <trkpt lat="44.23095" lon="2.97972">
        <ele>793</ele>
        <time>2019-10-13T08:48:13.000Z</time>
      </trkpt>
      <trkpt lat="44.23096" lon="2.97973">
        <ele>793</ele>
        <time>2019-10-13T08:48:14.000Z</time>
      </trkpt>
      <trkpt lat="44.23097" lon="2.97975">
        <ele>793</ele>
        <time>2019-10-13T08:48:15.000Z</time>
      </trkpt>
      <trkpt lat="44.23098" lon="2.97976">
        <ele>793</ele>
        <time>2019-10-13T08:48:16.000Z</time>
      </trkpt>
      <trkpt lat="44.23099" lon="2.97978">
        <ele>793</ele>
        <time>2019-10-13T08:48:17.000Z</time>
      </trkpt>
      <trkpt lat="44.231" lon="2.9798">
        <ele>793</ele>
        <time>2019-10-13T08:48:18.000Z</time>
      </trkpt>
      <trkpt lat="44.23101" lon="2.97982">
        <ele>793</ele>
        <time>2019-10-13T08:48:19.000Z</time>
      </trkpt>
      <trkpt lat="44.23102" lon="2.97983">
        <ele>793</ele>
        <time>2019-10-13T08:48:20.000Z</time>
      </trkpt>
      <trkpt lat="44.23104" lon="2.97984">
        <ele>793</ele>
        <time>2019-10-13T08:48:21.000Z</time>
      </trkpt>
      <trkpt lat="44.23105" lon="2.97986">
        <ele>793</ele>
        <time>2019-10-13T08:48:22.000Z</time>
      </trkpt>
      <trkpt lat="44.23105" lon="2.97988">
        <ele>794</ele>
        <time>2019-10-13T08:48:23.000Z</time>
      </trkpt>
      <trkpt lat="44.23106" lon="2.97989">
        <ele>794</ele>
        <time>2019-10-13T08:48:24.000Z</time>
      </trkpt>
      <trkpt lat="44.23107" lon="2.97991">
        <ele>794</ele>
        <time>2019-10-13T08:48:25.000Z</time>
      </trkpt>
      <trkpt lat="44.23108" lon="2.97993">
        <ele>794</ele>
        <time>2019-10-13T08:48:26.000Z</time>
      </trkpt>
      <trkpt lat="44.23109" lon="2.97995">
        <ele>794</ele>
        <time>2019-10-13T08:48:27.000Z</time>
      </trkpt>
      <trkpt lat="44.23109" lon="2.97996">
        <ele>794</ele>
        <time>2019-10-13T08:48:28.000Z</time>
      </trkpt>
      <trkpt lat="44.2311" lon="2.97998">
        <ele>794</ele>
        <time>2019-10-13T08:48:29.000Z</time>
      </trkpt>
      <trkpt lat="44.23111" lon="2.98">
        <ele>794</ele>
        <time>2019-10-13T08:48:30.000Z</time>
      </trkpt>
      <trkpt lat="44.23111" lon="2.98002">
        <ele>794</ele>
        <time>2019-10-13T08:48:31.000Z</time>
      </trkpt>
      <trkpt lat="44.23112" lon="2.98004">
        <ele>794</ele>
        <time>2019-10-13T08:48:32.000Z</time>
      </trkpt>
      <trkpt lat="44.23112" lon="2.98006">
        <ele>795</ele>
        <time>2019-10-13T08:48:33.000Z</time>
      </trkpt>
      <trkpt lat="44.23113" lon="2.98008">
        <ele>795</ele>
        <time>2019-10-13T08:48:34.000Z</time>
      </trkpt>
      <trkpt lat="44.23113" lon="2.9801">
        <ele>795</ele>
        <time>2019-10-13T08:48:35.000Z</time>
      </trkpt>
      <trkpt lat="44.23113" lon="2.98012">
        <ele>795</ele>
        <time>2019-10-13T08:48:36.000Z</time>
      </trkpt>
      <trkpt lat="44.23114" lon="2.98014">
        <ele>795</ele>
        <time>2019-10-13T08:48:37.000Z</time>
      </trkpt>
      <trkpt lat="44.23115" lon="2.98016">
        <ele>796</ele>
        <time>2019-10-13T08:48:38.000Z</time>
      </trkpt>
      <trkpt lat="44.23115" lon="2.98018">
        <ele>796</ele>
        <time>2019-10-13T08:48:39.000Z</time>
      </trkpt>
      <trkpt lat="44.23115" lon="2.98021">
        <ele>796</ele>
        <time>2019-10-13T08:48:40.000Z</time>
      </trkpt>
      <trkpt lat="44.23115" lon="2.98023">
        <ele>796</ele>
        <time>2019-10-13T08:48:41.000Z</time>
      </trkpt>
      <trkpt lat="44.23115" lon="2.98024">
        <ele>797</ele>
        <time>2019-10-13T08:48:42.000Z</time>
      </trkpt>
      <trkpt lat="44.23115" lon="2.98026">
        <ele>797</ele>
        <time>2019-10-13T08:48:43.000Z</time>
      </trkpt>
      <trkpt lat="44.23115" lon="2.98028">
        <ele>798</ele>
        <time>2019-10-13T08:48:44.000Z</time>
      </trkpt>
      <trkpt lat="44.23115" lon="2.98029">
        <ele>798</ele>
        <time>2019-10-13T08:48:45.000Z</time>
      </trkpt>
      <trkpt lat="44.23115" lon="2.98031">
        <ele>799</ele>
        <time>2019-10-13T08:48:46.000Z</time>
      </trkpt>
      <trkpt lat="44.23115" lon="2.98033">
        <ele>799</ele>
        <time>2019-10-13T08:48:47.000Z</time>
      </trkpt>
      <trkpt lat="44.23115" lon="2.98035">
        <ele>799</ele>
        <time>2019-10-13T08:48:48.000Z</time>
      </trkpt>
      <trkpt lat="44.23114" lon="2.98037">
        <ele>800</ele>
        <time>2019-10-13T08:48:49.000Z</time>
      </trkpt>
      <trkpt lat="44.23114" lon="2.9804">
        <ele>800</ele>
        <time>2019-10-13T08:48:50.000Z</time>
      </trkpt>
      <trkpt lat="44.23114" lon="2.98042">
        <ele>800</ele>
        <time>2019-10-13T08:48:51.000Z</time>
      </trkpt>
      <trkpt lat="44.23114" lon="2.98044">
        <ele>800</ele>
        <time>2019-10-13T08:48:52.000Z</time>
      </trkpt>
      <trkpt lat="44.23114" lon="2.98046">
        <ele>801</ele>
        <time>2019-10-13T08:48:53.000Z</time>
      </trkpt>
      <trkpt lat="44.23114" lon="2.98048">
        <ele>801</ele>
        <time>2019-10-13T08:48:54.000Z</time>
      </trkpt>
      <trkpt lat="44.23114" lon="2.9805">
        <ele>801</ele>
        <time>2019-10-13T08:48:55.000Z</time>
      </trkpt>
      <trkpt lat="44.23114" lon="2.98052">
        <ele>801</ele>
        <time>2019-10-13T08:48:56.000Z</time>
      </trkpt>
      <trkpt lat="44.23114" lon="2.98054">
        <ele>802</ele>
        <time>2019-10-13T08:48:57.000Z</time>
      </trkpt>
      <trkpt lat="44.23114" lon="2.98056">
        <ele>802</ele>
        <time>2019-10-13T08:48:58.000Z</time>
      </trkpt>
      <trkpt lat="44.23114" lon="2.98058">
        <ele>802</ele>
        <time>2019-10-13T08:48:59.000Z</time>
      </trkpt>
      <trkpt lat="44.23113" lon="2.98061">
        <ele>802</ele>
        <time>2019-10-13T08:49:00.000Z</time>
      </trkpt>
      <trkpt lat="44.23113" lon="2.98063">
        <ele>802</ele>
        <time>2019-10-13T08:49:01.000Z</time>
      </trkpt>
      <trkpt lat="44.23113" lon="2.98065">
        <ele>802</ele>
        <time>2019-10-13T08:49:02.000Z</time>
      </trkpt>
      <trkpt lat="44.23113" lon="2.98067">
        <ele>803</ele>
        <time>2019-10-13T08:49:03.000Z</time>
      </trkpt>
      <trkpt lat="44.23113" lon="2.98069">
        <ele>803</ele>
        <time>2019-10-13T08:49:04.000Z</time>
      </trkpt>
      <trkpt lat="44.23113" lon="2.98071">
        <ele>803</ele>
        <time>2019-10-13T08:49:05.000Z</time>
      </trkpt>
      <trkpt lat="44.23113" lon="2.98074">
        <ele>803</ele>
        <time>2019-10-13T08:49:06.000Z</time>
      </trkpt>
      <trkpt lat="44.23113" lon="2.98076">
        <ele>803</ele>
        <time>2019-10-13T08:49:07.000Z</time>
      </trkpt>
      <trkpt lat="44.23113" lon="2.98078">
        <ele>803</ele>
        <time>2019-10-13T08:49:08.000Z</time>
      </trkpt>
      <trkpt lat="44.23113" lon="2.9808">
        <ele>803</ele>
        <time>2019-10-13T08:49:09.000Z</time>
      </trkpt>
      <trkpt lat="44.23113" lon="2.98082">
        <ele>803</ele>
        <time>2019-10-13T08:49:10.000Z</time>
      </trkpt>
      <trkpt lat="44.23112" lon="2.98084">
        <ele>803</ele>
        <time>2019-10-13T08:49:11.000Z</time>
      </trkpt>
      <trkpt lat="44.23112" lon="2.98087">
        <ele>803</ele>
        <time>2019-10-13T08:49:12.000Z</time>
      </trkpt>
      <trkpt lat="44.23112" lon="2.98089">
        <ele>803</ele>
        <time>2019-10-13T08:49:13.000Z</time>
      </trkpt>
      <trkpt lat="44.23112" lon="2.98091">
        <ele>803</ele>
        <time>2019-10-13T08:49:14.000Z</time>
      </trkpt>
      <trkpt lat="44.23112" lon="2.98093">
        <ele>804</ele>
        <time>2019-10-13T08:49:15.000Z</time>
      </trkpt>
      <trkpt lat="44.23112" lon="2.98095">
        <ele>804</ele>
        <time>2019-10-13T08:49:16.000Z</time>
      </trkpt>
      <trkpt lat="44.23112" lon="2.98097">
        <ele>804</ele>
        <time>2019-10-13T08:49:17.000Z</time>
      </trkpt>
      <trkpt lat="44.23112" lon="2.98099">
        <ele>804</ele>
        <time>2019-10-13T08:49:18.000Z</time>
      </trkpt>
      <trkpt lat="44.23111" lon="2.98101">
        <ele>804</ele>
        <time>2019-10-13T08:49:19.000Z</time>
      </trkpt>
      <trkpt lat="44.23111" lon="2.98103">
        <ele>804</ele>
        <time>2019-10-13T08:49:20.000Z</time>
      </trkpt>
      <trkpt lat="44.2311" lon="2.98105">
        <ele>804</ele>
        <time>2019-10-13T08:49:21.000Z</time>
      </trkpt>
      <trkpt lat="44.2311" lon="2.98107">
        <ele>805</ele>
        <time>2019-10-13T08:49:22.000Z</time>
      </trkpt>
      <trkpt lat="44.2311" lon="2.98109">
        <ele>805</ele>
        <time>2019-10-13T08:49:23.000Z</time>
      </trkpt>
      <trkpt lat="44.2311" lon="2.98111">
        <ele>805</ele>
        <time>2019-10-13T08:49:24.000Z</time>
      </trkpt>
      <trkpt lat="44.2311" lon="2.98112">
        <ele>805</ele>
        <time>2019-10-13T08:49:25.000Z</time>
      </trkpt>
      <trkpt lat="44.2311" lon="2.98114">
        <ele>806</ele>
        <time>2019-10-13T08:49:26.000Z</time>
      </trkpt>
      <trkpt lat="44.2311" lon="2.98116">
        <ele>806</ele>
        <time>2019-10-13T08:49:27.000Z</time>
      </trkpt>
      <trkpt lat="44.2311" lon="2.98118">
        <ele>806</ele>
        <time>2019-10-13T08:49:28.000Z</time>
      </trkpt>
      <trkpt lat="44.2311" lon="2.98119">
        <ele>806</ele>
        <time>2019-10-13T08:49:29.000Z</time>
      </trkpt>
      <trkpt lat="44.2311" lon="2.98121">
        <ele>807</ele>
        <time>2019-10-13T08:49:30.000Z</time>
      </trkpt>
      <trkpt lat="44.2311" lon="2.98122">
        <ele>807</ele>
        <time>2019-10-13T08:49:31.000Z</time>
      </trkpt>
      <trkpt lat="44.2311" lon="2.98123">
        <ele>807</ele>
        <time>2019-10-13T08:49:32.000Z</time>
      </trkpt>
      <trkpt lat="44.2311" lon="2.98125">
        <ele>808</ele>
        <time>2019-10-13T08:49:33.000Z</time>
      </trkpt>
      <trkpt lat="44.2311" lon="2.98126">
        <ele>808</ele>
        <time>2019-10-13T08:49:34.000Z</time>
      </trkpt>
      <trkpt lat="44.2311" lon="2.98128">
        <ele>808</ele>
        <time>2019-10-13T08:49:35.000Z</time>
      </trkpt>
      <trkpt lat="44.2311" lon="2.9813">
        <ele>808</ele>
        <time>2019-10-13T08:49:36.000Z</time>
      </trkpt>
      <trkpt lat="44.2311" lon="2.98131">
        <ele>808</ele>
        <time>2019-10-13T08:49:37.000Z</time>
      </trkpt>
      <trkpt lat="44.2311" lon="2.98132">
        <ele>808</ele>
        <time>2019-10-13T08:49:38.000Z</time>
      </trkpt>
      <trkpt lat="44.2311" lon="2.98133">
        <ele>809</ele>
        <time>2019-10-13T08:49:39.000Z</time>
      </trkpt>
      <trkpt lat="44.23111" lon="2.98135">
        <ele>809</ele>
        <time>2019-10-13T08:49:40.000Z</time>
      </trkpt>
      <trkpt lat="44.23111" lon="2.98136">
        <ele>809</ele>
        <time>2019-10-13T08:49:41.000Z</time>
      </trkpt>
      <trkpt lat="44.23111" lon="2.98137">
        <ele>809</ele>
        <time>2019-10-13T08:49:42.000Z</time>
      </trkpt>
      <trkpt lat="44.23111" lon="2.98138">
        <ele>810</ele>
        <time>2019-10-13T08:49:43.000Z</time>
      </trkpt>
      <trkpt lat="44.23111" lon="2.98139">
        <ele>810</ele>
        <time>2019-10-13T08:49:44.000Z</time>
      </trkpt>
      <trkpt lat="44.23111" lon="2.98141">
        <ele>810</ele>
        <time>2019-10-13T08:49:45.000Z</time>
      </trkpt>
      <trkpt lat="44.23111" lon="2.98142">
        <ele>810</ele>
        <time>2019-10-13T08:49:46.000Z</time>
      </trkpt>
      <trkpt lat="44.23111" lon="2.98143">
        <ele>811</ele>
        <time>2019-10-13T08:49:47.000Z</time>
      </trkpt>
      <trkpt lat="44.23111" lon="2.98144">
        <ele>811</ele>
        <time>2019-10-13T08:49:48.000Z</time>
      </trkpt>
      <trkpt lat="44.23111" lon="2.98145">
        <ele>811</ele>
        <time>2019-10-13T08:49:49.000Z</time>
      </trkpt>
      <trkpt lat="44.23111" lon="2.98146">
        <ele>811</ele>
        <time>2019-10-13T08:49:50.000Z</time>
      </trkpt>
      <trkpt lat="44.23111" lon="2.98146">
        <ele>811</ele>
        <time>2019-10-13T08:49:51.000Z</time>
      </trkpt>
      <trkpt lat="44.23112" lon="2.98147">
        <ele>811</ele>
        <time>2019-10-13T08:49:52.000Z</time>
      </trkpt>
      <trkpt lat="44.23112" lon="2.98148">
        <ele>812</ele>
        <time>2019-10-13T08:49:53.000Z</time>
      </trkpt>
      <trkpt lat="44.23112" lon="2.9815">
        <ele>812</ele>
        <time>2019-10-13T08:49:54.000Z</time>
      </trkpt>
      <trkpt lat="44.23112" lon="2.98151">
        <ele>812</ele>
        <time>2019-10-13T08:49:55.000Z</time>
      </trkpt>
      <trkpt lat="44.23112" lon="2.98153">
        <ele>812</ele>
        <time>2019-10-13T08:49:56.000Z</time>
      </trkpt>
      <trkpt lat="44.23113" lon="2.98154">
        <ele>812</ele>
        <time>2019-10-13T08:49:57.000Z</time>
      </trkpt>
      <trkpt lat="44.23113" lon="2.98156">
        <ele>813</ele>
        <time>2019-10-13T08:49:58.000Z</time>
      </trkpt>
      <trkpt lat="44.23114" lon="2.98158">
        <ele>813</ele>
        <time>2019-10-13T08:49:59.000Z</time>
      </trkpt>
      <trkpt lat="44.23114" lon="2.9816">
        <ele>813</ele>
        <time>2019-10-13T08:50:00.000Z</time>
      </trkpt>
      <trkpt lat="44.23115" lon="2.98162">
        <ele>813</ele>
        <time>2019-10-13T08:50:01.000Z</time>
      </trkpt>
      <trkpt lat="44.23115" lon="2.98164">
        <ele>814</ele>
        <time>2019-10-13T08:50:02.000Z</time>
      </trkpt>
      <trkpt lat="44.23116" lon="2.98166">
        <ele>814</ele>
        <time>2019-10-13T08:50:03.000Z</time>
      </trkpt>
      <trkpt lat="44.23117" lon="2.98168">
        <ele>814</ele>
        <time>2019-10-13T08:50:04.000Z</time>
      </trkpt>
      <trkpt lat="44.23118" lon="2.9817">
        <ele>814</ele>
        <time>2019-10-13T08:50:05.000Z</time>
      </trkpt>
      <trkpt lat="44.23119" lon="2.98172">
        <ele>814</ele>
        <time>2019-10-13T08:50:06.000Z</time>
      </trkpt>
      <trkpt lat="44.23119" lon="2.98174">
        <ele>814</ele>
        <time>2019-10-13T08:50:07.000Z</time>
      </trkpt>
      <trkpt lat="44.23121" lon="2.98176">
        <ele>814</ele>
        <time>2019-10-13T08:50:08.000Z</time>
      </trkpt>
      <trkpt lat="44.23122" lon="2.98179">
        <ele>814</ele>
        <time>2019-10-13T08:50:09.000Z</time>
      </trkpt>
      <trkpt lat="44.23123" lon="2.98182">
        <ele>813</ele>
        <time>2019-10-13T08:50:10.000Z</time>
      </trkpt>
      <trkpt lat="44.23124" lon="2.98184">
        <ele>813</ele>
        <time>2019-10-13T08:50:11.000Z</time>
      </trkpt>
      <trkpt lat="44.23126" lon="2.98187">
        <ele>813</ele>
        <time>2019-10-13T08:50:12.000Z</time>
      </trkpt>
      <trkpt lat="44.23127" lon="2.9819">
        <ele>813</ele>
        <time>2019-10-13T08:50:13.000Z</time>
      </trkpt>
      <trkpt lat="44.23129" lon="2.98192">
        <ele>813</ele>
        <time>2019-10-13T08:50:14.000Z</time>
      </trkpt>
      <trkpt lat="44.2313" lon="2.98195">
        <ele>813</ele>
        <time>2019-10-13T08:50:15.000Z</time>
      </trkpt>
      <trkpt lat="44.23131" lon="2.98198">
        <ele>813</ele>
        <time>2019-10-13T08:50:16.000Z</time>
      </trkpt>
      <trkpt lat="44.23132" lon="2.982">
        <ele>813</ele>
        <time>2019-10-13T08:50:17.000Z</time>
      </trkpt>
      <trkpt lat="44.23133" lon="2.98203">
        <ele>813</ele>
        <time>2019-10-13T08:50:18.000Z</time>
      </trkpt>
      <trkpt lat="44.23134" lon="2.98205">
        <ele>813</ele>
        <time>2019-10-13T08:50:19.000Z</time>
      </trkpt>
      <trkpt lat="44.23135" lon="2.98207">
        <ele>813</ele>
        <time>2019-10-13T08:50:20.000Z</time>
      </trkpt>
      <trkpt lat="44.23136" lon="2.98209">
        <ele>813</ele>
        <time>2019-10-13T08:50:21.000Z</time>
      </trkpt>
      <trkpt lat="44.23137" lon="2.98212">
        <ele>813</ele>
        <time>2019-10-13T08:50:22.000Z</time>
      </trkpt>
      <trkpt lat="44.23138" lon="2.98214">
        <ele>813</ele>
        <time>2019-10-13T08:50:23.000Z</time>
      </trkpt>
      <trkpt lat="44.23139" lon="2.98216">
        <ele>813</ele>
        <time>2019-10-13T08:50:24.000Z</time>
      </trkpt>
      <trkpt lat="44.2314" lon="2.98218">
        <ele>813</ele>
        <time>2019-10-13T08:50:25.000Z</time>
      </trkpt>
      <trkpt lat="44.2314" lon="2.9822">
        <ele>813</ele>
        <time>2019-10-13T08:50:26.000Z</time>
      </trkpt>
      <trkpt lat="44.23141" lon="2.98221">
        <ele>813</ele>
        <time>2019-10-13T08:50:27.000Z</time>
      </trkpt>
      <trkpt lat="44.23142" lon="2.98224">
        <ele>813</ele>
        <time>2019-10-13T08:50:28.000Z</time>
      </trkpt>
      <trkpt lat="44.23143" lon="2.98225">
        <ele>812</ele>
        <time>2019-10-13T08:50:29.000Z</time>
      </trkpt>
      <trkpt lat="44.23144" lon="2.98227">
        <ele>812</ele>
        <time>2019-10-13T08:50:30.000Z</time>
      </trkpt>
      <trkpt lat="44.23145" lon="2.98229">
        <ele>812</ele>
        <time>2019-10-13T08:50:31.000Z</time>
      </trkpt>
      <trkpt lat="44.23145" lon="2.98231">
        <ele>812</ele>
        <time>2019-10-13T08:50:32.000Z</time>
      </trkpt>
      <trkpt lat="44.23146" lon="2.98233">
        <ele>812</ele>
        <time>2019-10-13T08:50:33.000Z</time>
      </trkpt>
      <trkpt lat="44.23147" lon="2.98235">
        <ele>812</ele>
        <time>2019-10-13T08:50:34.000Z</time>
      </trkpt>
      <trkpt lat="44.23147" lon="2.98236">
        <ele>812</ele>
        <time>2019-10-13T08:50:35.000Z</time>
      </trkpt>
      <trkpt lat="44.23148" lon="2.98238">
        <ele>812</ele>
        <time>2019-10-13T08:50:36.000Z</time>
      </trkpt>
      <trkpt lat="44.23149" lon="2.9824">
        <ele>812</ele>
        <time>2019-10-13T08:50:37.000Z</time>
      </trkpt>
      <trkpt lat="44.2315" lon="2.98242">
        <ele>811</ele>
        <time>2019-10-13T08:50:38.000Z</time>
      </trkpt>
      <trkpt lat="44.23151" lon="2.98244">
        <ele>811</ele>
        <time>2019-10-13T08:50:39.000Z</time>
      </trkpt>
      <trkpt lat="44.23151" lon="2.98246">
        <ele>811</ele>
        <time>2019-10-13T08:50:40.000Z</time>
      </trkpt>
      <trkpt lat="44.23152" lon="2.98248">
        <ele>811</ele>
        <time>2019-10-13T08:50:41.000Z</time>
      </trkpt>
      <trkpt lat="44.23153" lon="2.9825">
        <ele>811</ele>
        <time>2019-10-13T08:50:42.000Z</time>
      </trkpt>
      <trkpt lat="44.23154" lon="2.98252">
        <ele>811</ele>
        <time>2019-10-13T08:50:43.000Z</time>
      </trkpt>
      <trkpt lat="44.23155" lon="2.98254">
        <ele>811</ele>
        <time>2019-10-13T08:50:44.000Z</time>
      </trkpt>
      <trkpt lat="44.23157" lon="2.98256">
        <ele>811</ele>
        <time>2019-10-13T08:50:45.000Z</time>
      </trkpt>
      <trkpt lat="44.23158" lon="2.98258">
        <ele>811</ele>
        <time>2019-10-13T08:50:46.000Z</time>
      </trkpt>
      <trkpt lat="44.23159" lon="2.9826">
        <ele>811</ele>
        <time>2019-10-13T08:50:47.000Z</time>
      </trkpt>
      <trkpt lat="44.2316" lon="2.98261">
        <ele>811</ele>
        <time>2019-10-13T08:50:48.000Z</time>
      </trkpt>
      <trkpt lat="44.2316" lon="2.98263">
        <ele>811</ele>
        <time>2019-10-13T08:50:49.000Z</time>
      </trkpt>
      <trkpt lat="44.23161" lon="2.98265">
        <ele>811</ele>
        <time>2019-10-13T08:50:50.000Z</time>
      </trkpt>
      <trkpt lat="44.23161" lon="2.98268">
        <ele>811</ele>
        <time>2019-10-13T08:50:51.000Z</time>
      </trkpt>
      <trkpt lat="44.23162" lon="2.9827">
        <ele>812</ele>
        <time>2019-10-13T08:50:52.000Z</time>
      </trkpt>
      <trkpt lat="44.23163" lon="2.98272">
        <ele>812</ele>
        <time>2019-10-13T08:50:53.000Z</time>
      </trkpt>
      <trkpt lat="44.23163" lon="2.98274">
        <ele>812</ele>
        <time>2019-10-13T08:50:54.000Z</time>
      </trkpt>
      <trkpt lat="44.23164" lon="2.98276">
        <ele>812</ele>
        <time>2019-10-13T08:50:55.000Z</time>
      </trkpt>
      <trkpt lat="44.23164" lon="2.98277">
        <ele>812</ele>
        <time>2019-10-13T08:50:56.000Z</time>
      </trkpt>
      <trkpt lat="44.23164" lon="2.98279">
        <ele>812</ele>
        <time>2019-10-13T08:50:57.000Z</time>
      </trkpt>
      <trkpt lat="44.23164" lon="2.98281">
        <ele>812</ele>
        <time>2019-10-13T08:50:58.000Z</time>
      </trkpt>
      <trkpt lat="44.23165" lon="2.98282">
        <ele>812</ele>
        <time>2019-10-13T08:50:59.000Z</time>
      </trkpt>
      <trkpt lat="44.23165" lon="2.98284">
        <ele>812</ele>
        <time>2019-10-13T08:51:00.000Z</time>
      </trkpt>
      <trkpt lat="44.23165" lon="2.98286">
        <ele>812</ele>
        <time>2019-10-13T08:51:01.000Z</time>
      </trkpt>
      <trkpt lat="44.23166" lon="2.98288">
        <ele>813</ele>
        <time>2019-10-13T08:51:02.000Z</time>
      </trkpt>
      <trkpt lat="44.23166" lon="2.98289">
        <ele>813</ele>
        <time>2019-10-13T08:51:03.000Z</time>
      </trkpt>
      <trkpt lat="44.23167" lon="2.98291">
        <ele>813</ele>
        <time>2019-10-13T08:51:04.000Z</time>
      </trkpt>
      <trkpt lat="44.23168" lon="2.98294">
        <ele>813</ele>
        <time>2019-10-13T08:51:05.000Z</time>
      </trkpt>
      <trkpt lat="44.23169" lon="2.98296">
        <ele>813</ele>
        <time>2019-10-13T08:51:06.000Z</time>
      </trkpt>
      <trkpt lat="44.23169" lon="2.98297">
        <ele>813</ele>
        <time>2019-10-13T08:51:07.000Z</time>
      </trkpt>
      <trkpt lat="44.2317" lon="2.98299">
        <ele>813</ele>
        <time>2019-10-13T08:51:08.000Z</time>
      </trkpt>
      <trkpt lat="44.23171" lon="2.98301">
        <ele>813</ele>
        <time>2019-10-13T08:51:09.000Z</time>
      </trkpt>
      <trkpt lat="44.23172" lon="2.98303">
        <ele>813</ele>
        <time>2019-10-13T08:51:10.000Z</time>
      </trkpt>
      <trkpt lat="44.23173" lon="2.98305">
        <ele>813</ele>
        <time>2019-10-13T08:51:11.000Z</time>
      </trkpt>
      <trkpt lat="44.23174" lon="2.98307">
        <ele>813</ele>
        <time>2019-10-13T08:51:12.000Z</time>
      </trkpt>
      <trkpt lat="44.23175" lon="2.98309">
        <ele>813</ele>
        <time>2019-10-13T08:51:13.000Z</time>
      </trkpt>
      <trkpt lat="44.23176" lon="2.98312">
        <ele>813</ele>
        <time>2019-10-13T08:51:14.000Z</time>
      </trkpt>
      <trkpt lat="44.23177" lon="2.98314">
        <ele>813</ele>
        <time>2019-10-13T08:51:15.000Z</time>
      </trkpt>
      <trkpt lat="44.23177" lon="2.98316">
        <ele>813</ele>
        <time>2019-10-13T08:51:16.000Z</time>
      </trkpt>
      <trkpt lat="44.23178" lon="2.98318">
        <ele>813</ele>
        <time>2019-10-13T08:51:17.000Z</time>
      </trkpt>
      <trkpt lat="44.23178" lon="2.98319">
        <ele>813</ele>
        <time>2019-10-13T08:51:18.000Z</time>
      </trkpt>
      <trkpt lat="44.23178" lon="2.98321">
        <ele>813</ele>
        <time>2019-10-13T08:51:19.000Z</time>
      </trkpt>
      <trkpt lat="44.23179" lon="2.98322">
        <ele>813</ele>
        <time>2019-10-13T08:51:20.000Z</time>
      </trkpt>
      <trkpt lat="44.23179" lon="2.98324">
        <ele>813</ele>
        <time>2019-10-13T08:51:21.000Z</time>
      </trkpt>
      <trkpt lat="44.2318" lon="2.98325">
        <ele>813</ele>
        <time>2019-10-13T08:51:22.000Z</time>
      </trkpt>
      <trkpt lat="44.2318" lon="2.98327">
        <ele>813</ele>
        <time>2019-10-13T08:51:23.000Z</time>
      </trkpt>
      <trkpt lat="44.2318" lon="2.98328">
        <ele>812</ele>
        <time>2019-10-13T08:51:24.000Z</time>
      </trkpt>
      <trkpt lat="44.23181" lon="2.9833">
        <ele>812</ele>
        <time>2019-10-13T08:51:25.000Z</time>
      </trkpt>
      <trkpt lat="44.23181" lon="2.98331">
        <ele>812</ele>
        <time>2019-10-13T08:51:26.000Z</time>
      </trkpt>
      <trkpt lat="44.23181" lon="2.98333">
        <ele>812</ele>
        <time>2019-10-13T08:51:27.000Z</time>
      </trkpt>
      <trkpt lat="44.23182" lon="2.98334">
        <ele>812</ele>
        <time>2019-10-13T08:51:28.000Z</time>
      </trkpt>
      <trkpt lat="44.23182" lon="2.98336">
        <ele>812</ele>
        <time>2019-10-13T08:51:29.000Z</time>
      </trkpt>
      <trkpt lat="44.23183" lon="2.98337">
        <ele>811</ele>
        <time>2019-10-13T08:51:30.000Z</time>
      </trkpt>
      <trkpt lat="44.23183" lon="2.98339">
        <ele>811</ele>
        <time>2019-10-13T08:51:31.000Z</time>
      </trkpt>
      <trkpt lat="44.23184" lon="2.9834">
        <ele>811</ele>
        <time>2019-10-13T08:51:32.000Z</time>
      </trkpt>
      <trkpt lat="44.23185" lon="2.98341">
        <ele>810</ele>
        <time>2019-10-13T08:51:33.000Z</time>
      </trkpt>
      <trkpt lat="44.23186" lon="2.98342">
        <ele>810</ele>
        <time>2019-10-13T08:51:34.000Z</time>
      </trkpt>
      <trkpt lat="44.23187" lon="2.98343">
        <ele>810</ele>
        <time>2019-10-13T08:51:35.000Z</time>
      </trkpt>
      <trkpt lat="44.23188" lon="2.98344">
        <ele>810</ele>
        <time>2019-10-13T08:51:36.000Z</time>
      </trkpt>
      <trkpt lat="44.23189" lon="2.98345">
        <ele>810</ele>
        <time>2019-10-13T08:51:37.000Z</time>
      </trkpt>
      <trkpt lat="44.2319" lon="2.98346">
        <ele>810</ele>
        <time>2019-10-13T08:51:38.000Z</time>
      </trkpt>
      <trkpt lat="44.23191" lon="2.98347">
        <ele>810</ele>
        <time>2019-10-13T08:51:39.000Z</time>
      </trkpt>
      <trkpt lat="44.23193" lon="2.98348">
        <ele>810</ele>
        <time>2019-10-13T08:51:40.000Z</time>
      </trkpt>
      <trkpt lat="44.23194" lon="2.98349">
        <ele>810</ele>
        <time>2019-10-13T08:51:41.000Z</time>
      </trkpt>
      <trkpt lat="44.23196" lon="2.9835">
        <ele>810</ele>
        <time>2019-10-13T08:51:42.000Z</time>
      </trkpt>
      <trkpt lat="44.23197" lon="2.98352">
        <ele>810</ele>
        <time>2019-10-13T08:51:43.000Z</time>
      </trkpt>
      <trkpt lat="44.23199" lon="2.98353">
        <ele>810</ele>
        <time>2019-10-13T08:51:44.000Z</time>
      </trkpt>
      <trkpt lat="44.232" lon="2.98354">
        <ele>810</ele>
        <time>2019-10-13T08:51:45.000Z</time>
      </trkpt>
      <trkpt lat="44.23201" lon="2.98355">
        <ele>810</ele>
        <time>2019-10-13T08:51:46.000Z</time>
      </trkpt>
      <trkpt lat="44.23202" lon="2.98356">
        <ele>810</ele>
        <time>2019-10-13T08:51:47.000Z</time>
      </trkpt>
      <trkpt lat="44.23204" lon="2.98356">
        <ele>810</ele>
        <time>2019-10-13T08:51:48.000Z</time>
      </trkpt>
      <trkpt lat="44.23205" lon="2.98357">
        <ele>810</ele>
        <time>2019-10-13T08:51:49.000Z</time>
      </trkpt>
      <trkpt lat="44.23206" lon="2.98357">
        <ele>810</ele>
        <time>2019-10-13T08:51:50.000Z</time>
      </trkpt>
      <trkpt lat="44.23207" lon="2.98358">
        <ele>810</ele>
        <time>2019-10-13T08:51:51.000Z</time>
      </trkpt>
      <trkpt lat="44.23208" lon="2.98358">
        <ele>810</ele>
        <time>2019-10-13T08:51:52.000Z</time>
      </trkpt>
      <trkpt lat="44.2321" lon="2.98359">
        <ele>810</ele>
        <time>2019-10-13T08:51:53.000Z</time>
      </trkpt>
      <trkpt lat="44.23211" lon="2.9836">
        <ele>810</ele>
        <time>2019-10-13T08:51:54.000Z</time>
      </trkpt>
      <trkpt lat="44.23212" lon="2.98361">
        <ele>810</ele>
        <time>2019-10-13T08:51:55.000Z</time>
      </trkpt>
      <trkpt lat="44.23213" lon="2.98362">
        <ele>810</ele>
        <time>2019-10-13T08:51:56.000Z</time>
      </trkpt>
      <trkpt lat="44.23215" lon="2.98363">
        <ele>810</ele>
        <time>2019-10-13T08:51:57.000Z</time>
      </trkpt>
      <trkpt lat="44.23216" lon="2.98364">
        <ele>810</ele>
        <time>2019-10-13T08:51:58.000Z</time>
      </trkpt>
      <trkpt lat="44.23217" lon="2.98365">
        <ele>810</ele>
        <time>2019-10-13T08:51:59.000Z</time>
      </trkpt>
      <trkpt lat="44.23219" lon="2.98365">
        <ele>810</ele>
        <time>2019-10-13T08:52:00.000Z</time>
      </trkpt>
      <trkpt lat="44.2322" lon="2.98367">
        <ele>810</ele>
        <time>2019-10-13T08:52:01.000Z</time>
      </trkpt>
      <trkpt lat="44.23222" lon="2.98368">
        <ele>810</ele>
        <time>2019-10-13T08:52:02.000Z</time>
      </trkpt>
      <trkpt lat="44.23224" lon="2.9837">
        <ele>810</ele>
        <time>2019-10-13T08:52:03.000Z</time>
      </trkpt>
      <trkpt lat="44.23226" lon="2.98371">
        <ele>810</ele>
        <time>2019-10-13T08:52:04.000Z</time>
      </trkpt>
      <trkpt lat="44.23228" lon="2.98372">
        <ele>810</ele>
        <time>2019-10-13T08:52:05.000Z</time>
      </trkpt>
      <trkpt lat="44.2323" lon="2.98373">
        <ele>810</ele>
        <time>2019-10-13T08:52:06.000Z</time>
      </trkpt>
      <trkpt lat="44.23231" lon="2.98375">
        <ele>810</ele>
        <time>2019-10-13T08:52:07.000Z</time>
      </trkpt>
      <trkpt lat="44.23233" lon="2.98376">
        <ele>809</ele>
        <time>2019-10-13T08:52:08.000Z</time>
      </trkpt>
      <trkpt lat="44.23235" lon="2.98378">
        <ele>809</ele>
        <time>2019-10-13T08:52:09.000Z</time>
      </trkpt>
      <trkpt lat="44.23236" lon="2.9838">
        <ele>809</ele>
        <time>2019-10-13T08:52:10.000Z</time>
      </trkpt>
      <trkpt lat="44.23238" lon="2.98381">
        <ele>809</ele>
        <time>2019-10-13T08:52:11.000Z</time>
      </trkpt>
      <trkpt lat="44.23239" lon="2.98382">
        <ele>809</ele>
        <time>2019-10-13T08:52:12.000Z</time>
      </trkpt>
      <trkpt lat="44.23241" lon="2.98384">
        <ele>809</ele>
        <time>2019-10-13T08:52:13.000Z</time>
      </trkpt>
      <trkpt lat="44.23242" lon="2.98385">
        <ele>808</ele>
        <time>2019-10-13T08:52:14.000Z</time>
      </trkpt>
      <trkpt lat="44.23244" lon="2.98387">
        <ele>808</ele>
        <time>2019-10-13T08:52:15.000Z</time>
      </trkpt>
      <trkpt lat="44.23245" lon="2.98389">
        <ele>808</ele>
        <time>2019-10-13T08:52:16.000Z</time>
      </trkpt>
      <trkpt lat="44.23247" lon="2.98391">
        <ele>807</ele>
        <time>2019-10-13T08:52:17.000Z</time>
      </trkpt>
      <trkpt lat="44.23248" lon="2.98392">
        <ele>807</ele>
        <time>2019-10-13T08:52:18.000Z</time>
      </trkpt>
      <trkpt lat="44.2325" lon="2.98394">
        <ele>807</ele>
        <time>2019-10-13T08:52:19.000Z</time>
      </trkpt>
      <trkpt lat="44.23251" lon="2.98396">
        <ele>806</ele>
        <time>2019-10-13T08:52:20.000Z</time>
      </trkpt>
      <trkpt lat="44.23252" lon="2.98398">
        <ele>806</ele>
        <time>2019-10-13T08:52:21.000Z</time>
      </trkpt>
      <trkpt lat="44.23254" lon="2.984">
        <ele>805</ele>
        <time>2019-10-13T08:52:22.000Z</time>
      </trkpt>
      <trkpt lat="44.23255" lon="2.98402">
        <ele>805</ele>
        <time>2019-10-13T08:52:23.000Z</time>
      </trkpt>
      <trkpt lat="44.23256" lon="2.98404">
        <ele>804</ele>
        <time>2019-10-13T08:52:24.000Z</time>
      </trkpt>
      <trkpt lat="44.23258" lon="2.98406">
        <ele>804</ele>
        <time>2019-10-13T08:52:25.000Z</time>
      </trkpt>
      <trkpt lat="44.23259" lon="2.98408">
        <ele>804</ele>
        <time>2019-10-13T08:52:26.000Z</time>
      </trkpt>
      <trkpt lat="44.2326" lon="2.9841">
        <ele>803</ele>
        <time>2019-10-13T08:52:27.000Z</time>
      </trkpt>
      <trkpt lat="44.23261" lon="2.98412">
        <ele>803</ele>
        <time>2019-10-13T08:52:28.000Z</time>
      </trkpt>
      <trkpt lat="44.23263" lon="2.98414">
        <ele>802</ele>
        <time>2019-10-13T08:52:29.000Z</time>
      </trkpt>
      <trkpt lat="44.23264" lon="2.98416">
        <ele>802</ele>
        <time>2019-10-13T08:52:30.000Z</time>
      </trkpt>
      <trkpt lat="44.23265" lon="2.98418">
        <ele>801</ele>
        <time>2019-10-13T08:52:31.000Z</time>
      </trkpt>
      <trkpt lat="44.23266" lon="2.9842">
        <ele>801</ele>
        <time>2019-10-13T08:52:32.000Z</time>
      </trkpt>
      <trkpt lat="44.23266" lon="2.98422">
        <ele>801</ele>
        <time>2019-10-13T08:52:33.000Z</time>
      </trkpt>
      <trkpt lat="44.23267" lon="2.98424">
        <ele>800</ele>
        <time>2019-10-13T08:52:34.000Z</time>
      </trkpt>
      <trkpt lat="44.23268" lon="2.98426">
        <ele>800</ele>
        <time>2019-10-13T08:52:35.000Z</time>
      </trkpt>
      <trkpt lat="44.23269" lon="2.98428">
        <ele>800</ele>
        <time>2019-10-13T08:52:36.000Z</time>
      </trkpt>
      <trkpt lat="44.2327" lon="2.9843">
        <ele>799</ele>
        <time>2019-10-13T08:52:37.000Z</time>
      </trkpt>
      <trkpt lat="44.23271" lon="2.98432">
        <ele>799</ele>
        <time>2019-10-13T08:52:38.000Z</time>
      </trkpt>
      <trkpt lat="44.23272" lon="2.98434">
        <ele>799</ele>
        <time>2019-10-13T08:52:39.000Z</time>
      </trkpt>
      <trkpt lat="44.23273" lon="2.98436">
        <ele>799</ele>
        <time>2019-10-13T08:52:40.000Z</time>
      </trkpt>
      <trkpt lat="44.23274" lon="2.98438">
        <ele>798</ele>
        <time>2019-10-13T08:52:41.000Z</time>
      </trkpt>
      <trkpt lat="44.23275" lon="2.9844">
        <ele>798</ele>
        <time>2019-10-13T08:52:42.000Z</time>
      </trkpt>
      <trkpt lat="44.23276" lon="2.98441">
        <ele>798</ele>
        <time>2019-10-13T08:52:43.000Z</time>
      </trkpt>
      <trkpt lat="44.23277" lon="2.98443">
        <ele>798</ele>
        <time>2019-10-13T08:52:44.000Z</time>
      </trkpt>
      <trkpt lat="44.23278" lon="2.98445">
        <ele>798</ele>
        <time>2019-10-13T08:52:45.000Z</time>
      </trkpt>
      <trkpt lat="44.23279" lon="2.98447">
        <ele>798</ele>
        <time>2019-10-13T08:52:46.000Z</time>
      </trkpt>
      <trkpt lat="44.23281" lon="2.98449">
        <ele>798</ele>
        <time>2019-10-13T08:52:47.000Z</time>
      </trkpt>
      <trkpt lat="44.23282" lon="2.98451">
        <ele>798</ele>
        <time>2019-10-13T08:52:48.000Z</time>
      </trkpt>
      <trkpt lat="44.23283" lon="2.98453">
        <ele>798</ele>
        <time>2019-10-13T08:52:49.000Z</time>
      </trkpt>
      <trkpt lat="44.23284" lon="2.98454">
        <ele>798</ele>
        <time>2019-10-13T08:52:50.000Z</time>
      </trkpt>
      <trkpt lat="44.23285" lon="2.98456">
        <ele>798</ele>
        <time>2019-10-13T08:52:51.000Z</time>
      </trkpt>
      <trkpt lat="44.23285" lon="2.98458">
        <ele>798</ele>
        <time>2019-10-13T08:52:52.000Z</time>
      </trkpt>
      <trkpt lat="44.23286" lon="2.9846">
        <ele>798</ele>
        <time>2019-10-13T08:52:53.000Z</time>
      </trkpt>
      <trkpt lat="44.23287" lon="2.98462">
        <ele>798</ele>
        <time>2019-10-13T08:52:54.000Z</time>
      </trkpt>
      <trkpt lat="44.23288" lon="2.98464">
        <ele>798</ele>
        <time>2019-10-13T08:52:55.000Z</time>
      </trkpt>
      <trkpt lat="44.23289" lon="2.98466">
        <ele>799</ele>
        <time>2019-10-13T08:52:56.000Z</time>
      </trkpt>
      <trkpt lat="44.2329" lon="2.98468">
        <ele>799</ele>
        <time>2019-10-13T08:52:57.000Z</time>
      </trkpt>
      <trkpt lat="44.23291" lon="2.98469">
        <ele>799</ele>
        <time>2019-10-13T08:52:58.000Z</time>
      </trkpt>
      <trkpt lat="44.23292" lon="2.98471">
        <ele>799</ele>
        <time>2019-10-13T08:52:59.000Z</time>
      </trkpt>
      <trkpt lat="44.23293" lon="2.98474">
        <ele>799</ele>
        <time>2019-10-13T08:53:00.000Z</time>
      </trkpt>
      <trkpt lat="44.23293" lon="2.98476">
        <ele>800</ele>
        <time>2019-10-13T08:53:01.000Z</time>
      </trkpt>
      <trkpt lat="44.23294" lon="2.98478">
        <ele>800</ele>
        <time>2019-10-13T08:53:02.000Z</time>
      </trkpt>
      <trkpt lat="44.23295" lon="2.9848">
        <ele>800</ele>
        <time>2019-10-13T08:53:03.000Z</time>
      </trkpt>
      <trkpt lat="44.23296" lon="2.98481">
        <ele>800</ele>
        <time>2019-10-13T08:53:04.000Z</time>
      </trkpt>
      <trkpt lat="44.23297" lon="2.98483">
        <ele>801</ele>
        <time>2019-10-13T08:53:05.000Z</time>
      </trkpt>
      <trkpt lat="44.23298" lon="2.98485">
        <ele>801</ele>
        <time>2019-10-13T08:53:06.000Z</time>
      </trkpt>
      <trkpt lat="44.23299" lon="2.98486">
        <ele>801</ele>
        <time>2019-10-13T08:53:07.000Z</time>
      </trkpt>
      <trkpt lat="44.233" lon="2.98488">
        <ele>801</ele>
        <time>2019-10-13T08:53:08.000Z</time>
      </trkpt>
      <trkpt lat="44.23301" lon="2.98489">
        <ele>802</ele>
        <time>2019-10-13T08:53:09.000Z</time>
      </trkpt>
      <trkpt lat="44.23302" lon="2.98491">
        <ele>802</ele>
        <time>2019-10-13T08:53:10.000Z</time>
      </trkpt>
      <trkpt lat="44.23303" lon="2.98493">
        <ele>802</ele>
        <time>2019-10-13T08:53:11.000Z</time>
      </trkpt>
      <trkpt lat="44.23304" lon="2.98495">
        <ele>802</ele>
        <time>2019-10-13T08:53:12.000Z</time>
      </trkpt>
      <trkpt lat="44.23305" lon="2.98498">
        <ele>803</ele>
        <time>2019-10-13T08:53:13.000Z</time>
      </trkpt>
      <trkpt lat="44.23306" lon="2.985">
        <ele>803</ele>
        <time>2019-10-13T08:53:14.000Z</time>
      </trkpt>
      <trkpt lat="44.23306" lon="2.98502">
        <ele>803</ele>
        <time>2019-10-13T08:53:15.000Z</time>
      </trkpt>
      <trkpt lat="44.23307" lon="2.98504">
        <ele>803</ele>
        <time>2019-10-13T08:53:16.000Z</time>
      </trkpt>
      <trkpt lat="44.23308" lon="2.98505">
        <ele>803</ele>
        <time>2019-10-13T08:53:17.000Z</time>
      </trkpt>
      <trkpt lat="44.23309" lon="2.98507">
        <ele>804</ele>
        <time>2019-10-13T08:53:18.000Z</time>
      </trkpt>
      <trkpt lat="44.2331" lon="2.98509">
        <ele>804</ele>
        <time>2019-10-13T08:53:19.000Z</time>
      </trkpt>
      <trkpt lat="44.23311" lon="2.9851">
        <ele>804</ele>
        <time>2019-10-13T08:53:20.000Z</time>
      </trkpt>
      <trkpt lat="44.23311" lon="2.98512">
        <ele>804</ele>
        <time>2019-10-13T08:53:21.000Z</time>
      </trkpt>
      <trkpt lat="44.23312" lon="2.98514">
        <ele>804</ele>
        <time>2019-10-13T08:53:22.000Z</time>
      </trkpt>
      <trkpt lat="44.23313" lon="2.98516">
        <ele>805</ele>
        <time>2019-10-13T08:53:23.000Z</time>
      </trkpt>
      <trkpt lat="44.23314" lon="2.98517">
        <ele>805</ele>
        <time>2019-10-13T08:53:24.000Z</time>
      </trkpt>
      <trkpt lat="44.23315" lon="2.98519">
        <ele>805</ele>
        <time>2019-10-13T08:53:25.000Z</time>
      </trkpt>
      <trkpt lat="44.23316" lon="2.98521">
        <ele>805</ele>
        <time>2019-10-13T08:53:26.000Z</time>
      </trkpt>
      <trkpt lat="44.23317" lon="2.98522">
        <ele>805</ele>
        <time>2019-10-13T08:53:27.000Z</time>
      </trkpt>
      <trkpt lat="44.23317" lon="2.98522">
        <ele>805</ele>
        <time>2019-10-13T08:53:28.000Z</time>
      </trkpt>
      <trkpt lat="44.23317" lon="2.98523">
        <ele>805</ele>
        <time>2019-10-13T08:53:29.000Z</time>
      </trkpt>
      <trkpt lat="44.23317" lon="2.98525">
        <ele>805</ele>
        <time>2019-10-13T08:53:30.000Z</time>
      </trkpt>
      <trkpt lat="44.23318" lon="2.98527">
        <ele>805</ele>
        <time>2019-10-13T08:53:31.000Z</time>
      </trkpt>
      <trkpt lat="44.23318" lon="2.98529">
        <ele>805</ele>
        <time>2019-10-13T08:53:32.000Z</time>
      </trkpt>
      <trkpt lat="44.23318" lon="2.9853">
        <ele>805</ele>
        <time>2019-10-13T08:53:33.000Z</time>
      </trkpt>
      <trkpt lat="44.23319" lon="2.98532">
        <ele>805</ele>
        <time>2019-10-13T08:53:34.000Z</time>
      </trkpt>
      <trkpt lat="44.23319" lon="2.98534">
        <ele>805</ele>
        <time>2019-10-13T08:53:35.000Z</time>
      </trkpt>
      <trkpt lat="44.23319" lon="2.98536">
        <ele>805</ele>
        <time>2019-10-13T08:53:36.000Z</time>
      </trkpt>
      <trkpt lat="44.23319" lon="2.98537">
        <ele>805</ele>
        <time>2019-10-13T08:53:37.000Z</time>
      </trkpt>
      <trkpt lat="44.23319" lon="2.98539">
        <ele>805</ele>
        <time>2019-10-13T08:53:38.000Z</time>
      </trkpt>
      <trkpt lat="44.23319" lon="2.98541">
        <ele>805</ele>
        <time>2019-10-13T08:53:39.000Z</time>
      </trkpt>
      <trkpt lat="44.23319" lon="2.98543">
        <ele>805</ele>
        <time>2019-10-13T08:53:40.000Z</time>
      </trkpt>
      <trkpt lat="44.23319" lon="2.98544">
        <ele>805</ele>
        <time>2019-10-13T08:53:41.000Z</time>
      </trkpt>
      <trkpt lat="44.23319" lon="2.98546">
        <ele>805</ele>
        <time>2019-10-13T08:53:42.000Z</time>
      </trkpt>
      <trkpt lat="44.23319" lon="2.98548">
        <ele>805</ele>
        <time>2019-10-13T08:53:43.000Z</time>
      </trkpt>
      <trkpt lat="44.23318" lon="2.9855">
        <ele>805</ele>
        <time>2019-10-13T08:53:44.000Z</time>
      </trkpt>
      <trkpt lat="44.23318" lon="2.98552">
        <ele>805</ele>
        <time>2019-10-13T08:53:45.000Z</time>
      </trkpt>
      <trkpt lat="44.23318" lon="2.98554">
        <ele>806</ele>
        <time>2019-10-13T08:53:46.000Z</time>
      </trkpt>
      <trkpt lat="44.23317" lon="2.98555">
        <ele>806</ele>
        <time>2019-10-13T08:53:47.000Z</time>
      </trkpt>
      <trkpt lat="44.23317" lon="2.98557">
        <ele>806</ele>
        <time>2019-10-13T08:53:48.000Z</time>
      </trkpt>
      <trkpt lat="44.23317" lon="2.98559">
        <ele>806</ele>
        <time>2019-10-13T08:53:49.000Z</time>
      </trkpt>
      <trkpt lat="44.23316" lon="2.98561">
        <ele>806</ele>
        <time>2019-10-13T08:53:50.000Z</time>
      </trkpt>
      <trkpt lat="44.23316" lon="2.98563">
        <ele>807</ele>
        <time>2019-10-13T08:53:51.000Z</time>
      </trkpt>
      <trkpt lat="44.23316" lon="2.98565">
        <ele>807</ele>
        <time>2019-10-13T08:53:52.000Z</time>
      </trkpt>
      <trkpt lat="44.23315" lon="2.98567">
        <ele>807</ele>
        <time>2019-10-13T08:53:53.000Z</time>
      </trkpt>
      <trkpt lat="44.23315" lon="2.9857">
        <ele>808</ele>
        <time>2019-10-13T08:53:54.000Z</time>
      </trkpt>
      <trkpt lat="44.23315" lon="2.98571">
        <ele>808</ele>
        <time>2019-10-13T08:53:55.000Z</time>
      </trkpt>
      <trkpt lat="44.23315" lon="2.98573">
        <ele>808</ele>
        <time>2019-10-13T08:53:56.000Z</time>
      </trkpt>
      <trkpt lat="44.23314" lon="2.98575">
        <ele>809</ele>
        <time>2019-10-13T08:53:57.000Z</time>
      </trkpt>
      <trkpt lat="44.23314" lon="2.98576">
        <ele>809</ele>
        <time>2019-10-13T08:53:58.000Z</time>
      </trkpt>
      <trkpt lat="44.23315" lon="2.98578">
        <ele>809</ele>
        <time>2019-10-13T08:53:59.000Z</time>
      </trkpt>
      <trkpt lat="44.23315" lon="2.9858">
        <ele>810</ele>
        <time>2019-10-13T08:54:00.000Z</time>
      </trkpt>
      <trkpt lat="44.23315" lon="2.98582">
        <ele>810</ele>
        <time>2019-10-13T08:54:01.000Z</time>
      </trkpt>
      <trkpt lat="44.23315" lon="2.98583">
        <ele>811</ele>
        <time>2019-10-13T08:54:02.000Z</time>
      </trkpt>
      <trkpt lat="44.23315" lon="2.98585">
        <ele>811</ele>
        <time>2019-10-13T08:54:03.000Z</time>
      </trkpt>
      <trkpt lat="44.23315" lon="2.98587">
        <ele>811</ele>
        <time>2019-10-13T08:54:04.000Z</time>
      </trkpt>
      <trkpt lat="44.23315" lon="2.98589">
        <ele>812</ele>
        <time>2019-10-13T08:54:05.000Z</time>
      </trkpt>
      <trkpt lat="44.23315" lon="2.98591">
        <ele>812</ele>
        <time>2019-10-13T08:54:06.000Z</time>
      </trkpt>
      <trkpt lat="44.23316" lon="2.98593">
        <ele>812</ele>
        <time>2019-10-13T08:54:07.000Z</time>
      </trkpt>
      <trkpt lat="44.23316" lon="2.98595">
        <ele>813</ele>
        <time>2019-10-13T08:54:08.000Z</time>
      </trkpt>
      <trkpt lat="44.23316" lon="2.98597">
        <ele>813</ele>
        <time>2019-10-13T08:54:09.000Z</time>
      </trkpt>
      <trkpt lat="44.23316" lon="2.98599">
        <ele>813</ele>
        <time>2019-10-13T08:54:10.000Z</time>
      </trkpt>
      <trkpt lat="44.23316" lon="2.986">
        <ele>813</ele>
        <time>2019-10-13T08:54:11.000Z</time>
      </trkpt>
      <trkpt lat="44.23317" lon="2.98602">
        <ele>814</ele>
        <time>2019-10-13T08:54:12.000Z</time>
      </trkpt>
      <trkpt lat="44.23317" lon="2.98604">
        <ele>814</ele>
        <time>2019-10-13T08:54:13.000Z</time>
      </trkpt>
      <trkpt lat="44.23317" lon="2.98607">
        <ele>814</ele>
        <time>2019-10-13T08:54:14.000Z</time>
      </trkpt>
      <trkpt lat="44.23317" lon="2.98609">
        <ele>814</ele>
        <time>2019-10-13T08:54:15.000Z</time>
      </trkpt>
      <trkpt lat="44.23318" lon="2.98611">
        <ele>815</ele>
        <time>2019-10-13T08:54:16.000Z</time>
      </trkpt>
      <trkpt lat="44.23318" lon="2.98613">
        <ele>815</ele>
        <time>2019-10-13T08:54:17.000Z</time>
      </trkpt>
      <trkpt lat="44.23319" lon="2.98615">
        <ele>815</ele>
        <time>2019-10-13T08:54:18.000Z</time>
      </trkpt>
      <trkpt lat="44.23319" lon="2.98617">
        <ele>815</ele>
        <time>2019-10-13T08:54:19.000Z</time>
      </trkpt>
      <trkpt lat="44.23319" lon="2.98619">
        <ele>816</ele>
        <time>2019-10-13T08:54:20.000Z</time>
      </trkpt>
      <trkpt lat="44.2332" lon="2.98621">
        <ele>816</ele>
        <time>2019-10-13T08:54:21.000Z</time>
      </trkpt>
      <trkpt lat="44.2332" lon="2.98624">
        <ele>816</ele>
        <time>2019-10-13T08:54:22.000Z</time>
      </trkpt>
      <trkpt lat="44.23321" lon="2.98626">
        <ele>817</ele>
        <time>2019-10-13T08:54:23.000Z</time>
      </trkpt>
      <trkpt lat="44.23321" lon="2.98628">
        <ele>817</ele>
        <time>2019-10-13T08:54:24.000Z</time>
      </trkpt>
      <trkpt lat="44.23321" lon="2.9863">
        <ele>817</ele>
        <time>2019-10-13T08:54:25.000Z</time>
      </trkpt>
      <trkpt lat="44.23322" lon="2.98632">
        <ele>817</ele>
        <time>2019-10-13T08:54:26.000Z</time>
      </trkpt>
      <trkpt lat="44.23322" lon="2.98635">
        <ele>817</ele>
        <time>2019-10-13T08:54:27.000Z</time>
      </trkpt>
      <trkpt lat="44.23322" lon="2.98637">
        <ele>818</ele>
        <time>2019-10-13T08:54:28.000Z</time>
      </trkpt>
      <trkpt lat="44.23322" lon="2.98639">
        <ele>818</ele>
        <time>2019-10-13T08:54:29.000Z</time>
      </trkpt>
      <trkpt lat="44.23323" lon="2.98641">
        <ele>818</ele>
        <time>2019-10-13T08:54:30.000Z</time>
      </trkpt>
      <trkpt lat="44.23323" lon="2.98642">
        <ele>818</ele>
        <time>2019-10-13T08:54:31.000Z</time>
      </trkpt>
      <trkpt lat="44.23323" lon="2.98644">
        <ele>819</ele>
        <time>2019-10-13T08:54:32.000Z</time>
      </trkpt>
      <trkpt lat="44.23323" lon="2.98646">
        <ele>819</ele>
        <time>2019-10-13T08:54:33.000Z</time>
      </trkpt>
      <trkpt lat="44.23324" lon="2.98648">
        <ele>819</ele>
        <time>2019-10-13T08:54:34.000Z</time>
      </trkpt>
      <trkpt lat="44.23324" lon="2.9865">
        <ele>819</ele>
        <time>2019-10-13T08:54:35.000Z</time>
      </trkpt>
      <trkpt lat="44.23325" lon="2.98651">
        <ele>819</ele>
        <time>2019-10-13T08:54:36.000Z</time>
      </trkpt>
      <trkpt lat="44.23325" lon="2.98653">
        <ele>820</ele>
        <time>2019-10-13T08:54:37.000Z</time>
      </trkpt>
      <trkpt lat="44.23326" lon="2.98655">
        <ele>820</ele>
        <time>2019-10-13T08:54:38.000Z</time>
      </trkpt>
      <trkpt lat="44.23326" lon="2.98657">
        <ele>820</ele>
        <time>2019-10-13T08:54:39.000Z</time>
      </trkpt>
      <trkpt lat="44.23326" lon="2.98659">
        <ele>820</ele>
        <time>2019-10-13T08:54:40.000Z</time>
      </trkpt>
      <trkpt lat="44.23327" lon="2.98661">
        <ele>820</ele>
        <time>2019-10-13T08:54:41.000Z</time>
      </trkpt>
      <trkpt lat="44.23327" lon="2.98662">
        <ele>820</ele>
        <time>2019-10-13T08:54:42.000Z</time>
      </trkpt>
      <trkpt lat="44.23327" lon="2.98664">
        <ele>821</ele>
        <time>2019-10-13T08:54:43.000Z</time>
      </trkpt>
      <trkpt lat="44.23327" lon="2.98666">
        <ele>821</ele>
        <time>2019-10-13T08:54:44.000Z</time>
      </trkpt>
      <trkpt lat="44.23327" lon="2.98668">
        <ele>821</ele>
        <time>2019-10-13T08:54:45.000Z</time>
      </trkpt>
      <trkpt lat="44.23327" lon="2.9867">
        <ele>821</ele>
        <time>2019-10-13T08:54:46.000Z</time>
      </trkpt>
      <trkpt lat="44.23328" lon="2.98671">
        <ele>821</ele>
        <time>2019-10-13T08:54:47.000Z</time>
      </trkpt>
      <trkpt lat="44.23328" lon="2.98674">
        <ele>822</ele>
        <time>2019-10-13T08:54:48.000Z</time>
      </trkpt>
      <trkpt lat="44.23328" lon="2.98675">
        <ele>822</ele>
        <time>2019-10-13T08:54:49.000Z</time>
      </trkpt>
      <trkpt lat="44.23329" lon="2.98677">
        <ele>822</ele>
        <time>2019-10-13T08:54:50.000Z</time>
      </trkpt>
      <trkpt lat="44.23329" lon="2.98679">
        <ele>823</ele>
        <time>2019-10-13T08:54:51.000Z</time>
      </trkpt>
      <trkpt lat="44.23329" lon="2.98681">
        <ele>823</ele>
        <time>2019-10-13T08:54:52.000Z</time>
      </trkpt>
      <trkpt lat="44.2333" lon="2.98683">
        <ele>823</ele>
        <time>2019-10-13T08:54:53.000Z</time>
      </trkpt>
      <trkpt lat="44.2333" lon="2.98685">
        <ele>823</ele>
        <time>2019-10-13T08:54:54.000Z</time>
      </trkpt>
      <trkpt lat="44.23331" lon="2.98686">
        <ele>824</ele>
        <time>2019-10-13T08:54:55.000Z</time>
      </trkpt>
      <trkpt lat="44.23331" lon="2.98688">
        <ele>824</ele>
        <time>2019-10-13T08:54:56.000Z</time>
      </trkpt>
      <trkpt lat="44.23331" lon="2.9869">
        <ele>824</ele>
        <time>2019-10-13T08:54:57.000Z</time>
      </trkpt>
      <trkpt lat="44.23331" lon="2.98691">
        <ele>824</ele>
        <time>2019-10-13T08:54:58.000Z</time>
      </trkpt>
      <trkpt lat="44.23331" lon="2.98693">
        <ele>824</ele>
        <time>2019-10-13T08:54:59.000Z</time>
      </trkpt>
      <trkpt lat="44.23331" lon="2.98694">
        <ele>824</ele>
        <time>2019-10-13T08:55:00.000Z</time>
      </trkpt>
      <trkpt lat="44.23331" lon="2.98696">
        <ele>824</ele>
        <time>2019-10-13T08:55:01.000Z</time>
      </trkpt>
      <trkpt lat="44.23331" lon="2.98697">
        <ele>825</ele>
        <time>2019-10-13T08:55:02.000Z</time>
      </trkpt>
      <trkpt lat="44.23331" lon="2.98699">
        <ele>825</ele>
        <time>2019-10-13T08:55:03.000Z</time>
      </trkpt>
      <trkpt lat="44.23332" lon="2.987">
        <ele>825</ele>
        <time>2019-10-13T08:55:04.000Z</time>
      </trkpt>
      <trkpt lat="44.23332" lon="2.98702">
        <ele>825</ele>
        <time>2019-10-13T08:55:05.000Z</time>
      </trkpt>
      <trkpt lat="44.23332" lon="2.98704">
        <ele>825</ele>
        <time>2019-10-13T08:55:06.000Z</time>
      </trkpt>
      <trkpt lat="44.23332" lon="2.98706">
        <ele>825</ele>
        <time>2019-10-13T08:55:07.000Z</time>
      </trkpt>
      <trkpt lat="44.23333" lon="2.98707">
        <ele>826</ele>
        <time>2019-10-13T08:55:08.000Z</time>
      </trkpt>
      <trkpt lat="44.23333" lon="2.98709">
        <ele>826</ele>
        <time>2019-10-13T08:55:09.000Z</time>
      </trkpt>
      <trkpt lat="44.23334" lon="2.98711">
        <ele>826</ele>
        <time>2019-10-13T08:55:10.000Z</time>
      </trkpt>
      <trkpt lat="44.23334" lon="2.98713">
        <ele>826</ele>
        <time>2019-10-13T08:55:11.000Z</time>
      </trkpt>
      <trkpt lat="44.23334" lon="2.98715">
        <ele>827</ele>
        <time>2019-10-13T08:55:12.000Z</time>
      </trkpt>
      <trkpt lat="44.23334" lon="2.98716">
        <ele>827</ele>
        <time>2019-10-13T08:55:13.000Z</time>
      </trkpt>
      <trkpt lat="44.23334" lon="2.98718">
        <ele>827</ele>
        <time>2019-10-13T08:55:14.000Z</time>
      </trkpt>
      <trkpt lat="44.23334" lon="2.9872">
        <ele>828</ele>
        <time>2019-10-13T08:55:15.000Z</time>
      </trkpt>
      <trkpt lat="44.23334" lon="2.98722">
        <ele>828</ele>
        <time>2019-10-13T08:55:16.000Z</time>
      </trkpt>
      <trkpt lat="44.23335" lon="2.98724">
        <ele>828</ele>
        <time>2019-10-13T08:55:17.000Z</time>
      </trkpt>
      <trkpt lat="44.23335" lon="2.98726">
        <ele>828</ele>
        <time>2019-10-13T08:55:18.000Z</time>
      </trkpt>
      <trkpt lat="44.23335" lon="2.98728">
        <ele>829</ele>
        <time>2019-10-13T08:55:19.000Z</time>
      </trkpt>
      <trkpt lat="44.23336" lon="2.9873">
        <ele>829</ele>
        <time>2019-10-13T08:55:20.000Z</time>
      </trkpt>
      <trkpt lat="44.23336" lon="2.98731">
        <ele>829</ele>
        <time>2019-10-13T08:55:21.000Z</time>
      </trkpt>
      <trkpt lat="44.23337" lon="2.98733">
        <ele>830</ele>
        <time>2019-10-13T08:55:22.000Z</time>
      </trkpt>
      <trkpt lat="44.23337" lon="2.98735">
        <ele>830</ele>
        <time>2019-10-13T08:55:23.000Z</time>
      </trkpt>
      <trkpt lat="44.23338" lon="2.98737">
        <ele>830</ele>
        <time>2019-10-13T08:55:24.000Z</time>
      </trkpt>
      <trkpt lat="44.23338" lon="2.98739">
        <ele>830</ele>
        <time>2019-10-13T08:55:25.000Z</time>
      </trkpt>
      <trkpt lat="44.23339" lon="2.98741">
        <ele>831</ele>
        <time>2019-10-13T08:55:26.000Z</time>
      </trkpt>
      <trkpt lat="44.23339" lon="2.98743">
        <ele>831</ele>
        <time>2019-10-13T08:55:27.000Z</time>
      </trkpt>
      <trkpt lat="44.23339" lon="2.98745">
        <ele>832</ele>
        <time>2019-10-13T08:55:28.000Z</time>
      </trkpt>
      <trkpt lat="44.23339" lon="2.98747">
        <ele>832</ele>
        <time>2019-10-13T08:55:29.000Z</time>
      </trkpt>
      <trkpt lat="44.23339" lon="2.98749">
        <ele>832</ele>
        <time>2019-10-13T08:55:30.000Z</time>
      </trkpt>
      <trkpt lat="44.23339" lon="2.98751">
        <ele>833</ele>
        <time>2019-10-13T08:55:31.000Z</time>
      </trkpt>
      <trkpt lat="44.23338" lon="2.98753">
        <ele>833</ele>
        <time>2019-10-13T08:55:32.000Z</time>
      </trkpt>
      <trkpt lat="44.23338" lon="2.98754">
        <ele>834</ele>
        <time>2019-10-13T08:55:33.000Z</time>
      </trkpt>
      <trkpt lat="44.23337" lon="2.98755">
        <ele>834</ele>
        <time>2019-10-13T08:55:34.000Z</time>
      </trkpt>
      <trkpt lat="44.23336" lon="2.98756">
        <ele>834</ele>
        <time>2019-10-13T08:55:35.000Z</time>
      </trkpt>
      <trkpt lat="44.23335" lon="2.98756">
        <ele>835</ele>
        <time>2019-10-13T08:55:36.000Z</time>
      </trkpt>
      <trkpt lat="44.23334" lon="2.98757">
        <ele>835</ele>
        <time>2019-10-13T08:55:37.000Z</time>
      </trkpt>
      <trkpt lat="44.23332" lon="2.98757">
        <ele>835</ele>
        <time>2019-10-13T08:55:38.000Z</time>
      </trkpt>
      <trkpt lat="44.23331" lon="2.98757">
        <ele>836</ele>
        <time>2019-10-13T08:55:39.000Z</time>
      </trkpt>
      <trkpt lat="44.2333" lon="2.98757">
        <ele>836</ele>
        <time>2019-10-13T08:55:40.000Z</time>
      </trkpt>
      <trkpt lat="44.23328" lon="2.98758">
        <ele>836</ele>
        <time>2019-10-13T08:55:41.000Z</time>
      </trkpt>
      <trkpt lat="44.23327" lon="2.98758">
        <ele>836</ele>
        <time>2019-10-13T08:55:42.000Z</time>
      </trkpt>
      <trkpt lat="44.23325" lon="2.98758">
        <ele>836</ele>
        <time>2019-10-13T08:55:43.000Z</time>
      </trkpt>
      <trkpt lat="44.23324" lon="2.98758">
        <ele>837</ele>
        <time>2019-10-13T08:55:44.000Z</time>
      </trkpt>
      <trkpt lat="44.23322" lon="2.98758">
        <ele>837</ele>
        <time>2019-10-13T08:55:45.000Z</time>
      </trkpt>
      <trkpt lat="44.23321" lon="2.98758">
        <ele>837</ele>
        <time>2019-10-13T08:55:46.000Z</time>
      </trkpt>
      <trkpt lat="44.23319" lon="2.98758">
        <ele>837</ele>
        <time>2019-10-13T08:55:47.000Z</time>
      </trkpt>
      <trkpt lat="44.23318" lon="2.98758">
        <ele>837</ele>
        <time>2019-10-13T08:55:48.000Z</time>
      </trkpt>
      <trkpt lat="44.23316" lon="2.98758">
        <ele>837</ele>
        <time>2019-10-13T08:55:49.000Z</time>
      </trkpt>
      <trkpt lat="44.23314" lon="2.98758">
        <ele>837</ele>
        <time>2019-10-13T08:55:50.000Z</time>
      </trkpt>
      <trkpt lat="44.23313" lon="2.98757">
        <ele>837</ele>
        <time>2019-10-13T08:55:51.000Z</time>
      </trkpt>
      <trkpt lat="44.23311" lon="2.98757">
        <ele>837</ele>
        <time>2019-10-13T08:55:52.000Z</time>
      </trkpt>
      <trkpt lat="44.2331" lon="2.98756">
        <ele>837</ele>
        <time>2019-10-13T08:55:53.000Z</time>
      </trkpt>
      <trkpt lat="44.23309" lon="2.98756">
        <ele>837</ele>
        <time>2019-10-13T08:55:54.000Z</time>
      </trkpt>
      <trkpt lat="44.23307" lon="2.98756">
        <ele>837</ele>
        <time>2019-10-13T08:55:55.000Z</time>
      </trkpt>
      <trkpt lat="44.23306" lon="2.98756">
        <ele>837</ele>
        <time>2019-10-13T08:55:56.000Z</time>
      </trkpt>
      <trkpt lat="44.23305" lon="2.98756">
        <ele>837</ele>
        <time>2019-10-13T08:55:57.000Z</time>
      </trkpt>
      <trkpt lat="44.23303" lon="2.98756">
        <ele>837</ele>
        <time>2019-10-13T08:55:58.000Z</time>
      </trkpt>
      <trkpt lat="44.23301" lon="2.98756">
        <ele>837</ele>
        <time>2019-10-13T08:55:59.000Z</time>
      </trkpt>
      <trkpt lat="44.233" lon="2.98756">
        <ele>837</ele>
        <time>2019-10-13T08:56:00.000Z</time>
      </trkpt>
      <trkpt lat="44.23299" lon="2.98756">
        <ele>837</ele>
        <time>2019-10-13T08:56:01.000Z</time>
      </trkpt>
      <trkpt lat="44.23297" lon="2.98756">
        <ele>837</ele>
        <time>2019-10-13T08:56:02.000Z</time>
      </trkpt>
      <trkpt lat="44.23296" lon="2.98756">
        <ele>837</ele>
        <time>2019-10-13T08:56:03.000Z</time>
      </trkpt>
      <trkpt lat="44.23294" lon="2.98756">
        <ele>837</ele>
        <time>2019-10-13T08:56:04.000Z</time>
      </trkpt>
      <trkpt lat="44.23292" lon="2.98756">
        <ele>838</ele>
        <time>2019-10-13T08:56:05.000Z</time>
      </trkpt>
      <trkpt lat="44.2329" lon="2.98755">
        <ele>838</ele>
        <time>2019-10-13T08:56:06.000Z</time>
      </trkpt>
      <trkpt lat="44.23289" lon="2.98755">
        <ele>838</ele>
        <time>2019-10-13T08:56:07.000Z</time>
      </trkpt>
      <trkpt lat="44.23287" lon="2.98755">
        <ele>838</ele>
        <time>2019-10-13T08:56:08.000Z</time>
      </trkpt>
      <trkpt lat="44.23286" lon="2.98755">
        <ele>838</ele>
        <time>2019-10-13T08:56:09.000Z</time>
      </trkpt>
      <trkpt lat="44.23285" lon="2.98754">
        <ele>838</ele>
        <time>2019-10-13T08:56:10.000Z</time>
      </trkpt>
      <trkpt lat="44.23283" lon="2.98754">
        <ele>838</ele>
        <time>2019-10-13T08:56:11.000Z</time>
      </trkpt>
      <trkpt lat="44.23282" lon="2.98754">
        <ele>838</ele>
        <time>2019-10-13T08:56:12.000Z</time>
      </trkpt>
      <trkpt lat="44.23281" lon="2.98753">
        <ele>838</ele>
        <time>2019-10-13T08:56:13.000Z</time>
      </trkpt>
      <trkpt lat="44.23279" lon="2.98753">
        <ele>838</ele>
        <time>2019-10-13T08:56:14.000Z</time>
      </trkpt>
      <trkpt lat="44.23278" lon="2.98753">
        <ele>838</ele>
        <time>2019-10-13T08:56:15.000Z</time>
      </trkpt>
      <trkpt lat="44.23276" lon="2.98752">
        <ele>838</ele>
        <time>2019-10-13T08:56:16.000Z</time>
      </trkpt>
      <trkpt lat="44.23275" lon="2.98752">
        <ele>838</ele>
        <time>2019-10-13T08:56:17.000Z</time>
      </trkpt>
      <trkpt lat="44.23273" lon="2.98752">
        <ele>838</ele>
        <time>2019-10-13T08:56:18.000Z</time>
      </trkpt>
      <trkpt lat="44.23272" lon="2.98752">
        <ele>838</ele>
        <time>2019-10-13T08:56:19.000Z</time>
      </trkpt>
      <trkpt lat="44.2327" lon="2.98752">
        <ele>838</ele>
        <time>2019-10-13T08:56:20.000Z</time>
      </trkpt>
      <trkpt lat="44.23269" lon="2.98752">
        <ele>838</ele>
        <time>2019-10-13T08:56:21.000Z</time>
      </trkpt>
      <trkpt lat="44.23267" lon="2.98751">
        <ele>838</ele>
        <time>2019-10-13T08:56:22.000Z</time>
      </trkpt>
      <trkpt lat="44.23266" lon="2.98751">
        <ele>838</ele>
        <time>2019-10-13T08:56:23.000Z</time>
      </trkpt>
      <trkpt lat="44.23264" lon="2.98751">
        <ele>838</ele>
        <time>2019-10-13T08:56:24.000Z</time>
      </trkpt>
      <trkpt lat="44.23263" lon="2.9875">
        <ele>838</ele>
        <time>2019-10-13T08:56:25.000Z</time>
      </trkpt>
      <trkpt lat="44.23262" lon="2.9875">
        <ele>838</ele>
        <time>2019-10-13T08:56:26.000Z</time>
      </trkpt>
      <trkpt lat="44.2326" lon="2.9875">
        <ele>838</ele>
        <time>2019-10-13T08:56:27.000Z</time>
      </trkpt>
      <trkpt lat="44.23259" lon="2.9875">
        <ele>838</ele>
        <time>2019-10-13T08:56:28.000Z</time>
      </trkpt>
      <trkpt lat="44.23257" lon="2.98749">
        <ele>838</ele>
        <time>2019-10-13T08:56:29.000Z</time>
      </trkpt>
      <trkpt lat="44.23256" lon="2.98749">
        <ele>838</ele>
        <time>2019-10-13T08:56:30.000Z</time>
      </trkpt>
      <trkpt lat="44.23255" lon="2.98748">
        <ele>837</ele>
        <time>2019-10-13T08:56:31.000Z</time>
      </trkpt>
      <trkpt lat="44.23253" lon="2.98748">
        <ele>837</ele>
        <time>2019-10-13T08:56:32.000Z</time>
      </trkpt>
      <trkpt lat="44.23252" lon="2.98748">
        <ele>837</ele>
        <time>2019-10-13T08:56:33.000Z</time>
      </trkpt>
      <trkpt lat="44.2325" lon="2.98747">
        <ele>837</ele>
        <time>2019-10-13T08:56:34.000Z</time>
      </trkpt>
      <trkpt lat="44.23249" lon="2.98747">
        <ele>837</ele>
        <time>2019-10-13T08:56:35.000Z</time>
      </trkpt>
      <trkpt lat="44.23247" lon="2.98746">
        <ele>837</ele>
        <time>2019-10-13T08:56:36.000Z</time>
      </trkpt>
      <trkpt lat="44.23246" lon="2.98746">
        <ele>837</ele>
        <time>2019-10-13T08:56:37.000Z</time>
      </trkpt>
      <trkpt lat="44.23244" lon="2.98745">
        <ele>837</ele>
        <time>2019-10-13T08:56:38.000Z</time>
      </trkpt>
      <trkpt lat="44.23243" lon="2.98744">
        <ele>837</ele>
        <time>2019-10-13T08:56:39.000Z</time>
      </trkpt>
      <trkpt lat="44.23241" lon="2.98744">
        <ele>837</ele>
        <time>2019-10-13T08:56:40.000Z</time>
      </trkpt>
      <trkpt lat="44.2324" lon="2.98743">
        <ele>837</ele>
        <time>2019-10-13T08:56:41.000Z</time>
      </trkpt>
      <trkpt lat="44.23238" lon="2.98743">
        <ele>837</ele>
        <time>2019-10-13T08:56:42.000Z</time>
      </trkpt>
      <trkpt lat="44.23237" lon="2.98742">
        <ele>837</ele>
        <time>2019-10-13T08:56:43.000Z</time>
      </trkpt>
      <trkpt lat="44.23236" lon="2.98741">
        <ele>837</ele>
        <time>2019-10-13T08:56:44.000Z</time>
      </trkpt>
      <trkpt lat="44.23234" lon="2.98741">
        <ele>837</ele>
        <time>2019-10-13T08:56:45.000Z</time>
      </trkpt>
      <trkpt lat="44.23233" lon="2.9874">
        <ele>837</ele>
        <time>2019-10-13T08:56:46.000Z</time>
      </trkpt>
      <trkpt lat="44.23231" lon="2.98739">
        <ele>837</ele>
        <time>2019-10-13T08:56:47.000Z</time>
      </trkpt>
      <trkpt lat="44.2323" lon="2.98738">
        <ele>837</ele>
        <time>2019-10-13T08:56:48.000Z</time>
      </trkpt>
      <trkpt lat="44.23229" lon="2.98737">
        <ele>837</ele>
        <time>2019-10-13T08:56:49.000Z</time>
      </trkpt>
      <trkpt lat="44.23227" lon="2.98736">
        <ele>837</ele>
        <time>2019-10-13T08:56:50.000Z</time>
      </trkpt>
      <trkpt lat="44.23226" lon="2.98735">
        <ele>836</ele>
        <time>2019-10-13T08:56:51.000Z</time>
      </trkpt>
      <trkpt lat="44.23224" lon="2.98735">
        <ele>836</ele>
        <time>2019-10-13T08:56:52.000Z</time>
      </trkpt>
      <trkpt lat="44.23222" lon="2.98734">
        <ele>836</ele>
        <time>2019-10-13T08:56:53.000Z</time>
      </trkpt>
      <trkpt lat="44.2322" lon="2.98734">
        <ele>836</ele>
        <time>2019-10-13T08:56:54.000Z</time>
      </trkpt>
      <trkpt lat="44.23218" lon="2.98733">
        <ele>836</ele>
        <time>2019-10-13T08:56:55.000Z</time>
      </trkpt>
      <trkpt lat="44.23217" lon="2.98733">
        <ele>836</ele>
        <time>2019-10-13T08:56:56.000Z</time>
      </trkpt>
      <trkpt lat="44.23215" lon="2.98733">
        <ele>836</ele>
        <time>2019-10-13T08:56:57.000Z</time>
      </trkpt>
      <trkpt lat="44.23213" lon="2.98733">
        <ele>835</ele>
        <time>2019-10-13T08:56:58.000Z</time>
      </trkpt>
      <trkpt lat="44.23211" lon="2.98734">
        <ele>835</ele>
        <time>2019-10-13T08:56:59.000Z</time>
      </trkpt>
      <trkpt lat="44.2321" lon="2.98734">
        <ele>835</ele>
        <time>2019-10-13T08:57:00.000Z</time>
      </trkpt>
      <trkpt lat="44.23208" lon="2.98734">
        <ele>835</ele>
        <time>2019-10-13T08:57:01.000Z</time>
      </trkpt>
      <trkpt lat="44.23207" lon="2.98734">
        <ele>835</ele>
        <time>2019-10-13T08:57:02.000Z</time>
      </trkpt>
      <trkpt lat="44.23205" lon="2.98734">
        <ele>835</ele>
        <time>2019-10-13T08:57:03.000Z</time>
      </trkpt>
      <trkpt lat="44.23204" lon="2.98734">
        <ele>835</ele>
        <time>2019-10-13T08:57:04.000Z</time>
      </trkpt>
      <trkpt lat="44.23203" lon="2.98734">
        <ele>835</ele>
        <time>2019-10-13T08:57:05.000Z</time>
      </trkpt>
      <trkpt lat="44.23201" lon="2.98734">
        <ele>836</ele>
        <time>2019-10-13T08:57:06.000Z</time>
      </trkpt>
      <trkpt lat="44.232" lon="2.98734">
        <ele>836</ele>
        <time>2019-10-13T08:57:07.000Z</time>
      </trkpt>
      <trkpt lat="44.23199" lon="2.98734">
        <ele>835</ele>
        <time>2019-10-13T08:57:08.000Z</time>
      </trkpt>
      <trkpt lat="44.23198" lon="2.98734">
        <ele>835</ele>
        <time>2019-10-13T08:57:09.000Z</time>
      </trkpt>
      <trkpt lat="44.23196" lon="2.98734">
        <ele>835</ele>
        <time>2019-10-13T08:57:10.000Z</time>
      </trkpt>
      <trkpt lat="44.23195" lon="2.98734">
        <ele>836</ele>
        <time>2019-10-13T08:57:11.000Z</time>
      </trkpt>
      <trkpt lat="44.23193" lon="2.98733">
        <ele>836</ele>
        <time>2019-10-13T08:57:12.000Z</time>
      </trkpt>
      <trkpt lat="44.23192" lon="2.98733">
        <ele>836</ele>
        <time>2019-10-13T08:57:13.000Z</time>
      </trkpt>
      <trkpt lat="44.2319" lon="2.98733">
        <ele>836</ele>
        <time>2019-10-13T08:57:14.000Z</time>
      </trkpt>
      <trkpt lat="44.23189" lon="2.98733">
        <ele>836</ele>
        <time>2019-10-13T08:57:15.000Z</time>
      </trkpt>
      <trkpt lat="44.23188" lon="2.98733">
        <ele>836</ele>
        <time>2019-10-13T08:57:16.000Z</time>
      </trkpt>
      <trkpt lat="44.23186" lon="2.98733">
        <ele>836</ele>
        <time>2019-10-13T08:57:17.000Z</time>
      </trkpt>
      <trkpt lat="44.23185" lon="2.98732">
        <ele>836</ele>
        <time>2019-10-13T08:57:18.000Z</time>
      </trkpt>
      <trkpt lat="44.23183" lon="2.98732">
        <ele>836</ele>
        <time>2019-10-13T08:57:19.000Z</time>
      </trkpt>
      <trkpt lat="44.23182" lon="2.98732">
        <ele>836</ele>
        <time>2019-10-13T08:57:20.000Z</time>
      </trkpt>
      <trkpt lat="44.23181" lon="2.98732">
        <ele>836</ele>
        <time>2019-10-13T08:57:21.000Z</time>
      </trkpt>
      <trkpt lat="44.2318" lon="2.98732">
        <ele>836</ele>
        <time>2019-10-13T08:57:22.000Z</time>
      </trkpt>
      <trkpt lat="44.23178" lon="2.98732">
        <ele>836</ele>
        <time>2019-10-13T08:57:23.000Z</time>
      </trkpt>
      <trkpt lat="44.23177" lon="2.98731">
        <ele>836</ele>
        <time>2019-10-13T08:57:24.000Z</time>
      </trkpt>
      <trkpt lat="44.23175" lon="2.98731">
        <ele>836</ele>
        <time>2019-10-13T08:57:25.000Z</time>
      </trkpt>
      <trkpt lat="44.23174" lon="2.98731">
        <ele>836</ele>
        <time>2019-10-13T08:57:26.000Z</time>
      </trkpt>
      <trkpt lat="44.23173" lon="2.98732">
        <ele>836</ele>
        <time>2019-10-13T08:57:27.000Z</time>
      </trkpt>
      <trkpt lat="44.23171" lon="2.98732">
        <ele>836</ele>
        <time>2019-10-13T08:57:28.000Z</time>
      </trkpt>
      <trkpt lat="44.23168" lon="2.98732">
        <ele>837</ele>
        <time>2019-10-13T08:57:29.000Z</time>
      </trkpt>
      <trkpt lat="44.23166" lon="2.98732">
        <ele>837</ele>
        <time>2019-10-13T08:57:30.000Z</time>
      </trkpt>
      <trkpt lat="44.23163" lon="2.98732">
        <ele>837</ele>
        <time>2019-10-13T08:57:31.000Z</time>
      </trkpt>
      <trkpt lat="44.2316" lon="2.98732">
        <ele>837</ele>
        <time>2019-10-13T08:57:32.000Z</time>
      </trkpt>
      <trkpt lat="44.23156" lon="2.98732">
        <ele>837</ele>
        <time>2019-10-13T08:57:33.000Z</time>
      </trkpt>
      <trkpt lat="44.23153" lon="2.98732">
        <ele>838</ele>
        <time>2019-10-13T08:57:34.000Z</time>
      </trkpt>
      <trkpt lat="44.2315" lon="2.98732">
        <ele>838</ele>
        <time>2019-10-13T08:57:35.000Z</time>
      </trkpt>
      <trkpt lat="44.23147" lon="2.98732">
        <ele>839</ele>
        <time>2019-10-13T08:57:36.000Z</time>
      </trkpt>
      <trkpt lat="44.23144" lon="2.98731">
        <ele>839</ele>
        <time>2019-10-13T08:57:37.000Z</time>
      </trkpt>
      <trkpt lat="44.2314" lon="2.9873">
        <ele>839</ele>
        <time>2019-10-13T08:57:38.000Z</time>
      </trkpt>
      <trkpt lat="44.23137" lon="2.98729">
        <ele>840</ele>
        <time>2019-10-13T08:57:39.000Z</time>
      </trkpt>
      <trkpt lat="44.23134" lon="2.98729">
        <ele>840</ele>
        <time>2019-10-13T08:57:40.000Z</time>
      </trkpt>
      <trkpt lat="44.23131" lon="2.98728">
        <ele>840</ele>
        <time>2019-10-13T08:57:41.000Z</time>
      </trkpt>
      <trkpt lat="44.23128" lon="2.98728">
        <ele>841</ele>
        <time>2019-10-13T08:57:42.000Z</time>
      </trkpt>
      <trkpt lat="44.23125" lon="2.98727">
        <ele>841</ele>
        <time>2019-10-13T08:57:43.000Z</time>
      </trkpt>
      <trkpt lat="44.23121" lon="2.98726">
        <ele>841</ele>
        <time>2019-10-13T08:57:44.000Z</time>
      </trkpt>
      <trkpt lat="44.23119" lon="2.98724">
        <ele>842</ele>
        <time>2019-10-13T08:57:45.000Z</time>
      </trkpt>
      <trkpt lat="44.23116" lon="2.98723">
        <ele>842</ele>
        <time>2019-10-13T08:57:46.000Z</time>
      </trkpt>
      <trkpt lat="44.23113" lon="2.98721">
        <ele>842</ele>
        <time>2019-10-13T08:57:47.000Z</time>
      </trkpt>
      <trkpt lat="44.23109" lon="2.9872">
        <ele>842</ele>
        <time>2019-10-13T08:57:48.000Z</time>
      </trkpt>
      <trkpt lat="44.23106" lon="2.98718">
        <ele>842</ele>
        <time>2019-10-13T08:57:49.000Z</time>
      </trkpt>
      <trkpt lat="44.23103" lon="2.98717">
        <ele>843</ele>
        <time>2019-10-13T08:57:50.000Z</time>
      </trkpt>
      <trkpt lat="44.231" lon="2.98716">
        <ele>843</ele>
        <time>2019-10-13T08:57:51.000Z</time>
      </trkpt>
      <trkpt lat="44.23097" lon="2.98715">
        <ele>843</ele>
        <time>2019-10-13T08:57:52.000Z</time>
      </trkpt>
      <trkpt lat="44.23093" lon="2.98715">
        <ele>844</ele>
        <time>2019-10-13T08:57:53.000Z</time>
      </trkpt>
      <trkpt lat="44.23089" lon="2.98714">
        <ele>844</ele>
        <time>2019-10-13T08:57:54.000Z</time>
      </trkpt>
      <trkpt lat="44.23086" lon="2.98713">
        <ele>844</ele>
        <time>2019-10-13T08:57:55.000Z</time>
      </trkpt>
      <trkpt lat="44.23082" lon="2.98711">
        <ele>845</ele>
        <time>2019-10-13T08:57:56.000Z</time>
      </trkpt>
      <trkpt lat="44.23079" lon="2.9871">
        <ele>845</ele>
        <time>2019-10-13T08:57:57.000Z</time>
      </trkpt>
      <trkpt lat="44.23075" lon="2.98709">
        <ele>845</ele>
        <time>2019-10-13T08:57:58.000Z</time>
      </trkpt>
      <trkpt lat="44.23072" lon="2.98708">
        <ele>846</ele>
        <time>2019-10-13T08:57:59.000Z</time>
      </trkpt>
      <trkpt lat="44.23068" lon="2.98706">
        <ele>846</ele>
        <time>2019-10-13T08:58:00.000Z</time>
      </trkpt>
      <trkpt lat="44.23064" lon="2.98705">
        <ele>846</ele>
        <time>2019-10-13T08:58:01.000Z</time>
      </trkpt>
      <trkpt lat="44.2306" lon="2.98704">
        <ele>846</ele>
        <time>2019-10-13T08:58:02.000Z</time>
      </trkpt>
      <trkpt lat="44.23056" lon="2.98703">
        <ele>846</ele>
        <time>2019-10-13T08:58:03.000Z</time>
      </trkpt>
      <trkpt lat="44.23052" lon="2.98702">
        <ele>846</ele>
        <time>2019-10-13T08:58:04.000Z</time>
      </trkpt>
      <trkpt lat="44.23048" lon="2.98701">
        <ele>847</ele>
        <time>2019-10-13T08:58:05.000Z</time>
      </trkpt>
      <trkpt lat="44.23044" lon="2.98701">
        <ele>847</ele>
        <time>2019-10-13T08:58:06.000Z</time>
      </trkpt>
      <trkpt lat="44.23041" lon="2.98701">
        <ele>847</ele>
        <time>2019-10-13T08:58:07.000Z</time>
      </trkpt>
      <trkpt lat="44.23037" lon="2.987">
        <ele>847</ele>
        <time>2019-10-13T08:58:08.000Z</time>
      </trkpt>
      <trkpt lat="44.23033" lon="2.987">
        <ele>847</ele>
        <time>2019-10-13T08:58:09.000Z</time>
      </trkpt>
      <trkpt lat="44.2303" lon="2.987">
        <ele>847</ele>
        <time>2019-10-13T08:58:10.000Z</time>
      </trkpt>
      <trkpt lat="44.23026" lon="2.987">
        <ele>847</ele>
        <time>2019-10-13T08:58:11.000Z</time>
      </trkpt>
      <trkpt lat="44.23022" lon="2.98701">
        <ele>847</ele>
        <time>2019-10-13T08:58:12.000Z</time>
      </trkpt>
      <trkpt lat="44.23018" lon="2.98701">
        <ele>847</ele>
        <time>2019-10-13T08:58:13.000Z</time>
      </trkpt>
      <trkpt lat="44.23014" lon="2.98701">
        <ele>847</ele>
        <time>2019-10-13T08:58:14.000Z</time>
      </trkpt>
      <trkpt lat="44.23011" lon="2.98701">
        <ele>847</ele>
        <time>2019-10-13T08:58:15.000Z</time>
      </trkpt>
      <trkpt lat="44.23007" lon="2.98701">
        <ele>847</ele>
        <time>2019-10-13T08:58:16.000Z</time>
      </trkpt>
      <trkpt lat="44.23003" lon="2.98701">
        <ele>848</ele>
        <time>2019-10-13T08:58:17.000Z</time>
      </trkpt>
      <trkpt lat="44.23" lon="2.98701">
        <ele>848</ele>
        <time>2019-10-13T08:58:18.000Z</time>
      </trkpt>
      <trkpt lat="44.22996" lon="2.98702">
        <ele>848</ele>
        <time>2019-10-13T08:58:19.000Z</time>
      </trkpt>
      <trkpt lat="44.22993" lon="2.98702">
        <ele>848</ele>
        <time>2019-10-13T08:58:20.000Z</time>
      </trkpt>
      <trkpt lat="44.22989" lon="2.98702">
        <ele>848</ele>
        <time>2019-10-13T08:58:21.000Z</time>
      </trkpt>
      <trkpt lat="44.22985" lon="2.98702">
        <ele>848</ele>
        <time>2019-10-13T08:58:22.000Z</time>
      </trkpt>
      <trkpt lat="44.22981" lon="2.98702">
        <ele>848</ele>
        <time>2019-10-13T08:58:23.000Z</time>
      </trkpt>
      <trkpt lat="44.22977" lon="2.98703">
        <ele>848</ele>
        <time>2019-10-13T08:58:24.000Z</time>
      </trkpt>
      <trkpt lat="44.22973" lon="2.98703">
        <ele>848</ele>
        <time>2019-10-13T08:58:25.000Z</time>
      </trkpt>
      <trkpt lat="44.2297" lon="2.98703">
        <ele>848</ele>
        <time>2019-10-13T08:58:26.000Z</time>
      </trkpt>
      <trkpt lat="44.22966" lon="2.98703">
        <ele>848</ele>
        <time>2019-10-13T08:58:27.000Z</time>
      </trkpt>
      <trkpt lat="44.22962" lon="2.98703">
        <ele>848</ele>
        <time>2019-10-13T08:58:28.000Z</time>
      </trkpt>
      <trkpt lat="44.22958" lon="2.98703">
        <ele>848</ele>
        <time>2019-10-13T08:58:29.000Z</time>
      </trkpt>
      <trkpt lat="44.22954" lon="2.98703">
        <ele>848</ele>
        <time>2019-10-13T08:58:30.000Z</time>
      </trkpt>
      <trkpt lat="44.2295" lon="2.98703">
        <ele>849</ele>
        <time>2019-10-13T08:58:31.000Z</time>
      </trkpt>
      <trkpt lat="44.22946" lon="2.98703">
        <ele>849</ele>
        <time>2019-10-13T08:58:32.000Z</time>
      </trkpt>
      <trkpt lat="44.22942" lon="2.98704">
        <ele>849</ele>
        <time>2019-10-13T08:58:33.000Z</time>
      </trkpt>
      <trkpt lat="44.22938" lon="2.98704">
        <ele>849</ele>
        <time>2019-10-13T08:58:34.000Z</time>
      </trkpt>
      <trkpt lat="44.22934" lon="2.98704">
        <ele>849</ele>
        <time>2019-10-13T08:58:35.000Z</time>
      </trkpt>
      <trkpt lat="44.2293" lon="2.98704">
        <ele>849</ele>
        <time>2019-10-13T08:58:36.000Z</time>
      </trkpt>
      <trkpt lat="44.22926" lon="2.98704">
        <ele>849</ele>
        <time>2019-10-13T08:58:37.000Z</time>
      </trkpt>
      <trkpt lat="44.22922" lon="2.98704">
        <ele>849</ele>
        <time>2019-10-13T08:58:38.000Z</time>
      </trkpt>
      <trkpt lat="44.22918" lon="2.98703">
        <ele>849</ele>
        <time>2019-10-13T08:58:39.000Z</time>
      </trkpt>
      <trkpt lat="44.22915" lon="2.98703">
        <ele>850</ele>
        <time>2019-10-13T08:58:40.000Z</time>
      </trkpt>
      <trkpt lat="44.22911" lon="2.98703">
        <ele>850</ele>
        <time>2019-10-13T08:58:41.000Z</time>
      </trkpt>
      <trkpt lat="44.22908" lon="2.98703">
        <ele>850</ele>
        <time>2019-10-13T08:58:42.000Z</time>
      </trkpt>
      <trkpt lat="44.22904" lon="2.98703">
        <ele>850</ele>
        <time>2019-10-13T08:58:43.000Z</time>
      </trkpt>
      <trkpt lat="44.22901" lon="2.98703">
        <ele>850</ele>
        <time>2019-10-13T08:58:44.000Z</time>
      </trkpt>
      <trkpt lat="44.22898" lon="2.98702">
        <ele>850</ele>
        <time>2019-10-13T08:58:45.000Z</time>
      </trkpt>
      <trkpt lat="44.22894" lon="2.98702">
        <ele>850</ele>
        <time>2019-10-13T08:58:46.000Z</time>
      </trkpt>
      <trkpt lat="44.22891" lon="2.98701">
        <ele>850</ele>
        <time>2019-10-13T08:58:47.000Z</time>
      </trkpt>
      <trkpt lat="44.22887" lon="2.987">
        <ele>850</ele>
        <time>2019-10-13T08:58:48.000Z</time>
      </trkpt>
      <trkpt lat="44.22884" lon="2.98699">
        <ele>850</ele>
        <time>2019-10-13T08:58:49.000Z</time>
      </trkpt>
      <trkpt lat="44.2288" lon="2.98698">
        <ele>851</ele>
        <time>2019-10-13T08:58:50.000Z</time>
      </trkpt>
      <trkpt lat="44.22876" lon="2.98696">
        <ele>851</ele>
        <time>2019-10-13T08:58:51.000Z</time>
      </trkpt>
      <trkpt lat="44.22873" lon="2.98694">
        <ele>851</ele>
        <time>2019-10-13T08:58:52.000Z</time>
      </trkpt>
      <trkpt lat="44.22869" lon="2.98692">
        <ele>851</ele>
        <time>2019-10-13T08:58:53.000Z</time>
      </trkpt>
      <trkpt lat="44.22866" lon="2.98691">
        <ele>851</ele>
        <time>2019-10-13T08:58:54.000Z</time>
      </trkpt>
      <trkpt lat="44.22862" lon="2.98689">
        <ele>851</ele>
        <time>2019-10-13T08:58:55.000Z</time>
      </trkpt>
      <trkpt lat="44.22859" lon="2.98687">
        <ele>851</ele>
        <time>2019-10-13T08:58:56.000Z</time>
      </trkpt>
      <trkpt lat="44.22855" lon="2.98685">
        <ele>851</ele>
        <time>2019-10-13T08:58:57.000Z</time>
      </trkpt>
      <trkpt lat="44.22852" lon="2.98683">
        <ele>851</ele>
        <time>2019-10-13T08:58:58.000Z</time>
      </trkpt>
      <trkpt lat="44.22849" lon="2.98682">
        <ele>851</ele>
        <time>2019-10-13T08:58:59.000Z</time>
      </trkpt>
      <trkpt lat="44.22845" lon="2.9868">
        <ele>851</ele>
        <time>2019-10-13T08:59:00.000Z</time>
      </trkpt>
      <trkpt lat="44.22842" lon="2.98678">
        <ele>851</ele>
        <time>2019-10-13T08:59:01.000Z</time>
      </trkpt>
      <trkpt lat="44.22839" lon="2.98676">
        <ele>851</ele>
        <time>2019-10-13T08:59:02.000Z</time>
      </trkpt>
      <trkpt lat="44.22836" lon="2.98674">
        <ele>851</ele>
        <time>2019-10-13T08:59:03.000Z</time>
      </trkpt>
      <trkpt lat="44.22833" lon="2.98672">
        <ele>851</ele>
        <time>2019-10-13T08:59:04.000Z</time>
      </trkpt>
      <trkpt lat="44.2283" lon="2.9867">
        <ele>851</ele>
        <time>2019-10-13T08:59:05.000Z</time>
      </trkpt>
      <trkpt lat="44.22827" lon="2.98668">
        <ele>852</ele>
        <time>2019-10-13T08:59:06.000Z</time>
      </trkpt>
      <trkpt lat="44.22824" lon="2.98667">
        <ele>852</ele>
        <time>2019-10-13T08:59:07.000Z</time>
      </trkpt>
      <trkpt lat="44.2282" lon="2.98664">
        <ele>852</ele>
        <time>2019-10-13T08:59:08.000Z</time>
      </trkpt>
      <trkpt lat="44.22817" lon="2.98662">
        <ele>852</ele>
        <time>2019-10-13T08:59:09.000Z</time>
      </trkpt>
      <trkpt lat="44.22814" lon="2.9866">
        <ele>852</ele>
        <time>2019-10-13T08:59:10.000Z</time>
      </trkpt>
      <trkpt lat="44.22811" lon="2.98659">
        <ele>852</ele>
        <time>2019-10-13T08:59:11.000Z</time>
      </trkpt>
      <trkpt lat="44.22808" lon="2.98657">
        <ele>852</ele>
        <time>2019-10-13T08:59:12.000Z</time>
      </trkpt>
      <trkpt lat="44.22805" lon="2.98655">
        <ele>853</ele>
        <time>2019-10-13T08:59:13.000Z</time>
      </trkpt>
      <trkpt lat="44.22802" lon="2.98654">
        <ele>853</ele>
        <time>2019-10-13T08:59:14.000Z</time>
      </trkpt>
      <trkpt lat="44.22798" lon="2.98652">
        <ele>853</ele>
        <time>2019-10-13T08:59:15.000Z</time>
      </trkpt>
      <trkpt lat="44.22795" lon="2.98651">
        <ele>853</ele>
        <time>2019-10-13T08:59:16.000Z</time>
      </trkpt>
      <trkpt lat="44.22792" lon="2.98649">
        <ele>853</ele>
        <time>2019-10-13T08:59:17.000Z</time>
      </trkpt>
      <trkpt lat="44.22789" lon="2.98648">
        <ele>853</ele>
        <time>2019-10-13T08:59:18.000Z</time>
      </trkpt>
      <trkpt lat="44.22785" lon="2.98646">
        <ele>853</ele>
        <time>2019-10-13T08:59:19.000Z</time>
      </trkpt>
      <trkpt lat="44.22782" lon="2.98645">
        <ele>853</ele>
        <time>2019-10-13T08:59:20.000Z</time>
      </trkpt>
      <trkpt lat="44.22779" lon="2.98644">
        <ele>853</ele>
        <time>2019-10-13T08:59:21.000Z</time>
      </trkpt>
      <trkpt lat="44.22776" lon="2.98642">
        <ele>854</ele>
        <time>2019-10-13T08:59:22.000Z</time>
      </trkpt>
      <trkpt lat="44.22772" lon="2.98641">
        <ele>854</ele>
        <time>2019-10-13T08:59:23.000Z</time>
      </trkpt>
      <trkpt lat="44.22769" lon="2.98641">
        <ele>854</ele>
        <time>2019-10-13T08:59:24.000Z</time>
      </trkpt>
      <trkpt lat="44.22765" lon="2.9864">
        <ele>854</ele>
        <time>2019-10-13T08:59:25.000Z</time>
      </trkpt>
      <trkpt lat="44.22762" lon="2.98639">
        <ele>854</ele>
        <time>2019-10-13T08:59:26.000Z</time>
      </trkpt>
      <trkpt lat="44.22759" lon="2.98638">
        <ele>854</ele>
        <time>2019-10-13T08:59:27.000Z</time>
      </trkpt>
      <trkpt lat="44.22756" lon="2.98638">
        <ele>854</ele>
        <time>2019-10-13T08:59:28.000Z</time>
      </trkpt>
      <trkpt lat="44.22752" lon="2.98637">
        <ele>854</ele>
        <time>2019-10-13T08:59:29.000Z</time>
      </trkpt>
      <trkpt lat="44.22749" lon="2.98637">
        <ele>854</ele>
        <time>2019-10-13T08:59:30.000Z</time>
      </trkpt>
      <trkpt lat="44.22746" lon="2.98637">
        <ele>854</ele>
        <time>2019-10-13T08:59:31.000Z</time>
      </trkpt>
      <trkpt lat="44.22743" lon="2.98636">
        <ele>854</ele>
        <time>2019-10-13T08:59:32.000Z</time>
      </trkpt>
      <trkpt lat="44.22739" lon="2.98636">
        <ele>854</ele>
        <time>2019-10-13T08:59:33.000Z</time>
      </trkpt>
      <trkpt lat="44.22736" lon="2.98636">
        <ele>854</ele>
        <time>2019-10-13T08:59:34.000Z</time>
      </trkpt>
      <trkpt lat="44.22733" lon="2.98636">
        <ele>854</ele>
        <time>2019-10-13T08:59:35.000Z</time>
      </trkpt>
      <trkpt lat="44.22729" lon="2.98636">
        <ele>854</ele>
        <time>2019-10-13T08:59:36.000Z</time>
      </trkpt>
      <trkpt lat="44.22726" lon="2.98636">
        <ele>854</ele>
        <time>2019-10-13T08:59:37.000Z</time>
      </trkpt>
      <trkpt lat="44.22723" lon="2.98636">
        <ele>854</ele>
        <time>2019-10-13T08:59:38.000Z</time>
      </trkpt>
      <trkpt lat="44.2272" lon="2.98636">
        <ele>854</ele>
        <time>2019-10-13T08:59:39.000Z</time>
      </trkpt>
      <trkpt lat="44.22717" lon="2.98636">
        <ele>854</ele>
        <time>2019-10-13T08:59:40.000Z</time>
      </trkpt>
      <trkpt lat="44.22714" lon="2.98636">
        <ele>854</ele>
        <time>2019-10-13T08:59:41.000Z</time>
      </trkpt>
      <trkpt lat="44.2271" lon="2.98635">
        <ele>854</ele>
        <time>2019-10-13T08:59:42.000Z</time>
      </trkpt>
      <trkpt lat="44.22707" lon="2.98635">
        <ele>854</ele>
        <time>2019-10-13T08:59:43.000Z</time>
      </trkpt>
      <trkpt lat="44.22704" lon="2.98635">
        <ele>854</ele>
        <time>2019-10-13T08:59:44.000Z</time>
      </trkpt>
      <trkpt lat="44.22701" lon="2.98635">
        <ele>854</ele>
        <time>2019-10-13T08:59:45.000Z</time>
      </trkpt>
      <trkpt lat="44.22698" lon="2.98636">
        <ele>854</ele>
        <time>2019-10-13T08:59:46.000Z</time>
      </trkpt>
      <trkpt lat="44.22694" lon="2.98636">
        <ele>854</ele>
        <time>2019-10-13T08:59:47.000Z</time>
      </trkpt>
      <trkpt lat="44.22691" lon="2.98636">
        <ele>854</ele>
        <time>2019-10-13T08:59:48.000Z</time>
      </trkpt>
      <trkpt lat="44.22687" lon="2.98637">
        <ele>854</ele>
        <time>2019-10-13T08:59:49.000Z</time>
      </trkpt>
      <trkpt lat="44.22684" lon="2.98637">
        <ele>854</ele>
        <time>2019-10-13T08:59:50.000Z</time>
      </trkpt>
      <trkpt lat="44.22681" lon="2.98638">
        <ele>854</ele>
        <time>2019-10-13T08:59:51.000Z</time>
      </trkpt>
      <trkpt lat="44.22677" lon="2.98639">
        <ele>854</ele>
        <time>2019-10-13T08:59:52.000Z</time>
      </trkpt>
      <trkpt lat="44.22674" lon="2.9864">
        <ele>854</ele>
        <time>2019-10-13T08:59:53.000Z</time>
      </trkpt>
      <trkpt lat="44.22671" lon="2.9864">
        <ele>854</ele>
        <time>2019-10-13T08:59:54.000Z</time>
      </trkpt>
      <trkpt lat="44.22668" lon="2.98641">
        <ele>855</ele>
        <time>2019-10-13T08:59:55.000Z</time>
      </trkpt>
      <trkpt lat="44.22666" lon="2.98642">
        <ele>855</ele>
        <time>2019-10-13T08:59:56.000Z</time>
      </trkpt>
      <trkpt lat="44.22664" lon="2.98642">
        <ele>855</ele>
        <time>2019-10-13T08:59:57.000Z</time>
      </trkpt>
      <trkpt lat="44.22662" lon="2.98643">
        <ele>855</ele>
        <time>2019-10-13T08:59:58.000Z</time>
      </trkpt>
      <trkpt lat="44.22661" lon="2.98644">
        <ele>855</ele>
        <time>2019-10-13T08:59:59.000Z</time>
      </trkpt>
      <trkpt lat="44.22659" lon="2.98644">
        <ele>855</ele>
        <time>2019-10-13T09:00:00.000Z</time>
      </trkpt>
      <trkpt lat="44.22658" lon="2.98645">
        <ele>855</ele>
        <time>2019-10-13T09:00:01.000Z</time>
      </trkpt>
      <trkpt lat="44.22656" lon="2.98645">
        <ele>855</ele>
        <time>2019-10-13T09:00:02.000Z</time>
      </trkpt>
      <trkpt lat="44.22654" lon="2.98646">
        <ele>855</ele>
        <time>2019-10-13T09:00:03.000Z</time>
      </trkpt>
      <trkpt lat="44.22653" lon="2.98646">
        <ele>855</ele>
        <time>2019-10-13T09:00:04.000Z</time>
      </trkpt>
      <trkpt lat="44.22652" lon="2.98647">
        <ele>855</ele>
        <time>2019-10-13T09:00:05.000Z</time>
      </trkpt>
      <trkpt lat="44.22651" lon="2.98648">
        <ele>855</ele>
        <time>2019-10-13T09:00:06.000Z</time>
      </trkpt>
      <trkpt lat="44.2265" lon="2.98649">
        <ele>855</ele>
        <time>2019-10-13T09:00:07.000Z</time>
      </trkpt>
      <trkpt lat="44.22648" lon="2.98649">
        <ele>855</ele>
        <time>2019-10-13T09:00:08.000Z</time>
      </trkpt>
      <trkpt lat="44.22647" lon="2.9865">
        <ele>855</ele>
        <time>2019-10-13T09:00:09.000Z</time>
      </trkpt>
      <trkpt lat="44.22646" lon="2.9865">
        <ele>855</ele>
        <time>2019-10-13T09:00:10.000Z</time>
      </trkpt>
      <trkpt lat="44.22646" lon="2.9865">
        <ele>855</ele>
        <time>2019-10-13T09:00:11.000Z</time>
      </trkpt>
      <trkpt lat="44.22646" lon="2.9865">
        <ele>855</ele>
        <time>2019-10-13T09:00:12.000Z</time>
      </trkpt>
      <trkpt lat="44.22645" lon="2.9865">
        <ele>855</ele>
        <time>2019-10-13T09:00:13.000Z</time>
      </trkpt>
      <trkpt lat="44.22645" lon="2.9865">
        <ele>855</ele>
        <time>2019-10-13T09:00:14.000Z</time>
      </trkpt>
      <trkpt lat="44.22645" lon="2.9865">
        <ele>855</ele>
        <time>2019-10-13T09:00:15.000Z</time>
      </trkpt>
      <trkpt lat="44.22645" lon="2.9865">
        <ele>855</ele>
        <time>2019-10-13T09:00:16.000Z</time>
      </trkpt>
      <trkpt lat="44.22645" lon="2.9865">
        <ele>855</ele>
        <time>2019-10-13T09:00:17.000Z</time>
      </trkpt>
      <trkpt lat="44.22645" lon="2.9865">
        <ele>855</ele>
        <time>2019-10-13T09:00:18.000Z</time>
      </trkpt>
      <trkpt lat="44.22645" lon="2.9865">
        <ele>855</ele>
        <time>2019-10-13T09:00:19.000Z</time>
      </trkpt>
      <trkpt lat="44.22645" lon="2.9865">
        <ele>855</ele>
        <time>2019-10-13T09:00:20.000Z</time>
      </trkpt>
      <trkpt lat="44.22645" lon="2.9865">
        <ele>855</ele>
        <time>2019-10-13T09:00:21.000Z</time>
      </trkpt>
      <trkpt lat="44.22645" lon="2.9865">
        <ele>855</ele>
        <time>2019-10-13T09:00:22.000Z</time>
      </trkpt>
      <trkpt lat="44.22644" lon="2.9865">
        <ele>855</ele>
        <time>2019-10-13T09:00:23.000Z</time>
      </trkpt>
      <trkpt lat="44.22644" lon="2.9865">
        <ele>855</ele>
        <time>2019-10-13T09:00:24.000Z</time>
      </trkpt>
      <trkpt lat="44.22644" lon="2.9865">
        <ele>855</ele>
        <time>2019-10-13T09:00:25.000Z</time>
      </trkpt>
      <trkpt lat="44.22644" lon="2.9865">
        <ele>855</ele>
        <time>2019-10-13T09:00:26.000Z</time>
      </trkpt>
      <trkpt lat="44.22644" lon="2.9865">
        <ele>855</ele>
        <time>2019-10-13T09:00:27.000Z</time>
      </trkpt>
      <trkpt lat="44.22643" lon="2.9865">
        <ele>855</ele>
        <time>2019-10-13T09:00:28.000Z</time>
      </trkpt>
      <trkpt lat="44.22641" lon="2.9865">
        <ele>855</ele>
        <time>2019-10-13T09:00:29.000Z</time>
      </trkpt>
      <trkpt lat="44.2264" lon="2.9865">
        <ele>855</ele>
        <time>2019-10-13T09:00:30.000Z</time>
      </trkpt>
      <trkpt lat="44.22639" lon="2.9865">
        <ele>855</ele>
        <time>2019-10-13T09:00:31.000Z</time>
      </trkpt>
      <trkpt lat="44.22638" lon="2.9865">
        <ele>855</ele>
        <time>2019-10-13T09:00:32.000Z</time>
      </trkpt>
      <trkpt lat="44.22637" lon="2.98651">
        <ele>855</ele>
        <time>2019-10-13T09:00:33.000Z</time>
      </trkpt>
      <trkpt lat="44.22637" lon="2.98651">
        <ele>855</ele>
        <time>2019-10-13T09:00:34.000Z</time>
      </trkpt>
      <trkpt lat="44.22637" lon="2.98652">
        <ele>855</ele>
        <time>2019-10-13T09:00:35.000Z</time>
      </trkpt>
      <trkpt lat="44.22636" lon="2.98653">
        <ele>855</ele>
        <time>2019-10-13T09:00:36.000Z</time>
      </trkpt>
      <trkpt lat="44.22636" lon="2.98653">
        <ele>855</ele>
        <time>2019-10-13T09:00:37.000Z</time>
      </trkpt>
      <trkpt lat="44.22636" lon="2.98653">
        <ele>855</ele>
        <time>2019-10-13T09:00:38.000Z</time>
      </trkpt>
      <trkpt lat="44.22636" lon="2.98653">
        <ele>855</ele>
        <time>2019-10-13T09:00:39.000Z</time>
      </trkpt>
      <trkpt lat="44.22636" lon="2.98653">
        <ele>855</ele>
        <time>2019-10-13T09:00:40.000Z</time>
      </trkpt>
      <trkpt lat="44.22636" lon="2.98653">
        <ele>855</ele>
        <time>2019-10-13T09:00:41.000Z</time>
      </trkpt>
      <trkpt lat="44.22636" lon="2.98653">
        <ele>855</ele>
        <time>2019-10-13T09:00:42.000Z</time>
      </trkpt>
      <trkpt lat="44.22636" lon="2.98653">
        <ele>855</ele>
        <time>2019-10-13T09:00:43.000Z</time>
      </trkpt>
      <trkpt lat="44.22636" lon="2.98653">
        <ele>855</ele>
        <time>2019-10-13T09:00:44.000Z</time>
      </trkpt>
      <trkpt lat="44.22636" lon="2.98653">
        <ele>855</ele>
        <time>2019-10-13T09:00:45.000Z</time>
      </trkpt>
      <trkpt lat="44.22636" lon="2.98653">
        <ele>855</ele>
        <time>2019-10-13T09:00:46.000Z</time>
      </trkpt>
      <trkpt lat="44.22636" lon="2.98653">
        <ele>855</ele>
        <time>2019-10-13T09:00:47.000Z</time>
      </trkpt>
      <trkpt lat="44.22636" lon="2.98653">
        <ele>854</ele>
        <time>2019-10-13T09:00:48.000Z</time>
      </trkpt>
      <trkpt lat="44.22636" lon="2.98654">
        <ele>854</ele>
        <time>2019-10-13T09:00:49.000Z</time>
      </trkpt>
      <trkpt lat="44.22636" lon="2.98653">
        <ele>854</ele>
        <time>2019-10-13T09:00:50.000Z</time>
      </trkpt>
      <trkpt lat="44.22636" lon="2.98653">
        <ele>854</ele>
        <time>2019-10-13T09:00:51.000Z</time>
      </trkpt>
      <trkpt lat="44.22636" lon="2.98653">
        <ele>854</ele>
        <time>2019-10-13T09:00:52.000Z</time>
      </trkpt>
      <trkpt lat="44.22636" lon="2.98653">
        <ele>854</ele>
        <time>2019-10-13T09:00:53.000Z</time>
      </trkpt>
      <trkpt lat="44.22635" lon="2.98653">
        <ele>854</ele>
        <time>2019-10-13T09:00:54.000Z</time>
      </trkpt>
      <trkpt lat="44.22635" lon="2.98653">
        <ele>854</ele>
        <time>2019-10-13T09:00:55.000Z</time>
      </trkpt>
      <trkpt lat="44.22636" lon="2.98654">
        <ele>854</ele>
        <time>2019-10-13T09:00:56.000Z</time>
      </trkpt>
      <trkpt lat="44.22636" lon="2.98654">
        <ele>854</ele>
        <time>2019-10-13T09:00:57.000Z</time>
      </trkpt>
      <trkpt lat="44.22636" lon="2.98653">
        <ele>854</ele>
        <time>2019-10-13T09:00:58.000Z</time>
      </trkpt>
      <trkpt lat="44.22636" lon="2.98653">
        <ele>854</ele>
        <time>2019-10-13T09:00:59.000Z</time>
      </trkpt>
      <trkpt lat="44.22636" lon="2.98653">
        <ele>854</ele>
        <time>2019-10-13T09:01:00.000Z</time>
      </trkpt>
      <trkpt lat="44.22635" lon="2.98653">
        <ele>854</ele>
        <time>2019-10-13T09:01:01.000Z</time>
      </trkpt>
      <trkpt lat="44.22635" lon="2.98654">
        <ele>854</ele>
        <time>2019-10-13T09:01:02.000Z</time>
      </trkpt>
      <trkpt lat="44.22635" lon="2.98655">
        <ele>854</ele>
        <time>2019-10-13T09:01:03.000Z</time>
      </trkpt>
      <trkpt lat="44.22634" lon="2.98656">
        <ele>854</ele>
        <time>2019-10-13T09:01:04.000Z</time>
      </trkpt>
      <trkpt lat="44.22634" lon="2.98658">
        <ele>854</ele>
        <time>2019-10-13T09:01:05.000Z</time>
      </trkpt>
      <trkpt lat="44.22634" lon="2.9866">
        <ele>854</ele>
        <time>2019-10-13T09:01:06.000Z</time>
      </trkpt>
      <trkpt lat="44.22633" lon="2.98662">
        <ele>854</ele>
        <time>2019-10-13T09:01:07.000Z</time>
      </trkpt>
      <trkpt lat="44.22633" lon="2.98664">
        <ele>854</ele>
        <time>2019-10-13T09:01:08.000Z</time>
      </trkpt>
      <trkpt lat="44.22633" lon="2.98666">
        <ele>854</ele>
        <time>2019-10-13T09:01:09.000Z</time>
      </trkpt>
      <trkpt lat="44.22633" lon="2.98668">
        <ele>855</ele>
        <time>2019-10-13T09:01:10.000Z</time>
      </trkpt>
      <trkpt lat="44.22633" lon="2.9867">
        <ele>855</ele>
        <time>2019-10-13T09:01:11.000Z</time>
      </trkpt>
      <trkpt lat="44.22633" lon="2.98672">
        <ele>855</ele>
        <time>2019-10-13T09:01:12.000Z</time>
      </trkpt>
      <trkpt lat="44.22632" lon="2.98674">
        <ele>855</ele>
        <time>2019-10-13T09:01:13.000Z</time>
      </trkpt>
      <trkpt lat="44.22631" lon="2.98676">
        <ele>855</ele>
        <time>2019-10-13T09:01:14.000Z</time>
      </trkpt>
      <trkpt lat="44.22631" lon="2.98678">
        <ele>855</ele>
        <time>2019-10-13T09:01:15.000Z</time>
      </trkpt>
      <trkpt lat="44.2263" lon="2.9868">
        <ele>855</ele>
        <time>2019-10-13T09:01:16.000Z</time>
      </trkpt>
      <trkpt lat="44.2263" lon="2.98682">
        <ele>855</ele>
        <time>2019-10-13T09:01:17.000Z</time>
      </trkpt>
      <trkpt lat="44.22629" lon="2.98684">
        <ele>855</ele>
        <time>2019-10-13T09:01:18.000Z</time>
      </trkpt>
      <trkpt lat="44.22629" lon="2.98685">
        <ele>855</ele>
        <time>2019-10-13T09:01:19.000Z</time>
      </trkpt>
      <trkpt lat="44.22628" lon="2.98687">
        <ele>856</ele>
        <time>2019-10-13T09:01:20.000Z</time>
      </trkpt>
      <trkpt lat="44.22628" lon="2.98688">
        <ele>856</ele>
        <time>2019-10-13T09:01:21.000Z</time>
      </trkpt>
      <trkpt lat="44.22628" lon="2.9869">
        <ele>856</ele>
        <time>2019-10-13T09:01:22.000Z</time>
      </trkpt>
      <trkpt lat="44.22627" lon="2.98692">
        <ele>856</ele>
        <time>2019-10-13T09:01:23.000Z</time>
      </trkpt>
      <trkpt lat="44.22626" lon="2.98693">
        <ele>856</ele>
        <time>2019-10-13T09:01:24.000Z</time>
      </trkpt>
      <trkpt lat="44.22626" lon="2.98695">
        <ele>856</ele>
        <time>2019-10-13T09:01:25.000Z</time>
      </trkpt>
      <trkpt lat="44.22625" lon="2.98697">
        <ele>856</ele>
        <time>2019-10-13T09:01:26.000Z</time>
      </trkpt>
      <trkpt lat="44.22625" lon="2.98698">
        <ele>856</ele>
        <time>2019-10-13T09:01:27.000Z</time>
      </trkpt>
      <trkpt lat="44.22624" lon="2.987">
        <ele>856</ele>
        <time>2019-10-13T09:01:28.000Z</time>
      </trkpt>
      <trkpt lat="44.22623" lon="2.98702">
        <ele>857</ele>
        <time>2019-10-13T09:01:29.000Z</time>
      </trkpt>
      <trkpt lat="44.22623" lon="2.98703">
        <ele>857</ele>
        <time>2019-10-13T09:01:30.000Z</time>
      </trkpt>
      <trkpt lat="44.22622" lon="2.98705">
        <ele>857</ele>
        <time>2019-10-13T09:01:31.000Z</time>
      </trkpt>
      <trkpt lat="44.22622" lon="2.98706">
        <ele>857</ele>
        <time>2019-10-13T09:01:32.000Z</time>
      </trkpt>
      <trkpt lat="44.22621" lon="2.98707">
        <ele>857</ele>
        <time>2019-10-13T09:01:33.000Z</time>
      </trkpt>
      <trkpt lat="44.2262" lon="2.98709">
        <ele>857</ele>
        <time>2019-10-13T09:01:34.000Z</time>
      </trkpt>
      <trkpt lat="44.2262" lon="2.9871">
        <ele>857</ele>
        <time>2019-10-13T09:01:35.000Z</time>
      </trkpt>
      <trkpt lat="44.22619" lon="2.98712">
        <ele>857</ele>
        <time>2019-10-13T09:01:36.000Z</time>
      </trkpt>
      <trkpt lat="44.22618" lon="2.98713">
        <ele>857</ele>
        <time>2019-10-13T09:01:37.000Z</time>
      </trkpt>
      <trkpt lat="44.22618" lon="2.98715">
        <ele>858</ele>
        <time>2019-10-13T09:01:38.000Z</time>
      </trkpt>
      <trkpt lat="44.22617" lon="2.98716">
        <ele>858</ele>
        <time>2019-10-13T09:01:39.000Z</time>
      </trkpt>
      <trkpt lat="44.22616" lon="2.98718">
        <ele>858</ele>
        <time>2019-10-13T09:01:40.000Z</time>
      </trkpt>
      <trkpt lat="44.22615" lon="2.9872">
        <ele>858</ele>
        <time>2019-10-13T09:01:41.000Z</time>
      </trkpt>
      <trkpt lat="44.22614" lon="2.98721">
        <ele>858</ele>
        <time>2019-10-13T09:01:42.000Z</time>
      </trkpt>
      <trkpt lat="44.22614" lon="2.98723">
        <ele>858</ele>
        <time>2019-10-13T09:01:43.000Z</time>
      </trkpt>
      <trkpt lat="44.22613" lon="2.98725">
        <ele>858</ele>
        <time>2019-10-13T09:01:44.000Z</time>
      </trkpt>
      <trkpt lat="44.22613" lon="2.98727">
        <ele>858</ele>
        <time>2019-10-13T09:01:45.000Z</time>
      </trkpt>
      <trkpt lat="44.22612" lon="2.98729">
        <ele>859</ele>
        <time>2019-10-13T09:01:46.000Z</time>
      </trkpt>
      <trkpt lat="44.22612" lon="2.9873">
        <ele>859</ele>
        <time>2019-10-13T09:01:47.000Z</time>
      </trkpt>
      <trkpt lat="44.22612" lon="2.98732">
        <ele>859</ele>
        <time>2019-10-13T09:01:48.000Z</time>
      </trkpt>
      <trkpt lat="44.22611" lon="2.98734">
        <ele>859</ele>
        <time>2019-10-13T09:01:49.000Z</time>
      </trkpt>
      <trkpt lat="44.22612" lon="2.98736">
        <ele>859</ele>
        <time>2019-10-13T09:01:50.000Z</time>
      </trkpt>
      <trkpt lat="44.22612" lon="2.98737">
        <ele>859</ele>
        <time>2019-10-13T09:01:51.000Z</time>
      </trkpt>
      <trkpt lat="44.22612" lon="2.98739">
        <ele>859</ele>
        <time>2019-10-13T09:01:52.000Z</time>
      </trkpt>
      <trkpt lat="44.22612" lon="2.98741">
        <ele>859</ele>
        <time>2019-10-13T09:01:53.000Z</time>
      </trkpt>
      <trkpt lat="44.22613" lon="2.98743">
        <ele>859</ele>
        <time>2019-10-13T09:01:54.000Z</time>
      </trkpt>
      <trkpt lat="44.22613" lon="2.98745">
        <ele>859</ele>
        <time>2019-10-13T09:01:55.000Z</time>
      </trkpt>
      <trkpt lat="44.22614" lon="2.98747">
        <ele>859</ele>
        <time>2019-10-13T09:01:56.000Z</time>
      </trkpt>
      <trkpt lat="44.22614" lon="2.98748">
        <ele>859</ele>
        <time>2019-10-13T09:01:57.000Z</time>
      </trkpt>
      <trkpt lat="44.22614" lon="2.9875">
        <ele>859</ele>
        <time>2019-10-13T09:01:58.000Z</time>
      </trkpt>
      <trkpt lat="44.22615" lon="2.98752">
        <ele>860</ele>
        <time>2019-10-13T09:01:59.000Z</time>
      </trkpt>
      <trkpt lat="44.22615" lon="2.98754">
        <ele>860</ele>
        <time>2019-10-13T09:02:00.000Z</time>
      </trkpt>
      <trkpt lat="44.22616" lon="2.98755">
        <ele>860</ele>
        <time>2019-10-13T09:02:01.000Z</time>
      </trkpt>
      <trkpt lat="44.22616" lon="2.98757">
        <ele>860</ele>
        <time>2019-10-13T09:02:02.000Z</time>
      </trkpt>
      <trkpt lat="44.22617" lon="2.98759">
        <ele>860</ele>
        <time>2019-10-13T09:02:03.000Z</time>
      </trkpt>
      <trkpt lat="44.22617" lon="2.98762">
        <ele>860</ele>
        <time>2019-10-13T09:02:04.000Z</time>
      </trkpt>
      <trkpt lat="44.22617" lon="2.98764">
        <ele>860</ele>
        <time>2019-10-13T09:02:05.000Z</time>
      </trkpt>
      <trkpt lat="44.22618" lon="2.98766">
        <ele>860</ele>
        <time>2019-10-13T09:02:06.000Z</time>
      </trkpt>
      <trkpt lat="44.22618" lon="2.98768">
        <ele>860</ele>
        <time>2019-10-13T09:02:07.000Z</time>
      </trkpt>
      <trkpt lat="44.22618" lon="2.9877">
        <ele>860</ele>
        <time>2019-10-13T09:02:08.000Z</time>
      </trkpt>
      <trkpt lat="44.22618" lon="2.98772">
        <ele>861</ele>
        <time>2019-10-13T09:02:09.000Z</time>
      </trkpt>
      <trkpt lat="44.22618" lon="2.98775">
        <ele>861</ele>
        <time>2019-10-13T09:02:10.000Z</time>
      </trkpt>
      <trkpt lat="44.22617" lon="2.98777">
        <ele>861</ele>
        <time>2019-10-13T09:02:11.000Z</time>
      </trkpt>
      <trkpt lat="44.22617" lon="2.98779">
        <ele>861</ele>
        <time>2019-10-13T09:02:12.000Z</time>
      </trkpt>
      <trkpt lat="44.22617" lon="2.98781">
        <ele>861</ele>
        <time>2019-10-13T09:02:13.000Z</time>
      </trkpt>
      <trkpt lat="44.22616" lon="2.98783">
        <ele>861</ele>
        <time>2019-10-13T09:02:14.000Z</time>
      </trkpt>
      <trkpt lat="44.22616" lon="2.98785">
        <ele>861</ele>
        <time>2019-10-13T09:02:15.000Z</time>
      </trkpt>
      <trkpt lat="44.22615" lon="2.98787">
        <ele>861</ele>
        <time>2019-10-13T09:02:16.000Z</time>
      </trkpt>
      <trkpt lat="44.22614" lon="2.98789">
        <ele>861</ele>
        <time>2019-10-13T09:02:17.000Z</time>
      </trkpt>
      <trkpt lat="44.22614" lon="2.98791">
        <ele>861</ele>
        <time>2019-10-13T09:02:18.000Z</time>
      </trkpt>
      <trkpt lat="44.22613" lon="2.98793">
        <ele>861</ele>
        <time>2019-10-13T09:02:19.000Z</time>
      </trkpt>
      <trkpt lat="44.22612" lon="2.98795">
        <ele>861</ele>
        <time>2019-10-13T09:02:20.000Z</time>
      </trkpt>
      <trkpt lat="44.22612" lon="2.98796">
        <ele>861</ele>
        <time>2019-10-13T09:02:21.000Z</time>
      </trkpt>
      <trkpt lat="44.22611" lon="2.98798">
        <ele>861</ele>
        <time>2019-10-13T09:02:22.000Z</time>
      </trkpt>
      <trkpt lat="44.22611" lon="2.988">
        <ele>861</ele>
        <time>2019-10-13T09:02:23.000Z</time>
      </trkpt>
      <trkpt lat="44.2261" lon="2.98802">
        <ele>862</ele>
        <time>2019-10-13T09:02:24.000Z</time>
      </trkpt>
      <trkpt lat="44.2261" lon="2.98803">
        <ele>862</ele>
        <time>2019-10-13T09:02:25.000Z</time>
      </trkpt>
      <trkpt lat="44.2261" lon="2.98804">
        <ele>862</ele>
        <time>2019-10-13T09:02:26.000Z</time>
      </trkpt>
      <trkpt lat="44.2261" lon="2.98806">
        <ele>862</ele>
        <time>2019-10-13T09:02:27.000Z</time>
      </trkpt>
      <trkpt lat="44.2261" lon="2.98808">
        <ele>862</ele>
        <time>2019-10-13T09:02:28.000Z</time>
      </trkpt>
      <trkpt lat="44.2261" lon="2.98809">
        <ele>862</ele>
        <time>2019-10-13T09:02:29.000Z</time>
      </trkpt>
      <trkpt lat="44.2261" lon="2.98811">
        <ele>861</ele>
        <time>2019-10-13T09:02:30.000Z</time>
      </trkpt>
      <trkpt lat="44.2261" lon="2.98812">
        <ele>861</ele>
        <time>2019-10-13T09:02:31.000Z</time>
      </trkpt>
      <trkpt lat="44.2261" lon="2.98813">
        <ele>861</ele>
        <time>2019-10-13T09:02:32.000Z</time>
      </trkpt>
      <trkpt lat="44.2261" lon="2.98813">
        <ele>861</ele>
        <time>2019-10-13T09:02:33.000Z</time>
      </trkpt>
      <trkpt lat="44.2261" lon="2.98813">
        <ele>861</ele>
        <time>2019-10-13T09:02:34.000Z</time>
      </trkpt>
      <trkpt lat="44.2261" lon="2.98813">
        <ele>861</ele>
        <time>2019-10-13T09:02:35.000Z</time>
      </trkpt>
      <trkpt lat="44.2261" lon="2.98813">
        <ele>861</ele>
        <time>2019-10-13T09:02:36.000Z</time>
      </trkpt>
      <trkpt lat="44.2261" lon="2.98813">
        <ele>861</ele>
        <time>2019-10-13T09:02:37.000Z</time>
      </trkpt>
      <trkpt lat="44.2261" lon="2.98813">
        <ele>861</ele>
        <time>2019-10-13T09:02:38.000Z</time>
      </trkpt>
      <trkpt lat="44.2261" lon="2.98814">
        <ele>861</ele>
        <time>2019-10-13T09:02:39.000Z</time>
      </trkpt>
      <trkpt lat="44.2261" lon="2.98814">
        <ele>861</ele>
        <time>2019-10-13T09:02:40.000Z</time>
      </trkpt>
      <trkpt lat="44.22611" lon="2.98815">
        <ele>861</ele>
        <time>2019-10-13T09:02:41.000Z</time>
      </trkpt>
      <trkpt lat="44.22611" lon="2.98816">
        <ele>861</ele>
        <time>2019-10-13T09:02:42.000Z</time>
      </trkpt>
      <trkpt lat="44.22612" lon="2.98817">
        <ele>861</ele>
        <time>2019-10-13T09:02:43.000Z</time>
      </trkpt>
      <trkpt lat="44.22612" lon="2.98818">
        <ele>861</ele>
        <time>2019-10-13T09:02:44.000Z</time>
      </trkpt>
      <trkpt lat="44.22613" lon="2.98818">
        <ele>861</ele>
        <time>2019-10-13T09:02:45.000Z</time>
      </trkpt>
      <trkpt lat="44.22614" lon="2.98819">
        <ele>861</ele>
        <time>2019-10-13T09:02:46.000Z</time>
      </trkpt>
      <trkpt lat="44.22614" lon="2.9882">
        <ele>861</ele>
        <time>2019-10-13T09:02:47.000Z</time>
      </trkpt>
      <trkpt lat="44.22615" lon="2.9882">
        <ele>861</ele>
        <time>2019-10-13T09:02:48.000Z</time>
      </trkpt>
      <trkpt lat="44.22617" lon="2.98822">
        <ele>861</ele>
        <time>2019-10-13T09:02:49.000Z</time>
      </trkpt>
      <trkpt lat="44.22618" lon="2.98822">
        <ele>861</ele>
        <time>2019-10-13T09:02:50.000Z</time>
      </trkpt>
      <trkpt lat="44.22619" lon="2.98823">
        <ele>861</ele>
        <time>2019-10-13T09:02:51.000Z</time>
      </trkpt>
      <trkpt lat="44.2262" lon="2.98825">
        <ele>861</ele>
        <time>2019-10-13T09:02:52.000Z</time>
      </trkpt>
      <trkpt lat="44.22621" lon="2.98827">
        <ele>861</ele>
        <time>2019-10-13T09:02:53.000Z</time>
      </trkpt>
      <trkpt lat="44.22622" lon="2.98829">
        <ele>861</ele>
        <time>2019-10-13T09:02:54.000Z</time>
      </trkpt>
      <trkpt lat="44.22622" lon="2.98831">
        <ele>861</ele>
        <time>2019-10-13T09:02:55.000Z</time>
      </trkpt>
      <trkpt lat="44.22622" lon="2.98833">
        <ele>861</ele>
        <time>2019-10-13T09:02:56.000Z</time>
      </trkpt>
      <trkpt lat="44.22622" lon="2.98835">
        <ele>861</ele>
        <time>2019-10-13T09:02:57.000Z</time>
      </trkpt>
      <trkpt lat="44.22621" lon="2.98836">
        <ele>861</ele>
        <time>2019-10-13T09:02:58.000Z</time>
      </trkpt>
      <trkpt lat="44.22621" lon="2.98838">
        <ele>861</ele>
        <time>2019-10-13T09:02:59.000Z</time>
      </trkpt>
      <trkpt lat="44.22621" lon="2.98839">
        <ele>861</ele>
        <time>2019-10-13T09:03:00.000Z</time>
      </trkpt>
      <trkpt lat="44.2262" lon="2.98841">
        <ele>861</ele>
        <time>2019-10-13T09:03:01.000Z</time>
      </trkpt>
      <trkpt lat="44.2262" lon="2.98843">
        <ele>861</ele>
        <time>2019-10-13T09:03:02.000Z</time>
      </trkpt>
      <trkpt lat="44.22619" lon="2.98845">
        <ele>861</ele>
        <time>2019-10-13T09:03:03.000Z</time>
      </trkpt>
      <trkpt lat="44.22619" lon="2.98847">
        <ele>862</ele>
        <time>2019-10-13T09:03:04.000Z</time>
      </trkpt>
      <trkpt lat="44.22618" lon="2.98848">
        <ele>862</ele>
        <time>2019-10-13T09:03:05.000Z</time>
      </trkpt>
      <trkpt lat="44.22618" lon="2.9885">
        <ele>862</ele>
        <time>2019-10-13T09:03:06.000Z</time>
      </trkpt>
      <trkpt lat="44.22617" lon="2.98852">
        <ele>862</ele>
        <time>2019-10-13T09:03:07.000Z</time>
      </trkpt>
      <trkpt lat="44.22617" lon="2.98854">
        <ele>862</ele>
        <time>2019-10-13T09:03:08.000Z</time>
      </trkpt>
      <trkpt lat="44.22616" lon="2.98855">
        <ele>862</ele>
        <time>2019-10-13T09:03:09.000Z</time>
      </trkpt>
      <trkpt lat="44.22615" lon="2.98857">
        <ele>862</ele>
        <time>2019-10-13T09:03:10.000Z</time>
      </trkpt>
      <trkpt lat="44.22615" lon="2.98858">
        <ele>862</ele>
        <time>2019-10-13T09:03:11.000Z</time>
      </trkpt>
      <trkpt lat="44.22614" lon="2.9886">
        <ele>862</ele>
        <time>2019-10-13T09:03:12.000Z</time>
      </trkpt>
      <trkpt lat="44.22614" lon="2.98862">
        <ele>862</ele>
        <time>2019-10-13T09:03:13.000Z</time>
      </trkpt>
      <trkpt lat="44.22613" lon="2.98863">
        <ele>863</ele>
        <time>2019-10-13T09:03:14.000Z</time>
      </trkpt>
      <trkpt lat="44.22613" lon="2.98865">
        <ele>863</ele>
        <time>2019-10-13T09:03:15.000Z</time>
      </trkpt>
      <trkpt lat="44.22612" lon="2.98867">
        <ele>863</ele>
        <time>2019-10-13T09:03:16.000Z</time>
      </trkpt>
      <trkpt lat="44.22612" lon="2.98868">
        <ele>863</ele>
        <time>2019-10-13T09:03:17.000Z</time>
      </trkpt>
      <trkpt lat="44.22611" lon="2.9887">
        <ele>863</ele>
        <time>2019-10-13T09:03:18.000Z</time>
      </trkpt>
      <trkpt lat="44.22611" lon="2.98871">
        <ele>863</ele>
        <time>2019-10-13T09:03:19.000Z</time>
      </trkpt>
      <trkpt lat="44.22611" lon="2.98873">
        <ele>863</ele>
        <time>2019-10-13T09:03:20.000Z</time>
      </trkpt>
      <trkpt lat="44.22611" lon="2.98875">
        <ele>863</ele>
        <time>2019-10-13T09:03:21.000Z</time>
      </trkpt>
      <trkpt lat="44.22611" lon="2.98877">
        <ele>863</ele>
        <time>2019-10-13T09:03:22.000Z</time>
      </trkpt>
      <trkpt lat="44.22611" lon="2.98879">
        <ele>863</ele>
        <time>2019-10-13T09:03:23.000Z</time>
      </trkpt>
      <trkpt lat="44.22611" lon="2.9888">
        <ele>863</ele>
        <time>2019-10-13T09:03:24.000Z</time>
      </trkpt>
      <trkpt lat="44.22611" lon="2.98882">
        <ele>863</ele>
        <time>2019-10-13T09:03:25.000Z</time>
      </trkpt>
      <trkpt lat="44.2261" lon="2.98884">
        <ele>863</ele>
        <time>2019-10-13T09:03:26.000Z</time>
      </trkpt>
      <trkpt lat="44.2261" lon="2.98885">
        <ele>864</ele>
        <time>2019-10-13T09:03:27.000Z</time>
      </trkpt>
      <trkpt lat="44.22609" lon="2.98887">
        <ele>864</ele>
        <time>2019-10-13T09:03:28.000Z</time>
      </trkpt>
      <trkpt lat="44.22609" lon="2.98888">
        <ele>864</ele>
        <time>2019-10-13T09:03:29.000Z</time>
      </trkpt>
      <trkpt lat="44.22609" lon="2.98888">
        <ele>864</ele>
        <time>2019-10-13T09:03:30.000Z</time>
      </trkpt>
      <trkpt lat="44.22609" lon="2.98888">
        <ele>864</ele>
        <time>2019-10-13T09:03:31.000Z</time>
      </trkpt>
      <trkpt lat="44.22609" lon="2.98888">
        <ele>864</ele>
        <time>2019-10-13T09:03:32.000Z</time>
      </trkpt>
      <trkpt lat="44.22609" lon="2.98888">
        <ele>864</ele>
        <time>2019-10-13T09:03:33.000Z</time>
      </trkpt>
      <trkpt lat="44.22609" lon="2.98888">
        <ele>864</ele>
        <time>2019-10-13T09:03:34.000Z</time>
      </trkpt>
      <trkpt lat="44.22609" lon="2.98888">
        <ele>864</ele>
        <time>2019-10-13T09:03:35.000Z</time>
      </trkpt>
      <trkpt lat="44.22609" lon="2.98888">
        <ele>864</ele>
        <time>2019-10-13T09:03:36.000Z</time>
      </trkpt>
      <trkpt lat="44.22609" lon="2.98888">
        <ele>864</ele>
        <time>2019-10-13T09:03:37.000Z</time>
      </trkpt>
      <trkpt lat="44.22609" lon="2.98888">
        <ele>864</ele>
        <time>2019-10-13T09:03:38.000Z</time>
      </trkpt>
      <trkpt lat="44.22609" lon="2.98888">
        <ele>864</ele>
        <time>2019-10-13T09:03:39.000Z</time>
      </trkpt>
      <trkpt lat="44.22609" lon="2.98888">
        <ele>864</ele>
        <time>2019-10-13T09:03:40.000Z</time>
      </trkpt>
      <trkpt lat="44.22609" lon="2.98888">
        <ele>864</ele>
        <time>2019-10-13T09:03:41.000Z</time>
      </trkpt>
      <trkpt lat="44.22609" lon="2.98888">
        <ele>864</ele>
        <time>2019-10-13T09:03:42.000Z</time>
      </trkpt>
      <trkpt lat="44.22609" lon="2.98888">
        <ele>864</ele>
        <time>2019-10-13T09:03:43.000Z</time>
      </trkpt>
      <trkpt lat="44.22609" lon="2.98889">
        <ele>864</ele>
        <time>2019-10-13T09:03:44.000Z</time>
      </trkpt>
      <trkpt lat="44.22609" lon="2.98889">
        <ele>864</ele>
        <time>2019-10-13T09:03:45.000Z</time>
      </trkpt>
      <trkpt lat="44.22609" lon="2.98889">
        <ele>864</ele>
        <time>2019-10-13T09:03:46.000Z</time>
      </trkpt>
      <trkpt lat="44.22609" lon="2.98889">
        <ele>864</ele>
        <time>2019-10-13T09:03:47.000Z</time>
      </trkpt>
      <trkpt lat="44.22609" lon="2.98889">
        <ele>864</ele>
        <time>2019-10-13T09:03:48.000Z</time>
      </trkpt>
      <trkpt lat="44.22609" lon="2.98889">
        <ele>864</ele>
        <time>2019-10-13T09:03:49.000Z</time>
      </trkpt>
      <trkpt lat="44.22609" lon="2.98889">
        <ele>864</ele>
        <time>2019-10-13T09:03:50.000Z</time>
      </trkpt>
      <trkpt lat="44.22608" lon="2.9889">
        <ele>864</ele>
        <time>2019-10-13T09:03:51.000Z</time>
      </trkpt>
      <trkpt lat="44.22608" lon="2.98891">
        <ele>864</ele>
        <time>2019-10-13T09:03:52.000Z</time>
      </trkpt>
      <trkpt lat="44.22608" lon="2.98892">
        <ele>864</ele>
        <time>2019-10-13T09:03:53.000Z</time>
      </trkpt>
      <trkpt lat="44.22607" lon="2.98893">
        <ele>864</ele>
        <time>2019-10-13T09:03:54.000Z</time>
      </trkpt>
      <trkpt lat="44.22607" lon="2.98895">
        <ele>864</ele>
        <time>2019-10-13T09:03:55.000Z</time>
      </trkpt>
      <trkpt lat="44.22607" lon="2.98896">
        <ele>864</ele>
        <time>2019-10-13T09:03:56.000Z</time>
      </trkpt>
      <trkpt lat="44.22607" lon="2.98898">
        <ele>864</ele>
        <time>2019-10-13T09:03:57.000Z</time>
      </trkpt>
      <trkpt lat="44.22607" lon="2.989">
        <ele>864</ele>
        <time>2019-10-13T09:03:58.000Z</time>
      </trkpt>
      <trkpt lat="44.22607" lon="2.98902">
        <ele>864</ele>
        <time>2019-10-13T09:03:59.000Z</time>
      </trkpt>
      <trkpt lat="44.22607" lon="2.98904">
        <ele>864</ele>
        <time>2019-10-13T09:04:00.000Z</time>
      </trkpt>
      <trkpt lat="44.22607" lon="2.98905">
        <ele>864</ele>
        <time>2019-10-13T09:04:01.000Z</time>
      </trkpt>
      <trkpt lat="44.22607" lon="2.98907">
        <ele>864</ele>
        <time>2019-10-13T09:04:02.000Z</time>
      </trkpt>
      <trkpt lat="44.22607" lon="2.98909">
        <ele>864</ele>
        <time>2019-10-13T09:04:03.000Z</time>
      </trkpt>
      <trkpt lat="44.22607" lon="2.98911">
        <ele>864</ele>
        <time>2019-10-13T09:04:04.000Z</time>
      </trkpt>
      <trkpt lat="44.22607" lon="2.98913">
        <ele>864</ele>
        <time>2019-10-13T09:04:05.000Z</time>
      </trkpt>
      <trkpt lat="44.22608" lon="2.98915">
        <ele>864</ele>
        <time>2019-10-13T09:04:06.000Z</time>
      </trkpt>
      <trkpt lat="44.22608" lon="2.98917">
        <ele>864</ele>
        <time>2019-10-13T09:04:07.000Z</time>
      </trkpt>
      <trkpt lat="44.22608" lon="2.98919">
        <ele>865</ele>
        <time>2019-10-13T09:04:08.000Z</time>
      </trkpt>
      <trkpt lat="44.22608" lon="2.9892">
        <ele>865</ele>
        <time>2019-10-13T09:04:09.000Z</time>
      </trkpt>
      <trkpt lat="44.22608" lon="2.98922">
        <ele>865</ele>
        <time>2019-10-13T09:04:10.000Z</time>
      </trkpt>
      <trkpt lat="44.22609" lon="2.98924">
        <ele>865</ele>
        <time>2019-10-13T09:04:11.000Z</time>
      </trkpt>
      <trkpt lat="44.22609" lon="2.98926">
        <ele>865</ele>
        <time>2019-10-13T09:04:12.000Z</time>
      </trkpt>
      <trkpt lat="44.2261" lon="2.98928">
        <ele>865</ele>
        <time>2019-10-13T09:04:13.000Z</time>
      </trkpt>
      <trkpt lat="44.2261" lon="2.9893">
        <ele>865</ele>
        <time>2019-10-13T09:04:14.000Z</time>
      </trkpt>
      <trkpt lat="44.2261" lon="2.98932">
        <ele>865</ele>
        <time>2019-10-13T09:04:15.000Z</time>
      </trkpt>
      <trkpt lat="44.22611" lon="2.98934">
        <ele>865</ele>
        <time>2019-10-13T09:04:16.000Z</time>
      </trkpt>
      <trkpt lat="44.22611" lon="2.98935">
        <ele>865</ele>
        <time>2019-10-13T09:04:17.000Z</time>
      </trkpt>
      <trkpt lat="44.22611" lon="2.98937">
        <ele>865</ele>
        <time>2019-10-13T09:04:18.000Z</time>
      </trkpt>
      <trkpt lat="44.22612" lon="2.98939">
        <ele>865</ele>
        <time>2019-10-13T09:04:19.000Z</time>
      </trkpt>
      <trkpt lat="44.22613" lon="2.9894">
        <ele>865</ele>
        <time>2019-10-13T09:04:20.000Z</time>
      </trkpt>
      <trkpt lat="44.22614" lon="2.98942">
        <ele>865</ele>
        <time>2019-10-13T09:04:21.000Z</time>
      </trkpt>
      <trkpt lat="44.22615" lon="2.98943">
        <ele>865</ele>
        <time>2019-10-13T09:04:22.000Z</time>
      </trkpt>
      <trkpt lat="44.22616" lon="2.98944">
        <ele>865</ele>
        <time>2019-10-13T09:04:23.000Z</time>
      </trkpt>
      <trkpt lat="44.22617" lon="2.98945">
        <ele>865</ele>
        <time>2019-10-13T09:04:24.000Z</time>
      </trkpt>
      <trkpt lat="44.22618" lon="2.98945">
        <ele>865</ele>
        <time>2019-10-13T09:04:25.000Z</time>
      </trkpt>
      <trkpt lat="44.2262" lon="2.98946">
        <ele>866</ele>
        <time>2019-10-13T09:04:26.000Z</time>
      </trkpt>
      <trkpt lat="44.22621" lon="2.98947">
        <ele>866</ele>
        <time>2019-10-13T09:04:27.000Z</time>
      </trkpt>
      <trkpt lat="44.22622" lon="2.98947">
        <ele>866</ele>
        <time>2019-10-13T09:04:28.000Z</time>
      </trkpt>
      <trkpt lat="44.22624" lon="2.98948">
        <ele>866</ele>
        <time>2019-10-13T09:04:29.000Z</time>
      </trkpt>
      <trkpt lat="44.22625" lon="2.98948">
        <ele>866</ele>
        <time>2019-10-13T09:04:30.000Z</time>
      </trkpt>
      <trkpt lat="44.22626" lon="2.98948">
        <ele>866</ele>
        <time>2019-10-13T09:04:31.000Z</time>
      </trkpt>
      <trkpt lat="44.22627" lon="2.98949">
        <ele>866</ele>
        <time>2019-10-13T09:04:32.000Z</time>
      </trkpt>
      <trkpt lat="44.22629" lon="2.98949">
        <ele>866</ele>
        <time>2019-10-13T09:04:33.000Z</time>
      </trkpt>
      <trkpt lat="44.2263" lon="2.98949">
        <ele>867</ele>
        <time>2019-10-13T09:04:34.000Z</time>
      </trkpt>
      <trkpt lat="44.22631" lon="2.98949">
        <ele>867</ele>
        <time>2019-10-13T09:04:35.000Z</time>
      </trkpt>
      <trkpt lat="44.22633" lon="2.98949">
        <ele>867</ele>
        <time>2019-10-13T09:04:36.000Z</time>
      </trkpt>
      <trkpt lat="44.22634" lon="2.98949">
        <ele>867</ele>
        <time>2019-10-13T09:04:37.000Z</time>
      </trkpt>
      <trkpt lat="44.22635" lon="2.98949">
        <ele>867</ele>
        <time>2019-10-13T09:04:38.000Z</time>
      </trkpt>
      <trkpt lat="44.22637" lon="2.98949">
        <ele>867</ele>
        <time>2019-10-13T09:04:39.000Z</time>
      </trkpt>
      <trkpt lat="44.22638" lon="2.98949">
        <ele>867</ele>
        <time>2019-10-13T09:04:40.000Z</time>
      </trkpt>
      <trkpt lat="44.2264" lon="2.98949">
        <ele>867</ele>
        <time>2019-10-13T09:04:41.000Z</time>
      </trkpt>
      <trkpt lat="44.22641" lon="2.98949">
        <ele>867</ele>
        <time>2019-10-13T09:04:42.000Z</time>
      </trkpt>
      <trkpt lat="44.22642" lon="2.98949">
        <ele>868</ele>
        <time>2019-10-13T09:04:43.000Z</time>
      </trkpt>
      <trkpt lat="44.22644" lon="2.98948">
        <ele>868</ele>
        <time>2019-10-13T09:04:44.000Z</time>
      </trkpt>
      <trkpt lat="44.22645" lon="2.98948">
        <ele>868</ele>
        <time>2019-10-13T09:04:45.000Z</time>
      </trkpt>
      <trkpt lat="44.22646" lon="2.98948">
        <ele>868</ele>
        <time>2019-10-13T09:04:46.000Z</time>
      </trkpt>
      <trkpt lat="44.22648" lon="2.98948">
        <ele>868</ele>
        <time>2019-10-13T09:04:47.000Z</time>
      </trkpt>
      <trkpt lat="44.22649" lon="2.98948">
        <ele>868</ele>
        <time>2019-10-13T09:04:48.000Z</time>
      </trkpt>
      <trkpt lat="44.22651" lon="2.98948">
        <ele>868</ele>
        <time>2019-10-13T09:04:49.000Z</time>
      </trkpt>
      <trkpt lat="44.22652" lon="2.98948">
        <ele>868</ele>
        <time>2019-10-13T09:04:50.000Z</time>
      </trkpt>
      <trkpt lat="44.22654" lon="2.98948">
        <ele>869</ele>
        <time>2019-10-13T09:04:51.000Z</time>
      </trkpt>
      <trkpt lat="44.22655" lon="2.98949">
        <ele>869</ele>
        <time>2019-10-13T09:04:52.000Z</time>
      </trkpt>
      <trkpt lat="44.22657" lon="2.98949">
        <ele>869</ele>
        <time>2019-10-13T09:04:53.000Z</time>
      </trkpt>
      <trkpt lat="44.22658" lon="2.98949">
        <ele>869</ele>
        <time>2019-10-13T09:04:54.000Z</time>
      </trkpt>
      <trkpt lat="44.2266" lon="2.98949">
        <ele>869</ele>
        <time>2019-10-13T09:04:55.000Z</time>
      </trkpt>
      <trkpt lat="44.22661" lon="2.9895">
        <ele>869</ele>
        <time>2019-10-13T09:04:56.000Z</time>
      </trkpt>
      <trkpt lat="44.22663" lon="2.9895">
        <ele>869</ele>
        <time>2019-10-13T09:04:57.000Z</time>
      </trkpt>
      <trkpt lat="44.22664" lon="2.9895">
        <ele>869</ele>
        <time>2019-10-13T09:04:58.000Z</time>
      </trkpt>
      <trkpt lat="44.22666" lon="2.98951">
        <ele>869</ele>
        <time>2019-10-13T09:04:59.000Z</time>
      </trkpt>
      <trkpt lat="44.22668" lon="2.98951">
        <ele>869</ele>
        <time>2019-10-13T09:05:00.000Z</time>
      </trkpt>
      <trkpt lat="44.22669" lon="2.98951">
        <ele>869</ele>
        <time>2019-10-13T09:05:01.000Z</time>
      </trkpt>
      <trkpt lat="44.22671" lon="2.98952">
        <ele>869</ele>
        <time>2019-10-13T09:05:02.000Z</time>
      </trkpt>
      <trkpt lat="44.22673" lon="2.98952">
        <ele>869</ele>
        <time>2019-10-13T09:05:03.000Z</time>
      </trkpt>
      <trkpt lat="44.22674" lon="2.98952">
        <ele>869</ele>
        <time>2019-10-13T09:05:04.000Z</time>
      </trkpt>
      <trkpt lat="44.22676" lon="2.98953">
        <ele>869</ele>
        <time>2019-10-13T09:05:05.000Z</time>
      </trkpt>
      <trkpt lat="44.22678" lon="2.98953">
        <ele>870</ele>
        <time>2019-10-13T09:05:06.000Z</time>
      </trkpt>
      <trkpt lat="44.22679" lon="2.98953">
        <ele>870</ele>
        <time>2019-10-13T09:05:07.000Z</time>
      </trkpt>
      <trkpt lat="44.22681" lon="2.98954">
        <ele>870</ele>
        <time>2019-10-13T09:05:08.000Z</time>
      </trkpt>
      <trkpt lat="44.22683" lon="2.98954">
        <ele>870</ele>
        <time>2019-10-13T09:05:09.000Z</time>
      </trkpt>
      <trkpt lat="44.22684" lon="2.98954">
        <ele>870</ele>
        <time>2019-10-13T09:05:10.000Z</time>
      </trkpt>
      <trkpt lat="44.22686" lon="2.98955">
        <ele>870</ele>
        <time>2019-10-13T09:05:11.000Z</time>
      </trkpt>
      <trkpt lat="44.22687" lon="2.98955">
        <ele>870</ele>
        <time>2019-10-13T09:05:12.000Z</time>
      </trkpt>
      <trkpt lat="44.22689" lon="2.98955">
        <ele>870</ele>
        <time>2019-10-13T09:05:13.000Z</time>
      </trkpt>
      <trkpt lat="44.22691" lon="2.98956">
        <ele>870</ele>
        <time>2019-10-13T09:05:14.000Z</time>
      </trkpt>
      <trkpt lat="44.22692" lon="2.98956">
        <ele>870</ele>
        <time>2019-10-13T09:05:15.000Z</time>
      </trkpt>
      <trkpt lat="44.22693" lon="2.98957">
        <ele>870</ele>
        <time>2019-10-13T09:05:16.000Z</time>
      </trkpt>
      <trkpt lat="44.22695" lon="2.98957">
        <ele>870</ele>
        <time>2019-10-13T09:05:17.000Z</time>
      </trkpt>
      <trkpt lat="44.22696" lon="2.98957">
        <ele>870</ele>
        <time>2019-10-13T09:05:18.000Z</time>
      </trkpt>
      <trkpt lat="44.22698" lon="2.98958">
        <ele>870</ele>
        <time>2019-10-13T09:05:19.000Z</time>
      </trkpt>
      <trkpt lat="44.22699" lon="2.98958">
        <ele>870</ele>
        <time>2019-10-13T09:05:20.000Z</time>
      </trkpt>
      <trkpt lat="44.22701" lon="2.98958">
        <ele>870</ele>
        <time>2019-10-13T09:05:21.000Z</time>
      </trkpt>
      <trkpt lat="44.22702" lon="2.98959">
        <ele>870</ele>
        <time>2019-10-13T09:05:22.000Z</time>
      </trkpt>
      <trkpt lat="44.22704" lon="2.98959">
        <ele>870</ele>
        <time>2019-10-13T09:05:23.000Z</time>
      </trkpt>
      <trkpt lat="44.22705" lon="2.98959">
        <ele>870</ele>
        <time>2019-10-13T09:05:24.000Z</time>
      </trkpt>
      <trkpt lat="44.22707" lon="2.9896">
        <ele>870</ele>
        <time>2019-10-13T09:05:25.000Z</time>
      </trkpt>
      <trkpt lat="44.22708" lon="2.9896">
        <ele>870</ele>
        <time>2019-10-13T09:05:26.000Z</time>
      </trkpt>
      <trkpt lat="44.22709" lon="2.9896">
        <ele>870</ele>
        <time>2019-10-13T09:05:27.000Z</time>
      </trkpt>
      <trkpt lat="44.2271" lon="2.98961">
        <ele>870</ele>
        <time>2019-10-13T09:05:28.000Z</time>
      </trkpt>
      <trkpt lat="44.22712" lon="2.98961">
        <ele>870</ele>
        <time>2019-10-13T09:05:29.000Z</time>
      </trkpt>
      <trkpt lat="44.22713" lon="2.98962">
        <ele>870</ele>
        <time>2019-10-13T09:05:30.000Z</time>
      </trkpt>
      <trkpt lat="44.22714" lon="2.98962">
        <ele>870</ele>
        <time>2019-10-13T09:05:31.000Z</time>
      </trkpt>
      <trkpt lat="44.22715" lon="2.98963">
        <ele>870</ele>
        <time>2019-10-13T09:05:32.000Z</time>
      </trkpt>
      <trkpt lat="44.22717" lon="2.98964">
        <ele>871</ele>
        <time>2019-10-13T09:05:33.000Z</time>
      </trkpt>
      <trkpt lat="44.22718" lon="2.98964">
        <ele>871</ele>
        <time>2019-10-13T09:05:34.000Z</time>
      </trkpt>
      <trkpt lat="44.2272" lon="2.98965">
        <ele>871</ele>
        <time>2019-10-13T09:05:35.000Z</time>
      </trkpt>
      <trkpt lat="44.22721" lon="2.98965">
        <ele>871</ele>
        <time>2019-10-13T09:05:36.000Z</time>
      </trkpt>
      <trkpt lat="44.22723" lon="2.98966">
        <ele>871</ele>
        <time>2019-10-13T09:05:37.000Z</time>
      </trkpt>
      <trkpt lat="44.22724" lon="2.98966">
        <ele>871</ele>
        <time>2019-10-13T09:05:38.000Z</time>
      </trkpt>
      <trkpt lat="44.22726" lon="2.98967">
        <ele>871</ele>
        <time>2019-10-13T09:05:39.000Z</time>
      </trkpt>
      <trkpt lat="44.22727" lon="2.98967">
        <ele>871</ele>
        <time>2019-10-13T09:05:40.000Z</time>
      </trkpt>
      <trkpt lat="44.22729" lon="2.98968">
        <ele>871</ele>
        <time>2019-10-13T09:05:41.000Z</time>
      </trkpt>
      <trkpt lat="44.2273" lon="2.98969">
        <ele>871</ele>
        <time>2019-10-13T09:05:42.000Z</time>
      </trkpt>
      <trkpt lat="44.22732" lon="2.98969">
        <ele>871</ele>
        <time>2019-10-13T09:05:43.000Z</time>
      </trkpt>
      <trkpt lat="44.22733" lon="2.9897">
        <ele>871</ele>
        <time>2019-10-13T09:05:44.000Z</time>
      </trkpt>
      <trkpt lat="44.22735" lon="2.98971">
        <ele>871</ele>
        <time>2019-10-13T09:05:45.000Z</time>
      </trkpt>
      <trkpt lat="44.22736" lon="2.98971">
        <ele>871</ele>
        <time>2019-10-13T09:05:46.000Z</time>
      </trkpt>
      <trkpt lat="44.22738" lon="2.98972">
        <ele>871</ele>
        <time>2019-10-13T09:05:47.000Z</time>
      </trkpt>
      <trkpt lat="44.22739" lon="2.98973">
        <ele>872</ele>
        <time>2019-10-13T09:05:48.000Z</time>
      </trkpt>
      <trkpt lat="44.22741" lon="2.98973">
        <ele>872</ele>
        <time>2019-10-13T09:05:49.000Z</time>
      </trkpt>
      <trkpt lat="44.22742" lon="2.98974">
        <ele>872</ele>
        <time>2019-10-13T09:05:50.000Z</time>
      </trkpt>
      <trkpt lat="44.22744" lon="2.98975">
        <ele>872</ele>
        <time>2019-10-13T09:05:51.000Z</time>
      </trkpt>
      <trkpt lat="44.22745" lon="2.98976">
        <ele>872</ele>
        <time>2019-10-13T09:05:52.000Z</time>
      </trkpt>
      <trkpt lat="44.22746" lon="2.98976">
        <ele>872</ele>
        <time>2019-10-13T09:05:53.000Z</time>
      </trkpt>
      <trkpt lat="44.22748" lon="2.98977">
        <ele>872</ele>
        <time>2019-10-13T09:05:54.000Z</time>
      </trkpt>
      <trkpt lat="44.22749" lon="2.98978">
        <ele>872</ele>
        <time>2019-10-13T09:05:55.000Z</time>
      </trkpt>
      <trkpt lat="44.2275" lon="2.98979">
        <ele>872</ele>
        <time>2019-10-13T09:05:56.000Z</time>
      </trkpt>
      <trkpt lat="44.22752" lon="2.9898">
        <ele>873</ele>
        <time>2019-10-13T09:05:57.000Z</time>
      </trkpt>
      <trkpt lat="44.22753" lon="2.98981">
        <ele>873</ele>
        <time>2019-10-13T09:05:58.000Z</time>
      </trkpt>
      <trkpt lat="44.22754" lon="2.98983">
        <ele>873</ele>
        <time>2019-10-13T09:05:59.000Z</time>
      </trkpt>
      <trkpt lat="44.22756" lon="2.98984">
        <ele>873</ele>
        <time>2019-10-13T09:06:00.000Z</time>
      </trkpt>
      <trkpt lat="44.22757" lon="2.98985">
        <ele>873</ele>
        <time>2019-10-13T09:06:01.000Z</time>
      </trkpt>
      <trkpt lat="44.22758" lon="2.98986">
        <ele>873</ele>
        <time>2019-10-13T09:06:02.000Z</time>
      </trkpt>
      <trkpt lat="44.22759" lon="2.98987">
        <ele>873</ele>
        <time>2019-10-13T09:06:03.000Z</time>
      </trkpt>
      <trkpt lat="44.2276" lon="2.98988">
        <ele>873</ele>
        <time>2019-10-13T09:06:04.000Z</time>
      </trkpt>
      <trkpt lat="44.22761" lon="2.9899">
        <ele>873</ele>
        <time>2019-10-13T09:06:05.000Z</time>
      </trkpt>
      <trkpt lat="44.22763" lon="2.98991">
        <ele>874</ele>
        <time>2019-10-13T09:06:06.000Z</time>
      </trkpt>
      <trkpt lat="44.22764" lon="2.98992">
        <ele>874</ele>
        <time>2019-10-13T09:06:07.000Z</time>
      </trkpt>
      <trkpt lat="44.22765" lon="2.98993">
        <ele>874</ele>
        <time>2019-10-13T09:06:08.000Z</time>
      </trkpt>
      <trkpt lat="44.22766" lon="2.98994">
        <ele>874</ele>
        <time>2019-10-13T09:06:09.000Z</time>
      </trkpt>
      <trkpt lat="44.22767" lon="2.98996">
        <ele>874</ele>
        <time>2019-10-13T09:06:10.000Z</time>
      </trkpt>
      <trkpt lat="44.22769" lon="2.98997">
        <ele>874</ele>
        <time>2019-10-13T09:06:11.000Z</time>
      </trkpt>
      <trkpt lat="44.2277" lon="2.98997">
        <ele>874</ele>
        <time>2019-10-13T09:06:12.000Z</time>
      </trkpt>
      <trkpt lat="44.22771" lon="2.98998">
        <ele>874</ele>
        <time>2019-10-13T09:06:13.000Z</time>
      </trkpt>
      <trkpt lat="44.22772" lon="2.98999">
        <ele>874</ele>
        <time>2019-10-13T09:06:14.000Z</time>
      </trkpt>
      <trkpt lat="44.22773" lon="2.99">
        <ele>875</ele>
        <time>2019-10-13T09:06:15.000Z</time>
      </trkpt>
      <trkpt lat="44.22774" lon="2.99001">
        <ele>875</ele>
        <time>2019-10-13T09:06:16.000Z</time>
      </trkpt>
      <trkpt lat="44.22776" lon="2.99002">
        <ele>875</ele>
        <time>2019-10-13T09:06:17.000Z</time>
      </trkpt>
      <trkpt lat="44.22777" lon="2.99003">
        <ele>875</ele>
        <time>2019-10-13T09:06:18.000Z</time>
      </trkpt>
      <trkpt lat="44.22778" lon="2.99004">
        <ele>875</ele>
        <time>2019-10-13T09:06:19.000Z</time>
      </trkpt>
      <trkpt lat="44.2278" lon="2.99005">
        <ele>875</ele>
        <time>2019-10-13T09:06:20.000Z</time>
      </trkpt>
      <trkpt lat="44.22781" lon="2.99005">
        <ele>876</ele>
        <time>2019-10-13T09:06:21.000Z</time>
      </trkpt>
      <trkpt lat="44.22782" lon="2.99006">
        <ele>876</ele>
        <time>2019-10-13T09:06:22.000Z</time>
      </trkpt>
      <trkpt lat="44.22783" lon="2.99007">
        <ele>876</ele>
        <time>2019-10-13T09:06:23.000Z</time>
      </trkpt>
      <trkpt lat="44.22785" lon="2.99008">
        <ele>876</ele>
        <time>2019-10-13T09:06:24.000Z</time>
      </trkpt>
      <trkpt lat="44.22786" lon="2.99008">
        <ele>876</ele>
        <time>2019-10-13T09:06:25.000Z</time>
      </trkpt>
      <trkpt lat="44.22787" lon="2.99009">
        <ele>876</ele>
        <time>2019-10-13T09:06:26.000Z</time>
      </trkpt>
      <trkpt lat="44.22788" lon="2.9901">
        <ele>876</ele>
        <time>2019-10-13T09:06:27.000Z</time>
      </trkpt>
      <trkpt lat="44.22789" lon="2.99011">
        <ele>876</ele>
        <time>2019-10-13T09:06:28.000Z</time>
      </trkpt>
      <trkpt lat="44.2279" lon="2.99012">
        <ele>877</ele>
        <time>2019-10-13T09:06:29.000Z</time>
      </trkpt>
      <trkpt lat="44.22792" lon="2.99014">
        <ele>877</ele>
        <time>2019-10-13T09:06:30.000Z</time>
      </trkpt>
      <trkpt lat="44.22793" lon="2.99015">
        <ele>877</ele>
        <time>2019-10-13T09:06:31.000Z</time>
      </trkpt>
      <trkpt lat="44.22794" lon="2.99016">
        <ele>877</ele>
        <time>2019-10-13T09:06:32.000Z</time>
      </trkpt>
      <trkpt lat="44.22794" lon="2.99017">
        <ele>877</ele>
        <time>2019-10-13T09:06:33.000Z</time>
      </trkpt>
      <trkpt lat="44.22795" lon="2.99018">
        <ele>877</ele>
        <time>2019-10-13T09:06:34.000Z</time>
      </trkpt>
      <trkpt lat="44.22796" lon="2.99019">
        <ele>876</ele>
        <time>2019-10-13T09:06:35.000Z</time>
      </trkpt>
      <trkpt lat="44.22797" lon="2.9902">
        <ele>876</ele>
        <time>2019-10-13T09:06:36.000Z</time>
      </trkpt>
      <trkpt lat="44.22798" lon="2.99021">
        <ele>876</ele>
        <time>2019-10-13T09:06:37.000Z</time>
      </trkpt>
      <trkpt lat="44.22799" lon="2.99023">
        <ele>876</ele>
        <time>2019-10-13T09:06:38.000Z</time>
      </trkpt>
      <trkpt lat="44.228" lon="2.99024">
        <ele>876</ele>
        <time>2019-10-13T09:06:39.000Z</time>
      </trkpt>
      <trkpt lat="44.22801" lon="2.99025">
        <ele>876</ele>
        <time>2019-10-13T09:06:40.000Z</time>
      </trkpt>
      <trkpt lat="44.22802" lon="2.99026">
        <ele>876</ele>
        <time>2019-10-13T09:06:41.000Z</time>
      </trkpt>
      <trkpt lat="44.22803" lon="2.99028">
        <ele>876</ele>
        <time>2019-10-13T09:06:42.000Z</time>
      </trkpt>
      <trkpt lat="44.22805" lon="2.99029">
        <ele>876</ele>
        <time>2019-10-13T09:06:43.000Z</time>
      </trkpt>
      <trkpt lat="44.22806" lon="2.9903">
        <ele>876</ele>
        <time>2019-10-13T09:06:44.000Z</time>
      </trkpt>
      <trkpt lat="44.22807" lon="2.99032">
        <ele>876</ele>
        <time>2019-10-13T09:06:45.000Z</time>
      </trkpt>
      <trkpt lat="44.22809" lon="2.99033">
        <ele>876</ele>
        <time>2019-10-13T09:06:46.000Z</time>
      </trkpt>
      <trkpt lat="44.2281" lon="2.99034">
        <ele>876</ele>
        <time>2019-10-13T09:06:47.000Z</time>
      </trkpt>
      <trkpt lat="44.22812" lon="2.99035">
        <ele>876</ele>
        <time>2019-10-13T09:06:48.000Z</time>
      </trkpt>
      <trkpt lat="44.22814" lon="2.99036">
        <ele>876</ele>
        <time>2019-10-13T09:06:49.000Z</time>
      </trkpt>
      <trkpt lat="44.22815" lon="2.99036">
        <ele>876</ele>
        <time>2019-10-13T09:06:50.000Z</time>
      </trkpt>
      <trkpt lat="44.22817" lon="2.99037">
        <ele>876</ele>
        <time>2019-10-13T09:06:51.000Z</time>
      </trkpt>
      <trkpt lat="44.22818" lon="2.99038">
        <ele>876</ele>
        <time>2019-10-13T09:06:52.000Z</time>
      </trkpt>
      <trkpt lat="44.2282" lon="2.99039">
        <ele>876</ele>
        <time>2019-10-13T09:06:53.000Z</time>
      </trkpt>
      <trkpt lat="44.22821" lon="2.9904">
        <ele>876</ele>
        <time>2019-10-13T09:06:54.000Z</time>
      </trkpt>
      <trkpt lat="44.22822" lon="2.99041">
        <ele>876</ele>
        <time>2019-10-13T09:06:55.000Z</time>
      </trkpt>
      <trkpt lat="44.22823" lon="2.99042">
        <ele>876</ele>
        <time>2019-10-13T09:06:56.000Z</time>
      </trkpt>
      <trkpt lat="44.22825" lon="2.99042">
        <ele>876</ele>
        <time>2019-10-13T09:06:57.000Z</time>
      </trkpt>
      <trkpt lat="44.22826" lon="2.99043">
        <ele>876</ele>
        <time>2019-10-13T09:06:58.000Z</time>
      </trkpt>
      <trkpt lat="44.22827" lon="2.99044">
        <ele>876</ele>
        <time>2019-10-13T09:06:59.000Z</time>
      </trkpt>
      <trkpt lat="44.22829" lon="2.99045">
        <ele>876</ele>
        <time>2019-10-13T09:07:00.000Z</time>
      </trkpt>
      <trkpt lat="44.22831" lon="2.99046">
        <ele>876</ele>
        <time>2019-10-13T09:07:01.000Z</time>
      </trkpt>
      <trkpt lat="44.22832" lon="2.99047">
        <ele>876</ele>
        <time>2019-10-13T09:07:02.000Z</time>
      </trkpt>
      <trkpt lat="44.22834" lon="2.99048">
        <ele>876</ele>
        <time>2019-10-13T09:07:03.000Z</time>
      </trkpt>
      <trkpt lat="44.22835" lon="2.99049">
        <ele>876</ele>
        <time>2019-10-13T09:07:04.000Z</time>
      </trkpt>
      <trkpt lat="44.22837" lon="2.9905">
        <ele>876</ele>
        <time>2019-10-13T09:07:05.000Z</time>
      </trkpt>
      <trkpt lat="44.22838" lon="2.99051">
        <ele>875</ele>
        <time>2019-10-13T09:07:06.000Z</time>
      </trkpt>
      <trkpt lat="44.2284" lon="2.99053">
        <ele>875</ele>
        <time>2019-10-13T09:07:07.000Z</time>
      </trkpt>
      <trkpt lat="44.22841" lon="2.99054">
        <ele>875</ele>
        <time>2019-10-13T09:07:08.000Z</time>
      </trkpt>
      <trkpt lat="44.22842" lon="2.99055">
        <ele>875</ele>
        <time>2019-10-13T09:07:09.000Z</time>
      </trkpt>
      <trkpt lat="44.22844" lon="2.99056">
        <ele>875</ele>
        <time>2019-10-13T09:07:10.000Z</time>
      </trkpt>
      <trkpt lat="44.22845" lon="2.99058">
        <ele>875</ele>
        <time>2019-10-13T09:07:11.000Z</time>
      </trkpt>
      <trkpt lat="44.22847" lon="2.99059">
        <ele>875</ele>
        <time>2019-10-13T09:07:12.000Z</time>
      </trkpt>
      <trkpt lat="44.22848" lon="2.9906">
        <ele>875</ele>
        <time>2019-10-13T09:07:13.000Z</time>
      </trkpt>
      <trkpt lat="44.2285" lon="2.99061">
        <ele>875</ele>
        <time>2019-10-13T09:07:14.000Z</time>
      </trkpt>
      <trkpt lat="44.22851" lon="2.99062">
        <ele>875</ele>
        <time>2019-10-13T09:07:15.000Z</time>
      </trkpt>
      <trkpt lat="44.22853" lon="2.99062">
        <ele>875</ele>
        <time>2019-10-13T09:07:16.000Z</time>
      </trkpt>
      <trkpt lat="44.22854" lon="2.99063">
        <ele>875</ele>
        <time>2019-10-13T09:07:17.000Z</time>
      </trkpt>
      <trkpt lat="44.22855" lon="2.99064">
        <ele>875</ele>
        <time>2019-10-13T09:07:18.000Z</time>
      </trkpt>
      <trkpt lat="44.22857" lon="2.99065">
        <ele>875</ele>
        <time>2019-10-13T09:07:19.000Z</time>
      </trkpt>
      <trkpt lat="44.22858" lon="2.99066">
        <ele>875</ele>
        <time>2019-10-13T09:07:20.000Z</time>
      </trkpt>
      <trkpt lat="44.22859" lon="2.99066">
        <ele>875</ele>
        <time>2019-10-13T09:07:21.000Z</time>
      </trkpt>
      <trkpt lat="44.22861" lon="2.99067">
        <ele>875</ele>
        <time>2019-10-13T09:07:22.000Z</time>
      </trkpt>
      <trkpt lat="44.22862" lon="2.99068">
        <ele>875</ele>
        <time>2019-10-13T09:07:23.000Z</time>
      </trkpt>
      <trkpt lat="44.22864" lon="2.99069">
        <ele>875</ele>
        <time>2019-10-13T09:07:24.000Z</time>
      </trkpt>
      <trkpt lat="44.22865" lon="2.99069">
        <ele>875</ele>
        <time>2019-10-13T09:07:25.000Z</time>
      </trkpt>
      <trkpt lat="44.22867" lon="2.9907">
        <ele>875</ele>
        <time>2019-10-13T09:07:26.000Z</time>
      </trkpt>
      <trkpt lat="44.22868" lon="2.9907">
        <ele>875</ele>
        <time>2019-10-13T09:07:27.000Z</time>
      </trkpt>
      <trkpt lat="44.22869" lon="2.99071">
        <ele>875</ele>
        <time>2019-10-13T09:07:28.000Z</time>
      </trkpt>
      <trkpt lat="44.22871" lon="2.99071">
        <ele>875</ele>
        <time>2019-10-13T09:07:29.000Z</time>
      </trkpt>
      <trkpt lat="44.22873" lon="2.99072">
        <ele>875</ele>
        <time>2019-10-13T09:07:30.000Z</time>
      </trkpt>
      <trkpt lat="44.22874" lon="2.99072">
        <ele>875</ele>
        <time>2019-10-13T09:07:31.000Z</time>
      </trkpt>
      <trkpt lat="44.22876" lon="2.99072">
        <ele>876</ele>
        <time>2019-10-13T09:07:32.000Z</time>
      </trkpt>
      <trkpt lat="44.22877" lon="2.99073">
        <ele>876</ele>
        <time>2019-10-13T09:07:33.000Z</time>
      </trkpt>
      <trkpt lat="44.22879" lon="2.99073">
        <ele>876</ele>
        <time>2019-10-13T09:07:34.000Z</time>
      </trkpt>
      <trkpt lat="44.2288" lon="2.99074">
        <ele>876</ele>
        <time>2019-10-13T09:07:35.000Z</time>
      </trkpt>
      <trkpt lat="44.22881" lon="2.99074">
        <ele>876</ele>
        <time>2019-10-13T09:07:36.000Z</time>
      </trkpt>
      <trkpt lat="44.22883" lon="2.99075">
        <ele>876</ele>
        <time>2019-10-13T09:07:37.000Z</time>
      </trkpt>
      <trkpt lat="44.22884" lon="2.99075">
        <ele>876</ele>
        <time>2019-10-13T09:07:38.000Z</time>
      </trkpt>
      <trkpt lat="44.22885" lon="2.99076">
        <ele>876</ele>
        <time>2019-10-13T09:07:39.000Z</time>
      </trkpt>
      <trkpt lat="44.22886" lon="2.99077">
        <ele>876</ele>
        <time>2019-10-13T09:07:40.000Z</time>
      </trkpt>
      <trkpt lat="44.22887" lon="2.99079">
        <ele>876</ele>
        <time>2019-10-13T09:07:41.000Z</time>
      </trkpt>
      <trkpt lat="44.22888" lon="2.9908">
        <ele>876</ele>
        <time>2019-10-13T09:07:42.000Z</time>
      </trkpt>
      <trkpt lat="44.22889" lon="2.99081">
        <ele>876</ele>
        <time>2019-10-13T09:07:43.000Z</time>
      </trkpt>
      <trkpt lat="44.2289" lon="2.99082">
        <ele>876</ele>
        <time>2019-10-13T09:07:44.000Z</time>
      </trkpt>
      <trkpt lat="44.22891" lon="2.99084">
        <ele>876</ele>
        <time>2019-10-13T09:07:45.000Z</time>
      </trkpt>
      <trkpt lat="44.22893" lon="2.99085">
        <ele>876</ele>
        <time>2019-10-13T09:07:46.000Z</time>
      </trkpt>
      <trkpt lat="44.22894" lon="2.99086">
        <ele>876</ele>
        <time>2019-10-13T09:07:47.000Z</time>
      </trkpt>
      <trkpt lat="44.22895" lon="2.99088">
        <ele>876</ele>
        <time>2019-10-13T09:07:48.000Z</time>
      </trkpt>
      <trkpt lat="44.22896" lon="2.99089">
        <ele>876</ele>
        <time>2019-10-13T09:07:49.000Z</time>
      </trkpt>
      <trkpt lat="44.22897" lon="2.9909">
        <ele>877</ele>
        <time>2019-10-13T09:07:50.000Z</time>
      </trkpt>
      <trkpt lat="44.22898" lon="2.99091">
        <ele>877</ele>
        <time>2019-10-13T09:07:51.000Z</time>
      </trkpt>
      <trkpt lat="44.229" lon="2.99092">
        <ele>877</ele>
        <time>2019-10-13T09:07:52.000Z</time>
      </trkpt>
      <trkpt lat="44.22902" lon="2.99093">
        <ele>877</ele>
        <time>2019-10-13T09:07:53.000Z</time>
      </trkpt>
      <trkpt lat="44.22904" lon="2.99093">
        <ele>877</ele>
        <time>2019-10-13T09:07:54.000Z</time>
      </trkpt>
      <trkpt lat="44.22906" lon="2.99094">
        <ele>877</ele>
        <time>2019-10-13T09:07:55.000Z</time>
      </trkpt>
      <trkpt lat="44.22909" lon="2.99094">
        <ele>877</ele>
        <time>2019-10-13T09:07:56.000Z</time>
      </trkpt>
      <trkpt lat="44.22911" lon="2.99096">
        <ele>877</ele>
        <time>2019-10-13T09:07:57.000Z</time>
      </trkpt>
      <trkpt lat="44.22913" lon="2.99097">
        <ele>877</ele>
        <time>2019-10-13T09:07:58.000Z</time>
      </trkpt>
      <trkpt lat="44.22916" lon="2.99098">
        <ele>877</ele>
        <time>2019-10-13T09:07:59.000Z</time>
      </trkpt>
      <trkpt lat="44.22919" lon="2.99099">
        <ele>877</ele>
        <time>2019-10-13T09:08:00.000Z</time>
      </trkpt>
      <trkpt lat="44.22923" lon="2.991">
        <ele>877</ele>
        <time>2019-10-13T09:08:01.000Z</time>
      </trkpt>
      <trkpt lat="44.22926" lon="2.991">
        <ele>877</ele>
        <time>2019-10-13T09:08:02.000Z</time>
      </trkpt>
      <trkpt lat="44.22929" lon="2.991">
        <ele>877</ele>
        <time>2019-10-13T09:08:03.000Z</time>
      </trkpt>
      <trkpt lat="44.22932" lon="2.99101">
        <ele>877</ele>
        <time>2019-10-13T09:08:04.000Z</time>
      </trkpt>
      <trkpt lat="44.22936" lon="2.99101">
        <ele>877</ele>
        <time>2019-10-13T09:08:05.000Z</time>
      </trkpt>
      <trkpt lat="44.22939" lon="2.99102">
        <ele>877</ele>
        <time>2019-10-13T09:08:06.000Z</time>
      </trkpt>
      <trkpt lat="44.22943" lon="2.99103">
        <ele>877</ele>
        <time>2019-10-13T09:08:07.000Z</time>
      </trkpt>
      <trkpt lat="44.22946" lon="2.99104">
        <ele>877</ele>
        <time>2019-10-13T09:08:08.000Z</time>
      </trkpt>
      <trkpt lat="44.2295" lon="2.99105">
        <ele>877</ele>
        <time>2019-10-13T09:08:09.000Z</time>
      </trkpt>
      <trkpt lat="44.22953" lon="2.99107">
        <ele>877</ele>
        <time>2019-10-13T09:08:10.000Z</time>
      </trkpt>
      <trkpt lat="44.22957" lon="2.99108">
        <ele>877</ele>
        <time>2019-10-13T09:08:11.000Z</time>
      </trkpt>
      <trkpt lat="44.22961" lon="2.99109">
        <ele>877</ele>
        <time>2019-10-13T09:08:12.000Z</time>
      </trkpt>
      <trkpt lat="44.22965" lon="2.9911">
        <ele>878</ele>
        <time>2019-10-13T09:08:13.000Z</time>
      </trkpt>
      <trkpt lat="44.22969" lon="2.99111">
        <ele>878</ele>
        <time>2019-10-13T09:08:14.000Z</time>
      </trkpt>
      <trkpt lat="44.22973" lon="2.99111">
        <ele>878</ele>
        <time>2019-10-13T09:08:15.000Z</time>
      </trkpt>
      <trkpt lat="44.22977" lon="2.99112">
        <ele>878</ele>
        <time>2019-10-13T09:08:16.000Z</time>
      </trkpt>
      <trkpt lat="44.22982" lon="2.99112">
        <ele>878</ele>
        <time>2019-10-13T09:08:17.000Z</time>
      </trkpt>
      <trkpt lat="44.22986" lon="2.99112">
        <ele>878</ele>
        <time>2019-10-13T09:08:18.000Z</time>
      </trkpt>
      <trkpt lat="44.22991" lon="2.99113">
        <ele>879</ele>
        <time>2019-10-13T09:08:19.000Z</time>
      </trkpt>
      <trkpt lat="44.22994" lon="2.99113">
        <ele>879</ele>
        <time>2019-10-13T09:08:20.000Z</time>
      </trkpt>
      <trkpt lat="44.22998" lon="2.99113">
        <ele>879</ele>
        <time>2019-10-13T09:08:21.000Z</time>
      </trkpt>
      <trkpt lat="44.23002" lon="2.99113">
        <ele>879</ele>
        <time>2019-10-13T09:08:22.000Z</time>
      </trkpt>
      <trkpt lat="44.23006" lon="2.99113">
        <ele>880</ele>
        <time>2019-10-13T09:08:23.000Z</time>
      </trkpt>
      <trkpt lat="44.2301" lon="2.99113">
        <ele>880</ele>
        <time>2019-10-13T09:08:24.000Z</time>
      </trkpt>
      <trkpt lat="44.23015" lon="2.99113">
        <ele>880</ele>
        <time>2019-10-13T09:08:25.000Z</time>
      </trkpt>
      <trkpt lat="44.23019" lon="2.99113">
        <ele>880</ele>
        <time>2019-10-13T09:08:26.000Z</time>
      </trkpt>
      <trkpt lat="44.23024" lon="2.99114">
        <ele>880</ele>
        <time>2019-10-13T09:08:27.000Z</time>
      </trkpt>
      <trkpt lat="44.23029" lon="2.99115">
        <ele>881</ele>
        <time>2019-10-13T09:08:28.000Z</time>
      </trkpt>
      <trkpt lat="44.23034" lon="2.99117">
        <ele>881</ele>
        <time>2019-10-13T09:08:29.000Z</time>
      </trkpt>
      <trkpt lat="44.23038" lon="2.9912">
        <ele>881</ele>
        <time>2019-10-13T09:08:30.000Z</time>
      </trkpt>
      <trkpt lat="44.23043" lon="2.99122">
        <ele>881</ele>
        <time>2019-10-13T09:08:31.000Z</time>
      </trkpt>
      <trkpt lat="44.23048" lon="2.99124">
        <ele>881</ele>
        <time>2019-10-13T09:08:32.000Z</time>
      </trkpt>
      <trkpt lat="44.23053" lon="2.99126">
        <ele>882</ele>
        <time>2019-10-13T09:08:33.000Z</time>
      </trkpt>
      <trkpt lat="44.23058" lon="2.99128">
        <ele>882</ele>
        <time>2019-10-13T09:08:34.000Z</time>
      </trkpt>
      <trkpt lat="44.23063" lon="2.9913">
        <ele>882</ele>
        <time>2019-10-13T09:08:35.000Z</time>
      </trkpt>
      <trkpt lat="44.23069" lon="2.99131">
        <ele>882</ele>
        <time>2019-10-13T09:08:36.000Z</time>
      </trkpt>
      <trkpt lat="44.23074" lon="2.99133">
        <ele>882</ele>
        <time>2019-10-13T09:08:37.000Z</time>
      </trkpt>
      <trkpt lat="44.2308" lon="2.99135">
        <ele>883</ele>
        <time>2019-10-13T09:08:38.000Z</time>
      </trkpt>
      <trkpt lat="44.23086" lon="2.99137">
        <ele>883</ele>
        <time>2019-10-13T09:08:39.000Z</time>
      </trkpt>
      <trkpt lat="44.23092" lon="2.9914">
        <ele>883</ele>
        <time>2019-10-13T09:08:40.000Z</time>
      </trkpt>
      <trkpt lat="44.23098" lon="2.99143">
        <ele>883</ele>
        <time>2019-10-13T09:08:41.000Z</time>
      </trkpt>
      <trkpt lat="44.23104" lon="2.99147">
        <ele>883</ele>
        <time>2019-10-13T09:08:42.000Z</time>
      </trkpt>
      <trkpt lat="44.23109" lon="2.99151">
        <ele>883</ele>
        <time>2019-10-13T09:08:43.000Z</time>
      </trkpt>
      <trkpt lat="44.23114" lon="2.99156">
        <ele>883</ele>
        <time>2019-10-13T09:08:44.000Z</time>
      </trkpt>
      <trkpt lat="44.23119" lon="2.99162">
        <ele>883</ele>
        <time>2019-10-13T09:08:45.000Z</time>
      </trkpt>
      <trkpt lat="44.23124" lon="2.99168">
        <ele>884</ele>
        <time>2019-10-13T09:08:46.000Z</time>
      </trkpt>
      <trkpt lat="44.23128" lon="2.99175">
        <ele>884</ele>
        <time>2019-10-13T09:08:47.000Z</time>
      </trkpt>
      <trkpt lat="44.23133" lon="2.99181">
        <ele>884</ele>
        <time>2019-10-13T09:08:48.000Z</time>
      </trkpt>
      <trkpt lat="44.23138" lon="2.99187">
        <ele>884</ele>
        <time>2019-10-13T09:08:49.000Z</time>
      </trkpt>
      <trkpt lat="44.23143" lon="2.99193">
        <ele>884</ele>
        <time>2019-10-13T09:08:50.000Z</time>
      </trkpt>
      <trkpt lat="44.23148" lon="2.99198">
        <ele>884</ele>
        <time>2019-10-13T09:08:51.000Z</time>
      </trkpt>
      <trkpt lat="44.23154" lon="2.99203">
        <ele>884</ele>
        <time>2019-10-13T09:08:52.000Z</time>
      </trkpt>
      <trkpt lat="44.23161" lon="2.99207">
        <ele>884</ele>
        <time>2019-10-13T09:08:53.000Z</time>
      </trkpt>
      <trkpt lat="44.23167" lon="2.9921">
        <ele>885</ele>
        <time>2019-10-13T09:08:54.000Z</time>
      </trkpt>
      <trkpt lat="44.23173" lon="2.99213">
        <ele>885</ele>
        <time>2019-10-13T09:08:55.000Z</time>
      </trkpt>
      <trkpt lat="44.23179" lon="2.99216">
        <ele>885</ele>
        <time>2019-10-13T09:08:56.000Z</time>
      </trkpt>
      <trkpt lat="44.23184" lon="2.99218">
        <ele>885</ele>
        <time>2019-10-13T09:08:57.000Z</time>
      </trkpt>
      <trkpt lat="44.2319" lon="2.9922">
        <ele>885</ele>
        <time>2019-10-13T09:08:58.000Z</time>
      </trkpt>
      <trkpt lat="44.23197" lon="2.99222">
        <ele>885</ele>
        <time>2019-10-13T09:08:59.000Z</time>
      </trkpt>
      <trkpt lat="44.23203" lon="2.99223">
        <ele>886</ele>
        <time>2019-10-13T09:09:00.000Z</time>
      </trkpt>
      <trkpt lat="44.23209" lon="2.99225">
        <ele>886</ele>
        <time>2019-10-13T09:09:01.000Z</time>
      </trkpt>
      <trkpt lat="44.23215" lon="2.99226">
        <ele>886</ele>
        <time>2019-10-13T09:09:02.000Z</time>
      </trkpt>
      <trkpt lat="44.23222" lon="2.99228">
        <ele>886</ele>
        <time>2019-10-13T09:09:03.000Z</time>
      </trkpt>
      <trkpt lat="44.23227" lon="2.99229">
        <ele>886</ele>
        <time>2019-10-13T09:09:04.000Z</time>
      </trkpt>
      <trkpt lat="44.23233" lon="2.9923">
        <ele>887</ele>
        <time>2019-10-13T09:09:05.000Z</time>
      </trkpt>
      <trkpt lat="44.23239" lon="2.9923">
        <ele>887</ele>
        <time>2019-10-13T09:09:06.000Z</time>
      </trkpt>
      <trkpt lat="44.23244" lon="2.99231">
        <ele>887</ele>
        <time>2019-10-13T09:09:07.000Z</time>
      </trkpt>
      <trkpt lat="44.23248" lon="2.99231">
        <ele>888</ele>
        <time>2019-10-13T09:09:08.000Z</time>
      </trkpt>
      <trkpt lat="44.2325" lon="2.99231">
        <ele>888</ele>
        <time>2019-10-13T09:09:09.000Z</time>
      </trkpt>
      <trkpt lat="44.23252" lon="2.99231">
        <ele>888</ele>
        <time>2019-10-13T09:09:10.000Z</time>
      </trkpt>
      <trkpt lat="44.23253" lon="2.99231">
        <ele>889</ele>
        <time>2019-10-13T09:09:11.000Z</time>
      </trkpt>
      <trkpt lat="44.23254" lon="2.9923">
        <ele>889</ele>
        <time>2019-10-13T09:09:12.000Z</time>
      </trkpt>
      <trkpt lat="44.23255" lon="2.9923">
        <ele>889</ele>
        <time>2019-10-13T09:09:13.000Z</time>
      </trkpt>
      <trkpt lat="44.23257" lon="2.9923">
        <ele>889</ele>
        <time>2019-10-13T09:09:14.000Z</time>
      </trkpt>
      <trkpt lat="44.23258" lon="2.99229">
        <ele>890</ele>
        <time>2019-10-13T09:09:15.000Z</time>
      </trkpt>
      <trkpt lat="44.23259" lon="2.99229">
        <ele>890</ele>
        <time>2019-10-13T09:09:16.000Z</time>
      </trkpt>
      <trkpt lat="44.23261" lon="2.99229">
        <ele>890</ele>
        <time>2019-10-13T09:09:17.000Z</time>
      </trkpt>
      <trkpt lat="44.23262" lon="2.9923">
        <ele>890</ele>
        <time>2019-10-13T09:09:18.000Z</time>
      </trkpt>
      <trkpt lat="44.23264" lon="2.99229">
        <ele>891</ele>
        <time>2019-10-13T09:09:19.000Z</time>
      </trkpt>
      <trkpt lat="44.23265" lon="2.99229">
        <ele>891</ele>
        <time>2019-10-13T09:09:20.000Z</time>
      </trkpt>
      <trkpt lat="44.23267" lon="2.99229">
        <ele>891</ele>
        <time>2019-10-13T09:09:21.000Z</time>
      </trkpt>
      <trkpt lat="44.23268" lon="2.99229">
        <ele>892</ele>
        <time>2019-10-13T09:09:22.000Z</time>
      </trkpt>
      <trkpt lat="44.23269" lon="2.99229">
        <ele>892</ele>
        <time>2019-10-13T09:09:23.000Z</time>
      </trkpt>
      <trkpt lat="44.23271" lon="2.99229">
        <ele>892</ele>
        <time>2019-10-13T09:09:24.000Z</time>
      </trkpt>
      <trkpt lat="44.23272" lon="2.99229">
        <ele>892</ele>
        <time>2019-10-13T09:09:25.000Z</time>
      </trkpt>
      <trkpt lat="44.23273" lon="2.99229">
        <ele>892</ele>
        <time>2019-10-13T09:09:26.000Z</time>
      </trkpt>
      <trkpt lat="44.23275" lon="2.9923">
        <ele>893</ele>
        <time>2019-10-13T09:09:27.000Z</time>
      </trkpt>
      <trkpt lat="44.23276" lon="2.9923">
        <ele>893</ele>
        <time>2019-10-13T09:09:28.000Z</time>
      </trkpt>
      <trkpt lat="44.23277" lon="2.9923">
        <ele>893</ele>
        <time>2019-10-13T09:09:29.000Z</time>
      </trkpt>
      <trkpt lat="44.23278" lon="2.9923">
        <ele>893</ele>
        <time>2019-10-13T09:09:30.000Z</time>
      </trkpt>
      <trkpt lat="44.2328" lon="2.9923">
        <ele>893</ele>
        <time>2019-10-13T09:09:31.000Z</time>
      </trkpt>
      <trkpt lat="44.23281" lon="2.9923">
        <ele>894</ele>
        <time>2019-10-13T09:09:32.000Z</time>
      </trkpt>
      <trkpt lat="44.23283" lon="2.9923">
        <ele>894</ele>
        <time>2019-10-13T09:09:33.000Z</time>
      </trkpt>
      <trkpt lat="44.23284" lon="2.9923">
        <ele>894</ele>
        <time>2019-10-13T09:09:34.000Z</time>
      </trkpt>
      <trkpt lat="44.23285" lon="2.9923">
        <ele>894</ele>
        <time>2019-10-13T09:09:35.000Z</time>
      </trkpt>
      <trkpt lat="44.23287" lon="2.9923">
        <ele>894</ele>
        <time>2019-10-13T09:09:36.000Z</time>
      </trkpt>
      <trkpt lat="44.23288" lon="2.9923">
        <ele>895</ele>
        <time>2019-10-13T09:09:37.000Z</time>
      </trkpt>
      <trkpt lat="44.2329" lon="2.9923">
        <ele>895</ele>
        <time>2019-10-13T09:09:38.000Z</time>
      </trkpt>
      <trkpt lat="44.23291" lon="2.9923">
        <ele>895</ele>
        <time>2019-10-13T09:09:39.000Z</time>
      </trkpt>
      <trkpt lat="44.23293" lon="2.9923">
        <ele>895</ele>
        <time>2019-10-13T09:09:40.000Z</time>
      </trkpt>
      <trkpt lat="44.23294" lon="2.9923">
        <ele>895</ele>
        <time>2019-10-13T09:09:41.000Z</time>
      </trkpt>
      <trkpt lat="44.23295" lon="2.9923">
        <ele>895</ele>
        <time>2019-10-13T09:09:42.000Z</time>
      </trkpt>
      <trkpt lat="44.23296" lon="2.9923">
        <ele>895</ele>
        <time>2019-10-13T09:09:43.000Z</time>
      </trkpt>
      <trkpt lat="44.23297" lon="2.99231">
        <ele>895</ele>
        <time>2019-10-13T09:09:44.000Z</time>
      </trkpt>
      <trkpt lat="44.23299" lon="2.99231">
        <ele>896</ele>
        <time>2019-10-13T09:09:45.000Z</time>
      </trkpt>
      <trkpt lat="44.233" lon="2.99231">
        <ele>896</ele>
        <time>2019-10-13T09:09:46.000Z</time>
      </trkpt>
      <trkpt lat="44.233" lon="2.9923">
        <ele>896</ele>
        <time>2019-10-13T09:09:47.000Z</time>
      </trkpt>
      <trkpt lat="44.233" lon="2.9923">
        <ele>896</ele>
        <time>2019-10-13T09:09:48.000Z</time>
      </trkpt>
      <trkpt lat="44.23301" lon="2.9923">
        <ele>896</ele>
        <time>2019-10-13T09:09:49.000Z</time>
      </trkpt>
      <trkpt lat="44.23302" lon="2.9923">
        <ele>896</ele>
        <time>2019-10-13T09:09:50.000Z</time>
      </trkpt>
      <trkpt lat="44.23303" lon="2.9923">
        <ele>896</ele>
        <time>2019-10-13T09:09:51.000Z</time>
      </trkpt>
      <trkpt lat="44.23305" lon="2.9923">
        <ele>896</ele>
        <time>2019-10-13T09:09:52.000Z</time>
      </trkpt>
      <trkpt lat="44.23306" lon="2.9923">
        <ele>896</ele>
        <time>2019-10-13T09:09:53.000Z</time>
      </trkpt>
      <trkpt lat="44.23307" lon="2.9923">
        <ele>896</ele>
        <time>2019-10-13T09:09:54.000Z</time>
      </trkpt>
      <trkpt lat="44.23309" lon="2.99231">
        <ele>896</ele>
        <time>2019-10-13T09:09:55.000Z</time>
      </trkpt>
      <trkpt lat="44.2331" lon="2.99231">
        <ele>896</ele>
        <time>2019-10-13T09:09:56.000Z</time>
      </trkpt>
      <trkpt lat="44.23312" lon="2.99231">
        <ele>896</ele>
        <time>2019-10-13T09:09:57.000Z</time>
      </trkpt>
      <trkpt lat="44.23313" lon="2.99231">
        <ele>896</ele>
        <time>2019-10-13T09:09:58.000Z</time>
      </trkpt>
      <trkpt lat="44.23314" lon="2.99232">
        <ele>896</ele>
        <time>2019-10-13T09:09:59.000Z</time>
      </trkpt>
      <trkpt lat="44.23316" lon="2.99231">
        <ele>896</ele>
        <time>2019-10-13T09:10:00.000Z</time>
      </trkpt>
      <trkpt lat="44.23317" lon="2.99231">
        <ele>896</ele>
        <time>2019-10-13T09:10:01.000Z</time>
      </trkpt>
      <trkpt lat="44.23319" lon="2.99231">
        <ele>896</ele>
        <time>2019-10-13T09:10:02.000Z</time>
      </trkpt>
      <trkpt lat="44.23321" lon="2.99231">
        <ele>896</ele>
        <time>2019-10-13T09:10:03.000Z</time>
      </trkpt>
      <trkpt lat="44.23322" lon="2.99231">
        <ele>896</ele>
        <time>2019-10-13T09:10:04.000Z</time>
      </trkpt>
      <trkpt lat="44.23324" lon="2.99231">
        <ele>896</ele>
        <time>2019-10-13T09:10:05.000Z</time>
      </trkpt>
      <trkpt lat="44.23325" lon="2.99231">
        <ele>897</ele>
        <time>2019-10-13T09:10:06.000Z</time>
      </trkpt>
      <trkpt lat="44.23327" lon="2.99231">
        <ele>897</ele>
        <time>2019-10-13T09:10:07.000Z</time>
      </trkpt>
      <trkpt lat="44.23329" lon="2.99232">
        <ele>897</ele>
        <time>2019-10-13T09:10:08.000Z</time>
      </trkpt>
      <trkpt lat="44.2333" lon="2.99232">
        <ele>897</ele>
        <time>2019-10-13T09:10:09.000Z</time>
      </trkpt>
      <trkpt lat="44.23332" lon="2.99232">
        <ele>897</ele>
        <time>2019-10-13T09:10:10.000Z</time>
      </trkpt>
      <trkpt lat="44.23333" lon="2.99232">
        <ele>897</ele>
        <time>2019-10-13T09:10:11.000Z</time>
      </trkpt>
      <trkpt lat="44.23335" lon="2.99232">
        <ele>897</ele>
        <time>2019-10-13T09:10:12.000Z</time>
      </trkpt>
      <trkpt lat="44.23337" lon="2.99232">
        <ele>897</ele>
        <time>2019-10-13T09:10:13.000Z</time>
      </trkpt>
      <trkpt lat="44.23338" lon="2.99232">
        <ele>897</ele>
        <time>2019-10-13T09:10:14.000Z</time>
      </trkpt>
      <trkpt lat="44.23339" lon="2.99232">
        <ele>897</ele>
        <time>2019-10-13T09:10:15.000Z</time>
      </trkpt>
      <trkpt lat="44.23341" lon="2.99233">
        <ele>898</ele>
        <time>2019-10-13T09:10:16.000Z</time>
      </trkpt>
      <trkpt lat="44.23342" lon="2.99233">
        <ele>898</ele>
        <time>2019-10-13T09:10:17.000Z</time>
      </trkpt>
      <trkpt lat="44.23344" lon="2.99233">
        <ele>898</ele>
        <time>2019-10-13T09:10:18.000Z</time>
      </trkpt>
      <trkpt lat="44.23346" lon="2.99233">
        <ele>898</ele>
        <time>2019-10-13T09:10:19.000Z</time>
      </trkpt>
      <trkpt lat="44.23347" lon="2.99233">
        <ele>898</ele>
        <time>2019-10-13T09:10:20.000Z</time>
      </trkpt>
      <trkpt lat="44.23349" lon="2.99233">
        <ele>898</ele>
        <time>2019-10-13T09:10:21.000Z</time>
      </trkpt>
      <trkpt lat="44.2335" lon="2.99234">
        <ele>898</ele>
        <time>2019-10-13T09:10:22.000Z</time>
      </trkpt>
      <trkpt lat="44.23352" lon="2.99234">
        <ele>898</ele>
        <time>2019-10-13T09:10:23.000Z</time>
      </trkpt>
      <trkpt lat="44.23353" lon="2.99234">
        <ele>899</ele>
        <time>2019-10-13T09:10:24.000Z</time>
      </trkpt>
      <trkpt lat="44.23355" lon="2.99234">
        <ele>899</ele>
        <time>2019-10-13T09:10:25.000Z</time>
      </trkpt>
      <trkpt lat="44.23356" lon="2.99235">
        <ele>899</ele>
        <time>2019-10-13T09:10:26.000Z</time>
      </trkpt>
      <trkpt lat="44.23358" lon="2.99235">
        <ele>899</ele>
        <time>2019-10-13T09:10:27.000Z</time>
      </trkpt>
      <trkpt lat="44.23359" lon="2.99236">
        <ele>899</ele>
        <time>2019-10-13T09:10:28.000Z</time>
      </trkpt>
      <trkpt lat="44.2336" lon="2.99236">
        <ele>899</ele>
        <time>2019-10-13T09:10:29.000Z</time>
      </trkpt>
      <trkpt lat="44.23362" lon="2.99236">
        <ele>899</ele>
        <time>2019-10-13T09:10:30.000Z</time>
      </trkpt>
      <trkpt lat="44.23363" lon="2.99236">
        <ele>899</ele>
        <time>2019-10-13T09:10:31.000Z</time>
      </trkpt>
      <trkpt lat="44.23365" lon="2.99237">
        <ele>900</ele>
        <time>2019-10-13T09:10:32.000Z</time>
      </trkpt>
      <trkpt lat="44.23366" lon="2.99237">
        <ele>900</ele>
        <time>2019-10-13T09:10:33.000Z</time>
      </trkpt>
      <trkpt lat="44.23368" lon="2.99237">
        <ele>900</ele>
        <time>2019-10-13T09:10:34.000Z</time>
      </trkpt>
      <trkpt lat="44.23369" lon="2.99237">
        <ele>900</ele>
        <time>2019-10-13T09:10:35.000Z</time>
      </trkpt>
      <trkpt lat="44.23371" lon="2.99238">
        <ele>900</ele>
        <time>2019-10-13T09:10:36.000Z</time>
      </trkpt>
      <trkpt lat="44.23372" lon="2.99237">
        <ele>900</ele>
        <time>2019-10-13T09:10:37.000Z</time>
      </trkpt>
      <trkpt lat="44.23374" lon="2.99237">
        <ele>900</ele>
        <time>2019-10-13T09:10:38.000Z</time>
      </trkpt>
      <trkpt lat="44.23375" lon="2.99237">
        <ele>900</ele>
        <time>2019-10-13T09:10:39.000Z</time>
      </trkpt>
      <trkpt lat="44.23377" lon="2.99237">
        <ele>900</ele>
        <time>2019-10-13T09:10:40.000Z</time>
      </trkpt>
      <trkpt lat="44.23378" lon="2.99237">
        <ele>900</ele>
        <time>2019-10-13T09:10:41.000Z</time>
      </trkpt>
      <trkpt lat="44.2338" lon="2.99237">
        <ele>900</ele>
        <time>2019-10-13T09:10:42.000Z</time>
      </trkpt>
      <trkpt lat="44.23381" lon="2.99237">
        <ele>900</ele>
        <time>2019-10-13T09:10:43.000Z</time>
      </trkpt>
      <trkpt lat="44.23383" lon="2.99238">
        <ele>900</ele>
        <time>2019-10-13T09:10:44.000Z</time>
      </trkpt>
      <trkpt lat="44.23385" lon="2.99238">
        <ele>900</ele>
        <time>2019-10-13T09:10:45.000Z</time>
      </trkpt>
      <trkpt lat="44.23386" lon="2.99238">
        <ele>901</ele>
        <time>2019-10-13T09:10:46.000Z</time>
      </trkpt>
      <trkpt lat="44.23388" lon="2.99238">
        <ele>901</ele>
        <time>2019-10-13T09:10:47.000Z</time>
      </trkpt>
      <trkpt lat="44.23389" lon="2.99238">
        <ele>901</ele>
        <time>2019-10-13T09:10:48.000Z</time>
      </trkpt>
      <trkpt lat="44.23391" lon="2.99238">
        <ele>901</ele>
        <time>2019-10-13T09:10:49.000Z</time>
      </trkpt>
      <trkpt lat="44.23393" lon="2.99238">
        <ele>901</ele>
        <time>2019-10-13T09:10:50.000Z</time>
      </trkpt>
      <trkpt lat="44.23394" lon="2.99238">
        <ele>901</ele>
        <time>2019-10-13T09:10:51.000Z</time>
      </trkpt>
      <trkpt lat="44.23396" lon="2.99239">
        <ele>901</ele>
        <time>2019-10-13T09:10:52.000Z</time>
      </trkpt>
      <trkpt lat="44.23398" lon="2.99239">
        <ele>901</ele>
        <time>2019-10-13T09:10:53.000Z</time>
      </trkpt>
      <trkpt lat="44.234" lon="2.99239">
        <ele>901</ele>
        <time>2019-10-13T09:10:54.000Z</time>
      </trkpt>
      <trkpt lat="44.23402" lon="2.99239">
        <ele>902</ele>
        <time>2019-10-13T09:10:55.000Z</time>
      </trkpt>
      <trkpt lat="44.23403" lon="2.99239">
        <ele>902</ele>
        <time>2019-10-13T09:10:56.000Z</time>
      </trkpt>
      <trkpt lat="44.23405" lon="2.9924">
        <ele>902</ele>
        <time>2019-10-13T09:10:57.000Z</time>
      </trkpt>
      <trkpt lat="44.23407" lon="2.9924">
        <ele>902</ele>
        <time>2019-10-13T09:10:58.000Z</time>
      </trkpt>
      <trkpt lat="44.23409" lon="2.9924">
        <ele>902</ele>
        <time>2019-10-13T09:10:59.000Z</time>
      </trkpt>
      <trkpt lat="44.23411" lon="2.9924">
        <ele>902</ele>
        <time>2019-10-13T09:11:00.000Z</time>
      </trkpt>
      <trkpt lat="44.23412" lon="2.9924">
        <ele>902</ele>
        <time>2019-10-13T09:11:01.000Z</time>
      </trkpt>
      <trkpt lat="44.23414" lon="2.9924">
        <ele>902</ele>
        <time>2019-10-13T09:11:02.000Z</time>
      </trkpt>
      <trkpt lat="44.23416" lon="2.9924">
        <ele>902</ele>
        <time>2019-10-13T09:11:03.000Z</time>
      </trkpt>
      <trkpt lat="44.23418" lon="2.99239">
        <ele>902</ele>
        <time>2019-10-13T09:11:04.000Z</time>
      </trkpt>
      <trkpt lat="44.2342" lon="2.99239">
        <ele>901</ele>
        <time>2019-10-13T09:11:05.000Z</time>
      </trkpt>
      <trkpt lat="44.23421" lon="2.99239">
        <ele>901</ele>
        <time>2019-10-13T09:11:06.000Z</time>
      </trkpt>
      <trkpt lat="44.23423" lon="2.99239">
        <ele>901</ele>
        <time>2019-10-13T09:11:07.000Z</time>
      </trkpt>
      <trkpt lat="44.23425" lon="2.99239">
        <ele>901</ele>
        <time>2019-10-13T09:11:08.000Z</time>
      </trkpt>
      <trkpt lat="44.23427" lon="2.99239">
        <ele>901</ele>
        <time>2019-10-13T09:11:09.000Z</time>
      </trkpt>
      <trkpt lat="44.23428" lon="2.99239">
        <ele>901</ele>
        <time>2019-10-13T09:11:10.000Z</time>
      </trkpt>
      <trkpt lat="44.2343" lon="2.99239">
        <ele>901</ele>
        <time>2019-10-13T09:11:11.000Z</time>
      </trkpt>
      <trkpt lat="44.23431" lon="2.99239">
        <ele>901</ele>
        <time>2019-10-13T09:11:12.000Z</time>
      </trkpt>
      <trkpt lat="44.23433" lon="2.99239">
        <ele>901</ele>
        <time>2019-10-13T09:11:13.000Z</time>
      </trkpt>
      <trkpt lat="44.23434" lon="2.99238">
        <ele>901</ele>
        <time>2019-10-13T09:11:14.000Z</time>
      </trkpt>
      <trkpt lat="44.23436" lon="2.99239">
        <ele>901</ele>
        <time>2019-10-13T09:11:15.000Z</time>
      </trkpt>
      <trkpt lat="44.23438" lon="2.99239">
        <ele>901</ele>
        <time>2019-10-13T09:11:16.000Z</time>
      </trkpt>
      <trkpt lat="44.23439" lon="2.99239">
        <ele>901</ele>
        <time>2019-10-13T09:11:17.000Z</time>
      </trkpt>
      <trkpt lat="44.23441" lon="2.99239">
        <ele>901</ele>
        <time>2019-10-13T09:11:18.000Z</time>
      </trkpt>
      <trkpt lat="44.23442" lon="2.99239">
        <ele>901</ele>
        <time>2019-10-13T09:11:19.000Z</time>
      </trkpt>
      <trkpt lat="44.23443" lon="2.99239">
        <ele>901</ele>
        <time>2019-10-13T09:11:20.000Z</time>
      </trkpt>
      <trkpt lat="44.23445" lon="2.99239">
        <ele>901</ele>
        <time>2019-10-13T09:11:21.000Z</time>
      </trkpt>
      <trkpt lat="44.23446" lon="2.99239">
        <ele>901</ele>
        <time>2019-10-13T09:11:22.000Z</time>
      </trkpt>
      <trkpt lat="44.23448" lon="2.99238">
        <ele>901</ele>
        <time>2019-10-13T09:11:23.000Z</time>
      </trkpt>
      <trkpt lat="44.23449" lon="2.99238">
        <ele>901</ele>
        <time>2019-10-13T09:11:24.000Z</time>
      </trkpt>
      <trkpt lat="44.23451" lon="2.99238">
        <ele>901</ele>
        <time>2019-10-13T09:11:25.000Z</time>
      </trkpt>
      <trkpt lat="44.23452" lon="2.99238">
        <ele>901</ele>
        <time>2019-10-13T09:11:26.000Z</time>
      </trkpt>
      <trkpt lat="44.23454" lon="2.99237">
        <ele>901</ele>
        <time>2019-10-13T09:11:27.000Z</time>
      </trkpt>
      <trkpt lat="44.23455" lon="2.99237">
        <ele>901</ele>
        <time>2019-10-13T09:11:28.000Z</time>
      </trkpt>
      <trkpt lat="44.23456" lon="2.99236">
        <ele>901</ele>
        <time>2019-10-13T09:11:29.000Z</time>
      </trkpt>
      <trkpt lat="44.23458" lon="2.99236">
        <ele>901</ele>
        <time>2019-10-13T09:11:30.000Z</time>
      </trkpt>
      <trkpt lat="44.2346" lon="2.99236">
        <ele>901</ele>
        <time>2019-10-13T09:11:31.000Z</time>
      </trkpt>
      <trkpt lat="44.23462" lon="2.99237">
        <ele>901</ele>
        <time>2019-10-13T09:11:32.000Z</time>
      </trkpt>
      <trkpt lat="44.23463" lon="2.99237">
        <ele>901</ele>
        <time>2019-10-13T09:11:33.000Z</time>
      </trkpt>
      <trkpt lat="44.23465" lon="2.99237">
        <ele>901</ele>
        <time>2019-10-13T09:11:34.000Z</time>
      </trkpt>
      <trkpt lat="44.23466" lon="2.99237">
        <ele>902</ele>
        <time>2019-10-13T09:11:35.000Z</time>
      </trkpt>
      <trkpt lat="44.23468" lon="2.99237">
        <ele>902</ele>
        <time>2019-10-13T09:11:36.000Z</time>
      </trkpt>
      <trkpt lat="44.23469" lon="2.99237">
        <ele>902</ele>
        <time>2019-10-13T09:11:37.000Z</time>
      </trkpt>
      <trkpt lat="44.2347" lon="2.99237">
        <ele>902</ele>
        <time>2019-10-13T09:11:38.000Z</time>
      </trkpt>
      <trkpt lat="44.23472" lon="2.99238">
        <ele>902</ele>
        <time>2019-10-13T09:11:39.000Z</time>
      </trkpt>
      <trkpt lat="44.23473" lon="2.99238">
        <ele>902</ele>
        <time>2019-10-13T09:11:40.000Z</time>
      </trkpt>
      <trkpt lat="44.23475" lon="2.99238">
        <ele>902</ele>
        <time>2019-10-13T09:11:41.000Z</time>
      </trkpt>
      <trkpt lat="44.23477" lon="2.99238">
        <ele>902</ele>
        <time>2019-10-13T09:11:42.000Z</time>
      </trkpt>
      <trkpt lat="44.23478" lon="2.99238">
        <ele>902</ele>
        <time>2019-10-13T09:11:43.000Z</time>
      </trkpt>
      <trkpt lat="44.2348" lon="2.99238">
        <ele>903</ele>
        <time>2019-10-13T09:11:44.000Z</time>
      </trkpt>
      <trkpt lat="44.23481" lon="2.99238">
        <ele>903</ele>
        <time>2019-10-13T09:11:45.000Z</time>
      </trkpt>
      <trkpt lat="44.23483" lon="2.99239">
        <ele>903</ele>
        <time>2019-10-13T09:11:46.000Z</time>
      </trkpt>
      <trkpt lat="44.23484" lon="2.99239">
        <ele>903</ele>
        <time>2019-10-13T09:11:47.000Z</time>
      </trkpt>
      <trkpt lat="44.23486" lon="2.99239">
        <ele>903</ele>
        <time>2019-10-13T09:11:48.000Z</time>
      </trkpt>
      <trkpt lat="44.23488" lon="2.99239">
        <ele>903</ele>
        <time>2019-10-13T09:11:49.000Z</time>
      </trkpt>
      <trkpt lat="44.23489" lon="2.9924">
        <ele>903</ele>
        <time>2019-10-13T09:11:50.000Z</time>
      </trkpt>
      <trkpt lat="44.23491" lon="2.9924">
        <ele>903</ele>
        <time>2019-10-13T09:11:51.000Z</time>
      </trkpt>
      <trkpt lat="44.23492" lon="2.99239">
        <ele>903</ele>
        <time>2019-10-13T09:11:52.000Z</time>
      </trkpt>
      <trkpt lat="44.23494" lon="2.99239">
        <ele>903</ele>
        <time>2019-10-13T09:11:53.000Z</time>
      </trkpt>
      <trkpt lat="44.23495" lon="2.99239">
        <ele>903</ele>
        <time>2019-10-13T09:11:54.000Z</time>
      </trkpt>
      <trkpt lat="44.23497" lon="2.99239">
        <ele>903</ele>
        <time>2019-10-13T09:11:55.000Z</time>
      </trkpt>
      <trkpt lat="44.23498" lon="2.99239">
        <ele>903</ele>
        <time>2019-10-13T09:11:56.000Z</time>
      </trkpt>
      <trkpt lat="44.23499" lon="2.99239">
        <ele>903</ele>
        <time>2019-10-13T09:11:57.000Z</time>
      </trkpt>
      <trkpt lat="44.23501" lon="2.9924">
        <ele>904</ele>
        <time>2019-10-13T09:11:58.000Z</time>
      </trkpt>
      <trkpt lat="44.23502" lon="2.9924">
        <ele>904</ele>
        <time>2019-10-13T09:11:59.000Z</time>
      </trkpt>
      <trkpt lat="44.23504" lon="2.9924">
        <ele>904</ele>
        <time>2019-10-13T09:12:00.000Z</time>
      </trkpt>
      <trkpt lat="44.23505" lon="2.99241">
        <ele>904</ele>
        <time>2019-10-13T09:12:01.000Z</time>
      </trkpt>
      <trkpt lat="44.23506" lon="2.99241">
        <ele>904</ele>
        <time>2019-10-13T09:12:02.000Z</time>
      </trkpt>
      <trkpt lat="44.23508" lon="2.99241">
        <ele>904</ele>
        <time>2019-10-13T09:12:03.000Z</time>
      </trkpt>
      <trkpt lat="44.23509" lon="2.99241">
        <ele>904</ele>
        <time>2019-10-13T09:12:04.000Z</time>
      </trkpt>
      <trkpt lat="44.23511" lon="2.99242">
        <ele>904</ele>
        <time>2019-10-13T09:12:05.000Z</time>
      </trkpt>
      <trkpt lat="44.23512" lon="2.99242">
        <ele>904</ele>
        <time>2019-10-13T09:12:06.000Z</time>
      </trkpt>
      <trkpt lat="44.23514" lon="2.99243">
        <ele>904</ele>
        <time>2019-10-13T09:12:07.000Z</time>
      </trkpt>
      <trkpt lat="44.23515" lon="2.99243">
        <ele>904</ele>
        <time>2019-10-13T09:12:08.000Z</time>
      </trkpt>
      <trkpt lat="44.23516" lon="2.99243">
        <ele>904</ele>
        <time>2019-10-13T09:12:09.000Z</time>
      </trkpt>
      <trkpt lat="44.23518" lon="2.99243">
        <ele>904</ele>
        <time>2019-10-13T09:12:10.000Z</time>
      </trkpt>
      <trkpt lat="44.23519" lon="2.99243">
        <ele>905</ele>
        <time>2019-10-13T09:12:11.000Z</time>
      </trkpt>
      <trkpt lat="44.23521" lon="2.99243">
        <ele>905</ele>
        <time>2019-10-13T09:12:12.000Z</time>
      </trkpt>
      <trkpt lat="44.23522" lon="2.99244">
        <ele>905</ele>
        <time>2019-10-13T09:12:13.000Z</time>
      </trkpt>
      <trkpt lat="44.23524" lon="2.99244">
        <ele>905</ele>
        <time>2019-10-13T09:12:14.000Z</time>
      </trkpt>
      <trkpt lat="44.23525" lon="2.99244">
        <ele>905</ele>
        <time>2019-10-13T09:12:15.000Z</time>
      </trkpt>
      <trkpt lat="44.23527" lon="2.99244">
        <ele>905</ele>
        <time>2019-10-13T09:12:16.000Z</time>
      </trkpt>
      <trkpt lat="44.23528" lon="2.99245">
        <ele>905</ele>
        <time>2019-10-13T09:12:17.000Z</time>
      </trkpt>
      <trkpt lat="44.23529" lon="2.99245">
        <ele>905</ele>
        <time>2019-10-13T09:12:18.000Z</time>
      </trkpt>
      <trkpt lat="44.23531" lon="2.99245">
        <ele>905</ele>
        <time>2019-10-13T09:12:19.000Z</time>
      </trkpt>
      <trkpt lat="44.23532" lon="2.99245">
        <ele>905</ele>
        <time>2019-10-13T09:12:20.000Z</time>
      </trkpt>
      <trkpt lat="44.23534" lon="2.99246">
        <ele>905</ele>
        <time>2019-10-13T09:12:21.000Z</time>
      </trkpt>
      <trkpt lat="44.23536" lon="2.99246">
        <ele>905</ele>
        <time>2019-10-13T09:12:22.000Z</time>
      </trkpt>
      <trkpt lat="44.23538" lon="2.99247">
        <ele>905</ele>
        <time>2019-10-13T09:12:23.000Z</time>
      </trkpt>
      <trkpt lat="44.2354" lon="2.99247">
        <ele>905</ele>
        <time>2019-10-13T09:12:24.000Z</time>
      </trkpt>
      <trkpt lat="44.23541" lon="2.99247">
        <ele>905</ele>
        <time>2019-10-13T09:12:25.000Z</time>
      </trkpt>
      <trkpt lat="44.23543" lon="2.99248">
        <ele>905</ele>
        <time>2019-10-13T09:12:26.000Z</time>
      </trkpt>
      <trkpt lat="44.23544" lon="2.99249">
        <ele>905</ele>
        <time>2019-10-13T09:12:27.000Z</time>
      </trkpt>
      <trkpt lat="44.23546" lon="2.99249">
        <ele>905</ele>
        <time>2019-10-13T09:12:28.000Z</time>
      </trkpt>
      <trkpt lat="44.23547" lon="2.9925">
        <ele>905</ele>
        <time>2019-10-13T09:12:29.000Z</time>
      </trkpt>
      <trkpt lat="44.23549" lon="2.9925">
        <ele>905</ele>
        <time>2019-10-13T09:12:30.000Z</time>
      </trkpt>
      <trkpt lat="44.2355" lon="2.9925">
        <ele>905</ele>
        <time>2019-10-13T09:12:31.000Z</time>
      </trkpt>
      <trkpt lat="44.23551" lon="2.99251">
        <ele>905</ele>
        <time>2019-10-13T09:12:32.000Z</time>
      </trkpt>
      <trkpt lat="44.23552" lon="2.99251">
        <ele>905</ele>
        <time>2019-10-13T09:12:33.000Z</time>
      </trkpt>
      <trkpt lat="44.23553" lon="2.99251">
        <ele>905</ele>
        <time>2019-10-13T09:12:34.000Z</time>
      </trkpt>
      <trkpt lat="44.23555" lon="2.99252">
        <ele>905</ele>
        <time>2019-10-13T09:12:35.000Z</time>
      </trkpt>
      <trkpt lat="44.23556" lon="2.99253">
        <ele>905</ele>
        <time>2019-10-13T09:12:36.000Z</time>
      </trkpt>
      <trkpt lat="44.23558" lon="2.99253">
        <ele>905</ele>
        <time>2019-10-13T09:12:37.000Z</time>
      </trkpt>
      <trkpt lat="44.2356" lon="2.99254">
        <ele>905</ele>
        <time>2019-10-13T09:12:38.000Z</time>
      </trkpt>
      <trkpt lat="44.23561" lon="2.99255">
        <ele>905</ele>
        <time>2019-10-13T09:12:39.000Z</time>
      </trkpt>
      <trkpt lat="44.23563" lon="2.99255">
        <ele>905</ele>
        <time>2019-10-13T09:12:40.000Z</time>
      </trkpt>
      <trkpt lat="44.23564" lon="2.99256">
        <ele>905</ele>
        <time>2019-10-13T09:12:41.000Z</time>
      </trkpt>
      <trkpt lat="44.23566" lon="2.99256">
        <ele>905</ele>
        <time>2019-10-13T09:12:42.000Z</time>
      </trkpt>
      <trkpt lat="44.23568" lon="2.99256">
        <ele>905</ele>
        <time>2019-10-13T09:12:43.000Z</time>
      </trkpt>
      <trkpt lat="44.23569" lon="2.99256">
        <ele>905</ele>
        <time>2019-10-13T09:12:44.000Z</time>
      </trkpt>
      <trkpt lat="44.23571" lon="2.99256">
        <ele>905</ele>
        <time>2019-10-13T09:12:45.000Z</time>
      </trkpt>
      <trkpt lat="44.23572" lon="2.99257">
        <ele>905</ele>
        <time>2019-10-13T09:12:46.000Z</time>
      </trkpt>
      <trkpt lat="44.23574" lon="2.99257">
        <ele>905</ele>
        <time>2019-10-13T09:12:47.000Z</time>
      </trkpt>
      <trkpt lat="44.23575" lon="2.99258">
        <ele>905</ele>
        <time>2019-10-13T09:12:48.000Z</time>
      </trkpt>
      <trkpt lat="44.23577" lon="2.99258">
        <ele>905</ele>
        <time>2019-10-13T09:12:49.000Z</time>
      </trkpt>
      <trkpt lat="44.23578" lon="2.99258">
        <ele>905</ele>
        <time>2019-10-13T09:12:50.000Z</time>
      </trkpt>
      <trkpt lat="44.2358" lon="2.99258">
        <ele>905</ele>
        <time>2019-10-13T09:12:51.000Z</time>
      </trkpt>
      <trkpt lat="44.23581" lon="2.99258">
        <ele>905</ele>
        <time>2019-10-13T09:12:52.000Z</time>
      </trkpt>
      <trkpt lat="44.23583" lon="2.99259">
        <ele>905</ele>
        <time>2019-10-13T09:12:53.000Z</time>
      </trkpt>
      <trkpt lat="44.23584" lon="2.99259">
        <ele>905</ele>
        <time>2019-10-13T09:12:54.000Z</time>
      </trkpt>
      <trkpt lat="44.23586" lon="2.9926">
        <ele>905</ele>
        <time>2019-10-13T09:12:55.000Z</time>
      </trkpt>
      <trkpt lat="44.23587" lon="2.9926">
        <ele>905</ele>
        <time>2019-10-13T09:12:56.000Z</time>
      </trkpt>
      <trkpt lat="44.23589" lon="2.9926">
        <ele>905</ele>
        <time>2019-10-13T09:12:57.000Z</time>
      </trkpt>
      <trkpt lat="44.23591" lon="2.99261">
        <ele>905</ele>
        <time>2019-10-13T09:12:58.000Z</time>
      </trkpt>
      <trkpt lat="44.23592" lon="2.99261">
        <ele>905</ele>
        <time>2019-10-13T09:12:59.000Z</time>
      </trkpt>
      <trkpt lat="44.23593" lon="2.99261">
        <ele>905</ele>
        <time>2019-10-13T09:13:00.000Z</time>
      </trkpt>
      <trkpt lat="44.23595" lon="2.99262">
        <ele>905</ele>
        <time>2019-10-13T09:13:01.000Z</time>
      </trkpt>
      <trkpt lat="44.23596" lon="2.99263">
        <ele>906</ele>
        <time>2019-10-13T09:13:02.000Z</time>
      </trkpt>
      <trkpt lat="44.23597" lon="2.99263">
        <ele>906</ele>
        <time>2019-10-13T09:13:03.000Z</time>
      </trkpt>
      <trkpt lat="44.23599" lon="2.99264">
        <ele>906</ele>
        <time>2019-10-13T09:13:04.000Z</time>
      </trkpt>
      <trkpt lat="44.236" lon="2.99264">
        <ele>906</ele>
        <time>2019-10-13T09:13:05.000Z</time>
      </trkpt>
      <trkpt lat="44.23602" lon="2.99264">
        <ele>906</ele>
        <time>2019-10-13T09:13:06.000Z</time>
      </trkpt>
      <trkpt lat="44.23603" lon="2.99264">
        <ele>906</ele>
        <time>2019-10-13T09:13:07.000Z</time>
      </trkpt>
      <trkpt lat="44.23604" lon="2.99265">
        <ele>906</ele>
        <time>2019-10-13T09:13:08.000Z</time>
      </trkpt>
      <trkpt lat="44.23606" lon="2.99265">
        <ele>906</ele>
        <time>2019-10-13T09:13:09.000Z</time>
      </trkpt>
      <trkpt lat="44.23608" lon="2.99264">
        <ele>906</ele>
        <time>2019-10-13T09:13:10.000Z</time>
      </trkpt>
      <trkpt lat="44.23609" lon="2.99264">
        <ele>905</ele>
        <time>2019-10-13T09:13:11.000Z</time>
      </trkpt>
      <trkpt lat="44.23611" lon="2.99264">
        <ele>905</ele>
        <time>2019-10-13T09:13:12.000Z</time>
      </trkpt>
      <trkpt lat="44.23612" lon="2.99264">
        <ele>905</ele>
        <time>2019-10-13T09:13:13.000Z</time>
      </trkpt>
      <trkpt lat="44.23614" lon="2.99264">
        <ele>905</ele>
        <time>2019-10-13T09:13:14.000Z</time>
      </trkpt>
      <trkpt lat="44.23616" lon="2.99263">
        <ele>905</ele>
        <time>2019-10-13T09:13:15.000Z</time>
      </trkpt>
      <trkpt lat="44.23618" lon="2.99263">
        <ele>905</ele>
        <time>2019-10-13T09:13:16.000Z</time>
      </trkpt>
      <trkpt lat="44.23619" lon="2.99262">
        <ele>905</ele>
        <time>2019-10-13T09:13:17.000Z</time>
      </trkpt>
      <trkpt lat="44.23621" lon="2.99262">
        <ele>905</ele>
        <time>2019-10-13T09:13:18.000Z</time>
      </trkpt>
      <trkpt lat="44.23623" lon="2.99261">
        <ele>905</ele>
        <time>2019-10-13T09:13:19.000Z</time>
      </trkpt>
      <trkpt lat="44.23624" lon="2.99261">
        <ele>905</ele>
        <time>2019-10-13T09:13:20.000Z</time>
      </trkpt>
      <trkpt lat="44.23626" lon="2.9926">
        <ele>905</ele>
        <time>2019-10-13T09:13:21.000Z</time>
      </trkpt>
      <trkpt lat="44.23627" lon="2.9926">
        <ele>905</ele>
        <time>2019-10-13T09:13:22.000Z</time>
      </trkpt>
      <trkpt lat="44.23629" lon="2.99259">
        <ele>905</ele>
        <time>2019-10-13T09:13:23.000Z</time>
      </trkpt>
      <trkpt lat="44.2363" lon="2.99259">
        <ele>905</ele>
        <time>2019-10-13T09:13:24.000Z</time>
      </trkpt>
      <trkpt lat="44.23632" lon="2.99259">
        <ele>905</ele>
        <time>2019-10-13T09:13:25.000Z</time>
      </trkpt>
      <trkpt lat="44.23634" lon="2.99259">
        <ele>905</ele>
        <time>2019-10-13T09:13:26.000Z</time>
      </trkpt>
      <trkpt lat="44.23635" lon="2.99258">
        <ele>905</ele>
        <time>2019-10-13T09:13:27.000Z</time>
      </trkpt>
      <trkpt lat="44.23637" lon="2.99258">
        <ele>905</ele>
        <time>2019-10-13T09:13:28.000Z</time>
      </trkpt>
      <trkpt lat="44.23638" lon="2.99258">
        <ele>905</ele>
        <time>2019-10-13T09:13:29.000Z</time>
      </trkpt>
      <trkpt lat="44.2364" lon="2.99258">
        <ele>905</ele>
        <time>2019-10-13T09:13:30.000Z</time>
      </trkpt>
      <trkpt lat="44.23642" lon="2.99258">
        <ele>905</ele>
        <time>2019-10-13T09:13:31.000Z</time>
      </trkpt>
      <trkpt lat="44.23643" lon="2.99258">
        <ele>905</ele>
        <time>2019-10-13T09:13:32.000Z</time>
      </trkpt>
      <trkpt lat="44.23644" lon="2.99258">
        <ele>905</ele>
        <time>2019-10-13T09:13:33.000Z</time>
      </trkpt>
      <trkpt lat="44.23646" lon="2.99258">
        <ele>904</ele>
        <time>2019-10-13T09:13:34.000Z</time>
      </trkpt>
      <trkpt lat="44.23648" lon="2.99258">
        <ele>904</ele>
        <time>2019-10-13T09:13:35.000Z</time>
      </trkpt>
      <trkpt lat="44.23649" lon="2.99258">
        <ele>904</ele>
        <time>2019-10-13T09:13:36.000Z</time>
      </trkpt>
      <trkpt lat="44.2365" lon="2.99258">
        <ele>904</ele>
        <time>2019-10-13T09:13:37.000Z</time>
      </trkpt>
      <trkpt lat="44.23652" lon="2.99259">
        <ele>904</ele>
        <time>2019-10-13T09:13:38.000Z</time>
      </trkpt>
      <trkpt lat="44.23653" lon="2.99259">
        <ele>904</ele>
        <time>2019-10-13T09:13:39.000Z</time>
      </trkpt>
      <trkpt lat="44.23655" lon="2.99259">
        <ele>904</ele>
        <time>2019-10-13T09:13:40.000Z</time>
      </trkpt>
      <trkpt lat="44.23656" lon="2.9926">
        <ele>904</ele>
        <time>2019-10-13T09:13:41.000Z</time>
      </trkpt>
      <trkpt lat="44.23658" lon="2.9926">
        <ele>904</ele>
        <time>2019-10-13T09:13:42.000Z</time>
      </trkpt>
      <trkpt lat="44.23659" lon="2.99261">
        <ele>904</ele>
        <time>2019-10-13T09:13:43.000Z</time>
      </trkpt>
      <trkpt lat="44.23661" lon="2.99261">
        <ele>904</ele>
        <time>2019-10-13T09:13:44.000Z</time>
      </trkpt>
      <trkpt lat="44.23662" lon="2.99262">
        <ele>904</ele>
        <time>2019-10-13T09:13:45.000Z</time>
      </trkpt>
      <trkpt lat="44.23664" lon="2.99262">
        <ele>904</ele>
        <time>2019-10-13T09:13:46.000Z</time>
      </trkpt>
      <trkpt lat="44.23665" lon="2.99262">
        <ele>904</ele>
        <time>2019-10-13T09:13:47.000Z</time>
      </trkpt>
      <trkpt lat="44.23667" lon="2.99263">
        <ele>904</ele>
        <time>2019-10-13T09:13:48.000Z</time>
      </trkpt>
      <trkpt lat="44.23668" lon="2.99263">
        <ele>904</ele>
        <time>2019-10-13T09:13:49.000Z</time>
      </trkpt>
      <trkpt lat="44.2367" lon="2.99263">
        <ele>904</ele>
        <time>2019-10-13T09:13:50.000Z</time>
      </trkpt>
      <trkpt lat="44.23671" lon="2.99263">
        <ele>904</ele>
        <time>2019-10-13T09:13:51.000Z</time>
      </trkpt>
      <trkpt lat="44.23673" lon="2.99264">
        <ele>904</ele>
        <time>2019-10-13T09:13:52.000Z</time>
      </trkpt>
      <trkpt lat="44.23675" lon="2.99264">
        <ele>904</ele>
        <time>2019-10-13T09:13:53.000Z</time>
      </trkpt>
      <trkpt lat="44.23676" lon="2.99265">
        <ele>904</ele>
        <time>2019-10-13T09:13:54.000Z</time>
      </trkpt>
      <trkpt lat="44.23677" lon="2.99265">
        <ele>904</ele>
        <time>2019-10-13T09:13:55.000Z</time>
      </trkpt>
      <trkpt lat="44.23679" lon="2.99266">
        <ele>904</ele>
        <time>2019-10-13T09:13:56.000Z</time>
      </trkpt>
      <trkpt lat="44.2368" lon="2.99267">
        <ele>904</ele>
        <time>2019-10-13T09:13:57.000Z</time>
      </trkpt>
      <trkpt lat="44.23682" lon="2.99268">
        <ele>904</ele>
        <time>2019-10-13T09:13:58.000Z</time>
      </trkpt>
      <trkpt lat="44.23683" lon="2.99269">
        <ele>903</ele>
        <time>2019-10-13T09:13:59.000Z</time>
      </trkpt>
      <trkpt lat="44.23685" lon="2.9927">
        <ele>903</ele>
        <time>2019-10-13T09:14:00.000Z</time>
      </trkpt>
      <trkpt lat="44.23686" lon="2.9927">
        <ele>903</ele>
        <time>2019-10-13T09:14:01.000Z</time>
      </trkpt>
      <trkpt lat="44.23688" lon="2.99271">
        <ele>903</ele>
        <time>2019-10-13T09:14:02.000Z</time>
      </trkpt>
      <trkpt lat="44.23689" lon="2.99272">
        <ele>903</ele>
        <time>2019-10-13T09:14:03.000Z</time>
      </trkpt>
      <trkpt lat="44.2369" lon="2.99272">
        <ele>903</ele>
        <time>2019-10-13T09:14:04.000Z</time>
      </trkpt>
      <trkpt lat="44.23692" lon="2.99273">
        <ele>903</ele>
        <time>2019-10-13T09:14:05.000Z</time>
      </trkpt>
      <trkpt lat="44.23693" lon="2.99273">
        <ele>903</ele>
        <time>2019-10-13T09:14:06.000Z</time>
      </trkpt>
      <trkpt lat="44.23694" lon="2.99274">
        <ele>903</ele>
        <time>2019-10-13T09:14:07.000Z</time>
      </trkpt>
      <trkpt lat="44.23696" lon="2.99275">
        <ele>903</ele>
        <time>2019-10-13T09:14:08.000Z</time>
      </trkpt>
      <trkpt lat="44.23697" lon="2.99275">
        <ele>903</ele>
        <time>2019-10-13T09:14:09.000Z</time>
      </trkpt>
      <trkpt lat="44.23699" lon="2.99276">
        <ele>903</ele>
        <time>2019-10-13T09:14:10.000Z</time>
      </trkpt>
      <trkpt lat="44.237" lon="2.99277">
        <ele>902</ele>
        <time>2019-10-13T09:14:11.000Z</time>
      </trkpt>
      <trkpt lat="44.23701" lon="2.99278">
        <ele>902</ele>
        <time>2019-10-13T09:14:12.000Z</time>
      </trkpt>
      <trkpt lat="44.23703" lon="2.99279">
        <ele>902</ele>
        <time>2019-10-13T09:14:13.000Z</time>
      </trkpt>
      <trkpt lat="44.23704" lon="2.9928">
        <ele>902</ele>
        <time>2019-10-13T09:14:14.000Z</time>
      </trkpt>
      <trkpt lat="44.23705" lon="2.9928">
        <ele>902</ele>
        <time>2019-10-13T09:14:15.000Z</time>
      </trkpt>
      <trkpt lat="44.23707" lon="2.99281">
        <ele>902</ele>
        <time>2019-10-13T09:14:16.000Z</time>
      </trkpt>
      <trkpt lat="44.23708" lon="2.99283">
        <ele>902</ele>
        <time>2019-10-13T09:14:17.000Z</time>
      </trkpt>
      <trkpt lat="44.2371" lon="2.99284">
        <ele>901</ele>
        <time>2019-10-13T09:14:18.000Z</time>
      </trkpt>
      <trkpt lat="44.23712" lon="2.99284">
        <ele>901</ele>
        <time>2019-10-13T09:14:19.000Z</time>
      </trkpt>
      <trkpt lat="44.23713" lon="2.99286">
        <ele>901</ele>
        <time>2019-10-13T09:14:20.000Z</time>
      </trkpt>
      <trkpt lat="44.23715" lon="2.99286">
        <ele>901</ele>
        <time>2019-10-13T09:14:21.000Z</time>
      </trkpt>
      <trkpt lat="44.23716" lon="2.99287">
        <ele>901</ele>
        <time>2019-10-13T09:14:22.000Z</time>
      </trkpt>
      <trkpt lat="44.23717" lon="2.99288">
        <ele>901</ele>
        <time>2019-10-13T09:14:23.000Z</time>
      </trkpt>
      <trkpt lat="44.23719" lon="2.9929">
        <ele>901</ele>
        <time>2019-10-13T09:14:24.000Z</time>
      </trkpt>
      <trkpt lat="44.2372" lon="2.99291">
        <ele>901</ele>
        <time>2019-10-13T09:14:25.000Z</time>
      </trkpt>
      <trkpt lat="44.23722" lon="2.99292">
        <ele>901</ele>
        <time>2019-10-13T09:14:26.000Z</time>
      </trkpt>
      <trkpt lat="44.23723" lon="2.99293">
        <ele>901</ele>
        <time>2019-10-13T09:14:27.000Z</time>
      </trkpt>
      <trkpt lat="44.23725" lon="2.99294">
        <ele>901</ele>
        <time>2019-10-13T09:14:28.000Z</time>
      </trkpt>
      <trkpt lat="44.23726" lon="2.99295">
        <ele>901</ele>
        <time>2019-10-13T09:14:29.000Z</time>
      </trkpt>
      <trkpt lat="44.23728" lon="2.99296">
        <ele>901</ele>
        <time>2019-10-13T09:14:30.000Z</time>
      </trkpt>
      <trkpt lat="44.23729" lon="2.99296">
        <ele>900</ele>
        <time>2019-10-13T09:14:31.000Z</time>
      </trkpt>
      <trkpt lat="44.2373" lon="2.99297">
        <ele>900</ele>
        <time>2019-10-13T09:14:32.000Z</time>
      </trkpt>
      <trkpt lat="44.23732" lon="2.99297">
        <ele>900</ele>
        <time>2019-10-13T09:14:33.000Z</time>
      </trkpt>
      <trkpt lat="44.23733" lon="2.99298">
        <ele>900</ele>
        <time>2019-10-13T09:14:34.000Z</time>
      </trkpt>
      <trkpt lat="44.23735" lon="2.99299">
        <ele>900</ele>
        <time>2019-10-13T09:14:35.000Z</time>
      </trkpt>
      <trkpt lat="44.23736" lon="2.993">
        <ele>900</ele>
        <time>2019-10-13T09:14:36.000Z</time>
      </trkpt>
      <trkpt lat="44.23738" lon="2.99301">
        <ele>900</ele>
        <time>2019-10-13T09:14:37.000Z</time>
      </trkpt>
      <trkpt lat="44.23739" lon="2.99301">
        <ele>900</ele>
        <time>2019-10-13T09:14:38.000Z</time>
      </trkpt>
      <trkpt lat="44.23741" lon="2.99302">
        <ele>900</ele>
        <time>2019-10-13T09:14:39.000Z</time>
      </trkpt>
      <trkpt lat="44.23742" lon="2.99303">
        <ele>900</ele>
        <time>2019-10-13T09:14:40.000Z</time>
      </trkpt>
      <trkpt lat="44.23744" lon="2.99304">
        <ele>900</ele>
        <time>2019-10-13T09:14:41.000Z</time>
      </trkpt>
      <trkpt lat="44.23745" lon="2.99305">
        <ele>900</ele>
        <time>2019-10-13T09:14:42.000Z</time>
      </trkpt>
      <trkpt lat="44.23746" lon="2.99306">
        <ele>900</ele>
        <time>2019-10-13T09:14:43.000Z</time>
      </trkpt>
      <trkpt lat="44.23747" lon="2.99307">
        <ele>900</ele>
        <time>2019-10-13T09:14:44.000Z</time>
      </trkpt>
      <trkpt lat="44.23749" lon="2.99308">
        <ele>900</ele>
        <time>2019-10-13T09:14:45.000Z</time>
      </trkpt>
      <trkpt lat="44.2375" lon="2.99309">
        <ele>900</ele>
        <time>2019-10-13T09:14:46.000Z</time>
      </trkpt>
      <trkpt lat="44.23751" lon="2.9931">
        <ele>900</ele>
        <time>2019-10-13T09:14:47.000Z</time>
      </trkpt>
      <trkpt lat="44.23752" lon="2.9931">
        <ele>900</ele>
        <time>2019-10-13T09:14:48.000Z</time>
      </trkpt>
      <trkpt lat="44.23753" lon="2.99311">
        <ele>900</ele>
        <time>2019-10-13T09:14:49.000Z</time>
      </trkpt>
      <trkpt lat="44.23754" lon="2.99311">
        <ele>900</ele>
        <time>2019-10-13T09:14:50.000Z</time>
      </trkpt>
      <trkpt lat="44.23755" lon="2.99312">
        <ele>900</ele>
        <time>2019-10-13T09:14:51.000Z</time>
      </trkpt>
      <trkpt lat="44.23757" lon="2.99312">
        <ele>900</ele>
        <time>2019-10-13T09:14:52.000Z</time>
      </trkpt>
      <trkpt lat="44.23758" lon="2.99313">
        <ele>900</ele>
        <time>2019-10-13T09:14:53.000Z</time>
      </trkpt>
      <trkpt lat="44.23759" lon="2.99313">
        <ele>900</ele>
        <time>2019-10-13T09:14:54.000Z</time>
      </trkpt>
      <trkpt lat="44.2376" lon="2.99314">
        <ele>900</ele>
        <time>2019-10-13T09:14:55.000Z</time>
      </trkpt>
      <trkpt lat="44.23761" lon="2.99315">
        <ele>900</ele>
        <time>2019-10-13T09:14:56.000Z</time>
      </trkpt>
      <trkpt lat="44.23763" lon="2.99316">
        <ele>900</ele>
        <time>2019-10-13T09:14:57.000Z</time>
      </trkpt>
      <trkpt lat="44.23764" lon="2.99317">
        <ele>901</ele>
        <time>2019-10-13T09:14:58.000Z</time>
      </trkpt>
      <trkpt lat="44.23765" lon="2.99318">
        <ele>901</ele>
        <time>2019-10-13T09:14:59.000Z</time>
      </trkpt>
      <trkpt lat="44.23767" lon="2.99319">
        <ele>901</ele>
        <time>2019-10-13T09:15:00.000Z</time>
      </trkpt>
      <trkpt lat="44.23768" lon="2.99321">
        <ele>901</ele>
        <time>2019-10-13T09:15:01.000Z</time>
      </trkpt>
      <trkpt lat="44.23769" lon="2.99322">
        <ele>901</ele>
        <time>2019-10-13T09:15:02.000Z</time>
      </trkpt>
      <trkpt lat="44.2377" lon="2.99323">
        <ele>901</ele>
        <time>2019-10-13T09:15:03.000Z</time>
      </trkpt>
      <trkpt lat="44.23771" lon="2.99325">
        <ele>901</ele>
        <time>2019-10-13T09:15:04.000Z</time>
      </trkpt>
      <trkpt lat="44.23772" lon="2.99326">
        <ele>901</ele>
        <time>2019-10-13T09:15:05.000Z</time>
      </trkpt>
      <trkpt lat="44.23774" lon="2.99327">
        <ele>901</ele>
        <time>2019-10-13T09:15:06.000Z</time>
      </trkpt>
      <trkpt lat="44.23775" lon="2.99328">
        <ele>901</ele>
        <time>2019-10-13T09:15:07.000Z</time>
      </trkpt>
      <trkpt lat="44.23776" lon="2.99329">
        <ele>901</ele>
        <time>2019-10-13T09:15:08.000Z</time>
      </trkpt>
      <trkpt lat="44.23777" lon="2.9933">
        <ele>901</ele>
        <time>2019-10-13T09:15:09.000Z</time>
      </trkpt>
      <trkpt lat="44.23778" lon="2.99332">
        <ele>901</ele>
        <time>2019-10-13T09:15:10.000Z</time>
      </trkpt>
      <trkpt lat="44.23779" lon="2.99334">
        <ele>901</ele>
        <time>2019-10-13T09:15:11.000Z</time>
      </trkpt>
      <trkpt lat="44.23781" lon="2.99336">
        <ele>901</ele>
        <time>2019-10-13T09:15:12.000Z</time>
      </trkpt>
      <trkpt lat="44.23782" lon="2.99339">
        <ele>901</ele>
        <time>2019-10-13T09:15:13.000Z</time>
      </trkpt>
      <trkpt lat="44.23785" lon="2.99342">
        <ele>901</ele>
        <time>2019-10-13T09:15:14.000Z</time>
      </trkpt>
      <trkpt lat="44.23787" lon="2.99344">
        <ele>901</ele>
        <time>2019-10-13T09:15:15.000Z</time>
      </trkpt>
      <trkpt lat="44.2379" lon="2.99347">
        <ele>900</ele>
        <time>2019-10-13T09:15:16.000Z</time>
      </trkpt>
      <trkpt lat="44.23792" lon="2.9935">
        <ele>900</ele>
        <time>2019-10-13T09:15:17.000Z</time>
      </trkpt>
      <trkpt lat="44.23794" lon="2.99353">
        <ele>900</ele>
        <time>2019-10-13T09:15:18.000Z</time>
      </trkpt>
      <trkpt lat="44.23797" lon="2.99356">
        <ele>900</ele>
        <time>2019-10-13T09:15:19.000Z</time>
      </trkpt>
      <trkpt lat="44.23799" lon="2.99359">
        <ele>900</ele>
        <time>2019-10-13T09:15:20.000Z</time>
      </trkpt>
      <trkpt lat="44.23801" lon="2.99362">
        <ele>900</ele>
        <time>2019-10-13T09:15:21.000Z</time>
      </trkpt>
      <trkpt lat="44.23804" lon="2.99366">
        <ele>900</ele>
        <time>2019-10-13T09:15:22.000Z</time>
      </trkpt>
      <trkpt lat="44.23806" lon="2.9937">
        <ele>900</ele>
        <time>2019-10-13T09:15:23.000Z</time>
      </trkpt>
      <trkpt lat="44.23809" lon="2.99373">
        <ele>900</ele>
        <time>2019-10-13T09:15:24.000Z</time>
      </trkpt>
      <trkpt lat="44.23811" lon="2.99376">
        <ele>900</ele>
        <time>2019-10-13T09:15:25.000Z</time>
      </trkpt>
      <trkpt lat="44.23814" lon="2.99379">
        <ele>900</ele>
        <time>2019-10-13T09:15:26.000Z</time>
      </trkpt>
      <trkpt lat="44.23817" lon="2.99382">
        <ele>900</ele>
        <time>2019-10-13T09:15:27.000Z</time>
      </trkpt>
      <trkpt lat="44.2382" lon="2.99385">
        <ele>900</ele>
        <time>2019-10-13T09:15:28.000Z</time>
      </trkpt>
      <trkpt lat="44.23824" lon="2.99387">
        <ele>900</ele>
        <time>2019-10-13T09:15:29.000Z</time>
      </trkpt>
      <trkpt lat="44.23827" lon="2.99389">
        <ele>900</ele>
        <time>2019-10-13T09:15:30.000Z</time>
      </trkpt>
      <trkpt lat="44.23829" lon="2.99391">
        <ele>900</ele>
        <time>2019-10-13T09:15:31.000Z</time>
      </trkpt>
      <trkpt lat="44.23832" lon="2.99394">
        <ele>900</ele>
        <time>2019-10-13T09:15:32.000Z</time>
      </trkpt>
      <trkpt lat="44.23835" lon="2.99397">
        <ele>900</ele>
        <time>2019-10-13T09:15:33.000Z</time>
      </trkpt>
      <trkpt lat="44.23837" lon="2.994">
        <ele>901</ele>
        <time>2019-10-13T09:15:34.000Z</time>
      </trkpt>
      <trkpt lat="44.23841" lon="2.99403">
        <ele>901</ele>
        <time>2019-10-13T09:15:35.000Z</time>
      </trkpt>
      <trkpt lat="44.23844" lon="2.99406">
        <ele>901</ele>
        <time>2019-10-13T09:15:36.000Z</time>
      </trkpt>
      <trkpt lat="44.23847" lon="2.99409">
        <ele>901</ele>
        <time>2019-10-13T09:15:37.000Z</time>
      </trkpt>
      <trkpt lat="44.23851" lon="2.99412">
        <ele>901</ele>
        <time>2019-10-13T09:15:38.000Z</time>
      </trkpt>
      <trkpt lat="44.23854" lon="2.99415">
        <ele>901</ele>
        <time>2019-10-13T09:15:39.000Z</time>
      </trkpt>
      <trkpt lat="44.23857" lon="2.99418">
        <ele>901</ele>
        <time>2019-10-13T09:15:40.000Z</time>
      </trkpt>
      <trkpt lat="44.2386" lon="2.99421">
        <ele>902</ele>
        <time>2019-10-13T09:15:41.000Z</time>
      </trkpt>
      <trkpt lat="44.23863" lon="2.99424">
        <ele>902</ele>
        <time>2019-10-13T09:15:42.000Z</time>
      </trkpt>
      <trkpt lat="44.23865" lon="2.99428">
        <ele>902</ele>
        <time>2019-10-13T09:15:43.000Z</time>
      </trkpt>
      <trkpt lat="44.23868" lon="2.99432">
        <ele>902</ele>
        <time>2019-10-13T09:15:44.000Z</time>
      </trkpt>
      <trkpt lat="44.23871" lon="2.99435">
        <ele>902</ele>
        <time>2019-10-13T09:15:45.000Z</time>
      </trkpt>
      <trkpt lat="44.23873" lon="2.99439">
        <ele>902</ele>
        <time>2019-10-13T09:15:46.000Z</time>
      </trkpt>
      <trkpt lat="44.23875" lon="2.99443">
        <ele>902</ele>
        <time>2019-10-13T09:15:47.000Z</time>
      </trkpt>
      <trkpt lat="44.23878" lon="2.99446">
        <ele>902</ele>
        <time>2019-10-13T09:15:48.000Z</time>
      </trkpt>
      <trkpt lat="44.2388" lon="2.9945">
        <ele>903</ele>
        <time>2019-10-13T09:15:49.000Z</time>
      </trkpt>
      <trkpt lat="44.23882" lon="2.99453">
        <ele>903</ele>
        <time>2019-10-13T09:15:50.000Z</time>
      </trkpt>
      <trkpt lat="44.23884" lon="2.99456">
        <ele>903</ele>
        <time>2019-10-13T09:15:51.000Z</time>
      </trkpt>
      <trkpt lat="44.23886" lon="2.99459">
        <ele>903</ele>
        <time>2019-10-13T09:15:52.000Z</time>
      </trkpt>
      <trkpt lat="44.23888" lon="2.99463">
        <ele>903</ele>
        <time>2019-10-13T09:15:53.000Z</time>
      </trkpt>
      <trkpt lat="44.23891" lon="2.99466">
        <ele>903</ele>
        <time>2019-10-13T09:15:54.000Z</time>
      </trkpt>
      <trkpt lat="44.23893" lon="2.99468">
        <ele>903</ele>
        <time>2019-10-13T09:15:55.000Z</time>
      </trkpt>
      <trkpt lat="44.23896" lon="2.99471">
        <ele>903</ele>
        <time>2019-10-13T09:15:56.000Z</time>
      </trkpt>
      <trkpt lat="44.23899" lon="2.99473">
        <ele>903</ele>
        <time>2019-10-13T09:15:57.000Z</time>
      </trkpt>
      <trkpt lat="44.23901" lon="2.99475">
        <ele>903</ele>
        <time>2019-10-13T09:15:58.000Z</time>
      </trkpt>
      <trkpt lat="44.23903" lon="2.99477">
        <ele>904</ele>
        <time>2019-10-13T09:15:59.000Z</time>
      </trkpt>
      <trkpt lat="44.23905" lon="2.99478">
        <ele>904</ele>
        <time>2019-10-13T09:16:00.000Z</time>
      </trkpt>
      <trkpt lat="44.23907" lon="2.9948">
        <ele>904</ele>
        <time>2019-10-13T09:16:01.000Z</time>
      </trkpt>
      <trkpt lat="44.23908" lon="2.99481">
        <ele>904</ele>
        <time>2019-10-13T09:16:02.000Z</time>
      </trkpt>
      <trkpt lat="44.2391" lon="2.99482">
        <ele>904</ele>
        <time>2019-10-13T09:16:03.000Z</time>
      </trkpt>
      <trkpt lat="44.23912" lon="2.99483">
        <ele>904</ele>
        <time>2019-10-13T09:16:04.000Z</time>
      </trkpt>
      <trkpt lat="44.23913" lon="2.99483">
        <ele>904</ele>
        <time>2019-10-13T09:16:05.000Z</time>
      </trkpt>
      <trkpt lat="44.23915" lon="2.99483">
        <ele>904</ele>
        <time>2019-10-13T09:16:06.000Z</time>
      </trkpt>
      <trkpt lat="44.23916" lon="2.99484">
        <ele>904</ele>
        <time>2019-10-13T09:16:07.000Z</time>
      </trkpt>
      <trkpt lat="44.23918" lon="2.99484">
        <ele>904</ele>
        <time>2019-10-13T09:16:08.000Z</time>
      </trkpt>
      <trkpt lat="44.23919" lon="2.99485">
        <ele>904</ele>
        <time>2019-10-13T09:16:09.000Z</time>
      </trkpt>
      <trkpt lat="44.2392" lon="2.99485">
        <ele>904</ele>
        <time>2019-10-13T09:16:10.000Z</time>
      </trkpt>
      <trkpt lat="44.23922" lon="2.99487">
        <ele>904</ele>
        <time>2019-10-13T09:16:11.000Z</time>
      </trkpt>
      <trkpt lat="44.23924" lon="2.99488">
        <ele>904</ele>
        <time>2019-10-13T09:16:12.000Z</time>
      </trkpt>
      <trkpt lat="44.23926" lon="2.99489">
        <ele>904</ele>
        <time>2019-10-13T09:16:13.000Z</time>
      </trkpt>
      <trkpt lat="44.23928" lon="2.9949">
        <ele>903</ele>
        <time>2019-10-13T09:16:14.000Z</time>
      </trkpt>
      <trkpt lat="44.2393" lon="2.99491">
        <ele>903</ele>
        <time>2019-10-13T09:16:15.000Z</time>
      </trkpt>
      <trkpt lat="44.23933" lon="2.99492">
        <ele>903</ele>
        <time>2019-10-13T09:16:16.000Z</time>
      </trkpt>
      <trkpt lat="44.23935" lon="2.99493">
        <ele>903</ele>
        <time>2019-10-13T09:16:17.000Z</time>
      </trkpt>
      <trkpt lat="44.23937" lon="2.99494">
        <ele>903</ele>
        <time>2019-10-13T09:16:18.000Z</time>
      </trkpt>
      <trkpt lat="44.23939" lon="2.99495">
        <ele>903</ele>
        <time>2019-10-13T09:16:19.000Z</time>
      </trkpt>
      <trkpt lat="44.2394" lon="2.99496">
        <ele>902</ele>
        <time>2019-10-13T09:16:20.000Z</time>
      </trkpt>
      <trkpt lat="44.23941" lon="2.99496">
        <ele>902</ele>
        <time>2019-10-13T09:16:21.000Z</time>
      </trkpt>
      <trkpt lat="44.23941" lon="2.99497">
        <ele>902</ele>
        <time>2019-10-13T09:16:22.000Z</time>
      </trkpt>
      <trkpt lat="44.23941" lon="2.99497">
        <ele>902</ele>
        <time>2019-10-13T09:16:23.000Z</time>
      </trkpt>
      <trkpt lat="44.23941" lon="2.99497">
        <ele>902</ele>
        <time>2019-10-13T09:16:24.000Z</time>
      </trkpt>
      <trkpt lat="44.2394" lon="2.99497">
        <ele>902</ele>
        <time>2019-10-13T09:16:25.000Z</time>
      </trkpt>
      <trkpt lat="44.23938" lon="2.99497">
        <ele>902</ele>
        <time>2019-10-13T09:16:26.000Z</time>
      </trkpt>
      <trkpt lat="44.23937" lon="2.99496">
        <ele>902</ele>
        <time>2019-10-13T09:16:27.000Z</time>
      </trkpt>
      <trkpt lat="44.23935" lon="2.99496">
        <ele>902</ele>
        <time>2019-10-13T09:16:28.000Z</time>
      </trkpt>
      <trkpt lat="44.23934" lon="2.99495">
        <ele>901</ele>
        <time>2019-10-13T09:16:29.000Z</time>
      </trkpt>
      <trkpt lat="44.23933" lon="2.99493">
        <ele>901</ele>
        <time>2019-10-13T09:16:30.000Z</time>
      </trkpt>
      <trkpt lat="44.23932" lon="2.99492">
        <ele>901</ele>
        <time>2019-10-13T09:16:31.000Z</time>
      </trkpt>
      <trkpt lat="44.23932" lon="2.9949">
        <ele>901</ele>
        <time>2019-10-13T09:16:32.000Z</time>
      </trkpt>
      <trkpt lat="44.23932" lon="2.99488">
        <ele>901</ele>
        <time>2019-10-13T09:16:33.000Z</time>
      </trkpt>
      <trkpt lat="44.23933" lon="2.99486">
        <ele>901</ele>
        <time>2019-10-13T09:16:34.000Z</time>
      </trkpt>
      <trkpt lat="44.23935" lon="2.99483">
        <ele>900</ele>
        <time>2019-10-13T09:16:35.000Z</time>
      </trkpt>
      <trkpt lat="44.23936" lon="2.9948">
        <ele>900</ele>
        <time>2019-10-13T09:16:36.000Z</time>
      </trkpt>
      <trkpt lat="44.23936" lon="2.99477">
        <ele>900</ele>
        <time>2019-10-13T09:16:37.000Z</time>
      </trkpt>
      <trkpt lat="44.23936" lon="2.99475">
        <ele>900</ele>
        <time>2019-10-13T09:16:38.000Z</time>
      </trkpt>
      <trkpt lat="44.23936" lon="2.99472">
        <ele>900</ele>
        <time>2019-10-13T09:16:39.000Z</time>
      </trkpt>
      <trkpt lat="44.23936" lon="2.99469">
        <ele>899</ele>
        <time>2019-10-13T09:16:40.000Z</time>
      </trkpt>
      <trkpt lat="44.23937" lon="2.99466">
        <ele>899</ele>
        <time>2019-10-13T09:16:41.000Z</time>
      </trkpt>
      <trkpt lat="44.23938" lon="2.99464">
        <ele>899</ele>
        <time>2019-10-13T09:16:42.000Z</time>
      </trkpt>
      <trkpt lat="44.23939" lon="2.99461">
        <ele>899</ele>
        <time>2019-10-13T09:16:43.000Z</time>
      </trkpt>
      <trkpt lat="44.2394" lon="2.99458">
        <ele>899</ele>
        <time>2019-10-13T09:16:44.000Z</time>
      </trkpt>
      <trkpt lat="44.23941" lon="2.99456">
        <ele>899</ele>
        <time>2019-10-13T09:16:45.000Z</time>
      </trkpt>
      <trkpt lat="44.23943" lon="2.99455">
        <ele>899</ele>
        <time>2019-10-13T09:16:46.000Z</time>
      </trkpt>
      <trkpt lat="44.23944" lon="2.99455">
        <ele>898</ele>
        <time>2019-10-13T09:16:47.000Z</time>
      </trkpt>
      <trkpt lat="44.23946" lon="2.99454">
        <ele>898</ele>
        <time>2019-10-13T09:16:48.000Z</time>
      </trkpt>
      <trkpt lat="44.23947" lon="2.99454">
        <ele>898</ele>
        <time>2019-10-13T09:16:49.000Z</time>
      </trkpt>
      <trkpt lat="44.23949" lon="2.99453">
        <ele>898</ele>
        <time>2019-10-13T09:16:50.000Z</time>
      </trkpt>
      <trkpt lat="44.2395" lon="2.99453">
        <ele>898</ele>
        <time>2019-10-13T09:16:51.000Z</time>
      </trkpt>
      <trkpt lat="44.23952" lon="2.99453">
        <ele>898</ele>
        <time>2019-10-13T09:16:52.000Z</time>
      </trkpt>
      <trkpt lat="44.23953" lon="2.99453">
        <ele>898</ele>
        <time>2019-10-13T09:16:53.000Z</time>
      </trkpt>
      <trkpt lat="44.23955" lon="2.99452">
        <ele>898</ele>
        <time>2019-10-13T09:16:54.000Z</time>
      </trkpt>
      <trkpt lat="44.23956" lon="2.99452">
        <ele>898</ele>
        <time>2019-10-13T09:16:55.000Z</time>
      </trkpt>
      <trkpt lat="44.23958" lon="2.99451">
        <ele>898</ele>
        <time>2019-10-13T09:16:56.000Z</time>
      </trkpt>
      <trkpt lat="44.23959" lon="2.99451">
        <ele>898</ele>
        <time>2019-10-13T09:16:57.000Z</time>
      </trkpt>
      <trkpt lat="44.23961" lon="2.99451">
        <ele>898</ele>
        <time>2019-10-13T09:16:58.000Z</time>
      </trkpt>
      <trkpt lat="44.23963" lon="2.99451">
        <ele>897</ele>
        <time>2019-10-13T09:16:59.000Z</time>
      </trkpt>
      <trkpt lat="44.23965" lon="2.99451">
        <ele>897</ele>
        <time>2019-10-13T09:17:00.000Z</time>
      </trkpt>
      <trkpt lat="44.23966" lon="2.99451">
        <ele>897</ele>
        <time>2019-10-13T09:17:01.000Z</time>
      </trkpt>
      <trkpt lat="44.23968" lon="2.99451">
        <ele>897</ele>
        <time>2019-10-13T09:17:02.000Z</time>
      </trkpt>
      <trkpt lat="44.2397" lon="2.99451">
        <ele>897</ele>
        <time>2019-10-13T09:17:03.000Z</time>
      </trkpt>
      <trkpt lat="44.23972" lon="2.99451">
        <ele>897</ele>
        <time>2019-10-13T09:17:04.000Z</time>
      </trkpt>
      <trkpt lat="44.23974" lon="2.99451">
        <ele>897</ele>
        <time>2019-10-13T09:17:05.000Z</time>
      </trkpt>
      <trkpt lat="44.23975" lon="2.99451">
        <ele>897</ele>
        <time>2019-10-13T09:17:06.000Z</time>
      </trkpt>
      <trkpt lat="44.23977" lon="2.99451">
        <ele>897</ele>
        <time>2019-10-13T09:17:07.000Z</time>
      </trkpt>
      <trkpt lat="44.23979" lon="2.9945">
        <ele>897</ele>
        <time>2019-10-13T09:17:08.000Z</time>
      </trkpt>
      <trkpt lat="44.2398" lon="2.9945">
        <ele>897</ele>
        <time>2019-10-13T09:17:09.000Z</time>
      </trkpt>
      <trkpt lat="44.23982" lon="2.99449">
        <ele>897</ele>
        <time>2019-10-13T09:17:10.000Z</time>
      </trkpt>
      <trkpt lat="44.23984" lon="2.99449">
        <ele>897</ele>
        <time>2019-10-13T09:17:11.000Z</time>
      </trkpt>
      <trkpt lat="44.23985" lon="2.99449">
        <ele>897</ele>
        <time>2019-10-13T09:17:12.000Z</time>
      </trkpt>
      <trkpt lat="44.23987" lon="2.9945">
        <ele>897</ele>
        <time>2019-10-13T09:17:13.000Z</time>
      </trkpt>
      <trkpt lat="44.23988" lon="2.9945">
        <ele>896</ele>
        <time>2019-10-13T09:17:14.000Z</time>
      </trkpt>
      <trkpt lat="44.23989" lon="2.9945">
        <ele>896</ele>
        <time>2019-10-13T09:17:15.000Z</time>
      </trkpt>
      <trkpt lat="44.23991" lon="2.9945">
        <ele>896</ele>
        <time>2019-10-13T09:17:16.000Z</time>
      </trkpt>
      <trkpt lat="44.23992" lon="2.9945">
        <ele>896</ele>
        <time>2019-10-13T09:17:17.000Z</time>
      </trkpt>
      <trkpt lat="44.23993" lon="2.9945">
        <ele>896</ele>
        <time>2019-10-13T09:17:18.000Z</time>
      </trkpt>
      <trkpt lat="44.23995" lon="2.99451">
        <ele>896</ele>
        <time>2019-10-13T09:17:19.000Z</time>
      </trkpt>
      <trkpt lat="44.23996" lon="2.99451">
        <ele>895</ele>
        <time>2019-10-13T09:17:20.000Z</time>
      </trkpt>
      <trkpt lat="44.23998" lon="2.99452">
        <ele>895</ele>
        <time>2019-10-13T09:17:21.000Z</time>
      </trkpt>
      <trkpt lat="44.23999" lon="2.99452">
        <ele>895</ele>
        <time>2019-10-13T09:17:22.000Z</time>
      </trkpt>
      <trkpt lat="44.24001" lon="2.99453">
        <ele>895</ele>
        <time>2019-10-13T09:17:23.000Z</time>
      </trkpt>
      <trkpt lat="44.24003" lon="2.99453">
        <ele>895</ele>
        <time>2019-10-13T09:17:24.000Z</time>
      </trkpt>
      <trkpt lat="44.24004" lon="2.99453">
        <ele>895</ele>
        <time>2019-10-13T09:17:25.000Z</time>
      </trkpt>
      <trkpt lat="44.24006" lon="2.99453">
        <ele>894</ele>
        <time>2019-10-13T09:17:26.000Z</time>
      </trkpt>
      <trkpt lat="44.24008" lon="2.99453">
        <ele>894</ele>
        <time>2019-10-13T09:17:27.000Z</time>
      </trkpt>
      <trkpt lat="44.2401" lon="2.99453">
        <ele>894</ele>
        <time>2019-10-13T09:17:28.000Z</time>
      </trkpt>
      <trkpt lat="44.24011" lon="2.99453">
        <ele>894</ele>
        <time>2019-10-13T09:17:29.000Z</time>
      </trkpt>
      <trkpt lat="44.24013" lon="2.99453">
        <ele>893</ele>
        <time>2019-10-13T09:17:30.000Z</time>
      </trkpt>
      <trkpt lat="44.24014" lon="2.99453">
        <ele>893</ele>
        <time>2019-10-13T09:17:31.000Z</time>
      </trkpt>
      <trkpt lat="44.24015" lon="2.99453">
        <ele>893</ele>
        <time>2019-10-13T09:17:32.000Z</time>
      </trkpt>
      <trkpt lat="44.24017" lon="2.99452">
        <ele>893</ele>
        <time>2019-10-13T09:17:33.000Z</time>
      </trkpt>
      <trkpt lat="44.24018" lon="2.99452">
        <ele>893</ele>
        <time>2019-10-13T09:17:34.000Z</time>
      </trkpt>
      <trkpt lat="44.24019" lon="2.99451">
        <ele>893</ele>
        <time>2019-10-13T09:17:35.000Z</time>
      </trkpt>
      <trkpt lat="44.24021" lon="2.99451">
        <ele>893</ele>
        <time>2019-10-13T09:17:36.000Z</time>
      </trkpt>
      <trkpt lat="44.24022" lon="2.9945">
        <ele>893</ele>
        <time>2019-10-13T09:17:37.000Z</time>
      </trkpt>
      <trkpt lat="44.24023" lon="2.9945">
        <ele>893</ele>
        <time>2019-10-13T09:17:38.000Z</time>
      </trkpt>
      <trkpt lat="44.24024" lon="2.99449">
        <ele>893</ele>
        <time>2019-10-13T09:17:39.000Z</time>
      </trkpt>
      <trkpt lat="44.24026" lon="2.99448">
        <ele>893</ele>
        <time>2019-10-13T09:17:40.000Z</time>
      </trkpt>
      <trkpt lat="44.24027" lon="2.99448">
        <ele>893</ele>
        <time>2019-10-13T09:17:41.000Z</time>
      </trkpt>
      <trkpt lat="44.24028" lon="2.99447">
        <ele>893</ele>
        <time>2019-10-13T09:17:42.000Z</time>
      </trkpt>
      <trkpt lat="44.24029" lon="2.99446">
        <ele>893</ele>
        <time>2019-10-13T09:17:43.000Z</time>
      </trkpt>
      <trkpt lat="44.2403" lon="2.99445">
        <ele>893</ele>
        <time>2019-10-13T09:17:44.000Z</time>
      </trkpt>
      <trkpt lat="44.24031" lon="2.99444">
        <ele>893</ele>
        <time>2019-10-13T09:17:45.000Z</time>
      </trkpt>
      <trkpt lat="44.24032" lon="2.99443">
        <ele>893</ele>
        <time>2019-10-13T09:17:46.000Z</time>
      </trkpt>
      <trkpt lat="44.24033" lon="2.99441">
        <ele>892</ele>
        <time>2019-10-13T09:17:47.000Z</time>
      </trkpt>
      <trkpt lat="44.24033" lon="2.9944">
        <ele>892</ele>
        <time>2019-10-13T09:17:48.000Z</time>
      </trkpt>
      <trkpt lat="44.24034" lon="2.99438">
        <ele>892</ele>
        <time>2019-10-13T09:17:49.000Z</time>
      </trkpt>
      <trkpt lat="44.24035" lon="2.99437">
        <ele>892</ele>
        <time>2019-10-13T09:17:50.000Z</time>
      </trkpt>
      <trkpt lat="44.24036" lon="2.99436">
        <ele>892</ele>
        <time>2019-10-13T09:17:51.000Z</time>
      </trkpt>
      <trkpt lat="44.24037" lon="2.99435">
        <ele>891</ele>
        <time>2019-10-13T09:17:52.000Z</time>
      </trkpt>
      <trkpt lat="44.24038" lon="2.99434">
        <ele>891</ele>
        <time>2019-10-13T09:17:53.000Z</time>
      </trkpt>
      <trkpt lat="44.24039" lon="2.99433">
        <ele>891</ele>
        <time>2019-10-13T09:17:54.000Z</time>
      </trkpt>
      <trkpt lat="44.2404" lon="2.99431">
        <ele>891</ele>
        <time>2019-10-13T09:17:55.000Z</time>
      </trkpt>
      <trkpt lat="44.2404" lon="2.9943">
        <ele>891</ele>
        <time>2019-10-13T09:17:56.000Z</time>
      </trkpt>
      <trkpt lat="44.24041" lon="2.99429">
        <ele>891</ele>
        <time>2019-10-13T09:17:57.000Z</time>
      </trkpt>
      <trkpt lat="44.24042" lon="2.99428">
        <ele>890</ele>
        <time>2019-10-13T09:17:58.000Z</time>
      </trkpt>
      <trkpt lat="44.24043" lon="2.99427">
        <ele>890</ele>
        <time>2019-10-13T09:17:59.000Z</time>
      </trkpt>
      <trkpt lat="44.24044" lon="2.99426">
        <ele>890</ele>
        <time>2019-10-13T09:18:00.000Z</time>
      </trkpt>
      <trkpt lat="44.24045" lon="2.99424">
        <ele>890</ele>
        <time>2019-10-13T09:18:01.000Z</time>
      </trkpt>
      <trkpt lat="44.24046" lon="2.99423">
        <ele>890</ele>
        <time>2019-10-13T09:18:02.000Z</time>
      </trkpt>
      <trkpt lat="44.24047" lon="2.99421">
        <ele>889</ele>
        <time>2019-10-13T09:18:03.000Z</time>
      </trkpt>
      <trkpt lat="44.24048" lon="2.9942">
        <ele>889</ele>
        <time>2019-10-13T09:18:04.000Z</time>
      </trkpt>
      <trkpt lat="44.24049" lon="2.99418">
        <ele>889</ele>
        <time>2019-10-13T09:18:05.000Z</time>
      </trkpt>
      <trkpt lat="44.24049" lon="2.99416">
        <ele>888</ele>
        <time>2019-10-13T09:18:06.000Z</time>
      </trkpt>
      <trkpt lat="44.2405" lon="2.99414">
        <ele>888</ele>
        <time>2019-10-13T09:18:07.000Z</time>
      </trkpt>
      <trkpt lat="44.2405" lon="2.99411">
        <ele>888</ele>
        <time>2019-10-13T09:18:08.000Z</time>
      </trkpt>
      <trkpt lat="44.24052" lon="2.99409">
        <ele>887</ele>
        <time>2019-10-13T09:18:09.000Z</time>
      </trkpt>
      <trkpt lat="44.24053" lon="2.99407">
        <ele>887</ele>
        <time>2019-10-13T09:18:10.000Z</time>
      </trkpt>
      <trkpt lat="44.24055" lon="2.99405">
        <ele>887</ele>
        <time>2019-10-13T09:18:11.000Z</time>
      </trkpt>
      <trkpt lat="44.24056" lon="2.99404">
        <ele>887</ele>
        <time>2019-10-13T09:18:12.000Z</time>
      </trkpt>
      <trkpt lat="44.24058" lon="2.99402">
        <ele>886</ele>
        <time>2019-10-13T09:18:13.000Z</time>
      </trkpt>
      <trkpt lat="44.24059" lon="2.994">
        <ele>886</ele>
        <time>2019-10-13T09:18:14.000Z</time>
      </trkpt>
      <trkpt lat="44.24061" lon="2.99399">
        <ele>886</ele>
        <time>2019-10-13T09:18:15.000Z</time>
      </trkpt>
      <trkpt lat="44.24063" lon="2.99398">
        <ele>886</ele>
        <time>2019-10-13T09:18:16.000Z</time>
      </trkpt>
      <trkpt lat="44.24064" lon="2.99397">
        <ele>886</ele>
        <time>2019-10-13T09:18:17.000Z</time>
      </trkpt>
      <trkpt lat="44.24066" lon="2.99396">
        <ele>886</ele>
        <time>2019-10-13T09:18:18.000Z</time>
      </trkpt>
      <trkpt lat="44.24067" lon="2.99395">
        <ele>886</ele>
        <time>2019-10-13T09:18:19.000Z</time>
      </trkpt>
      <trkpt lat="44.24068" lon="2.99394">
        <ele>886</ele>
        <time>2019-10-13T09:18:20.000Z</time>
      </trkpt>
      <trkpt lat="44.24069" lon="2.99393">
        <ele>885</ele>
        <time>2019-10-13T09:18:21.000Z</time>
      </trkpt>
      <trkpt lat="44.2407" lon="2.99392">
        <ele>885</ele>
        <time>2019-10-13T09:18:22.000Z</time>
      </trkpt>
      <trkpt lat="44.24071" lon="2.9939">
        <ele>885</ele>
        <time>2019-10-13T09:18:23.000Z</time>
      </trkpt>
      <trkpt lat="44.24072" lon="2.99388">
        <ele>885</ele>
        <time>2019-10-13T09:18:24.000Z</time>
      </trkpt>
      <trkpt lat="44.24072" lon="2.99386">
        <ele>885</ele>
        <time>2019-10-13T09:18:25.000Z</time>
      </trkpt>
      <trkpt lat="44.24072" lon="2.99384">
        <ele>885</ele>
        <time>2019-10-13T09:18:26.000Z</time>
      </trkpt>
      <trkpt lat="44.24071" lon="2.99382">
        <ele>885</ele>
        <time>2019-10-13T09:18:27.000Z</time>
      </trkpt>
      <trkpt lat="44.24071" lon="2.9938">
        <ele>885</ele>
        <time>2019-10-13T09:18:28.000Z</time>
      </trkpt>
      <trkpt lat="44.2407" lon="2.99378">
        <ele>885</ele>
        <time>2019-10-13T09:18:29.000Z</time>
      </trkpt>
      <trkpt lat="44.2407" lon="2.99376">
        <ele>885</ele>
        <time>2019-10-13T09:18:30.000Z</time>
      </trkpt>
      <trkpt lat="44.2407" lon="2.99374">
        <ele>885</ele>
        <time>2019-10-13T09:18:31.000Z</time>
      </trkpt>
      <trkpt lat="44.24069" lon="2.99372">
        <ele>885</ele>
        <time>2019-10-13T09:18:32.000Z</time>
      </trkpt>
      <trkpt lat="44.24069" lon="2.99369">
        <ele>885</ele>
        <time>2019-10-13T09:18:33.000Z</time>
      </trkpt>
      <trkpt lat="44.24069" lon="2.99367">
        <ele>885</ele>
        <time>2019-10-13T09:18:34.000Z</time>
      </trkpt>
      <trkpt lat="44.24068" lon="2.99365">
        <ele>885</ele>
        <time>2019-10-13T09:18:35.000Z</time>
      </trkpt>
      <trkpt lat="44.24069" lon="2.99363">
        <ele>885</ele>
        <time>2019-10-13T09:18:36.000Z</time>
      </trkpt>
      <trkpt lat="44.24068" lon="2.99361">
        <ele>885</ele>
        <time>2019-10-13T09:18:37.000Z</time>
      </trkpt>
      <trkpt lat="44.24068" lon="2.99359">
        <ele>885</ele>
        <time>2019-10-13T09:18:38.000Z</time>
      </trkpt>
      <trkpt lat="44.24068" lon="2.99357">
        <ele>885</ele>
        <time>2019-10-13T09:18:39.000Z</time>
      </trkpt>
      <trkpt lat="44.24068" lon="2.99355">
        <ele>885</ele>
        <time>2019-10-13T09:18:40.000Z</time>
      </trkpt>
      <trkpt lat="44.24067" lon="2.99353">
        <ele>885</ele>
        <time>2019-10-13T09:18:41.000Z</time>
      </trkpt>
      <trkpt lat="44.24067" lon="2.99351">
        <ele>885</ele>
        <time>2019-10-13T09:18:42.000Z</time>
      </trkpt>
      <trkpt lat="44.24067" lon="2.99349">
        <ele>885</ele>
        <time>2019-10-13T09:18:43.000Z</time>
      </trkpt>
      <trkpt lat="44.24066" lon="2.99347">
        <ele>885</ele>
        <time>2019-10-13T09:18:44.000Z</time>
      </trkpt>
      <trkpt lat="44.24066" lon="2.99345">
        <ele>885</ele>
        <time>2019-10-13T09:18:45.000Z</time>
      </trkpt>
      <trkpt lat="44.24065" lon="2.99343">
        <ele>886</ele>
        <time>2019-10-13T09:18:46.000Z</time>
      </trkpt>
      <trkpt lat="44.24065" lon="2.99341">
        <ele>886</ele>
        <time>2019-10-13T09:18:47.000Z</time>
      </trkpt>
      <trkpt lat="44.24064" lon="2.99339">
        <ele>886</ele>
        <time>2019-10-13T09:18:48.000Z</time>
      </trkpt>
      <trkpt lat="44.24064" lon="2.99337">
        <ele>886</ele>
        <time>2019-10-13T09:18:49.000Z</time>
      </trkpt>
      <trkpt lat="44.24063" lon="2.99335">
        <ele>886</ele>
        <time>2019-10-13T09:18:50.000Z</time>
      </trkpt>
      <trkpt lat="44.24063" lon="2.99333">
        <ele>886</ele>
        <time>2019-10-13T09:18:51.000Z</time>
      </trkpt>
      <trkpt lat="44.24062" lon="2.99331">
        <ele>886</ele>
        <time>2019-10-13T09:18:52.000Z</time>
      </trkpt>
      <trkpt lat="44.24062" lon="2.99329">
        <ele>886</ele>
        <time>2019-10-13T09:18:53.000Z</time>
      </trkpt>
      <trkpt lat="44.24061" lon="2.99327">
        <ele>886</ele>
        <time>2019-10-13T09:18:54.000Z</time>
      </trkpt>
      <trkpt lat="44.24061" lon="2.99325">
        <ele>886</ele>
        <time>2019-10-13T09:18:55.000Z</time>
      </trkpt>
      <trkpt lat="44.2406" lon="2.99323">
        <ele>886</ele>
        <time>2019-10-13T09:18:56.000Z</time>
      </trkpt>
      <trkpt lat="44.2406" lon="2.99321">
        <ele>886</ele>
        <time>2019-10-13T09:18:57.000Z</time>
      </trkpt>
      <trkpt lat="44.24059" lon="2.9932">
        <ele>886</ele>
        <time>2019-10-13T09:18:58.000Z</time>
      </trkpt>
      <trkpt lat="44.24059" lon="2.99318">
        <ele>886</ele>
        <time>2019-10-13T09:18:59.000Z</time>
      </trkpt>
      <trkpt lat="44.24058" lon="2.99316">
        <ele>886</ele>
        <time>2019-10-13T09:19:00.000Z</time>
      </trkpt>
      <trkpt lat="44.24058" lon="2.99314">
        <ele>886</ele>
        <time>2019-10-13T09:19:01.000Z</time>
      </trkpt>
      <trkpt lat="44.24057" lon="2.99312">
        <ele>886</ele>
        <time>2019-10-13T09:19:02.000Z</time>
      </trkpt>
      <trkpt lat="44.24056" lon="2.99309">
        <ele>886</ele>
        <time>2019-10-13T09:19:03.000Z</time>
      </trkpt>
      <trkpt lat="44.24055" lon="2.99306">
        <ele>886</ele>
        <time>2019-10-13T09:19:04.000Z</time>
      </trkpt>
      <trkpt lat="44.24054" lon="2.99302">
        <ele>886</ele>
        <time>2019-10-13T09:19:05.000Z</time>
      </trkpt>
      <trkpt lat="44.24053" lon="2.99298">
        <ele>885</ele>
        <time>2019-10-13T09:19:06.000Z</time>
      </trkpt>
      <trkpt lat="44.24051" lon="2.99293">
        <ele>885</ele>
        <time>2019-10-13T09:19:07.000Z</time>
      </trkpt>
      <trkpt lat="44.24049" lon="2.99288">
        <ele>885</ele>
        <time>2019-10-13T09:19:08.000Z</time>
      </trkpt>
      <trkpt lat="44.24047" lon="2.99283">
        <ele>885</ele>
        <time>2019-10-13T09:19:09.000Z</time>
      </trkpt>
      <trkpt lat="44.24045" lon="2.99276">
        <ele>885</ele>
        <time>2019-10-13T09:19:10.000Z</time>
      </trkpt>
      <trkpt lat="44.24042" lon="2.99269">
        <ele>885</ele>
        <time>2019-10-13T09:19:11.000Z</time>
      </trkpt>
      <trkpt lat="44.2404" lon="2.99262">
        <ele>885</ele>
        <time>2019-10-13T09:19:12.000Z</time>
      </trkpt>
      <trkpt lat="44.24037" lon="2.99255">
        <ele>885</ele>
        <time>2019-10-13T09:19:13.000Z</time>
      </trkpt>
      <trkpt lat="44.24035" lon="2.99248">
        <ele>885</ele>
        <time>2019-10-13T09:19:14.000Z</time>
      </trkpt>
      <trkpt lat="44.24032" lon="2.9924">
        <ele>884</ele>
        <time>2019-10-13T09:19:15.000Z</time>
      </trkpt>
      <trkpt lat="44.2403" lon="2.99232">
        <ele>884</ele>
        <time>2019-10-13T09:19:16.000Z</time>
      </trkpt>
      <trkpt lat="44.24026" lon="2.99225">
        <ele>884</ele>
        <time>2019-10-13T09:19:17.000Z</time>
      </trkpt>
      <trkpt lat="44.24023" lon="2.99217">
        <ele>884</ele>
        <time>2019-10-13T09:19:18.000Z</time>
      </trkpt>
      <trkpt lat="44.2402" lon="2.99209">
        <ele>884</ele>
        <time>2019-10-13T09:19:19.000Z</time>
      </trkpt>
      <trkpt lat="44.24017" lon="2.992">
        <ele>884</ele>
        <time>2019-10-13T09:19:20.000Z</time>
      </trkpt>
      <trkpt lat="44.24013" lon="2.99192">
        <ele>883</ele>
        <time>2019-10-13T09:19:21.000Z</time>
      </trkpt>
      <trkpt lat="44.2401" lon="2.99183">
        <ele>883</ele>
        <time>2019-10-13T09:19:22.000Z</time>
      </trkpt>
      <trkpt lat="44.24007" lon="2.99174">
        <ele>883</ele>
        <time>2019-10-13T09:19:23.000Z</time>
      </trkpt>
      <trkpt lat="44.24004" lon="2.99165">
        <ele>883</ele>
        <time>2019-10-13T09:19:24.000Z</time>
      </trkpt>
      <trkpt lat="44.24002" lon="2.99156">
        <ele>883</ele>
        <time>2019-10-13T09:19:25.000Z</time>
      </trkpt>
      <trkpt lat="44.23999" lon="2.99146">
        <ele>883</ele>
        <time>2019-10-13T09:19:26.000Z</time>
      </trkpt>
      <trkpt lat="44.23997" lon="2.99137">
        <ele>883</ele>
        <time>2019-10-13T09:19:27.000Z</time>
      </trkpt>
      <trkpt lat="44.23995" lon="2.99128">
        <ele>883</ele>
        <time>2019-10-13T09:19:28.000Z</time>
      </trkpt>
      <trkpt lat="44.23994" lon="2.99119">
        <ele>883</ele>
        <time>2019-10-13T09:19:29.000Z</time>
      </trkpt>
      <trkpt lat="44.23992" lon="2.9911">
        <ele>883</ele>
        <time>2019-10-13T09:19:30.000Z</time>
      </trkpt>
      <trkpt lat="44.23991" lon="2.99101">
        <ele>883</ele>
        <time>2019-10-13T09:19:31.000Z</time>
      </trkpt>
      <trkpt lat="44.2399" lon="2.99092">
        <ele>883</ele>
        <time>2019-10-13T09:19:32.000Z</time>
      </trkpt>
      <trkpt lat="44.23989" lon="2.99083">
        <ele>883</ele>
        <time>2019-10-13T09:19:33.000Z</time>
      </trkpt>
      <trkpt lat="44.23988" lon="2.99074">
        <ele>883</ele>
        <time>2019-10-13T09:19:34.000Z</time>
      </trkpt>
      <trkpt lat="44.23987" lon="2.99064">
        <ele>883</ele>
        <time>2019-10-13T09:19:35.000Z</time>
      </trkpt>
      <trkpt lat="44.23986" lon="2.99055">
        <ele>884</ele>
        <time>2019-10-13T09:19:36.000Z</time>
      </trkpt>
      <trkpt lat="44.23985" lon="2.99047">
        <ele>884</ele>
        <time>2019-10-13T09:19:37.000Z</time>
      </trkpt>
      <trkpt lat="44.23983" lon="2.99039">
        <ele>884</ele>
        <time>2019-10-13T09:19:38.000Z</time>
      </trkpt>
      <trkpt lat="44.23982" lon="2.99031">
        <ele>884</ele>
        <time>2019-10-13T09:19:39.000Z</time>
      </trkpt>
      <trkpt lat="44.2398" lon="2.99023">
        <ele>884</ele>
        <time>2019-10-13T09:19:40.000Z</time>
      </trkpt>
      <trkpt lat="44.23978" lon="2.99015">
        <ele>884</ele>
        <time>2019-10-13T09:19:41.000Z</time>
      </trkpt>
      <trkpt lat="44.23976" lon="2.99007">
        <ele>884</ele>
        <time>2019-10-13T09:19:42.000Z</time>
      </trkpt>
      <trkpt lat="44.23974" lon="2.98999">
        <ele>885</ele>
        <time>2019-10-13T09:19:43.000Z</time>
      </trkpt>
      <trkpt lat="44.23971" lon="2.98991">
        <ele>885</ele>
        <time>2019-10-13T09:19:44.000Z</time>
      </trkpt>
      <trkpt lat="44.23969" lon="2.98983">
        <ele>885</ele>
        <time>2019-10-13T09:19:45.000Z</time>
      </trkpt>
      <trkpt lat="44.23966" lon="2.98976">
        <ele>885</ele>
        <time>2019-10-13T09:19:46.000Z</time>
      </trkpt>
      <trkpt lat="44.23964" lon="2.9897">
        <ele>885</ele>
        <time>2019-10-13T09:19:47.000Z</time>
      </trkpt>
      <trkpt lat="44.23961" lon="2.98964">
        <ele>885</ele>
        <time>2019-10-13T09:19:48.000Z</time>
      </trkpt>
      <trkpt lat="44.23959" lon="2.98958">
        <ele>885</ele>
        <time>2019-10-13T09:19:49.000Z</time>
      </trkpt>
      <trkpt lat="44.23957" lon="2.98951">
        <ele>885</ele>
        <time>2019-10-13T09:19:50.000Z</time>
      </trkpt>
      <trkpt lat="44.23956" lon="2.98946">
        <ele>885</ele>
        <time>2019-10-13T09:19:51.000Z</time>
      </trkpt>
      <trkpt lat="44.23954" lon="2.9894">
        <ele>885</ele>
        <time>2019-10-13T09:19:52.000Z</time>
      </trkpt>
      <trkpt lat="44.23953" lon="2.98934">
        <ele>885</ele>
        <time>2019-10-13T09:19:53.000Z</time>
      </trkpt>
      <trkpt lat="44.23952" lon="2.98929">
        <ele>886</ele>
        <time>2019-10-13T09:19:54.000Z</time>
      </trkpt>
      <trkpt lat="44.23951" lon="2.98924">
        <ele>886</ele>
        <time>2019-10-13T09:19:55.000Z</time>
      </trkpt>
      <trkpt lat="44.23949" lon="2.9892">
        <ele>886</ele>
        <time>2019-10-13T09:19:56.000Z</time>
      </trkpt>
      <trkpt lat="44.23948" lon="2.98916">
        <ele>886</ele>
        <time>2019-10-13T09:19:57.000Z</time>
      </trkpt>
      <trkpt lat="44.23947" lon="2.98912">
        <ele>886</ele>
        <time>2019-10-13T09:19:58.000Z</time>
      </trkpt>
      <trkpt lat="44.23945" lon="2.98909">
        <ele>886</ele>
        <time>2019-10-13T09:19:59.000Z</time>
      </trkpt>
      <trkpt lat="44.23943" lon="2.98905">
        <ele>886</ele>
        <time>2019-10-13T09:20:00.000Z</time>
      </trkpt>
      <trkpt lat="44.23941" lon="2.98903">
        <ele>886</ele>
        <time>2019-10-13T09:20:01.000Z</time>
      </trkpt>
      <trkpt lat="44.2394" lon="2.989">
        <ele>886</ele>
        <time>2019-10-13T09:20:02.000Z</time>
      </trkpt>
      <trkpt lat="44.23938" lon="2.98898">
        <ele>886</ele>
        <time>2019-10-13T09:20:03.000Z</time>
      </trkpt>
      <trkpt lat="44.23937" lon="2.98896">
        <ele>886</ele>
        <time>2019-10-13T09:20:04.000Z</time>
      </trkpt>
      <trkpt lat="44.23937" lon="2.98894">
        <ele>886</ele>
        <time>2019-10-13T09:20:05.000Z</time>
      </trkpt>
      <trkpt lat="44.23936" lon="2.98893">
        <ele>886</ele>
        <time>2019-10-13T09:20:06.000Z</time>
      </trkpt>
      <trkpt lat="44.23935" lon="2.98891">
        <ele>886</ele>
        <time>2019-10-13T09:20:07.000Z</time>
      </trkpt>
      <trkpt lat="44.23934" lon="2.98889">
        <ele>886</ele>
        <time>2019-10-13T09:20:08.000Z</time>
      </trkpt>
      <trkpt lat="44.23933" lon="2.98888">
        <ele>886</ele>
        <time>2019-10-13T09:20:09.000Z</time>
      </trkpt>
      <trkpt lat="44.23932" lon="2.98886">
        <ele>886</ele>
        <time>2019-10-13T09:20:10.000Z</time>
      </trkpt>
      <trkpt lat="44.2393" lon="2.98885">
        <ele>886</ele>
        <time>2019-10-13T09:20:11.000Z</time>
      </trkpt>
      <trkpt lat="44.23929" lon="2.98883">
        <ele>886</ele>
        <time>2019-10-13T09:20:12.000Z</time>
      </trkpt>
      <trkpt lat="44.23929" lon="2.98882">
        <ele>886</ele>
        <time>2019-10-13T09:20:13.000Z</time>
      </trkpt>
      <trkpt lat="44.23927" lon="2.9888">
        <ele>886</ele>
        <time>2019-10-13T09:20:14.000Z</time>
      </trkpt>
      <trkpt lat="44.23926" lon="2.98879">
        <ele>886</ele>
        <time>2019-10-13T09:20:15.000Z</time>
      </trkpt>
      <trkpt lat="44.23925" lon="2.98877">
        <ele>886</ele>
        <time>2019-10-13T09:20:16.000Z</time>
      </trkpt>
      <trkpt lat="44.23923" lon="2.98876">
        <ele>886</ele>
        <time>2019-10-13T09:20:17.000Z</time>
      </trkpt>
      <trkpt lat="44.23922" lon="2.98875">
        <ele>886</ele>
        <time>2019-10-13T09:20:18.000Z</time>
      </trkpt>
      <trkpt lat="44.2392" lon="2.98874">
        <ele>886</ele>
        <time>2019-10-13T09:20:19.000Z</time>
      </trkpt>
      <trkpt lat="44.23919" lon="2.98874">
        <ele>886</ele>
        <time>2019-10-13T09:20:20.000Z</time>
      </trkpt>
      <trkpt lat="44.23917" lon="2.98873">
        <ele>886</ele>
        <time>2019-10-13T09:20:21.000Z</time>
      </trkpt>
      <trkpt lat="44.23916" lon="2.98873">
        <ele>885</ele>
        <time>2019-10-13T09:20:22.000Z</time>
      </trkpt>
      <trkpt lat="44.23914" lon="2.98872">
        <ele>885</ele>
        <time>2019-10-13T09:20:23.000Z</time>
      </trkpt>
      <trkpt lat="44.23913" lon="2.98872">
        <ele>885</ele>
        <time>2019-10-13T09:20:24.000Z</time>
      </trkpt>
      <trkpt lat="44.23912" lon="2.98872">
        <ele>885</ele>
        <time>2019-10-13T09:20:25.000Z</time>
      </trkpt>
      <trkpt lat="44.2391" lon="2.98872">
        <ele>885</ele>
        <time>2019-10-13T09:20:26.000Z</time>
      </trkpt>
      <trkpt lat="44.23909" lon="2.98872">
        <ele>885</ele>
        <time>2019-10-13T09:20:27.000Z</time>
      </trkpt>
      <trkpt lat="44.23907" lon="2.98873">
        <ele>885</ele>
        <time>2019-10-13T09:20:28.000Z</time>
      </trkpt>
      <trkpt lat="44.23906" lon="2.98873">
        <ele>885</ele>
        <time>2019-10-13T09:20:29.000Z</time>
      </trkpt>
      <trkpt lat="44.23905" lon="2.98873">
        <ele>885</ele>
        <time>2019-10-13T09:20:30.000Z</time>
      </trkpt>
      <trkpt lat="44.23903" lon="2.98874">
        <ele>885</ele>
        <time>2019-10-13T09:20:31.000Z</time>
      </trkpt>
      <trkpt lat="44.23901" lon="2.98875">
        <ele>885</ele>
        <time>2019-10-13T09:20:32.000Z</time>
      </trkpt>
      <trkpt lat="44.239" lon="2.98875">
        <ele>885</ele>
        <time>2019-10-13T09:20:33.000Z</time>
      </trkpt>
      <trkpt lat="44.23898" lon="2.98876">
        <ele>885</ele>
        <time>2019-10-13T09:20:34.000Z</time>
      </trkpt>
      <trkpt lat="44.23897" lon="2.98877">
        <ele>884</ele>
        <time>2019-10-13T09:20:35.000Z</time>
      </trkpt>
      <trkpt lat="44.23895" lon="2.98878">
        <ele>884</ele>
        <time>2019-10-13T09:20:36.000Z</time>
      </trkpt>
      <trkpt lat="44.23894" lon="2.98879">
        <ele>884</ele>
        <time>2019-10-13T09:20:37.000Z</time>
      </trkpt>
      <trkpt lat="44.23892" lon="2.9888">
        <ele>884</ele>
        <time>2019-10-13T09:20:38.000Z</time>
      </trkpt>
      <trkpt lat="44.23891" lon="2.98881">
        <ele>884</ele>
        <time>2019-10-13T09:20:39.000Z</time>
      </trkpt>
      <trkpt lat="44.23889" lon="2.98882">
        <ele>884</ele>
        <time>2019-10-13T09:20:40.000Z</time>
      </trkpt>
      <trkpt lat="44.23888" lon="2.98883">
        <ele>884</ele>
        <time>2019-10-13T09:20:41.000Z</time>
      </trkpt>
      <trkpt lat="44.23886" lon="2.98884">
        <ele>883</ele>
        <time>2019-10-13T09:20:42.000Z</time>
      </trkpt>
      <trkpt lat="44.23884" lon="2.98885">
        <ele>883</ele>
        <time>2019-10-13T09:20:43.000Z</time>
      </trkpt>
      <trkpt lat="44.23883" lon="2.98886">
        <ele>883</ele>
        <time>2019-10-13T09:20:44.000Z</time>
      </trkpt>
      <trkpt lat="44.23881" lon="2.98887">
        <ele>883</ele>
        <time>2019-10-13T09:20:45.000Z</time>
      </trkpt>
      <trkpt lat="44.23879" lon="2.98888">
        <ele>882</ele>
        <time>2019-10-13T09:20:46.000Z</time>
      </trkpt>
      <trkpt lat="44.23877" lon="2.98888">
        <ele>882</ele>
        <time>2019-10-13T09:20:47.000Z</time>
      </trkpt>
      <trkpt lat="44.23876" lon="2.98889">
        <ele>882</ele>
        <time>2019-10-13T09:20:48.000Z</time>
      </trkpt>
      <trkpt lat="44.23874" lon="2.98889">
        <ele>882</ele>
        <time>2019-10-13T09:20:49.000Z</time>
      </trkpt>
      <trkpt lat="44.23873" lon="2.98889">
        <ele>882</ele>
        <time>2019-10-13T09:20:50.000Z</time>
      </trkpt>
      <trkpt lat="44.23871" lon="2.98889">
        <ele>882</ele>
        <time>2019-10-13T09:20:51.000Z</time>
      </trkpt>
      <trkpt lat="44.2387" lon="2.98889">
        <ele>882</ele>
        <time>2019-10-13T09:20:52.000Z</time>
      </trkpt>
      <trkpt lat="44.23869" lon="2.98888">
        <ele>881</ele>
        <time>2019-10-13T09:20:53.000Z</time>
      </trkpt>
      <trkpt lat="44.23867" lon="2.98888">
        <ele>881</ele>
        <time>2019-10-13T09:20:54.000Z</time>
      </trkpt>
      <trkpt lat="44.23866" lon="2.98887">
        <ele>881</ele>
        <time>2019-10-13T09:20:55.000Z</time>
      </trkpt>
      <trkpt lat="44.23865" lon="2.98886">
        <ele>881</ele>
        <time>2019-10-13T09:20:56.000Z</time>
      </trkpt>
      <trkpt lat="44.23864" lon="2.98886">
        <ele>881</ele>
        <time>2019-10-13T09:20:57.000Z</time>
      </trkpt>
      <trkpt lat="44.23862" lon="2.98885">
        <ele>880</ele>
        <time>2019-10-13T09:20:58.000Z</time>
      </trkpt>
      <trkpt lat="44.23861" lon="2.98885">
        <ele>880</ele>
        <time>2019-10-13T09:20:59.000Z</time>
      </trkpt>
      <trkpt lat="44.23859" lon="2.98885">
        <ele>880</ele>
        <time>2019-10-13T09:21:00.000Z</time>
      </trkpt>
      <trkpt lat="44.23857" lon="2.98884">
        <ele>879</ele>
        <time>2019-10-13T09:21:01.000Z</time>
      </trkpt>
      <trkpt lat="44.23856" lon="2.98884">
        <ele>879</ele>
        <time>2019-10-13T09:21:02.000Z</time>
      </trkpt>
      <trkpt lat="44.23854" lon="2.98884">
        <ele>879</ele>
        <time>2019-10-13T09:21:03.000Z</time>
      </trkpt>
      <trkpt lat="44.23853" lon="2.98884">
        <ele>879</ele>
        <time>2019-10-13T09:21:04.000Z</time>
      </trkpt>
      <trkpt lat="44.23851" lon="2.98884">
        <ele>878</ele>
        <time>2019-10-13T09:21:05.000Z</time>
      </trkpt>
      <trkpt lat="44.2385" lon="2.98883">
        <ele>878</ele>
        <time>2019-10-13T09:21:06.000Z</time>
      </trkpt>
      <trkpt lat="44.23849" lon="2.98883">
        <ele>878</ele>
        <time>2019-10-13T09:21:07.000Z</time>
      </trkpt>
      <trkpt lat="44.23847" lon="2.98882">
        <ele>878</ele>
        <time>2019-10-13T09:21:08.000Z</time>
      </trkpt>
      <trkpt lat="44.23846" lon="2.98882">
        <ele>877</ele>
        <time>2019-10-13T09:21:09.000Z</time>
      </trkpt>
      <trkpt lat="44.23844" lon="2.98881">
        <ele>877</ele>
        <time>2019-10-13T09:21:10.000Z</time>
      </trkpt>
      <trkpt lat="44.23842" lon="2.9888">
        <ele>876</ele>
        <time>2019-10-13T09:21:11.000Z</time>
      </trkpt>
      <trkpt lat="44.23841" lon="2.98879">
        <ele>876</ele>
        <time>2019-10-13T09:21:12.000Z</time>
      </trkpt>
      <trkpt lat="44.23839" lon="2.98878">
        <ele>876</ele>
        <time>2019-10-13T09:21:13.000Z</time>
      </trkpt>
      <trkpt lat="44.23838" lon="2.98877">
        <ele>875</ele>
        <time>2019-10-13T09:21:14.000Z</time>
      </trkpt>
      <trkpt lat="44.23836" lon="2.98876">
        <ele>875</ele>
        <time>2019-10-13T09:21:15.000Z</time>
      </trkpt>
      <trkpt lat="44.23835" lon="2.98875">
        <ele>875</ele>
        <time>2019-10-13T09:21:16.000Z</time>
      </trkpt>
      <trkpt lat="44.23834" lon="2.98873">
        <ele>874</ele>
        <time>2019-10-13T09:21:17.000Z</time>
      </trkpt>
      <trkpt lat="44.23832" lon="2.98872">
        <ele>874</ele>
        <time>2019-10-13T09:21:18.000Z</time>
      </trkpt>
      <trkpt lat="44.23831" lon="2.98872">
        <ele>874</ele>
        <time>2019-10-13T09:21:19.000Z</time>
      </trkpt>
      <trkpt lat="44.23829" lon="2.98871">
        <ele>873</ele>
        <time>2019-10-13T09:21:20.000Z</time>
      </trkpt>
      <trkpt lat="44.23828" lon="2.9887">
        <ele>873</ele>
        <time>2019-10-13T09:21:21.000Z</time>
      </trkpt>
      <trkpt lat="44.23827" lon="2.9887">
        <ele>873</ele>
        <time>2019-10-13T09:21:22.000Z</time>
      </trkpt>
      <trkpt lat="44.23825" lon="2.98869">
        <ele>872</ele>
        <time>2019-10-13T09:21:23.000Z</time>
      </trkpt>
      <trkpt lat="44.23823" lon="2.98869">
        <ele>872</ele>
        <time>2019-10-13T09:21:24.000Z</time>
      </trkpt>
      <trkpt lat="44.23822" lon="2.98868">
        <ele>872</ele>
        <time>2019-10-13T09:21:25.000Z</time>
      </trkpt>
      <trkpt lat="44.23821" lon="2.98868">
        <ele>872</ele>
        <time>2019-10-13T09:21:26.000Z</time>
      </trkpt>
      <trkpt lat="44.23819" lon="2.98867">
        <ele>872</ele>
        <time>2019-10-13T09:21:27.000Z</time>
      </trkpt>
      <trkpt lat="44.23818" lon="2.98867">
        <ele>871</ele>
        <time>2019-10-13T09:21:28.000Z</time>
      </trkpt>
      <trkpt lat="44.23816" lon="2.98867">
        <ele>871</ele>
        <time>2019-10-13T09:21:29.000Z</time>
      </trkpt>
      <trkpt lat="44.23815" lon="2.98866">
        <ele>871</ele>
        <time>2019-10-13T09:21:30.000Z</time>
      </trkpt>
      <trkpt lat="44.23814" lon="2.98866">
        <ele>871</ele>
        <time>2019-10-13T09:21:31.000Z</time>
      </trkpt>
      <trkpt lat="44.23812" lon="2.98866">
        <ele>871</ele>
        <time>2019-10-13T09:21:32.000Z</time>
      </trkpt>
      <trkpt lat="44.23811" lon="2.98866">
        <ele>871</ele>
        <time>2019-10-13T09:21:33.000Z</time>
      </trkpt>
      <trkpt lat="44.2381" lon="2.98866">
        <ele>871</ele>
        <time>2019-10-13T09:21:34.000Z</time>
      </trkpt>
      <trkpt lat="44.23808" lon="2.98866">
        <ele>871</ele>
        <time>2019-10-13T09:21:35.000Z</time>
      </trkpt>
      <trkpt lat="44.23806" lon="2.98867">
        <ele>871</ele>
        <time>2019-10-13T09:21:36.000Z</time>
      </trkpt>
      <trkpt lat="44.23805" lon="2.98867">
        <ele>871</ele>
        <time>2019-10-13T09:21:37.000Z</time>
      </trkpt>
      <trkpt lat="44.23803" lon="2.98867">
        <ele>871</ele>
        <time>2019-10-13T09:21:38.000Z</time>
      </trkpt>
      <trkpt lat="44.23802" lon="2.98868">
        <ele>871</ele>
        <time>2019-10-13T09:21:39.000Z</time>
      </trkpt>
      <trkpt lat="44.238" lon="2.98868">
        <ele>871</ele>
        <time>2019-10-13T09:21:40.000Z</time>
      </trkpt>
      <trkpt lat="44.23799" lon="2.98869">
        <ele>871</ele>
        <time>2019-10-13T09:21:41.000Z</time>
      </trkpt>
      <trkpt lat="44.23798" lon="2.9887">
        <ele>871</ele>
        <time>2019-10-13T09:21:42.000Z</time>
      </trkpt>
      <trkpt lat="44.23796" lon="2.98871">
        <ele>871</ele>
        <time>2019-10-13T09:21:43.000Z</time>
      </trkpt>
      <trkpt lat="44.23795" lon="2.98872">
        <ele>871</ele>
        <time>2019-10-13T09:21:44.000Z</time>
      </trkpt>
      <trkpt lat="44.23793" lon="2.98873">
        <ele>871</ele>
        <time>2019-10-13T09:21:45.000Z</time>
      </trkpt>
      <trkpt lat="44.23791" lon="2.98873">
        <ele>871</ele>
        <time>2019-10-13T09:21:46.000Z</time>
      </trkpt>
      <trkpt lat="44.2379" lon="2.98874">
        <ele>871</ele>
        <time>2019-10-13T09:21:47.000Z</time>
      </trkpt>
      <trkpt lat="44.23788" lon="2.98874">
        <ele>871</ele>
        <time>2019-10-13T09:21:48.000Z</time>
      </trkpt>
      <trkpt lat="44.23787" lon="2.98875">
        <ele>871</ele>
        <time>2019-10-13T09:21:49.000Z</time>
      </trkpt>
      <trkpt lat="44.23786" lon="2.98876">
        <ele>871</ele>
        <time>2019-10-13T09:21:50.000Z</time>
      </trkpt>
      <trkpt lat="44.23784" lon="2.98877">
        <ele>871</ele>
        <time>2019-10-13T09:21:51.000Z</time>
      </trkpt>
      <trkpt lat="44.23783" lon="2.98877">
        <ele>871</ele>
        <time>2019-10-13T09:21:52.000Z</time>
      </trkpt>
      <trkpt lat="44.23782" lon="2.98878">
        <ele>870</ele>
        <time>2019-10-13T09:21:53.000Z</time>
      </trkpt>
      <trkpt lat="44.2378" lon="2.98879">
        <ele>870</ele>
        <time>2019-10-13T09:21:54.000Z</time>
      </trkpt>
      <trkpt lat="44.23779" lon="2.98879">
        <ele>870</ele>
        <time>2019-10-13T09:21:55.000Z</time>
      </trkpt>
      <trkpt lat="44.23777" lon="2.9888">
        <ele>870</ele>
        <time>2019-10-13T09:21:56.000Z</time>
      </trkpt>
      <trkpt lat="44.23776" lon="2.98881">
        <ele>870</ele>
        <time>2019-10-13T09:21:57.000Z</time>
      </trkpt>
      <trkpt lat="44.23774" lon="2.98881">
        <ele>870</ele>
        <time>2019-10-13T09:21:58.000Z</time>
      </trkpt>
      <trkpt lat="44.23773" lon="2.98881">
        <ele>870</ele>
        <time>2019-10-13T09:21:59.000Z</time>
      </trkpt>
      <trkpt lat="44.23772" lon="2.98881">
        <ele>870</ele>
        <time>2019-10-13T09:22:00.000Z</time>
      </trkpt>
      <trkpt lat="44.2377" lon="2.98881">
        <ele>870</ele>
        <time>2019-10-13T09:22:01.000Z</time>
      </trkpt>
      <trkpt lat="44.23769" lon="2.98882">
        <ele>870</ele>
        <time>2019-10-13T09:22:02.000Z</time>
      </trkpt>
      <trkpt lat="44.23768" lon="2.98882">
        <ele>870</ele>
        <time>2019-10-13T09:22:03.000Z</time>
      </trkpt>
      <trkpt lat="44.23766" lon="2.98882">
        <ele>870</ele>
        <time>2019-10-13T09:22:04.000Z</time>
      </trkpt>
      <trkpt lat="44.23765" lon="2.98883">
        <ele>870</ele>
        <time>2019-10-13T09:22:05.000Z</time>
      </trkpt>
      <trkpt lat="44.23763" lon="2.98883">
        <ele>870</ele>
        <time>2019-10-13T09:22:06.000Z</time>
      </trkpt>
      <trkpt lat="44.23762" lon="2.98883">
        <ele>870</ele>
        <time>2019-10-13T09:22:07.000Z</time>
      </trkpt>
      <trkpt lat="44.2376" lon="2.98883">
        <ele>870</ele>
        <time>2019-10-13T09:22:08.000Z</time>
      </trkpt>
      <trkpt lat="44.23759" lon="2.98884">
        <ele>870</ele>
        <time>2019-10-13T09:22:09.000Z</time>
      </trkpt>
      <trkpt lat="44.23757" lon="2.98884">
        <ele>870</ele>
        <time>2019-10-13T09:22:10.000Z</time>
      </trkpt>
      <trkpt lat="44.23756" lon="2.98884">
        <ele>870</ele>
        <time>2019-10-13T09:22:11.000Z</time>
      </trkpt>
      <trkpt lat="44.23754" lon="2.98884">
        <ele>870</ele>
        <time>2019-10-13T09:22:12.000Z</time>
      </trkpt>
      <trkpt lat="44.23753" lon="2.98884">
        <ele>870</ele>
        <time>2019-10-13T09:22:13.000Z</time>
      </trkpt>
      <trkpt lat="44.23751" lon="2.98883">
        <ele>869</ele>
        <time>2019-10-13T09:22:14.000Z</time>
      </trkpt>
      <trkpt lat="44.2375" lon="2.98883">
        <ele>869</ele>
        <time>2019-10-13T09:22:15.000Z</time>
      </trkpt>
      <trkpt lat="44.23748" lon="2.98883">
        <ele>869</ele>
        <time>2019-10-13T09:22:16.000Z</time>
      </trkpt>
      <trkpt lat="44.23747" lon="2.98882">
        <ele>869</ele>
        <time>2019-10-13T09:22:17.000Z</time>
      </trkpt>
      <trkpt lat="44.23745" lon="2.98882">
        <ele>869</ele>
        <time>2019-10-13T09:22:18.000Z</time>
      </trkpt>
      <trkpt lat="44.23744" lon="2.98881">
        <ele>869</ele>
        <time>2019-10-13T09:22:19.000Z</time>
      </trkpt>
      <trkpt lat="44.23743" lon="2.9888">
        <ele>869</ele>
        <time>2019-10-13T09:22:20.000Z</time>
      </trkpt>
      <trkpt lat="44.23741" lon="2.9888">
        <ele>868</ele>
        <time>2019-10-13T09:22:21.000Z</time>
      </trkpt>
      <trkpt lat="44.2374" lon="2.98879">
        <ele>868</ele>
        <time>2019-10-13T09:22:22.000Z</time>
      </trkpt>
      <trkpt lat="44.23738" lon="2.98878">
        <ele>868</ele>
        <time>2019-10-13T09:22:23.000Z</time>
      </trkpt>
      <trkpt lat="44.23737" lon="2.98877">
        <ele>868</ele>
        <time>2019-10-13T09:22:24.000Z</time>
      </trkpt>
      <trkpt lat="44.23735" lon="2.98876">
        <ele>868</ele>
        <time>2019-10-13T09:22:25.000Z</time>
      </trkpt>
      <trkpt lat="44.23734" lon="2.98875">
        <ele>868</ele>
        <time>2019-10-13T09:22:26.000Z</time>
      </trkpt>
      <trkpt lat="44.23733" lon="2.98874">
        <ele>867</ele>
        <time>2019-10-13T09:22:27.000Z</time>
      </trkpt>
      <trkpt lat="44.23731" lon="2.98873">
        <ele>867</ele>
        <time>2019-10-13T09:22:28.000Z</time>
      </trkpt>
      <trkpt lat="44.2373" lon="2.98872">
        <ele>867</ele>
        <time>2019-10-13T09:22:29.000Z</time>
      </trkpt>
      <trkpt lat="44.23729" lon="2.98871">
        <ele>867</ele>
        <time>2019-10-13T09:22:30.000Z</time>
      </trkpt>
      <trkpt lat="44.23727" lon="2.9887">
        <ele>867</ele>
        <time>2019-10-13T09:22:31.000Z</time>
      </trkpt>
      <trkpt lat="44.23726" lon="2.98869">
        <ele>867</ele>
        <time>2019-10-13T09:22:32.000Z</time>
      </trkpt>
      <trkpt lat="44.23725" lon="2.98867">
        <ele>867</ele>
        <time>2019-10-13T09:22:33.000Z</time>
      </trkpt>
      <trkpt lat="44.23724" lon="2.98866">
        <ele>867</ele>
        <time>2019-10-13T09:22:34.000Z</time>
      </trkpt>
      <trkpt lat="44.23722" lon="2.98865">
        <ele>866</ele>
        <time>2019-10-13T09:22:35.000Z</time>
      </trkpt>
      <trkpt lat="44.23721" lon="2.98863">
        <ele>866</ele>
        <time>2019-10-13T09:22:36.000Z</time>
      </trkpt>
      <trkpt lat="44.2372" lon="2.98862">
        <ele>866</ele>
        <time>2019-10-13T09:22:37.000Z</time>
      </trkpt>
      <trkpt lat="44.23719" lon="2.98861">
        <ele>866</ele>
        <time>2019-10-13T09:22:38.000Z</time>
      </trkpt>
      <trkpt lat="44.23717" lon="2.9886">
        <ele>866</ele>
        <time>2019-10-13T09:22:39.000Z</time>
      </trkpt>
      <trkpt lat="44.23716" lon="2.98859">
        <ele>866</ele>
        <time>2019-10-13T09:22:40.000Z</time>
      </trkpt>
      <trkpt lat="44.23715" lon="2.98858">
        <ele>866</ele>
        <time>2019-10-13T09:22:41.000Z</time>
      </trkpt>
      <trkpt lat="44.23713" lon="2.98857">
        <ele>866</ele>
        <time>2019-10-13T09:22:42.000Z</time>
      </trkpt>
      <trkpt lat="44.23712" lon="2.98856">
        <ele>866</ele>
        <time>2019-10-13T09:22:43.000Z</time>
      </trkpt>
      <trkpt lat="44.2371" lon="2.98855">
        <ele>866</ele>
        <time>2019-10-13T09:22:44.000Z</time>
      </trkpt>
      <trkpt lat="44.23709" lon="2.98854">
        <ele>866</ele>
        <time>2019-10-13T09:22:45.000Z</time>
      </trkpt>
      <trkpt lat="44.23707" lon="2.98854">
        <ele>866</ele>
        <time>2019-10-13T09:22:46.000Z</time>
      </trkpt>
      <trkpt lat="44.23706" lon="2.98853">
        <ele>866</ele>
        <time>2019-10-13T09:22:47.000Z</time>
      </trkpt>
      <trkpt lat="44.23704" lon="2.98852">
        <ele>866</ele>
        <time>2019-10-13T09:22:48.000Z</time>
      </trkpt>
      <trkpt lat="44.23703" lon="2.98851">
        <ele>867</ele>
        <time>2019-10-13T09:22:49.000Z</time>
      </trkpt>
      <trkpt lat="44.23702" lon="2.9885">
        <ele>867</ele>
        <time>2019-10-13T09:22:50.000Z</time>
      </trkpt>
      <trkpt lat="44.237" lon="2.98849">
        <ele>867</ele>
        <time>2019-10-13T09:22:51.000Z</time>
      </trkpt>
      <trkpt lat="44.23699" lon="2.98848">
        <ele>867</ele>
        <time>2019-10-13T09:22:52.000Z</time>
      </trkpt>
      <trkpt lat="44.23697" lon="2.98847">
        <ele>867</ele>
        <time>2019-10-13T09:22:53.000Z</time>
      </trkpt>
      <trkpt lat="44.23696" lon="2.98846">
        <ele>867</ele>
        <time>2019-10-13T09:22:54.000Z</time>
      </trkpt>
      <trkpt lat="44.23695" lon="2.98845">
        <ele>867</ele>
        <time>2019-10-13T09:22:55.000Z</time>
      </trkpt>
      <trkpt lat="44.23693" lon="2.98844">
        <ele>867</ele>
        <time>2019-10-13T09:22:56.000Z</time>
      </trkpt>
      <trkpt lat="44.23692" lon="2.98843">
        <ele>867</ele>
        <time>2019-10-13T09:22:57.000Z</time>
      </trkpt>
      <trkpt lat="44.23691" lon="2.98842">
        <ele>867</ele>
        <time>2019-10-13T09:22:58.000Z</time>
      </trkpt>
      <trkpt lat="44.2369" lon="2.98841">
        <ele>867</ele>
        <time>2019-10-13T09:22:59.000Z</time>
      </trkpt>
      <trkpt lat="44.23688" lon="2.9884">
        <ele>867</ele>
        <time>2019-10-13T09:23:00.000Z</time>
      </trkpt>
      <trkpt lat="44.23687" lon="2.98838">
        <ele>866</ele>
        <time>2019-10-13T09:23:01.000Z</time>
      </trkpt>
      <trkpt lat="44.23686" lon="2.98837">
        <ele>866</ele>
        <time>2019-10-13T09:23:02.000Z</time>
      </trkpt>
      <trkpt lat="44.23684" lon="2.98836">
        <ele>866</ele>
        <time>2019-10-13T09:23:03.000Z</time>
      </trkpt>
      <trkpt lat="44.23683" lon="2.98834">
        <ele>866</ele>
        <time>2019-10-13T09:23:04.000Z</time>
      </trkpt>
      <trkpt lat="44.23682" lon="2.98832">
        <ele>865</ele>
        <time>2019-10-13T09:23:05.000Z</time>
      </trkpt>
      <trkpt lat="44.23681" lon="2.98831">
        <ele>865</ele>
        <time>2019-10-13T09:23:06.000Z</time>
      </trkpt>
      <trkpt lat="44.2368" lon="2.9883">
        <ele>865</ele>
        <time>2019-10-13T09:23:07.000Z</time>
      </trkpt>
      <trkpt lat="44.2368" lon="2.98829">
        <ele>865</ele>
        <time>2019-10-13T09:23:08.000Z</time>
      </trkpt>
      <trkpt lat="44.23679" lon="2.98827">
        <ele>865</ele>
        <time>2019-10-13T09:23:09.000Z</time>
      </trkpt>
      <trkpt lat="44.23678" lon="2.98825">
        <ele>864</ele>
        <time>2019-10-13T09:23:10.000Z</time>
      </trkpt>
      <trkpt lat="44.23678" lon="2.98823">
        <ele>864</ele>
        <time>2019-10-13T09:23:11.000Z</time>
      </trkpt>
      <trkpt lat="44.23677" lon="2.98822">
        <ele>864</ele>
        <time>2019-10-13T09:23:12.000Z</time>
      </trkpt>
      <trkpt lat="44.23677" lon="2.9882">
        <ele>864</ele>
        <time>2019-10-13T09:23:13.000Z</time>
      </trkpt>
      <trkpt lat="44.23677" lon="2.98817">
        <ele>864</ele>
        <time>2019-10-13T09:23:14.000Z</time>
      </trkpt>
      <trkpt lat="44.23677" lon="2.98814">
        <ele>863</ele>
        <time>2019-10-13T09:23:15.000Z</time>
      </trkpt>
      <trkpt lat="44.23677" lon="2.98812">
        <ele>863</ele>
        <time>2019-10-13T09:23:16.000Z</time>
      </trkpt>
      <trkpt lat="44.23677" lon="2.9881">
        <ele>863</ele>
        <time>2019-10-13T09:23:17.000Z</time>
      </trkpt>
      <trkpt lat="44.23677" lon="2.98808">
        <ele>863</ele>
        <time>2019-10-13T09:23:18.000Z</time>
      </trkpt>
      <trkpt lat="44.23677" lon="2.98806">
        <ele>863</ele>
        <time>2019-10-13T09:23:19.000Z</time>
      </trkpt>
      <trkpt lat="44.23676" lon="2.98804">
        <ele>862</ele>
        <time>2019-10-13T09:23:20.000Z</time>
      </trkpt>
      <trkpt lat="44.23677" lon="2.98803">
        <ele>862</ele>
        <time>2019-10-13T09:23:21.000Z</time>
      </trkpt>
      <trkpt lat="44.23677" lon="2.98801">
        <ele>862</ele>
        <time>2019-10-13T09:23:22.000Z</time>
      </trkpt>
      <trkpt lat="44.23678" lon="2.98799">
        <ele>861</ele>
        <time>2019-10-13T09:23:23.000Z</time>
      </trkpt>
      <trkpt lat="44.23678" lon="2.98797">
        <ele>861</ele>
        <time>2019-10-13T09:23:24.000Z</time>
      </trkpt>
      <trkpt lat="44.2368" lon="2.98795">
        <ele>861</ele>
        <time>2019-10-13T09:23:25.000Z</time>
      </trkpt>
      <trkpt lat="44.23681" lon="2.98793">
        <ele>860</ele>
        <time>2019-10-13T09:23:26.000Z</time>
      </trkpt>
      <trkpt lat="44.23682" lon="2.98792">
        <ele>860</ele>
        <time>2019-10-13T09:23:27.000Z</time>
      </trkpt>
      <trkpt lat="44.23683" lon="2.98792">
        <ele>860</ele>
        <time>2019-10-13T09:23:28.000Z</time>
      </trkpt>
      <trkpt lat="44.23685" lon="2.98791">
        <ele>859</ele>
        <time>2019-10-13T09:23:29.000Z</time>
      </trkpt>
      <trkpt lat="44.23686" lon="2.98791">
        <ele>859</ele>
        <time>2019-10-13T09:23:30.000Z</time>
      </trkpt>
      <trkpt lat="44.23688" lon="2.9879">
        <ele>859</ele>
        <time>2019-10-13T09:23:31.000Z</time>
      </trkpt>
      <trkpt lat="44.23689" lon="2.9879">
        <ele>859</ele>
        <time>2019-10-13T09:23:32.000Z</time>
      </trkpt>
      <trkpt lat="44.2369" lon="2.98789">
        <ele>858</ele>
        <time>2019-10-13T09:23:33.000Z</time>
      </trkpt>
      <trkpt lat="44.23692" lon="2.98789">
        <ele>858</ele>
        <time>2019-10-13T09:23:34.000Z</time>
      </trkpt>
      <trkpt lat="44.23694" lon="2.98789">
        <ele>858</ele>
        <time>2019-10-13T09:23:35.000Z</time>
      </trkpt>
      <trkpt lat="44.23695" lon="2.98788">
        <ele>858</ele>
        <time>2019-10-13T09:23:36.000Z</time>
      </trkpt>
      <trkpt lat="44.23697" lon="2.98788">
        <ele>857</ele>
        <time>2019-10-13T09:23:37.000Z</time>
      </trkpt>
      <trkpt lat="44.23698" lon="2.98788">
        <ele>857</ele>
        <time>2019-10-13T09:23:38.000Z</time>
      </trkpt>
      <trkpt lat="44.237" lon="2.98788">
        <ele>857</ele>
        <time>2019-10-13T09:23:39.000Z</time>
      </trkpt>
      <trkpt lat="44.23701" lon="2.98788">
        <ele>856</ele>
        <time>2019-10-13T09:23:40.000Z</time>
      </trkpt>
      <trkpt lat="44.23703" lon="2.98787">
        <ele>856</ele>
        <time>2019-10-13T09:23:41.000Z</time>
      </trkpt>
      <trkpt lat="44.23704" lon="2.98786">
        <ele>856</ele>
        <time>2019-10-13T09:23:42.000Z</time>
      </trkpt>
      <trkpt lat="44.23706" lon="2.98786">
        <ele>856</ele>
        <time>2019-10-13T09:23:43.000Z</time>
      </trkpt>
      <trkpt lat="44.23707" lon="2.98785">
        <ele>855</ele>
        <time>2019-10-13T09:23:44.000Z</time>
      </trkpt>
      <trkpt lat="44.23709" lon="2.98784">
        <ele>855</ele>
        <time>2019-10-13T09:23:45.000Z</time>
      </trkpt>
      <trkpt lat="44.23711" lon="2.98783">
        <ele>855</ele>
        <time>2019-10-13T09:23:46.000Z</time>
      </trkpt>
      <trkpt lat="44.23712" lon="2.98783">
        <ele>855</ele>
        <time>2019-10-13T09:23:47.000Z</time>
      </trkpt>
      <trkpt lat="44.23714" lon="2.98782">
        <ele>855</ele>
        <time>2019-10-13T09:23:48.000Z</time>
      </trkpt>
      <trkpt lat="44.23715" lon="2.98781">
        <ele>854</ele>
        <time>2019-10-13T09:23:49.000Z</time>
      </trkpt>
      <trkpt lat="44.23717" lon="2.9878">
        <ele>854</ele>
        <time>2019-10-13T09:23:50.000Z</time>
      </trkpt>
      <trkpt lat="44.23718" lon="2.98779">
        <ele>854</ele>
        <time>2019-10-13T09:23:51.000Z</time>
      </trkpt>
      <trkpt lat="44.23719" lon="2.98779">
        <ele>854</ele>
        <time>2019-10-13T09:23:52.000Z</time>
      </trkpt>
      <trkpt lat="44.23721" lon="2.98778">
        <ele>853</ele>
        <time>2019-10-13T09:23:53.000Z</time>
      </trkpt>
      <trkpt lat="44.23722" lon="2.98777">
        <ele>853</ele>
        <time>2019-10-13T09:23:54.000Z</time>
      </trkpt>
      <trkpt lat="44.23724" lon="2.98776">
        <ele>853</ele>
        <time>2019-10-13T09:23:55.000Z</time>
      </trkpt>
      <trkpt lat="44.23725" lon="2.98776">
        <ele>852</ele>
        <time>2019-10-13T09:23:56.000Z</time>
      </trkpt>
      <trkpt lat="44.23727" lon="2.98775">
        <ele>852</ele>
        <time>2019-10-13T09:23:57.000Z</time>
      </trkpt>
      <trkpt lat="44.23728" lon="2.98774">
        <ele>852</ele>
        <time>2019-10-13T09:23:58.000Z</time>
      </trkpt>
      <trkpt lat="44.2373" lon="2.98773">
        <ele>851</ele>
        <time>2019-10-13T09:23:59.000Z</time>
      </trkpt>
      <trkpt lat="44.23732" lon="2.98772">
        <ele>851</ele>
        <time>2019-10-13T09:24:00.000Z</time>
      </trkpt>
      <trkpt lat="44.23733" lon="2.98771">
        <ele>851</ele>
        <time>2019-10-13T09:24:01.000Z</time>
      </trkpt>
      <trkpt lat="44.23735" lon="2.9877">
        <ele>851</ele>
        <time>2019-10-13T09:24:02.000Z</time>
      </trkpt>
      <trkpt lat="44.23737" lon="2.98769">
        <ele>850</ele>
        <time>2019-10-13T09:24:03.000Z</time>
      </trkpt>
      <trkpt lat="44.23738" lon="2.98768">
        <ele>850</ele>
        <time>2019-10-13T09:24:04.000Z</time>
      </trkpt>
      <trkpt lat="44.2374" lon="2.98767">
        <ele>850</ele>
        <time>2019-10-13T09:24:05.000Z</time>
      </trkpt>
      <trkpt lat="44.23741" lon="2.98766">
        <ele>850</ele>
        <time>2019-10-13T09:24:06.000Z</time>
      </trkpt>
      <trkpt lat="44.23742" lon="2.98765">
        <ele>850</ele>
        <time>2019-10-13T09:24:07.000Z</time>
      </trkpt>
      <trkpt lat="44.23744" lon="2.98764">
        <ele>849</ele>
        <time>2019-10-13T09:24:08.000Z</time>
      </trkpt>
      <trkpt lat="44.23745" lon="2.98763">
        <ele>849</ele>
        <time>2019-10-13T09:24:09.000Z</time>
      </trkpt>
      <trkpt lat="44.23747" lon="2.98762">
        <ele>849</ele>
        <time>2019-10-13T09:24:10.000Z</time>
      </trkpt>
      <trkpt lat="44.23748" lon="2.98761">
        <ele>849</ele>
        <time>2019-10-13T09:24:11.000Z</time>
      </trkpt>
      <trkpt lat="44.2375" lon="2.9876">
        <ele>849</ele>
        <time>2019-10-13T09:24:12.000Z</time>
      </trkpt>
      <trkpt lat="44.23751" lon="2.9876">
        <ele>849</ele>
        <time>2019-10-13T09:24:13.000Z</time>
      </trkpt>
      <trkpt lat="44.23752" lon="2.98759">
        <ele>849</ele>
        <time>2019-10-13T09:24:14.000Z</time>
      </trkpt>
      <trkpt lat="44.23753" lon="2.98758">
        <ele>849</ele>
        <time>2019-10-13T09:24:15.000Z</time>
      </trkpt>
      <trkpt lat="44.23754" lon="2.98757">
        <ele>849</ele>
        <time>2019-10-13T09:24:16.000Z</time>
      </trkpt>
      <trkpt lat="44.23755" lon="2.98756">
        <ele>848</ele>
        <time>2019-10-13T09:24:17.000Z</time>
      </trkpt>
      <trkpt lat="44.23756" lon="2.98755">
        <ele>848</ele>
        <time>2019-10-13T09:24:18.000Z</time>
      </trkpt>
      <trkpt lat="44.23757" lon="2.98753">
        <ele>848</ele>
        <time>2019-10-13T09:24:19.000Z</time>
      </trkpt>
      <trkpt lat="44.23758" lon="2.98752">
        <ele>848</ele>
        <time>2019-10-13T09:24:20.000Z</time>
      </trkpt>
      <trkpt lat="44.23759" lon="2.98751">
        <ele>848</ele>
        <time>2019-10-13T09:24:21.000Z</time>
      </trkpt>
      <trkpt lat="44.2376" lon="2.98749">
        <ele>848</ele>
        <time>2019-10-13T09:24:22.000Z</time>
      </trkpt>
      <trkpt lat="44.23761" lon="2.98748">
        <ele>848</ele>
        <time>2019-10-13T09:24:23.000Z</time>
      </trkpt>
      <trkpt lat="44.23762" lon="2.98747">
        <ele>848</ele>
        <time>2019-10-13T09:24:24.000Z</time>
      </trkpt>
      <trkpt lat="44.23764" lon="2.98745">
        <ele>848</ele>
        <time>2019-10-13T09:24:25.000Z</time>
      </trkpt>
      <trkpt lat="44.23765" lon="2.98744">
        <ele>848</ele>
        <time>2019-10-13T09:24:26.000Z</time>
      </trkpt>
      <trkpt lat="44.23766" lon="2.98742">
        <ele>848</ele>
        <time>2019-10-13T09:24:27.000Z</time>
      </trkpt>
      <trkpt lat="44.23767" lon="2.98741">
        <ele>847</ele>
        <time>2019-10-13T09:24:28.000Z</time>
      </trkpt>
      <trkpt lat="44.23768" lon="2.98739">
        <ele>847</ele>
        <time>2019-10-13T09:24:29.000Z</time>
      </trkpt>
      <trkpt lat="44.23769" lon="2.98738">
        <ele>847</ele>
        <time>2019-10-13T09:24:30.000Z</time>
      </trkpt>
      <trkpt lat="44.2377" lon="2.98736">
        <ele>847</ele>
        <time>2019-10-13T09:24:31.000Z</time>
      </trkpt>
      <trkpt lat="44.23771" lon="2.98735">
        <ele>847</ele>
        <time>2019-10-13T09:24:32.000Z</time>
      </trkpt>
      <trkpt lat="44.23772" lon="2.98734">
        <ele>847</ele>
        <time>2019-10-13T09:24:33.000Z</time>
      </trkpt>
      <trkpt lat="44.23773" lon="2.98732">
        <ele>847</ele>
        <time>2019-10-13T09:24:34.000Z</time>
      </trkpt>
      <trkpt lat="44.23774" lon="2.98731">
        <ele>847</ele>
        <time>2019-10-13T09:24:35.000Z</time>
      </trkpt>
      <trkpt lat="44.23776" lon="2.98729">
        <ele>847</ele>
        <time>2019-10-13T09:24:36.000Z</time>
      </trkpt>
      <trkpt lat="44.23777" lon="2.98728">
        <ele>847</ele>
        <time>2019-10-13T09:24:37.000Z</time>
      </trkpt>
      <trkpt lat="44.23778" lon="2.98726">
        <ele>847</ele>
        <time>2019-10-13T09:24:38.000Z</time>
      </trkpt>
      <trkpt lat="44.23779" lon="2.98725">
        <ele>846</ele>
        <time>2019-10-13T09:24:39.000Z</time>
      </trkpt>
      <trkpt lat="44.2378" lon="2.98723">
        <ele>846</ele>
        <time>2019-10-13T09:24:40.000Z</time>
      </trkpt>
      <trkpt lat="44.23781" lon="2.98722">
        <ele>846</ele>
        <time>2019-10-13T09:24:41.000Z</time>
      </trkpt>
      <trkpt lat="44.23782" lon="2.9872">
        <ele>846</ele>
        <time>2019-10-13T09:24:42.000Z</time>
      </trkpt>
      <trkpt lat="44.23783" lon="2.98719">
        <ele>846</ele>
        <time>2019-10-13T09:24:43.000Z</time>
      </trkpt>
      <trkpt lat="44.23784" lon="2.98717">
        <ele>846</ele>
        <time>2019-10-13T09:24:44.000Z</time>
      </trkpt>
      <trkpt lat="44.23786" lon="2.98716">
        <ele>845</ele>
        <time>2019-10-13T09:24:45.000Z</time>
      </trkpt>
      <trkpt lat="44.23787" lon="2.98714">
        <ele>845</ele>
        <time>2019-10-13T09:24:46.000Z</time>
      </trkpt>
      <trkpt lat="44.23788" lon="2.98713">
        <ele>845</ele>
        <time>2019-10-13T09:24:47.000Z</time>
      </trkpt>
      <trkpt lat="44.23789" lon="2.98711">
        <ele>845</ele>
        <time>2019-10-13T09:24:48.000Z</time>
      </trkpt>
      <trkpt lat="44.23791" lon="2.9871">
        <ele>844</ele>
        <time>2019-10-13T09:24:49.000Z</time>
      </trkpt>
      <trkpt lat="44.23792" lon="2.98708">
        <ele>844</ele>
        <time>2019-10-13T09:24:50.000Z</time>
      </trkpt>
      <trkpt lat="44.23793" lon="2.98707">
        <ele>844</ele>
        <time>2019-10-13T09:24:51.000Z</time>
      </trkpt>
      <trkpt lat="44.23794" lon="2.98706">
        <ele>844</ele>
        <time>2019-10-13T09:24:52.000Z</time>
      </trkpt>
      <trkpt lat="44.23795" lon="2.98706">
        <ele>844</ele>
        <time>2019-10-13T09:24:53.000Z</time>
      </trkpt>
      <trkpt lat="44.23796" lon="2.98705">
        <ele>844</ele>
        <time>2019-10-13T09:24:54.000Z</time>
      </trkpt>
      <trkpt lat="44.23797" lon="2.98704">
        <ele>844</ele>
        <time>2019-10-13T09:24:55.000Z</time>
      </trkpt>
      <trkpt lat="44.23798" lon="2.98703">
        <ele>843</ele>
        <time>2019-10-13T09:24:56.000Z</time>
      </trkpt>
      <trkpt lat="44.238" lon="2.98702">
        <ele>843</ele>
        <time>2019-10-13T09:24:57.000Z</time>
      </trkpt>
      <trkpt lat="44.23801" lon="2.98701">
        <ele>843</ele>
        <time>2019-10-13T09:24:58.000Z</time>
      </trkpt>
      <trkpt lat="44.23802" lon="2.98699">
        <ele>843</ele>
        <time>2019-10-13T09:24:59.000Z</time>
      </trkpt>
      <trkpt lat="44.23803" lon="2.98698">
        <ele>843</ele>
        <time>2019-10-13T09:25:00.000Z</time>
      </trkpt>
      <trkpt lat="44.23804" lon="2.98697">
        <ele>843</ele>
        <time>2019-10-13T09:25:01.000Z</time>
      </trkpt>
      <trkpt lat="44.23806" lon="2.98695">
        <ele>843</ele>
        <time>2019-10-13T09:25:02.000Z</time>
      </trkpt>
      <trkpt lat="44.23808" lon="2.98694">
        <ele>843</ele>
        <time>2019-10-13T09:25:03.000Z</time>
      </trkpt>
      <trkpt lat="44.23809" lon="2.98693">
        <ele>842</ele>
        <time>2019-10-13T09:25:04.000Z</time>
      </trkpt>
      <trkpt lat="44.2381" lon="2.98691">
        <ele>842</ele>
        <time>2019-10-13T09:25:05.000Z</time>
      </trkpt>
      <trkpt lat="44.23811" lon="2.9869">
        <ele>842</ele>
        <time>2019-10-13T09:25:06.000Z</time>
      </trkpt>
      <trkpt lat="44.23812" lon="2.98689">
        <ele>842</ele>
        <time>2019-10-13T09:25:07.000Z</time>
      </trkpt>
      <trkpt lat="44.23814" lon="2.98687">
        <ele>842</ele>
        <time>2019-10-13T09:25:08.000Z</time>
      </trkpt>
      <trkpt lat="44.23815" lon="2.98686">
        <ele>842</ele>
        <time>2019-10-13T09:25:09.000Z</time>
      </trkpt>
      <trkpt lat="44.23816" lon="2.98684">
        <ele>842</ele>
        <time>2019-10-13T09:25:10.000Z</time>
      </trkpt>
      <trkpt lat="44.23818" lon="2.98683">
        <ele>842</ele>
        <time>2019-10-13T09:25:11.000Z</time>
      </trkpt>
      <trkpt lat="44.23819" lon="2.98681">
        <ele>842</ele>
        <time>2019-10-13T09:25:12.000Z</time>
      </trkpt>
      <trkpt lat="44.2382" lon="2.9868">
        <ele>841</ele>
        <time>2019-10-13T09:25:13.000Z</time>
      </trkpt>
      <trkpt lat="44.23821" lon="2.98679">
        <ele>841</ele>
        <time>2019-10-13T09:25:14.000Z</time>
      </trkpt>
      <trkpt lat="44.23822" lon="2.98678">
        <ele>841</ele>
        <time>2019-10-13T09:25:15.000Z</time>
      </trkpt>
      <trkpt lat="44.23824" lon="2.98677">
        <ele>841</ele>
        <time>2019-10-13T09:25:16.000Z</time>
      </trkpt>
      <trkpt lat="44.23825" lon="2.98675">
        <ele>841</ele>
        <time>2019-10-13T09:25:17.000Z</time>
      </trkpt>
      <trkpt lat="44.23826" lon="2.98674">
        <ele>841</ele>
        <time>2019-10-13T09:25:18.000Z</time>
      </trkpt>
      <trkpt lat="44.23827" lon="2.98673">
        <ele>841</ele>
        <time>2019-10-13T09:25:19.000Z</time>
      </trkpt>
      <trkpt lat="44.23829" lon="2.98673">
        <ele>841</ele>
        <time>2019-10-13T09:25:20.000Z</time>
      </trkpt>
      <trkpt lat="44.2383" lon="2.98672">
        <ele>841</ele>
        <time>2019-10-13T09:25:21.000Z</time>
      </trkpt>
      <trkpt lat="44.23831" lon="2.98671">
        <ele>840</ele>
        <time>2019-10-13T09:25:22.000Z</time>
      </trkpt>
      <trkpt lat="44.23832" lon="2.9867">
        <ele>840</ele>
        <time>2019-10-13T09:25:23.000Z</time>
      </trkpt>
      <trkpt lat="44.23834" lon="2.98668">
        <ele>840</ele>
        <time>2019-10-13T09:25:24.000Z</time>
      </trkpt>
      <trkpt lat="44.23835" lon="2.98667">
        <ele>840</ele>
        <time>2019-10-13T09:25:25.000Z</time>
      </trkpt>
      <trkpt lat="44.23837" lon="2.98666">
        <ele>840</ele>
        <time>2019-10-13T09:25:26.000Z</time>
      </trkpt>
      <trkpt lat="44.23838" lon="2.98665">
        <ele>840</ele>
        <time>2019-10-13T09:25:27.000Z</time>
      </trkpt>
      <trkpt lat="44.23839" lon="2.98664">
        <ele>840</ele>
        <time>2019-10-13T09:25:28.000Z</time>
      </trkpt>
      <trkpt lat="44.23841" lon="2.98663">
        <ele>840</ele>
        <time>2019-10-13T09:25:29.000Z</time>
      </trkpt>
      <trkpt lat="44.23842" lon="2.98663">
        <ele>840</ele>
        <time>2019-10-13T09:25:30.000Z</time>
      </trkpt>
      <trkpt lat="44.23844" lon="2.98662">
        <ele>840</ele>
        <time>2019-10-13T09:25:31.000Z</time>
      </trkpt>
      <trkpt lat="44.23845" lon="2.9866">
        <ele>840</ele>
        <time>2019-10-13T09:25:32.000Z</time>
      </trkpt>
      <trkpt lat="44.23847" lon="2.98659">
        <ele>840</ele>
        <time>2019-10-13T09:25:33.000Z</time>
      </trkpt>
      <trkpt lat="44.23848" lon="2.98658">
        <ele>840</ele>
        <time>2019-10-13T09:25:34.000Z</time>
      </trkpt>
      <trkpt lat="44.23849" lon="2.98657">
        <ele>840</ele>
        <time>2019-10-13T09:25:35.000Z</time>
      </trkpt>
      <trkpt lat="44.23851" lon="2.98655">
        <ele>840</ele>
        <time>2019-10-13T09:25:36.000Z</time>
      </trkpt>
      <trkpt lat="44.23852" lon="2.98654">
        <ele>839</ele>
        <time>2019-10-13T09:25:37.000Z</time>
      </trkpt>
      <trkpt lat="44.23853" lon="2.98653">
        <ele>839</ele>
        <time>2019-10-13T09:25:38.000Z</time>
      </trkpt>
      <trkpt lat="44.23854" lon="2.98652">
        <ele>839</ele>
        <time>2019-10-13T09:25:39.000Z</time>
      </trkpt>
      <trkpt lat="44.23855" lon="2.9865">
        <ele>839</ele>
        <time>2019-10-13T09:25:40.000Z</time>
      </trkpt>
      <trkpt lat="44.23856" lon="2.98649">
        <ele>839</ele>
        <time>2019-10-13T09:25:41.000Z</time>
      </trkpt>
      <trkpt lat="44.23858" lon="2.98648">
        <ele>839</ele>
        <time>2019-10-13T09:25:42.000Z</time>
      </trkpt>
      <trkpt lat="44.23859" lon="2.98646">
        <ele>839</ele>
        <time>2019-10-13T09:25:43.000Z</time>
      </trkpt>
      <trkpt lat="44.2386" lon="2.98645">
        <ele>838</ele>
        <time>2019-10-13T09:25:44.000Z</time>
      </trkpt>
      <trkpt lat="44.23861" lon="2.98644">
        <ele>838</ele>
        <time>2019-10-13T09:25:45.000Z</time>
      </trkpt>
      <trkpt lat="44.23862" lon="2.98643">
        <ele>838</ele>
        <time>2019-10-13T09:25:46.000Z</time>
      </trkpt>
      <trkpt lat="44.23863" lon="2.98642">
        <ele>838</ele>
        <time>2019-10-13T09:25:47.000Z</time>
      </trkpt>
      <trkpt lat="44.23864" lon="2.98641">
        <ele>838</ele>
        <time>2019-10-13T09:25:48.000Z</time>
      </trkpt>
      <trkpt lat="44.23865" lon="2.98639">
        <ele>837</ele>
        <time>2019-10-13T09:25:49.000Z</time>
      </trkpt>
      <trkpt lat="44.23866" lon="2.98638">
        <ele>837</ele>
        <time>2019-10-13T09:25:50.000Z</time>
      </trkpt>
      <trkpt lat="44.23868" lon="2.98637">
        <ele>837</ele>
        <time>2019-10-13T09:25:51.000Z</time>
      </trkpt>
      <trkpt lat="44.23869" lon="2.98636">
        <ele>837</ele>
        <time>2019-10-13T09:25:52.000Z</time>
      </trkpt>
      <trkpt lat="44.23871" lon="2.98635">
        <ele>837</ele>
        <time>2019-10-13T09:25:53.000Z</time>
      </trkpt>
      <trkpt lat="44.23872" lon="2.98634">
        <ele>837</ele>
        <time>2019-10-13T09:25:54.000Z</time>
      </trkpt>
      <trkpt lat="44.23873" lon="2.98633">
        <ele>837</ele>
        <time>2019-10-13T09:25:55.000Z</time>
      </trkpt>
      <trkpt lat="44.23875" lon="2.98632">
        <ele>837</ele>
        <time>2019-10-13T09:25:56.000Z</time>
      </trkpt>
      <trkpt lat="44.23877" lon="2.98631">
        <ele>836</ele>
        <time>2019-10-13T09:25:57.000Z</time>
      </trkpt>
      <trkpt lat="44.23878" lon="2.9863">
        <ele>836</ele>
        <time>2019-10-13T09:25:58.000Z</time>
      </trkpt>
      <trkpt lat="44.23879" lon="2.98629">
        <ele>836</ele>
        <time>2019-10-13T09:25:59.000Z</time>
      </trkpt>
      <trkpt lat="44.23881" lon="2.98628">
        <ele>836</ele>
        <time>2019-10-13T09:26:00.000Z</time>
      </trkpt>
      <trkpt lat="44.23882" lon="2.98627">
        <ele>836</ele>
        <time>2019-10-13T09:26:01.000Z</time>
      </trkpt>
      <trkpt lat="44.23884" lon="2.98626">
        <ele>836</ele>
        <time>2019-10-13T09:26:02.000Z</time>
      </trkpt>
      <trkpt lat="44.23885" lon="2.98625">
        <ele>835</ele>
        <time>2019-10-13T09:26:03.000Z</time>
      </trkpt>
      <trkpt lat="44.23887" lon="2.98624">
        <ele>835</ele>
        <time>2019-10-13T09:26:04.000Z</time>
      </trkpt>
      <trkpt lat="44.23888" lon="2.98623">
        <ele>835</ele>
        <time>2019-10-13T09:26:05.000Z</time>
      </trkpt>
      <trkpt lat="44.2389" lon="2.98623">
        <ele>835</ele>
        <time>2019-10-13T09:26:06.000Z</time>
      </trkpt>
      <trkpt lat="44.23891" lon="2.98622">
        <ele>835</ele>
        <time>2019-10-13T09:26:07.000Z</time>
      </trkpt>
      <trkpt lat="44.23893" lon="2.98622">
        <ele>835</ele>
        <time>2019-10-13T09:26:08.000Z</time>
      </trkpt>
      <trkpt lat="44.23894" lon="2.98621">
        <ele>834</ele>
        <time>2019-10-13T09:26:09.000Z</time>
      </trkpt>
      <trkpt lat="44.23895" lon="2.9862">
        <ele>834</ele>
        <time>2019-10-13T09:26:10.000Z</time>
      </trkpt>
      <trkpt lat="44.23897" lon="2.9862">
        <ele>834</ele>
        <time>2019-10-13T09:26:11.000Z</time>
      </trkpt>
      <trkpt lat="44.23899" lon="2.9862">
        <ele>834</ele>
        <time>2019-10-13T09:26:12.000Z</time>
      </trkpt>
      <trkpt lat="44.239" lon="2.98619">
        <ele>834</ele>
        <time>2019-10-13T09:26:13.000Z</time>
      </trkpt>
      <trkpt lat="44.23902" lon="2.98619">
        <ele>835</ele>
        <time>2019-10-13T09:26:14.000Z</time>
      </trkpt>
      <trkpt lat="44.23903" lon="2.98618">
        <ele>834</ele>
        <time>2019-10-13T09:26:15.000Z</time>
      </trkpt>
      <trkpt lat="44.23905" lon="2.98617">
        <ele>834</ele>
        <time>2019-10-13T09:26:16.000Z</time>
      </trkpt>
      <trkpt lat="44.23906" lon="2.98617">
        <ele>834</ele>
        <time>2019-10-13T09:26:17.000Z</time>
      </trkpt>
      <trkpt lat="44.23908" lon="2.98616">
        <ele>834</ele>
        <time>2019-10-13T09:26:18.000Z</time>
      </trkpt>
      <trkpt lat="44.23909" lon="2.98616">
        <ele>834</ele>
        <time>2019-10-13T09:26:19.000Z</time>
      </trkpt>
      <trkpt lat="44.2391" lon="2.98616">
        <ele>834</ele>
        <time>2019-10-13T09:26:20.000Z</time>
      </trkpt>
      <trkpt lat="44.23911" lon="2.98615">
        <ele>834</ele>
        <time>2019-10-13T09:26:21.000Z</time>
      </trkpt>
      <trkpt lat="44.23912" lon="2.98615">
        <ele>834</ele>
        <time>2019-10-13T09:26:22.000Z</time>
      </trkpt>
      <trkpt lat="44.23914" lon="2.98615">
        <ele>834</ele>
        <time>2019-10-13T09:26:23.000Z</time>
      </trkpt>
      <trkpt lat="44.23915" lon="2.98614">
        <ele>834</ele>
        <time>2019-10-13T09:26:24.000Z</time>
      </trkpt>
      <trkpt lat="44.23916" lon="2.98613">
        <ele>834</ele>
        <time>2019-10-13T09:26:25.000Z</time>
      </trkpt>
      <trkpt lat="44.23918" lon="2.98612">
        <ele>834</ele>
        <time>2019-10-13T09:26:26.000Z</time>
      </trkpt>
      <trkpt lat="44.23919" lon="2.98612">
        <ele>833</ele>
        <time>2019-10-13T09:26:27.000Z</time>
      </trkpt>
      <trkpt lat="44.2392" lon="2.98611">
        <ele>833</ele>
        <time>2019-10-13T09:26:28.000Z</time>
      </trkpt>
      <trkpt lat="44.23921" lon="2.9861">
        <ele>833</ele>
        <time>2019-10-13T09:26:29.000Z</time>
      </trkpt>
      <trkpt lat="44.23923" lon="2.98609">
        <ele>833</ele>
        <time>2019-10-13T09:26:30.000Z</time>
      </trkpt>
      <trkpt lat="44.23924" lon="2.98608">
        <ele>833</ele>
        <time>2019-10-13T09:26:31.000Z</time>
      </trkpt>
      <trkpt lat="44.23926" lon="2.98606">
        <ele>833</ele>
        <time>2019-10-13T09:26:32.000Z</time>
      </trkpt>
      <trkpt lat="44.23927" lon="2.98605">
        <ele>833</ele>
        <time>2019-10-13T09:26:33.000Z</time>
      </trkpt>
      <trkpt lat="44.23929" lon="2.98604">
        <ele>832</ele>
        <time>2019-10-13T09:26:34.000Z</time>
      </trkpt>
      <trkpt lat="44.23931" lon="2.98603">
        <ele>832</ele>
        <time>2019-10-13T09:26:35.000Z</time>
      </trkpt>
      <trkpt lat="44.23933" lon="2.98601">
        <ele>832</ele>
        <time>2019-10-13T09:26:36.000Z</time>
      </trkpt>
      <trkpt lat="44.23935" lon="2.986">
        <ele>832</ele>
        <time>2019-10-13T09:26:37.000Z</time>
      </trkpt>
      <trkpt lat="44.23936" lon="2.98599">
        <ele>832</ele>
        <time>2019-10-13T09:26:38.000Z</time>
      </trkpt>
      <trkpt lat="44.23938" lon="2.98598">
        <ele>832</ele>
        <time>2019-10-13T09:26:39.000Z</time>
      </trkpt>
      <trkpt lat="44.2394" lon="2.98596">
        <ele>832</ele>
        <time>2019-10-13T09:26:40.000Z</time>
      </trkpt>
      <trkpt lat="44.23941" lon="2.98595">
        <ele>832</ele>
        <time>2019-10-13T09:26:41.000Z</time>
      </trkpt>
      <trkpt lat="44.23943" lon="2.98594">
        <ele>831</ele>
        <time>2019-10-13T09:26:42.000Z</time>
      </trkpt>
      <trkpt lat="44.23945" lon="2.98593">
        <ele>831</ele>
        <time>2019-10-13T09:26:43.000Z</time>
      </trkpt>
      <trkpt lat="44.23946" lon="2.98592">
        <ele>831</ele>
        <time>2019-10-13T09:26:44.000Z</time>
      </trkpt>
      <trkpt lat="44.23948" lon="2.98591">
        <ele>831</ele>
        <time>2019-10-13T09:26:45.000Z</time>
      </trkpt>
      <trkpt lat="44.23949" lon="2.9859">
        <ele>831</ele>
        <time>2019-10-13T09:26:46.000Z</time>
      </trkpt>
      <trkpt lat="44.2395" lon="2.98589">
        <ele>831</ele>
        <time>2019-10-13T09:26:47.000Z</time>
      </trkpt>
      <trkpt lat="44.23952" lon="2.98588">
        <ele>831</ele>
        <time>2019-10-13T09:26:48.000Z</time>
      </trkpt>
      <trkpt lat="44.23954" lon="2.98587">
        <ele>831</ele>
        <time>2019-10-13T09:26:49.000Z</time>
      </trkpt>
      <trkpt lat="44.23955" lon="2.98586">
        <ele>831</ele>
        <time>2019-10-13T09:26:50.000Z</time>
      </trkpt>
      <trkpt lat="44.23956" lon="2.98584">
        <ele>831</ele>
        <time>2019-10-13T09:26:51.000Z</time>
      </trkpt>
      <trkpt lat="44.23958" lon="2.98583">
        <ele>831</ele>
        <time>2019-10-13T09:26:52.000Z</time>
      </trkpt>
      <trkpt lat="44.2396" lon="2.98582">
        <ele>831</ele>
        <time>2019-10-13T09:26:53.000Z</time>
      </trkpt>
      <trkpt lat="44.23961" lon="2.98581">
        <ele>831</ele>
        <time>2019-10-13T09:26:54.000Z</time>
      </trkpt>
      <trkpt lat="44.23963" lon="2.98579">
        <ele>831</ele>
        <time>2019-10-13T09:26:55.000Z</time>
      </trkpt>
      <trkpt lat="44.23964" lon="2.98578">
        <ele>831</ele>
        <time>2019-10-13T09:26:56.000Z</time>
      </trkpt>
      <trkpt lat="44.23966" lon="2.98577">
        <ele>830</ele>
        <time>2019-10-13T09:26:57.000Z</time>
      </trkpt>
      <trkpt lat="44.23968" lon="2.98576">
        <ele>830</ele>
        <time>2019-10-13T09:26:58.000Z</time>
      </trkpt>
      <trkpt lat="44.2397" lon="2.98575">
        <ele>830</ele>
        <time>2019-10-13T09:26:59.000Z</time>
      </trkpt>
      <trkpt lat="44.23972" lon="2.98574">
        <ele>830</ele>
        <time>2019-10-13T09:27:00.000Z</time>
      </trkpt>
      <trkpt lat="44.23973" lon="2.98573">
        <ele>830</ele>
        <time>2019-10-13T09:27:01.000Z</time>
      </trkpt>
      <trkpt lat="44.23975" lon="2.98572">
        <ele>830</ele>
        <time>2019-10-13T09:27:02.000Z</time>
      </trkpt>
      <trkpt lat="44.23977" lon="2.98571">
        <ele>830</ele>
        <time>2019-10-13T09:27:03.000Z</time>
      </trkpt>
      <trkpt lat="44.23979" lon="2.9857">
        <ele>830</ele>
        <time>2019-10-13T09:27:04.000Z</time>
      </trkpt>
      <trkpt lat="44.23981" lon="2.98569">
        <ele>829</ele>
        <time>2019-10-13T09:27:05.000Z</time>
      </trkpt>
      <trkpt lat="44.23982" lon="2.98568">
        <ele>829</ele>
        <time>2019-10-13T09:27:06.000Z</time>
      </trkpt>
      <trkpt lat="44.23984" lon="2.98567">
        <ele>829</ele>
        <time>2019-10-13T09:27:07.000Z</time>
      </trkpt>
      <trkpt lat="44.23985" lon="2.98566">
        <ele>829</ele>
        <time>2019-10-13T09:27:08.000Z</time>
      </trkpt>
      <trkpt lat="44.23987" lon="2.98565">
        <ele>828</ele>
        <time>2019-10-13T09:27:09.000Z</time>
      </trkpt>
      <trkpt lat="44.23989" lon="2.98563">
        <ele>828</ele>
        <time>2019-10-13T09:27:10.000Z</time>
      </trkpt>
      <trkpt lat="44.2399" lon="2.98562">
        <ele>828</ele>
        <time>2019-10-13T09:27:11.000Z</time>
      </trkpt>
      <trkpt lat="44.23992" lon="2.98561">
        <ele>828</ele>
        <time>2019-10-13T09:27:12.000Z</time>
      </trkpt>
      <trkpt lat="44.23994" lon="2.9856">
        <ele>827</ele>
        <time>2019-10-13T09:27:13.000Z</time>
      </trkpt>
      <trkpt lat="44.23995" lon="2.9856">
        <ele>827</ele>
        <time>2019-10-13T09:27:14.000Z</time>
      </trkpt>
      <trkpt lat="44.23997" lon="2.98559">
        <ele>827</ele>
        <time>2019-10-13T09:27:15.000Z</time>
      </trkpt>
      <trkpt lat="44.23998" lon="2.98558">
        <ele>826</ele>
        <time>2019-10-13T09:27:16.000Z</time>
      </trkpt>
      <trkpt lat="44.24" lon="2.98558">
        <ele>826</ele>
        <time>2019-10-13T09:27:17.000Z</time>
      </trkpt>
      <trkpt lat="44.24001" lon="2.98557">
        <ele>826</ele>
        <time>2019-10-13T09:27:18.000Z</time>
      </trkpt>
      <trkpt lat="44.24003" lon="2.98557">
        <ele>825</ele>
        <time>2019-10-13T09:27:19.000Z</time>
      </trkpt>
      <trkpt lat="44.24005" lon="2.98556">
        <ele>825</ele>
        <time>2019-10-13T09:27:20.000Z</time>
      </trkpt>
      <trkpt lat="44.24006" lon="2.98555">
        <ele>825</ele>
        <time>2019-10-13T09:27:21.000Z</time>
      </trkpt>
      <trkpt lat="44.24007" lon="2.98555">
        <ele>824</ele>
        <time>2019-10-13T09:27:22.000Z</time>
      </trkpt>
      <trkpt lat="44.24009" lon="2.98554">
        <ele>824</ele>
        <time>2019-10-13T09:27:23.000Z</time>
      </trkpt>
      <trkpt lat="44.24011" lon="2.98554">
        <ele>824</ele>
        <time>2019-10-13T09:27:24.000Z</time>
      </trkpt>
      <trkpt lat="44.24012" lon="2.98553">
        <ele>824</ele>
        <time>2019-10-13T09:27:25.000Z</time>
      </trkpt>
      <trkpt lat="44.24014" lon="2.98552">
        <ele>824</ele>
        <time>2019-10-13T09:27:26.000Z</time>
      </trkpt>
      <trkpt lat="44.24016" lon="2.98551">
        <ele>824</ele>
        <time>2019-10-13T09:27:27.000Z</time>
      </trkpt>
      <trkpt lat="44.24017" lon="2.98551">
        <ele>824</ele>
        <time>2019-10-13T09:27:28.000Z</time>
      </trkpt>
      <trkpt lat="44.24018" lon="2.9855">
        <ele>824</ele>
        <time>2019-10-13T09:27:29.000Z</time>
      </trkpt>
      <trkpt lat="44.24019" lon="2.98549">
        <ele>823</ele>
        <time>2019-10-13T09:27:30.000Z</time>
      </trkpt>
      <trkpt lat="44.24021" lon="2.98549">
        <ele>823</ele>
        <time>2019-10-13T09:27:31.000Z</time>
      </trkpt>
      <trkpt lat="44.24022" lon="2.98548">
        <ele>823</ele>
        <time>2019-10-13T09:27:32.000Z</time>
      </trkpt>
      <trkpt lat="44.24023" lon="2.98548">
        <ele>823</ele>
        <time>2019-10-13T09:27:33.000Z</time>
      </trkpt>
      <trkpt lat="44.24025" lon="2.98548">
        <ele>823</ele>
        <time>2019-10-13T09:27:34.000Z</time>
      </trkpt>
      <trkpt lat="44.24026" lon="2.98547">
        <ele>823</ele>
        <time>2019-10-13T09:27:35.000Z</time>
      </trkpt>
      <trkpt lat="44.24027" lon="2.98546">
        <ele>823</ele>
        <time>2019-10-13T09:27:36.000Z</time>
      </trkpt>
      <trkpt lat="44.24028" lon="2.98546">
        <ele>823</ele>
        <time>2019-10-13T09:27:37.000Z</time>
      </trkpt>
      <trkpt lat="44.24029" lon="2.98545">
        <ele>823</ele>
        <time>2019-10-13T09:27:38.000Z</time>
      </trkpt>
      <trkpt lat="44.24031" lon="2.98545">
        <ele>823</ele>
        <time>2019-10-13T09:27:39.000Z</time>
      </trkpt>
      <trkpt lat="44.24032" lon="2.98544">
        <ele>823</ele>
        <time>2019-10-13T09:27:40.000Z</time>
      </trkpt>
      <trkpt lat="44.24034" lon="2.98544">
        <ele>823</ele>
        <time>2019-10-13T09:27:41.000Z</time>
      </trkpt>
      <trkpt lat="44.24036" lon="2.98543">
        <ele>823</ele>
        <time>2019-10-13T09:27:42.000Z</time>
      </trkpt>
      <trkpt lat="44.24037" lon="2.98543">
        <ele>823</ele>
        <time>2019-10-13T09:27:43.000Z</time>
      </trkpt>
      <trkpt lat="44.24039" lon="2.98542">
        <ele>823</ele>
        <time>2019-10-13T09:27:44.000Z</time>
      </trkpt>
      <trkpt lat="44.24041" lon="2.98542">
        <ele>823</ele>
        <time>2019-10-13T09:27:45.000Z</time>
      </trkpt>
      <trkpt lat="44.24043" lon="2.98542">
        <ele>823</ele>
        <time>2019-10-13T09:27:46.000Z</time>
      </trkpt>
      <trkpt lat="44.24044" lon="2.98541">
        <ele>822</ele>
        <time>2019-10-13T09:27:47.000Z</time>
      </trkpt>
      <trkpt lat="44.24046" lon="2.98541">
        <ele>822</ele>
        <time>2019-10-13T09:27:48.000Z</time>
      </trkpt>
      <trkpt lat="44.24047" lon="2.9854">
        <ele>822</ele>
        <time>2019-10-13T09:27:49.000Z</time>
      </trkpt>
      <trkpt lat="44.24049" lon="2.9854">
        <ele>822</ele>
        <time>2019-10-13T09:27:50.000Z</time>
      </trkpt>
      <trkpt lat="44.24051" lon="2.9854">
        <ele>822</ele>
        <time>2019-10-13T09:27:51.000Z</time>
      </trkpt>
      <trkpt lat="44.24052" lon="2.9854">
        <ele>821</ele>
        <time>2019-10-13T09:27:52.000Z</time>
      </trkpt>
      <trkpt lat="44.24054" lon="2.98539">
        <ele>821</ele>
        <time>2019-10-13T09:27:53.000Z</time>
      </trkpt>
      <trkpt lat="44.24055" lon="2.98539">
        <ele>821</ele>
        <time>2019-10-13T09:27:54.000Z</time>
      </trkpt>
      <trkpt lat="44.24057" lon="2.98539">
        <ele>821</ele>
        <time>2019-10-13T09:27:55.000Z</time>
      </trkpt>
      <trkpt lat="44.24058" lon="2.98538">
        <ele>821</ele>
        <time>2019-10-13T09:27:56.000Z</time>
      </trkpt>
      <trkpt lat="44.2406" lon="2.98538">
        <ele>821</ele>
        <time>2019-10-13T09:27:57.000Z</time>
      </trkpt>
      <trkpt lat="44.24061" lon="2.98537">
        <ele>821</ele>
        <time>2019-10-13T09:27:58.000Z</time>
      </trkpt>
      <trkpt lat="44.24062" lon="2.98536">
        <ele>820</ele>
        <time>2019-10-13T09:27:59.000Z</time>
      </trkpt>
      <trkpt lat="44.24063" lon="2.98535">
        <ele>820</ele>
        <time>2019-10-13T09:28:00.000Z</time>
      </trkpt>
      <trkpt lat="44.24065" lon="2.98534">
        <ele>820</ele>
        <time>2019-10-13T09:28:01.000Z</time>
      </trkpt>
      <trkpt lat="44.24066" lon="2.98533">
        <ele>820</ele>
        <time>2019-10-13T09:28:02.000Z</time>
      </trkpt>
      <trkpt lat="44.24068" lon="2.98532">
        <ele>820</ele>
        <time>2019-10-13T09:28:03.000Z</time>
      </trkpt>
      <trkpt lat="44.24069" lon="2.98531">
        <ele>820</ele>
        <time>2019-10-13T09:28:04.000Z</time>
      </trkpt>
      <trkpt lat="44.24071" lon="2.98529">
        <ele>820</ele>
        <time>2019-10-13T09:28:05.000Z</time>
      </trkpt>
      <trkpt lat="44.24072" lon="2.98528">
        <ele>819</ele>
        <time>2019-10-13T09:28:06.000Z</time>
      </trkpt>
      <trkpt lat="44.24074" lon="2.98527">
        <ele>819</ele>
        <time>2019-10-13T09:28:07.000Z</time>
      </trkpt>
      <trkpt lat="44.24075" lon="2.98525">
        <ele>819</ele>
        <time>2019-10-13T09:28:08.000Z</time>
      </trkpt>
      <trkpt lat="44.24077" lon="2.98524">
        <ele>819</ele>
        <time>2019-10-13T09:28:09.000Z</time>
      </trkpt>
      <trkpt lat="44.24078" lon="2.98523">
        <ele>819</ele>
        <time>2019-10-13T09:28:10.000Z</time>
      </trkpt>
      <trkpt lat="44.2408" lon="2.98521">
        <ele>819</ele>
        <time>2019-10-13T09:28:11.000Z</time>
      </trkpt>
      <trkpt lat="44.24082" lon="2.9852">
        <ele>819</ele>
        <time>2019-10-13T09:28:12.000Z</time>
      </trkpt>
      <trkpt lat="44.24083" lon="2.98519">
        <ele>818</ele>
        <time>2019-10-13T09:28:13.000Z</time>
      </trkpt>
      <trkpt lat="44.24085" lon="2.98517">
        <ele>818</ele>
        <time>2019-10-13T09:28:14.000Z</time>
      </trkpt>
      <trkpt lat="44.24086" lon="2.98516">
        <ele>818</ele>
        <time>2019-10-13T09:28:15.000Z</time>
      </trkpt>
      <trkpt lat="44.24088" lon="2.98515">
        <ele>818</ele>
        <time>2019-10-13T09:28:16.000Z</time>
      </trkpt>
      <trkpt lat="44.24089" lon="2.98513">
        <ele>818</ele>
        <time>2019-10-13T09:28:17.000Z</time>
      </trkpt>
      <trkpt lat="44.2409" lon="2.98512">
        <ele>818</ele>
        <time>2019-10-13T09:28:18.000Z</time>
      </trkpt>
      <trkpt lat="44.24092" lon="2.98512">
        <ele>818</ele>
        <time>2019-10-13T09:28:19.000Z</time>
      </trkpt>
      <trkpt lat="44.24093" lon="2.9851">
        <ele>818</ele>
        <time>2019-10-13T09:28:20.000Z</time>
      </trkpt>
      <trkpt lat="44.24095" lon="2.98509">
        <ele>818</ele>
        <time>2019-10-13T09:28:21.000Z</time>
      </trkpt>
      <trkpt lat="44.24096" lon="2.98508">
        <ele>819</ele>
        <time>2019-10-13T09:28:22.000Z</time>
      </trkpt>
      <trkpt lat="44.24097" lon="2.98506">
        <ele>819</ele>
        <time>2019-10-13T09:28:23.000Z</time>
      </trkpt>
      <trkpt lat="44.24098" lon="2.98505">
        <ele>819</ele>
        <time>2019-10-13T09:28:24.000Z</time>
      </trkpt>
      <trkpt lat="44.241" lon="2.98504">
        <ele>819</ele>
        <time>2019-10-13T09:28:25.000Z</time>
      </trkpt>
      <trkpt lat="44.24101" lon="2.98502">
        <ele>819</ele>
        <time>2019-10-13T09:28:26.000Z</time>
      </trkpt>
      <trkpt lat="44.24102" lon="2.98501">
        <ele>819</ele>
        <time>2019-10-13T09:28:27.000Z</time>
      </trkpt>
      <trkpt lat="44.24103" lon="2.985">
        <ele>819</ele>
        <time>2019-10-13T09:28:28.000Z</time>
      </trkpt>
      <trkpt lat="44.24104" lon="2.98499">
        <ele>819</ele>
        <time>2019-10-13T09:28:29.000Z</time>
      </trkpt>
      <trkpt lat="44.24106" lon="2.98498">
        <ele>819</ele>
        <time>2019-10-13T09:28:30.000Z</time>
      </trkpt>
      <trkpt lat="44.24107" lon="2.98497">
        <ele>819</ele>
        <time>2019-10-13T09:28:31.000Z</time>
      </trkpt>
      <trkpt lat="44.24109" lon="2.98495">
        <ele>819</ele>
        <time>2019-10-13T09:28:32.000Z</time>
      </trkpt>
      <trkpt lat="44.2411" lon="2.98495">
        <ele>819</ele>
        <time>2019-10-13T09:28:33.000Z</time>
      </trkpt>
      <trkpt lat="44.24111" lon="2.98494">
        <ele>819</ele>
        <time>2019-10-13T09:28:34.000Z</time>
      </trkpt>
      <trkpt lat="44.24112" lon="2.98493">
        <ele>819</ele>
        <time>2019-10-13T09:28:35.000Z</time>
      </trkpt>
      <trkpt lat="44.24114" lon="2.98492">
        <ele>819</ele>
        <time>2019-10-13T09:28:36.000Z</time>
      </trkpt>
      <trkpt lat="44.24115" lon="2.98491">
        <ele>819</ele>
        <time>2019-10-13T09:28:37.000Z</time>
      </trkpt>
      <trkpt lat="44.24116" lon="2.9849">
        <ele>820</ele>
        <time>2019-10-13T09:28:38.000Z</time>
      </trkpt>
      <trkpt lat="44.24118" lon="2.98488">
        <ele>820</ele>
        <time>2019-10-13T09:28:39.000Z</time>
      </trkpt>
      <trkpt lat="44.24119" lon="2.98487">
        <ele>820</ele>
        <time>2019-10-13T09:28:40.000Z</time>
      </trkpt>
      <trkpt lat="44.2412" lon="2.98485">
        <ele>820</ele>
        <time>2019-10-13T09:28:41.000Z</time>
      </trkpt>
      <trkpt lat="44.24122" lon="2.98484">
        <ele>820</ele>
        <time>2019-10-13T09:28:42.000Z</time>
      </trkpt>
      <trkpt lat="44.24123" lon="2.98483">
        <ele>820</ele>
        <time>2019-10-13T09:28:43.000Z</time>
      </trkpt>
      <trkpt lat="44.24124" lon="2.98481">
        <ele>820</ele>
        <time>2019-10-13T09:28:44.000Z</time>
      </trkpt>
      <trkpt lat="44.24125" lon="2.9848">
        <ele>820</ele>
        <time>2019-10-13T09:28:45.000Z</time>
      </trkpt>
      <trkpt lat="44.24126" lon="2.98479">
        <ele>820</ele>
        <time>2019-10-13T09:28:46.000Z</time>
      </trkpt>
      <trkpt lat="44.24127" lon="2.98477">
        <ele>820</ele>
        <time>2019-10-13T09:28:47.000Z</time>
      </trkpt>
      <trkpt lat="44.24128" lon="2.98476">
        <ele>820</ele>
        <time>2019-10-13T09:28:48.000Z</time>
      </trkpt>
      <trkpt lat="44.2413" lon="2.98475">
        <ele>820</ele>
        <time>2019-10-13T09:28:49.000Z</time>
      </trkpt>
      <trkpt lat="44.24131" lon="2.98474">
        <ele>820</ele>
        <time>2019-10-13T09:28:50.000Z</time>
      </trkpt>
      <trkpt lat="44.24132" lon="2.98473">
        <ele>820</ele>
        <time>2019-10-13T09:28:51.000Z</time>
      </trkpt>
      <trkpt lat="44.24134" lon="2.98471">
        <ele>820</ele>
        <time>2019-10-13T09:28:52.000Z</time>
      </trkpt>
      <trkpt lat="44.24135" lon="2.9847">
        <ele>820</ele>
        <time>2019-10-13T09:28:53.000Z</time>
      </trkpt>
      <trkpt lat="44.24136" lon="2.98468">
        <ele>820</ele>
        <time>2019-10-13T09:28:54.000Z</time>
      </trkpt>
      <trkpt lat="44.24137" lon="2.98467">
        <ele>820</ele>
        <time>2019-10-13T09:28:55.000Z</time>
      </trkpt>
      <trkpt lat="44.24138" lon="2.98465">
        <ele>820</ele>
        <time>2019-10-13T09:28:56.000Z</time>
      </trkpt>
      <trkpt lat="44.2414" lon="2.98464">
        <ele>819</ele>
        <time>2019-10-13T09:28:57.000Z</time>
      </trkpt>
      <trkpt lat="44.24141" lon="2.98462">
        <ele>819</ele>
        <time>2019-10-13T09:28:58.000Z</time>
      </trkpt>
      <trkpt lat="44.24143" lon="2.98461">
        <ele>819</ele>
        <time>2019-10-13T09:28:59.000Z</time>
      </trkpt>
      <trkpt lat="44.24144" lon="2.98459">
        <ele>819</ele>
        <time>2019-10-13T09:29:00.000Z</time>
      </trkpt>
      <trkpt lat="44.24146" lon="2.98458">
        <ele>819</ele>
        <time>2019-10-13T09:29:01.000Z</time>
      </trkpt>
      <trkpt lat="44.24147" lon="2.98457">
        <ele>819</ele>
        <time>2019-10-13T09:29:02.000Z</time>
      </trkpt>
      <trkpt lat="44.24148" lon="2.98455">
        <ele>819</ele>
        <time>2019-10-13T09:29:03.000Z</time>
      </trkpt>
      <trkpt lat="44.2415" lon="2.98454">
        <ele>819</ele>
        <time>2019-10-13T09:29:04.000Z</time>
      </trkpt>
      <trkpt lat="44.24151" lon="2.98453">
        <ele>819</ele>
        <time>2019-10-13T09:29:05.000Z</time>
      </trkpt>
      <trkpt lat="44.24153" lon="2.98451">
        <ele>819</ele>
        <time>2019-10-13T09:29:06.000Z</time>
      </trkpt>
      <trkpt lat="44.24154" lon="2.9845">
        <ele>819</ele>
        <time>2019-10-13T09:29:07.000Z</time>
      </trkpt>
      <trkpt lat="44.24156" lon="2.98448">
        <ele>819</ele>
        <time>2019-10-13T09:29:08.000Z</time>
      </trkpt>
      <trkpt lat="44.24157" lon="2.98447">
        <ele>819</ele>
        <time>2019-10-13T09:29:09.000Z</time>
      </trkpt>
      <trkpt lat="44.24158" lon="2.98445">
        <ele>819</ele>
        <time>2019-10-13T09:29:10.000Z</time>
      </trkpt>
      <trkpt lat="44.24159" lon="2.98444">
        <ele>819</ele>
        <time>2019-10-13T09:29:11.000Z</time>
      </trkpt>
      <trkpt lat="44.24161" lon="2.98442">
        <ele>819</ele>
        <time>2019-10-13T09:29:12.000Z</time>
      </trkpt>
      <trkpt lat="44.24162" lon="2.98441">
        <ele>819</ele>
        <time>2019-10-13T09:29:13.000Z</time>
      </trkpt>
      <trkpt lat="44.24163" lon="2.9844">
        <ele>819</ele>
        <time>2019-10-13T09:29:14.000Z</time>
      </trkpt>
      <trkpt lat="44.24164" lon="2.98438">
        <ele>819</ele>
        <time>2019-10-13T09:29:15.000Z</time>
      </trkpt>
      <trkpt lat="44.24166" lon="2.98437">
        <ele>819</ele>
        <time>2019-10-13T09:29:16.000Z</time>
      </trkpt>
      <trkpt lat="44.24167" lon="2.98436">
        <ele>819</ele>
        <time>2019-10-13T09:29:17.000Z</time>
      </trkpt>
      <trkpt lat="44.24168" lon="2.98434">
        <ele>819</ele>
        <time>2019-10-13T09:29:18.000Z</time>
      </trkpt>
      <trkpt lat="44.24169" lon="2.98433">
        <ele>819</ele>
        <time>2019-10-13T09:29:19.000Z</time>
      </trkpt>
      <trkpt lat="44.2417" lon="2.98432">
        <ele>819</ele>
        <time>2019-10-13T09:29:20.000Z</time>
      </trkpt>
      <trkpt lat="44.24171" lon="2.98431">
        <ele>819</ele>
        <time>2019-10-13T09:29:21.000Z</time>
      </trkpt>
      <trkpt lat="44.24172" lon="2.9843">
        <ele>819</ele>
        <time>2019-10-13T09:29:22.000Z</time>
      </trkpt>
      <trkpt lat="44.24173" lon="2.98429">
        <ele>819</ele>
        <time>2019-10-13T09:29:23.000Z</time>
      </trkpt>
      <trkpt lat="44.24174" lon="2.98428">
        <ele>819</ele>
        <time>2019-10-13T09:29:24.000Z</time>
      </trkpt>
      <trkpt lat="44.24175" lon="2.98426">
        <ele>819</ele>
        <time>2019-10-13T09:29:25.000Z</time>
      </trkpt>
      <trkpt lat="44.24176" lon="2.98425">
        <ele>819</ele>
        <time>2019-10-13T09:29:26.000Z</time>
      </trkpt>
      <trkpt lat="44.24176" lon="2.98424">
        <ele>819</ele>
        <time>2019-10-13T09:29:27.000Z</time>
      </trkpt>
      <trkpt lat="44.24177" lon="2.98423">
        <ele>819</ele>
        <time>2019-10-13T09:29:28.000Z</time>
      </trkpt>
      <trkpt lat="44.24179" lon="2.98422">
        <ele>819</ele>
        <time>2019-10-13T09:29:29.000Z</time>
      </trkpt>
      <trkpt lat="44.2418" lon="2.9842">
        <ele>819</ele>
        <time>2019-10-13T09:29:30.000Z</time>
      </trkpt>
      <trkpt lat="44.24181" lon="2.98419">
        <ele>819</ele>
        <time>2019-10-13T09:29:31.000Z</time>
      </trkpt>
      <trkpt lat="44.24182" lon="2.98418">
        <ele>819</ele>
        <time>2019-10-13T09:29:32.000Z</time>
      </trkpt>
      <trkpt lat="44.24184" lon="2.98417">
        <ele>819</ele>
        <time>2019-10-13T09:29:33.000Z</time>
      </trkpt>
      <trkpt lat="44.24185" lon="2.98416">
        <ele>819</ele>
        <time>2019-10-13T09:29:34.000Z</time>
      </trkpt>
      <trkpt lat="44.24186" lon="2.98415">
        <ele>819</ele>
        <time>2019-10-13T09:29:35.000Z</time>
      </trkpt>
      <trkpt lat="44.24187" lon="2.98414">
        <ele>819</ele>
        <time>2019-10-13T09:29:36.000Z</time>
      </trkpt>
      <trkpt lat="44.24189" lon="2.98413">
        <ele>819</ele>
        <time>2019-10-13T09:29:37.000Z</time>
      </trkpt>
      <trkpt lat="44.2419" lon="2.98412">
        <ele>819</ele>
        <time>2019-10-13T09:29:38.000Z</time>
      </trkpt>
      <trkpt lat="44.24191" lon="2.98412">
        <ele>819</ele>
        <time>2019-10-13T09:29:39.000Z</time>
      </trkpt>
      <trkpt lat="44.24192" lon="2.98411">
        <ele>819</ele>
        <time>2019-10-13T09:29:40.000Z</time>
      </trkpt>
      <trkpt lat="44.24193" lon="2.98411">
        <ele>819</ele>
        <time>2019-10-13T09:29:41.000Z</time>
      </trkpt>
      <trkpt lat="44.24194" lon="2.9841">
        <ele>819</ele>
        <time>2019-10-13T09:29:42.000Z</time>
      </trkpt>
      <trkpt lat="44.24196" lon="2.9841">
        <ele>819</ele>
        <time>2019-10-13T09:29:43.000Z</time>
      </trkpt>
      <trkpt lat="44.24197" lon="2.98409">
        <ele>819</ele>
        <time>2019-10-13T09:29:44.000Z</time>
      </trkpt>
      <trkpt lat="44.24199" lon="2.98408">
        <ele>819</ele>
        <time>2019-10-13T09:29:45.000Z</time>
      </trkpt>
      <trkpt lat="44.242" lon="2.98407">
        <ele>819</ele>
        <time>2019-10-13T09:29:46.000Z</time>
      </trkpt>
      <trkpt lat="44.24201" lon="2.98407">
        <ele>819</ele>
        <time>2019-10-13T09:29:47.000Z</time>
      </trkpt>
      <trkpt lat="44.24203" lon="2.98406">
        <ele>819</ele>
        <time>2019-10-13T09:29:48.000Z</time>
      </trkpt>
      <trkpt lat="44.24204" lon="2.98404">
        <ele>819</ele>
        <time>2019-10-13T09:29:49.000Z</time>
      </trkpt>
      <trkpt lat="44.24205" lon="2.98403">
        <ele>819</ele>
        <time>2019-10-13T09:29:50.000Z</time>
      </trkpt>
      <trkpt lat="44.24207" lon="2.98402">
        <ele>819</ele>
        <time>2019-10-13T09:29:51.000Z</time>
      </trkpt>
      <trkpt lat="44.24208" lon="2.98401">
        <ele>819</ele>
        <time>2019-10-13T09:29:52.000Z</time>
      </trkpt>
      <trkpt lat="44.2421" lon="2.98399">
        <ele>819</ele>
        <time>2019-10-13T09:29:53.000Z</time>
      </trkpt>
      <trkpt lat="44.24212" lon="2.98398">
        <ele>819</ele>
        <time>2019-10-13T09:29:54.000Z</time>
      </trkpt>
      <trkpt lat="44.24213" lon="2.98397">
        <ele>819</ele>
        <time>2019-10-13T09:29:55.000Z</time>
      </trkpt>
      <trkpt lat="44.24214" lon="2.98396">
        <ele>819</ele>
        <time>2019-10-13T09:29:56.000Z</time>
      </trkpt>
      <trkpt lat="44.24216" lon="2.98395">
        <ele>819</ele>
        <time>2019-10-13T09:29:57.000Z</time>
      </trkpt>
      <trkpt lat="44.24217" lon="2.98394">
        <ele>819</ele>
        <time>2019-10-13T09:29:58.000Z</time>
      </trkpt>
      <trkpt lat="44.24218" lon="2.98393">
        <ele>819</ele>
        <time>2019-10-13T09:29:59.000Z</time>
      </trkpt>
      <trkpt lat="44.2422" lon="2.98392">
        <ele>819</ele>
        <time>2019-10-13T09:30:00.000Z</time>
      </trkpt>
      <trkpt lat="44.24221" lon="2.9839">
        <ele>819</ele>
        <time>2019-10-13T09:30:01.000Z</time>
      </trkpt>
      <trkpt lat="44.24222" lon="2.98389">
        <ele>819</ele>
        <time>2019-10-13T09:30:02.000Z</time>
      </trkpt>
      <trkpt lat="44.24224" lon="2.98388">
        <ele>819</ele>
        <time>2019-10-13T09:30:03.000Z</time>
      </trkpt>
      <trkpt lat="44.24225" lon="2.98387">
        <ele>819</ele>
        <time>2019-10-13T09:30:04.000Z</time>
      </trkpt>
      <trkpt lat="44.24227" lon="2.98386">
        <ele>819</ele>
        <time>2019-10-13T09:30:05.000Z</time>
      </trkpt>
      <trkpt lat="44.24228" lon="2.98385">
        <ele>820</ele>
        <time>2019-10-13T09:30:06.000Z</time>
      </trkpt>
      <trkpt lat="44.24229" lon="2.98384">
        <ele>820</ele>
        <time>2019-10-13T09:30:07.000Z</time>
      </trkpt>
      <trkpt lat="44.24231" lon="2.98383">
        <ele>820</ele>
        <time>2019-10-13T09:30:08.000Z</time>
      </trkpt>
      <trkpt lat="44.24232" lon="2.98381">
        <ele>819</ele>
        <time>2019-10-13T09:30:09.000Z</time>
      </trkpt>
      <trkpt lat="44.24233" lon="2.9838">
        <ele>819</ele>
        <time>2019-10-13T09:30:10.000Z</time>
      </trkpt>
      <trkpt lat="44.24234" lon="2.98378">
        <ele>819</ele>
        <time>2019-10-13T09:30:11.000Z</time>
      </trkpt>
      <trkpt lat="44.24235" lon="2.98377">
        <ele>819</ele>
        <time>2019-10-13T09:30:12.000Z</time>
      </trkpt>
      <trkpt lat="44.24237" lon="2.98375">
        <ele>819</ele>
        <time>2019-10-13T09:30:13.000Z</time>
      </trkpt>
      <trkpt lat="44.24238" lon="2.98374">
        <ele>819</ele>
        <time>2019-10-13T09:30:14.000Z</time>
      </trkpt>
      <trkpt lat="44.24239" lon="2.98372">
        <ele>819</ele>
        <time>2019-10-13T09:30:15.000Z</time>
      </trkpt>
      <trkpt lat="44.24241" lon="2.98371">
        <ele>819</ele>
        <time>2019-10-13T09:30:16.000Z</time>
      </trkpt>
      <trkpt lat="44.24243" lon="2.9837">
        <ele>819</ele>
        <time>2019-10-13T09:30:17.000Z</time>
      </trkpt>
      <trkpt lat="44.24244" lon="2.98369">
        <ele>819</ele>
        <time>2019-10-13T09:30:18.000Z</time>
      </trkpt>
      <trkpt lat="44.24246" lon="2.98368">
        <ele>819</ele>
        <time>2019-10-13T09:30:19.000Z</time>
      </trkpt>
      <trkpt lat="44.24247" lon="2.98367">
        <ele>818</ele>
        <time>2019-10-13T09:30:20.000Z</time>
      </trkpt>
      <trkpt lat="44.24249" lon="2.98366">
        <ele>818</ele>
        <time>2019-10-13T09:30:21.000Z</time>
      </trkpt>
      <trkpt lat="44.2425" lon="2.98364">
        <ele>818</ele>
        <time>2019-10-13T09:30:22.000Z</time>
      </trkpt>
      <trkpt lat="44.24252" lon="2.98363">
        <ele>818</ele>
        <time>2019-10-13T09:30:23.000Z</time>
      </trkpt>
      <trkpt lat="44.24254" lon="2.98362">
        <ele>818</ele>
        <time>2019-10-13T09:30:24.000Z</time>
      </trkpt>
      <trkpt lat="44.24255" lon="2.98361">
        <ele>818</ele>
        <time>2019-10-13T09:30:25.000Z</time>
      </trkpt>
      <trkpt lat="44.24256" lon="2.9836">
        <ele>818</ele>
        <time>2019-10-13T09:30:26.000Z</time>
      </trkpt>
      <trkpt lat="44.24258" lon="2.98359">
        <ele>819</ele>
        <time>2019-10-13T09:30:27.000Z</time>
      </trkpt>
      <trkpt lat="44.24259" lon="2.98358">
        <ele>819</ele>
        <time>2019-10-13T09:30:28.000Z</time>
      </trkpt>
      <trkpt lat="44.24261" lon="2.98357">
        <ele>819</ele>
        <time>2019-10-13T09:30:29.000Z</time>
      </trkpt>
      <trkpt lat="44.24262" lon="2.98355">
        <ele>819</ele>
        <time>2019-10-13T09:30:30.000Z</time>
      </trkpt>
      <trkpt lat="44.24264" lon="2.98354">
        <ele>819</ele>
        <time>2019-10-13T09:30:31.000Z</time>
      </trkpt>
      <trkpt lat="44.24265" lon="2.98353">
        <ele>819</ele>
        <time>2019-10-13T09:30:32.000Z</time>
      </trkpt>
      <trkpt lat="44.24267" lon="2.98352">
        <ele>819</ele>
        <time>2019-10-13T09:30:33.000Z</time>
      </trkpt>
      <trkpt lat="44.24268" lon="2.9835">
        <ele>819</ele>
        <time>2019-10-13T09:30:34.000Z</time>
      </trkpt>
      <trkpt lat="44.2427" lon="2.98349">
        <ele>819</ele>
        <time>2019-10-13T09:30:35.000Z</time>
      </trkpt>
      <trkpt lat="44.24271" lon="2.98348">
        <ele>819</ele>
        <time>2019-10-13T09:30:36.000Z</time>
      </trkpt>
      <trkpt lat="44.24273" lon="2.98347">
        <ele>819</ele>
        <time>2019-10-13T09:30:37.000Z</time>
      </trkpt>
      <trkpt lat="44.24274" lon="2.98346">
        <ele>819</ele>
        <time>2019-10-13T09:30:38.000Z</time>
      </trkpt>
      <trkpt lat="44.24276" lon="2.98345">
        <ele>819</ele>
        <time>2019-10-13T09:30:39.000Z</time>
      </trkpt>
      <trkpt lat="44.24277" lon="2.98344">
        <ele>819</ele>
        <time>2019-10-13T09:30:40.000Z</time>
      </trkpt>
      <trkpt lat="44.24279" lon="2.98343">
        <ele>819</ele>
        <time>2019-10-13T09:30:41.000Z</time>
      </trkpt>
      <trkpt lat="44.2428" lon="2.98342">
        <ele>820</ele>
        <time>2019-10-13T09:30:42.000Z</time>
      </trkpt>
      <trkpt lat="44.24282" lon="2.98341">
        <ele>820</ele>
        <time>2019-10-13T09:30:43.000Z</time>
      </trkpt>
      <trkpt lat="44.24284" lon="2.9834">
        <ele>820</ele>
        <time>2019-10-13T09:30:44.000Z</time>
      </trkpt>
      <trkpt lat="44.24285" lon="2.98339">
        <ele>820</ele>
        <time>2019-10-13T09:30:45.000Z</time>
      </trkpt>
      <trkpt lat="44.24287" lon="2.98338">
        <ele>820</ele>
        <time>2019-10-13T09:30:46.000Z</time>
      </trkpt>
      <trkpt lat="44.24289" lon="2.98338">
        <ele>820</ele>
        <time>2019-10-13T09:30:47.000Z</time>
      </trkpt>
      <trkpt lat="44.2429" lon="2.98337">
        <ele>820</ele>
        <time>2019-10-13T09:30:48.000Z</time>
      </trkpt>
      <trkpt lat="44.24292" lon="2.98336">
        <ele>820</ele>
        <time>2019-10-13T09:30:49.000Z</time>
      </trkpt>
      <trkpt lat="44.24293" lon="2.98335">
        <ele>820</ele>
        <time>2019-10-13T09:30:50.000Z</time>
      </trkpt>
      <trkpt lat="44.24295" lon="2.98334">
        <ele>821</ele>
        <time>2019-10-13T09:30:51.000Z</time>
      </trkpt>
      <trkpt lat="44.24297" lon="2.98334">
        <ele>821</ele>
        <time>2019-10-13T09:30:52.000Z</time>
      </trkpt>
      <trkpt lat="44.24298" lon="2.98333">
        <ele>821</ele>
        <time>2019-10-13T09:30:53.000Z</time>
      </trkpt>
      <trkpt lat="44.243" lon="2.98333">
        <ele>821</ele>
        <time>2019-10-13T09:30:54.000Z</time>
      </trkpt>
      <trkpt lat="44.24302" lon="2.98332">
        <ele>821</ele>
        <time>2019-10-13T09:30:55.000Z</time>
      </trkpt>
      <trkpt lat="44.24303" lon="2.98332">
        <ele>821</ele>
        <time>2019-10-13T09:30:56.000Z</time>
      </trkpt>
      <trkpt lat="44.24305" lon="2.98331">
        <ele>821</ele>
        <time>2019-10-13T09:30:57.000Z</time>
      </trkpt>
      <trkpt lat="44.24306" lon="2.9833">
        <ele>821</ele>
        <time>2019-10-13T09:30:58.000Z</time>
      </trkpt>
      <trkpt lat="44.24308" lon="2.9833">
        <ele>821</ele>
        <time>2019-10-13T09:30:59.000Z</time>
      </trkpt>
      <trkpt lat="44.2431" lon="2.98329">
        <ele>822</ele>
        <time>2019-10-13T09:31:00.000Z</time>
      </trkpt>
      <trkpt lat="44.24311" lon="2.98329">
        <ele>822</ele>
        <time>2019-10-13T09:31:01.000Z</time>
      </trkpt>
      <trkpt lat="44.24313" lon="2.98328">
        <ele>822</ele>
        <time>2019-10-13T09:31:02.000Z</time>
      </trkpt>
      <trkpt lat="44.24315" lon="2.98328">
        <ele>822</ele>
        <time>2019-10-13T09:31:03.000Z</time>
      </trkpt>
      <trkpt lat="44.24316" lon="2.98327">
        <ele>822</ele>
        <time>2019-10-13T09:31:04.000Z</time>
      </trkpt>
      <trkpt lat="44.24318" lon="2.98327">
        <ele>822</ele>
        <time>2019-10-13T09:31:05.000Z</time>
      </trkpt>
      <trkpt lat="44.24319" lon="2.98326">
        <ele>822</ele>
        <time>2019-10-13T09:31:06.000Z</time>
      </trkpt>
      <trkpt lat="44.24321" lon="2.98325">
        <ele>822</ele>
        <time>2019-10-13T09:31:07.000Z</time>
      </trkpt>
      <trkpt lat="44.24323" lon="2.98324">
        <ele>822</ele>
        <time>2019-10-13T09:31:08.000Z</time>
      </trkpt>
      <trkpt lat="44.24324" lon="2.98324">
        <ele>822</ele>
        <time>2019-10-13T09:31:09.000Z</time>
      </trkpt>
      <trkpt lat="44.24326" lon="2.98323">
        <ele>822</ele>
        <time>2019-10-13T09:31:10.000Z</time>
      </trkpt>
      <trkpt lat="44.24328" lon="2.98322">
        <ele>822</ele>
        <time>2019-10-13T09:31:11.000Z</time>
      </trkpt>
      <trkpt lat="44.24329" lon="2.98322">
        <ele>822</ele>
        <time>2019-10-13T09:31:12.000Z</time>
      </trkpt>
      <trkpt lat="44.24331" lon="2.98321">
        <ele>823</ele>
        <time>2019-10-13T09:31:13.000Z</time>
      </trkpt>
      <trkpt lat="44.24333" lon="2.9832">
        <ele>823</ele>
        <time>2019-10-13T09:31:14.000Z</time>
      </trkpt>
      <trkpt lat="44.24335" lon="2.98319">
        <ele>823</ele>
        <time>2019-10-13T09:31:15.000Z</time>
      </trkpt>
      <trkpt lat="44.24337" lon="2.98318">
        <ele>823</ele>
        <time>2019-10-13T09:31:16.000Z</time>
      </trkpt>
      <trkpt lat="44.24339" lon="2.98317">
        <ele>823</ele>
        <time>2019-10-13T09:31:17.000Z</time>
      </trkpt>
      <trkpt lat="44.24341" lon="2.98316">
        <ele>823</ele>
        <time>2019-10-13T09:31:18.000Z</time>
      </trkpt>
      <trkpt lat="44.24343" lon="2.98316">
        <ele>823</ele>
        <time>2019-10-13T09:31:19.000Z</time>
      </trkpt>
      <trkpt lat="44.24344" lon="2.98315">
        <ele>823</ele>
        <time>2019-10-13T09:31:20.000Z</time>
      </trkpt>
      <trkpt lat="44.24346" lon="2.98314">
        <ele>823</ele>
        <time>2019-10-13T09:31:21.000Z</time>
      </trkpt>
      <trkpt lat="44.24348" lon="2.98313">
        <ele>823</ele>
        <time>2019-10-13T09:31:22.000Z</time>
      </trkpt>
      <trkpt lat="44.2435" lon="2.98312">
        <ele>823</ele>
        <time>2019-10-13T09:31:23.000Z</time>
      </trkpt>
      <trkpt lat="44.24351" lon="2.98312">
        <ele>823</ele>
        <time>2019-10-13T09:31:24.000Z</time>
      </trkpt>
      <trkpt lat="44.24353" lon="2.98312">
        <ele>823</ele>
        <time>2019-10-13T09:31:25.000Z</time>
      </trkpt>
      <trkpt lat="44.24355" lon="2.98311">
        <ele>823</ele>
        <time>2019-10-13T09:31:26.000Z</time>
      </trkpt>
      <trkpt lat="44.24357" lon="2.98311">
        <ele>823</ele>
        <time>2019-10-13T09:31:27.000Z</time>
      </trkpt>
      <trkpt lat="44.24358" lon="2.9831">
        <ele>824</ele>
        <time>2019-10-13T09:31:28.000Z</time>
      </trkpt>
      <trkpt lat="44.2436" lon="2.9831">
        <ele>824</ele>
        <time>2019-10-13T09:31:29.000Z</time>
      </trkpt>
      <trkpt lat="44.24361" lon="2.9831">
        <ele>824</ele>
        <time>2019-10-13T09:31:30.000Z</time>
      </trkpt>
      <trkpt lat="44.24363" lon="2.98309">
        <ele>824</ele>
        <time>2019-10-13T09:31:31.000Z</time>
      </trkpt>
      <trkpt lat="44.24365" lon="2.98308">
        <ele>824</ele>
        <time>2019-10-13T09:31:32.000Z</time>
      </trkpt>
      <trkpt lat="44.24366" lon="2.98308">
        <ele>824</ele>
        <time>2019-10-13T09:31:33.000Z</time>
      </trkpt>
      <trkpt lat="44.24368" lon="2.98308">
        <ele>824</ele>
        <time>2019-10-13T09:31:34.000Z</time>
      </trkpt>
      <trkpt lat="44.2437" lon="2.98307">
        <ele>824</ele>
        <time>2019-10-13T09:31:35.000Z</time>
      </trkpt>
      <trkpt lat="44.24372" lon="2.98307">
        <ele>824</ele>
        <time>2019-10-13T09:31:36.000Z</time>
      </trkpt>
      <trkpt lat="44.24373" lon="2.98306">
        <ele>824</ele>
        <time>2019-10-13T09:31:37.000Z</time>
      </trkpt>
      <trkpt lat="44.24375" lon="2.98306">
        <ele>824</ele>
        <time>2019-10-13T09:31:38.000Z</time>
      </trkpt>
      <trkpt lat="44.24377" lon="2.98306">
        <ele>824</ele>
        <time>2019-10-13T09:31:39.000Z</time>
      </trkpt>
      <trkpt lat="44.2438" lon="2.98306">
        <ele>824</ele>
        <time>2019-10-13T09:31:40.000Z</time>
      </trkpt>
      <trkpt lat="44.24383" lon="2.98306">
        <ele>824</ele>
        <time>2019-10-13T09:31:41.000Z</time>
      </trkpt>
      <trkpt lat="44.24386" lon="2.98306">
        <ele>824</ele>
        <time>2019-10-13T09:31:42.000Z</time>
      </trkpt>
      <trkpt lat="44.24388" lon="2.98305">
        <ele>824</ele>
        <time>2019-10-13T09:31:43.000Z</time>
      </trkpt>
      <trkpt lat="44.2439" lon="2.98305">
        <ele>825</ele>
        <time>2019-10-13T09:31:44.000Z</time>
      </trkpt>
      <trkpt lat="44.24392" lon="2.98305">
        <ele>825</ele>
        <time>2019-10-13T09:31:45.000Z</time>
      </trkpt>
      <trkpt lat="44.24394" lon="2.98305">
        <ele>825</ele>
        <time>2019-10-13T09:31:46.000Z</time>
      </trkpt>
      <trkpt lat="44.24397" lon="2.98305">
        <ele>825</ele>
        <time>2019-10-13T09:31:47.000Z</time>
      </trkpt>
      <trkpt lat="44.24398" lon="2.98305">
        <ele>825</ele>
        <time>2019-10-13T09:31:48.000Z</time>
      </trkpt>
      <trkpt lat="44.244" lon="2.98305">
        <ele>825</ele>
        <time>2019-10-13T09:31:49.000Z</time>
      </trkpt>
      <trkpt lat="44.24403" lon="2.98304">
        <ele>825</ele>
        <time>2019-10-13T09:31:50.000Z</time>
      </trkpt>
      <trkpt lat="44.24405" lon="2.98304">
        <ele>825</ele>
        <time>2019-10-13T09:31:51.000Z</time>
      </trkpt>
      <trkpt lat="44.24407" lon="2.98303">
        <ele>825</ele>
        <time>2019-10-13T09:31:52.000Z</time>
      </trkpt>
      <trkpt lat="44.24409" lon="2.98302">
        <ele>825</ele>
        <time>2019-10-13T09:31:53.000Z</time>
      </trkpt>
      <trkpt lat="44.24411" lon="2.98302">
        <ele>825</ele>
        <time>2019-10-13T09:31:54.000Z</time>
      </trkpt>
      <trkpt lat="44.24413" lon="2.98301">
        <ele>825</ele>
        <time>2019-10-13T09:31:55.000Z</time>
      </trkpt>
      <trkpt lat="44.24414" lon="2.98301">
        <ele>825</ele>
        <time>2019-10-13T09:31:56.000Z</time>
      </trkpt>
      <trkpt lat="44.24415" lon="2.98301">
        <ele>825</ele>
        <time>2019-10-13T09:31:57.000Z</time>
      </trkpt>
      <trkpt lat="44.24416" lon="2.983">
        <ele>825</ele>
        <time>2019-10-13T09:31:58.000Z</time>
      </trkpt>
      <trkpt lat="44.24418" lon="2.983">
        <ele>825</ele>
        <time>2019-10-13T09:31:59.000Z</time>
      </trkpt>
      <trkpt lat="44.24419" lon="2.98299">
        <ele>825</ele>
        <time>2019-10-13T09:32:00.000Z</time>
      </trkpt>
      <trkpt lat="44.2442" lon="2.98299">
        <ele>825</ele>
        <time>2019-10-13T09:32:01.000Z</time>
      </trkpt>
      <trkpt lat="44.24422" lon="2.98298">
        <ele>825</ele>
        <time>2019-10-13T09:32:02.000Z</time>
      </trkpt>
      <trkpt lat="44.24423" lon="2.98298">
        <ele>826</ele>
        <time>2019-10-13T09:32:03.000Z</time>
      </trkpt>
      <trkpt lat="44.24425" lon="2.98297">
        <ele>826</ele>
        <time>2019-10-13T09:32:04.000Z</time>
      </trkpt>
      <trkpt lat="44.24427" lon="2.98297">
        <ele>826</ele>
        <time>2019-10-13T09:32:05.000Z</time>
      </trkpt>
      <trkpt lat="44.24428" lon="2.98298">
        <ele>826</ele>
        <time>2019-10-13T09:32:06.000Z</time>
      </trkpt>
      <trkpt lat="44.2443" lon="2.98298">
        <ele>826</ele>
        <time>2019-10-13T09:32:07.000Z</time>
      </trkpt>
      <trkpt lat="44.24432" lon="2.98298">
        <ele>826</ele>
        <time>2019-10-13T09:32:08.000Z</time>
      </trkpt>
      <trkpt lat="44.24433" lon="2.98299">
        <ele>827</ele>
        <time>2019-10-13T09:32:09.000Z</time>
      </trkpt>
      <trkpt lat="44.24434" lon="2.98299">
        <ele>827</ele>
        <time>2019-10-13T09:32:10.000Z</time>
      </trkpt>
      <trkpt lat="44.24436" lon="2.98299">
        <ele>827</ele>
        <time>2019-10-13T09:32:11.000Z</time>
      </trkpt>
      <trkpt lat="44.24437" lon="2.98299">
        <ele>827</ele>
        <time>2019-10-13T09:32:12.000Z</time>
      </trkpt>
      <trkpt lat="44.24439" lon="2.98299">
        <ele>827</ele>
        <time>2019-10-13T09:32:13.000Z</time>
      </trkpt>
      <trkpt lat="44.2444" lon="2.983">
        <ele>827</ele>
        <time>2019-10-13T09:32:14.000Z</time>
      </trkpt>
      <trkpt lat="44.24442" lon="2.98299">
        <ele>827</ele>
        <time>2019-10-13T09:32:15.000Z</time>
      </trkpt>
      <trkpt lat="44.24443" lon="2.98299">
        <ele>828</ele>
        <time>2019-10-13T09:32:16.000Z</time>
      </trkpt>
      <trkpt lat="44.24445" lon="2.983">
        <ele>828</ele>
        <time>2019-10-13T09:32:17.000Z</time>
      </trkpt>
      <trkpt lat="44.24446" lon="2.98299">
        <ele>828</ele>
        <time>2019-10-13T09:32:18.000Z</time>
      </trkpt>
      <trkpt lat="44.24448" lon="2.98299">
        <ele>828</ele>
        <time>2019-10-13T09:32:19.000Z</time>
      </trkpt>
      <trkpt lat="44.24449" lon="2.98299">
        <ele>828</ele>
        <time>2019-10-13T09:32:20.000Z</time>
      </trkpt>
      <trkpt lat="44.24451" lon="2.98299">
        <ele>828</ele>
        <time>2019-10-13T09:32:21.000Z</time>
      </trkpt>
      <trkpt lat="44.24452" lon="2.98299">
        <ele>829</ele>
        <time>2019-10-13T09:32:22.000Z</time>
      </trkpt>
      <trkpt lat="44.24454" lon="2.98299">
        <ele>829</ele>
        <time>2019-10-13T09:32:23.000Z</time>
      </trkpt>
      <trkpt lat="44.24456" lon="2.983">
        <ele>829</ele>
        <time>2019-10-13T09:32:24.000Z</time>
      </trkpt>
      <trkpt lat="44.24457" lon="2.983">
        <ele>829</ele>
        <time>2019-10-13T09:32:25.000Z</time>
      </trkpt>
      <trkpt lat="44.24459" lon="2.983">
        <ele>829</ele>
        <time>2019-10-13T09:32:26.000Z</time>
      </trkpt>
      <trkpt lat="44.24461" lon="2.98301">
        <ele>830</ele>
        <time>2019-10-13T09:32:27.000Z</time>
      </trkpt>
      <trkpt lat="44.24462" lon="2.98301">
        <ele>830</ele>
        <time>2019-10-13T09:32:28.000Z</time>
      </trkpt>
      <trkpt lat="44.24464" lon="2.98301">
        <ele>830</ele>
        <time>2019-10-13T09:32:29.000Z</time>
      </trkpt>
      <trkpt lat="44.24465" lon="2.98301">
        <ele>830</ele>
        <time>2019-10-13T09:32:30.000Z</time>
      </trkpt>
      <trkpt lat="44.24467" lon="2.98301">
        <ele>830</ele>
        <time>2019-10-13T09:32:31.000Z</time>
      </trkpt>
      <trkpt lat="44.24468" lon="2.98301">
        <ele>830</ele>
        <time>2019-10-13T09:32:32.000Z</time>
      </trkpt>
      <trkpt lat="44.24469" lon="2.98302">
        <ele>831</ele>
        <time>2019-10-13T09:32:33.000Z</time>
      </trkpt>
      <trkpt lat="44.24471" lon="2.98302">
        <ele>831</ele>
        <time>2019-10-13T09:32:34.000Z</time>
      </trkpt>
      <trkpt lat="44.24473" lon="2.98302">
        <ele>831</ele>
        <time>2019-10-13T09:32:35.000Z</time>
      </trkpt>
      <trkpt lat="44.24474" lon="2.98303">
        <ele>831</ele>
        <time>2019-10-13T09:32:36.000Z</time>
      </trkpt>
      <trkpt lat="44.24476" lon="2.98303">
        <ele>831</ele>
        <time>2019-10-13T09:32:37.000Z</time>
      </trkpt>
      <trkpt lat="44.24477" lon="2.98304">
        <ele>831</ele>
        <time>2019-10-13T09:32:38.000Z</time>
      </trkpt>
      <trkpt lat="44.24479" lon="2.98304">
        <ele>832</ele>
        <time>2019-10-13T09:32:39.000Z</time>
      </trkpt>
      <trkpt lat="44.2448" lon="2.98305">
        <ele>832</ele>
        <time>2019-10-13T09:32:40.000Z</time>
      </trkpt>
      <trkpt lat="44.24482" lon="2.98305">
        <ele>832</ele>
        <time>2019-10-13T09:32:41.000Z</time>
      </trkpt>
      <trkpt lat="44.24484" lon="2.98306">
        <ele>832</ele>
        <time>2019-10-13T09:32:42.000Z</time>
      </trkpt>
      <trkpt lat="44.24485" lon="2.98307">
        <ele>832</ele>
        <time>2019-10-13T09:32:43.000Z</time>
      </trkpt>
      <trkpt lat="44.24487" lon="2.98307">
        <ele>833</ele>
        <time>2019-10-13T09:32:44.000Z</time>
      </trkpt>
      <trkpt lat="44.24488" lon="2.98308">
        <ele>833</ele>
        <time>2019-10-13T09:32:45.000Z</time>
      </trkpt>
      <trkpt lat="44.2449" lon="2.98309">
        <ele>833</ele>
        <time>2019-10-13T09:32:46.000Z</time>
      </trkpt>
      <trkpt lat="44.24492" lon="2.9831">
        <ele>833</ele>
        <time>2019-10-13T09:32:47.000Z</time>
      </trkpt>
      <trkpt lat="44.24494" lon="2.9831">
        <ele>833</ele>
        <time>2019-10-13T09:32:48.000Z</time>
      </trkpt>
      <trkpt lat="44.24495" lon="2.98311">
        <ele>833</ele>
        <time>2019-10-13T09:32:49.000Z</time>
      </trkpt>
      <trkpt lat="44.24497" lon="2.98311">
        <ele>833</ele>
        <time>2019-10-13T09:32:50.000Z</time>
      </trkpt>
      <trkpt lat="44.24499" lon="2.98312">
        <ele>833</ele>
        <time>2019-10-13T09:32:51.000Z</time>
      </trkpt>
      <trkpt lat="44.24501" lon="2.98312">
        <ele>833</ele>
        <time>2019-10-13T09:32:52.000Z</time>
      </trkpt>
      <trkpt lat="44.24503" lon="2.98313">
        <ele>834</ele>
        <time>2019-10-13T09:32:53.000Z</time>
      </trkpt>
      <trkpt lat="44.24504" lon="2.98313">
        <ele>834</ele>
        <time>2019-10-13T09:32:54.000Z</time>
      </trkpt>
      <trkpt lat="44.24506" lon="2.98313">
        <ele>834</ele>
        <time>2019-10-13T09:32:55.000Z</time>
      </trkpt>
      <trkpt lat="44.24507" lon="2.98314">
        <ele>834</ele>
        <time>2019-10-13T09:32:56.000Z</time>
      </trkpt>
      <trkpt lat="44.24509" lon="2.98314">
        <ele>834</ele>
        <time>2019-10-13T09:32:57.000Z</time>
      </trkpt>
      <trkpt lat="44.24511" lon="2.98315">
        <ele>834</ele>
        <time>2019-10-13T09:32:58.000Z</time>
      </trkpt>
      <trkpt lat="44.24513" lon="2.98316">
        <ele>834</ele>
        <time>2019-10-13T09:32:59.000Z</time>
      </trkpt>
      <trkpt lat="44.24514" lon="2.98317">
        <ele>835</ele>
        <time>2019-10-13T09:33:00.000Z</time>
      </trkpt>
      <trkpt lat="44.24516" lon="2.98317">
        <ele>835</ele>
        <time>2019-10-13T09:33:01.000Z</time>
      </trkpt>
      <trkpt lat="44.24517" lon="2.98317">
        <ele>835</ele>
        <time>2019-10-13T09:33:02.000Z</time>
      </trkpt>
      <trkpt lat="44.24518" lon="2.98318">
        <ele>835</ele>
        <time>2019-10-13T09:33:03.000Z</time>
      </trkpt>
      <trkpt lat="44.2452" lon="2.98318">
        <ele>835</ele>
        <time>2019-10-13T09:33:04.000Z</time>
      </trkpt>
      <trkpt lat="44.24522" lon="2.98318">
        <ele>836</ele>
        <time>2019-10-13T09:33:05.000Z</time>
      </trkpt>
      <trkpt lat="44.24523" lon="2.98318">
        <ele>836</ele>
        <time>2019-10-13T09:33:06.000Z</time>
      </trkpt>
      <trkpt lat="44.24525" lon="2.98318">
        <ele>836</ele>
        <time>2019-10-13T09:33:07.000Z</time>
      </trkpt>
      <trkpt lat="44.24526" lon="2.98318">
        <ele>836</ele>
        <time>2019-10-13T09:33:08.000Z</time>
      </trkpt>
      <trkpt lat="44.24527" lon="2.98319">
        <ele>836</ele>
        <time>2019-10-13T09:33:09.000Z</time>
      </trkpt>
      <trkpt lat="44.24529" lon="2.98318">
        <ele>836</ele>
        <time>2019-10-13T09:33:10.000Z</time>
      </trkpt>
      <trkpt lat="44.2453" lon="2.98319">
        <ele>837</ele>
        <time>2019-10-13T09:33:11.000Z</time>
      </trkpt>
      <trkpt lat="44.24532" lon="2.98319">
        <ele>837</ele>
        <time>2019-10-13T09:33:12.000Z</time>
      </trkpt>
      <trkpt lat="44.24534" lon="2.98319">
        <ele>837</ele>
        <time>2019-10-13T09:33:13.000Z</time>
      </trkpt>
      <trkpt lat="44.24535" lon="2.98319">
        <ele>837</ele>
        <time>2019-10-13T09:33:14.000Z</time>
      </trkpt>
      <trkpt lat="44.24537" lon="2.98319">
        <ele>838</ele>
        <time>2019-10-13T09:33:15.000Z</time>
      </trkpt>
      <trkpt lat="44.24539" lon="2.9832">
        <ele>838</ele>
        <time>2019-10-13T09:33:16.000Z</time>
      </trkpt>
      <trkpt lat="44.24541" lon="2.9832">
        <ele>838</ele>
        <time>2019-10-13T09:33:17.000Z</time>
      </trkpt>
      <trkpt lat="44.24542" lon="2.9832">
        <ele>838</ele>
        <time>2019-10-13T09:33:18.000Z</time>
      </trkpt>
      <trkpt lat="44.24544" lon="2.98321">
        <ele>838</ele>
        <time>2019-10-13T09:33:19.000Z</time>
      </trkpt>
      <trkpt lat="44.24546" lon="2.98321">
        <ele>839</ele>
        <time>2019-10-13T09:33:20.000Z</time>
      </trkpt>
      <trkpt lat="44.24548" lon="2.98321">
        <ele>839</ele>
        <time>2019-10-13T09:33:21.000Z</time>
      </trkpt>
      <trkpt lat="44.2455" lon="2.98321">
        <ele>839</ele>
        <time>2019-10-13T09:33:22.000Z</time>
      </trkpt>
      <trkpt lat="44.24551" lon="2.98321">
        <ele>839</ele>
        <time>2019-10-13T09:33:23.000Z</time>
      </trkpt>
      <trkpt lat="44.24553" lon="2.98321">
        <ele>839</ele>
        <time>2019-10-13T09:33:24.000Z</time>
      </trkpt>
      <trkpt lat="44.24555" lon="2.98321">
        <ele>840</ele>
        <time>2019-10-13T09:33:25.000Z</time>
      </trkpt>
      <trkpt lat="44.24557" lon="2.98321">
        <ele>840</ele>
        <time>2019-10-13T09:33:26.000Z</time>
      </trkpt>
      <trkpt lat="44.24558" lon="2.98321">
        <ele>840</ele>
        <time>2019-10-13T09:33:27.000Z</time>
      </trkpt>
      <trkpt lat="44.2456" lon="2.9832">
        <ele>840</ele>
        <time>2019-10-13T09:33:28.000Z</time>
      </trkpt>
      <trkpt lat="44.24562" lon="2.9832">
        <ele>840</ele>
        <time>2019-10-13T09:33:29.000Z</time>
      </trkpt>
      <trkpt lat="44.24563" lon="2.98319">
        <ele>841</ele>
        <time>2019-10-13T09:33:30.000Z</time>
      </trkpt>
      <trkpt lat="44.24565" lon="2.98319">
        <ele>841</ele>
        <time>2019-10-13T09:33:31.000Z</time>
      </trkpt>
      <trkpt lat="44.24566" lon="2.98319">
        <ele>841</ele>
        <time>2019-10-13T09:33:32.000Z</time>
      </trkpt>
      <trkpt lat="44.24568" lon="2.98319">
        <ele>841</ele>
        <time>2019-10-13T09:33:33.000Z</time>
      </trkpt>
      <trkpt lat="44.2457" lon="2.98319">
        <ele>841</ele>
        <time>2019-10-13T09:33:34.000Z</time>
      </trkpt>
      <trkpt lat="44.24572" lon="2.98319">
        <ele>841</ele>
        <time>2019-10-13T09:33:35.000Z</time>
      </trkpt>
      <trkpt lat="44.24573" lon="2.98319">
        <ele>841</ele>
        <time>2019-10-13T09:33:36.000Z</time>
      </trkpt>
      <trkpt lat="44.24575" lon="2.98318">
        <ele>841</ele>
        <time>2019-10-13T09:33:37.000Z</time>
      </trkpt>
      <trkpt lat="44.24577" lon="2.98318">
        <ele>841</ele>
        <time>2019-10-13T09:33:38.000Z</time>
      </trkpt>
      <trkpt lat="44.24578" lon="2.98318">
        <ele>841</ele>
        <time>2019-10-13T09:33:39.000Z</time>
      </trkpt>
      <trkpt lat="44.2458" lon="2.98318">
        <ele>841</ele>
        <time>2019-10-13T09:33:40.000Z</time>
      </trkpt>
      <trkpt lat="44.24581" lon="2.98317">
        <ele>841</ele>
        <time>2019-10-13T09:33:41.000Z</time>
      </trkpt>
      <trkpt lat="44.24583" lon="2.98317">
        <ele>841</ele>
        <time>2019-10-13T09:33:42.000Z</time>
      </trkpt>
      <trkpt lat="44.24585" lon="2.98317">
        <ele>841</ele>
        <time>2019-10-13T09:33:43.000Z</time>
      </trkpt>
      <trkpt lat="44.24586" lon="2.98317">
        <ele>841</ele>
        <time>2019-10-13T09:33:44.000Z</time>
      </trkpt>
      <trkpt lat="44.24588" lon="2.98317">
        <ele>841</ele>
        <time>2019-10-13T09:33:45.000Z</time>
      </trkpt>
      <trkpt lat="44.2459" lon="2.98317">
        <ele>841</ele>
        <time>2019-10-13T09:33:46.000Z</time>
      </trkpt>
      <trkpt lat="44.24592" lon="2.98317">
        <ele>841</ele>
        <time>2019-10-13T09:33:47.000Z</time>
      </trkpt>
      <trkpt lat="44.24594" lon="2.98318">
        <ele>841</ele>
        <time>2019-10-13T09:33:48.000Z</time>
      </trkpt>
      <trkpt lat="44.24596" lon="2.98318">
        <ele>841</ele>
        <time>2019-10-13T09:33:49.000Z</time>
      </trkpt>
      <trkpt lat="44.24597" lon="2.98318">
        <ele>841</ele>
        <time>2019-10-13T09:33:50.000Z</time>
      </trkpt>
      <trkpt lat="44.24599" lon="2.98318">
        <ele>841</ele>
        <time>2019-10-13T09:33:51.000Z</time>
      </trkpt>
      <trkpt lat="44.24601" lon="2.98319">
        <ele>841</ele>
        <time>2019-10-13T09:33:52.000Z</time>
      </trkpt>
      <trkpt lat="44.24602" lon="2.98319">
        <ele>841</ele>
        <time>2019-10-13T09:33:53.000Z</time>
      </trkpt>
      <trkpt lat="44.24604" lon="2.98319">
        <ele>841</ele>
        <time>2019-10-13T09:33:54.000Z</time>
      </trkpt>
      <trkpt lat="44.24606" lon="2.98319">
        <ele>841</ele>
        <time>2019-10-13T09:33:55.000Z</time>
      </trkpt>
      <trkpt lat="44.24608" lon="2.98319">
        <ele>841</ele>
        <time>2019-10-13T09:33:56.000Z</time>
      </trkpt>
      <trkpt lat="44.24609" lon="2.9832">
        <ele>841</ele>
        <time>2019-10-13T09:33:57.000Z</time>
      </trkpt>
      <trkpt lat="44.24611" lon="2.98319">
        <ele>842</ele>
        <time>2019-10-13T09:33:58.000Z</time>
      </trkpt>
      <trkpt lat="44.24613" lon="2.98319">
        <ele>842</ele>
        <time>2019-10-13T09:33:59.000Z</time>
      </trkpt>
      <trkpt lat="44.24614" lon="2.98319">
        <ele>842</ele>
        <time>2019-10-13T09:34:00.000Z</time>
      </trkpt>
      <trkpt lat="44.24616" lon="2.98319">
        <ele>842</ele>
        <time>2019-10-13T09:34:01.000Z</time>
      </trkpt>
      <trkpt lat="44.24618" lon="2.98319">
        <ele>842</ele>
        <time>2019-10-13T09:34:02.000Z</time>
      </trkpt>
      <trkpt lat="44.2462" lon="2.98318">
        <ele>842</ele>
        <time>2019-10-13T09:34:03.000Z</time>
      </trkpt>
      <trkpt lat="44.24622" lon="2.98318">
        <ele>842</ele>
        <time>2019-10-13T09:34:04.000Z</time>
      </trkpt>
      <trkpt lat="44.24623" lon="2.98318">
        <ele>842</ele>
        <time>2019-10-13T09:34:05.000Z</time>
      </trkpt>
      <trkpt lat="44.24625" lon="2.98318">
        <ele>842</ele>
        <time>2019-10-13T09:34:06.000Z</time>
      </trkpt>
      <trkpt lat="44.24627" lon="2.98317">
        <ele>842</ele>
        <time>2019-10-13T09:34:07.000Z</time>
      </trkpt>
      <trkpt lat="44.24628" lon="2.98317">
        <ele>843</ele>
        <time>2019-10-13T09:34:08.000Z</time>
      </trkpt>
      <trkpt lat="44.2463" lon="2.98316">
        <ele>843</ele>
        <time>2019-10-13T09:34:09.000Z</time>
      </trkpt>
      <trkpt lat="44.24632" lon="2.98315">
        <ele>843</ele>
        <time>2019-10-13T09:34:10.000Z</time>
      </trkpt>
      <trkpt lat="44.24633" lon="2.98315">
        <ele>843</ele>
        <time>2019-10-13T09:34:11.000Z</time>
      </trkpt>
      <trkpt lat="44.24635" lon="2.98314">
        <ele>843</ele>
        <time>2019-10-13T09:34:12.000Z</time>
      </trkpt>
      <trkpt lat="44.24636" lon="2.98313">
        <ele>843</ele>
        <time>2019-10-13T09:34:13.000Z</time>
      </trkpt>
      <trkpt lat="44.24638" lon="2.98313">
        <ele>843</ele>
        <time>2019-10-13T09:34:14.000Z</time>
      </trkpt>
      <trkpt lat="44.24639" lon="2.98312">
        <ele>843</ele>
        <time>2019-10-13T09:34:15.000Z</time>
      </trkpt>
      <trkpt lat="44.24641" lon="2.98311">
        <ele>843</ele>
        <time>2019-10-13T09:34:16.000Z</time>
      </trkpt>
      <trkpt lat="44.24642" lon="2.98311">
        <ele>844</ele>
        <time>2019-10-13T09:34:17.000Z</time>
      </trkpt>
      <trkpt lat="44.24644" lon="2.9831">
        <ele>844</ele>
        <time>2019-10-13T09:34:18.000Z</time>
      </trkpt>
      <trkpt lat="44.24645" lon="2.9831">
        <ele>844</ele>
        <time>2019-10-13T09:34:19.000Z</time>
      </trkpt>
      <trkpt lat="44.24645" lon="2.9831">
        <ele>844</ele>
        <time>2019-10-13T09:34:20.000Z</time>
      </trkpt>
      <trkpt lat="44.24645" lon="2.98309">
        <ele>844</ele>
        <time>2019-10-13T09:34:21.000Z</time>
      </trkpt>
      <trkpt lat="44.24646" lon="2.98309">
        <ele>844</ele>
        <time>2019-10-13T09:34:22.000Z</time>
      </trkpt>
      <trkpt lat="44.24647" lon="2.98308">
        <ele>844</ele>
        <time>2019-10-13T09:34:23.000Z</time>
      </trkpt>
      <trkpt lat="44.24649" lon="2.98307">
        <ele>844</ele>
        <time>2019-10-13T09:34:24.000Z</time>
      </trkpt>
      <trkpt lat="44.2465" lon="2.98306">
        <ele>844</ele>
        <time>2019-10-13T09:34:25.000Z</time>
      </trkpt>
      <trkpt lat="44.24652" lon="2.98306">
        <ele>844</ele>
        <time>2019-10-13T09:34:26.000Z</time>
      </trkpt>
      <trkpt lat="44.24653" lon="2.98305">
        <ele>844</ele>
        <time>2019-10-13T09:34:27.000Z</time>
      </trkpt>
      <trkpt lat="44.24654" lon="2.98304">
        <ele>844</ele>
        <time>2019-10-13T09:34:28.000Z</time>
      </trkpt>
      <trkpt lat="44.24656" lon="2.98303">
        <ele>844</ele>
        <time>2019-10-13T09:34:29.000Z</time>
      </trkpt>
      <trkpt lat="44.24657" lon="2.98303">
        <ele>844</ele>
        <time>2019-10-13T09:34:30.000Z</time>
      </trkpt>
      <trkpt lat="44.24658" lon="2.98302">
        <ele>844</ele>
        <time>2019-10-13T09:34:31.000Z</time>
      </trkpt>
      <trkpt lat="44.24659" lon="2.98301">
        <ele>844</ele>
        <time>2019-10-13T09:34:32.000Z</time>
      </trkpt>
      <trkpt lat="44.2466" lon="2.983">
        <ele>844</ele>
        <time>2019-10-13T09:34:33.000Z</time>
      </trkpt>
      <trkpt lat="44.24661" lon="2.98299">
        <ele>844</ele>
        <time>2019-10-13T09:34:34.000Z</time>
      </trkpt>
      <trkpt lat="44.24662" lon="2.98298">
        <ele>844</ele>
        <time>2019-10-13T09:34:35.000Z</time>
      </trkpt>
      <trkpt lat="44.24663" lon="2.98297">
        <ele>843</ele>
        <time>2019-10-13T09:34:36.000Z</time>
      </trkpt>
      <trkpt lat="44.24664" lon="2.98295">
        <ele>843</ele>
        <time>2019-10-13T09:34:37.000Z</time>
      </trkpt>
      <trkpt lat="44.24665" lon="2.98294">
        <ele>843</ele>
        <time>2019-10-13T09:34:38.000Z</time>
      </trkpt>
      <trkpt lat="44.24666" lon="2.98292">
        <ele>843</ele>
        <time>2019-10-13T09:34:39.000Z</time>
      </trkpt>
      <trkpt lat="44.24666" lon="2.98291">
        <ele>843</ele>
        <time>2019-10-13T09:34:40.000Z</time>
      </trkpt>
      <trkpt lat="44.24667" lon="2.98289">
        <ele>842</ele>
        <time>2019-10-13T09:34:41.000Z</time>
      </trkpt>
      <trkpt lat="44.24668" lon="2.98288">
        <ele>842</ele>
        <time>2019-10-13T09:34:42.000Z</time>
      </trkpt>
      <trkpt lat="44.24669" lon="2.98286">
        <ele>842</ele>
        <time>2019-10-13T09:34:43.000Z</time>
      </trkpt>
      <trkpt lat="44.2467" lon="2.98284">
        <ele>842</ele>
        <time>2019-10-13T09:34:44.000Z</time>
      </trkpt>
      <trkpt lat="44.24671" lon="2.98283">
        <ele>842</ele>
        <time>2019-10-13T09:34:45.000Z</time>
      </trkpt>
      <trkpt lat="44.24672" lon="2.98281">
        <ele>842</ele>
        <time>2019-10-13T09:34:46.000Z</time>
      </trkpt>
      <trkpt lat="44.24673" lon="2.98279">
        <ele>842</ele>
        <time>2019-10-13T09:34:47.000Z</time>
      </trkpt>
      <trkpt lat="44.24674" lon="2.98277">
        <ele>842</ele>
        <time>2019-10-13T09:34:48.000Z</time>
      </trkpt>
      <trkpt lat="44.24675" lon="2.98275">
        <ele>842</ele>
        <time>2019-10-13T09:34:49.000Z</time>
      </trkpt>
      <trkpt lat="44.24676" lon="2.98274">
        <ele>842</ele>
        <time>2019-10-13T09:34:50.000Z</time>
      </trkpt>
      <trkpt lat="44.24677" lon="2.98272">
        <ele>842</ele>
        <time>2019-10-13T09:34:51.000Z</time>
      </trkpt>
      <trkpt lat="44.24678" lon="2.9827">
        <ele>842</ele>
        <time>2019-10-13T09:34:52.000Z</time>
      </trkpt>
      <trkpt lat="44.24679" lon="2.98268">
        <ele>841</ele>
        <time>2019-10-13T09:34:53.000Z</time>
      </trkpt>
      <trkpt lat="44.2468" lon="2.98266">
        <ele>841</ele>
        <time>2019-10-13T09:34:54.000Z</time>
      </trkpt>
      <trkpt lat="44.24681" lon="2.98264">
        <ele>841</ele>
        <time>2019-10-13T09:34:55.000Z</time>
      </trkpt>
      <trkpt lat="44.24682" lon="2.98262">
        <ele>841</ele>
        <time>2019-10-13T09:34:56.000Z</time>
      </trkpt>
      <trkpt lat="44.24683" lon="2.9826">
        <ele>841</ele>
        <time>2019-10-13T09:34:57.000Z</time>
      </trkpt>
      <trkpt lat="44.24684" lon="2.98258">
        <ele>841</ele>
        <time>2019-10-13T09:34:58.000Z</time>
      </trkpt>
      <trkpt lat="44.24685" lon="2.98256">
        <ele>841</ele>
        <time>2019-10-13T09:34:59.000Z</time>
      </trkpt>
      <trkpt lat="44.24686" lon="2.98254">
        <ele>841</ele>
        <time>2019-10-13T09:35:00.000Z</time>
      </trkpt>
      <trkpt lat="44.24687" lon="2.98252">
        <ele>841</ele>
        <time>2019-10-13T09:35:01.000Z</time>
      </trkpt>
      <trkpt lat="44.24688" lon="2.98251">
        <ele>841</ele>
        <time>2019-10-13T09:35:02.000Z</time>
      </trkpt>
      <trkpt lat="44.24689" lon="2.98249">
        <ele>841</ele>
        <time>2019-10-13T09:35:03.000Z</time>
      </trkpt>
      <trkpt lat="44.2469" lon="2.98247">
        <ele>841</ele>
        <time>2019-10-13T09:35:04.000Z</time>
      </trkpt>
      <trkpt lat="44.24691" lon="2.98245">
        <ele>841</ele>
        <time>2019-10-13T09:35:05.000Z</time>
      </trkpt>
      <trkpt lat="44.24692" lon="2.98243">
        <ele>841</ele>
        <time>2019-10-13T09:35:06.000Z</time>
      </trkpt>
      <trkpt lat="44.24693" lon="2.98241">
        <ele>841</ele>
        <time>2019-10-13T09:35:07.000Z</time>
      </trkpt>
      <trkpt lat="44.24694" lon="2.98239">
        <ele>841</ele>
        <time>2019-10-13T09:35:08.000Z</time>
      </trkpt>
      <trkpt lat="44.24695" lon="2.98237">
        <ele>841</ele>
        <time>2019-10-13T09:35:09.000Z</time>
      </trkpt>
      <trkpt lat="44.24696" lon="2.98235">
        <ele>841</ele>
        <time>2019-10-13T09:35:10.000Z</time>
      </trkpt>
      <trkpt lat="44.24697" lon="2.98233">
        <ele>841</ele>
        <time>2019-10-13T09:35:11.000Z</time>
      </trkpt>
      <trkpt lat="44.24698" lon="2.98231">
        <ele>841</ele>
        <time>2019-10-13T09:35:12.000Z</time>
      </trkpt>
      <trkpt lat="44.24699" lon="2.98229">
        <ele>841</ele>
        <time>2019-10-13T09:35:13.000Z</time>
      </trkpt>
      <trkpt lat="44.247" lon="2.98226">
        <ele>840</ele>
        <time>2019-10-13T09:35:14.000Z</time>
      </trkpt>
      <trkpt lat="44.24701" lon="2.98224">
        <ele>840</ele>
        <time>2019-10-13T09:35:15.000Z</time>
      </trkpt>
      <trkpt lat="44.24702" lon="2.98222">
        <ele>840</ele>
        <time>2019-10-13T09:35:16.000Z</time>
      </trkpt>
      <trkpt lat="44.24704" lon="2.9822">
        <ele>840</ele>
        <time>2019-10-13T09:35:17.000Z</time>
      </trkpt>
      <trkpt lat="44.24705" lon="2.98217">
        <ele>840</ele>
        <time>2019-10-13T09:35:18.000Z</time>
      </trkpt>
      <trkpt lat="44.24706" lon="2.98215">
        <ele>840</ele>
        <time>2019-10-13T09:35:19.000Z</time>
      </trkpt>
      <trkpt lat="44.24707" lon="2.98213">
        <ele>839</ele>
        <time>2019-10-13T09:35:20.000Z</time>
      </trkpt>
      <trkpt lat="44.24708" lon="2.98211">
        <ele>839</ele>
        <time>2019-10-13T09:35:21.000Z</time>
      </trkpt>
      <trkpt lat="44.2471" lon="2.98209">
        <ele>839</ele>
        <time>2019-10-13T09:35:22.000Z</time>
      </trkpt>
      <trkpt lat="44.24711" lon="2.98206">
        <ele>839</ele>
        <time>2019-10-13T09:35:23.000Z</time>
      </trkpt>
      <trkpt lat="44.24712" lon="2.98204">
        <ele>839</ele>
        <time>2019-10-13T09:35:24.000Z</time>
      </trkpt>
      <trkpt lat="44.24714" lon="2.98202">
        <ele>839</ele>
        <time>2019-10-13T09:35:25.000Z</time>
      </trkpt>
      <trkpt lat="44.24715" lon="2.98201">
        <ele>839</ele>
        <time>2019-10-13T09:35:26.000Z</time>
      </trkpt>
      <trkpt lat="44.24717" lon="2.98199">
        <ele>839</ele>
        <time>2019-10-13T09:35:27.000Z</time>
      </trkpt>
      <trkpt lat="44.24719" lon="2.98198">
        <ele>839</ele>
        <time>2019-10-13T09:35:28.000Z</time>
      </trkpt>
      <trkpt lat="44.2472" lon="2.98197">
        <ele>839</ele>
        <time>2019-10-13T09:35:29.000Z</time>
      </trkpt>
      <trkpt lat="44.24722" lon="2.98196">
        <ele>839</ele>
        <time>2019-10-13T09:35:30.000Z</time>
      </trkpt>
      <trkpt lat="44.24723" lon="2.98195">
        <ele>839</ele>
        <time>2019-10-13T09:35:31.000Z</time>
      </trkpt>
      <trkpt lat="44.24725" lon="2.98195">
        <ele>839</ele>
        <time>2019-10-13T09:35:32.000Z</time>
      </trkpt>
      <trkpt lat="44.24727" lon="2.98194">
        <ele>839</ele>
        <time>2019-10-13T09:35:33.000Z</time>
      </trkpt>
      <trkpt lat="44.24728" lon="2.98193">
        <ele>839</ele>
        <time>2019-10-13T09:35:34.000Z</time>
      </trkpt>
      <trkpt lat="44.2473" lon="2.98193">
        <ele>840</ele>
        <time>2019-10-13T09:35:35.000Z</time>
      </trkpt>
      <trkpt lat="44.24732" lon="2.98192">
        <ele>840</ele>
        <time>2019-10-13T09:35:36.000Z</time>
      </trkpt>
      <trkpt lat="44.24733" lon="2.98192">
        <ele>840</ele>
        <time>2019-10-13T09:35:37.000Z</time>
      </trkpt>
      <trkpt lat="44.24734" lon="2.98191">
        <ele>840</ele>
        <time>2019-10-13T09:35:38.000Z</time>
      </trkpt>
      <trkpt lat="44.24736" lon="2.98191">
        <ele>840</ele>
        <time>2019-10-13T09:35:39.000Z</time>
      </trkpt>
      <trkpt lat="44.24737" lon="2.9819">
        <ele>840</ele>
        <time>2019-10-13T09:35:40.000Z</time>
      </trkpt>
      <trkpt lat="44.24738" lon="2.9819">
        <ele>840</ele>
        <time>2019-10-13T09:35:41.000Z</time>
      </trkpt>
      <trkpt lat="44.24739" lon="2.98188">
        <ele>841</ele>
        <time>2019-10-13T09:35:42.000Z</time>
      </trkpt>
      <trkpt lat="44.24741" lon="2.98186">
        <ele>841</ele>
        <time>2019-10-13T09:35:43.000Z</time>
      </trkpt>
      <trkpt lat="44.24744" lon="2.98184">
        <ele>841</ele>
        <time>2019-10-13T09:35:44.000Z</time>
      </trkpt>
      <trkpt lat="44.24745" lon="2.98182">
        <ele>841</ele>
        <time>2019-10-13T09:35:45.000Z</time>
      </trkpt>
      <trkpt lat="44.24747" lon="2.98181">
        <ele>841</ele>
        <time>2019-10-13T09:35:46.000Z</time>
      </trkpt>
      <trkpt lat="44.24749" lon="2.98179">
        <ele>842</ele>
        <time>2019-10-13T09:35:47.000Z</time>
      </trkpt>
      <trkpt lat="44.24751" lon="2.98177">
        <ele>842</ele>
        <time>2019-10-13T09:35:48.000Z</time>
      </trkpt>
      <trkpt lat="44.24752" lon="2.98176">
        <ele>842</ele>
        <time>2019-10-13T09:35:49.000Z</time>
      </trkpt>
      <trkpt lat="44.24753" lon="2.98174">
        <ele>842</ele>
        <time>2019-10-13T09:35:50.000Z</time>
      </trkpt>
      <trkpt lat="44.24755" lon="2.98173">
        <ele>843</ele>
        <time>2019-10-13T09:35:51.000Z</time>
      </trkpt>
      <trkpt lat="44.24756" lon="2.98173">
        <ele>843</ele>
        <time>2019-10-13T09:35:52.000Z</time>
      </trkpt>
      <trkpt lat="44.24757" lon="2.98173">
        <ele>843</ele>
        <time>2019-10-13T09:35:53.000Z</time>
      </trkpt>
      <trkpt lat="44.24758" lon="2.98172">
        <ele>843</ele>
        <time>2019-10-13T09:35:54.000Z</time>
      </trkpt>
      <trkpt lat="44.24759" lon="2.98171">
        <ele>844</ele>
        <time>2019-10-13T09:35:55.000Z</time>
      </trkpt>
      <trkpt lat="44.2476" lon="2.9817">
        <ele>844</ele>
        <time>2019-10-13T09:35:56.000Z</time>
      </trkpt>
      <trkpt lat="44.24761" lon="2.98169">
        <ele>844</ele>
        <time>2019-10-13T09:35:57.000Z</time>
      </trkpt>
      <trkpt lat="44.24762" lon="2.98168">
        <ele>844</ele>
        <time>2019-10-13T09:35:58.000Z</time>
      </trkpt>
      <trkpt lat="44.24764" lon="2.98167">
        <ele>844</ele>
        <time>2019-10-13T09:35:59.000Z</time>
      </trkpt>
      <trkpt lat="44.24765" lon="2.98165">
        <ele>845</ele>
        <time>2019-10-13T09:36:00.000Z</time>
      </trkpt>
      <trkpt lat="44.24767" lon="2.98164">
        <ele>845</ele>
        <time>2019-10-13T09:36:01.000Z</time>
      </trkpt>
      <trkpt lat="44.24768" lon="2.98163">
        <ele>845</ele>
        <time>2019-10-13T09:36:02.000Z</time>
      </trkpt>
      <trkpt lat="44.24769" lon="2.98162">
        <ele>845</ele>
        <time>2019-10-13T09:36:03.000Z</time>
      </trkpt>
      <trkpt lat="44.2477" lon="2.98161">
        <ele>846</ele>
        <time>2019-10-13T09:36:04.000Z</time>
      </trkpt>
      <trkpt lat="44.24771" lon="2.9816">
        <ele>846</ele>
        <time>2019-10-13T09:36:05.000Z</time>
      </trkpt>
      <trkpt lat="44.24772" lon="2.98159">
        <ele>846</ele>
        <time>2019-10-13T09:36:06.000Z</time>
      </trkpt>
      <trkpt lat="44.24773" lon="2.98158">
        <ele>846</ele>
        <time>2019-10-13T09:36:07.000Z</time>
      </trkpt>
      <trkpt lat="44.24775" lon="2.98157">
        <ele>846</ele>
        <time>2019-10-13T09:36:08.000Z</time>
      </trkpt>
      <trkpt lat="44.24776" lon="2.98156">
        <ele>846</ele>
        <time>2019-10-13T09:36:09.000Z</time>
      </trkpt>
      <trkpt lat="44.24777" lon="2.98155">
        <ele>846</ele>
        <time>2019-10-13T09:36:10.000Z</time>
      </trkpt>
      <trkpt lat="44.24779" lon="2.98154">
        <ele>847</ele>
        <time>2019-10-13T09:36:11.000Z</time>
      </trkpt>
      <trkpt lat="44.24781" lon="2.98153">
        <ele>847</ele>
        <time>2019-10-13T09:36:12.000Z</time>
      </trkpt>
      <trkpt lat="44.24783" lon="2.98152">
        <ele>847</ele>
        <time>2019-10-13T09:36:13.000Z</time>
      </trkpt>
      <trkpt lat="44.24785" lon="2.98151">
        <ele>847</ele>
        <time>2019-10-13T09:36:14.000Z</time>
      </trkpt>
      <trkpt lat="44.24786" lon="2.9815">
        <ele>847</ele>
        <time>2019-10-13T09:36:15.000Z</time>
      </trkpt>
      <trkpt lat="44.24787" lon="2.9815">
        <ele>848</ele>
        <time>2019-10-13T09:36:16.000Z</time>
      </trkpt>
      <trkpt lat="44.24788" lon="2.9815">
        <ele>848</ele>
        <time>2019-10-13T09:36:17.000Z</time>
      </trkpt>
      <trkpt lat="44.2479" lon="2.98149">
        <ele>848</ele>
        <time>2019-10-13T09:36:18.000Z</time>
      </trkpt>
      <trkpt lat="44.24791" lon="2.98149">
        <ele>848</ele>
        <time>2019-10-13T09:36:19.000Z</time>
      </trkpt>
      <trkpt lat="44.24792" lon="2.98149">
        <ele>848</ele>
        <time>2019-10-13T09:36:20.000Z</time>
      </trkpt>
      <trkpt lat="44.24793" lon="2.98148">
        <ele>848</ele>
        <time>2019-10-13T09:36:21.000Z</time>
      </trkpt>
      <trkpt lat="44.24795" lon="2.98148">
        <ele>848</ele>
        <time>2019-10-13T09:36:22.000Z</time>
      </trkpt>
      <trkpt lat="44.24796" lon="2.98148">
        <ele>848</ele>
        <time>2019-10-13T09:36:23.000Z</time>
      </trkpt>
      <trkpt lat="44.24797" lon="2.98148">
        <ele>848</ele>
        <time>2019-10-13T09:36:24.000Z</time>
      </trkpt>
      <trkpt lat="44.24799" lon="2.98147">
        <ele>848</ele>
        <time>2019-10-13T09:36:25.000Z</time>
      </trkpt>
      <trkpt lat="44.248" lon="2.98146">
        <ele>848</ele>
        <time>2019-10-13T09:36:26.000Z</time>
      </trkpt>
      <trkpt lat="44.24801" lon="2.98145">
        <ele>848</ele>
        <time>2019-10-13T09:36:27.000Z</time>
      </trkpt>
      <trkpt lat="44.24803" lon="2.98145">
        <ele>849</ele>
        <time>2019-10-13T09:36:28.000Z</time>
      </trkpt>
      <trkpt lat="44.24804" lon="2.98144">
        <ele>849</ele>
        <time>2019-10-13T09:36:29.000Z</time>
      </trkpt>
      <trkpt lat="44.24806" lon="2.98143">
        <ele>849</ele>
        <time>2019-10-13T09:36:30.000Z</time>
      </trkpt>
      <trkpt lat="44.24807" lon="2.98143">
        <ele>849</ele>
        <time>2019-10-13T09:36:31.000Z</time>
      </trkpt>
      <trkpt lat="44.24809" lon="2.98142">
        <ele>849</ele>
        <time>2019-10-13T09:36:32.000Z</time>
      </trkpt>
      <trkpt lat="44.2481" lon="2.98141">
        <ele>850</ele>
        <time>2019-10-13T09:36:33.000Z</time>
      </trkpt>
      <trkpt lat="44.24811" lon="2.9814">
        <ele>850</ele>
        <time>2019-10-13T09:36:34.000Z</time>
      </trkpt>
      <trkpt lat="44.24813" lon="2.9814">
        <ele>850</ele>
        <time>2019-10-13T09:36:35.000Z</time>
      </trkpt>
      <trkpt lat="44.24815" lon="2.98138">
        <ele>850</ele>
        <time>2019-10-13T09:36:36.000Z</time>
      </trkpt>
      <trkpt lat="44.24817" lon="2.98136">
        <ele>851</ele>
        <time>2019-10-13T09:36:37.000Z</time>
      </trkpt>
      <trkpt lat="44.24819" lon="2.98135">
        <ele>851</ele>
        <time>2019-10-13T09:36:38.000Z</time>
      </trkpt>
      <trkpt lat="44.24822" lon="2.98133">
        <ele>851</ele>
        <time>2019-10-13T09:36:39.000Z</time>
      </trkpt>
      <trkpt lat="44.24823" lon="2.98132">
        <ele>852</ele>
        <time>2019-10-13T09:36:40.000Z</time>
      </trkpt>
      <trkpt lat="44.24825" lon="2.98131">
        <ele>852</ele>
        <time>2019-10-13T09:36:41.000Z</time>
      </trkpt>
      <trkpt lat="44.24826" lon="2.98131">
        <ele>852</ele>
        <time>2019-10-13T09:36:42.000Z</time>
      </trkpt>
      <trkpt lat="44.24828" lon="2.9813">
        <ele>852</ele>
        <time>2019-10-13T09:36:43.000Z</time>
      </trkpt>
      <trkpt lat="44.24829" lon="2.98129">
        <ele>853</ele>
        <time>2019-10-13T09:36:44.000Z</time>
      </trkpt>
      <trkpt lat="44.2483" lon="2.98129">
        <ele>853</ele>
        <time>2019-10-13T09:36:45.000Z</time>
      </trkpt>
      <trkpt lat="44.24832" lon="2.98128">
        <ele>853</ele>
        <time>2019-10-13T09:36:46.000Z</time>
      </trkpt>
      <trkpt lat="44.24833" lon="2.98128">
        <ele>854</ele>
        <time>2019-10-13T09:36:47.000Z</time>
      </trkpt>
      <trkpt lat="44.24834" lon="2.98127">
        <ele>854</ele>
        <time>2019-10-13T09:36:48.000Z</time>
      </trkpt>
      <trkpt lat="44.24835" lon="2.98126">
        <ele>854</ele>
        <time>2019-10-13T09:36:49.000Z</time>
      </trkpt>
      <trkpt lat="44.24836" lon="2.98125">
        <ele>854</ele>
        <time>2019-10-13T09:36:50.000Z</time>
      </trkpt>
      <trkpt lat="44.24838" lon="2.98124">
        <ele>855</ele>
        <time>2019-10-13T09:36:51.000Z</time>
      </trkpt>
      <trkpt lat="44.24839" lon="2.98124">
        <ele>855</ele>
        <time>2019-10-13T09:36:52.000Z</time>
      </trkpt>
      <trkpt lat="44.2484" lon="2.98123">
        <ele>855</ele>
        <time>2019-10-13T09:36:53.000Z</time>
      </trkpt>
      <trkpt lat="44.24841" lon="2.98122">
        <ele>855</ele>
        <time>2019-10-13T09:36:54.000Z</time>
      </trkpt>
      <trkpt lat="44.24842" lon="2.98121">
        <ele>856</ele>
        <time>2019-10-13T09:36:55.000Z</time>
      </trkpt>
      <trkpt lat="44.24844" lon="2.9812">
        <ele>856</ele>
        <time>2019-10-13T09:36:56.000Z</time>
      </trkpt>
      <trkpt lat="44.24845" lon="2.98119">
        <ele>856</ele>
        <time>2019-10-13T09:36:57.000Z</time>
      </trkpt>
      <trkpt lat="44.24847" lon="2.98118">
        <ele>857</ele>
        <time>2019-10-13T09:36:58.000Z</time>
      </trkpt>
      <trkpt lat="44.24848" lon="2.98117">
        <ele>857</ele>
        <time>2019-10-13T09:36:59.000Z</time>
      </trkpt>
      <trkpt lat="44.2485" lon="2.98116">
        <ele>857</ele>
        <time>2019-10-13T09:37:00.000Z</time>
      </trkpt>
      <trkpt lat="44.24851" lon="2.98116">
        <ele>857</ele>
        <time>2019-10-13T09:37:01.000Z</time>
      </trkpt>
      <trkpt lat="44.24853" lon="2.98115">
        <ele>858</ele>
        <time>2019-10-13T09:37:02.000Z</time>
      </trkpt>
      <trkpt lat="44.24854" lon="2.98114">
        <ele>858</ele>
        <time>2019-10-13T09:37:03.000Z</time>
      </trkpt>
      <trkpt lat="44.24855" lon="2.98113">
        <ele>858</ele>
        <time>2019-10-13T09:37:04.000Z</time>
      </trkpt>
      <trkpt lat="44.24856" lon="2.98112">
        <ele>858</ele>
        <time>2019-10-13T09:37:05.000Z</time>
      </trkpt>
      <trkpt lat="44.24857" lon="2.98111">
        <ele>858</ele>
        <time>2019-10-13T09:37:06.000Z</time>
      </trkpt>
      <trkpt lat="44.24858" lon="2.9811">
        <ele>859</ele>
        <time>2019-10-13T09:37:07.000Z</time>
      </trkpt>
      <trkpt lat="44.2486" lon="2.98109">
        <ele>859</ele>
        <time>2019-10-13T09:37:08.000Z</time>
      </trkpt>
      <trkpt lat="44.24861" lon="2.98107">
        <ele>859</ele>
        <time>2019-10-13T09:37:09.000Z</time>
      </trkpt>
      <trkpt lat="44.24862" lon="2.98107">
        <ele>859</ele>
        <time>2019-10-13T09:37:10.000Z</time>
      </trkpt>
      <trkpt lat="44.24863" lon="2.98106">
        <ele>859</ele>
        <time>2019-10-13T09:37:11.000Z</time>
      </trkpt>
      <trkpt lat="44.24865" lon="2.98105">
        <ele>859</ele>
        <time>2019-10-13T09:37:12.000Z</time>
      </trkpt>
      <trkpt lat="44.24867" lon="2.98104">
        <ele>860</ele>
        <time>2019-10-13T09:37:13.000Z</time>
      </trkpt>
      <trkpt lat="44.24869" lon="2.98103">
        <ele>860</ele>
        <time>2019-10-13T09:37:14.000Z</time>
      </trkpt>
      <trkpt lat="44.24872" lon="2.98101">
        <ele>860</ele>
        <time>2019-10-13T09:37:15.000Z</time>
      </trkpt>
      <trkpt lat="44.24874" lon="2.981">
        <ele>860</ele>
        <time>2019-10-13T09:37:16.000Z</time>
      </trkpt>
      <trkpt lat="44.24875" lon="2.98099">
        <ele>861</ele>
        <time>2019-10-13T09:37:17.000Z</time>
      </trkpt>
      <trkpt lat="44.24877" lon="2.98098">
        <ele>861</ele>
        <time>2019-10-13T09:37:18.000Z</time>
      </trkpt>
      <trkpt lat="44.24878" lon="2.98097">
        <ele>861</ele>
        <time>2019-10-13T09:37:19.000Z</time>
      </trkpt>
      <trkpt lat="44.24879" lon="2.98095">
        <ele>861</ele>
        <time>2019-10-13T09:37:20.000Z</time>
      </trkpt>
      <trkpt lat="44.2488" lon="2.98094">
        <ele>862</ele>
        <time>2019-10-13T09:37:21.000Z</time>
      </trkpt>
      <trkpt lat="44.24881" lon="2.98093">
        <ele>862</ele>
        <time>2019-10-13T09:37:22.000Z</time>
      </trkpt>
      <trkpt lat="44.24882" lon="2.98091">
        <ele>862</ele>
        <time>2019-10-13T09:37:23.000Z</time>
      </trkpt>
      <trkpt lat="44.24882" lon="2.9809">
        <ele>863</ele>
        <time>2019-10-13T09:37:24.000Z</time>
      </trkpt>
      <trkpt lat="44.24883" lon="2.98088">
        <ele>863</ele>
        <time>2019-10-13T09:37:25.000Z</time>
      </trkpt>
      <trkpt lat="44.24883" lon="2.98087">
        <ele>863</ele>
        <time>2019-10-13T09:37:26.000Z</time>
      </trkpt>
      <trkpt lat="44.24884" lon="2.98085">
        <ele>864</ele>
        <time>2019-10-13T09:37:27.000Z</time>
      </trkpt>
      <trkpt lat="44.24885" lon="2.98083">
        <ele>864</ele>
        <time>2019-10-13T09:37:28.000Z</time>
      </trkpt>
      <trkpt lat="44.24885" lon="2.98081">
        <ele>864</ele>
        <time>2019-10-13T09:37:29.000Z</time>
      </trkpt>
      <trkpt lat="44.24886" lon="2.98079">
        <ele>865</ele>
        <time>2019-10-13T09:37:30.000Z</time>
      </trkpt>
      <trkpt lat="44.24886" lon="2.98077">
        <ele>865</ele>
        <time>2019-10-13T09:37:31.000Z</time>
      </trkpt>
      <trkpt lat="44.24887" lon="2.98075">
        <ele>866</ele>
        <time>2019-10-13T09:37:32.000Z</time>
      </trkpt>
      <trkpt lat="44.24887" lon="2.98073">
        <ele>866</ele>
        <time>2019-10-13T09:37:33.000Z</time>
      </trkpt>
      <trkpt lat="44.24888" lon="2.98071">
        <ele>866</ele>
        <time>2019-10-13T09:37:34.000Z</time>
      </trkpt>
      <trkpt lat="44.24888" lon="2.98068">
        <ele>867</ele>
        <time>2019-10-13T09:37:35.000Z</time>
      </trkpt>
      <trkpt lat="44.24889" lon="2.98067">
        <ele>867</ele>
        <time>2019-10-13T09:37:36.000Z</time>
      </trkpt>
      <trkpt lat="44.24889" lon="2.98065">
        <ele>867</ele>
        <time>2019-10-13T09:37:37.000Z</time>
      </trkpt>
      <trkpt lat="44.24889" lon="2.98063">
        <ele>868</ele>
        <time>2019-10-13T09:37:38.000Z</time>
      </trkpt>
      <trkpt lat="44.2489" lon="2.9806">
        <ele>868</ele>
        <time>2019-10-13T09:37:39.000Z</time>
      </trkpt>
      <trkpt lat="44.2489" lon="2.98057">
        <ele>868</ele>
        <time>2019-10-13T09:37:40.000Z</time>
      </trkpt>
      <trkpt lat="44.2489" lon="2.98054">
        <ele>869</ele>
        <time>2019-10-13T09:37:41.000Z</time>
      </trkpt>
      <trkpt lat="44.24891" lon="2.98051">
        <ele>869</ele>
        <time>2019-10-13T09:37:42.000Z</time>
      </trkpt>
      <trkpt lat="44.24891" lon="2.98049">
        <ele>869</ele>
        <time>2019-10-13T09:37:43.000Z</time>
      </trkpt>
      <trkpt lat="44.24891" lon="2.98046">
        <ele>870</ele>
        <time>2019-10-13T09:37:44.000Z</time>
      </trkpt>
      <trkpt lat="44.24891" lon="2.98044">
        <ele>870</ele>
        <time>2019-10-13T09:37:45.000Z</time>
      </trkpt>
      <trkpt lat="44.24891" lon="2.98042">
        <ele>870</ele>
        <time>2019-10-13T09:37:46.000Z</time>
      </trkpt>
      <trkpt lat="44.24891" lon="2.9804">
        <ele>871</ele>
        <time>2019-10-13T09:37:47.000Z</time>
      </trkpt>
      <trkpt lat="44.24891" lon="2.98037">
        <ele>871</ele>
        <time>2019-10-13T09:37:48.000Z</time>
      </trkpt>
      <trkpt lat="44.24891" lon="2.98035">
        <ele>872</ele>
        <time>2019-10-13T09:37:49.000Z</time>
      </trkpt>
      <trkpt lat="44.24891" lon="2.98033">
        <ele>872</ele>
        <time>2019-10-13T09:37:50.000Z</time>
      </trkpt>
      <trkpt lat="44.2489" lon="2.98031">
        <ele>873</ele>
        <time>2019-10-13T09:37:51.000Z</time>
      </trkpt>
      <trkpt lat="44.2489" lon="2.98029">
        <ele>873</ele>
        <time>2019-10-13T09:37:52.000Z</time>
      </trkpt>
      <trkpt lat="44.24889" lon="2.98027">
        <ele>873</ele>
        <time>2019-10-13T09:37:53.000Z</time>
      </trkpt>
      <trkpt lat="44.24888" lon="2.98025">
        <ele>874</ele>
        <time>2019-10-13T09:37:54.000Z</time>
      </trkpt>
      <trkpt lat="44.24888" lon="2.98023">
        <ele>874</ele>
        <time>2019-10-13T09:37:55.000Z</time>
      </trkpt>
      <trkpt lat="44.24887" lon="2.98021">
        <ele>875</ele>
        <time>2019-10-13T09:37:56.000Z</time>
      </trkpt>
      <trkpt lat="44.24887" lon="2.98019">
        <ele>875</ele>
        <time>2019-10-13T09:37:57.000Z</time>
      </trkpt>
      <trkpt lat="44.24886" lon="2.98017">
        <ele>875</ele>
        <time>2019-10-13T09:37:58.000Z</time>
      </trkpt>
      <trkpt lat="44.24886" lon="2.98015">
        <ele>875</ele>
        <time>2019-10-13T09:37:59.000Z</time>
      </trkpt>
      <trkpt lat="44.24885" lon="2.98013">
        <ele>876</ele>
        <time>2019-10-13T09:38:00.000Z</time>
      </trkpt>
      <trkpt lat="44.24885" lon="2.9801">
        <ele>876</ele>
        <time>2019-10-13T09:38:01.000Z</time>
      </trkpt>
      <trkpt lat="44.24884" lon="2.98008">
        <ele>876</ele>
        <time>2019-10-13T09:38:02.000Z</time>
      </trkpt>
      <trkpt lat="44.24884" lon="2.98006">
        <ele>877</ele>
        <time>2019-10-13T09:38:03.000Z</time>
      </trkpt>
      <trkpt lat="44.24883" lon="2.98004">
        <ele>877</ele>
        <time>2019-10-13T09:38:04.000Z</time>
      </trkpt>
      <trkpt lat="44.24883" lon="2.98001">
        <ele>877</ele>
        <time>2019-10-13T09:38:05.000Z</time>
      </trkpt>
      <trkpt lat="44.24883" lon="2.97999">
        <ele>877</ele>
        <time>2019-10-13T09:38:06.000Z</time>
      </trkpt>
      <trkpt lat="44.24883" lon="2.97997">
        <ele>877</ele>
        <time>2019-10-13T09:38:07.000Z</time>
      </trkpt>
      <trkpt lat="44.24882" lon="2.97994">
        <ele>877</ele>
        <time>2019-10-13T09:38:08.000Z</time>
      </trkpt>
      <trkpt lat="44.24882" lon="2.97992">
        <ele>878</ele>
        <time>2019-10-13T09:38:09.000Z</time>
      </trkpt>
      <trkpt lat="44.24882" lon="2.9799">
        <ele>878</ele>
        <time>2019-10-13T09:38:10.000Z</time>
      </trkpt>
      <trkpt lat="44.24882" lon="2.97988">
        <ele>878</ele>
        <time>2019-10-13T09:38:11.000Z</time>
      </trkpt>
      <trkpt lat="44.24883" lon="2.97986">
        <ele>878</ele>
        <time>2019-10-13T09:38:12.000Z</time>
      </trkpt>
      <trkpt lat="44.24883" lon="2.97984">
        <ele>879</ele>
        <time>2019-10-13T09:38:13.000Z</time>
      </trkpt>
      <trkpt lat="44.24883" lon="2.97982">
        <ele>879</ele>
        <time>2019-10-13T09:38:14.000Z</time>
      </trkpt>
      <trkpt lat="44.24884" lon="2.97981">
        <ele>879</ele>
        <time>2019-10-13T09:38:15.000Z</time>
      </trkpt>
      <trkpt lat="44.24885" lon="2.9798">
        <ele>879</ele>
        <time>2019-10-13T09:38:16.000Z</time>
      </trkpt>
      <trkpt lat="44.24885" lon="2.97978">
        <ele>879</ele>
        <time>2019-10-13T09:38:17.000Z</time>
      </trkpt>
      <trkpt lat="44.24887" lon="2.97977">
        <ele>880</ele>
        <time>2019-10-13T09:38:18.000Z</time>
      </trkpt>
      <trkpt lat="44.24888" lon="2.97976">
        <ele>880</ele>
        <time>2019-10-13T09:38:19.000Z</time>
      </trkpt>
      <trkpt lat="44.24889" lon="2.97975">
        <ele>880</ele>
        <time>2019-10-13T09:38:20.000Z</time>
      </trkpt>
      <trkpt lat="44.2489" lon="2.97974">
        <ele>880</ele>
        <time>2019-10-13T09:38:21.000Z</time>
      </trkpt>
      <trkpt lat="44.24891" lon="2.97972">
        <ele>881</ele>
        <time>2019-10-13T09:38:22.000Z</time>
      </trkpt>
      <trkpt lat="44.24892" lon="2.97971">
        <ele>881</ele>
        <time>2019-10-13T09:38:23.000Z</time>
      </trkpt>
      <trkpt lat="44.24893" lon="2.9797">
        <ele>881</ele>
        <time>2019-10-13T09:38:24.000Z</time>
      </trkpt>
      <trkpt lat="44.24894" lon="2.97969">
        <ele>881</ele>
        <time>2019-10-13T09:38:25.000Z</time>
      </trkpt>
      <trkpt lat="44.24895" lon="2.97968">
        <ele>881</ele>
        <time>2019-10-13T09:38:26.000Z</time>
      </trkpt>
      <trkpt lat="44.24896" lon="2.97967">
        <ele>881</ele>
        <time>2019-10-13T09:38:27.000Z</time>
      </trkpt>
      <trkpt lat="44.24898" lon="2.97966">
        <ele>881</ele>
        <time>2019-10-13T09:38:28.000Z</time>
      </trkpt>
      <trkpt lat="44.24899" lon="2.97965">
        <ele>881</ele>
        <time>2019-10-13T09:38:29.000Z</time>
      </trkpt>
      <trkpt lat="44.24901" lon="2.97964">
        <ele>882</ele>
        <time>2019-10-13T09:38:30.000Z</time>
      </trkpt>
      <trkpt lat="44.24902" lon="2.97962">
        <ele>882</ele>
        <time>2019-10-13T09:38:31.000Z</time>
      </trkpt>
      <trkpt lat="44.24903" lon="2.97961">
        <ele>882</ele>
        <time>2019-10-13T09:38:32.000Z</time>
      </trkpt>
      <trkpt lat="44.24904" lon="2.9796">
        <ele>882</ele>
        <time>2019-10-13T09:38:33.000Z</time>
      </trkpt>
      <trkpt lat="44.24906" lon="2.97959">
        <ele>882</ele>
        <time>2019-10-13T09:38:34.000Z</time>
      </trkpt>
      <trkpt lat="44.24907" lon="2.97957">
        <ele>882</ele>
        <time>2019-10-13T09:38:35.000Z</time>
      </trkpt>
      <trkpt lat="44.24909" lon="2.97956">
        <ele>883</ele>
        <time>2019-10-13T09:38:36.000Z</time>
      </trkpt>
      <trkpt lat="44.2491" lon="2.97954">
        <ele>883</ele>
        <time>2019-10-13T09:38:37.000Z</time>
      </trkpt>
      <trkpt lat="44.24912" lon="2.97953">
        <ele>883</ele>
        <time>2019-10-13T09:38:38.000Z</time>
      </trkpt>
      <trkpt lat="44.24913" lon="2.97952">
        <ele>883</ele>
        <time>2019-10-13T09:38:39.000Z</time>
      </trkpt>
      <trkpt lat="44.24915" lon="2.97951">
        <ele>883</ele>
        <time>2019-10-13T09:38:40.000Z</time>
      </trkpt>
      <trkpt lat="44.24916" lon="2.9795">
        <ele>883</ele>
        <time>2019-10-13T09:38:41.000Z</time>
      </trkpt>
      <trkpt lat="44.24918" lon="2.97948">
        <ele>883</ele>
        <time>2019-10-13T09:38:42.000Z</time>
      </trkpt>
      <trkpt lat="44.24919" lon="2.97947">
        <ele>883</ele>
        <time>2019-10-13T09:38:43.000Z</time>
      </trkpt>
      <trkpt lat="44.2492" lon="2.97945">
        <ele>883</ele>
        <time>2019-10-13T09:38:44.000Z</time>
      </trkpt>
      <trkpt lat="44.24921" lon="2.97943">
        <ele>883</ele>
        <time>2019-10-13T09:38:45.000Z</time>
      </trkpt>
      <trkpt lat="44.24922" lon="2.97941">
        <ele>883</ele>
        <time>2019-10-13T09:38:46.000Z</time>
      </trkpt>
      <trkpt lat="44.24923" lon="2.97939">
        <ele>884</ele>
        <time>2019-10-13T09:38:47.000Z</time>
      </trkpt>
      <trkpt lat="44.24923" lon="2.97937">
        <ele>884</ele>
        <time>2019-10-13T09:38:48.000Z</time>
      </trkpt>
      <trkpt lat="44.24923" lon="2.97935">
        <ele>884</ele>
        <time>2019-10-13T09:38:49.000Z</time>
      </trkpt>
      <trkpt lat="44.24923" lon="2.97933">
        <ele>884</ele>
        <time>2019-10-13T09:38:50.000Z</time>
      </trkpt>
      <trkpt lat="44.24923" lon="2.97931">
        <ele>884</ele>
        <time>2019-10-13T09:38:51.000Z</time>
      </trkpt>
      <trkpt lat="44.24923" lon="2.97929">
        <ele>884</ele>
        <time>2019-10-13T09:38:52.000Z</time>
      </trkpt>
      <trkpt lat="44.24922" lon="2.97926">
        <ele>884</ele>
        <time>2019-10-13T09:38:53.000Z</time>
      </trkpt>
      <trkpt lat="44.24922" lon="2.97924">
        <ele>884</ele>
        <time>2019-10-13T09:38:54.000Z</time>
      </trkpt>
      <trkpt lat="44.24921" lon="2.97922">
        <ele>884</ele>
        <time>2019-10-13T09:38:55.000Z</time>
      </trkpt>
      <trkpt lat="44.24921" lon="2.9792">
        <ele>885</ele>
        <time>2019-10-13T09:38:56.000Z</time>
      </trkpt>
      <trkpt lat="44.2492" lon="2.97918">
        <ele>885</ele>
        <time>2019-10-13T09:38:57.000Z</time>
      </trkpt>
      <trkpt lat="44.24919" lon="2.97916">
        <ele>885</ele>
        <time>2019-10-13T09:38:58.000Z</time>
      </trkpt>
      <trkpt lat="44.24919" lon="2.97914">
        <ele>885</ele>
        <time>2019-10-13T09:38:59.000Z</time>
      </trkpt>
      <trkpt lat="44.24918" lon="2.97911">
        <ele>885</ele>
        <time>2019-10-13T09:39:00.000Z</time>
      </trkpt>
      <trkpt lat="44.24918" lon="2.97909">
        <ele>885</ele>
        <time>2019-10-13T09:39:01.000Z</time>
      </trkpt>
      <trkpt lat="44.24918" lon="2.97907">
        <ele>885</ele>
        <time>2019-10-13T09:39:02.000Z</time>
      </trkpt>
      <trkpt lat="44.24918" lon="2.97904">
        <ele>885</ele>
        <time>2019-10-13T09:39:03.000Z</time>
      </trkpt>
      <trkpt lat="44.24917" lon="2.97902">
        <ele>885</ele>
        <time>2019-10-13T09:39:04.000Z</time>
      </trkpt>
      <trkpt lat="44.24917" lon="2.979">
        <ele>885</ele>
        <time>2019-10-13T09:39:05.000Z</time>
      </trkpt>
      <trkpt lat="44.24917" lon="2.97897">
        <ele>886</ele>
        <time>2019-10-13T09:39:06.000Z</time>
      </trkpt>
      <trkpt lat="44.24917" lon="2.97895">
        <ele>886</ele>
        <time>2019-10-13T09:39:07.000Z</time>
      </trkpt>
      <trkpt lat="44.24917" lon="2.97893">
        <ele>886</ele>
        <time>2019-10-13T09:39:08.000Z</time>
      </trkpt>
      <trkpt lat="44.24917" lon="2.97891">
        <ele>886</ele>
        <time>2019-10-13T09:39:09.000Z</time>
      </trkpt>
      <trkpt lat="44.24917" lon="2.97888">
        <ele>886</ele>
        <time>2019-10-13T09:39:10.000Z</time>
      </trkpt>
      <trkpt lat="44.24918" lon="2.97886">
        <ele>886</ele>
        <time>2019-10-13T09:39:11.000Z</time>
      </trkpt>
      <trkpt lat="44.24918" lon="2.97884">
        <ele>886</ele>
        <time>2019-10-13T09:39:12.000Z</time>
      </trkpt>
      <trkpt lat="44.24918" lon="2.97882">
        <ele>886</ele>
        <time>2019-10-13T09:39:13.000Z</time>
      </trkpt>
      <trkpt lat="44.24918" lon="2.97879">
        <ele>886</ele>
        <time>2019-10-13T09:39:14.000Z</time>
      </trkpt>
      <trkpt lat="44.24918" lon="2.97877">
        <ele>886</ele>
        <time>2019-10-13T09:39:15.000Z</time>
      </trkpt>
      <trkpt lat="44.24918" lon="2.97875">
        <ele>887</ele>
        <time>2019-10-13T09:39:16.000Z</time>
      </trkpt>
      <trkpt lat="44.24919" lon="2.97873">
        <ele>887</ele>
        <time>2019-10-13T09:39:17.000Z</time>
      </trkpt>
      <trkpt lat="44.24919" lon="2.97871">
        <ele>887</ele>
        <time>2019-10-13T09:39:18.000Z</time>
      </trkpt>
      <trkpt lat="44.24919" lon="2.97869">
        <ele>887</ele>
        <time>2019-10-13T09:39:19.000Z</time>
      </trkpt>
      <trkpt lat="44.2492" lon="2.97867">
        <ele>887</ele>
        <time>2019-10-13T09:39:20.000Z</time>
      </trkpt>
      <trkpt lat="44.2492" lon="2.97865">
        <ele>887</ele>
        <time>2019-10-13T09:39:21.000Z</time>
      </trkpt>
      <trkpt lat="44.24921" lon="2.97863">
        <ele>887</ele>
        <time>2019-10-13T09:39:22.000Z</time>
      </trkpt>
      <trkpt lat="44.24921" lon="2.97861">
        <ele>887</ele>
        <time>2019-10-13T09:39:23.000Z</time>
      </trkpt>
      <trkpt lat="44.24922" lon="2.97859">
        <ele>887</ele>
        <time>2019-10-13T09:39:24.000Z</time>
      </trkpt>
      <trkpt lat="44.24923" lon="2.97857">
        <ele>888</ele>
        <time>2019-10-13T09:39:25.000Z</time>
      </trkpt>
      <trkpt lat="44.24923" lon="2.97856">
        <ele>888</ele>
        <time>2019-10-13T09:39:26.000Z</time>
      </trkpt>
      <trkpt lat="44.24923" lon="2.97854">
        <ele>888</ele>
        <time>2019-10-13T09:39:27.000Z</time>
      </trkpt>
      <trkpt lat="44.24923" lon="2.97853">
        <ele>888</ele>
        <time>2019-10-13T09:39:28.000Z</time>
      </trkpt>
      <trkpt lat="44.24923" lon="2.97853">
        <ele>888</ele>
        <time>2019-10-13T09:39:29.000Z</time>
      </trkpt>
      <trkpt lat="44.24923" lon="2.97853">
        <ele>888</ele>
        <time>2019-10-13T09:39:30.000Z</time>
      </trkpt>
      <trkpt lat="44.24923" lon="2.97853">
        <ele>888</ele>
        <time>2019-10-13T09:39:31.000Z</time>
      </trkpt>
      <trkpt lat="44.24923" lon="2.97853">
        <ele>888</ele>
        <time>2019-10-13T09:39:32.000Z</time>
      </trkpt>
      <trkpt lat="44.24923" lon="2.97853">
        <ele>888</ele>
        <time>2019-10-13T09:39:33.000Z</time>
      </trkpt>
      <trkpt lat="44.24923" lon="2.97853">
        <ele>888</ele>
        <time>2019-10-13T09:39:34.000Z</time>
      </trkpt>
      <trkpt lat="44.24923" lon="2.97852">
        <ele>889</ele>
        <time>2019-10-13T09:39:35.000Z</time>
      </trkpt>
      <trkpt lat="44.24923" lon="2.97851">
        <ele>889</ele>
        <time>2019-10-13T09:39:36.000Z</time>
      </trkpt>
      <trkpt lat="44.24923" lon="2.97851">
        <ele>889</ele>
        <time>2019-10-13T09:39:37.000Z</time>
      </trkpt>
      <trkpt lat="44.24923" lon="2.97851">
        <ele>889</ele>
        <time>2019-10-13T09:39:38.000Z</time>
      </trkpt>
      <trkpt lat="44.24923" lon="2.97851">
        <ele>889</ele>
        <time>2019-10-13T09:39:39.000Z</time>
      </trkpt>
      <trkpt lat="44.24923" lon="2.9785">
        <ele>889</ele>
        <time>2019-10-13T09:39:40.000Z</time>
      </trkpt>
      <trkpt lat="44.24924" lon="2.97848">
        <ele>889</ele>
        <time>2019-10-13T09:39:41.000Z</time>
      </trkpt>
      <trkpt lat="44.24925" lon="2.97846">
        <ele>889</ele>
        <time>2019-10-13T09:39:42.000Z</time>
      </trkpt>
      <trkpt lat="44.24926" lon="2.97844">
        <ele>889</ele>
        <time>2019-10-13T09:39:43.000Z</time>
      </trkpt>
      <trkpt lat="44.24928" lon="2.97843">
        <ele>890</ele>
        <time>2019-10-13T09:39:44.000Z</time>
      </trkpt>
      <trkpt lat="44.24929" lon="2.97841">
        <ele>890</ele>
        <time>2019-10-13T09:39:45.000Z</time>
      </trkpt>
      <trkpt lat="44.2493" lon="2.97839">
        <ele>890</ele>
        <time>2019-10-13T09:39:46.000Z</time>
      </trkpt>
      <trkpt lat="44.24931" lon="2.97837">
        <ele>890</ele>
        <time>2019-10-13T09:39:47.000Z</time>
      </trkpt>
      <trkpt lat="44.24932" lon="2.97835">
        <ele>890</ele>
        <time>2019-10-13T09:39:48.000Z</time>
      </trkpt>
      <trkpt lat="44.24933" lon="2.97833">
        <ele>890</ele>
        <time>2019-10-13T09:39:49.000Z</time>
      </trkpt>
      <trkpt lat="44.24934" lon="2.97832">
        <ele>890</ele>
        <time>2019-10-13T09:39:50.000Z</time>
      </trkpt>
      <trkpt lat="44.24936" lon="2.9783">
        <ele>890</ele>
        <time>2019-10-13T09:39:51.000Z</time>
      </trkpt>
      <trkpt lat="44.24937" lon="2.97829">
        <ele>890</ele>
        <time>2019-10-13T09:39:52.000Z</time>
      </trkpt>
      <trkpt lat="44.24939" lon="2.97827">
        <ele>890</ele>
        <time>2019-10-13T09:39:53.000Z</time>
      </trkpt>
      <trkpt lat="44.2494" lon="2.97826">
        <ele>890</ele>
        <time>2019-10-13T09:39:54.000Z</time>
      </trkpt>
      <trkpt lat="44.24941" lon="2.97824">
        <ele>891</ele>
        <time>2019-10-13T09:39:55.000Z</time>
      </trkpt>
      <trkpt lat="44.24942" lon="2.97823">
        <ele>891</ele>
        <time>2019-10-13T09:39:56.000Z</time>
      </trkpt>
      <trkpt lat="44.24943" lon="2.97821">
        <ele>891</ele>
        <time>2019-10-13T09:39:57.000Z</time>
      </trkpt>
      <trkpt lat="44.24944" lon="2.9782">
        <ele>891</ele>
        <time>2019-10-13T09:39:58.000Z</time>
      </trkpt>
      <trkpt lat="44.24945" lon="2.97818">
        <ele>891</ele>
        <time>2019-10-13T09:39:59.000Z</time>
      </trkpt>
      <trkpt lat="44.24946" lon="2.97817">
        <ele>891</ele>
        <time>2019-10-13T09:40:00.000Z</time>
      </trkpt>
      <trkpt lat="44.24947" lon="2.97816">
        <ele>891</ele>
        <time>2019-10-13T09:40:01.000Z</time>
      </trkpt>
      <trkpt lat="44.24948" lon="2.97815">
        <ele>892</ele>
        <time>2019-10-13T09:40:02.000Z</time>
      </trkpt>
      <trkpt lat="44.24949" lon="2.97814">
        <ele>892</ele>
        <time>2019-10-13T09:40:03.000Z</time>
      </trkpt>
      <trkpt lat="44.2495" lon="2.97813">
        <ele>892</ele>
        <time>2019-10-13T09:40:04.000Z</time>
      </trkpt>
      <trkpt lat="44.24951" lon="2.97812">
        <ele>892</ele>
        <time>2019-10-13T09:40:05.000Z</time>
      </trkpt>
      <trkpt lat="44.24952" lon="2.9781">
        <ele>892</ele>
        <time>2019-10-13T09:40:06.000Z</time>
      </trkpt>
      <trkpt lat="44.24953" lon="2.97809">
        <ele>892</ele>
        <time>2019-10-13T09:40:07.000Z</time>
      </trkpt>
      <trkpt lat="44.24954" lon="2.97808">
        <ele>893</ele>
        <time>2019-10-13T09:40:08.000Z</time>
      </trkpt>
      <trkpt lat="44.24954" lon="2.97806">
        <ele>893</ele>
        <time>2019-10-13T09:40:09.000Z</time>
      </trkpt>
      <trkpt lat="44.24956" lon="2.97805">
        <ele>893</ele>
        <time>2019-10-13T09:40:10.000Z</time>
      </trkpt>
      <trkpt lat="44.24957" lon="2.97804">
        <ele>893</ele>
        <time>2019-10-13T09:40:11.000Z</time>
      </trkpt>
      <trkpt lat="44.24958" lon="2.97802">
        <ele>893</ele>
        <time>2019-10-13T09:40:12.000Z</time>
      </trkpt>
      <trkpt lat="44.24959" lon="2.97801">
        <ele>893</ele>
        <time>2019-10-13T09:40:13.000Z</time>
      </trkpt>
      <trkpt lat="44.2496" lon="2.978">
        <ele>893</ele>
        <time>2019-10-13T09:40:14.000Z</time>
      </trkpt>
      <trkpt lat="44.2496" lon="2.97799">
        <ele>893</ele>
        <time>2019-10-13T09:40:15.000Z</time>
      </trkpt>
      <trkpt lat="44.24961" lon="2.97799">
        <ele>893</ele>
        <time>2019-10-13T09:40:16.000Z</time>
      </trkpt>
      <trkpt lat="44.24961" lon="2.97798">
        <ele>893</ele>
        <time>2019-10-13T09:40:17.000Z</time>
      </trkpt>
      <trkpt lat="44.24962" lon="2.97798">
        <ele>893</ele>
        <time>2019-10-13T09:40:18.000Z</time>
      </trkpt>
      <trkpt lat="44.24962" lon="2.97798">
        <ele>893</ele>
        <time>2019-10-13T09:40:19.000Z</time>
      </trkpt>
      <trkpt lat="44.24962" lon="2.97798">
        <ele>893</ele>
        <time>2019-10-13T09:40:20.000Z</time>
      </trkpt>
      <trkpt lat="44.24962" lon="2.97798">
        <ele>893</ele>
        <time>2019-10-13T09:40:21.000Z</time>
      </trkpt>
      <trkpt lat="44.24962" lon="2.97797">
        <ele>893</ele>
        <time>2019-10-13T09:40:22.000Z</time>
      </trkpt>
      <trkpt lat="44.24962" lon="2.97797">
        <ele>893</ele>
        <time>2019-10-13T09:40:23.000Z</time>
      </trkpt>
      <trkpt lat="44.24962" lon="2.97797">
        <ele>893</ele>
        <time>2019-10-13T09:40:24.000Z</time>
      </trkpt>
      <trkpt lat="44.24962" lon="2.97798">
        <ele>893</ele>
        <time>2019-10-13T09:40:25.000Z</time>
      </trkpt>
      <trkpt lat="44.24962" lon="2.97798">
        <ele>893</ele>
        <time>2019-10-13T09:40:26.000Z</time>
      </trkpt>
      <trkpt lat="44.24962" lon="2.97798">
        <ele>893</ele>
        <time>2019-10-13T09:40:27.000Z</time>
      </trkpt>
      <trkpt lat="44.24963" lon="2.97798">
        <ele>893</ele>
        <time>2019-10-13T09:40:28.000Z</time>
      </trkpt>
      <trkpt lat="44.24963" lon="2.97798">
        <ele>893</ele>
        <time>2019-10-13T09:40:29.000Z</time>
      </trkpt>
      <trkpt lat="44.24963" lon="2.97797">
        <ele>893</ele>
        <time>2019-10-13T09:40:30.000Z</time>
      </trkpt>
      <trkpt lat="44.24963" lon="2.97797">
        <ele>893</ele>
        <time>2019-10-13T09:40:31.000Z</time>
      </trkpt>
      <trkpt lat="44.24963" lon="2.97797">
        <ele>893</ele>
        <time>2019-10-13T09:40:32.000Z</time>
      </trkpt>
      <trkpt lat="44.24963" lon="2.97797">
        <ele>893</ele>
        <time>2019-10-13T09:40:33.000Z</time>
      </trkpt>
      <trkpt lat="44.24963" lon="2.97797">
        <ele>893</ele>
        <time>2019-10-13T09:40:34.000Z</time>
      </trkpt>
      <trkpt lat="44.24963" lon="2.97797">
        <ele>893</ele>
        <time>2019-10-13T09:40:35.000Z</time>
      </trkpt>
      <trkpt lat="44.24963" lon="2.97797">
        <ele>893</ele>
        <time>2019-10-13T09:40:36.000Z</time>
      </trkpt>
      <trkpt lat="44.24963" lon="2.97797">
        <ele>893</ele>
        <time>2019-10-13T09:40:37.000Z</time>
      </trkpt>
      <trkpt lat="44.24963" lon="2.97796">
        <ele>893</ele>
        <time>2019-10-13T09:40:38.000Z</time>
      </trkpt>
      <trkpt lat="44.24963" lon="2.97796">
        <ele>893</ele>
        <time>2019-10-13T09:40:39.000Z</time>
      </trkpt>
      <trkpt lat="44.24963" lon="2.97797">
        <ele>893</ele>
        <time>2019-10-13T09:40:40.000Z</time>
      </trkpt>
      <trkpt lat="44.24963" lon="2.97797">
        <ele>893</ele>
        <time>2019-10-13T09:40:41.000Z</time>
      </trkpt>
      <trkpt lat="44.24964" lon="2.97797">
        <ele>893</ele>
        <time>2019-10-13T09:40:42.000Z</time>
      </trkpt>
      <trkpt lat="44.24964" lon="2.97797">
        <ele>893</ele>
        <time>2019-10-13T09:40:43.000Z</time>
      </trkpt>
      <trkpt lat="44.24964" lon="2.97796">
        <ele>893</ele>
        <time>2019-10-13T09:40:44.000Z</time>
      </trkpt>
      <trkpt lat="44.24964" lon="2.97796">
        <ele>893</ele>
        <time>2019-10-13T09:40:45.000Z</time>
      </trkpt>
      <trkpt lat="44.24964" lon="2.97796">
        <ele>893</ele>
        <time>2019-10-13T09:40:46.000Z</time>
      </trkpt>
      <trkpt lat="44.24964" lon="2.97796">
        <ele>893</ele>
        <time>2019-10-13T09:40:47.000Z</time>
      </trkpt>
      <trkpt lat="44.24964" lon="2.97796">
        <ele>893</ele>
        <time>2019-10-13T09:40:48.000Z</time>
      </trkpt>
      <trkpt lat="44.24964" lon="2.97796">
        <ele>893</ele>
        <time>2019-10-13T09:40:49.000Z</time>
      </trkpt>
      <trkpt lat="44.24964" lon="2.97796">
        <ele>893</ele>
        <time>2019-10-13T09:40:50.000Z</time>
      </trkpt>
      <trkpt lat="44.24964" lon="2.97796">
        <ele>893</ele>
        <time>2019-10-13T09:40:51.000Z</time>
      </trkpt>
      <trkpt lat="44.24964" lon="2.97796">
        <ele>893</ele>
        <time>2019-10-13T09:40:52.000Z</time>
      </trkpt>
      <trkpt lat="44.24964" lon="2.97796">
        <ele>893</ele>
        <time>2019-10-13T09:40:53.000Z</time>
      </trkpt>
      <trkpt lat="44.24964" lon="2.97796">
        <ele>893</ele>
        <time>2019-10-13T09:40:54.000Z</time>
      </trkpt>
      <trkpt lat="44.24964" lon="2.97796">
        <ele>893</ele>
        <time>2019-10-13T09:40:55.000Z</time>
      </trkpt>
      <trkpt lat="44.24964" lon="2.97796">
        <ele>893</ele>
        <time>2019-10-13T09:40:56.000Z</time>
      </trkpt>
      <trkpt lat="44.24964" lon="2.97796">
        <ele>893</ele>
        <time>2019-10-13T09:40:57.000Z</time>
      </trkpt>
      <trkpt lat="44.24964" lon="2.97796">
        <ele>893</ele>
        <time>2019-10-13T09:40:58.000Z</time>
      </trkpt>
      <trkpt lat="44.24964" lon="2.97796">
        <ele>893</ele>
        <time>2019-10-13T09:40:59.000Z</time>
      </trkpt>
      <trkpt lat="44.24964" lon="2.97796">
        <ele>893</ele>
        <time>2019-10-13T09:41:00.000Z</time>
      </trkpt>
      <trkpt lat="44.24964" lon="2.97796">
        <ele>893</ele>
        <time>2019-10-13T09:41:01.000Z</time>
      </trkpt>
      <trkpt lat="44.24964" lon="2.97796">
        <ele>893</ele>
        <time>2019-10-13T09:41:02.000Z</time>
      </trkpt>
      <trkpt lat="44.24964" lon="2.97796">
        <ele>893</ele>
        <time>2019-10-13T09:41:03.000Z</time>
      </trkpt>
      <trkpt lat="44.24964" lon="2.97796">
        <ele>893</ele>
        <time>2019-10-13T09:41:04.000Z</time>
      </trkpt>
      <trkpt lat="44.24964" lon="2.97796">
        <ele>893</ele>
        <time>2019-10-13T09:41:05.000Z</time>
      </trkpt>
      <trkpt lat="44.24964" lon="2.97796">
        <ele>893</ele>
        <time>2019-10-13T09:41:06.000Z</time>
      </trkpt>
      <trkpt lat="44.24964" lon="2.97795">
        <ele>893</ele>
        <time>2019-10-13T09:41:07.000Z</time>
      </trkpt>
      <trkpt lat="44.24964" lon="2.97795">
        <ele>893</ele>
        <time>2019-10-13T09:41:08.000Z</time>
      </trkpt>
      <trkpt lat="44.24964" lon="2.97795">
        <ele>893</ele>
        <time>2019-10-13T09:41:09.000Z</time>
      </trkpt>
      <trkpt lat="44.24964" lon="2.97795">
        <ele>893</ele>
        <time>2019-10-13T09:41:10.000Z</time>
      </trkpt>
      <trkpt lat="44.24964" lon="2.97795">
        <ele>893</ele>
        <time>2019-10-13T09:41:11.000Z</time>
      </trkpt>
      <trkpt lat="44.24964" lon="2.97795">
        <ele>893</ele>
        <time>2019-10-13T09:41:12.000Z</time>
      </trkpt>
      <trkpt lat="44.24964" lon="2.97795">
        <ele>893</ele>
        <time>2019-10-13T09:41:13.000Z</time>
      </trkpt>
      <trkpt lat="44.24964" lon="2.97795">
        <ele>893</ele>
        <time>2019-10-13T09:41:14.000Z</time>
      </trkpt>
      <trkpt lat="44.24964" lon="2.97795">
        <ele>893</ele>
        <time>2019-10-13T09:41:15.000Z</time>
      </trkpt>
      <trkpt lat="44.24964" lon="2.97795">
        <ele>893</ele>
        <time>2019-10-13T09:41:16.000Z</time>
      </trkpt>
      <trkpt lat="44.24964" lon="2.97795">
        <ele>893</ele>
        <time>2019-10-13T09:41:17.000Z</time>
      </trkpt>
      <trkpt lat="44.24964" lon="2.97795">
        <ele>893</ele>
        <time>2019-10-13T09:41:18.000Z</time>
      </trkpt>
      <trkpt lat="44.24964" lon="2.97796">
        <ele>893</ele>
        <time>2019-10-13T09:41:19.000Z</time>
      </trkpt>
      <trkpt lat="44.24964" lon="2.97796">
        <ele>893</ele>
        <time>2019-10-13T09:41:20.000Z</time>
      </trkpt>
      <trkpt lat="44.24964" lon="2.97796">
        <ele>893</ele>
        <time>2019-10-13T09:41:21.000Z</time>
      </trkpt>
      <trkpt lat="44.24964" lon="2.97796">
        <ele>893</ele>
        <time>2019-10-13T09:41:22.000Z</time>
      </trkpt>
      <trkpt lat="44.24964" lon="2.97796">
        <ele>893</ele>
        <time>2019-10-13T09:41:23.000Z</time>
      </trkpt>
      <trkpt lat="44.24964" lon="2.97796">
        <ele>893</ele>
        <time>2019-10-13T09:41:24.000Z</time>
      </trkpt>
      <trkpt lat="44.24964" lon="2.97796">
        <ele>893</ele>
        <time>2019-10-13T09:41:25.000Z</time>
      </trkpt>
      <trkpt lat="44.24964" lon="2.97796">
        <ele>893</ele>
        <time>2019-10-13T09:41:26.000Z</time>
      </trkpt>
      <trkpt lat="44.24964" lon="2.97795">
        <ele>893</ele>
        <time>2019-10-13T09:41:27.000Z</time>
      </trkpt>
      <trkpt lat="44.24964" lon="2.97795">
        <ele>893</ele>
        <time>2019-10-13T09:41:28.000Z</time>
      </trkpt>
      <trkpt lat="44.24964" lon="2.97795">
        <ele>893</ele>
        <time>2019-10-13T09:41:29.000Z</time>
      </trkpt>
      <trkpt lat="44.24964" lon="2.97795">
        <ele>893</ele>
        <time>2019-10-13T09:41:30.000Z</time>
      </trkpt>
      <trkpt lat="44.24964" lon="2.97795">
        <ele>893</ele>
        <time>2019-10-13T09:41:31.000Z</time>
      </trkpt>
      <trkpt lat="44.24964" lon="2.97795">
        <ele>893</ele>
        <time>2019-10-13T09:41:32.000Z</time>
      </trkpt>
      <trkpt lat="44.24964" lon="2.97795">
        <ele>893</ele>
        <time>2019-10-13T09:41:33.000Z</time>
      </trkpt>
      <trkpt lat="44.24964" lon="2.97795">
        <ele>893</ele>
        <time>2019-10-13T09:41:34.000Z</time>
      </trkpt>
      <trkpt lat="44.24964" lon="2.97795">
        <ele>893</ele>
        <time>2019-10-13T09:41:35.000Z</time>
      </trkpt>
      <trkpt lat="44.24964" lon="2.97795">
        <ele>893</ele>
        <time>2019-10-13T09:41:36.000Z</time>
      </trkpt>
      <trkpt lat="44.24964" lon="2.97795">
        <ele>893</ele>
        <time>2019-10-13T09:41:37.000Z</time>
      </trkpt>
      <trkpt lat="44.24964" lon="2.97795">
        <ele>893</ele>
        <time>2019-10-13T09:41:38.000Z</time>
      </trkpt>
      <trkpt lat="44.24964" lon="2.97795">
        <ele>893</ele>
        <time>2019-10-13T09:41:39.000Z</time>
      </trkpt>
      <trkpt lat="44.24964" lon="2.97795">
        <ele>893</ele>
        <time>2019-10-13T09:41:40.000Z</time>
      </trkpt>
      <trkpt lat="44.24964" lon="2.97795">
        <ele>893</ele>
        <time>2019-10-13T09:41:41.000Z</time>
      </trkpt>
      <trkpt lat="44.24964" lon="2.97795">
        <ele>893</ele>
        <time>2019-10-13T09:41:42.000Z</time>
      </trkpt>
      <trkpt lat="44.24964" lon="2.97795">
        <ele>893</ele>
        <time>2019-10-13T09:41:43.000Z</time>
      </trkpt>
      <trkpt lat="44.24964" lon="2.97795">
        <ele>893</ele>
        <time>2019-10-13T09:41:44.000Z</time>
      </trkpt>
      <trkpt lat="44.24964" lon="2.97795">
        <ele>893</ele>
        <time>2019-10-13T09:41:45.000Z</time>
      </trkpt>
      <trkpt lat="44.24964" lon="2.97795">
        <ele>893</ele>
        <time>2019-10-13T09:41:46.000Z</time>
      </trkpt>
      <trkpt lat="44.24964" lon="2.97795">
        <ele>893</ele>
        <time>2019-10-13T09:41:47.000Z</time>
      </trkpt>
      <trkpt lat="44.24964" lon="2.97796">
        <ele>893</ele>
        <time>2019-10-13T09:41:48.000Z</time>
      </trkpt>
      <trkpt lat="44.24964" lon="2.97796">
        <ele>893</ele>
        <time>2019-10-13T09:41:49.000Z</time>
      </trkpt>
      <trkpt lat="44.24964" lon="2.97796">
        <ele>893</ele>
        <time>2019-10-13T09:41:50.000Z</time>
      </trkpt>
      <trkpt lat="44.24964" lon="2.97796">
        <ele>893</ele>
        <time>2019-10-13T09:41:51.000Z</time>
      </trkpt>
      <trkpt lat="44.24964" lon="2.97796">
        <ele>893</ele>
        <time>2019-10-13T09:41:52.000Z</time>
      </trkpt>
      <trkpt lat="44.24964" lon="2.97796">
        <ele>893</ele>
        <time>2019-10-13T09:41:53.000Z</time>
      </trkpt>
      <trkpt lat="44.24964" lon="2.97796">
        <ele>893</ele>
        <time>2019-10-13T09:41:54.000Z</time>
      </trkpt>
      <trkpt lat="44.24964" lon="2.97796">
        <ele>893</ele>
        <time>2019-10-13T09:41:55.000Z</time>
      </trkpt>
      <trkpt lat="44.24964" lon="2.97796">
        <ele>893</ele>
        <time>2019-10-13T09:41:56.000Z</time>
      </trkpt>
      <trkpt lat="44.24964" lon="2.97796">
        <ele>893</ele>
        <time>2019-10-13T09:41:57.000Z</time>
      </trkpt>
      <trkpt lat="44.24964" lon="2.97796">
        <ele>893</ele>
        <time>2019-10-13T09:41:58.000Z</time>
      </trkpt>
      <trkpt lat="44.24964" lon="2.97796">
        <ele>893</ele>
        <time>2019-10-13T09:41:59.000Z</time>
      </trkpt>
      <trkpt lat="44.24964" lon="2.97796">
        <ele>893</ele>
        <time>2019-10-13T09:42:00.000Z</time>
      </trkpt>
      <trkpt lat="44.24964" lon="2.97796">
        <ele>893</ele>
        <time>2019-10-13T09:42:01.000Z</time>
      </trkpt>
      <trkpt lat="44.24964" lon="2.97796">
        <ele>893</ele>
        <time>2019-10-13T09:42:02.000Z</time>
      </trkpt>
      <trkpt lat="44.24964" lon="2.97796">
        <ele>893</ele>
        <time>2019-10-13T09:42:03.000Z</time>
      </trkpt>
      <trkpt lat="44.24964" lon="2.97796">
        <ele>893</ele>
        <time>2019-10-13T09:42:04.000Z</time>
      </trkpt>
      <trkpt lat="44.24964" lon="2.97796">
        <ele>893</ele>
        <time>2019-10-13T09:42:05.000Z</time>
      </trkpt>
      <trkpt lat="44.24964" lon="2.97796">
        <ele>893</ele>
        <time>2019-10-13T09:42:06.000Z</time>
      </trkpt>
      <trkpt lat="44.24964" lon="2.97796">
        <ele>893</ele>
        <time>2019-10-13T09:42:07.000Z</time>
      </trkpt>
      <trkpt lat="44.24964" lon="2.97796">
        <ele>893</ele>
        <time>2019-10-13T09:42:08.000Z</time>
      </trkpt>
      <trkpt lat="44.24964" lon="2.97796">
        <ele>893</ele>
        <time>2019-10-13T09:42:09.000Z</time>
      </trkpt>
      <trkpt lat="44.24964" lon="2.97795">
        <ele>893</ele>
        <time>2019-10-13T09:42:10.000Z</time>
      </trkpt>
      <trkpt lat="44.24964" lon="2.97795">
        <ele>893</ele>
        <time>2019-10-13T09:42:11.000Z</time>
      </trkpt>
      <trkpt lat="44.24964" lon="2.97795">
        <ele>893</ele>
        <time>2019-10-13T09:42:12.000Z</time>
      </trkpt>
      <trkpt lat="44.24964" lon="2.97795">
        <ele>893</ele>
        <time>2019-10-13T09:42:13.000Z</time>
      </trkpt>
      <trkpt lat="44.24964" lon="2.97795">
        <ele>893</ele>
        <time>2019-10-13T09:42:14.000Z</time>
      </trkpt>
      <trkpt lat="44.24964" lon="2.97795">
        <ele>893</ele>
        <time>2019-10-13T09:42:15.000Z</time>
      </trkpt>
      <trkpt lat="44.24964" lon="2.97795">
        <ele>893</ele>
        <time>2019-10-13T09:42:16.000Z</time>
      </trkpt>
      <trkpt lat="44.24964" lon="2.97795">
        <ele>893</ele>
        <time>2019-10-13T09:42:17.000Z</time>
      </trkpt>
      <trkpt lat="44.24964" lon="2.97795">
        <ele>893</ele>
        <time>2019-10-13T09:42:18.000Z</time>
      </trkpt>
      <trkpt lat="44.24964" lon="2.97795">
        <ele>893</ele>
        <time>2019-10-13T09:42:19.000Z</time>
      </trkpt>
      <trkpt lat="44.24964" lon="2.97795">
        <ele>893</ele>
        <time>2019-10-13T09:42:20.000Z</time>
      </trkpt>
      <trkpt lat="44.24964" lon="2.97795">
        <ele>893</ele>
        <time>2019-10-13T09:42:21.000Z</time>
      </trkpt>
      <trkpt lat="44.24964" lon="2.97795">
        <ele>893</ele>
        <time>2019-10-13T09:42:22.000Z</time>
      </trkpt>
      <trkpt lat="44.24964" lon="2.97795">
        <ele>893</ele>
        <time>2019-10-13T09:42:23.000Z</time>
      </trkpt>
      <trkpt lat="44.24964" lon="2.97795">
        <ele>893</ele>
        <time>2019-10-13T09:42:24.000Z</time>
      </trkpt>
      <trkpt lat="44.24964" lon="2.97795">
        <ele>893</ele>
        <time>2019-10-13T09:42:25.000Z</time>
      </trkpt>
      <trkpt lat="44.24964" lon="2.97795">
        <ele>893</ele>
        <time>2019-10-13T09:42:26.000Z</time>
      </trkpt>
      <trkpt lat="44.24964" lon="2.97795">
        <ele>893</ele>
        <time>2019-10-13T09:42:27.000Z</time>
      </trkpt>
      <trkpt lat="44.24964" lon="2.97795">
        <ele>893</ele>
        <time>2019-10-13T09:42:28.000Z</time>
      </trkpt>
      <trkpt lat="44.24964" lon="2.97795">
        <ele>893</ele>
        <time>2019-10-13T09:42:29.000Z</time>
      </trkpt>
      <trkpt lat="44.24964" lon="2.97795">
        <ele>893</ele>
        <time>2019-10-13T09:42:30.000Z</time>
      </trkpt>
      <trkpt lat="44.24964" lon="2.97795">
        <ele>893</ele>
        <time>2019-10-13T09:42:31.000Z</time>
      </trkpt>
      <trkpt lat="44.24964" lon="2.97795">
        <ele>893</ele>
        <time>2019-10-13T09:42:32.000Z</time>
      </trkpt>
      <trkpt lat="44.24964" lon="2.97795">
        <ele>893</ele>
        <time>2019-10-13T09:42:33.000Z</time>
      </trkpt>
      <trkpt lat="44.24964" lon="2.97795">
        <ele>893</ele>
        <time>2019-10-13T09:42:34.000Z</time>
      </trkpt>
      <trkpt lat="44.24964" lon="2.97795">
        <ele>893</ele>
        <time>2019-10-13T09:42:35.000Z</time>
      </trkpt>
      <trkpt lat="44.24964" lon="2.97795">
        <ele>893</ele>
        <time>2019-10-13T09:42:36.000Z</time>
      </trkpt>
      <trkpt lat="44.24964" lon="2.97795">
        <ele>893</ele>
        <time>2019-10-13T09:42:37.000Z</time>
      </trkpt>
      <trkpt lat="44.24963" lon="2.97795">
        <ele>893</ele>
        <time>2019-10-13T09:42:38.000Z</time>
      </trkpt>
      <trkpt lat="44.24963" lon="2.97795">
        <ele>893</ele>
        <time>2019-10-13T09:42:39.000Z</time>
      </trkpt>
      <trkpt lat="44.24963" lon="2.97795">
        <ele>893</ele>
        <time>2019-10-13T09:42:40.000Z</time>
      </trkpt>
      <trkpt lat="44.24963" lon="2.97795">
        <ele>893</ele>
        <time>2019-10-13T09:42:41.000Z</time>
      </trkpt>
      <trkpt lat="44.24963" lon="2.97795">
        <ele>893</ele>
        <time>2019-10-13T09:42:42.000Z</time>
      </trkpt>
      <trkpt lat="44.24963" lon="2.97795">
        <ele>893</ele>
        <time>2019-10-13T09:42:43.000Z</time>
      </trkpt>
      <trkpt lat="44.24963" lon="2.97795">
        <ele>893</ele>
        <time>2019-10-13T09:42:44.000Z</time>
      </trkpt>
      <trkpt lat="44.24963" lon="2.97795">
        <ele>893</ele>
        <time>2019-10-13T09:42:45.000Z</time>
      </trkpt>
      <trkpt lat="44.24963" lon="2.97795">
        <ele>893</ele>
        <time>2019-10-13T09:42:46.000Z</time>
      </trkpt>
      <trkpt lat="44.24963" lon="2.97795">
        <ele>893</ele>
        <time>2019-10-13T09:42:47.000Z</time>
      </trkpt>
      <trkpt lat="44.24963" lon="2.97795">
        <ele>893</ele>
        <time>2019-10-13T09:42:48.000Z</time>
      </trkpt>
      <trkpt lat="44.24963" lon="2.97795">
        <ele>893</ele>
        <time>2019-10-13T09:42:49.000Z</time>
      </trkpt>
      <trkpt lat="44.24963" lon="2.97795">
        <ele>893</ele>
        <time>2019-10-13T09:42:50.000Z</time>
      </trkpt>
      <trkpt lat="44.24963" lon="2.97795">
        <ele>893</ele>
        <time>2019-10-13T09:42:51.000Z</time>
      </trkpt>
      <trkpt lat="44.24963" lon="2.97795">
        <ele>893</ele>
        <time>2019-10-13T09:42:52.000Z</time>
      </trkpt>
      <trkpt lat="44.24963" lon="2.97795">
        <ele>893</ele>
        <time>2019-10-13T09:42:53.000Z</time>
      </trkpt>
      <trkpt lat="44.24963" lon="2.97795">
        <ele>893</ele>
        <time>2019-10-13T09:42:54.000Z</time>
      </trkpt>
      <trkpt lat="44.24963" lon="2.97795">
        <ele>893</ele>
        <time>2019-10-13T09:42:55.000Z</time>
      </trkpt>
      <trkpt lat="44.24963" lon="2.97795">
        <ele>893</ele>
        <time>2019-10-13T09:42:56.000Z</time>
      </trkpt>
      <trkpt lat="44.24963" lon="2.97795">
        <ele>893</ele>
        <time>2019-10-13T09:42:57.000Z</time>
      </trkpt>
      <trkpt lat="44.24963" lon="2.97795">
        <ele>893</ele>
        <time>2019-10-13T09:42:58.000Z</time>
      </trkpt>
      <trkpt lat="44.24963" lon="2.97795">
        <ele>893</ele>
        <time>2019-10-13T09:42:59.000Z</time>
      </trkpt>
      <trkpt lat="44.24963" lon="2.97795">
        <ele>893</ele>
        <time>2019-10-13T09:43:00.000Z</time>
      </trkpt>
      <trkpt lat="44.24963" lon="2.97795">
        <ele>893</ele>
        <time>2019-10-13T09:43:01.000Z</time>
      </trkpt>
      <trkpt lat="44.24963" lon="2.97795">
        <ele>893</ele>
        <time>2019-10-13T09:43:02.000Z</time>
      </trkpt>
      <trkpt lat="44.24963" lon="2.97795">
        <ele>893</ele>
        <time>2019-10-13T09:43:03.000Z</time>
      </trkpt>
      <trkpt lat="44.24963" lon="2.97795">
        <ele>893</ele>
        <time>2019-10-13T09:43:04.000Z</time>
      </trkpt>
      <trkpt lat="44.24963" lon="2.97795">
        <ele>893</ele>
        <time>2019-10-13T09:43:05.000Z</time>
      </trkpt>
      <trkpt lat="44.24963" lon="2.97795">
        <ele>893</ele>
        <time>2019-10-13T09:43:06.000Z</time>
      </trkpt>
      <trkpt lat="44.24963" lon="2.97795">
        <ele>893</ele>
        <time>2019-10-13T09:43:07.000Z</time>
      </trkpt>
      <trkpt lat="44.24963" lon="2.97795">
        <ele>893</ele>
        <time>2019-10-13T09:43:08.000Z</time>
      </trkpt>
      <trkpt lat="44.24963" lon="2.97795">
        <ele>893</ele>
        <time>2019-10-13T09:43:09.000Z</time>
      </trkpt>
      <trkpt lat="44.24963" lon="2.97795">
        <ele>893</ele>
        <time>2019-10-13T09:43:10.000Z</time>
      </trkpt>
      <trkpt lat="44.24963" lon="2.97795">
        <ele>893</ele>
        <time>2019-10-13T09:43:11.000Z</time>
      </trkpt>
      <trkpt lat="44.24963" lon="2.97795">
        <ele>893</ele>
        <time>2019-10-13T09:43:12.000Z</time>
      </trkpt>
      <trkpt lat="44.24963" lon="2.97795">
        <ele>893</ele>
        <time>2019-10-13T09:43:13.000Z</time>
      </trkpt>
      <trkpt lat="44.24963" lon="2.97795">
        <ele>893</ele>
        <time>2019-10-13T09:43:14.000Z</time>
      </trkpt>
      <trkpt lat="44.24963" lon="2.97795">
        <ele>893</ele>
        <time>2019-10-13T09:43:15.000Z</time>
      </trkpt>
      <trkpt lat="44.24963" lon="2.97795">
        <ele>893</ele>
        <time>2019-10-13T09:43:16.000Z</time>
      </trkpt>
      <trkpt lat="44.24963" lon="2.97795">
        <ele>893</ele>
        <time>2019-10-13T09:43:17.000Z</time>
      </trkpt>
      <trkpt lat="44.24963" lon="2.97795">
        <ele>893</ele>
        <time>2019-10-13T09:43:18.000Z</time>
      </trkpt>
      <trkpt lat="44.24963" lon="2.97795">
        <ele>893</ele>
        <time>2019-10-13T09:43:19.000Z</time>
      </trkpt>
      <trkpt lat="44.24963" lon="2.97795">
        <ele>893</ele>
        <time>2019-10-13T09:43:20.000Z</time>
      </trkpt>
      <trkpt lat="44.24963" lon="2.97795">
        <ele>893</ele>
        <time>2019-10-13T09:43:21.000Z</time>
      </trkpt>
      <trkpt lat="44.24963" lon="2.97795">
        <ele>893</ele>
        <time>2019-10-13T09:43:22.000Z</time>
      </trkpt>
      <trkpt lat="44.24964" lon="2.97795">
        <ele>893</ele>
        <time>2019-10-13T09:43:23.000Z</time>
      </trkpt>
      <trkpt lat="44.24964" lon="2.97795">
        <ele>893</ele>
        <time>2019-10-13T09:43:24.000Z</time>
      </trkpt>
      <trkpt lat="44.24964" lon="2.97795">
        <ele>893</ele>
        <time>2019-10-13T09:43:25.000Z</time>
      </trkpt>
      <trkpt lat="44.24964" lon="2.97795">
        <ele>893</ele>
        <time>2019-10-13T09:43:26.000Z</time>
      </trkpt>
      <trkpt lat="44.24964" lon="2.97795">
        <ele>893</ele>
        <time>2019-10-13T09:43:27.000Z</time>
      </trkpt>
      <trkpt lat="44.24964" lon="2.97795">
        <ele>893</ele>
        <time>2019-10-13T09:43:28.000Z</time>
      </trkpt>
      <trkpt lat="44.24964" lon="2.97795">
        <ele>893</ele>
        <time>2019-10-13T09:43:29.000Z</time>
      </trkpt>
      <trkpt lat="44.24964" lon="2.97795">
        <ele>893</ele>
        <time>2019-10-13T09:43:30.000Z</time>
      </trkpt>
      <trkpt lat="44.24964" lon="2.97795">
        <ele>893</ele>
        <time>2019-10-13T09:43:31.000Z</time>
      </trkpt>
      <trkpt lat="44.24964" lon="2.97795">
        <ele>893</ele>
        <time>2019-10-13T09:43:32.000Z</time>
      </trkpt>
      <trkpt lat="44.24964" lon="2.97795">
        <ele>893</ele>
        <time>2019-10-13T09:43:33.000Z</time>
      </trkpt>
      <trkpt lat="44.24964" lon="2.97795">
        <ele>893</ele>
        <time>2019-10-13T09:43:34.000Z</time>
      </trkpt>
      <trkpt lat="44.24964" lon="2.97795">
        <ele>893</ele>
        <time>2019-10-13T09:43:35.000Z</time>
      </trkpt>
      <trkpt lat="44.24964" lon="2.97795">
        <ele>893</ele>
        <time>2019-10-13T09:43:36.000Z</time>
      </trkpt>
      <trkpt lat="44.24964" lon="2.97795">
        <ele>893</ele>
        <time>2019-10-13T09:43:37.000Z</time>
      </trkpt>
      <trkpt lat="44.24964" lon="2.97795">
        <ele>893</ele>
        <time>2019-10-13T09:43:38.000Z</time>
      </trkpt>
      <trkpt lat="44.24964" lon="2.97795">
        <ele>893</ele>
        <time>2019-10-13T09:43:39.000Z</time>
      </trkpt>
      <trkpt lat="44.24964" lon="2.97795">
        <ele>893</ele>
        <time>2019-10-13T09:43:40.000Z</time>
      </trkpt>
      <trkpt lat="44.24963" lon="2.97795">
        <ele>893</ele>
        <time>2019-10-13T09:43:41.000Z</time>
      </trkpt>
      <trkpt lat="44.24963" lon="2.97795">
        <ele>893</ele>
        <time>2019-10-13T09:43:42.000Z</time>
      </trkpt>
      <trkpt lat="44.24963" lon="2.97795">
        <ele>893</ele>
        <time>2019-10-13T09:43:43.000Z</time>
      </trkpt>
      <trkpt lat="44.24963" lon="2.97795">
        <ele>893</ele>
        <time>2019-10-13T09:43:44.000Z</time>
      </trkpt>
      <trkpt lat="44.24963" lon="2.97795">
        <ele>893</ele>
        <time>2019-10-13T09:43:45.000Z</time>
      </trkpt>
      <trkpt lat="44.24963" lon="2.97795">
        <ele>893</ele>
        <time>2019-10-13T09:43:46.000Z</time>
      </trkpt>
      <trkpt lat="44.24963" lon="2.97795">
        <ele>893</ele>
        <time>2019-10-13T09:43:47.000Z</time>
      </trkpt>
      <trkpt lat="44.24963" lon="2.97795">
        <ele>893</ele>
        <time>2019-10-13T09:43:48.000Z</time>
      </trkpt>
      <trkpt lat="44.24963" lon="2.97795">
        <ele>893</ele>
        <time>2019-10-13T09:43:49.000Z</time>
      </trkpt>
      <trkpt lat="44.24963" lon="2.97795">
        <ele>893</ele>
        <time>2019-10-13T09:43:50.000Z</time>
      </trkpt>
      <trkpt lat="44.24963" lon="2.97795">
        <ele>893</ele>
        <time>2019-10-13T09:43:51.000Z</time>
      </trkpt>
      <trkpt lat="44.24963" lon="2.97795">
        <ele>893</ele>
        <time>2019-10-13T09:43:52.000Z</time>
      </trkpt>
      <trkpt lat="44.24963" lon="2.97795">
        <ele>893</ele>
        <time>2019-10-13T09:43:53.000Z</time>
      </trkpt>
      <trkpt lat="44.24963" lon="2.97795">
        <ele>893</ele>
        <time>2019-10-13T09:43:54.000Z</time>
      </trkpt>
      <trkpt lat="44.24963" lon="2.97795">
        <ele>893</ele>
        <time>2019-10-13T09:43:55.000Z</time>
      </trkpt>
      <trkpt lat="44.24963" lon="2.97795">
        <ele>893</ele>
        <time>2019-10-13T09:43:56.000Z</time>
      </trkpt>
      <trkpt lat="44.24963" lon="2.97795">
        <ele>893</ele>
        <time>2019-10-13T09:43:57.000Z</time>
      </trkpt>
      <trkpt lat="44.24963" lon="2.97795">
        <ele>893</ele>
        <time>2019-10-13T09:43:58.000Z</time>
      </trkpt>
      <trkpt lat="44.24963" lon="2.97795">
        <ele>893</ele>
        <time>2019-10-13T09:43:59.000Z</time>
      </trkpt>
      <trkpt lat="44.24963" lon="2.97795">
        <ele>893</ele>
        <time>2019-10-13T09:44:00.000Z</time>
      </trkpt>
      <trkpt lat="44.24963" lon="2.97795">
        <ele>893</ele>
        <time>2019-10-13T09:44:01.000Z</time>
      </trkpt>
      <trkpt lat="44.24963" lon="2.97795">
        <ele>893</ele>
        <time>2019-10-13T09:44:02.000Z</time>
      </trkpt>
      <trkpt lat="44.24963" lon="2.97795">
        <ele>893</ele>
        <time>2019-10-13T09:44:03.000Z</time>
      </trkpt>
      <trkpt lat="44.24963" lon="2.97795">
        <ele>893</ele>
        <time>2019-10-13T09:44:04.000Z</time>
      </trkpt>
      <trkpt lat="44.24963" lon="2.97795">
        <ele>893</ele>
        <time>2019-10-13T09:44:05.000Z</time>
      </trkpt>
      <trkpt lat="44.24963" lon="2.97795">
        <ele>893</ele>
        <time>2019-10-13T09:44:06.000Z</time>
      </trkpt>
      <trkpt lat="44.24963" lon="2.97795">
        <ele>893</ele>
        <time>2019-10-13T09:44:07.000Z</time>
      </trkpt>
      <trkpt lat="44.24963" lon="2.97795">
        <ele>893</ele>
        <time>2019-10-13T09:44:08.000Z</time>
      </trkpt>
      <trkpt lat="44.24963" lon="2.97795">
        <ele>893</ele>
        <time>2019-10-13T09:44:09.000Z</time>
      </trkpt>
      <trkpt lat="44.24963" lon="2.97795">
        <ele>893</ele>
        <time>2019-10-13T09:44:10.000Z</time>
      </trkpt>
      <trkpt lat="44.24963" lon="2.97795">
        <ele>893</ele>
        <time>2019-10-13T09:44:11.000Z</time>
      </trkpt>
      <trkpt lat="44.24963" lon="2.97795">
        <ele>893</ele>
        <time>2019-10-13T09:44:12.000Z</time>
      </trkpt>
      <trkpt lat="44.24963" lon="2.97795">
        <ele>893</ele>
        <time>2019-10-13T09:44:13.000Z</time>
      </trkpt>
      <trkpt lat="44.24963" lon="2.97795">
        <ele>893</ele>
        <time>2019-10-13T09:44:14.000Z</time>
      </trkpt>
      <trkpt lat="44.24963" lon="2.97795">
        <ele>893</ele>
        <time>2019-10-13T09:44:15.000Z</time>
      </trkpt>
      <trkpt lat="44.24963" lon="2.97795">
        <ele>893</ele>
        <time>2019-10-13T09:44:16.000Z</time>
      </trkpt>
      <trkpt lat="44.24963" lon="2.97795">
        <ele>893</ele>
        <time>2019-10-13T09:44:17.000Z</time>
      </trkpt>
      <trkpt lat="44.24963" lon="2.97795">
        <ele>893</ele>
        <time>2019-10-13T09:44:18.000Z</time>
      </trkpt>
      <trkpt lat="44.24963" lon="2.97795">
        <ele>893</ele>
        <time>2019-10-13T09:44:19.000Z</time>
      </trkpt>
      <trkpt lat="44.24963" lon="2.97795">
        <ele>893</ele>
        <time>2019-10-13T09:44:20.000Z</time>
      </trkpt>
      <trkpt lat="44.24963" lon="2.97795">
        <ele>893</ele>
        <time>2019-10-13T09:44:21.000Z</time>
      </trkpt>
      <trkpt lat="44.24963" lon="2.97795">
        <ele>893</ele>
        <time>2019-10-13T09:44:22.000Z</time>
      </trkpt>
      <trkpt lat="44.24963" lon="2.97795">
        <ele>893</ele>
        <time>2019-10-13T09:44:23.000Z</time>
      </trkpt>
      <trkpt lat="44.24963" lon="2.97795">
        <ele>893</ele>
        <time>2019-10-13T09:44:24.000Z</time>
      </trkpt>
      <trkpt lat="44.24963" lon="2.97795">
        <ele>893</ele>
        <time>2019-10-13T09:44:25.000Z</time>
      </trkpt>
      <trkpt lat="44.24963" lon="2.97795">
        <ele>893</ele>
        <time>2019-10-13T09:44:26.000Z</time>
      </trkpt>
      <trkpt lat="44.24963" lon="2.97795">
        <ele>893</ele>
        <time>2019-10-13T09:44:27.000Z</time>
      </trkpt>
      <trkpt lat="44.24963" lon="2.97795">
        <ele>893</ele>
        <time>2019-10-13T09:44:28.000Z</time>
      </trkpt>
      <trkpt lat="44.24963" lon="2.97795">
        <ele>893</ele>
        <time>2019-10-13T09:44:29.000Z</time>
      </trkpt>
      <trkpt lat="44.24963" lon="2.97795">
        <ele>893</ele>
        <time>2019-10-13T09:44:30.000Z</time>
      </trkpt>
      <trkpt lat="44.24963" lon="2.97795">
        <ele>893</ele>
        <time>2019-10-13T09:44:31.000Z</time>
      </trkpt>
      <trkpt lat="44.24963" lon="2.97795">
        <ele>893</ele>
        <time>2019-10-13T09:44:32.000Z</time>
      </trkpt>
      <trkpt lat="44.24963" lon="2.97795">
        <ele>893</ele>
        <time>2019-10-13T09:44:33.000Z</time>
      </trkpt>
      <trkpt lat="44.24963" lon="2.97795">
        <ele>893</ele>
        <time>2019-10-13T09:44:34.000Z</time>
      </trkpt>
      <trkpt lat="44.24963" lon="2.97795">
        <ele>893</ele>
        <time>2019-10-13T09:44:35.000Z</time>
      </trkpt>
      <trkpt lat="44.24963" lon="2.97795">
        <ele>893</ele>
        <time>2019-10-13T09:44:36.000Z</time>
      </trkpt>
      <trkpt lat="44.24963" lon="2.97795">
        <ele>893</ele>
        <time>2019-10-13T09:44:37.000Z</time>
      </trkpt>
      <trkpt lat="44.24963" lon="2.97795">
        <ele>893</ele>
        <time>2019-10-13T09:44:38.000Z</time>
      </trkpt>
      <trkpt lat="44.24963" lon="2.97795">
        <ele>893</ele>
        <time>2019-10-13T09:44:39.000Z</time>
      </trkpt>
      <trkpt lat="44.24963" lon="2.97795">
        <ele>893</ele>
        <time>2019-10-13T09:44:40.000Z</time>
      </trkpt>
      <trkpt lat="44.24963" lon="2.97795">
        <ele>893</ele>
        <time>2019-10-13T09:44:41.000Z</time>
      </trkpt>
      <trkpt lat="44.24963" lon="2.97795">
        <ele>893</ele>
        <time>2019-10-13T09:44:42.000Z</time>
      </trkpt>
      <trkpt lat="44.24963" lon="2.97795">
        <ele>893</ele>
        <time>2019-10-13T09:44:43.000Z</time>
      </trkpt>
      <trkpt lat="44.24963" lon="2.97795">
        <ele>893</ele>
        <time>2019-10-13T09:44:44.000Z</time>
      </trkpt>
      <trkpt lat="44.24963" lon="2.97795">
        <ele>893</ele>
        <time>2019-10-13T09:44:45.000Z</time>
      </trkpt>
      <trkpt lat="44.24963" lon="2.97795">
        <ele>893</ele>
        <time>2019-10-13T09:44:46.000Z</time>
      </trkpt>
      <trkpt lat="44.24963" lon="2.97795">
        <ele>893</ele>
        <time>2019-10-13T09:44:47.000Z</time>
      </trkpt>
      <trkpt lat="44.24963" lon="2.97795">
        <ele>893</ele>
        <time>2019-10-13T09:44:48.000Z</time>
      </trkpt>
      <trkpt lat="44.24963" lon="2.97795">
        <ele>893</ele>
        <time>2019-10-13T09:44:49.000Z</time>
      </trkpt>
      <trkpt lat="44.24963" lon="2.97795">
        <ele>893</ele>
        <time>2019-10-13T09:44:50.000Z</time>
      </trkpt>
      <trkpt lat="44.24963" lon="2.97795">
        <ele>893</ele>
        <time>2019-10-13T09:44:51.000Z</time>
      </trkpt>
      <trkpt lat="44.24963" lon="2.97795">
        <ele>893</ele>
        <time>2019-10-13T09:44:52.000Z</time>
      </trkpt>
      <trkpt lat="44.24963" lon="2.97795">
        <ele>893</ele>
        <time>2019-10-13T09:44:53.000Z</time>
      </trkpt>
      <trkpt lat="44.24963" lon="2.97795">
        <ele>893</ele>
        <time>2019-10-13T09:44:54.000Z</time>
      </trkpt>
      <trkpt lat="44.24963" lon="2.97795">
        <ele>893</ele>
        <time>2019-10-13T09:44:55.000Z</time>
      </trkpt>
      <trkpt lat="44.24963" lon="2.97795">
        <ele>893</ele>
        <time>2019-10-13T09:44:56.000Z</time>
      </trkpt>
      <trkpt lat="44.24963" lon="2.97795">
        <ele>893</ele>
        <time>2019-10-13T09:44:57.000Z</time>
      </trkpt>
      <trkpt lat="44.24963" lon="2.97795">
        <ele>893</ele>
        <time>2019-10-13T09:44:58.000Z</time>
      </trkpt>
      <trkpt lat="44.24963" lon="2.97795">
        <ele>893</ele>
        <time>2019-10-13T09:44:59.000Z</time>
      </trkpt>
      <trkpt lat="44.24963" lon="2.97795">
        <ele>893</ele>
        <time>2019-10-13T09:45:00.000Z</time>
      </trkpt>
      <trkpt lat="44.24963" lon="2.97795">
        <ele>893</ele>
        <time>2019-10-13T09:45:01.000Z</time>
      </trkpt>
      <trkpt lat="44.24963" lon="2.97795">
        <ele>893</ele>
        <time>2019-10-13T09:45:02.000Z</time>
      </trkpt>
      <trkpt lat="44.24963" lon="2.97795">
        <ele>893</ele>
        <time>2019-10-13T09:45:03.000Z</time>
      </trkpt>
      <trkpt lat="44.24963" lon="2.97795">
        <ele>893</ele>
        <time>2019-10-13T09:45:04.000Z</time>
      </trkpt>
      <trkpt lat="44.24963" lon="2.97795">
        <ele>893</ele>
        <time>2019-10-13T09:45:05.000Z</time>
      </trkpt>
      <trkpt lat="44.24963" lon="2.97795">
        <ele>893</ele>
        <time>2019-10-13T09:45:06.000Z</time>
      </trkpt>
      <trkpt lat="44.24963" lon="2.97795">
        <ele>893</ele>
        <time>2019-10-13T09:45:07.000Z</time>
      </trkpt>
      <trkpt lat="44.24963" lon="2.97795">
        <ele>893</ele>
        <time>2019-10-13T09:45:08.000Z</time>
      </trkpt>
      <trkpt lat="44.24963" lon="2.97795">
        <ele>893</ele>
        <time>2019-10-13T09:45:09.000Z</time>
      </trkpt>
      <trkpt lat="44.24963" lon="2.97795">
        <ele>893</ele>
        <time>2019-10-13T09:45:10.000Z</time>
      </trkpt>
      <trkpt lat="44.24963" lon="2.97795">
        <ele>893</ele>
        <time>2019-10-13T09:45:11.000Z</time>
      </trkpt>
      <trkpt lat="44.24963" lon="2.97795">
        <ele>893</ele>
        <time>2019-10-13T09:45:12.000Z</time>
      </trkpt>
      <trkpt lat="44.24963" lon="2.97795">
        <ele>893</ele>
        <time>2019-10-13T09:45:13.000Z</time>
      </trkpt>
      <trkpt lat="44.24963" lon="2.97795">
        <ele>893</ele>
        <time>2019-10-13T09:45:14.000Z</time>
      </trkpt>
      <trkpt lat="44.24963" lon="2.97795">
        <ele>893</ele>
        <time>2019-10-13T09:45:15.000Z</time>
      </trkpt>
      <trkpt lat="44.24963" lon="2.97795">
        <ele>893</ele>
        <time>2019-10-13T09:45:16.000Z</time>
      </trkpt>
      <trkpt lat="44.24963" lon="2.97795">
        <ele>893</ele>
        <time>2019-10-13T09:45:17.000Z</time>
      </trkpt>
      <trkpt lat="44.24963" lon="2.97795">
        <ele>893</ele>
        <time>2019-10-13T09:45:18.000Z</time>
      </trkpt>
      <trkpt lat="44.24963" lon="2.97795">
        <ele>893</ele>
        <time>2019-10-13T09:45:19.000Z</time>
      </trkpt>
      <trkpt lat="44.24963" lon="2.97795">
        <ele>893</ele>
        <time>2019-10-13T09:45:20.000Z</time>
      </trkpt>
      <trkpt lat="44.24963" lon="2.97795">
        <ele>893</ele>
        <time>2019-10-13T09:45:21.000Z</time>
      </trkpt>
      <trkpt lat="44.24963" lon="2.97795">
        <ele>893</ele>
        <time>2019-10-13T09:45:22.000Z</time>
      </trkpt>
      <trkpt lat="44.24963" lon="2.97795">
        <ele>893</ele>
        <time>2019-10-13T09:45:23.000Z</time>
      </trkpt>
      <trkpt lat="44.24963" lon="2.97795">
        <ele>893</ele>
        <time>2019-10-13T09:45:24.000Z</time>
      </trkpt>
      <trkpt lat="44.24963" lon="2.97795">
        <ele>893</ele>
        <time>2019-10-13T09:45:25.000Z</time>
      </trkpt>
      <trkpt lat="44.24963" lon="2.97795">
        <ele>893</ele>
        <time>2019-10-13T09:45:26.000Z</time>
      </trkpt>
      <trkpt lat="44.24963" lon="2.97795">
        <ele>893</ele>
        <time>2019-10-13T09:45:27.000Z</time>
      </trkpt>
      <trkpt lat="44.24963" lon="2.97795">
        <ele>893</ele>
        <time>2019-10-13T09:45:28.000Z</time>
      </trkpt>
      <trkpt lat="44.24963" lon="2.97795">
        <ele>893</ele>
        <time>2019-10-13T09:45:29.000Z</time>
      </trkpt>
      <trkpt lat="44.24963" lon="2.97795">
        <ele>893</ele>
        <time>2019-10-13T09:45:30.000Z</time>
      </trkpt>
      <trkpt lat="44.24963" lon="2.97795">
        <ele>893</ele>
        <time>2019-10-13T09:45:31.000Z</time>
      </trkpt>
      <trkpt lat="44.24963" lon="2.97795">
        <ele>893</ele>
        <time>2019-10-13T09:45:32.000Z</time>
      </trkpt>
      <trkpt lat="44.24963" lon="2.97795">
        <ele>893</ele>
        <time>2019-10-13T09:45:33.000Z</time>
      </trkpt>
      <trkpt lat="44.24963" lon="2.97795">
        <ele>893</ele>
        <time>2019-10-13T09:45:34.000Z</time>
      </trkpt>
      <trkpt lat="44.24963" lon="2.97795">
        <ele>893</ele>
        <time>2019-10-13T09:45:35.000Z</time>
      </trkpt>
      <trkpt lat="44.24963" lon="2.97795">
        <ele>893</ele>
        <time>2019-10-13T09:45:36.000Z</time>
      </trkpt>
      <trkpt lat="44.24963" lon="2.97795">
        <ele>893</ele>
        <time>2019-10-13T09:45:37.000Z</time>
      </trkpt>
      <trkpt lat="44.24963" lon="2.97795">
        <ele>893</ele>
        <time>2019-10-13T09:45:38.000Z</time>
      </trkpt>
      <trkpt lat="44.24963" lon="2.97795">
        <ele>893</ele>
        <time>2019-10-13T09:45:39.000Z</time>
      </trkpt>
      <trkpt lat="44.24963" lon="2.97795">
        <ele>893</ele>
        <time>2019-10-13T09:45:40.000Z</time>
      </trkpt>
      <trkpt lat="44.24963" lon="2.97795">
        <ele>893</ele>
        <time>2019-10-13T09:45:41.000Z</time>
      </trkpt>
      <trkpt lat="44.24963" lon="2.97795">
        <ele>893</ele>
        <time>2019-10-13T09:45:42.000Z</time>
      </trkpt>
      <trkpt lat="44.24963" lon="2.97795">
        <ele>893</ele>
        <time>2019-10-13T09:45:43.000Z</time>
      </trkpt>
      <trkpt lat="44.24963" lon="2.97795">
        <ele>893</ele>
        <time>2019-10-13T09:45:44.000Z</time>
      </trkpt>
      <trkpt lat="44.24963" lon="2.97795">
        <ele>893</ele>
        <time>2019-10-13T09:45:45.000Z</time>
      </trkpt>
      <trkpt lat="44.24963" lon="2.97795">
        <ele>893</ele>
        <time>2019-10-13T09:45:46.000Z</time>
      </trkpt>
      <trkpt lat="44.24963" lon="2.97795">
        <ele>893</ele>
        <time>2019-10-13T09:45:47.000Z</time>
      </trkpt>
      <trkpt lat="44.24963" lon="2.97795">
        <ele>893</ele>
        <time>2019-10-13T09:45:48.000Z</time>
      </trkpt>
      <trkpt lat="44.24963" lon="2.97795">
        <ele>893</ele>
        <time>2019-10-13T09:45:49.000Z</time>
      </trkpt>
      <trkpt lat="44.24963" lon="2.97795">
        <ele>893</ele>
        <time>2019-10-13T09:45:50.000Z</time>
      </trkpt>
      <trkpt lat="44.24963" lon="2.97795">
        <ele>893</ele>
        <time>2019-10-13T09:45:51.000Z</time>
      </trkpt>
      <trkpt lat="44.24963" lon="2.97795">
        <ele>893</ele>
        <time>2019-10-13T09:45:52.000Z</time>
      </trkpt>
      <trkpt lat="44.24963" lon="2.97795">
        <ele>893</ele>
        <time>2019-10-13T09:45:53.000Z</time>
      </trkpt>
      <trkpt lat="44.24963" lon="2.97795">
        <ele>893</ele>
        <time>2019-10-13T09:45:54.000Z</time>
      </trkpt>
      <trkpt lat="44.24963" lon="2.97795">
        <ele>893</ele>
        <time>2019-10-13T09:45:55.000Z</time>
      </trkpt>
      <trkpt lat="44.24963" lon="2.97795">
        <ele>893</ele>
        <time>2019-10-13T09:45:56.000Z</time>
      </trkpt>
      <trkpt lat="44.24963" lon="2.97795">
        <ele>893</ele>
        <time>2019-10-13T09:45:57.000Z</time>
      </trkpt>
      <trkpt lat="44.24963" lon="2.97795">
        <ele>893</ele>
        <time>2019-10-13T09:45:58.000Z</time>
      </trkpt>
      <trkpt lat="44.24963" lon="2.97795">
        <ele>893</ele>
        <time>2019-10-13T09:45:59.000Z</time>
      </trkpt>
      <trkpt lat="44.24963" lon="2.97795">
        <ele>893</ele>
        <time>2019-10-13T09:46:00.000Z</time>
      </trkpt>
      <trkpt lat="44.24963" lon="2.97795">
        <ele>893</ele>
        <time>2019-10-13T09:46:01.000Z</time>
      </trkpt>
      <trkpt lat="44.24963" lon="2.97795">
        <ele>893</ele>
        <time>2019-10-13T09:46:02.000Z</time>
      </trkpt>
      <trkpt lat="44.24963" lon="2.97795">
        <ele>893</ele>
        <time>2019-10-13T09:46:03.000Z</time>
      </trkpt>
      <trkpt lat="44.24963" lon="2.97795">
        <ele>893</ele>
        <time>2019-10-13T09:46:04.000Z</time>
      </trkpt>
      <trkpt lat="44.24963" lon="2.97795">
        <ele>893</ele>
        <time>2019-10-13T09:46:05.000Z</time>
      </trkpt>
      <trkpt lat="44.24963" lon="2.97795">
        <ele>893</ele>
        <time>2019-10-13T09:46:06.000Z</time>
      </trkpt>
      <trkpt lat="44.24963" lon="2.97795">
        <ele>893</ele>
        <time>2019-10-13T09:46:07.000Z</time>
      </trkpt>
      <trkpt lat="44.24963" lon="2.97795">
        <ele>893</ele>
        <time>2019-10-13T09:46:08.000Z</time>
      </trkpt>
      <trkpt lat="44.24963" lon="2.97794">
        <ele>893</ele>
        <time>2019-10-13T09:46:09.000Z</time>
      </trkpt>
      <trkpt lat="44.24964" lon="2.97794">
        <ele>893</ele>
        <time>2019-10-13T09:46:10.000Z</time>
      </trkpt>
      <trkpt lat="44.24964" lon="2.97794">
        <ele>893</ele>
        <time>2019-10-13T09:46:11.000Z</time>
      </trkpt>
      <trkpt lat="44.24964" lon="2.97794">
        <ele>893</ele>
        <time>2019-10-13T09:46:12.000Z</time>
      </trkpt>
      <trkpt lat="44.24964" lon="2.97794">
        <ele>893</ele>
        <time>2019-10-13T09:46:13.000Z</time>
      </trkpt>
      <trkpt lat="44.24964" lon="2.97794">
        <ele>893</ele>
        <time>2019-10-13T09:46:14.000Z</time>
      </trkpt>
      <trkpt lat="44.24964" lon="2.97794">
        <ele>893</ele>
        <time>2019-10-13T09:46:15.000Z</time>
      </trkpt>
      <trkpt lat="44.24964" lon="2.97794">
        <ele>893</ele>
        <time>2019-10-13T09:46:16.000Z</time>
      </trkpt>
      <trkpt lat="44.24964" lon="2.97794">
        <ele>893</ele>
        <time>2019-10-13T09:46:17.000Z</time>
      </trkpt>
      <trkpt lat="44.24964" lon="2.97794">
        <ele>893</ele>
        <time>2019-10-13T09:46:18.000Z</time>
      </trkpt>
      <trkpt lat="44.24964" lon="2.97794">
        <ele>893</ele>
        <time>2019-10-13T09:46:19.000Z</time>
      </trkpt>
      <trkpt lat="44.24964" lon="2.97794">
        <ele>893</ele>
        <time>2019-10-13T09:46:20.000Z</time>
      </trkpt>
      <trkpt lat="44.24964" lon="2.97794">
        <ele>893</ele>
        <time>2019-10-13T09:46:21.000Z</time>
      </trkpt>
      <trkpt lat="44.24964" lon="2.97794">
        <ele>893</ele>
        <time>2019-10-13T09:46:22.000Z</time>
      </trkpt>
      <trkpt lat="44.24964" lon="2.97794">
        <ele>893</ele>
        <time>2019-10-13T09:46:23.000Z</time>
      </trkpt>
      <trkpt lat="44.24964" lon="2.97794">
        <ele>893</ele>
        <time>2019-10-13T09:46:24.000Z</time>
      </trkpt>
      <trkpt lat="44.24964" lon="2.97794">
        <ele>893</ele>
        <time>2019-10-13T09:46:25.000Z</time>
      </trkpt>
      <trkpt lat="44.24964" lon="2.97794">
        <ele>893</ele>
        <time>2019-10-13T09:46:26.000Z</time>
      </trkpt>
      <trkpt lat="44.24964" lon="2.97793">
        <ele>893</ele>
        <time>2019-10-13T09:46:27.000Z</time>
      </trkpt>
      <trkpt lat="44.24965" lon="2.97792">
        <ele>893</ele>
        <time>2019-10-13T09:46:28.000Z</time>
      </trkpt>
      <trkpt lat="44.24965" lon="2.97791">
        <ele>893</ele>
        <time>2019-10-13T09:46:29.000Z</time>
      </trkpt>
      <trkpt lat="44.24966" lon="2.9779">
        <ele>893</ele>
        <time>2019-10-13T09:46:30.000Z</time>
      </trkpt>
      <trkpt lat="44.24966" lon="2.97789">
        <ele>893</ele>
        <time>2019-10-13T09:46:31.000Z</time>
      </trkpt>
      <trkpt lat="44.24965" lon="2.97787">
        <ele>893</ele>
        <time>2019-10-13T09:46:32.000Z</time>
      </trkpt>
      <trkpt lat="44.24964" lon="2.97785">
        <ele>893</ele>
        <time>2019-10-13T09:46:33.000Z</time>
      </trkpt>
      <trkpt lat="44.24964" lon="2.97783">
        <ele>893</ele>
        <time>2019-10-13T09:46:34.000Z</time>
      </trkpt>
      <trkpt lat="44.24963" lon="2.97781">
        <ele>893</ele>
        <time>2019-10-13T09:46:35.000Z</time>
      </trkpt>
      <trkpt lat="44.24962" lon="2.97779">
        <ele>893</ele>
        <time>2019-10-13T09:46:36.000Z</time>
      </trkpt>
      <trkpt lat="44.24961" lon="2.97777">
        <ele>893</ele>
        <time>2019-10-13T09:46:37.000Z</time>
      </trkpt>
      <trkpt lat="44.24961" lon="2.97775">
        <ele>893</ele>
        <time>2019-10-13T09:46:38.000Z</time>
      </trkpt>
      <trkpt lat="44.2496" lon="2.97773">
        <ele>893</ele>
        <time>2019-10-13T09:46:39.000Z</time>
      </trkpt>
      <trkpt lat="44.24959" lon="2.97771">
        <ele>893</ele>
        <time>2019-10-13T09:46:40.000Z</time>
      </trkpt>
      <trkpt lat="44.24958" lon="2.9777">
        <ele>892</ele>
        <time>2019-10-13T09:46:41.000Z</time>
      </trkpt>
      <trkpt lat="44.24957" lon="2.97768">
        <ele>892</ele>
        <time>2019-10-13T09:46:42.000Z</time>
      </trkpt>
      <trkpt lat="44.24956" lon="2.97766">
        <ele>892</ele>
        <time>2019-10-13T09:46:43.000Z</time>
      </trkpt>
      <trkpt lat="44.24955" lon="2.97764">
        <ele>892</ele>
        <time>2019-10-13T09:46:44.000Z</time>
      </trkpt>
      <trkpt lat="44.24955" lon="2.97763">
        <ele>892</ele>
        <time>2019-10-13T09:46:45.000Z</time>
      </trkpt>
      <trkpt lat="44.24954" lon="2.97761">
        <ele>891</ele>
        <time>2019-10-13T09:46:46.000Z</time>
      </trkpt>
      <trkpt lat="44.24953" lon="2.97759">
        <ele>891</ele>
        <time>2019-10-13T09:46:47.000Z</time>
      </trkpt>
      <trkpt lat="44.24952" lon="2.97757">
        <ele>891</ele>
        <time>2019-10-13T09:46:48.000Z</time>
      </trkpt>
      <trkpt lat="44.24951" lon="2.97756">
        <ele>891</ele>
        <time>2019-10-13T09:46:49.000Z</time>
      </trkpt>
      <trkpt lat="44.2495" lon="2.97754">
        <ele>891</ele>
        <time>2019-10-13T09:46:50.000Z</time>
      </trkpt>
      <trkpt lat="44.24949" lon="2.97752">
        <ele>891</ele>
        <time>2019-10-13T09:46:51.000Z</time>
      </trkpt>
      <trkpt lat="44.24947" lon="2.9775">
        <ele>890</ele>
        <time>2019-10-13T09:46:52.000Z</time>
      </trkpt>
      <trkpt lat="44.24946" lon="2.97748">
        <ele>890</ele>
        <time>2019-10-13T09:46:53.000Z</time>
      </trkpt>
      <trkpt lat="44.24945" lon="2.97747">
        <ele>890</ele>
        <time>2019-10-13T09:46:54.000Z</time>
      </trkpt>
      <trkpt lat="44.24944" lon="2.97745">
        <ele>890</ele>
        <time>2019-10-13T09:46:55.000Z</time>
      </trkpt>
      <trkpt lat="44.24943" lon="2.97744">
        <ele>890</ele>
        <time>2019-10-13T09:46:56.000Z</time>
      </trkpt>
      <trkpt lat="44.24942" lon="2.97742">
        <ele>890</ele>
        <time>2019-10-13T09:46:57.000Z</time>
      </trkpt>
      <trkpt lat="44.24941" lon="2.9774">
        <ele>890</ele>
        <time>2019-10-13T09:46:58.000Z</time>
      </trkpt>
      <trkpt lat="44.2494" lon="2.97738">
        <ele>890</ele>
        <time>2019-10-13T09:46:59.000Z</time>
      </trkpt>
      <trkpt lat="44.24939" lon="2.97736">
        <ele>890</ele>
        <time>2019-10-13T09:47:00.000Z</time>
      </trkpt>
      <trkpt lat="44.24938" lon="2.97734">
        <ele>890</ele>
        <time>2019-10-13T09:47:01.000Z</time>
      </trkpt>
      <trkpt lat="44.24938" lon="2.97733">
        <ele>890</ele>
        <time>2019-10-13T09:47:02.000Z</time>
      </trkpt>
      <trkpt lat="44.24937" lon="2.97731">
        <ele>890</ele>
        <time>2019-10-13T09:47:03.000Z</time>
      </trkpt>
      <trkpt lat="44.24936" lon="2.97729">
        <ele>890</ele>
        <time>2019-10-13T09:47:04.000Z</time>
      </trkpt>
      <trkpt lat="44.24935" lon="2.97727">
        <ele>890</ele>
        <time>2019-10-13T09:47:05.000Z</time>
      </trkpt>
      <trkpt lat="44.24934" lon="2.97726">
        <ele>890</ele>
        <time>2019-10-13T09:47:06.000Z</time>
      </trkpt>
      <trkpt lat="44.24933" lon="2.97724">
        <ele>890</ele>
        <time>2019-10-13T09:47:07.000Z</time>
      </trkpt>
      <trkpt lat="44.24932" lon="2.97722">
        <ele>890</ele>
        <time>2019-10-13T09:47:08.000Z</time>
      </trkpt>
      <trkpt lat="44.24931" lon="2.97721">
        <ele>890</ele>
        <time>2019-10-13T09:47:09.000Z</time>
      </trkpt>
      <trkpt lat="44.2493" lon="2.97719">
        <ele>890</ele>
        <time>2019-10-13T09:47:10.000Z</time>
      </trkpt>
      <trkpt lat="44.24929" lon="2.97718">
        <ele>889</ele>
        <time>2019-10-13T09:47:11.000Z</time>
      </trkpt>
      <trkpt lat="44.24928" lon="2.97716">
        <ele>889</ele>
        <time>2019-10-13T09:47:12.000Z</time>
      </trkpt>
      <trkpt lat="44.24927" lon="2.97715">
        <ele>889</ele>
        <time>2019-10-13T09:47:13.000Z</time>
      </trkpt>
      <trkpt lat="44.24925" lon="2.97713">
        <ele>889</ele>
        <time>2019-10-13T09:47:14.000Z</time>
      </trkpt>
      <trkpt lat="44.24924" lon="2.97712">
        <ele>889</ele>
        <time>2019-10-13T09:47:15.000Z</time>
      </trkpt>
      <trkpt lat="44.24923" lon="2.9771">
        <ele>889</ele>
        <time>2019-10-13T09:47:16.000Z</time>
      </trkpt>
      <trkpt lat="44.24921" lon="2.97709">
        <ele>889</ele>
        <time>2019-10-13T09:47:17.000Z</time>
      </trkpt>
      <trkpt lat="44.2492" lon="2.97708">
        <ele>889</ele>
        <time>2019-10-13T09:47:18.000Z</time>
      </trkpt>
      <trkpt lat="44.24919" lon="2.97707">
        <ele>889</ele>
        <time>2019-10-13T09:47:19.000Z</time>
      </trkpt>
      <trkpt lat="44.24917" lon="2.97705">
        <ele>889</ele>
        <time>2019-10-13T09:47:20.000Z</time>
      </trkpt>
      <trkpt lat="44.24916" lon="2.97704">
        <ele>889</ele>
        <time>2019-10-13T09:47:21.000Z</time>
      </trkpt>
      <trkpt lat="44.24915" lon="2.97702">
        <ele>889</ele>
        <time>2019-10-13T09:47:22.000Z</time>
      </trkpt>
      <trkpt lat="44.24913" lon="2.97701">
        <ele>889</ele>
        <time>2019-10-13T09:47:23.000Z</time>
      </trkpt>
      <trkpt lat="44.24912" lon="2.977">
        <ele>889</ele>
        <time>2019-10-13T09:47:24.000Z</time>
      </trkpt>
      <trkpt lat="44.2491" lon="2.97699">
        <ele>889</ele>
        <time>2019-10-13T09:47:25.000Z</time>
      </trkpt>
      <trkpt lat="44.24909" lon="2.97698">
        <ele>889</ele>
        <time>2019-10-13T09:47:26.000Z</time>
      </trkpt>
      <trkpt lat="44.24907" lon="2.97697">
        <ele>888</ele>
        <time>2019-10-13T09:47:27.000Z</time>
      </trkpt>
      <trkpt lat="44.24906" lon="2.97696">
        <ele>888</ele>
        <time>2019-10-13T09:47:28.000Z</time>
      </trkpt>
      <trkpt lat="44.24904" lon="2.97695">
        <ele>888</ele>
        <time>2019-10-13T09:47:29.000Z</time>
      </trkpt>
      <trkpt lat="44.24903" lon="2.97694">
        <ele>888</ele>
        <time>2019-10-13T09:47:30.000Z</time>
      </trkpt>
      <trkpt lat="44.24901" lon="2.97694">
        <ele>888</ele>
        <time>2019-10-13T09:47:31.000Z</time>
      </trkpt>
      <trkpt lat="44.249" lon="2.97693">
        <ele>888</ele>
        <time>2019-10-13T09:47:32.000Z</time>
      </trkpt>
      <trkpt lat="44.24899" lon="2.97692">
        <ele>888</ele>
        <time>2019-10-13T09:47:33.000Z</time>
      </trkpt>
      <trkpt lat="44.24897" lon="2.97691">
        <ele>887</ele>
        <time>2019-10-13T09:47:34.000Z</time>
      </trkpt>
      <trkpt lat="44.24896" lon="2.9769">
        <ele>887</ele>
        <time>2019-10-13T09:47:35.000Z</time>
      </trkpt>
      <trkpt lat="44.24894" lon="2.97689">
        <ele>887</ele>
        <time>2019-10-13T09:47:36.000Z</time>
      </trkpt>
      <trkpt lat="44.24893" lon="2.97688">
        <ele>887</ele>
        <time>2019-10-13T09:47:37.000Z</time>
      </trkpt>
      <trkpt lat="44.24892" lon="2.97687">
        <ele>887</ele>
        <time>2019-10-13T09:47:38.000Z</time>
      </trkpt>
      <trkpt lat="44.24891" lon="2.97686">
        <ele>887</ele>
        <time>2019-10-13T09:47:39.000Z</time>
      </trkpt>
      <trkpt lat="44.24889" lon="2.97685">
        <ele>886</ele>
        <time>2019-10-13T09:47:40.000Z</time>
      </trkpt>
      <trkpt lat="44.24888" lon="2.97683">
        <ele>886</ele>
        <time>2019-10-13T09:47:41.000Z</time>
      </trkpt>
      <trkpt lat="44.24886" lon="2.97682">
        <ele>886</ele>
        <time>2019-10-13T09:47:42.000Z</time>
      </trkpt>
      <trkpt lat="44.24885" lon="2.97681">
        <ele>886</ele>
        <time>2019-10-13T09:47:43.000Z</time>
      </trkpt>
      <trkpt lat="44.24883" lon="2.9768">
        <ele>885</ele>
        <time>2019-10-13T09:47:44.000Z</time>
      </trkpt>
      <trkpt lat="44.24882" lon="2.97679">
        <ele>885</ele>
        <time>2019-10-13T09:47:45.000Z</time>
      </trkpt>
      <trkpt lat="44.24881" lon="2.97677">
        <ele>884</ele>
        <time>2019-10-13T09:47:46.000Z</time>
      </trkpt>
      <trkpt lat="44.24879" lon="2.97676">
        <ele>884</ele>
        <time>2019-10-13T09:47:47.000Z</time>
      </trkpt>
      <trkpt lat="44.24878" lon="2.97674">
        <ele>884</ele>
        <time>2019-10-13T09:47:48.000Z</time>
      </trkpt>
      <trkpt lat="44.24877" lon="2.97673">
        <ele>883</ele>
        <time>2019-10-13T09:47:49.000Z</time>
      </trkpt>
      <trkpt lat="44.24875" lon="2.97671">
        <ele>883</ele>
        <time>2019-10-13T09:47:50.000Z</time>
      </trkpt>
      <trkpt lat="44.24874" lon="2.97669">
        <ele>883</ele>
        <time>2019-10-13T09:47:51.000Z</time>
      </trkpt>
      <trkpt lat="44.24873" lon="2.97668">
        <ele>883</ele>
        <time>2019-10-13T09:47:52.000Z</time>
      </trkpt>
      <trkpt lat="44.24872" lon="2.97666">
        <ele>882</ele>
        <time>2019-10-13T09:47:53.000Z</time>
      </trkpt>
      <trkpt lat="44.24871" lon="2.97664">
        <ele>882</ele>
        <time>2019-10-13T09:47:54.000Z</time>
      </trkpt>
      <trkpt lat="44.2487" lon="2.97663">
        <ele>881</ele>
        <time>2019-10-13T09:47:55.000Z</time>
      </trkpt>
      <trkpt lat="44.24869" lon="2.97661">
        <ele>881</ele>
        <time>2019-10-13T09:47:56.000Z</time>
      </trkpt>
      <trkpt lat="44.24869" lon="2.9766">
        <ele>881</ele>
        <time>2019-10-13T09:47:57.000Z</time>
      </trkpt>
      <trkpt lat="44.24868" lon="2.97658">
        <ele>881</ele>
        <time>2019-10-13T09:47:58.000Z</time>
      </trkpt>
      <trkpt lat="44.24867" lon="2.97656">
        <ele>880</ele>
        <time>2019-10-13T09:47:59.000Z</time>
      </trkpt>
      <trkpt lat="44.24867" lon="2.97654">
        <ele>880</ele>
        <time>2019-10-13T09:48:00.000Z</time>
      </trkpt>
      <trkpt lat="44.24866" lon="2.97652">
        <ele>880</ele>
        <time>2019-10-13T09:48:01.000Z</time>
      </trkpt>
      <trkpt lat="44.24865" lon="2.97649">
        <ele>880</ele>
        <time>2019-10-13T09:48:02.000Z</time>
      </trkpt>
      <trkpt lat="44.24864" lon="2.97647">
        <ele>879</ele>
        <time>2019-10-13T09:48:03.000Z</time>
      </trkpt>
      <trkpt lat="44.24863" lon="2.97645">
        <ele>879</ele>
        <time>2019-10-13T09:48:04.000Z</time>
      </trkpt>
      <trkpt lat="44.24862" lon="2.97643">
        <ele>879</ele>
        <time>2019-10-13T09:48:05.000Z</time>
      </trkpt>
      <trkpt lat="44.24861" lon="2.97641">
        <ele>878</ele>
        <time>2019-10-13T09:48:06.000Z</time>
      </trkpt>
      <trkpt lat="44.2486" lon="2.97639">
        <ele>878</ele>
        <time>2019-10-13T09:48:07.000Z</time>
      </trkpt>
      <trkpt lat="44.24859" lon="2.97637">
        <ele>878</ele>
        <time>2019-10-13T09:48:08.000Z</time>
      </trkpt>
      <trkpt lat="44.24858" lon="2.97635">
        <ele>878</ele>
        <time>2019-10-13T09:48:09.000Z</time>
      </trkpt>
      <trkpt lat="44.24857" lon="2.97633">
        <ele>878</ele>
        <time>2019-10-13T09:48:10.000Z</time>
      </trkpt>
      <trkpt lat="44.24856" lon="2.97631">
        <ele>878</ele>
        <time>2019-10-13T09:48:11.000Z</time>
      </trkpt>
      <trkpt lat="44.24855" lon="2.97628">
        <ele>878</ele>
        <time>2019-10-13T09:48:12.000Z</time>
      </trkpt>
      <trkpt lat="44.24855" lon="2.97626">
        <ele>878</ele>
        <time>2019-10-13T09:48:13.000Z</time>
      </trkpt>
      <trkpt lat="44.24854" lon="2.97623">
        <ele>878</ele>
        <time>2019-10-13T09:48:14.000Z</time>
      </trkpt>
      <trkpt lat="44.24853" lon="2.97621">
        <ele>877</ele>
        <time>2019-10-13T09:48:15.000Z</time>
      </trkpt>
      <trkpt lat="44.24852" lon="2.97619">
        <ele>877</ele>
        <time>2019-10-13T09:48:16.000Z</time>
      </trkpt>
      <trkpt lat="44.24851" lon="2.97617">
        <ele>877</ele>
        <time>2019-10-13T09:48:17.000Z</time>
      </trkpt>
      <trkpt lat="44.2485" lon="2.97615">
        <ele>877</ele>
        <time>2019-10-13T09:48:18.000Z</time>
      </trkpt>
      <trkpt lat="44.24849" lon="2.97613">
        <ele>877</ele>
        <time>2019-10-13T09:48:19.000Z</time>
      </trkpt>
      <trkpt lat="44.24848" lon="2.97611">
        <ele>877</ele>
        <time>2019-10-13T09:48:20.000Z</time>
      </trkpt>
      <trkpt lat="44.24848" lon="2.97609">
        <ele>876</ele>
        <time>2019-10-13T09:48:21.000Z</time>
      </trkpt>
      <trkpt lat="44.24847" lon="2.97607">
        <ele>876</ele>
        <time>2019-10-13T09:48:22.000Z</time>
      </trkpt>
      <trkpt lat="44.24847" lon="2.97605">
        <ele>876</ele>
        <time>2019-10-13T09:48:23.000Z</time>
      </trkpt>
      <trkpt lat="44.24846" lon="2.97603">
        <ele>876</ele>
        <time>2019-10-13T09:48:24.000Z</time>
      </trkpt>
      <trkpt lat="44.24846" lon="2.97601">
        <ele>876</ele>
        <time>2019-10-13T09:48:25.000Z</time>
      </trkpt>
      <trkpt lat="44.24846" lon="2.97598">
        <ele>876</ele>
        <time>2019-10-13T09:48:26.000Z</time>
      </trkpt>
      <trkpt lat="44.24845" lon="2.97596">
        <ele>876</ele>
        <time>2019-10-13T09:48:27.000Z</time>
      </trkpt>
      <trkpt lat="44.24845" lon="2.97594">
        <ele>876</ele>
        <time>2019-10-13T09:48:28.000Z</time>
      </trkpt>
      <trkpt lat="44.24845" lon="2.97591">
        <ele>876</ele>
        <time>2019-10-13T09:48:29.000Z</time>
      </trkpt>
      <trkpt lat="44.24844" lon="2.97589">
        <ele>876</ele>
        <time>2019-10-13T09:48:30.000Z</time>
      </trkpt>
      <trkpt lat="44.24844" lon="2.97587">
        <ele>876</ele>
        <time>2019-10-13T09:48:31.000Z</time>
      </trkpt>
      <trkpt lat="44.24843" lon="2.97584">
        <ele>876</ele>
        <time>2019-10-13T09:48:32.000Z</time>
      </trkpt>
      <trkpt lat="44.24842" lon="2.97582">
        <ele>876</ele>
        <time>2019-10-13T09:48:33.000Z</time>
      </trkpt>
      <trkpt lat="44.24842" lon="2.9758">
        <ele>876</ele>
        <time>2019-10-13T09:48:34.000Z</time>
      </trkpt>
      <trkpt lat="44.24841" lon="2.97578">
        <ele>876</ele>
        <time>2019-10-13T09:48:35.000Z</time>
      </trkpt>
      <trkpt lat="44.2484" lon="2.97576">
        <ele>876</ele>
        <time>2019-10-13T09:48:36.000Z</time>
      </trkpt>
      <trkpt lat="44.24839" lon="2.97574">
        <ele>875</ele>
        <time>2019-10-13T09:48:37.000Z</time>
      </trkpt>
      <trkpt lat="44.24839" lon="2.97572">
        <ele>875</ele>
        <time>2019-10-13T09:48:38.000Z</time>
      </trkpt>
      <trkpt lat="44.24838" lon="2.9757">
        <ele>875</ele>
        <time>2019-10-13T09:48:39.000Z</time>
      </trkpt>
      <trkpt lat="44.24837" lon="2.97568">
        <ele>875</ele>
        <time>2019-10-13T09:48:40.000Z</time>
      </trkpt>
      <trkpt lat="44.24836" lon="2.97566">
        <ele>875</ele>
        <time>2019-10-13T09:48:41.000Z</time>
      </trkpt>
      <trkpt lat="44.24835" lon="2.97564">
        <ele>875</ele>
        <time>2019-10-13T09:48:42.000Z</time>
      </trkpt>
      <trkpt lat="44.24834" lon="2.97563">
        <ele>875</ele>
        <time>2019-10-13T09:48:43.000Z</time>
      </trkpt>
      <trkpt lat="44.24833" lon="2.97561">
        <ele>875</ele>
        <time>2019-10-13T09:48:44.000Z</time>
      </trkpt>
      <trkpt lat="44.24832" lon="2.97559">
        <ele>875</ele>
        <time>2019-10-13T09:48:45.000Z</time>
      </trkpt>
      <trkpt lat="44.24831" lon="2.97557">
        <ele>875</ele>
        <time>2019-10-13T09:48:46.000Z</time>
      </trkpt>
      <trkpt lat="44.2483" lon="2.97555">
        <ele>875</ele>
        <time>2019-10-13T09:48:47.000Z</time>
      </trkpt>
      <trkpt lat="44.24829" lon="2.97554">
        <ele>875</ele>
        <time>2019-10-13T09:48:48.000Z</time>
      </trkpt>
      <trkpt lat="44.24828" lon="2.97552">
        <ele>875</ele>
        <time>2019-10-13T09:48:49.000Z</time>
      </trkpt>
      <trkpt lat="44.24827" lon="2.9755">
        <ele>875</ele>
        <time>2019-10-13T09:48:50.000Z</time>
      </trkpt>
      <trkpt lat="44.24826" lon="2.97548">
        <ele>875</ele>
        <time>2019-10-13T09:48:51.000Z</time>
      </trkpt>
      <trkpt lat="44.24825" lon="2.97546">
        <ele>875</ele>
        <time>2019-10-13T09:48:52.000Z</time>
      </trkpt>
      <trkpt lat="44.24824" lon="2.97545">
        <ele>875</ele>
        <time>2019-10-13T09:48:53.000Z</time>
      </trkpt>
      <trkpt lat="44.24823" lon="2.97543">
        <ele>875</ele>
        <time>2019-10-13T09:48:54.000Z</time>
      </trkpt>
      <trkpt lat="44.24822" lon="2.97541">
        <ele>875</ele>
        <time>2019-10-13T09:48:55.000Z</time>
      </trkpt>
      <trkpt lat="44.24821" lon="2.97538">
        <ele>875</ele>
        <time>2019-10-13T09:48:56.000Z</time>
      </trkpt>
      <trkpt lat="44.2482" lon="2.97537">
        <ele>875</ele>
        <time>2019-10-13T09:48:57.000Z</time>
      </trkpt>
      <trkpt lat="44.2482" lon="2.97535">
        <ele>875</ele>
        <time>2019-10-13T09:48:58.000Z</time>
      </trkpt>
      <trkpt lat="44.24819" lon="2.97532">
        <ele>874</ele>
        <time>2019-10-13T09:48:59.000Z</time>
      </trkpt>
      <trkpt lat="44.24819" lon="2.9753">
        <ele>874</ele>
        <time>2019-10-13T09:49:00.000Z</time>
      </trkpt>
      <trkpt lat="44.24819" lon="2.97528">
        <ele>874</ele>
        <time>2019-10-13T09:49:01.000Z</time>
      </trkpt>
      <trkpt lat="44.24818" lon="2.97526">
        <ele>874</ele>
        <time>2019-10-13T09:49:02.000Z</time>
      </trkpt>
      <trkpt lat="44.24818" lon="2.97524">
        <ele>874</ele>
        <time>2019-10-13T09:49:03.000Z</time>
      </trkpt>
      <trkpt lat="44.24818" lon="2.97521">
        <ele>874</ele>
        <time>2019-10-13T09:49:04.000Z</time>
      </trkpt>
      <trkpt lat="44.24818" lon="2.9752">
        <ele>874</ele>
        <time>2019-10-13T09:49:05.000Z</time>
      </trkpt>
      <trkpt lat="44.24818" lon="2.97518">
        <ele>874</ele>
        <time>2019-10-13T09:49:06.000Z</time>
      </trkpt>
      <trkpt lat="44.24818" lon="2.97516">
        <ele>875</ele>
        <time>2019-10-13T09:49:07.000Z</time>
      </trkpt>
      <trkpt lat="44.24817" lon="2.97514">
        <ele>875</ele>
        <time>2019-10-13T09:49:08.000Z</time>
      </trkpt>
      <trkpt lat="44.24817" lon="2.97512">
        <ele>875</ele>
        <time>2019-10-13T09:49:09.000Z</time>
      </trkpt>
      <trkpt lat="44.24817" lon="2.97509">
        <ele>875</ele>
        <time>2019-10-13T09:49:10.000Z</time>
      </trkpt>
      <trkpt lat="44.24816" lon="2.97507">
        <ele>875</ele>
        <time>2019-10-13T09:49:11.000Z</time>
      </trkpt>
      <trkpt lat="44.24816" lon="2.97506">
        <ele>875</ele>
        <time>2019-10-13T09:49:12.000Z</time>
      </trkpt>
      <trkpt lat="44.24815" lon="2.97504">
        <ele>875</ele>
        <time>2019-10-13T09:49:13.000Z</time>
      </trkpt>
      <trkpt lat="44.24814" lon="2.97502">
        <ele>875</ele>
        <time>2019-10-13T09:49:14.000Z</time>
      </trkpt>
      <trkpt lat="44.24813" lon="2.97501">
        <ele>875</ele>
        <time>2019-10-13T09:49:15.000Z</time>
      </trkpt>
      <trkpt lat="44.24812" lon="2.975">
        <ele>875</ele>
        <time>2019-10-13T09:49:16.000Z</time>
      </trkpt>
      <trkpt lat="44.2481" lon="2.975">
        <ele>875</ele>
        <time>2019-10-13T09:49:17.000Z</time>
      </trkpt>
      <trkpt lat="44.24809" lon="2.975">
        <ele>875</ele>
        <time>2019-10-13T09:49:18.000Z</time>
      </trkpt>
      <trkpt lat="44.24808" lon="2.975">
        <ele>875</ele>
        <time>2019-10-13T09:49:19.000Z</time>
      </trkpt>
      <trkpt lat="44.24807" lon="2.975">
        <ele>875</ele>
        <time>2019-10-13T09:49:20.000Z</time>
      </trkpt>
      <trkpt lat="44.24805" lon="2.975">
        <ele>875</ele>
        <time>2019-10-13T09:49:21.000Z</time>
      </trkpt>
      <trkpt lat="44.24804" lon="2.97501">
        <ele>875</ele>
        <time>2019-10-13T09:49:22.000Z</time>
      </trkpt>
      <trkpt lat="44.24802" lon="2.97501">
        <ele>875</ele>
        <time>2019-10-13T09:49:23.000Z</time>
      </trkpt>
      <trkpt lat="44.24801" lon="2.97502">
        <ele>875</ele>
        <time>2019-10-13T09:49:24.000Z</time>
      </trkpt>
      <trkpt lat="44.24799" lon="2.97502">
        <ele>875</ele>
        <time>2019-10-13T09:49:25.000Z</time>
      </trkpt>
      <trkpt lat="44.24798" lon="2.97503">
        <ele>875</ele>
        <time>2019-10-13T09:49:26.000Z</time>
      </trkpt>
      <trkpt lat="44.24796" lon="2.97503">
        <ele>875</ele>
        <time>2019-10-13T09:49:27.000Z</time>
      </trkpt>
      <trkpt lat="44.24795" lon="2.97504">
        <ele>875</ele>
        <time>2019-10-13T09:49:28.000Z</time>
      </trkpt>
      <trkpt lat="44.24793" lon="2.97505">
        <ele>875</ele>
        <time>2019-10-13T09:49:29.000Z</time>
      </trkpt>
      <trkpt lat="44.24791" lon="2.97505">
        <ele>875</ele>
        <time>2019-10-13T09:49:30.000Z</time>
      </trkpt>
      <trkpt lat="44.2479" lon="2.97506">
        <ele>875</ele>
        <time>2019-10-13T09:49:31.000Z</time>
      </trkpt>
      <trkpt lat="44.24788" lon="2.97506">
        <ele>875</ele>
        <time>2019-10-13T09:49:32.000Z</time>
      </trkpt>
      <trkpt lat="44.24787" lon="2.97507">
        <ele>875</ele>
        <time>2019-10-13T09:49:33.000Z</time>
      </trkpt>
      <trkpt lat="44.24785" lon="2.97507">
        <ele>875</ele>
        <time>2019-10-13T09:49:34.000Z</time>
      </trkpt>
      <trkpt lat="44.24784" lon="2.97508">
        <ele>875</ele>
        <time>2019-10-13T09:49:35.000Z</time>
      </trkpt>
      <trkpt lat="44.24782" lon="2.97509">
        <ele>875</ele>
        <time>2019-10-13T09:49:36.000Z</time>
      </trkpt>
      <trkpt lat="44.24781" lon="2.9751">
        <ele>875</ele>
        <time>2019-10-13T09:49:37.000Z</time>
      </trkpt>
      <trkpt lat="44.2478" lon="2.97511">
        <ele>875</ele>
        <time>2019-10-13T09:49:38.000Z</time>
      </trkpt>
      <trkpt lat="44.24778" lon="2.97513">
        <ele>875</ele>
        <time>2019-10-13T09:49:39.000Z</time>
      </trkpt>
      <trkpt lat="44.24777" lon="2.97515">
        <ele>875</ele>
        <time>2019-10-13T09:49:40.000Z</time>
      </trkpt>
      <trkpt lat="44.24776" lon="2.97518">
        <ele>875</ele>
        <time>2019-10-13T09:49:41.000Z</time>
      </trkpt>
      <trkpt lat="44.24774" lon="2.9752">
        <ele>875</ele>
        <time>2019-10-13T09:49:42.000Z</time>
      </trkpt>
      <trkpt lat="44.24773" lon="2.97522">
        <ele>875</ele>
        <time>2019-10-13T09:49:43.000Z</time>
      </trkpt>
      <trkpt lat="44.24773" lon="2.97524">
        <ele>875</ele>
        <time>2019-10-13T09:49:44.000Z</time>
      </trkpt>
      <trkpt lat="44.24772" lon="2.97526">
        <ele>875</ele>
        <time>2019-10-13T09:49:45.000Z</time>
      </trkpt>
      <trkpt lat="44.24772" lon="2.97529">
        <ele>875</ele>
        <time>2019-10-13T09:49:46.000Z</time>
      </trkpt>
      <trkpt lat="44.24772" lon="2.97531">
        <ele>875</ele>
        <time>2019-10-13T09:49:47.000Z</time>
      </trkpt>
      <trkpt lat="44.24772" lon="2.97534">
        <ele>875</ele>
        <time>2019-10-13T09:49:48.000Z</time>
      </trkpt>
      <trkpt lat="44.24772" lon="2.97536">
        <ele>875</ele>
        <time>2019-10-13T09:49:49.000Z</time>
      </trkpt>
      <trkpt lat="44.24771" lon="2.97538">
        <ele>875</ele>
        <time>2019-10-13T09:49:50.000Z</time>
      </trkpt>
      <trkpt lat="44.24771" lon="2.97541">
        <ele>875</ele>
        <time>2019-10-13T09:49:51.000Z</time>
      </trkpt>
      <trkpt lat="44.2477" lon="2.97543">
        <ele>876</ele>
        <time>2019-10-13T09:49:52.000Z</time>
      </trkpt>
      <trkpt lat="44.2477" lon="2.97546">
        <ele>876</ele>
        <time>2019-10-13T09:49:53.000Z</time>
      </trkpt>
      <trkpt lat="44.24769" lon="2.97548">
        <ele>876</ele>
        <time>2019-10-13T09:49:54.000Z</time>
      </trkpt>
      <trkpt lat="44.24768" lon="2.9755">
        <ele>876</ele>
        <time>2019-10-13T09:49:55.000Z</time>
      </trkpt>
      <trkpt lat="44.24768" lon="2.97552">
        <ele>876</ele>
        <time>2019-10-13T09:49:56.000Z</time>
      </trkpt>
      <trkpt lat="44.24767" lon="2.97554">
        <ele>876</ele>
        <time>2019-10-13T09:49:57.000Z</time>
      </trkpt>
      <trkpt lat="44.24766" lon="2.97555">
        <ele>876</ele>
        <time>2019-10-13T09:49:58.000Z</time>
      </trkpt>
      <trkpt lat="44.24765" lon="2.97557">
        <ele>876</ele>
        <time>2019-10-13T09:49:59.000Z</time>
      </trkpt>
      <trkpt lat="44.24765" lon="2.9756">
        <ele>876</ele>
        <time>2019-10-13T09:50:00.000Z</time>
      </trkpt>
      <trkpt lat="44.24764" lon="2.97562">
        <ele>876</ele>
        <time>2019-10-13T09:50:01.000Z</time>
      </trkpt>
      <trkpt lat="44.24763" lon="2.97564">
        <ele>876</ele>
        <time>2019-10-13T09:50:02.000Z</time>
      </trkpt>
      <trkpt lat="44.24763" lon="2.97566">
        <ele>876</ele>
        <time>2019-10-13T09:50:03.000Z</time>
      </trkpt>
      <trkpt lat="44.24762" lon="2.97568">
        <ele>876</ele>
        <time>2019-10-13T09:50:04.000Z</time>
      </trkpt>
      <trkpt lat="44.24761" lon="2.9757">
        <ele>876</ele>
        <time>2019-10-13T09:50:05.000Z</time>
      </trkpt>
      <trkpt lat="44.2476" lon="2.97572">
        <ele>876</ele>
        <time>2019-10-13T09:50:06.000Z</time>
      </trkpt>
      <trkpt lat="44.24759" lon="2.97573">
        <ele>877</ele>
        <time>2019-10-13T09:50:07.000Z</time>
      </trkpt>
      <trkpt lat="44.24758" lon="2.97575">
        <ele>877</ele>
        <time>2019-10-13T09:50:08.000Z</time>
      </trkpt>
      <trkpt lat="44.24757" lon="2.97576">
        <ele>877</ele>
        <time>2019-10-13T09:50:09.000Z</time>
      </trkpt>
      <trkpt lat="44.24756" lon="2.97578">
        <ele>877</ele>
        <time>2019-10-13T09:50:10.000Z</time>
      </trkpt>
      <trkpt lat="44.24755" lon="2.9758">
        <ele>877</ele>
        <time>2019-10-13T09:50:11.000Z</time>
      </trkpt>
      <trkpt lat="44.24753" lon="2.97581">
        <ele>878</ele>
        <time>2019-10-13T09:50:12.000Z</time>
      </trkpt>
      <trkpt lat="44.24752" lon="2.97582">
        <ele>878</ele>
        <time>2019-10-13T09:50:13.000Z</time>
      </trkpt>
      <trkpt lat="44.2475" lon="2.97583">
        <ele>878</ele>
        <time>2019-10-13T09:50:14.000Z</time>
      </trkpt>
      <trkpt lat="44.24749" lon="2.97585">
        <ele>879</ele>
        <time>2019-10-13T09:50:15.000Z</time>
      </trkpt>
      <trkpt lat="44.24747" lon="2.97586">
        <ele>879</ele>
        <time>2019-10-13T09:50:16.000Z</time>
      </trkpt>
      <trkpt lat="44.24746" lon="2.97587">
        <ele>879</ele>
        <time>2019-10-13T09:50:17.000Z</time>
      </trkpt>
      <trkpt lat="44.24744" lon="2.97589">
        <ele>879</ele>
        <time>2019-10-13T09:50:18.000Z</time>
      </trkpt>
      <trkpt lat="44.24742" lon="2.9759">
        <ele>880</ele>
        <time>2019-10-13T09:50:19.000Z</time>
      </trkpt>
      <trkpt lat="44.2474" lon="2.97591">
        <ele>880</ele>
        <time>2019-10-13T09:50:20.000Z</time>
      </trkpt>
      <trkpt lat="44.24739" lon="2.97592">
        <ele>880</ele>
        <time>2019-10-13T09:50:21.000Z</time>
      </trkpt>
      <trkpt lat="44.24737" lon="2.97593">
        <ele>880</ele>
        <time>2019-10-13T09:50:22.000Z</time>
      </trkpt>
      <trkpt lat="44.24736" lon="2.97595">
        <ele>881</ele>
        <time>2019-10-13T09:50:23.000Z</time>
      </trkpt>
      <trkpt lat="44.24734" lon="2.97596">
        <ele>881</ele>
        <time>2019-10-13T09:50:24.000Z</time>
      </trkpt>
      <trkpt lat="44.24732" lon="2.97597">
        <ele>881</ele>
        <time>2019-10-13T09:50:25.000Z</time>
      </trkpt>
      <trkpt lat="44.24731" lon="2.97598">
        <ele>882</ele>
        <time>2019-10-13T09:50:26.000Z</time>
      </trkpt>
      <trkpt lat="44.2473" lon="2.97599">
        <ele>882</ele>
        <time>2019-10-13T09:50:27.000Z</time>
      </trkpt>
      <trkpt lat="44.24728" lon="2.976">
        <ele>882</ele>
        <time>2019-10-13T09:50:28.000Z</time>
      </trkpt>
      <trkpt lat="44.24727" lon="2.97601">
        <ele>882</ele>
        <time>2019-10-13T09:50:29.000Z</time>
      </trkpt>
      <trkpt lat="44.24726" lon="2.97603">
        <ele>883</ele>
        <time>2019-10-13T09:50:30.000Z</time>
      </trkpt>
      <trkpt lat="44.24724" lon="2.97604">
        <ele>883</ele>
        <time>2019-10-13T09:50:31.000Z</time>
      </trkpt>
      <trkpt lat="44.24723" lon="2.97606">
        <ele>883</ele>
        <time>2019-10-13T09:50:32.000Z</time>
      </trkpt>
      <trkpt lat="44.24722" lon="2.97607">
        <ele>883</ele>
        <time>2019-10-13T09:50:33.000Z</time>
      </trkpt>
      <trkpt lat="44.24721" lon="2.97608">
        <ele>883</ele>
        <time>2019-10-13T09:50:34.000Z</time>
      </trkpt>
      <trkpt lat="44.24719" lon="2.9761">
        <ele>883</ele>
        <time>2019-10-13T09:50:35.000Z</time>
      </trkpt>
      <trkpt lat="44.24718" lon="2.97611">
        <ele>883</ele>
        <time>2019-10-13T09:50:36.000Z</time>
      </trkpt>
      <trkpt lat="44.24717" lon="2.97613">
        <ele>884</ele>
        <time>2019-10-13T09:50:37.000Z</time>
      </trkpt>
      <trkpt lat="44.24715" lon="2.97614">
        <ele>884</ele>
        <time>2019-10-13T09:50:38.000Z</time>
      </trkpt>
      <trkpt lat="44.24714" lon="2.97616">
        <ele>884</ele>
        <time>2019-10-13T09:50:39.000Z</time>
      </trkpt>
      <trkpt lat="44.24713" lon="2.97617">
        <ele>884</ele>
        <time>2019-10-13T09:50:40.000Z</time>
      </trkpt>
      <trkpt lat="44.24712" lon="2.97618">
        <ele>884</ele>
        <time>2019-10-13T09:50:41.000Z</time>
      </trkpt>
      <trkpt lat="44.2471" lon="2.9762">
        <ele>884</ele>
        <time>2019-10-13T09:50:42.000Z</time>
      </trkpt>
      <trkpt lat="44.24709" lon="2.97621">
        <ele>884</ele>
        <time>2019-10-13T09:50:43.000Z</time>
      </trkpt>
      <trkpt lat="44.24708" lon="2.97623">
        <ele>885</ele>
        <time>2019-10-13T09:50:44.000Z</time>
      </trkpt>
      <trkpt lat="44.24707" lon="2.97624">
        <ele>885</ele>
        <time>2019-10-13T09:50:45.000Z</time>
      </trkpt>
      <trkpt lat="44.24706" lon="2.97625">
        <ele>885</ele>
        <time>2019-10-13T09:50:46.000Z</time>
      </trkpt>
      <trkpt lat="44.24704" lon="2.97627">
        <ele>885</ele>
        <time>2019-10-13T09:50:47.000Z</time>
      </trkpt>
      <trkpt lat="44.24703" lon="2.97628">
        <ele>885</ele>
        <time>2019-10-13T09:50:48.000Z</time>
      </trkpt>
      <trkpt lat="44.24701" lon="2.97629">
        <ele>885</ele>
        <time>2019-10-13T09:50:49.000Z</time>
      </trkpt>
      <trkpt lat="44.247" lon="2.9763">
        <ele>886</ele>
        <time>2019-10-13T09:50:50.000Z</time>
      </trkpt>
      <trkpt lat="44.24698" lon="2.9763">
        <ele>886</ele>
        <time>2019-10-13T09:50:51.000Z</time>
      </trkpt>
      <trkpt lat="44.24697" lon="2.97631">
        <ele>886</ele>
        <time>2019-10-13T09:50:52.000Z</time>
      </trkpt>
      <trkpt lat="44.24695" lon="2.97632">
        <ele>886</ele>
        <time>2019-10-13T09:50:53.000Z</time>
      </trkpt>
      <trkpt lat="44.24694" lon="2.97632">
        <ele>887</ele>
        <time>2019-10-13T09:50:54.000Z</time>
      </trkpt>
      <trkpt lat="44.24692" lon="2.97632">
        <ele>887</ele>
        <time>2019-10-13T09:50:55.000Z</time>
      </trkpt>
      <trkpt lat="44.24691" lon="2.97632">
        <ele>887</ele>
        <time>2019-10-13T09:50:56.000Z</time>
      </trkpt>
      <trkpt lat="44.24689" lon="2.97632">
        <ele>887</ele>
        <time>2019-10-13T09:50:57.000Z</time>
      </trkpt>
      <trkpt lat="44.24688" lon="2.97632">
        <ele>887</ele>
        <time>2019-10-13T09:50:58.000Z</time>
      </trkpt>
      <trkpt lat="44.24686" lon="2.97632">
        <ele>888</ele>
        <time>2019-10-13T09:50:59.000Z</time>
      </trkpt>
      <trkpt lat="44.24685" lon="2.97632">
        <ele>888</ele>
        <time>2019-10-13T09:51:00.000Z</time>
      </trkpt>
      <trkpt lat="44.24683" lon="2.97631">
        <ele>888</ele>
        <time>2019-10-13T09:51:01.000Z</time>
      </trkpt>
      <trkpt lat="44.24682" lon="2.97631">
        <ele>888</ele>
        <time>2019-10-13T09:51:02.000Z</time>
      </trkpt>
      <trkpt lat="44.2468" lon="2.97631">
        <ele>889</ele>
        <time>2019-10-13T09:51:03.000Z</time>
      </trkpt>
      <trkpt lat="44.24679" lon="2.9763">
        <ele>889</ele>
        <time>2019-10-13T09:51:04.000Z</time>
      </trkpt>
      <trkpt lat="44.24677" lon="2.9763">
        <ele>889</ele>
        <time>2019-10-13T09:51:05.000Z</time>
      </trkpt>
      <trkpt lat="44.24676" lon="2.97629">
        <ele>889</ele>
        <time>2019-10-13T09:51:06.000Z</time>
      </trkpt>
      <trkpt lat="44.24674" lon="2.97628">
        <ele>889</ele>
        <time>2019-10-13T09:51:07.000Z</time>
      </trkpt>
      <trkpt lat="44.24673" lon="2.97628">
        <ele>889</ele>
        <time>2019-10-13T09:51:08.000Z</time>
      </trkpt>
      <trkpt lat="44.24671" lon="2.97627">
        <ele>890</ele>
        <time>2019-10-13T09:51:09.000Z</time>
      </trkpt>
      <trkpt lat="44.24669" lon="2.97627">
        <ele>890</ele>
        <time>2019-10-13T09:51:10.000Z</time>
      </trkpt>
      <trkpt lat="44.24668" lon="2.97627">
        <ele>890</ele>
        <time>2019-10-13T09:51:11.000Z</time>
      </trkpt>
      <trkpt lat="44.24666" lon="2.97626">
        <ele>890</ele>
        <time>2019-10-13T09:51:12.000Z</time>
      </trkpt>
      <trkpt lat="44.24665" lon="2.97626">
        <ele>890</ele>
        <time>2019-10-13T09:51:13.000Z</time>
      </trkpt>
      <trkpt lat="44.24663" lon="2.97625">
        <ele>891</ele>
        <time>2019-10-13T09:51:14.000Z</time>
      </trkpt>
      <trkpt lat="44.24661" lon="2.97625">
        <ele>891</ele>
        <time>2019-10-13T09:51:15.000Z</time>
      </trkpt>
      <trkpt lat="44.2466" lon="2.97624">
        <ele>891</ele>
        <time>2019-10-13T09:51:16.000Z</time>
      </trkpt>
      <trkpt lat="44.24658" lon="2.97623">
        <ele>891</ele>
        <time>2019-10-13T09:51:17.000Z</time>
      </trkpt>
      <trkpt lat="44.24657" lon="2.97623">
        <ele>891</ele>
        <time>2019-10-13T09:51:18.000Z</time>
      </trkpt>
      <trkpt lat="44.24655" lon="2.97622">
        <ele>891</ele>
        <time>2019-10-13T09:51:19.000Z</time>
      </trkpt>
      <trkpt lat="44.24654" lon="2.97621">
        <ele>891</ele>
        <time>2019-10-13T09:51:20.000Z</time>
      </trkpt>
      <trkpt lat="44.24652" lon="2.9762">
        <ele>891</ele>
        <time>2019-10-13T09:51:21.000Z</time>
      </trkpt>
      <trkpt lat="44.24651" lon="2.97619">
        <ele>892</ele>
        <time>2019-10-13T09:51:22.000Z</time>
      </trkpt>
      <trkpt lat="44.24649" lon="2.97618">
        <ele>892</ele>
        <time>2019-10-13T09:51:23.000Z</time>
      </trkpt>
      <trkpt lat="44.24648" lon="2.97618">
        <ele>892</ele>
        <time>2019-10-13T09:51:24.000Z</time>
      </trkpt>
      <trkpt lat="44.24646" lon="2.97617">
        <ele>892</ele>
        <time>2019-10-13T09:51:25.000Z</time>
      </trkpt>
      <trkpt lat="44.24645" lon="2.97616">
        <ele>892</ele>
        <time>2019-10-13T09:51:26.000Z</time>
      </trkpt>
      <trkpt lat="44.24643" lon="2.97614">
        <ele>892</ele>
        <time>2019-10-13T09:51:27.000Z</time>
      </trkpt>
      <trkpt lat="44.24642" lon="2.97613">
        <ele>892</ele>
        <time>2019-10-13T09:51:28.000Z</time>
      </trkpt>
      <trkpt lat="44.2464" lon="2.97612">
        <ele>892</ele>
        <time>2019-10-13T09:51:29.000Z</time>
      </trkpt>
      <trkpt lat="44.24639" lon="2.9761">
        <ele>892</ele>
        <time>2019-10-13T09:51:30.000Z</time>
      </trkpt>
      <trkpt lat="44.24638" lon="2.97609">
        <ele>892</ele>
        <time>2019-10-13T09:51:31.000Z</time>
      </trkpt>
      <trkpt lat="44.24637" lon="2.97608">
        <ele>892</ele>
        <time>2019-10-13T09:51:32.000Z</time>
      </trkpt>
      <trkpt lat="44.24635" lon="2.97607">
        <ele>892</ele>
        <time>2019-10-13T09:51:33.000Z</time>
      </trkpt>
      <trkpt lat="44.24634" lon="2.97605">
        <ele>892</ele>
        <time>2019-10-13T09:51:34.000Z</time>
      </trkpt>
      <trkpt lat="44.24633" lon="2.97604">
        <ele>892</ele>
        <time>2019-10-13T09:51:35.000Z</time>
      </trkpt>
      <trkpt lat="44.24631" lon="2.97603">
        <ele>892</ele>
        <time>2019-10-13T09:51:36.000Z</time>
      </trkpt>
      <trkpt lat="44.2463" lon="2.97601">
        <ele>892</ele>
        <time>2019-10-13T09:51:37.000Z</time>
      </trkpt>
      <trkpt lat="44.24629" lon="2.976">
        <ele>892</ele>
        <time>2019-10-13T09:51:38.000Z</time>
      </trkpt>
      <trkpt lat="44.24628" lon="2.97598">
        <ele>892</ele>
        <time>2019-10-13T09:51:39.000Z</time>
      </trkpt>
      <trkpt lat="44.24627" lon="2.97597">
        <ele>892</ele>
        <time>2019-10-13T09:51:40.000Z</time>
      </trkpt>
      <trkpt lat="44.24626" lon="2.97595">
        <ele>892</ele>
        <time>2019-10-13T09:51:41.000Z</time>
      </trkpt>
      <trkpt lat="44.24624" lon="2.97594">
        <ele>892</ele>
        <time>2019-10-13T09:51:42.000Z</time>
      </trkpt>
      <trkpt lat="44.24623" lon="2.97593">
        <ele>892</ele>
        <time>2019-10-13T09:51:43.000Z</time>
      </trkpt>
      <trkpt lat="44.24622" lon="2.97592">
        <ele>892</ele>
        <time>2019-10-13T09:51:44.000Z</time>
      </trkpt>
      <trkpt lat="44.24621" lon="2.97591">
        <ele>892</ele>
        <time>2019-10-13T09:51:45.000Z</time>
      </trkpt>
      <trkpt lat="44.2462" lon="2.9759">
        <ele>892</ele>
        <time>2019-10-13T09:51:46.000Z</time>
      </trkpt>
      <trkpt lat="44.24618" lon="2.97589">
        <ele>892</ele>
        <time>2019-10-13T09:51:47.000Z</time>
      </trkpt>
      <trkpt lat="44.24617" lon="2.97588">
        <ele>892</ele>
        <time>2019-10-13T09:51:48.000Z</time>
      </trkpt>
      <trkpt lat="44.24616" lon="2.97586">
        <ele>892</ele>
        <time>2019-10-13T09:51:49.000Z</time>
      </trkpt>
      <trkpt lat="44.24615" lon="2.97585">
        <ele>892</ele>
        <time>2019-10-13T09:51:50.000Z</time>
      </trkpt>
      <trkpt lat="44.24613" lon="2.97584">
        <ele>892</ele>
        <time>2019-10-13T09:51:51.000Z</time>
      </trkpt>
      <trkpt lat="44.24612" lon="2.97583">
        <ele>892</ele>
        <time>2019-10-13T09:51:52.000Z</time>
      </trkpt>
      <trkpt lat="44.2461" lon="2.97582">
        <ele>892</ele>
        <time>2019-10-13T09:51:53.000Z</time>
      </trkpt>
      <trkpt lat="44.24609" lon="2.97581">
        <ele>892</ele>
        <time>2019-10-13T09:51:54.000Z</time>
      </trkpt>
      <trkpt lat="44.24608" lon="2.97581">
        <ele>892</ele>
        <time>2019-10-13T09:51:55.000Z</time>
      </trkpt>
      <trkpt lat="44.24606" lon="2.9758">
        <ele>892</ele>
        <time>2019-10-13T09:51:56.000Z</time>
      </trkpt>
      <trkpt lat="44.24605" lon="2.97579">
        <ele>892</ele>
        <time>2019-10-13T09:51:57.000Z</time>
      </trkpt>
      <trkpt lat="44.24603" lon="2.97578">
        <ele>892</ele>
        <time>2019-10-13T09:51:58.000Z</time>
      </trkpt>
      <trkpt lat="44.24602" lon="2.97578">
        <ele>892</ele>
        <time>2019-10-13T09:51:59.000Z</time>
      </trkpt>
      <trkpt lat="44.246" lon="2.97577">
        <ele>892</ele>
        <time>2019-10-13T09:52:00.000Z</time>
      </trkpt>
      <trkpt lat="44.24599" lon="2.97577">
        <ele>892</ele>
        <time>2019-10-13T09:52:01.000Z</time>
      </trkpt>
      <trkpt lat="44.24597" lon="2.97576">
        <ele>892</ele>
        <time>2019-10-13T09:52:02.000Z</time>
      </trkpt>
      <trkpt lat="44.24595" lon="2.97576">
        <ele>893</ele>
        <time>2019-10-13T09:52:03.000Z</time>
      </trkpt>
      <trkpt lat="44.24594" lon="2.97576">
        <ele>893</ele>
        <time>2019-10-13T09:52:04.000Z</time>
      </trkpt>
      <trkpt lat="44.24592" lon="2.97575">
        <ele>893</ele>
        <time>2019-10-13T09:52:05.000Z</time>
      </trkpt>
      <trkpt lat="44.24591" lon="2.97575">
        <ele>893</ele>
        <time>2019-10-13T09:52:06.000Z</time>
      </trkpt>
      <trkpt lat="44.24589" lon="2.97575">
        <ele>893</ele>
        <time>2019-10-13T09:52:07.000Z</time>
      </trkpt>
      <trkpt lat="44.24588" lon="2.97575">
        <ele>893</ele>
        <time>2019-10-13T09:52:08.000Z</time>
      </trkpt>
      <trkpt lat="44.24586" lon="2.97575">
        <ele>893</ele>
        <time>2019-10-13T09:52:09.000Z</time>
      </trkpt>
      <trkpt lat="44.24584" lon="2.97574">
        <ele>893</ele>
        <time>2019-10-13T09:52:10.000Z</time>
      </trkpt>
      <trkpt lat="44.24583" lon="2.97574">
        <ele>893</ele>
        <time>2019-10-13T09:52:11.000Z</time>
      </trkpt>
      <trkpt lat="44.24581" lon="2.97573">
        <ele>893</ele>
        <time>2019-10-13T09:52:12.000Z</time>
      </trkpt>
      <trkpt lat="44.24579" lon="2.97572">
        <ele>894</ele>
        <time>2019-10-13T09:52:13.000Z</time>
      </trkpt>
      <trkpt lat="44.24578" lon="2.97571">
        <ele>894</ele>
        <time>2019-10-13T09:52:14.000Z</time>
      </trkpt>
      <trkpt lat="44.24577" lon="2.9757">
        <ele>894</ele>
        <time>2019-10-13T09:52:15.000Z</time>
      </trkpt>
      <trkpt lat="44.24576" lon="2.97568">
        <ele>894</ele>
        <time>2019-10-13T09:52:16.000Z</time>
      </trkpt>
      <trkpt lat="44.24574" lon="2.97567">
        <ele>894</ele>
        <time>2019-10-13T09:52:17.000Z</time>
      </trkpt>
      <trkpt lat="44.24573" lon="2.97566">
        <ele>894</ele>
        <time>2019-10-13T09:52:18.000Z</time>
      </trkpt>
      <trkpt lat="44.24572" lon="2.97564">
        <ele>895</ele>
        <time>2019-10-13T09:52:19.000Z</time>
      </trkpt>
      <trkpt lat="44.24571" lon="2.97562">
        <ele>895</ele>
        <time>2019-10-13T09:52:20.000Z</time>
      </trkpt>
      <trkpt lat="44.24571" lon="2.9756">
        <ele>895</ele>
        <time>2019-10-13T09:52:21.000Z</time>
      </trkpt>
      <trkpt lat="44.2457" lon="2.97558">
        <ele>895</ele>
        <time>2019-10-13T09:52:22.000Z</time>
      </trkpt>
      <trkpt lat="44.24569" lon="2.97557">
        <ele>896</ele>
        <time>2019-10-13T09:52:23.000Z</time>
      </trkpt>
      <trkpt lat="44.24568" lon="2.97555">
        <ele>896</ele>
        <time>2019-10-13T09:52:24.000Z</time>
      </trkpt>
      <trkpt lat="44.24567" lon="2.97554">
        <ele>896</ele>
        <time>2019-10-13T09:52:25.000Z</time>
      </trkpt>
      <trkpt lat="44.24566" lon="2.97552">
        <ele>896</ele>
        <time>2019-10-13T09:52:26.000Z</time>
      </trkpt>
      <trkpt lat="44.24565" lon="2.9755">
        <ele>896</ele>
        <time>2019-10-13T09:52:27.000Z</time>
      </trkpt>
      <trkpt lat="44.24564" lon="2.97549">
        <ele>896</ele>
        <time>2019-10-13T09:52:28.000Z</time>
      </trkpt>
      <trkpt lat="44.24563" lon="2.97547">
        <ele>897</ele>
        <time>2019-10-13T09:52:29.000Z</time>
      </trkpt>
      <trkpt lat="44.24562" lon="2.97546">
        <ele>897</ele>
        <time>2019-10-13T09:52:30.000Z</time>
      </trkpt>
      <trkpt lat="44.24561" lon="2.97544">
        <ele>897</ele>
        <time>2019-10-13T09:52:31.000Z</time>
      </trkpt>
      <trkpt lat="44.2456" lon="2.97543">
        <ele>897</ele>
        <time>2019-10-13T09:52:32.000Z</time>
      </trkpt>
      <trkpt lat="44.24559" lon="2.97541">
        <ele>897</ele>
        <time>2019-10-13T09:52:33.000Z</time>
      </trkpt>
      <trkpt lat="44.24558" lon="2.97539">
        <ele>898</ele>
        <time>2019-10-13T09:52:34.000Z</time>
      </trkpt>
      <trkpt lat="44.24557" lon="2.97537">
        <ele>898</ele>
        <time>2019-10-13T09:52:35.000Z</time>
      </trkpt>
      <trkpt lat="44.24556" lon="2.97535">
        <ele>898</ele>
        <time>2019-10-13T09:52:36.000Z</time>
      </trkpt>
      <trkpt lat="44.24555" lon="2.97533">
        <ele>898</ele>
        <time>2019-10-13T09:52:37.000Z</time>
      </trkpt>
      <trkpt lat="44.24554" lon="2.97531">
        <ele>898</ele>
        <time>2019-10-13T09:52:38.000Z</time>
      </trkpt>
      <trkpt lat="44.24554" lon="2.97529">
        <ele>899</ele>
        <time>2019-10-13T09:52:39.000Z</time>
      </trkpt>
      <trkpt lat="44.24553" lon="2.97527">
        <ele>899</ele>
        <time>2019-10-13T09:52:40.000Z</time>
      </trkpt>
      <trkpt lat="44.24553" lon="2.97525">
        <ele>899</ele>
        <time>2019-10-13T09:52:41.000Z</time>
      </trkpt>
      <trkpt lat="44.24552" lon="2.97522">
        <ele>899</ele>
        <time>2019-10-13T09:52:42.000Z</time>
      </trkpt>
      <trkpt lat="44.24551" lon="2.9752">
        <ele>899</ele>
        <time>2019-10-13T09:52:43.000Z</time>
      </trkpt>
      <trkpt lat="44.2455" lon="2.97519">
        <ele>900</ele>
        <time>2019-10-13T09:52:44.000Z</time>
      </trkpt>
      <trkpt lat="44.2455" lon="2.97517">
        <ele>900</ele>
        <time>2019-10-13T09:52:45.000Z</time>
      </trkpt>
      <trkpt lat="44.24549" lon="2.97514">
        <ele>900</ele>
        <time>2019-10-13T09:52:46.000Z</time>
      </trkpt>
      <trkpt lat="44.24548" lon="2.97512">
        <ele>900</ele>
        <time>2019-10-13T09:52:47.000Z</time>
      </trkpt>
      <trkpt lat="44.24547" lon="2.9751">
        <ele>901</ele>
        <time>2019-10-13T09:52:48.000Z</time>
      </trkpt>
      <trkpt lat="44.24547" lon="2.97507">
        <ele>901</ele>
        <time>2019-10-13T09:52:49.000Z</time>
      </trkpt>
      <trkpt lat="44.24546" lon="2.97505">
        <ele>901</ele>
        <time>2019-10-13T09:52:50.000Z</time>
      </trkpt>
      <trkpt lat="44.24545" lon="2.97504">
        <ele>901</ele>
        <time>2019-10-13T09:52:51.000Z</time>
      </trkpt>
      <trkpt lat="44.24545" lon="2.97502">
        <ele>902</ele>
        <time>2019-10-13T09:52:52.000Z</time>
      </trkpt>
      <trkpt lat="44.24544" lon="2.97499">
        <ele>902</ele>
        <time>2019-10-13T09:52:53.000Z</time>
      </trkpt>
      <trkpt lat="44.24544" lon="2.97497">
        <ele>902</ele>
        <time>2019-10-13T09:52:54.000Z</time>
      </trkpt>
      <trkpt lat="44.24544" lon="2.97495">
        <ele>902</ele>
        <time>2019-10-13T09:52:55.000Z</time>
      </trkpt>
      <trkpt lat="44.24543" lon="2.97493">
        <ele>902</ele>
        <time>2019-10-13T09:52:56.000Z</time>
      </trkpt>
      <trkpt lat="44.24543" lon="2.97491">
        <ele>902</ele>
        <time>2019-10-13T09:52:57.000Z</time>
      </trkpt>
      <trkpt lat="44.24543" lon="2.97489">
        <ele>902</ele>
        <time>2019-10-13T09:52:58.000Z</time>
      </trkpt>
      <trkpt lat="44.24542" lon="2.97487">
        <ele>902</ele>
        <time>2019-10-13T09:52:59.000Z</time>
      </trkpt>
      <trkpt lat="44.24542" lon="2.97485">
        <ele>903</ele>
        <time>2019-10-13T09:53:00.000Z</time>
      </trkpt>
      <trkpt lat="44.24542" lon="2.97483">
        <ele>903</ele>
        <time>2019-10-13T09:53:01.000Z</time>
      </trkpt>
      <trkpt lat="44.24542" lon="2.97481">
        <ele>903</ele>
        <time>2019-10-13T09:53:02.000Z</time>
      </trkpt>
      <trkpt lat="44.24541" lon="2.97479">
        <ele>903</ele>
        <time>2019-10-13T09:53:03.000Z</time>
      </trkpt>
      <trkpt lat="44.24541" lon="2.97477">
        <ele>903</ele>
        <time>2019-10-13T09:53:04.000Z</time>
      </trkpt>
      <trkpt lat="44.24541" lon="2.97475">
        <ele>904</ele>
        <time>2019-10-13T09:53:05.000Z</time>
      </trkpt>
      <trkpt lat="44.24541" lon="2.97473">
        <ele>904</ele>
        <time>2019-10-13T09:53:06.000Z</time>
      </trkpt>
      <trkpt lat="44.2454" lon="2.97471">
        <ele>904</ele>
        <time>2019-10-13T09:53:07.000Z</time>
      </trkpt>
      <trkpt lat="44.2454" lon="2.97469">
        <ele>904</ele>
        <time>2019-10-13T09:53:08.000Z</time>
      </trkpt>
      <trkpt lat="44.2454" lon="2.97467">
        <ele>904</ele>
        <time>2019-10-13T09:53:09.000Z</time>
      </trkpt>
      <trkpt lat="44.2454" lon="2.97464">
        <ele>905</ele>
        <time>2019-10-13T09:53:10.000Z</time>
      </trkpt>
      <trkpt lat="44.2454" lon="2.97462">
        <ele>905</ele>
        <time>2019-10-13T09:53:11.000Z</time>
      </trkpt>
      <trkpt lat="44.2454" lon="2.9746">
        <ele>905</ele>
        <time>2019-10-13T09:53:12.000Z</time>
      </trkpt>
      <trkpt lat="44.2454" lon="2.97458">
        <ele>905</ele>
        <time>2019-10-13T09:53:13.000Z</time>
      </trkpt>
      <trkpt lat="44.24539" lon="2.97456">
        <ele>905</ele>
        <time>2019-10-13T09:53:14.000Z</time>
      </trkpt>
      <trkpt lat="44.24539" lon="2.97454">
        <ele>906</ele>
        <time>2019-10-13T09:53:15.000Z</time>
      </trkpt>
      <trkpt lat="44.24539" lon="2.97451">
        <ele>906</ele>
        <time>2019-10-13T09:53:16.000Z</time>
      </trkpt>
      <trkpt lat="44.24538" lon="2.97449">
        <ele>906</ele>
        <time>2019-10-13T09:53:17.000Z</time>
      </trkpt>
      <trkpt lat="44.24538" lon="2.97447">
        <ele>906</ele>
        <time>2019-10-13T09:53:18.000Z</time>
      </trkpt>
      <trkpt lat="44.24538" lon="2.97445">
        <ele>906</ele>
        <time>2019-10-13T09:53:19.000Z</time>
      </trkpt>
      <trkpt lat="44.24537" lon="2.97443">
        <ele>906</ele>
        <time>2019-10-13T09:53:20.000Z</time>
      </trkpt>
      <trkpt lat="44.24537" lon="2.97441">
        <ele>907</ele>
        <time>2019-10-13T09:53:21.000Z</time>
      </trkpt>
      <trkpt lat="44.24536" lon="2.97438">
        <ele>907</ele>
        <time>2019-10-13T09:53:22.000Z</time>
      </trkpt>
      <trkpt lat="44.24536" lon="2.97436">
        <ele>907</ele>
        <time>2019-10-13T09:53:23.000Z</time>
      </trkpt>
      <trkpt lat="44.24535" lon="2.97434">
        <ele>907</ele>
        <time>2019-10-13T09:53:24.000Z</time>
      </trkpt>
      <trkpt lat="44.24535" lon="2.97432">
        <ele>907</ele>
        <time>2019-10-13T09:53:25.000Z</time>
      </trkpt>
      <trkpt lat="44.24534" lon="2.9743">
        <ele>908</ele>
        <time>2019-10-13T09:53:26.000Z</time>
      </trkpt>
      <trkpt lat="44.24534" lon="2.97428">
        <ele>908</ele>
        <time>2019-10-13T09:53:27.000Z</time>
      </trkpt>
      <trkpt lat="44.24533" lon="2.97427">
        <ele>908</ele>
        <time>2019-10-13T09:53:28.000Z</time>
      </trkpt>
      <trkpt lat="44.24533" lon="2.97425">
        <ele>908</ele>
        <time>2019-10-13T09:53:29.000Z</time>
      </trkpt>
      <trkpt lat="44.24532" lon="2.97422">
        <ele>908</ele>
        <time>2019-10-13T09:53:30.000Z</time>
      </trkpt>
      <trkpt lat="44.24532" lon="2.9742">
        <ele>908</ele>
        <time>2019-10-13T09:53:31.000Z</time>
      </trkpt>
      <trkpt lat="44.24532" lon="2.97418">
        <ele>909</ele>
        <time>2019-10-13T09:53:32.000Z</time>
      </trkpt>
      <trkpt lat="44.24531" lon="2.97416">
        <ele>909</ele>
        <time>2019-10-13T09:53:33.000Z</time>
      </trkpt>
      <trkpt lat="44.24531" lon="2.97414">
        <ele>909</ele>
        <time>2019-10-13T09:53:34.000Z</time>
      </trkpt>
      <trkpt lat="44.2453" lon="2.97412">
        <ele>909</ele>
        <time>2019-10-13T09:53:35.000Z</time>
      </trkpt>
      <trkpt lat="44.2453" lon="2.9741">
        <ele>909</ele>
        <time>2019-10-13T09:53:36.000Z</time>
      </trkpt>
      <trkpt lat="44.2453" lon="2.97407">
        <ele>909</ele>
        <time>2019-10-13T09:53:37.000Z</time>
      </trkpt>
      <trkpt lat="44.24529" lon="2.97405">
        <ele>909</ele>
        <time>2019-10-13T09:53:38.000Z</time>
      </trkpt>
      <trkpt lat="44.24529" lon="2.97403">
        <ele>909</ele>
        <time>2019-10-13T09:53:39.000Z</time>
      </trkpt>
      <trkpt lat="44.24528" lon="2.97401">
        <ele>910</ele>
        <time>2019-10-13T09:53:40.000Z</time>
      </trkpt>
      <trkpt lat="44.24528" lon="2.97399">
        <ele>910</ele>
        <time>2019-10-13T09:53:41.000Z</time>
      </trkpt>
      <trkpt lat="44.24527" lon="2.97397">
        <ele>910</ele>
        <time>2019-10-13T09:53:42.000Z</time>
      </trkpt>
      <trkpt lat="44.24526" lon="2.97395">
        <ele>910</ele>
        <time>2019-10-13T09:53:43.000Z</time>
      </trkpt>
      <trkpt lat="44.24525" lon="2.97393">
        <ele>910</ele>
        <time>2019-10-13T09:53:44.000Z</time>
      </trkpt>
      <trkpt lat="44.24525" lon="2.97391">
        <ele>910</ele>
        <time>2019-10-13T09:53:45.000Z</time>
      </trkpt>
      <trkpt lat="44.24524" lon="2.9739">
        <ele>911</ele>
        <time>2019-10-13T09:53:46.000Z</time>
      </trkpt>
      <trkpt lat="44.24522" lon="2.97389">
        <ele>911</ele>
        <time>2019-10-13T09:53:47.000Z</time>
      </trkpt>
      <trkpt lat="44.24521" lon="2.97388">
        <ele>911</ele>
        <time>2019-10-13T09:53:48.000Z</time>
      </trkpt>
      <trkpt lat="44.2452" lon="2.97387">
        <ele>911</ele>
        <time>2019-10-13T09:53:49.000Z</time>
      </trkpt>
      <trkpt lat="44.24518" lon="2.97385">
        <ele>911</ele>
        <time>2019-10-13T09:53:50.000Z</time>
      </trkpt>
      <trkpt lat="44.24517" lon="2.97384">
        <ele>912</ele>
        <time>2019-10-13T09:53:51.000Z</time>
      </trkpt>
      <trkpt lat="44.24516" lon="2.97384">
        <ele>912</ele>
        <time>2019-10-13T09:53:52.000Z</time>
      </trkpt>
      <trkpt lat="44.24514" lon="2.97383">
        <ele>912</ele>
        <time>2019-10-13T09:53:53.000Z</time>
      </trkpt>
      <trkpt lat="44.24513" lon="2.97382">
        <ele>913</ele>
        <time>2019-10-13T09:53:54.000Z</time>
      </trkpt>
      <trkpt lat="44.24512" lon="2.97382">
        <ele>913</ele>
        <time>2019-10-13T09:53:55.000Z</time>
      </trkpt>
      <trkpt lat="44.2451" lon="2.97381">
        <ele>913</ele>
        <time>2019-10-13T09:53:56.000Z</time>
      </trkpt>
      <trkpt lat="44.24508" lon="2.97381">
        <ele>913</ele>
        <time>2019-10-13T09:53:57.000Z</time>
      </trkpt>
      <trkpt lat="44.24507" lon="2.97381">
        <ele>913</ele>
        <time>2019-10-13T09:53:58.000Z</time>
      </trkpt>
      <trkpt lat="44.24506" lon="2.97381">
        <ele>914</ele>
        <time>2019-10-13T09:53:59.000Z</time>
      </trkpt>
      <trkpt lat="44.24504" lon="2.97381">
        <ele>914</ele>
        <time>2019-10-13T09:54:00.000Z</time>
      </trkpt>
      <trkpt lat="44.24502" lon="2.97381">
        <ele>914</ele>
        <time>2019-10-13T09:54:01.000Z</time>
      </trkpt>
      <trkpt lat="44.24501" lon="2.97381">
        <ele>914</ele>
        <time>2019-10-13T09:54:02.000Z</time>
      </trkpt>
      <trkpt lat="44.24499" lon="2.9738">
        <ele>914</ele>
        <time>2019-10-13T09:54:03.000Z</time>
      </trkpt>
      <trkpt lat="44.24498" lon="2.9738">
        <ele>914</ele>
        <time>2019-10-13T09:54:04.000Z</time>
      </trkpt>
      <trkpt lat="44.24496" lon="2.9738">
        <ele>914</ele>
        <time>2019-10-13T09:54:05.000Z</time>
      </trkpt>
      <trkpt lat="44.24494" lon="2.97379">
        <ele>914</ele>
        <time>2019-10-13T09:54:06.000Z</time>
      </trkpt>
      <trkpt lat="44.24493" lon="2.97379">
        <ele>915</ele>
        <time>2019-10-13T09:54:07.000Z</time>
      </trkpt>
      <trkpt lat="44.24491" lon="2.97378">
        <ele>915</ele>
        <time>2019-10-13T09:54:08.000Z</time>
      </trkpt>
      <trkpt lat="44.24489" lon="2.97378">
        <ele>915</ele>
        <time>2019-10-13T09:54:09.000Z</time>
      </trkpt>
      <trkpt lat="44.24488" lon="2.97377">
        <ele>915</ele>
        <time>2019-10-13T09:54:10.000Z</time>
      </trkpt>
      <trkpt lat="44.24486" lon="2.97377">
        <ele>915</ele>
        <time>2019-10-13T09:54:11.000Z</time>
      </trkpt>
      <trkpt lat="44.24485" lon="2.97377">
        <ele>915</ele>
        <time>2019-10-13T09:54:12.000Z</time>
      </trkpt>
      <trkpt lat="44.24483" lon="2.97376">
        <ele>915</ele>
        <time>2019-10-13T09:54:13.000Z</time>
      </trkpt>
      <trkpt lat="44.24482" lon="2.97375">
        <ele>915</ele>
        <time>2019-10-13T09:54:14.000Z</time>
      </trkpt>
      <trkpt lat="44.2448" lon="2.97375">
        <ele>915</ele>
        <time>2019-10-13T09:54:15.000Z</time>
      </trkpt>
      <trkpt lat="44.24479" lon="2.97373">
        <ele>915</ele>
        <time>2019-10-13T09:54:16.000Z</time>
      </trkpt>
      <trkpt lat="44.24477" lon="2.97371">
        <ele>915</ele>
        <time>2019-10-13T09:54:17.000Z</time>
      </trkpt>
      <trkpt lat="44.24476" lon="2.97369">
        <ele>914</ele>
        <time>2019-10-13T09:54:18.000Z</time>
      </trkpt>
      <trkpt lat="44.24475" lon="2.97367">
        <ele>914</ele>
        <time>2019-10-13T09:54:19.000Z</time>
      </trkpt>
      <trkpt lat="44.24475" lon="2.97365">
        <ele>914</ele>
        <time>2019-10-13T09:54:20.000Z</time>
      </trkpt>
      <trkpt lat="44.24474" lon="2.97362">
        <ele>914</ele>
        <time>2019-10-13T09:54:21.000Z</time>
      </trkpt>
      <trkpt lat="44.24474" lon="2.9736">
        <ele>914</ele>
        <time>2019-10-13T09:54:22.000Z</time>
      </trkpt>
      <trkpt lat="44.24474" lon="2.97357">
        <ele>914</ele>
        <time>2019-10-13T09:54:23.000Z</time>
      </trkpt>
      <trkpt lat="44.24474" lon="2.97355">
        <ele>914</ele>
        <time>2019-10-13T09:54:24.000Z</time>
      </trkpt>
      <trkpt lat="44.24475" lon="2.97352">
        <ele>914</ele>
        <time>2019-10-13T09:54:25.000Z</time>
      </trkpt>
      <trkpt lat="44.24475" lon="2.9735">
        <ele>914</ele>
        <time>2019-10-13T09:54:26.000Z</time>
      </trkpt>
      <trkpt lat="44.24476" lon="2.97348">
        <ele>914</ele>
        <time>2019-10-13T09:54:27.000Z</time>
      </trkpt>
      <trkpt lat="44.24476" lon="2.97345">
        <ele>914</ele>
        <time>2019-10-13T09:54:28.000Z</time>
      </trkpt>
      <trkpt lat="44.24477" lon="2.97343">
        <ele>914</ele>
        <time>2019-10-13T09:54:29.000Z</time>
      </trkpt>
      <trkpt lat="44.24477" lon="2.97341">
        <ele>914</ele>
        <time>2019-10-13T09:54:30.000Z</time>
      </trkpt>
      <trkpt lat="44.24478" lon="2.97339">
        <ele>914</ele>
        <time>2019-10-13T09:54:31.000Z</time>
      </trkpt>
      <trkpt lat="44.24479" lon="2.97336">
        <ele>914</ele>
        <time>2019-10-13T09:54:32.000Z</time>
      </trkpt>
      <trkpt lat="44.24479" lon="2.97334">
        <ele>914</ele>
        <time>2019-10-13T09:54:33.000Z</time>
      </trkpt>
      <trkpt lat="44.2448" lon="2.97332">
        <ele>914</ele>
        <time>2019-10-13T09:54:34.000Z</time>
      </trkpt>
      <trkpt lat="44.2448" lon="2.9733">
        <ele>913</ele>
        <time>2019-10-13T09:54:35.000Z</time>
      </trkpt>
      <trkpt lat="44.24481" lon="2.97327">
        <ele>913</ele>
        <time>2019-10-13T09:54:36.000Z</time>
      </trkpt>
      <trkpt lat="44.24482" lon="2.97325">
        <ele>913</ele>
        <time>2019-10-13T09:54:37.000Z</time>
      </trkpt>
      <trkpt lat="44.24483" lon="2.97323">
        <ele>913</ele>
        <time>2019-10-13T09:54:38.000Z</time>
      </trkpt>
      <trkpt lat="44.24483" lon="2.97321">
        <ele>913</ele>
        <time>2019-10-13T09:54:39.000Z</time>
      </trkpt>
      <trkpt lat="44.24484" lon="2.97318">
        <ele>914</ele>
        <time>2019-10-13T09:54:40.000Z</time>
      </trkpt>
      <trkpt lat="44.24485" lon="2.97316">
        <ele>913</ele>
        <time>2019-10-13T09:54:41.000Z</time>
      </trkpt>
      <trkpt lat="44.24485" lon="2.97314">
        <ele>913</ele>
        <time>2019-10-13T09:54:42.000Z</time>
      </trkpt>
      <trkpt lat="44.24486" lon="2.97312">
        <ele>913</ele>
        <time>2019-10-13T09:54:43.000Z</time>
      </trkpt>
      <trkpt lat="44.24486" lon="2.97309">
        <ele>913</ele>
        <time>2019-10-13T09:54:44.000Z</time>
      </trkpt>
      <trkpt lat="44.24487" lon="2.97307">
        <ele>913</ele>
        <time>2019-10-13T09:54:45.000Z</time>
      </trkpt>
      <trkpt lat="44.24488" lon="2.97305">
        <ele>913</ele>
        <time>2019-10-13T09:54:46.000Z</time>
      </trkpt>
      <trkpt lat="44.24488" lon="2.97303">
        <ele>913</ele>
        <time>2019-10-13T09:54:47.000Z</time>
      </trkpt>
      <trkpt lat="44.24489" lon="2.97301">
        <ele>913</ele>
        <time>2019-10-13T09:54:48.000Z</time>
      </trkpt>
      <trkpt lat="44.2449" lon="2.97299">
        <ele>913</ele>
        <time>2019-10-13T09:54:49.000Z</time>
      </trkpt>
      <trkpt lat="44.2449" lon="2.97297">
        <ele>913</ele>
        <time>2019-10-13T09:54:50.000Z</time>
      </trkpt>
      <trkpt lat="44.24491" lon="2.97295">
        <ele>913</ele>
        <time>2019-10-13T09:54:51.000Z</time>
      </trkpt>
      <trkpt lat="44.24492" lon="2.97293">
        <ele>913</ele>
        <time>2019-10-13T09:54:52.000Z</time>
      </trkpt>
      <trkpt lat="44.24493" lon="2.97291">
        <ele>913</ele>
        <time>2019-10-13T09:54:53.000Z</time>
      </trkpt>
      <trkpt lat="44.24493" lon="2.97289">
        <ele>913</ele>
        <time>2019-10-13T09:54:54.000Z</time>
      </trkpt>
      <trkpt lat="44.24494" lon="2.97287">
        <ele>913</ele>
        <time>2019-10-13T09:54:55.000Z</time>
      </trkpt>
      <trkpt lat="44.24495" lon="2.97285">
        <ele>913</ele>
        <time>2019-10-13T09:54:56.000Z</time>
      </trkpt>
      <trkpt lat="44.24495" lon="2.97282">
        <ele>913</ele>
        <time>2019-10-13T09:54:57.000Z</time>
      </trkpt>
      <trkpt lat="44.24496" lon="2.9728">
        <ele>913</ele>
        <time>2019-10-13T09:54:58.000Z</time>
      </trkpt>
      <trkpt lat="44.24497" lon="2.97278">
        <ele>913</ele>
        <time>2019-10-13T09:54:59.000Z</time>
      </trkpt>
      <trkpt lat="44.24497" lon="2.97275">
        <ele>913</ele>
        <time>2019-10-13T09:55:00.000Z</time>
      </trkpt>
      <trkpt lat="44.24498" lon="2.97273">
        <ele>913</ele>
        <time>2019-10-13T09:55:01.000Z</time>
      </trkpt>
      <trkpt lat="44.24499" lon="2.97271">
        <ele>913</ele>
        <time>2019-10-13T09:55:02.000Z</time>
      </trkpt>
      <trkpt lat="44.245" lon="2.97269">
        <ele>913</ele>
        <time>2019-10-13T09:55:03.000Z</time>
      </trkpt>
      <trkpt lat="44.245" lon="2.97266">
        <ele>913</ele>
        <time>2019-10-13T09:55:04.000Z</time>
      </trkpt>
      <trkpt lat="44.24501" lon="2.97264">
        <ele>913</ele>
        <time>2019-10-13T09:55:05.000Z</time>
      </trkpt>
      <trkpt lat="44.24502" lon="2.97262">
        <ele>913</ele>
        <time>2019-10-13T09:55:06.000Z</time>
      </trkpt>
      <trkpt lat="44.24503" lon="2.9726">
        <ele>913</ele>
        <time>2019-10-13T09:55:07.000Z</time>
      </trkpt>
      <trkpt lat="44.24503" lon="2.97257">
        <ele>913</ele>
        <time>2019-10-13T09:55:08.000Z</time>
      </trkpt>
      <trkpt lat="44.24504" lon="2.97255">
        <ele>913</ele>
        <time>2019-10-13T09:55:09.000Z</time>
      </trkpt>
      <trkpt lat="44.24505" lon="2.97253">
        <ele>914</ele>
        <time>2019-10-13T09:55:10.000Z</time>
      </trkpt>
      <trkpt lat="44.24505" lon="2.97251">
        <ele>914</ele>
        <time>2019-10-13T09:55:11.000Z</time>
      </trkpt>
      <trkpt lat="44.24506" lon="2.97249">
        <ele>914</ele>
        <time>2019-10-13T09:55:12.000Z</time>
      </trkpt>
      <trkpt lat="44.24507" lon="2.97247">
        <ele>914</ele>
        <time>2019-10-13T09:55:13.000Z</time>
      </trkpt>
      <trkpt lat="44.24508" lon="2.97245">
        <ele>914</ele>
        <time>2019-10-13T09:55:14.000Z</time>
      </trkpt>
      <trkpt lat="44.24508" lon="2.97243">
        <ele>914</ele>
        <time>2019-10-13T09:55:15.000Z</time>
      </trkpt>
      <trkpt lat="44.24509" lon="2.9724">
        <ele>914</ele>
        <time>2019-10-13T09:55:16.000Z</time>
      </trkpt>
      <trkpt lat="44.2451" lon="2.97238">
        <ele>914</ele>
        <time>2019-10-13T09:55:17.000Z</time>
      </trkpt>
      <trkpt lat="44.2451" lon="2.97236">
        <ele>914</ele>
        <time>2019-10-13T09:55:18.000Z</time>
      </trkpt>
      <trkpt lat="44.24511" lon="2.97234">
        <ele>914</ele>
        <time>2019-10-13T09:55:19.000Z</time>
      </trkpt>
      <trkpt lat="44.24512" lon="2.97231">
        <ele>914</ele>
        <time>2019-10-13T09:55:20.000Z</time>
      </trkpt>
      <trkpt lat="44.24512" lon="2.97229">
        <ele>914</ele>
        <time>2019-10-13T09:55:21.000Z</time>
      </trkpt>
      <trkpt lat="44.24513" lon="2.97227">
        <ele>914</ele>
        <time>2019-10-13T09:55:22.000Z</time>
      </trkpt>
      <trkpt lat="44.24514" lon="2.97225">
        <ele>914</ele>
        <time>2019-10-13T09:55:23.000Z</time>
      </trkpt>
      <trkpt lat="44.24514" lon="2.97223">
        <ele>914</ele>
        <time>2019-10-13T09:55:24.000Z</time>
      </trkpt>
      <trkpt lat="44.24515" lon="2.97221">
        <ele>914</ele>
        <time>2019-10-13T09:55:25.000Z</time>
      </trkpt>
      <trkpt lat="44.24516" lon="2.97218">
        <ele>914</ele>
        <time>2019-10-13T09:55:26.000Z</time>
      </trkpt>
      <trkpt lat="44.24517" lon="2.97216">
        <ele>914</ele>
        <time>2019-10-13T09:55:27.000Z</time>
      </trkpt>
      <trkpt lat="44.24517" lon="2.97214">
        <ele>914</ele>
        <time>2019-10-13T09:55:28.000Z</time>
      </trkpt>
      <trkpt lat="44.24518" lon="2.97212">
        <ele>914</ele>
        <time>2019-10-13T09:55:29.000Z</time>
      </trkpt>
      <trkpt lat="44.24519" lon="2.9721">
        <ele>914</ele>
        <time>2019-10-13T09:55:30.000Z</time>
      </trkpt>
      <trkpt lat="44.24519" lon="2.97208">
        <ele>914</ele>
        <time>2019-10-13T09:55:31.000Z</time>
      </trkpt>
      <trkpt lat="44.2452" lon="2.97206">
        <ele>914</ele>
        <time>2019-10-13T09:55:32.000Z</time>
      </trkpt>
      <trkpt lat="44.2452" lon="2.97204">
        <ele>914</ele>
        <time>2019-10-13T09:55:33.000Z</time>
      </trkpt>
      <trkpt lat="44.24521" lon="2.97201">
        <ele>914</ele>
        <time>2019-10-13T09:55:34.000Z</time>
      </trkpt>
      <trkpt lat="44.24522" lon="2.97199">
        <ele>914</ele>
        <time>2019-10-13T09:55:35.000Z</time>
      </trkpt>
      <trkpt lat="44.24523" lon="2.97197">
        <ele>914</ele>
        <time>2019-10-13T09:55:36.000Z</time>
      </trkpt>
      <trkpt lat="44.24523" lon="2.97194">
        <ele>914</ele>
        <time>2019-10-13T09:55:37.000Z</time>
      </trkpt>
      <trkpt lat="44.24524" lon="2.97192">
        <ele>915</ele>
        <time>2019-10-13T09:55:38.000Z</time>
      </trkpt>
      <trkpt lat="44.24524" lon="2.9719">
        <ele>915</ele>
        <time>2019-10-13T09:55:39.000Z</time>
      </trkpt>
      <trkpt lat="44.24525" lon="2.97188">
        <ele>915</ele>
        <time>2019-10-13T09:55:40.000Z</time>
      </trkpt>
      <trkpt lat="44.24526" lon="2.97185">
        <ele>915</ele>
        <time>2019-10-13T09:55:41.000Z</time>
      </trkpt>
      <trkpt lat="44.24526" lon="2.97183">
        <ele>915</ele>
        <time>2019-10-13T09:55:42.000Z</time>
      </trkpt>
      <trkpt lat="44.24527" lon="2.97181">
        <ele>915</ele>
        <time>2019-10-13T09:55:43.000Z</time>
      </trkpt>
      <trkpt lat="44.24527" lon="2.97178">
        <ele>915</ele>
        <time>2019-10-13T09:55:44.000Z</time>
      </trkpt>
      <trkpt lat="44.24528" lon="2.97176">
        <ele>915</ele>
        <time>2019-10-13T09:55:45.000Z</time>
      </trkpt>
      <trkpt lat="44.24528" lon="2.97174">
        <ele>915</ele>
        <time>2019-10-13T09:55:46.000Z</time>
      </trkpt>
      <trkpt lat="44.24528" lon="2.97171">
        <ele>915</ele>
        <time>2019-10-13T09:55:47.000Z</time>
      </trkpt>
      <trkpt lat="44.24528" lon="2.97169">
        <ele>915</ele>
        <time>2019-10-13T09:55:48.000Z</time>
      </trkpt>
      <trkpt lat="44.24527" lon="2.97167">
        <ele>915</ele>
        <time>2019-10-13T09:55:49.000Z</time>
      </trkpt>
      <trkpt lat="44.24527" lon="2.97165">
        <ele>915</ele>
        <time>2019-10-13T09:55:50.000Z</time>
      </trkpt>
      <trkpt lat="44.24526" lon="2.97163">
        <ele>915</ele>
        <time>2019-10-13T09:55:51.000Z</time>
      </trkpt>
      <trkpt lat="44.24526" lon="2.97161">
        <ele>915</ele>
        <time>2019-10-13T09:55:52.000Z</time>
      </trkpt>
      <trkpt lat="44.24525" lon="2.97159">
        <ele>915</ele>
        <time>2019-10-13T09:55:53.000Z</time>
      </trkpt>
      <trkpt lat="44.24523" lon="2.97158">
        <ele>916</ele>
        <time>2019-10-13T09:55:54.000Z</time>
      </trkpt>
      <trkpt lat="44.24522" lon="2.97156">
        <ele>916</ele>
        <time>2019-10-13T09:55:55.000Z</time>
      </trkpt>
      <trkpt lat="44.24521" lon="2.97155">
        <ele>916</ele>
        <time>2019-10-13T09:55:56.000Z</time>
      </trkpt>
      <trkpt lat="44.24519" lon="2.97153">
        <ele>916</ele>
        <time>2019-10-13T09:55:57.000Z</time>
      </trkpt>
      <trkpt lat="44.24518" lon="2.97152">
        <ele>916</ele>
        <time>2019-10-13T09:55:58.000Z</time>
      </trkpt>
      <trkpt lat="44.24517" lon="2.9715">
        <ele>916</ele>
        <time>2019-10-13T09:55:59.000Z</time>
      </trkpt>
      <trkpt lat="44.24515" lon="2.97149">
        <ele>916</ele>
        <time>2019-10-13T09:56:00.000Z</time>
      </trkpt>
      <trkpt lat="44.24514" lon="2.97147">
        <ele>916</ele>
        <time>2019-10-13T09:56:01.000Z</time>
      </trkpt>
      <trkpt lat="44.24513" lon="2.97146">
        <ele>916</ele>
        <time>2019-10-13T09:56:02.000Z</time>
      </trkpt>
      <trkpt lat="44.24512" lon="2.97145">
        <ele>916</ele>
        <time>2019-10-13T09:56:03.000Z</time>
      </trkpt>
      <trkpt lat="44.24511" lon="2.97143">
        <ele>916</ele>
        <time>2019-10-13T09:56:04.000Z</time>
      </trkpt>
      <trkpt lat="44.24509" lon="2.97142">
        <ele>916</ele>
        <time>2019-10-13T09:56:05.000Z</time>
      </trkpt>
      <trkpt lat="44.24508" lon="2.9714">
        <ele>917</ele>
        <time>2019-10-13T09:56:06.000Z</time>
      </trkpt>
      <trkpt lat="44.24507" lon="2.97138">
        <ele>917</ele>
        <time>2019-10-13T09:56:07.000Z</time>
      </trkpt>
      <trkpt lat="44.24505" lon="2.97137">
        <ele>917</ele>
        <time>2019-10-13T09:56:08.000Z</time>
      </trkpt>
      <trkpt lat="44.24504" lon="2.97135">
        <ele>917</ele>
        <time>2019-10-13T09:56:09.000Z</time>
      </trkpt>
      <trkpt lat="44.24502" lon="2.97134">
        <ele>917</ele>
        <time>2019-10-13T09:56:10.000Z</time>
      </trkpt>
      <trkpt lat="44.24501" lon="2.97132">
        <ele>917</ele>
        <time>2019-10-13T09:56:11.000Z</time>
      </trkpt>
      <trkpt lat="44.245" lon="2.97131">
        <ele>917</ele>
        <time>2019-10-13T09:56:12.000Z</time>
      </trkpt>
      <trkpt lat="44.24499" lon="2.97129">
        <ele>918</ele>
        <time>2019-10-13T09:56:13.000Z</time>
      </trkpt>
      <trkpt lat="44.24498" lon="2.97127">
        <ele>918</ele>
        <time>2019-10-13T09:56:14.000Z</time>
      </trkpt>
      <trkpt lat="44.24496" lon="2.97126">
        <ele>918</ele>
        <time>2019-10-13T09:56:15.000Z</time>
      </trkpt>
      <trkpt lat="44.24495" lon="2.97124">
        <ele>918</ele>
        <time>2019-10-13T09:56:16.000Z</time>
      </trkpt>
      <trkpt lat="44.24494" lon="2.97122">
        <ele>918</ele>
        <time>2019-10-13T09:56:17.000Z</time>
      </trkpt>
      <trkpt lat="44.24492" lon="2.9712">
        <ele>918</ele>
        <time>2019-10-13T09:56:18.000Z</time>
      </trkpt>
      <trkpt lat="44.24491" lon="2.97119">
        <ele>918</ele>
        <time>2019-10-13T09:56:19.000Z</time>
      </trkpt>
      <trkpt lat="44.2449" lon="2.97117">
        <ele>918</ele>
        <time>2019-10-13T09:56:20.000Z</time>
      </trkpt>
      <trkpt lat="44.24489" lon="2.97115">
        <ele>919</ele>
        <time>2019-10-13T09:56:21.000Z</time>
      </trkpt>
      <trkpt lat="44.24488" lon="2.97114">
        <ele>919</ele>
        <time>2019-10-13T09:56:22.000Z</time>
      </trkpt>
      <trkpt lat="44.24486" lon="2.97112">
        <ele>919</ele>
        <time>2019-10-13T09:56:23.000Z</time>
      </trkpt>
      <trkpt lat="44.24485" lon="2.9711">
        <ele>919</ele>
        <time>2019-10-13T09:56:24.000Z</time>
      </trkpt>
      <trkpt lat="44.24484" lon="2.97109">
        <ele>919</ele>
        <time>2019-10-13T09:56:25.000Z</time>
      </trkpt>
      <trkpt lat="44.24483" lon="2.97107">
        <ele>919</ele>
        <time>2019-10-13T09:56:26.000Z</time>
      </trkpt>
      <trkpt lat="44.24482" lon="2.97105">
        <ele>919</ele>
        <time>2019-10-13T09:56:27.000Z</time>
      </trkpt>
      <trkpt lat="44.2448" lon="2.97104">
        <ele>919</ele>
        <time>2019-10-13T09:56:28.000Z</time>
      </trkpt>
      <trkpt lat="44.24479" lon="2.97102">
        <ele>919</ele>
        <time>2019-10-13T09:56:29.000Z</time>
      </trkpt>
      <trkpt lat="44.24478" lon="2.971">
        <ele>919</ele>
        <time>2019-10-13T09:56:30.000Z</time>
      </trkpt>
      <trkpt lat="44.24477" lon="2.97098">
        <ele>919</ele>
        <time>2019-10-13T09:56:31.000Z</time>
      </trkpt>
      <trkpt lat="44.24475" lon="2.97096">
        <ele>919</ele>
        <time>2019-10-13T09:56:32.000Z</time>
      </trkpt>
      <trkpt lat="44.24474" lon="2.97094">
        <ele>919</ele>
        <time>2019-10-13T09:56:33.000Z</time>
      </trkpt>
      <trkpt lat="44.24473" lon="2.97093">
        <ele>919</ele>
        <time>2019-10-13T09:56:34.000Z</time>
      </trkpt>
      <trkpt lat="44.24471" lon="2.97091">
        <ele>920</ele>
        <time>2019-10-13T09:56:35.000Z</time>
      </trkpt>
      <trkpt lat="44.2447" lon="2.97089">
        <ele>920</ele>
        <time>2019-10-13T09:56:36.000Z</time>
      </trkpt>
      <trkpt lat="44.24469" lon="2.97087">
        <ele>920</ele>
        <time>2019-10-13T09:56:37.000Z</time>
      </trkpt>
      <trkpt lat="44.24468" lon="2.97086">
        <ele>920</ele>
        <time>2019-10-13T09:56:38.000Z</time>
      </trkpt>
      <trkpt lat="44.24467" lon="2.97084">
        <ele>920</ele>
        <time>2019-10-13T09:56:39.000Z</time>
      </trkpt>
      <trkpt lat="44.24466" lon="2.97082">
        <ele>920</ele>
        <time>2019-10-13T09:56:40.000Z</time>
      </trkpt>
      <trkpt lat="44.24464" lon="2.9708">
        <ele>920</ele>
        <time>2019-10-13T09:56:41.000Z</time>
      </trkpt>
      <trkpt lat="44.24463" lon="2.97079">
        <ele>920</ele>
        <time>2019-10-13T09:56:42.000Z</time>
      </trkpt>
      <trkpt lat="44.24462" lon="2.97077">
        <ele>920</ele>
        <time>2019-10-13T09:56:43.000Z</time>
      </trkpt>
      <trkpt lat="44.24461" lon="2.97075">
        <ele>920</ele>
        <time>2019-10-13T09:56:44.000Z</time>
      </trkpt>
      <trkpt lat="44.2446" lon="2.97073">
        <ele>920</ele>
        <time>2019-10-13T09:56:45.000Z</time>
      </trkpt>
      <trkpt lat="44.24458" lon="2.97071">
        <ele>920</ele>
        <time>2019-10-13T09:56:46.000Z</time>
      </trkpt>
      <trkpt lat="44.24457" lon="2.9707">
        <ele>920</ele>
        <time>2019-10-13T09:56:47.000Z</time>
      </trkpt>
      <trkpt lat="44.24456" lon="2.97068">
        <ele>920</ele>
        <time>2019-10-13T09:56:48.000Z</time>
      </trkpt>
      <trkpt lat="44.24455" lon="2.97066">
        <ele>919</ele>
        <time>2019-10-13T09:56:49.000Z</time>
      </trkpt>
      <trkpt lat="44.24454" lon="2.97064">
        <ele>919</ele>
        <time>2019-10-13T09:56:50.000Z</time>
      </trkpt>
      <trkpt lat="44.24452" lon="2.97063">
        <ele>919</ele>
        <time>2019-10-13T09:56:51.000Z</time>
      </trkpt>
      <trkpt lat="44.24451" lon="2.97061">
        <ele>919</ele>
        <time>2019-10-13T09:56:52.000Z</time>
      </trkpt>
      <trkpt lat="44.2445" lon="2.97059">
        <ele>919</ele>
        <time>2019-10-13T09:56:53.000Z</time>
      </trkpt>
      <trkpt lat="44.24449" lon="2.97058">
        <ele>919</ele>
        <time>2019-10-13T09:56:54.000Z</time>
      </trkpt>
      <trkpt lat="44.24448" lon="2.97056">
        <ele>919</ele>
        <time>2019-10-13T09:56:55.000Z</time>
      </trkpt>
      <trkpt lat="44.24446" lon="2.97054">
        <ele>919</ele>
        <time>2019-10-13T09:56:56.000Z</time>
      </trkpt>
      <trkpt lat="44.24445" lon="2.97052">
        <ele>919</ele>
        <time>2019-10-13T09:56:57.000Z</time>
      </trkpt>
      <trkpt lat="44.24444" lon="2.97051">
        <ele>919</ele>
        <time>2019-10-13T09:56:58.000Z</time>
      </trkpt>
      <trkpt lat="44.24443" lon="2.97049">
        <ele>919</ele>
        <time>2019-10-13T09:56:59.000Z</time>
      </trkpt>
      <trkpt lat="44.24441" lon="2.97047">
        <ele>919</ele>
        <time>2019-10-13T09:57:00.000Z</time>
      </trkpt>
      <trkpt lat="44.2444" lon="2.97046">
        <ele>919</ele>
        <time>2019-10-13T09:57:01.000Z</time>
      </trkpt>
      <trkpt lat="44.24439" lon="2.97044">
        <ele>919</ele>
        <time>2019-10-13T09:57:02.000Z</time>
      </trkpt>
      <trkpt lat="44.24438" lon="2.97043">
        <ele>918</ele>
        <time>2019-10-13T09:57:03.000Z</time>
      </trkpt>
      <trkpt lat="44.24436" lon="2.97041">
        <ele>918</ele>
        <time>2019-10-13T09:57:04.000Z</time>
      </trkpt>
      <trkpt lat="44.24435" lon="2.9704">
        <ele>918</ele>
        <time>2019-10-13T09:57:05.000Z</time>
      </trkpt>
      <trkpt lat="44.24434" lon="2.97038">
        <ele>918</ele>
        <time>2019-10-13T09:57:06.000Z</time>
      </trkpt>
      <trkpt lat="44.24433" lon="2.97037">
        <ele>918</ele>
        <time>2019-10-13T09:57:07.000Z</time>
      </trkpt>
      <trkpt lat="44.24432" lon="2.97035">
        <ele>918</ele>
        <time>2019-10-13T09:57:08.000Z</time>
      </trkpt>
      <trkpt lat="44.2443" lon="2.97033">
        <ele>918</ele>
        <time>2019-10-13T09:57:09.000Z</time>
      </trkpt>
      <trkpt lat="44.24429" lon="2.97032">
        <ele>918</ele>
        <time>2019-10-13T09:57:10.000Z</time>
      </trkpt>
      <trkpt lat="44.24428" lon="2.9703">
        <ele>918</ele>
        <time>2019-10-13T09:57:11.000Z</time>
      </trkpt>
      <trkpt lat="44.24427" lon="2.97029">
        <ele>917</ele>
        <time>2019-10-13T09:57:12.000Z</time>
      </trkpt>
      <trkpt lat="44.24426" lon="2.97028">
        <ele>917</ele>
        <time>2019-10-13T09:57:13.000Z</time>
      </trkpt>
      <trkpt lat="44.24424" lon="2.97027">
        <ele>917</ele>
        <time>2019-10-13T09:57:14.000Z</time>
      </trkpt>
      <trkpt lat="44.24423" lon="2.97026">
        <ele>917</ele>
        <time>2019-10-13T09:57:15.000Z</time>
      </trkpt>
      <trkpt lat="44.24422" lon="2.97025">
        <ele>917</ele>
        <time>2019-10-13T09:57:16.000Z</time>
      </trkpt>
      <trkpt lat="44.24421" lon="2.97024">
        <ele>917</ele>
        <time>2019-10-13T09:57:17.000Z</time>
      </trkpt>
      <trkpt lat="44.24419" lon="2.97023">
        <ele>917</ele>
        <time>2019-10-13T09:57:18.000Z</time>
      </trkpt>
      <trkpt lat="44.24418" lon="2.97022">
        <ele>917</ele>
        <time>2019-10-13T09:57:19.000Z</time>
      </trkpt>
      <trkpt lat="44.24417" lon="2.97022">
        <ele>917</ele>
        <time>2019-10-13T09:57:20.000Z</time>
      </trkpt>
      <trkpt lat="44.24415" lon="2.97021">
        <ele>917</ele>
        <time>2019-10-13T09:57:21.000Z</time>
      </trkpt>
      <trkpt lat="44.24413" lon="2.97021">
        <ele>916</ele>
        <time>2019-10-13T09:57:22.000Z</time>
      </trkpt>
      <trkpt lat="44.24412" lon="2.9702">
        <ele>916</ele>
        <time>2019-10-13T09:57:23.000Z</time>
      </trkpt>
      <trkpt lat="44.2441" lon="2.97021">
        <ele>916</ele>
        <time>2019-10-13T09:57:24.000Z</time>
      </trkpt>
      <trkpt lat="44.24409" lon="2.97021">
        <ele>916</ele>
        <time>2019-10-13T09:57:25.000Z</time>
      </trkpt>
      <trkpt lat="44.24407" lon="2.97021">
        <ele>916</ele>
        <time>2019-10-13T09:57:26.000Z</time>
      </trkpt>
      <trkpt lat="44.24405" lon="2.97022">
        <ele>916</ele>
        <time>2019-10-13T09:57:27.000Z</time>
      </trkpt>
      <trkpt lat="44.24404" lon="2.97023">
        <ele>916</ele>
        <time>2019-10-13T09:57:28.000Z</time>
      </trkpt>
      <trkpt lat="44.24402" lon="2.97024">
        <ele>916</ele>
        <time>2019-10-13T09:57:29.000Z</time>
      </trkpt>
      <trkpt lat="44.24401" lon="2.97025">
        <ele>915</ele>
        <time>2019-10-13T09:57:30.000Z</time>
      </trkpt>
      <trkpt lat="44.24399" lon="2.97026">
        <ele>915</ele>
        <time>2019-10-13T09:57:31.000Z</time>
      </trkpt>
      <trkpt lat="44.24397" lon="2.97026">
        <ele>915</ele>
        <time>2019-10-13T09:57:32.000Z</time>
      </trkpt>
      <trkpt lat="44.24395" lon="2.97027">
        <ele>915</ele>
        <time>2019-10-13T09:57:33.000Z</time>
      </trkpt>
      <trkpt lat="44.24394" lon="2.97028">
        <ele>915</ele>
        <time>2019-10-13T09:57:34.000Z</time>
      </trkpt>
      <trkpt lat="44.24392" lon="2.97029">
        <ele>915</ele>
        <time>2019-10-13T09:57:35.000Z</time>
      </trkpt>
      <trkpt lat="44.24391" lon="2.9703">
        <ele>915</ele>
        <time>2019-10-13T09:57:36.000Z</time>
      </trkpt>
      <trkpt lat="44.24389" lon="2.9703">
        <ele>914</ele>
        <time>2019-10-13T09:57:37.000Z</time>
      </trkpt>
      <trkpt lat="44.24388" lon="2.97031">
        <ele>914</ele>
        <time>2019-10-13T09:57:38.000Z</time>
      </trkpt>
      <trkpt lat="44.24386" lon="2.97032">
        <ele>914</ele>
        <time>2019-10-13T09:57:39.000Z</time>
      </trkpt>
      <trkpt lat="44.24385" lon="2.97032">
        <ele>914</ele>
        <time>2019-10-13T09:57:40.000Z</time>
      </trkpt>
      <trkpt lat="44.24383" lon="2.97033">
        <ele>914</ele>
        <time>2019-10-13T09:57:41.000Z</time>
      </trkpt>
      <trkpt lat="44.24382" lon="2.97034">
        <ele>914</ele>
        <time>2019-10-13T09:57:42.000Z</time>
      </trkpt>
      <trkpt lat="44.24381" lon="2.97035">
        <ele>914</ele>
        <time>2019-10-13T09:57:43.000Z</time>
      </trkpt>
      <trkpt lat="44.24379" lon="2.97035">
        <ele>914</ele>
        <time>2019-10-13T09:57:44.000Z</time>
      </trkpt>
      <trkpt lat="44.24378" lon="2.97036">
        <ele>914</ele>
        <time>2019-10-13T09:57:45.000Z</time>
      </trkpt>
      <trkpt lat="44.24376" lon="2.97037">
        <ele>914</ele>
        <time>2019-10-13T09:57:46.000Z</time>
      </trkpt>
      <trkpt lat="44.24375" lon="2.97037">
        <ele>913</ele>
        <time>2019-10-13T09:57:47.000Z</time>
      </trkpt>
      <trkpt lat="44.24373" lon="2.97038">
        <ele>913</ele>
        <time>2019-10-13T09:57:48.000Z</time>
      </trkpt>
      <trkpt lat="44.24372" lon="2.97039">
        <ele>913</ele>
        <time>2019-10-13T09:57:49.000Z</time>
      </trkpt>
      <trkpt lat="44.2437" lon="2.9704">
        <ele>913</ele>
        <time>2019-10-13T09:57:50.000Z</time>
      </trkpt>
      <trkpt lat="44.24369" lon="2.97041">
        <ele>913</ele>
        <time>2019-10-13T09:57:51.000Z</time>
      </trkpt>
      <trkpt lat="44.24367" lon="2.97041">
        <ele>913</ele>
        <time>2019-10-13T09:57:52.000Z</time>
      </trkpt>
      <trkpt lat="44.24366" lon="2.97042">
        <ele>913</ele>
        <time>2019-10-13T09:57:53.000Z</time>
      </trkpt>
      <trkpt lat="44.24364" lon="2.97043">
        <ele>913</ele>
        <time>2019-10-13T09:57:54.000Z</time>
      </trkpt>
      <trkpt lat="44.24362" lon="2.97044">
        <ele>913</ele>
        <time>2019-10-13T09:57:55.000Z</time>
      </trkpt>
      <trkpt lat="44.24361" lon="2.97045">
        <ele>913</ele>
        <time>2019-10-13T09:57:56.000Z</time>
      </trkpt>
      <trkpt lat="44.24359" lon="2.97046">
        <ele>913</ele>
        <time>2019-10-13T09:57:57.000Z</time>
      </trkpt>
      <trkpt lat="44.24358" lon="2.97046">
        <ele>912</ele>
        <time>2019-10-13T09:57:58.000Z</time>
      </trkpt>
      <trkpt lat="44.24356" lon="2.97047">
        <ele>912</ele>
        <time>2019-10-13T09:57:59.000Z</time>
      </trkpt>
      <trkpt lat="44.24355" lon="2.97048">
        <ele>912</ele>
        <time>2019-10-13T09:58:00.000Z</time>
      </trkpt>
      <trkpt lat="44.24353" lon="2.97049">
        <ele>912</ele>
        <time>2019-10-13T09:58:01.000Z</time>
      </trkpt>
      <trkpt lat="44.24351" lon="2.9705">
        <ele>912</ele>
        <time>2019-10-13T09:58:02.000Z</time>
      </trkpt>
      <trkpt lat="44.2435" lon="2.9705">
        <ele>912</ele>
        <time>2019-10-13T09:58:03.000Z</time>
      </trkpt>
      <trkpt lat="44.24348" lon="2.97051">
        <ele>912</ele>
        <time>2019-10-13T09:58:04.000Z</time>
      </trkpt>
      <trkpt lat="44.24346" lon="2.97052">
        <ele>912</ele>
        <time>2019-10-13T09:58:05.000Z</time>
      </trkpt>
      <trkpt lat="44.24345" lon="2.97052">
        <ele>912</ele>
        <time>2019-10-13T09:58:06.000Z</time>
      </trkpt>
      <trkpt lat="44.24343" lon="2.97053">
        <ele>912</ele>
        <time>2019-10-13T09:58:07.000Z</time>
      </trkpt>
      <trkpt lat="44.24341" lon="2.97054">
        <ele>912</ele>
        <time>2019-10-13T09:58:08.000Z</time>
      </trkpt>
      <trkpt lat="44.2434" lon="2.97055">
        <ele>912</ele>
        <time>2019-10-13T09:58:09.000Z</time>
      </trkpt>
      <trkpt lat="44.24338" lon="2.97055">
        <ele>912</ele>
        <time>2019-10-13T09:58:10.000Z</time>
      </trkpt>
      <trkpt lat="44.24336" lon="2.97056">
        <ele>912</ele>
        <time>2019-10-13T09:58:11.000Z</time>
      </trkpt>
      <trkpt lat="44.24335" lon="2.97057">
        <ele>912</ele>
        <time>2019-10-13T09:58:12.000Z</time>
      </trkpt>
      <trkpt lat="44.24333" lon="2.97057">
        <ele>912</ele>
        <time>2019-10-13T09:58:13.000Z</time>
      </trkpt>
      <trkpt lat="44.24331" lon="2.97058">
        <ele>912</ele>
        <time>2019-10-13T09:58:14.000Z</time>
      </trkpt>
      <trkpt lat="44.2433" lon="2.97058">
        <ele>911</ele>
        <time>2019-10-13T09:58:15.000Z</time>
      </trkpt>
      <trkpt lat="44.24328" lon="2.97059">
        <ele>911</ele>
        <time>2019-10-13T09:58:16.000Z</time>
      </trkpt>
      <trkpt lat="44.24326" lon="2.97059">
        <ele>911</ele>
        <time>2019-10-13T09:58:17.000Z</time>
      </trkpt>
      <trkpt lat="44.24325" lon="2.9706">
        <ele>911</ele>
        <time>2019-10-13T09:58:18.000Z</time>
      </trkpt>
      <trkpt lat="44.24323" lon="2.9706">
        <ele>911</ele>
        <time>2019-10-13T09:58:19.000Z</time>
      </trkpt>
      <trkpt lat="44.24321" lon="2.97061">
        <ele>911</ele>
        <time>2019-10-13T09:58:20.000Z</time>
      </trkpt>
      <trkpt lat="44.2432" lon="2.97061">
        <ele>911</ele>
        <time>2019-10-13T09:58:21.000Z</time>
      </trkpt>
      <trkpt lat="44.24318" lon="2.97062">
        <ele>911</ele>
        <time>2019-10-13T09:58:22.000Z</time>
      </trkpt>
      <trkpt lat="44.24316" lon="2.97062">
        <ele>911</ele>
        <time>2019-10-13T09:58:23.000Z</time>
      </trkpt>
      <trkpt lat="44.24315" lon="2.97063">
        <ele>911</ele>
        <time>2019-10-13T09:58:24.000Z</time>
      </trkpt>
      <trkpt lat="44.24313" lon="2.97064">
        <ele>911</ele>
        <time>2019-10-13T09:58:25.000Z</time>
      </trkpt>
      <trkpt lat="44.24312" lon="2.97064">
        <ele>911</ele>
        <time>2019-10-13T09:58:26.000Z</time>
      </trkpt>
      <trkpt lat="44.2431" lon="2.97065">
        <ele>911</ele>
        <time>2019-10-13T09:58:27.000Z</time>
      </trkpt>
      <trkpt lat="44.24308" lon="2.97065">
        <ele>911</ele>
        <time>2019-10-13T09:58:28.000Z</time>
      </trkpt>
      <trkpt lat="44.24307" lon="2.97066">
        <ele>911</ele>
        <time>2019-10-13T09:58:29.000Z</time>
      </trkpt>
      <trkpt lat="44.24305" lon="2.97066">
        <ele>911</ele>
        <time>2019-10-13T09:58:30.000Z</time>
      </trkpt>
      <trkpt lat="44.24303" lon="2.97067">
        <ele>911</ele>
        <time>2019-10-13T09:58:31.000Z</time>
      </trkpt>
      <trkpt lat="44.24302" lon="2.97067">
        <ele>911</ele>
        <time>2019-10-13T09:58:32.000Z</time>
      </trkpt>
      <trkpt lat="44.243" lon="2.97068">
        <ele>911</ele>
        <time>2019-10-13T09:58:33.000Z</time>
      </trkpt>
      <trkpt lat="44.24299" lon="2.97068">
        <ele>911</ele>
        <time>2019-10-13T09:58:34.000Z</time>
      </trkpt>
      <trkpt lat="44.24297" lon="2.97069">
        <ele>911</ele>
        <time>2019-10-13T09:58:35.000Z</time>
      </trkpt>
      <trkpt lat="44.24295" lon="2.97069">
        <ele>911</ele>
        <time>2019-10-13T09:58:36.000Z</time>
      </trkpt>
      <trkpt lat="44.24294" lon="2.9707">
        <ele>911</ele>
        <time>2019-10-13T09:58:37.000Z</time>
      </trkpt>
      <trkpt lat="44.24292" lon="2.9707">
        <ele>911</ele>
        <time>2019-10-13T09:58:38.000Z</time>
      </trkpt>
      <trkpt lat="44.2429" lon="2.97071">
        <ele>911</ele>
        <time>2019-10-13T09:58:39.000Z</time>
      </trkpt>
      <trkpt lat="44.24289" lon="2.97071">
        <ele>911</ele>
        <time>2019-10-13T09:58:40.000Z</time>
      </trkpt>
      <trkpt lat="44.24287" lon="2.97072">
        <ele>911</ele>
        <time>2019-10-13T09:58:41.000Z</time>
      </trkpt>
      <trkpt lat="44.24285" lon="2.97072">
        <ele>911</ele>
        <time>2019-10-13T09:58:42.000Z</time>
      </trkpt>
      <trkpt lat="44.24284" lon="2.97072">
        <ele>911</ele>
        <time>2019-10-13T09:58:43.000Z</time>
      </trkpt>
      <trkpt lat="44.24282" lon="2.97073">
        <ele>911</ele>
        <time>2019-10-13T09:58:44.000Z</time>
      </trkpt>
      <trkpt lat="44.24281" lon="2.97073">
        <ele>911</ele>
        <time>2019-10-13T09:58:45.000Z</time>
      </trkpt>
      <trkpt lat="44.24279" lon="2.97074">
        <ele>911</ele>
        <time>2019-10-13T09:58:46.000Z</time>
      </trkpt>
      <trkpt lat="44.24277" lon="2.97074">
        <ele>911</ele>
        <time>2019-10-13T09:58:47.000Z</time>
      </trkpt>
      <trkpt lat="44.24276" lon="2.97075">
        <ele>911</ele>
        <time>2019-10-13T09:58:48.000Z</time>
      </trkpt>
      <trkpt lat="44.24274" lon="2.97075">
        <ele>911</ele>
        <time>2019-10-13T09:58:49.000Z</time>
      </trkpt>
      <trkpt lat="44.24272" lon="2.97075">
        <ele>911</ele>
        <time>2019-10-13T09:58:50.000Z</time>
      </trkpt>
      <trkpt lat="44.24271" lon="2.97076">
        <ele>911</ele>
        <time>2019-10-13T09:58:51.000Z</time>
      </trkpt>
      <trkpt lat="44.24269" lon="2.97076">
        <ele>911</ele>
        <time>2019-10-13T09:58:52.000Z</time>
      </trkpt>
      <trkpt lat="44.24267" lon="2.97077">
        <ele>911</ele>
        <time>2019-10-13T09:58:53.000Z</time>
      </trkpt>
      <trkpt lat="44.24266" lon="2.97077">
        <ele>911</ele>
        <time>2019-10-13T09:58:54.000Z</time>
      </trkpt>
      <trkpt lat="44.24264" lon="2.97078">
        <ele>911</ele>
        <time>2019-10-13T09:58:55.000Z</time>
      </trkpt>
      <trkpt lat="44.24262" lon="2.97078">
        <ele>911</ele>
        <time>2019-10-13T09:58:56.000Z</time>
      </trkpt>
      <trkpt lat="44.24261" lon="2.97079">
        <ele>911</ele>
        <time>2019-10-13T09:58:57.000Z</time>
      </trkpt>
      <trkpt lat="44.24259" lon="2.97079">
        <ele>911</ele>
        <time>2019-10-13T09:58:58.000Z</time>
      </trkpt>
      <trkpt lat="44.24258" lon="2.9708">
        <ele>911</ele>
        <time>2019-10-13T09:58:59.000Z</time>
      </trkpt>
      <trkpt lat="44.24256" lon="2.9708">
        <ele>911</ele>
        <time>2019-10-13T09:59:00.000Z</time>
      </trkpt>
      <trkpt lat="44.24255" lon="2.97081">
        <ele>911</ele>
        <time>2019-10-13T09:59:01.000Z</time>
      </trkpt>
      <trkpt lat="44.24253" lon="2.97081">
        <ele>911</ele>
        <time>2019-10-13T09:59:02.000Z</time>
      </trkpt>
      <trkpt lat="44.24252" lon="2.97082">
        <ele>911</ele>
        <time>2019-10-13T09:59:03.000Z</time>
      </trkpt>
      <trkpt lat="44.2425" lon="2.97083">
        <ele>911</ele>
        <time>2019-10-13T09:59:04.000Z</time>
      </trkpt>
      <trkpt lat="44.24249" lon="2.97083">
        <ele>911</ele>
        <time>2019-10-13T09:59:05.000Z</time>
      </trkpt>
      <trkpt lat="44.24247" lon="2.97084">
        <ele>911</ele>
        <time>2019-10-13T09:59:06.000Z</time>
      </trkpt>
      <trkpt lat="44.24246" lon="2.97084">
        <ele>911</ele>
        <time>2019-10-13T09:59:07.000Z</time>
      </trkpt>
      <trkpt lat="44.24244" lon="2.97085">
        <ele>911</ele>
        <time>2019-10-13T09:59:08.000Z</time>
      </trkpt>
      <trkpt lat="44.24243" lon="2.97085">
        <ele>911</ele>
        <time>2019-10-13T09:59:09.000Z</time>
      </trkpt>
      <trkpt lat="44.24241" lon="2.97086">
        <ele>911</ele>
        <time>2019-10-13T09:59:10.000Z</time>
      </trkpt>
      <trkpt lat="44.2424" lon="2.97086">
        <ele>911</ele>
        <time>2019-10-13T09:59:11.000Z</time>
      </trkpt>
      <trkpt lat="44.24238" lon="2.97087">
        <ele>911</ele>
        <time>2019-10-13T09:59:12.000Z</time>
      </trkpt>
      <trkpt lat="44.24237" lon="2.97088">
        <ele>911</ele>
        <time>2019-10-13T09:59:13.000Z</time>
      </trkpt>
      <trkpt lat="44.24235" lon="2.97088">
        <ele>911</ele>
        <time>2019-10-13T09:59:14.000Z</time>
      </trkpt>
      <trkpt lat="44.24234" lon="2.97089">
        <ele>911</ele>
        <time>2019-10-13T09:59:15.000Z</time>
      </trkpt>
      <trkpt lat="44.24232" lon="2.9709">
        <ele>911</ele>
        <time>2019-10-13T09:59:16.000Z</time>
      </trkpt>
      <trkpt lat="44.24231" lon="2.9709">
        <ele>911</ele>
        <time>2019-10-13T09:59:17.000Z</time>
      </trkpt>
      <trkpt lat="44.24229" lon="2.97091">
        <ele>911</ele>
        <time>2019-10-13T09:59:18.000Z</time>
      </trkpt>
      <trkpt lat="44.24228" lon="2.97092">
        <ele>911</ele>
        <time>2019-10-13T09:59:19.000Z</time>
      </trkpt>
      <trkpt lat="44.24226" lon="2.97092">
        <ele>911</ele>
        <time>2019-10-13T09:59:20.000Z</time>
      </trkpt>
      <trkpt lat="44.24225" lon="2.97093">
        <ele>911</ele>
        <time>2019-10-13T09:59:21.000Z</time>
      </trkpt>
      <trkpt lat="44.24223" lon="2.97094">
        <ele>911</ele>
        <time>2019-10-13T09:59:22.000Z</time>
      </trkpt>
      <trkpt lat="44.24222" lon="2.97094">
        <ele>911</ele>
        <time>2019-10-13T09:59:23.000Z</time>
      </trkpt>
      <trkpt lat="44.2422" lon="2.97095">
        <ele>911</ele>
        <time>2019-10-13T09:59:24.000Z</time>
      </trkpt>
      <trkpt lat="44.24219" lon="2.97096">
        <ele>910</ele>
        <time>2019-10-13T09:59:25.000Z</time>
      </trkpt>
      <trkpt lat="44.24217" lon="2.97097">
        <ele>910</ele>
        <time>2019-10-13T09:59:26.000Z</time>
      </trkpt>
      <trkpt lat="44.24215" lon="2.97098">
        <ele>910</ele>
        <time>2019-10-13T09:59:27.000Z</time>
      </trkpt>
      <trkpt lat="44.24214" lon="2.97098">
        <ele>910</ele>
        <time>2019-10-13T09:59:28.000Z</time>
      </trkpt>
      <trkpt lat="44.24212" lon="2.97099">
        <ele>910</ele>
        <time>2019-10-13T09:59:29.000Z</time>
      </trkpt>
      <trkpt lat="44.24211" lon="2.97099">
        <ele>910</ele>
        <time>2019-10-13T09:59:30.000Z</time>
      </trkpt>
      <trkpt lat="44.24209" lon="2.971">
        <ele>910</ele>
        <time>2019-10-13T09:59:31.000Z</time>
      </trkpt>
      <trkpt lat="44.24207" lon="2.971">
        <ele>910</ele>
        <time>2019-10-13T09:59:32.000Z</time>
      </trkpt>
      <trkpt lat="44.24206" lon="2.97101">
        <ele>910</ele>
        <time>2019-10-13T09:59:33.000Z</time>
      </trkpt>
      <trkpt lat="44.24204" lon="2.97102">
        <ele>910</ele>
        <time>2019-10-13T09:59:34.000Z</time>
      </trkpt>
      <trkpt lat="44.24202" lon="2.97102">
        <ele>910</ele>
        <time>2019-10-13T09:59:35.000Z</time>
      </trkpt>
      <trkpt lat="44.24201" lon="2.97103">
        <ele>910</ele>
        <time>2019-10-13T09:59:36.000Z</time>
      </trkpt>
      <trkpt lat="44.24199" lon="2.97104">
        <ele>910</ele>
        <time>2019-10-13T09:59:37.000Z</time>
      </trkpt>
      <trkpt lat="44.24197" lon="2.97105">
        <ele>910</ele>
        <time>2019-10-13T09:59:38.000Z</time>
      </trkpt>
      <trkpt lat="44.24195" lon="2.97105">
        <ele>910</ele>
        <time>2019-10-13T09:59:39.000Z</time>
      </trkpt>
      <trkpt lat="44.24194" lon="2.97106">
        <ele>910</ele>
        <time>2019-10-13T09:59:40.000Z</time>
      </trkpt>
      <trkpt lat="44.24192" lon="2.97107">
        <ele>910</ele>
        <time>2019-10-13T09:59:41.000Z</time>
      </trkpt>
      <trkpt lat="44.2419" lon="2.97107">
        <ele>910</ele>
        <time>2019-10-13T09:59:42.000Z</time>
      </trkpt>
      <trkpt lat="44.24188" lon="2.97108">
        <ele>910</ele>
        <time>2019-10-13T09:59:43.000Z</time>
      </trkpt>
      <trkpt lat="44.24187" lon="2.97109">
        <ele>910</ele>
        <time>2019-10-13T09:59:44.000Z</time>
      </trkpt>
      <trkpt lat="44.24185" lon="2.97109">
        <ele>910</ele>
        <time>2019-10-13T09:59:45.000Z</time>
      </trkpt>
      <trkpt lat="44.24183" lon="2.9711">
        <ele>910</ele>
        <time>2019-10-13T09:59:46.000Z</time>
      </trkpt>
      <trkpt lat="44.24182" lon="2.97111">
        <ele>910</ele>
        <time>2019-10-13T09:59:47.000Z</time>
      </trkpt>
      <trkpt lat="44.2418" lon="2.97112">
        <ele>910</ele>
        <time>2019-10-13T09:59:48.000Z</time>
      </trkpt>
      <trkpt lat="44.24179" lon="2.97113">
        <ele>910</ele>
        <time>2019-10-13T09:59:49.000Z</time>
      </trkpt>
      <trkpt lat="44.24177" lon="2.97113">
        <ele>909</ele>
        <time>2019-10-13T09:59:50.000Z</time>
      </trkpt>
      <trkpt lat="44.24175" lon="2.97114">
        <ele>909</ele>
        <time>2019-10-13T09:59:51.000Z</time>
      </trkpt>
      <trkpt lat="44.24174" lon="2.97115">
        <ele>909</ele>
        <time>2019-10-13T09:59:52.000Z</time>
      </trkpt>
      <trkpt lat="44.24172" lon="2.97116">
        <ele>909</ele>
        <time>2019-10-13T09:59:53.000Z</time>
      </trkpt>
      <trkpt lat="44.2417" lon="2.97117">
        <ele>909</ele>
        <time>2019-10-13T09:59:54.000Z</time>
      </trkpt>
      <trkpt lat="44.24169" lon="2.97117">
        <ele>909</ele>
        <time>2019-10-13T09:59:55.000Z</time>
      </trkpt>
      <trkpt lat="44.24167" lon="2.97118">
        <ele>909</ele>
        <time>2019-10-13T09:59:56.000Z</time>
      </trkpt>
      <trkpt lat="44.24166" lon="2.97119">
        <ele>909</ele>
        <time>2019-10-13T09:59:57.000Z</time>
      </trkpt>
      <trkpt lat="44.24164" lon="2.9712">
        <ele>909</ele>
        <time>2019-10-13T09:59:58.000Z</time>
      </trkpt>
      <trkpt lat="44.24163" lon="2.97121">
        <ele>909</ele>
        <time>2019-10-13T09:59:59.000Z</time>
      </trkpt>
      <trkpt lat="44.24161" lon="2.97122">
        <ele>908</ele>
        <time>2019-10-13T10:00:00.000Z</time>
      </trkpt>
      <trkpt lat="44.2416" lon="2.97123">
        <ele>908</ele>
        <time>2019-10-13T10:00:01.000Z</time>
      </trkpt>
      <trkpt lat="44.24158" lon="2.97124">
        <ele>908</ele>
        <time>2019-10-13T10:00:02.000Z</time>
      </trkpt>
      <trkpt lat="44.24157" lon="2.97125">
        <ele>908</ele>
        <time>2019-10-13T10:00:03.000Z</time>
      </trkpt>
      <trkpt lat="44.24156" lon="2.97125">
        <ele>908</ele>
        <time>2019-10-13T10:00:04.000Z</time>
      </trkpt>
      <trkpt lat="44.24154" lon="2.97126">
        <ele>908</ele>
        <time>2019-10-13T10:00:05.000Z</time>
      </trkpt>
      <trkpt lat="44.24153" lon="2.97127">
        <ele>908</ele>
        <time>2019-10-13T10:00:06.000Z</time>
      </trkpt>
      <trkpt lat="44.24152" lon="2.97128">
        <ele>908</ele>
        <time>2019-10-13T10:00:07.000Z</time>
      </trkpt>
      <trkpt lat="44.24151" lon="2.97129">
        <ele>908</ele>
        <time>2019-10-13T10:00:08.000Z</time>
      </trkpt>
      <trkpt lat="44.24149" lon="2.9713">
        <ele>907</ele>
        <time>2019-10-13T10:00:09.000Z</time>
      </trkpt>
      <trkpt lat="44.24148" lon="2.97131">
        <ele>907</ele>
        <time>2019-10-13T10:00:10.000Z</time>
      </trkpt>
      <trkpt lat="44.24146" lon="2.97132">
        <ele>907</ele>
        <time>2019-10-13T10:00:11.000Z</time>
      </trkpt>
      <trkpt lat="44.24145" lon="2.97133">
        <ele>907</ele>
        <time>2019-10-13T10:00:12.000Z</time>
      </trkpt>
      <trkpt lat="44.24144" lon="2.97134">
        <ele>907</ele>
        <time>2019-10-13T10:00:13.000Z</time>
      </trkpt>
      <trkpt lat="44.24143" lon="2.97136">
        <ele>907</ele>
        <time>2019-10-13T10:00:14.000Z</time>
      </trkpt>
      <trkpt lat="44.24141" lon="2.97137">
        <ele>907</ele>
        <time>2019-10-13T10:00:15.000Z</time>
      </trkpt>
      <trkpt lat="44.2414" lon="2.97138">
        <ele>906</ele>
        <time>2019-10-13T10:00:16.000Z</time>
      </trkpt>
      <trkpt lat="44.24138" lon="2.97139">
        <ele>906</ele>
        <time>2019-10-13T10:00:17.000Z</time>
      </trkpt>
      <trkpt lat="44.24137" lon="2.9714">
        <ele>906</ele>
        <time>2019-10-13T10:00:18.000Z</time>
      </trkpt>
      <trkpt lat="44.24135" lon="2.97142">
        <ele>906</ele>
        <time>2019-10-13T10:00:19.000Z</time>
      </trkpt>
      <trkpt lat="44.24134" lon="2.97143">
        <ele>906</ele>
        <time>2019-10-13T10:00:20.000Z</time>
      </trkpt>
      <trkpt lat="44.24132" lon="2.97144">
        <ele>906</ele>
        <time>2019-10-13T10:00:21.000Z</time>
      </trkpt>
      <trkpt lat="44.24131" lon="2.97146">
        <ele>906</ele>
        <time>2019-10-13T10:00:22.000Z</time>
      </trkpt>
      <trkpt lat="44.2413" lon="2.97147">
        <ele>906</ele>
        <time>2019-10-13T10:00:23.000Z</time>
      </trkpt>
      <trkpt lat="44.24128" lon="2.97149">
        <ele>906</ele>
        <time>2019-10-13T10:00:24.000Z</time>
      </trkpt>
      <trkpt lat="44.24127" lon="2.9715">
        <ele>906</ele>
        <time>2019-10-13T10:00:25.000Z</time>
      </trkpt>
      <trkpt lat="44.24126" lon="2.97152">
        <ele>905</ele>
        <time>2019-10-13T10:00:26.000Z</time>
      </trkpt>
      <trkpt lat="44.24124" lon="2.97154">
        <ele>905</ele>
        <time>2019-10-13T10:00:27.000Z</time>
      </trkpt>
      <trkpt lat="44.24123" lon="2.97155">
        <ele>905</ele>
        <time>2019-10-13T10:00:28.000Z</time>
      </trkpt>
      <trkpt lat="44.24122" lon="2.97157">
        <ele>905</ele>
        <time>2019-10-13T10:00:29.000Z</time>
      </trkpt>
      <trkpt lat="44.2412" lon="2.97159">
        <ele>905</ele>
        <time>2019-10-13T10:00:30.000Z</time>
      </trkpt>
      <trkpt lat="44.24119" lon="2.9716">
        <ele>905</ele>
        <time>2019-10-13T10:00:31.000Z</time>
      </trkpt>
      <trkpt lat="44.24118" lon="2.97162">
        <ele>905</ele>
        <time>2019-10-13T10:00:32.000Z</time>
      </trkpt>
      <trkpt lat="44.24117" lon="2.97163">
        <ele>905</ele>
        <time>2019-10-13T10:00:33.000Z</time>
      </trkpt>
      <trkpt lat="44.24115" lon="2.97165">
        <ele>904</ele>
        <time>2019-10-13T10:00:34.000Z</time>
      </trkpt>
      <trkpt lat="44.24114" lon="2.97166">
        <ele>904</ele>
        <time>2019-10-13T10:00:35.000Z</time>
      </trkpt>
      <trkpt lat="44.24113" lon="2.97168">
        <ele>904</ele>
        <time>2019-10-13T10:00:36.000Z</time>
      </trkpt>
      <trkpt lat="44.24111" lon="2.9717">
        <ele>904</ele>
        <time>2019-10-13T10:00:37.000Z</time>
      </trkpt>
      <trkpt lat="44.2411" lon="2.97171">
        <ele>904</ele>
        <time>2019-10-13T10:00:38.000Z</time>
      </trkpt>
      <trkpt lat="44.24109" lon="2.97173">
        <ele>904</ele>
        <time>2019-10-13T10:00:39.000Z</time>
      </trkpt>
      <trkpt lat="44.24107" lon="2.97174">
        <ele>903</ele>
        <time>2019-10-13T10:00:40.000Z</time>
      </trkpt>
      <trkpt lat="44.24106" lon="2.97176">
        <ele>903</ele>
        <time>2019-10-13T10:00:41.000Z</time>
      </trkpt>
      <trkpt lat="44.24104" lon="2.97177">
        <ele>903</ele>
        <time>2019-10-13T10:00:42.000Z</time>
      </trkpt>
      <trkpt lat="44.24103" lon="2.97179">
        <ele>903</ele>
        <time>2019-10-13T10:00:43.000Z</time>
      </trkpt>
      <trkpt lat="44.24102" lon="2.9718">
        <ele>903</ele>
        <time>2019-10-13T10:00:44.000Z</time>
      </trkpt>
      <trkpt lat="44.241" lon="2.97181">
        <ele>903</ele>
        <time>2019-10-13T10:00:45.000Z</time>
      </trkpt>
      <trkpt lat="44.24099" lon="2.97182">
        <ele>902</ele>
        <time>2019-10-13T10:00:46.000Z</time>
      </trkpt>
      <trkpt lat="44.24098" lon="2.97184">
        <ele>902</ele>
        <time>2019-10-13T10:00:47.000Z</time>
      </trkpt>
      <trkpt lat="44.24096" lon="2.97185">
        <ele>902</ele>
        <time>2019-10-13T10:00:48.000Z</time>
      </trkpt>
      <trkpt lat="44.24095" lon="2.97186">
        <ele>902</ele>
        <time>2019-10-13T10:00:49.000Z</time>
      </trkpt>
      <trkpt lat="44.24093" lon="2.97188">
        <ele>902</ele>
        <time>2019-10-13T10:00:50.000Z</time>
      </trkpt>
      <trkpt lat="44.24092" lon="2.97189">
        <ele>901</ele>
        <time>2019-10-13T10:00:51.000Z</time>
      </trkpt>
      <trkpt lat="44.2409" lon="2.9719">
        <ele>901</ele>
        <time>2019-10-13T10:00:52.000Z</time>
      </trkpt>
      <trkpt lat="44.24089" lon="2.97191">
        <ele>901</ele>
        <time>2019-10-13T10:00:53.000Z</time>
      </trkpt>
      <trkpt lat="44.24087" lon="2.97192">
        <ele>901</ele>
        <time>2019-10-13T10:00:54.000Z</time>
      </trkpt>
      <trkpt lat="44.24086" lon="2.97194">
        <ele>901</ele>
        <time>2019-10-13T10:00:55.000Z</time>
      </trkpt>
      <trkpt lat="44.24084" lon="2.97195">
        <ele>901</ele>
        <time>2019-10-13T10:00:56.000Z</time>
      </trkpt>
      <trkpt lat="44.24083" lon="2.97196">
        <ele>901</ele>
        <time>2019-10-13T10:00:57.000Z</time>
      </trkpt>
      <trkpt lat="44.24081" lon="2.97198">
        <ele>900</ele>
        <time>2019-10-13T10:00:58.000Z</time>
      </trkpt>
      <trkpt lat="44.2408" lon="2.97199">
        <ele>900</ele>
        <time>2019-10-13T10:00:59.000Z</time>
      </trkpt>
      <trkpt lat="44.24078" lon="2.97201">
        <ele>900</ele>
        <time>2019-10-13T10:01:00.000Z</time>
      </trkpt>
      <trkpt lat="44.24077" lon="2.97202">
        <ele>900</ele>
        <time>2019-10-13T10:01:01.000Z</time>
      </trkpt>
      <trkpt lat="44.24076" lon="2.97204">
        <ele>900</ele>
        <time>2019-10-13T10:01:02.000Z</time>
      </trkpt>
      <trkpt lat="44.24074" lon="2.97205">
        <ele>900</ele>
        <time>2019-10-13T10:01:03.000Z</time>
      </trkpt>
      <trkpt lat="44.24073" lon="2.97207">
        <ele>899</ele>
        <time>2019-10-13T10:01:04.000Z</time>
      </trkpt>
      <trkpt lat="44.24072" lon="2.97208">
        <ele>899</ele>
        <time>2019-10-13T10:01:05.000Z</time>
      </trkpt>
      <trkpt lat="44.24071" lon="2.9721">
        <ele>899</ele>
        <time>2019-10-13T10:01:06.000Z</time>
      </trkpt>
      <trkpt lat="44.24069" lon="2.97211">
        <ele>899</ele>
        <time>2019-10-13T10:01:07.000Z</time>
      </trkpt>
      <trkpt lat="44.24068" lon="2.97213">
        <ele>899</ele>
        <time>2019-10-13T10:01:08.000Z</time>
      </trkpt>
      <trkpt lat="44.24066" lon="2.97214">
        <ele>898</ele>
        <time>2019-10-13T10:01:09.000Z</time>
      </trkpt>
      <trkpt lat="44.24065" lon="2.97216">
        <ele>898</ele>
        <time>2019-10-13T10:01:10.000Z</time>
      </trkpt>
      <trkpt lat="44.24064" lon="2.97217">
        <ele>898</ele>
        <time>2019-10-13T10:01:11.000Z</time>
      </trkpt>
      <trkpt lat="44.24062" lon="2.97219">
        <ele>898</ele>
        <time>2019-10-13T10:01:12.000Z</time>
      </trkpt>
      <trkpt lat="44.24061" lon="2.97221">
        <ele>898</ele>
        <time>2019-10-13T10:01:13.000Z</time>
      </trkpt>
      <trkpt lat="44.2406" lon="2.97223">
        <ele>898</ele>
        <time>2019-10-13T10:01:14.000Z</time>
      </trkpt>
      <trkpt lat="44.24058" lon="2.97224">
        <ele>898</ele>
        <time>2019-10-13T10:01:15.000Z</time>
      </trkpt>
      <trkpt lat="44.24057" lon="2.97226">
        <ele>897</ele>
        <time>2019-10-13T10:01:16.000Z</time>
      </trkpt>
      <trkpt lat="44.24056" lon="2.97227">
        <ele>897</ele>
        <time>2019-10-13T10:01:17.000Z</time>
      </trkpt>
      <trkpt lat="44.24055" lon="2.97229">
        <ele>897</ele>
        <time>2019-10-13T10:01:18.000Z</time>
      </trkpt>
      <trkpt lat="44.24054" lon="2.97231">
        <ele>897</ele>
        <time>2019-10-13T10:01:19.000Z</time>
      </trkpt>
      <trkpt lat="44.24052" lon="2.97233">
        <ele>897</ele>
        <time>2019-10-13T10:01:20.000Z</time>
      </trkpt>
      <trkpt lat="44.24051" lon="2.97234">
        <ele>896</ele>
        <time>2019-10-13T10:01:21.000Z</time>
      </trkpt>
      <trkpt lat="44.2405" lon="2.97236">
        <ele>896</ele>
        <time>2019-10-13T10:01:22.000Z</time>
      </trkpt>
      <trkpt lat="44.24049" lon="2.97237">
        <ele>896</ele>
        <time>2019-10-13T10:01:23.000Z</time>
      </trkpt>
      <trkpt lat="44.24047" lon="2.97238">
        <ele>895</ele>
        <time>2019-10-13T10:01:24.000Z</time>
      </trkpt>
      <trkpt lat="44.24046" lon="2.9724">
        <ele>895</ele>
        <time>2019-10-13T10:01:25.000Z</time>
      </trkpt>
      <trkpt lat="44.24045" lon="2.97241">
        <ele>895</ele>
        <time>2019-10-13T10:01:26.000Z</time>
      </trkpt>
      <trkpt lat="44.24043" lon="2.97242">
        <ele>894</ele>
        <time>2019-10-13T10:01:27.000Z</time>
      </trkpt>
      <trkpt lat="44.24042" lon="2.97243">
        <ele>894</ele>
        <time>2019-10-13T10:01:28.000Z</time>
      </trkpt>
      <trkpt lat="44.24041" lon="2.97244">
        <ele>894</ele>
        <time>2019-10-13T10:01:29.000Z</time>
      </trkpt>
      <trkpt lat="44.24039" lon="2.97246">
        <ele>894</ele>
        <time>2019-10-13T10:01:30.000Z</time>
      </trkpt>
      <trkpt lat="44.24037" lon="2.97246">
        <ele>893</ele>
        <time>2019-10-13T10:01:31.000Z</time>
      </trkpt>
      <trkpt lat="44.24036" lon="2.97247">
        <ele>893</ele>
        <time>2019-10-13T10:01:32.000Z</time>
      </trkpt>
      <trkpt lat="44.24035" lon="2.97248">
        <ele>893</ele>
        <time>2019-10-13T10:01:33.000Z</time>
      </trkpt>
      <trkpt lat="44.24033" lon="2.97249">
        <ele>892</ele>
        <time>2019-10-13T10:01:34.000Z</time>
      </trkpt>
      <trkpt lat="44.24032" lon="2.9725">
        <ele>892</ele>
        <time>2019-10-13T10:01:35.000Z</time>
      </trkpt>
      <trkpt lat="44.2403" lon="2.97251">
        <ele>892</ele>
        <time>2019-10-13T10:01:36.000Z</time>
      </trkpt>
      <trkpt lat="44.24029" lon="2.97253">
        <ele>892</ele>
        <time>2019-10-13T10:01:37.000Z</time>
      </trkpt>
      <trkpt lat="44.24028" lon="2.97254">
        <ele>892</ele>
        <time>2019-10-13T10:01:38.000Z</time>
      </trkpt>
      <trkpt lat="44.24027" lon="2.97256">
        <ele>892</ele>
        <time>2019-10-13T10:01:39.000Z</time>
      </trkpt>
      <trkpt lat="44.24026" lon="2.97257">
        <ele>891</ele>
        <time>2019-10-13T10:01:40.000Z</time>
      </trkpt>
      <trkpt lat="44.24025" lon="2.9726">
        <ele>891</ele>
        <time>2019-10-13T10:01:41.000Z</time>
      </trkpt>
      <trkpt lat="44.24023" lon="2.97262">
        <ele>891</ele>
        <time>2019-10-13T10:01:42.000Z</time>
      </trkpt>
      <trkpt lat="44.24022" lon="2.97264">
        <ele>891</ele>
        <time>2019-10-13T10:01:43.000Z</time>
      </trkpt>
      <trkpt lat="44.24022" lon="2.97266">
        <ele>891</ele>
        <time>2019-10-13T10:01:44.000Z</time>
      </trkpt>
      <trkpt lat="44.24021" lon="2.97268">
        <ele>890</ele>
        <time>2019-10-13T10:01:45.000Z</time>
      </trkpt>
      <trkpt lat="44.2402" lon="2.9727">
        <ele>890</ele>
        <time>2019-10-13T10:01:46.000Z</time>
      </trkpt>
      <trkpt lat="44.2402" lon="2.97272">
        <ele>890</ele>
        <time>2019-10-13T10:01:47.000Z</time>
      </trkpt>
      <trkpt lat="44.24019" lon="2.97274">
        <ele>890</ele>
        <time>2019-10-13T10:01:48.000Z</time>
      </trkpt>
      <trkpt lat="44.24018" lon="2.97276">
        <ele>889</ele>
        <time>2019-10-13T10:01:49.000Z</time>
      </trkpt>
      <trkpt lat="44.24018" lon="2.97278">
        <ele>889</ele>
        <time>2019-10-13T10:01:50.000Z</time>
      </trkpt>
      <trkpt lat="44.24017" lon="2.9728">
        <ele>888</ele>
        <time>2019-10-13T10:01:51.000Z</time>
      </trkpt>
      <trkpt lat="44.24016" lon="2.97282">
        <ele>888</ele>
        <time>2019-10-13T10:01:52.000Z</time>
      </trkpt>
      <trkpt lat="44.24015" lon="2.97283">
        <ele>888</ele>
        <time>2019-10-13T10:01:53.000Z</time>
      </trkpt>
      <trkpt lat="44.24014" lon="2.97285">
        <ele>887</ele>
        <time>2019-10-13T10:01:54.000Z</time>
      </trkpt>
      <trkpt lat="44.24013" lon="2.97287">
        <ele>887</ele>
        <time>2019-10-13T10:01:55.000Z</time>
      </trkpt>
      <trkpt lat="44.24013" lon="2.97289">
        <ele>887</ele>
        <time>2019-10-13T10:01:56.000Z</time>
      </trkpt>
      <trkpt lat="44.24012" lon="2.97291">
        <ele>886</ele>
        <time>2019-10-13T10:01:57.000Z</time>
      </trkpt>
      <trkpt lat="44.24011" lon="2.97293">
        <ele>886</ele>
        <time>2019-10-13T10:01:58.000Z</time>
      </trkpt>
      <trkpt lat="44.2401" lon="2.97294">
        <ele>885</ele>
        <time>2019-10-13T10:01:59.000Z</time>
      </trkpt>
      <trkpt lat="44.24009" lon="2.97296">
        <ele>885</ele>
        <time>2019-10-13T10:02:00.000Z</time>
      </trkpt>
      <trkpt lat="44.24008" lon="2.97297">
        <ele>885</ele>
        <time>2019-10-13T10:02:01.000Z</time>
      </trkpt>
      <trkpt lat="44.24007" lon="2.97299">
        <ele>885</ele>
        <time>2019-10-13T10:02:02.000Z</time>
      </trkpt>
      <trkpt lat="44.24005" lon="2.973">
        <ele>884</ele>
        <time>2019-10-13T10:02:03.000Z</time>
      </trkpt>
      <trkpt lat="44.24004" lon="2.97301">
        <ele>884</ele>
        <time>2019-10-13T10:02:04.000Z</time>
      </trkpt>
      <trkpt lat="44.24002" lon="2.97302">
        <ele>884</ele>
        <time>2019-10-13T10:02:05.000Z</time>
      </trkpt>
      <trkpt lat="44.24001" lon="2.97303">
        <ele>883</ele>
        <time>2019-10-13T10:02:06.000Z</time>
      </trkpt>
      <trkpt lat="44.23999" lon="2.97303">
        <ele>883</ele>
        <time>2019-10-13T10:02:07.000Z</time>
      </trkpt>
      <trkpt lat="44.23997" lon="2.97304">
        <ele>883</ele>
        <time>2019-10-13T10:02:08.000Z</time>
      </trkpt>
      <trkpt lat="44.23996" lon="2.97304">
        <ele>883</ele>
        <time>2019-10-13T10:02:09.000Z</time>
      </trkpt>
      <trkpt lat="44.23994" lon="2.97304">
        <ele>883</ele>
        <time>2019-10-13T10:02:10.000Z</time>
      </trkpt>
      <trkpt lat="44.23992" lon="2.97304">
        <ele>882</ele>
        <time>2019-10-13T10:02:11.000Z</time>
      </trkpt>
      <trkpt lat="44.2399" lon="2.97304">
        <ele>882</ele>
        <time>2019-10-13T10:02:12.000Z</time>
      </trkpt>
      <trkpt lat="44.23988" lon="2.97304">
        <ele>882</ele>
        <time>2019-10-13T10:02:13.000Z</time>
      </trkpt>
      <trkpt lat="44.23987" lon="2.97304">
        <ele>882</ele>
        <time>2019-10-13T10:02:14.000Z</time>
      </trkpt>
      <trkpt lat="44.23985" lon="2.97304">
        <ele>881</ele>
        <time>2019-10-13T10:02:15.000Z</time>
      </trkpt>
      <trkpt lat="44.23983" lon="2.97304">
        <ele>881</ele>
        <time>2019-10-13T10:02:16.000Z</time>
      </trkpt>
      <trkpt lat="44.23981" lon="2.97303">
        <ele>881</ele>
        <time>2019-10-13T10:02:17.000Z</time>
      </trkpt>
      <trkpt lat="44.23979" lon="2.97303">
        <ele>881</ele>
        <time>2019-10-13T10:02:18.000Z</time>
      </trkpt>
      <trkpt lat="44.23977" lon="2.97303">
        <ele>881</ele>
        <time>2019-10-13T10:02:19.000Z</time>
      </trkpt>
      <trkpt lat="44.23975" lon="2.97303">
        <ele>880</ele>
        <time>2019-10-13T10:02:20.000Z</time>
      </trkpt>
      <trkpt lat="44.23973" lon="2.97303">
        <ele>880</ele>
        <time>2019-10-13T10:02:21.000Z</time>
      </trkpt>
      <trkpt lat="44.23972" lon="2.97303">
        <ele>880</ele>
        <time>2019-10-13T10:02:22.000Z</time>
      </trkpt>
      <trkpt lat="44.2397" lon="2.97303">
        <ele>880</ele>
        <time>2019-10-13T10:02:23.000Z</time>
      </trkpt>
      <trkpt lat="44.23968" lon="2.97302">
        <ele>880</ele>
        <time>2019-10-13T10:02:24.000Z</time>
      </trkpt>
      <trkpt lat="44.23966" lon="2.97302">
        <ele>879</ele>
        <time>2019-10-13T10:02:25.000Z</time>
      </trkpt>
      <trkpt lat="44.23965" lon="2.97302">
        <ele>879</ele>
        <time>2019-10-13T10:02:26.000Z</time>
      </trkpt>
      <trkpt lat="44.23963" lon="2.97301">
        <ele>879</ele>
        <time>2019-10-13T10:02:27.000Z</time>
      </trkpt>
      <trkpt lat="44.23961" lon="2.97301">
        <ele>879</ele>
        <time>2019-10-13T10:02:28.000Z</time>
      </trkpt>
      <trkpt lat="44.2396" lon="2.97301">
        <ele>878</ele>
        <time>2019-10-13T10:02:29.000Z</time>
      </trkpt>
      <trkpt lat="44.23958" lon="2.973">
        <ele>878</ele>
        <time>2019-10-13T10:02:30.000Z</time>
      </trkpt>
      <trkpt lat="44.23956" lon="2.973">
        <ele>878</ele>
        <time>2019-10-13T10:02:31.000Z</time>
      </trkpt>
      <trkpt lat="44.23955" lon="2.973">
        <ele>878</ele>
        <time>2019-10-13T10:02:32.000Z</time>
      </trkpt>
      <trkpt lat="44.23953" lon="2.97299">
        <ele>878</ele>
        <time>2019-10-13T10:02:33.000Z</time>
      </trkpt>
      <trkpt lat="44.23951" lon="2.97299">
        <ele>877</ele>
        <time>2019-10-13T10:02:34.000Z</time>
      </trkpt>
      <trkpt lat="44.2395" lon="2.97299">
        <ele>877</ele>
        <time>2019-10-13T10:02:35.000Z</time>
      </trkpt>
      <trkpt lat="44.23948" lon="2.97298">
        <ele>877</ele>
        <time>2019-10-13T10:02:36.000Z</time>
      </trkpt>
      <trkpt lat="44.23946" lon="2.97298">
        <ele>877</ele>
        <time>2019-10-13T10:02:37.000Z</time>
      </trkpt>
      <trkpt lat="44.23945" lon="2.97298">
        <ele>877</ele>
        <time>2019-10-13T10:02:38.000Z</time>
      </trkpt>
      <trkpt lat="44.23943" lon="2.97298">
        <ele>876</ele>
        <time>2019-10-13T10:02:39.000Z</time>
      </trkpt>
      <trkpt lat="44.23941" lon="2.97297">
        <ele>876</ele>
        <time>2019-10-13T10:02:40.000Z</time>
      </trkpt>
      <trkpt lat="44.2394" lon="2.97297">
        <ele>876</ele>
        <time>2019-10-13T10:02:41.000Z</time>
      </trkpt>
      <trkpt lat="44.23938" lon="2.97297">
        <ele>876</ele>
        <time>2019-10-13T10:02:42.000Z</time>
      </trkpt>
      <trkpt lat="44.23936" lon="2.97297">
        <ele>875</ele>
        <time>2019-10-13T10:02:43.000Z</time>
      </trkpt>
      <trkpt lat="44.23934" lon="2.97296">
        <ele>875</ele>
        <time>2019-10-13T10:02:44.000Z</time>
      </trkpt>
      <trkpt lat="44.23933" lon="2.97296">
        <ele>875</ele>
        <time>2019-10-13T10:02:45.000Z</time>
      </trkpt>
      <trkpt lat="44.23931" lon="2.97296">
        <ele>874</ele>
        <time>2019-10-13T10:02:46.000Z</time>
      </trkpt>
      <trkpt lat="44.23929" lon="2.97295">
        <ele>874</ele>
        <time>2019-10-13T10:02:47.000Z</time>
      </trkpt>
      <trkpt lat="44.23928" lon="2.97295">
        <ele>874</ele>
        <time>2019-10-13T10:02:48.000Z</time>
      </trkpt>
      <trkpt lat="44.23926" lon="2.97295">
        <ele>874</ele>
        <time>2019-10-13T10:02:49.000Z</time>
      </trkpt>
      <trkpt lat="44.23924" lon="2.97295">
        <ele>874</ele>
        <time>2019-10-13T10:02:50.000Z</time>
      </trkpt>
      <trkpt lat="44.23922" lon="2.97295">
        <ele>874</ele>
        <time>2019-10-13T10:02:51.000Z</time>
      </trkpt>
      <trkpt lat="44.2392" lon="2.97295">
        <ele>873</ele>
        <time>2019-10-13T10:02:52.000Z</time>
      </trkpt>
      <trkpt lat="44.23919" lon="2.97294">
        <ele>873</ele>
        <time>2019-10-13T10:02:53.000Z</time>
      </trkpt>
      <trkpt lat="44.23917" lon="2.97294">
        <ele>873</ele>
        <time>2019-10-13T10:02:54.000Z</time>
      </trkpt>
      <trkpt lat="44.23915" lon="2.97294">
        <ele>873</ele>
        <time>2019-10-13T10:02:55.000Z</time>
      </trkpt>
      <trkpt lat="44.23913" lon="2.97295">
        <ele>873</ele>
        <time>2019-10-13T10:02:56.000Z</time>
      </trkpt>
      <trkpt lat="44.23912" lon="2.97294">
        <ele>873</ele>
        <time>2019-10-13T10:02:57.000Z</time>
      </trkpt>
      <trkpt lat="44.2391" lon="2.97295">
        <ele>872</ele>
        <time>2019-10-13T10:02:58.000Z</time>
      </trkpt>
      <trkpt lat="44.23908" lon="2.97295">
        <ele>872</ele>
        <time>2019-10-13T10:02:59.000Z</time>
      </trkpt>
      <trkpt lat="44.23906" lon="2.97295">
        <ele>872</ele>
        <time>2019-10-13T10:03:00.000Z</time>
      </trkpt>
      <trkpt lat="44.23905" lon="2.97295">
        <ele>872</ele>
        <time>2019-10-13T10:03:01.000Z</time>
      </trkpt>
      <trkpt lat="44.23903" lon="2.97295">
        <ele>872</ele>
        <time>2019-10-13T10:03:02.000Z</time>
      </trkpt>
      <trkpt lat="44.23901" lon="2.97295">
        <ele>872</ele>
        <time>2019-10-13T10:03:03.000Z</time>
      </trkpt>
      <trkpt lat="44.23899" lon="2.97295">
        <ele>872</ele>
        <time>2019-10-13T10:03:04.000Z</time>
      </trkpt>
      <trkpt lat="44.23898" lon="2.97295">
        <ele>872</ele>
        <time>2019-10-13T10:03:05.000Z</time>
      </trkpt>
      <trkpt lat="44.23896" lon="2.97295">
        <ele>872</ele>
        <time>2019-10-13T10:03:06.000Z</time>
      </trkpt>
      <trkpt lat="44.23894" lon="2.97295">
        <ele>872</ele>
        <time>2019-10-13T10:03:07.000Z</time>
      </trkpt>
      <trkpt lat="44.23892" lon="2.97295">
        <ele>871</ele>
        <time>2019-10-13T10:03:08.000Z</time>
      </trkpt>
      <trkpt lat="44.23891" lon="2.97295">
        <ele>871</ele>
        <time>2019-10-13T10:03:09.000Z</time>
      </trkpt>
      <trkpt lat="44.23889" lon="2.97295">
        <ele>871</ele>
        <time>2019-10-13T10:03:10.000Z</time>
      </trkpt>
      <trkpt lat="44.23887" lon="2.97295">
        <ele>871</ele>
        <time>2019-10-13T10:03:11.000Z</time>
      </trkpt>
      <trkpt lat="44.23886" lon="2.97295">
        <ele>871</ele>
        <time>2019-10-13T10:03:12.000Z</time>
      </trkpt>
      <trkpt lat="44.23884" lon="2.97295">
        <ele>871</ele>
        <time>2019-10-13T10:03:13.000Z</time>
      </trkpt>
      <trkpt lat="44.23883" lon="2.97295">
        <ele>871</ele>
        <time>2019-10-13T10:03:14.000Z</time>
      </trkpt>
      <trkpt lat="44.23881" lon="2.97295">
        <ele>871</ele>
        <time>2019-10-13T10:03:15.000Z</time>
      </trkpt>
      <trkpt lat="44.23879" lon="2.97295">
        <ele>870</ele>
        <time>2019-10-13T10:03:16.000Z</time>
      </trkpt>
      <trkpt lat="44.23878" lon="2.97295">
        <ele>870</ele>
        <time>2019-10-13T10:03:17.000Z</time>
      </trkpt>
      <trkpt lat="44.23876" lon="2.97295">
        <ele>870</ele>
        <time>2019-10-13T10:03:18.000Z</time>
      </trkpt>
      <trkpt lat="44.23874" lon="2.97295">
        <ele>870</ele>
        <time>2019-10-13T10:03:19.000Z</time>
      </trkpt>
      <trkpt lat="44.23872" lon="2.97295">
        <ele>870</ele>
        <time>2019-10-13T10:03:20.000Z</time>
      </trkpt>
      <trkpt lat="44.2387" lon="2.97295">
        <ele>870</ele>
        <time>2019-10-13T10:03:21.000Z</time>
      </trkpt>
      <trkpt lat="44.23869" lon="2.97295">
        <ele>870</ele>
        <time>2019-10-13T10:03:22.000Z</time>
      </trkpt>
      <trkpt lat="44.23867" lon="2.97295">
        <ele>869</ele>
        <time>2019-10-13T10:03:23.000Z</time>
      </trkpt>
      <trkpt lat="44.23865" lon="2.97295">
        <ele>869</ele>
        <time>2019-10-13T10:03:24.000Z</time>
      </trkpt>
      <trkpt lat="44.23864" lon="2.97295">
        <ele>869</ele>
        <time>2019-10-13T10:03:25.000Z</time>
      </trkpt>
      <trkpt lat="44.23862" lon="2.97295">
        <ele>869</ele>
        <time>2019-10-13T10:03:26.000Z</time>
      </trkpt>
      <trkpt lat="44.23861" lon="2.97295">
        <ele>869</ele>
        <time>2019-10-13T10:03:27.000Z</time>
      </trkpt>
      <trkpt lat="44.23859" lon="2.97296">
        <ele>869</ele>
        <time>2019-10-13T10:03:28.000Z</time>
      </trkpt>
      <trkpt lat="44.23858" lon="2.97296">
        <ele>868</ele>
        <time>2019-10-13T10:03:29.000Z</time>
      </trkpt>
      <trkpt lat="44.23856" lon="2.97296">
        <ele>868</ele>
        <time>2019-10-13T10:03:30.000Z</time>
      </trkpt>
      <trkpt lat="44.23854" lon="2.97296">
        <ele>868</ele>
        <time>2019-10-13T10:03:31.000Z</time>
      </trkpt>
      <trkpt lat="44.23853" lon="2.97295">
        <ele>868</ele>
        <time>2019-10-13T10:03:32.000Z</time>
      </trkpt>
      <trkpt lat="44.23851" lon="2.97295">
        <ele>868</ele>
        <time>2019-10-13T10:03:33.000Z</time>
      </trkpt>
      <trkpt lat="44.2385" lon="2.97294">
        <ele>867</ele>
        <time>2019-10-13T10:03:34.000Z</time>
      </trkpt>
      <trkpt lat="44.23848" lon="2.97294">
        <ele>867</ele>
        <time>2019-10-13T10:03:35.000Z</time>
      </trkpt>
      <trkpt lat="44.23846" lon="2.97294">
        <ele>867</ele>
        <time>2019-10-13T10:03:36.000Z</time>
      </trkpt>
      <trkpt lat="44.23845" lon="2.97293">
        <ele>867</ele>
        <time>2019-10-13T10:03:37.000Z</time>
      </trkpt>
      <trkpt lat="44.23843" lon="2.97293">
        <ele>867</ele>
        <time>2019-10-13T10:03:38.000Z</time>
      </trkpt>
      <trkpt lat="44.23841" lon="2.97292">
        <ele>867</ele>
        <time>2019-10-13T10:03:39.000Z</time>
      </trkpt>
      <trkpt lat="44.2384" lon="2.97292">
        <ele>866</ele>
        <time>2019-10-13T10:03:40.000Z</time>
      </trkpt>
      <trkpt lat="44.23838" lon="2.97292">
        <ele>866</ele>
        <time>2019-10-13T10:03:41.000Z</time>
      </trkpt>
      <trkpt lat="44.23837" lon="2.97291">
        <ele>866</ele>
        <time>2019-10-13T10:03:42.000Z</time>
      </trkpt>
      <trkpt lat="44.23835" lon="2.9729">
        <ele>866</ele>
        <time>2019-10-13T10:03:43.000Z</time>
      </trkpt>
      <trkpt lat="44.23834" lon="2.9729">
        <ele>865</ele>
        <time>2019-10-13T10:03:44.000Z</time>
      </trkpt>
      <trkpt lat="44.23832" lon="2.97289">
        <ele>865</ele>
        <time>2019-10-13T10:03:45.000Z</time>
      </trkpt>
      <trkpt lat="44.2383" lon="2.97288">
        <ele>865</ele>
        <time>2019-10-13T10:03:46.000Z</time>
      </trkpt>
      <trkpt lat="44.23829" lon="2.97288">
        <ele>865</ele>
        <time>2019-10-13T10:03:47.000Z</time>
      </trkpt>
      <trkpt lat="44.23827" lon="2.97287">
        <ele>865</ele>
        <time>2019-10-13T10:03:48.000Z</time>
      </trkpt>
      <trkpt lat="44.23825" lon="2.97286">
        <ele>865</ele>
        <time>2019-10-13T10:03:49.000Z</time>
      </trkpt>
      <trkpt lat="44.23824" lon="2.97285">
        <ele>865</ele>
        <time>2019-10-13T10:03:50.000Z</time>
      </trkpt>
      <trkpt lat="44.23822" lon="2.97284">
        <ele>865</ele>
        <time>2019-10-13T10:03:51.000Z</time>
      </trkpt>
      <trkpt lat="44.2382" lon="2.97284">
        <ele>865</ele>
        <time>2019-10-13T10:03:52.000Z</time>
      </trkpt>
      <trkpt lat="44.23819" lon="2.97283">
        <ele>865</ele>
        <time>2019-10-13T10:03:53.000Z</time>
      </trkpt>
      <trkpt lat="44.23817" lon="2.97282">
        <ele>865</ele>
        <time>2019-10-13T10:03:54.000Z</time>
      </trkpt>
      <trkpt lat="44.23816" lon="2.97281">
        <ele>864</ele>
        <time>2019-10-13T10:03:55.000Z</time>
      </trkpt>
      <trkpt lat="44.23814" lon="2.9728">
        <ele>864</ele>
        <time>2019-10-13T10:03:56.000Z</time>
      </trkpt>
      <trkpt lat="44.23813" lon="2.97279">
        <ele>864</ele>
        <time>2019-10-13T10:03:57.000Z</time>
      </trkpt>
      <trkpt lat="44.23812" lon="2.97278">
        <ele>864</ele>
        <time>2019-10-13T10:03:58.000Z</time>
      </trkpt>
      <trkpt lat="44.2381" lon="2.97277">
        <ele>864</ele>
        <time>2019-10-13T10:03:59.000Z</time>
      </trkpt>
      <trkpt lat="44.23809" lon="2.97277">
        <ele>864</ele>
        <time>2019-10-13T10:04:00.000Z</time>
      </trkpt>
      <trkpt lat="44.23807" lon="2.97276">
        <ele>864</ele>
        <time>2019-10-13T10:04:01.000Z</time>
      </trkpt>
      <trkpt lat="44.23806" lon="2.97275">
        <ele>864</ele>
        <time>2019-10-13T10:04:02.000Z</time>
      </trkpt>
      <trkpt lat="44.23804" lon="2.97274">
        <ele>864</ele>
        <time>2019-10-13T10:04:03.000Z</time>
      </trkpt>
      <trkpt lat="44.23802" lon="2.97273">
        <ele>863</ele>
        <time>2019-10-13T10:04:04.000Z</time>
      </trkpt>
      <trkpt lat="44.23801" lon="2.97272">
        <ele>863</ele>
        <time>2019-10-13T10:04:05.000Z</time>
      </trkpt>
      <trkpt lat="44.23799" lon="2.97271">
        <ele>863</ele>
        <time>2019-10-13T10:04:06.000Z</time>
      </trkpt>
      <trkpt lat="44.23798" lon="2.9727">
        <ele>863</ele>
        <time>2019-10-13T10:04:07.000Z</time>
      </trkpt>
      <trkpt lat="44.23796" lon="2.9727">
        <ele>863</ele>
        <time>2019-10-13T10:04:08.000Z</time>
      </trkpt>
      <trkpt lat="44.23795" lon="2.97269">
        <ele>863</ele>
        <time>2019-10-13T10:04:09.000Z</time>
      </trkpt>
      <trkpt lat="44.23793" lon="2.97268">
        <ele>863</ele>
        <time>2019-10-13T10:04:10.000Z</time>
      </trkpt>
      <trkpt lat="44.23791" lon="2.97267">
        <ele>863</ele>
        <time>2019-10-13T10:04:11.000Z</time>
      </trkpt>
      <trkpt lat="44.2379" lon="2.97266">
        <ele>863</ele>
        <time>2019-10-13T10:04:12.000Z</time>
      </trkpt>
      <trkpt lat="44.23788" lon="2.97265">
        <ele>863</ele>
        <time>2019-10-13T10:04:13.000Z</time>
      </trkpt>
      <trkpt lat="44.23787" lon="2.97264">
        <ele>863</ele>
        <time>2019-10-13T10:04:14.000Z</time>
      </trkpt>
      <trkpt lat="44.23785" lon="2.97264">
        <ele>863</ele>
        <time>2019-10-13T10:04:15.000Z</time>
      </trkpt>
      <trkpt lat="44.23784" lon="2.97263">
        <ele>863</ele>
        <time>2019-10-13T10:04:16.000Z</time>
      </trkpt>
      <trkpt lat="44.23782" lon="2.97262">
        <ele>862</ele>
        <time>2019-10-13T10:04:17.000Z</time>
      </trkpt>
      <trkpt lat="44.23781" lon="2.97261">
        <ele>862</ele>
        <time>2019-10-13T10:04:18.000Z</time>
      </trkpt>
      <trkpt lat="44.2378" lon="2.9726">
        <ele>862</ele>
        <time>2019-10-13T10:04:19.000Z</time>
      </trkpt>
      <trkpt lat="44.23778" lon="2.9726">
        <ele>862</ele>
        <time>2019-10-13T10:04:20.000Z</time>
      </trkpt>
      <trkpt lat="44.23777" lon="2.97259">
        <ele>862</ele>
        <time>2019-10-13T10:04:21.000Z</time>
      </trkpt>
      <trkpt lat="44.23775" lon="2.97258">
        <ele>862</ele>
        <time>2019-10-13T10:04:22.000Z</time>
      </trkpt>
      <trkpt lat="44.23774" lon="2.97257">
        <ele>862</ele>
        <time>2019-10-13T10:04:23.000Z</time>
      </trkpt>
      <trkpt lat="44.23772" lon="2.97257">
        <ele>862</ele>
        <time>2019-10-13T10:04:24.000Z</time>
      </trkpt>
      <trkpt lat="44.23771" lon="2.97256">
        <ele>862</ele>
        <time>2019-10-13T10:04:25.000Z</time>
      </trkpt>
      <trkpt lat="44.23769" lon="2.97256">
        <ele>862</ele>
        <time>2019-10-13T10:04:26.000Z</time>
      </trkpt>
      <trkpt lat="44.23768" lon="2.97255">
        <ele>862</ele>
        <time>2019-10-13T10:04:27.000Z</time>
      </trkpt>
      <trkpt lat="44.23766" lon="2.97255">
        <ele>862</ele>
        <time>2019-10-13T10:04:28.000Z</time>
      </trkpt>
      <trkpt lat="44.23765" lon="2.97254">
        <ele>861</ele>
        <time>2019-10-13T10:04:29.000Z</time>
      </trkpt>
      <trkpt lat="44.23763" lon="2.97254">
        <ele>861</ele>
        <time>2019-10-13T10:04:30.000Z</time>
      </trkpt>
      <trkpt lat="44.23762" lon="2.97253">
        <ele>861</ele>
        <time>2019-10-13T10:04:31.000Z</time>
      </trkpt>
      <trkpt lat="44.2376" lon="2.97253">
        <ele>861</ele>
        <time>2019-10-13T10:04:32.000Z</time>
      </trkpt>
      <trkpt lat="44.23759" lon="2.97252">
        <ele>861</ele>
        <time>2019-10-13T10:04:33.000Z</time>
      </trkpt>
      <trkpt lat="44.23757" lon="2.97252">
        <ele>861</ele>
        <time>2019-10-13T10:04:34.000Z</time>
      </trkpt>
      <trkpt lat="44.23755" lon="2.97251">
        <ele>861</ele>
        <time>2019-10-13T10:04:35.000Z</time>
      </trkpt>
      <trkpt lat="44.23754" lon="2.9725">
        <ele>861</ele>
        <time>2019-10-13T10:04:36.000Z</time>
      </trkpt>
      <trkpt lat="44.23752" lon="2.97249">
        <ele>861</ele>
        <time>2019-10-13T10:04:37.000Z</time>
      </trkpt>
      <trkpt lat="44.23751" lon="2.97248">
        <ele>861</ele>
        <time>2019-10-13T10:04:38.000Z</time>
      </trkpt>
      <trkpt lat="44.23749" lon="2.97247">
        <ele>861</ele>
        <time>2019-10-13T10:04:39.000Z</time>
      </trkpt>
      <trkpt lat="44.23748" lon="2.97246">
        <ele>861</ele>
        <time>2019-10-13T10:04:40.000Z</time>
      </trkpt>
      <trkpt lat="44.23746" lon="2.97246">
        <ele>860</ele>
        <time>2019-10-13T10:04:41.000Z</time>
      </trkpt>
      <trkpt lat="44.23745" lon="2.97245">
        <ele>860</ele>
        <time>2019-10-13T10:04:42.000Z</time>
      </trkpt>
      <trkpt lat="44.23744" lon="2.97244">
        <ele>860</ele>
        <time>2019-10-13T10:04:43.000Z</time>
      </trkpt>
      <trkpt lat="44.23744" lon="2.97244">
        <ele>861</ele>
        <time>2019-10-13T10:04:44.000Z</time>
      </trkpt>
      <trkpt lat="44.23743" lon="2.97244">
        <ele>861</ele>
        <time>2019-10-13T10:04:45.000Z</time>
      </trkpt>
      <trkpt lat="44.23743" lon="2.97244">
        <ele>860</ele>
        <time>2019-10-13T10:04:46.000Z</time>
      </trkpt>
      <trkpt lat="44.23743" lon="2.97245">
        <ele>860</ele>
        <time>2019-10-13T10:04:47.000Z</time>
      </trkpt>
      <trkpt lat="44.23743" lon="2.97245">
        <ele>860</ele>
        <time>2019-10-13T10:04:48.000Z</time>
      </trkpt>
      <trkpt lat="44.23743" lon="2.97245">
        <ele>860</ele>
        <time>2019-10-13T10:04:49.000Z</time>
      </trkpt>
      <trkpt lat="44.23742" lon="2.97244">
        <ele>860</ele>
        <time>2019-10-13T10:04:50.000Z</time>
      </trkpt>
      <trkpt lat="44.23741" lon="2.97243">
        <ele>860</ele>
        <time>2019-10-13T10:04:51.000Z</time>
      </trkpt>
      <trkpt lat="44.23739" lon="2.97241">
        <ele>860</ele>
        <time>2019-10-13T10:04:52.000Z</time>
      </trkpt>
      <trkpt lat="44.23738" lon="2.9724">
        <ele>860</ele>
        <time>2019-10-13T10:04:53.000Z</time>
      </trkpt>
      <trkpt lat="44.23736" lon="2.97239">
        <ele>860</ele>
        <time>2019-10-13T10:04:54.000Z</time>
      </trkpt>
      <trkpt lat="44.23735" lon="2.97237">
        <ele>860</ele>
        <time>2019-10-13T10:04:55.000Z</time>
      </trkpt>
      <trkpt lat="44.23733" lon="2.97236">
        <ele>860</ele>
        <time>2019-10-13T10:04:56.000Z</time>
      </trkpt>
      <trkpt lat="44.23732" lon="2.97235">
        <ele>860</ele>
        <time>2019-10-13T10:04:57.000Z</time>
      </trkpt>
      <trkpt lat="44.2373" lon="2.97233">
        <ele>860</ele>
        <time>2019-10-13T10:04:58.000Z</time>
      </trkpt>
      <trkpt lat="44.23729" lon="2.97233">
        <ele>860</ele>
        <time>2019-10-13T10:04:59.000Z</time>
      </trkpt>
      <trkpt lat="44.23727" lon="2.97232">
        <ele>859</ele>
        <time>2019-10-13T10:05:00.000Z</time>
      </trkpt>
      <trkpt lat="44.23726" lon="2.97231">
        <ele>859</ele>
        <time>2019-10-13T10:05:01.000Z</time>
      </trkpt>
      <trkpt lat="44.23724" lon="2.9723">
        <ele>859</ele>
        <time>2019-10-13T10:05:02.000Z</time>
      </trkpt>
      <trkpt lat="44.23723" lon="2.9723">
        <ele>859</ele>
        <time>2019-10-13T10:05:03.000Z</time>
      </trkpt>
      <trkpt lat="44.23721" lon="2.97229">
        <ele>859</ele>
        <time>2019-10-13T10:05:04.000Z</time>
      </trkpt>
      <trkpt lat="44.2372" lon="2.97229">
        <ele>859</ele>
        <time>2019-10-13T10:05:05.000Z</time>
      </trkpt>
      <trkpt lat="44.23718" lon="2.97229">
        <ele>859</ele>
        <time>2019-10-13T10:05:06.000Z</time>
      </trkpt>
      <trkpt lat="44.23717" lon="2.97229">
        <ele>859</ele>
        <time>2019-10-13T10:05:07.000Z</time>
      </trkpt>
      <trkpt lat="44.23715" lon="2.97228">
        <ele>859</ele>
        <time>2019-10-13T10:05:08.000Z</time>
      </trkpt>
      <trkpt lat="44.23713" lon="2.97228">
        <ele>859</ele>
        <time>2019-10-13T10:05:09.000Z</time>
      </trkpt>
      <trkpt lat="44.23712" lon="2.97229">
        <ele>859</ele>
        <time>2019-10-13T10:05:10.000Z</time>
      </trkpt>
      <trkpt lat="44.2371" lon="2.97229">
        <ele>859</ele>
        <time>2019-10-13T10:05:11.000Z</time>
      </trkpt>
      <trkpt lat="44.23709" lon="2.97229">
        <ele>859</ele>
        <time>2019-10-13T10:05:12.000Z</time>
      </trkpt>
      <trkpt lat="44.23707" lon="2.9723">
        <ele>859</ele>
        <time>2019-10-13T10:05:13.000Z</time>
      </trkpt>
      <trkpt lat="44.23705" lon="2.9723">
        <ele>859</ele>
        <time>2019-10-13T10:05:14.000Z</time>
      </trkpt>
      <trkpt lat="44.23704" lon="2.97231">
        <ele>859</ele>
        <time>2019-10-13T10:05:15.000Z</time>
      </trkpt>
      <trkpt lat="44.23702" lon="2.97232">
        <ele>858</ele>
        <time>2019-10-13T10:05:16.000Z</time>
      </trkpt>
      <trkpt lat="44.23701" lon="2.97232">
        <ele>858</ele>
        <time>2019-10-13T10:05:17.000Z</time>
      </trkpt>
      <trkpt lat="44.23699" lon="2.97233">
        <ele>858</ele>
        <time>2019-10-13T10:05:18.000Z</time>
      </trkpt>
      <trkpt lat="44.23698" lon="2.97234">
        <ele>858</ele>
        <time>2019-10-13T10:05:19.000Z</time>
      </trkpt>
      <trkpt lat="44.23696" lon="2.97234">
        <ele>858</ele>
        <time>2019-10-13T10:05:20.000Z</time>
      </trkpt>
      <trkpt lat="44.23695" lon="2.97235">
        <ele>858</ele>
        <time>2019-10-13T10:05:21.000Z</time>
      </trkpt>
      <trkpt lat="44.23693" lon="2.97236">
        <ele>858</ele>
        <time>2019-10-13T10:05:22.000Z</time>
      </trkpt>
      <trkpt lat="44.23692" lon="2.97237">
        <ele>858</ele>
        <time>2019-10-13T10:05:23.000Z</time>
      </trkpt>
      <trkpt lat="44.2369" lon="2.97238">
        <ele>858</ele>
        <time>2019-10-13T10:05:24.000Z</time>
      </trkpt>
      <trkpt lat="44.23689" lon="2.97238">
        <ele>858</ele>
        <time>2019-10-13T10:05:25.000Z</time>
      </trkpt>
      <trkpt lat="44.23688" lon="2.97239">
        <ele>858</ele>
        <time>2019-10-13T10:05:26.000Z</time>
      </trkpt>
      <trkpt lat="44.23686" lon="2.9724">
        <ele>858</ele>
        <time>2019-10-13T10:05:27.000Z</time>
      </trkpt>
      <trkpt lat="44.23685" lon="2.97241">
        <ele>858</ele>
        <time>2019-10-13T10:05:28.000Z</time>
      </trkpt>
      <trkpt lat="44.23683" lon="2.97241">
        <ele>858</ele>
        <time>2019-10-13T10:05:29.000Z</time>
      </trkpt>
      <trkpt lat="44.23682" lon="2.97242">
        <ele>858</ele>
        <time>2019-10-13T10:05:30.000Z</time>
      </trkpt>
      <trkpt lat="44.2368" lon="2.97242">
        <ele>857</ele>
        <time>2019-10-13T10:05:31.000Z</time>
      </trkpt>
      <trkpt lat="44.23679" lon="2.97243">
        <ele>857</ele>
        <time>2019-10-13T10:05:32.000Z</time>
      </trkpt>
      <trkpt lat="44.23678" lon="2.97244">
        <ele>857</ele>
        <time>2019-10-13T10:05:33.000Z</time>
      </trkpt>
      <trkpt lat="44.23676" lon="2.97244">
        <ele>857</ele>
        <time>2019-10-13T10:05:34.000Z</time>
      </trkpt>
      <trkpt lat="44.23675" lon="2.97245">
        <ele>857</ele>
        <time>2019-10-13T10:05:35.000Z</time>
      </trkpt>
      <trkpt lat="44.23673" lon="2.97246">
        <ele>857</ele>
        <time>2019-10-13T10:05:36.000Z</time>
      </trkpt>
      <trkpt lat="44.23671" lon="2.97247">
        <ele>857</ele>
        <time>2019-10-13T10:05:37.000Z</time>
      </trkpt>
      <trkpt lat="44.2367" lon="2.97247">
        <ele>857</ele>
        <time>2019-10-13T10:05:38.000Z</time>
      </trkpt>
      <trkpt lat="44.23668" lon="2.97248">
        <ele>857</ele>
        <time>2019-10-13T10:05:39.000Z</time>
      </trkpt>
      <trkpt lat="44.23667" lon="2.97249">
        <ele>857</ele>
        <time>2019-10-13T10:05:40.000Z</time>
      </trkpt>
      <trkpt lat="44.23665" lon="2.9725">
        <ele>857</ele>
        <time>2019-10-13T10:05:41.000Z</time>
      </trkpt>
      <trkpt lat="44.23664" lon="2.97251">
        <ele>857</ele>
        <time>2019-10-13T10:05:42.000Z</time>
      </trkpt>
      <trkpt lat="44.23662" lon="2.97252">
        <ele>857</ele>
        <time>2019-10-13T10:05:43.000Z</time>
      </trkpt>
      <trkpt lat="44.23661" lon="2.97253">
        <ele>857</ele>
        <time>2019-10-13T10:05:44.000Z</time>
      </trkpt>
      <trkpt lat="44.23659" lon="2.97254">
        <ele>857</ele>
        <time>2019-10-13T10:05:45.000Z</time>
      </trkpt>
      <trkpt lat="44.23658" lon="2.97255">
        <ele>857</ele>
        <time>2019-10-13T10:05:46.000Z</time>
      </trkpt>
      <trkpt lat="44.23656" lon="2.97256">
        <ele>857</ele>
        <time>2019-10-13T10:05:47.000Z</time>
      </trkpt>
      <trkpt lat="44.23655" lon="2.97257">
        <ele>857</ele>
        <time>2019-10-13T10:05:48.000Z</time>
      </trkpt>
      <trkpt lat="44.23653" lon="2.97258">
        <ele>857</ele>
        <time>2019-10-13T10:05:49.000Z</time>
      </trkpt>
      <trkpt lat="44.23652" lon="2.97259">
        <ele>857</ele>
        <time>2019-10-13T10:05:50.000Z</time>
      </trkpt>
      <trkpt lat="44.2365" lon="2.9726">
        <ele>857</ele>
        <time>2019-10-13T10:05:51.000Z</time>
      </trkpt>
      <trkpt lat="44.23648" lon="2.97261">
        <ele>857</ele>
        <time>2019-10-13T10:05:52.000Z</time>
      </trkpt>
      <trkpt lat="44.23647" lon="2.97262">
        <ele>857</ele>
        <time>2019-10-13T10:05:53.000Z</time>
      </trkpt>
      <trkpt lat="44.23645" lon="2.97263">
        <ele>857</ele>
        <time>2019-10-13T10:05:54.000Z</time>
      </trkpt>
      <trkpt lat="44.23643" lon="2.97264">
        <ele>857</ele>
        <time>2019-10-13T10:05:55.000Z</time>
      </trkpt>
      <trkpt lat="44.23642" lon="2.97265">
        <ele>857</ele>
        <time>2019-10-13T10:05:56.000Z</time>
      </trkpt>
      <trkpt lat="44.2364" lon="2.97266">
        <ele>857</ele>
        <time>2019-10-13T10:05:57.000Z</time>
      </trkpt>
      <trkpt lat="44.23639" lon="2.97267">
        <ele>857</ele>
        <time>2019-10-13T10:05:58.000Z</time>
      </trkpt>
      <trkpt lat="44.23637" lon="2.97268">
        <ele>857</ele>
        <time>2019-10-13T10:05:59.000Z</time>
      </trkpt>
      <trkpt lat="44.23635" lon="2.97269">
        <ele>857</ele>
        <time>2019-10-13T10:06:00.000Z</time>
      </trkpt>
      <trkpt lat="44.23634" lon="2.9727">
        <ele>857</ele>
        <time>2019-10-13T10:06:01.000Z</time>
      </trkpt>
      <trkpt lat="44.23632" lon="2.97271">
        <ele>857</ele>
        <time>2019-10-13T10:06:02.000Z</time>
      </trkpt>
      <trkpt lat="44.2363" lon="2.97272">
        <ele>857</ele>
        <time>2019-10-13T10:06:03.000Z</time>
      </trkpt>
      <trkpt lat="44.23629" lon="2.97273">
        <ele>857</ele>
        <time>2019-10-13T10:06:04.000Z</time>
      </trkpt>
      <trkpt lat="44.23627" lon="2.97274">
        <ele>857</ele>
        <time>2019-10-13T10:06:05.000Z</time>
      </trkpt>
      <trkpt lat="44.23625" lon="2.97275">
        <ele>857</ele>
        <time>2019-10-13T10:06:06.000Z</time>
      </trkpt>
      <trkpt lat="44.23624" lon="2.97276">
        <ele>857</ele>
        <time>2019-10-13T10:06:07.000Z</time>
      </trkpt>
      <trkpt lat="44.23622" lon="2.97277">
        <ele>857</ele>
        <time>2019-10-13T10:06:08.000Z</time>
      </trkpt>
      <trkpt lat="44.2362" lon="2.97278">
        <ele>857</ele>
        <time>2019-10-13T10:06:09.000Z</time>
      </trkpt>
      <trkpt lat="44.23619" lon="2.97279">
        <ele>857</ele>
        <time>2019-10-13T10:06:10.000Z</time>
      </trkpt>
      <trkpt lat="44.23617" lon="2.9728">
        <ele>857</ele>
        <time>2019-10-13T10:06:11.000Z</time>
      </trkpt>
      <trkpt lat="44.23616" lon="2.97281">
        <ele>857</ele>
        <time>2019-10-13T10:06:12.000Z</time>
      </trkpt>
      <trkpt lat="44.23614" lon="2.97282">
        <ele>856</ele>
        <time>2019-10-13T10:06:13.000Z</time>
      </trkpt>
      <trkpt lat="44.23612" lon="2.97283">
        <ele>856</ele>
        <time>2019-10-13T10:06:14.000Z</time>
      </trkpt>
      <trkpt lat="44.23611" lon="2.97284">
        <ele>856</ele>
        <time>2019-10-13T10:06:15.000Z</time>
      </trkpt>
      <trkpt lat="44.23609" lon="2.97285">
        <ele>856</ele>
        <time>2019-10-13T10:06:16.000Z</time>
      </trkpt>
      <trkpt lat="44.23608" lon="2.97286">
        <ele>856</ele>
        <time>2019-10-13T10:06:17.000Z</time>
      </trkpt>
      <trkpt lat="44.23606" lon="2.97288">
        <ele>856</ele>
        <time>2019-10-13T10:06:18.000Z</time>
      </trkpt>
      <trkpt lat="44.23605" lon="2.97289">
        <ele>856</ele>
        <time>2019-10-13T10:06:19.000Z</time>
      </trkpt>
      <trkpt lat="44.23603" lon="2.9729">
        <ele>856</ele>
        <time>2019-10-13T10:06:20.000Z</time>
      </trkpt>
      <trkpt lat="44.23602" lon="2.97291">
        <ele>856</ele>
        <time>2019-10-13T10:06:21.000Z</time>
      </trkpt>
      <trkpt lat="44.236" lon="2.97292">
        <ele>856</ele>
        <time>2019-10-13T10:06:22.000Z</time>
      </trkpt>
      <trkpt lat="44.23599" lon="2.97293">
        <ele>856</ele>
        <time>2019-10-13T10:06:23.000Z</time>
      </trkpt>
      <trkpt lat="44.23598" lon="2.97294">
        <ele>856</ele>
        <time>2019-10-13T10:06:24.000Z</time>
      </trkpt>
      <trkpt lat="44.23596" lon="2.97295">
        <ele>855</ele>
        <time>2019-10-13T10:06:25.000Z</time>
      </trkpt>
      <trkpt lat="44.23595" lon="2.97296">
        <ele>855</ele>
        <time>2019-10-13T10:06:26.000Z</time>
      </trkpt>
      <trkpt lat="44.23593" lon="2.97298">
        <ele>855</ele>
        <time>2019-10-13T10:06:27.000Z</time>
      </trkpt>
      <trkpt lat="44.23592" lon="2.97299">
        <ele>855</ele>
        <time>2019-10-13T10:06:28.000Z</time>
      </trkpt>
      <trkpt lat="44.2359" lon="2.973">
        <ele>855</ele>
        <time>2019-10-13T10:06:29.000Z</time>
      </trkpt>
      <trkpt lat="44.23589" lon="2.97301">
        <ele>855</ele>
        <time>2019-10-13T10:06:30.000Z</time>
      </trkpt>
      <trkpt lat="44.23587" lon="2.97302">
        <ele>855</ele>
        <time>2019-10-13T10:06:31.000Z</time>
      </trkpt>
      <trkpt lat="44.23586" lon="2.97303">
        <ele>855</ele>
        <time>2019-10-13T10:06:32.000Z</time>
      </trkpt>
      <trkpt lat="44.23584" lon="2.97304">
        <ele>855</ele>
        <time>2019-10-13T10:06:33.000Z</time>
      </trkpt>
      <trkpt lat="44.23583" lon="2.97305">
        <ele>855</ele>
        <time>2019-10-13T10:06:34.000Z</time>
      </trkpt>
      <trkpt lat="44.23581" lon="2.97306">
        <ele>855</ele>
        <time>2019-10-13T10:06:35.000Z</time>
      </trkpt>
      <trkpt lat="44.2358" lon="2.97307">
        <ele>855</ele>
        <time>2019-10-13T10:06:36.000Z</time>
      </trkpt>
      <trkpt lat="44.23579" lon="2.97308">
        <ele>855</ele>
        <time>2019-10-13T10:06:37.000Z</time>
      </trkpt>
      <trkpt lat="44.23577" lon="2.97309">
        <ele>855</ele>
        <time>2019-10-13T10:06:38.000Z</time>
      </trkpt>
      <trkpt lat="44.23576" lon="2.9731">
        <ele>855</ele>
        <time>2019-10-13T10:06:39.000Z</time>
      </trkpt>
      <trkpt lat="44.23574" lon="2.97311">
        <ele>855</ele>
        <time>2019-10-13T10:06:40.000Z</time>
      </trkpt>
      <trkpt lat="44.23573" lon="2.97312">
        <ele>855</ele>
        <time>2019-10-13T10:06:41.000Z</time>
      </trkpt>
      <trkpt lat="44.23572" lon="2.97313">
        <ele>855</ele>
        <time>2019-10-13T10:06:42.000Z</time>
      </trkpt>
      <trkpt lat="44.2357" lon="2.97314">
        <ele>855</ele>
        <time>2019-10-13T10:06:43.000Z</time>
      </trkpt>
      <trkpt lat="44.23569" lon="2.97315">
        <ele>855</ele>
        <time>2019-10-13T10:06:44.000Z</time>
      </trkpt>
      <trkpt lat="44.23567" lon="2.97316">
        <ele>855</ele>
        <time>2019-10-13T10:06:45.000Z</time>
      </trkpt>
      <trkpt lat="44.23566" lon="2.97317">
        <ele>855</ele>
        <time>2019-10-13T10:06:46.000Z</time>
      </trkpt>
      <trkpt lat="44.23564" lon="2.97318">
        <ele>855</ele>
        <time>2019-10-13T10:06:47.000Z</time>
      </trkpt>
      <trkpt lat="44.23563" lon="2.97319">
        <ele>854</ele>
        <time>2019-10-13T10:06:48.000Z</time>
      </trkpt>
      <trkpt lat="44.23561" lon="2.97319">
        <ele>854</ele>
        <time>2019-10-13T10:06:49.000Z</time>
      </trkpt>
      <trkpt lat="44.2356" lon="2.9732">
        <ele>854</ele>
        <time>2019-10-13T10:06:50.000Z</time>
      </trkpt>
      <trkpt lat="44.23558" lon="2.97321">
        <ele>854</ele>
        <time>2019-10-13T10:06:51.000Z</time>
      </trkpt>
      <trkpt lat="44.23557" lon="2.97322">
        <ele>854</ele>
        <time>2019-10-13T10:06:52.000Z</time>
      </trkpt>
      <trkpt lat="44.23555" lon="2.97323">
        <ele>854</ele>
        <time>2019-10-13T10:06:53.000Z</time>
      </trkpt>
      <trkpt lat="44.23554" lon="2.97323">
        <ele>854</ele>
        <time>2019-10-13T10:06:54.000Z</time>
      </trkpt>
      <trkpt lat="44.23552" lon="2.97324">
        <ele>854</ele>
        <time>2019-10-13T10:06:55.000Z</time>
      </trkpt>
      <trkpt lat="44.2355" lon="2.97325">
        <ele>854</ele>
        <time>2019-10-13T10:06:56.000Z</time>
      </trkpt>
      <trkpt lat="44.23549" lon="2.97325">
        <ele>854</ele>
        <time>2019-10-13T10:06:57.000Z</time>
      </trkpt>
      <trkpt lat="44.23548" lon="2.97326">
        <ele>854</ele>
        <time>2019-10-13T10:06:58.000Z</time>
      </trkpt>
      <trkpt lat="44.23546" lon="2.97326">
        <ele>854</ele>
        <time>2019-10-13T10:06:59.000Z</time>
      </trkpt>
      <trkpt lat="44.23545" lon="2.97327">
        <ele>853</ele>
        <time>2019-10-13T10:07:00.000Z</time>
      </trkpt>
      <trkpt lat="44.23543" lon="2.97328">
        <ele>853</ele>
        <time>2019-10-13T10:07:01.000Z</time>
      </trkpt>
      <trkpt lat="44.23542" lon="2.97328">
        <ele>853</ele>
        <time>2019-10-13T10:07:02.000Z</time>
      </trkpt>
      <trkpt lat="44.23541" lon="2.97329">
        <ele>853</ele>
        <time>2019-10-13T10:07:03.000Z</time>
      </trkpt>
      <trkpt lat="44.23539" lon="2.9733">
        <ele>853</ele>
        <time>2019-10-13T10:07:04.000Z</time>
      </trkpt>
      <trkpt lat="44.23538" lon="2.9733">
        <ele>853</ele>
        <time>2019-10-13T10:07:05.000Z</time>
      </trkpt>
      <trkpt lat="44.23536" lon="2.97331">
        <ele>853</ele>
        <time>2019-10-13T10:07:06.000Z</time>
      </trkpt>
      <trkpt lat="44.23535" lon="2.97332">
        <ele>853</ele>
        <time>2019-10-13T10:07:07.000Z</time>
      </trkpt>
      <trkpt lat="44.23533" lon="2.97333">
        <ele>853</ele>
        <time>2019-10-13T10:07:08.000Z</time>
      </trkpt>
      <trkpt lat="44.23532" lon="2.97333">
        <ele>853</ele>
        <time>2019-10-13T10:07:09.000Z</time>
      </trkpt>
      <trkpt lat="44.2353" lon="2.97334">
        <ele>852</ele>
        <time>2019-10-13T10:07:10.000Z</time>
      </trkpt>
      <trkpt lat="44.23529" lon="2.97334">
        <ele>852</ele>
        <time>2019-10-13T10:07:11.000Z</time>
      </trkpt>
      <trkpt lat="44.23527" lon="2.97335">
        <ele>852</ele>
        <time>2019-10-13T10:07:12.000Z</time>
      </trkpt>
      <trkpt lat="44.23525" lon="2.97335">
        <ele>852</ele>
        <time>2019-10-13T10:07:13.000Z</time>
      </trkpt>
      <trkpt lat="44.23524" lon="2.97336">
        <ele>852</ele>
        <time>2019-10-13T10:07:14.000Z</time>
      </trkpt>
      <trkpt lat="44.23523" lon="2.97336">
        <ele>852</ele>
        <time>2019-10-13T10:07:15.000Z</time>
      </trkpt>
      <trkpt lat="44.23521" lon="2.97337">
        <ele>852</ele>
        <time>2019-10-13T10:07:16.000Z</time>
      </trkpt>
      <trkpt lat="44.2352" lon="2.97338">
        <ele>851</ele>
        <time>2019-10-13T10:07:17.000Z</time>
      </trkpt>
      <trkpt lat="44.23518" lon="2.97339">
        <ele>851</ele>
        <time>2019-10-13T10:07:18.000Z</time>
      </trkpt>
      <trkpt lat="44.23517" lon="2.97339">
        <ele>851</ele>
        <time>2019-10-13T10:07:19.000Z</time>
      </trkpt>
      <trkpt lat="44.23515" lon="2.97339">
        <ele>851</ele>
        <time>2019-10-13T10:07:20.000Z</time>
      </trkpt>
      <trkpt lat="44.23513" lon="2.9734">
        <ele>851</ele>
        <time>2019-10-13T10:07:21.000Z</time>
      </trkpt>
      <trkpt lat="44.23512" lon="2.9734">
        <ele>851</ele>
        <time>2019-10-13T10:07:22.000Z</time>
      </trkpt>
      <trkpt lat="44.2351" lon="2.9734">
        <ele>851</ele>
        <time>2019-10-13T10:07:23.000Z</time>
      </trkpt>
      <trkpt lat="44.23509" lon="2.97341">
        <ele>850</ele>
        <time>2019-10-13T10:07:24.000Z</time>
      </trkpt>
      <trkpt lat="44.23507" lon="2.97341">
        <ele>850</ele>
        <time>2019-10-13T10:07:25.000Z</time>
      </trkpt>
      <trkpt lat="44.23506" lon="2.97341">
        <ele>850</ele>
        <time>2019-10-13T10:07:26.000Z</time>
      </trkpt>
      <trkpt lat="44.23505" lon="2.97341">
        <ele>850</ele>
        <time>2019-10-13T10:07:27.000Z</time>
      </trkpt>
      <trkpt lat="44.23503" lon="2.97342">
        <ele>850</ele>
        <time>2019-10-13T10:07:28.000Z</time>
      </trkpt>
      <trkpt lat="44.23502" lon="2.97342">
        <ele>850</ele>
        <time>2019-10-13T10:07:29.000Z</time>
      </trkpt>
      <trkpt lat="44.235" lon="2.97343">
        <ele>850</ele>
        <time>2019-10-13T10:07:30.000Z</time>
      </trkpt>
      <trkpt lat="44.23498" lon="2.97344">
        <ele>849</ele>
        <time>2019-10-13T10:07:31.000Z</time>
      </trkpt>
      <trkpt lat="44.23497" lon="2.97344">
        <ele>849</ele>
        <time>2019-10-13T10:07:32.000Z</time>
      </trkpt>
      <trkpt lat="44.23495" lon="2.97345">
        <ele>849</ele>
        <time>2019-10-13T10:07:33.000Z</time>
      </trkpt>
      <trkpt lat="44.23493" lon="2.97345">
        <ele>849</ele>
        <time>2019-10-13T10:07:34.000Z</time>
      </trkpt>
      <trkpt lat="44.23492" lon="2.97345">
        <ele>849</ele>
        <time>2019-10-13T10:07:35.000Z</time>
      </trkpt>
      <trkpt lat="44.23491" lon="2.97346">
        <ele>849</ele>
        <time>2019-10-13T10:07:36.000Z</time>
      </trkpt>
      <trkpt lat="44.23489" lon="2.97346">
        <ele>849</ele>
        <time>2019-10-13T10:07:37.000Z</time>
      </trkpt>
      <trkpt lat="44.23487" lon="2.97346">
        <ele>849</ele>
        <time>2019-10-13T10:07:38.000Z</time>
      </trkpt>
      <trkpt lat="44.23486" lon="2.97347">
        <ele>849</ele>
        <time>2019-10-13T10:07:39.000Z</time>
      </trkpt>
      <trkpt lat="44.23484" lon="2.97347">
        <ele>849</ele>
        <time>2019-10-13T10:07:40.000Z</time>
      </trkpt>
      <trkpt lat="44.23482" lon="2.97347">
        <ele>848</ele>
        <time>2019-10-13T10:07:41.000Z</time>
      </trkpt>
      <trkpt lat="44.23481" lon="2.97348">
        <ele>848</ele>
        <time>2019-10-13T10:07:42.000Z</time>
      </trkpt>
      <trkpt lat="44.23479" lon="2.97348">
        <ele>848</ele>
        <time>2019-10-13T10:07:43.000Z</time>
      </trkpt>
      <trkpt lat="44.23478" lon="2.97348">
        <ele>848</ele>
        <time>2019-10-13T10:07:44.000Z</time>
      </trkpt>
      <trkpt lat="44.23476" lon="2.97349">
        <ele>848</ele>
        <time>2019-10-13T10:07:45.000Z</time>
      </trkpt>
      <trkpt lat="44.23475" lon="2.97349">
        <ele>848</ele>
        <time>2019-10-13T10:07:46.000Z</time>
      </trkpt>
      <trkpt lat="44.23473" lon="2.97349">
        <ele>848</ele>
        <time>2019-10-13T10:07:47.000Z</time>
      </trkpt>
      <trkpt lat="44.23472" lon="2.97349">
        <ele>848</ele>
        <time>2019-10-13T10:07:48.000Z</time>
      </trkpt>
      <trkpt lat="44.2347" lon="2.97349">
        <ele>847</ele>
        <time>2019-10-13T10:07:49.000Z</time>
      </trkpt>
      <trkpt lat="44.23469" lon="2.97349">
        <ele>847</ele>
        <time>2019-10-13T10:07:50.000Z</time>
      </trkpt>
      <trkpt lat="44.23467" lon="2.97349">
        <ele>847</ele>
        <time>2019-10-13T10:07:51.000Z</time>
      </trkpt>
      <trkpt lat="44.23465" lon="2.97349">
        <ele>847</ele>
        <time>2019-10-13T10:07:52.000Z</time>
      </trkpt>
      <trkpt lat="44.23464" lon="2.97349">
        <ele>847</ele>
        <time>2019-10-13T10:07:53.000Z</time>
      </trkpt>
      <trkpt lat="44.23462" lon="2.97349">
        <ele>847</ele>
        <time>2019-10-13T10:07:54.000Z</time>
      </trkpt>
      <trkpt lat="44.2346" lon="2.97349">
        <ele>847</ele>
        <time>2019-10-13T10:07:55.000Z</time>
      </trkpt>
      <trkpt lat="44.23459" lon="2.97349">
        <ele>847</ele>
        <time>2019-10-13T10:07:56.000Z</time>
      </trkpt>
      <trkpt lat="44.23457" lon="2.97349">
        <ele>846</ele>
        <time>2019-10-13T10:07:57.000Z</time>
      </trkpt>
      <trkpt lat="44.23455" lon="2.97349">
        <ele>846</ele>
        <time>2019-10-13T10:07:58.000Z</time>
      </trkpt>
      <trkpt lat="44.23454" lon="2.97349">
        <ele>846</ele>
        <time>2019-10-13T10:07:59.000Z</time>
      </trkpt>
      <trkpt lat="44.23452" lon="2.97349">
        <ele>846</ele>
        <time>2019-10-13T10:08:00.000Z</time>
      </trkpt>
      <trkpt lat="44.2345" lon="2.97349">
        <ele>846</ele>
        <time>2019-10-13T10:08:01.000Z</time>
      </trkpt>
      <trkpt lat="44.23448" lon="2.97349">
        <ele>846</ele>
        <time>2019-10-13T10:08:02.000Z</time>
      </trkpt>
      <trkpt lat="44.23447" lon="2.97349">
        <ele>846</ele>
        <time>2019-10-13T10:08:03.000Z</time>
      </trkpt>
      <trkpt lat="44.23445" lon="2.97349">
        <ele>846</ele>
        <time>2019-10-13T10:08:04.000Z</time>
      </trkpt>
      <trkpt lat="44.23443" lon="2.97349">
        <ele>846</ele>
        <time>2019-10-13T10:08:05.000Z</time>
      </trkpt>
      <trkpt lat="44.23442" lon="2.97348">
        <ele>846</ele>
        <time>2019-10-13T10:08:06.000Z</time>
      </trkpt>
      <trkpt lat="44.2344" lon="2.97348">
        <ele>845</ele>
        <time>2019-10-13T10:08:07.000Z</time>
      </trkpt>
      <trkpt lat="44.23438" lon="2.97348">
        <ele>845</ele>
        <time>2019-10-13T10:08:08.000Z</time>
      </trkpt>
      <trkpt lat="44.23437" lon="2.97348">
        <ele>845</ele>
        <time>2019-10-13T10:08:09.000Z</time>
      </trkpt>
      <trkpt lat="44.23435" lon="2.97348">
        <ele>845</ele>
        <time>2019-10-13T10:08:10.000Z</time>
      </trkpt>
      <trkpt lat="44.23433" lon="2.97348">
        <ele>845</ele>
        <time>2019-10-13T10:08:11.000Z</time>
      </trkpt>
      <trkpt lat="44.23431" lon="2.97348">
        <ele>845</ele>
        <time>2019-10-13T10:08:12.000Z</time>
      </trkpt>
      <trkpt lat="44.2343" lon="2.97348">
        <ele>845</ele>
        <time>2019-10-13T10:08:13.000Z</time>
      </trkpt>
      <trkpt lat="44.23428" lon="2.97348">
        <ele>845</ele>
        <time>2019-10-13T10:08:14.000Z</time>
      </trkpt>
      <trkpt lat="44.23426" lon="2.97348">
        <ele>845</ele>
        <time>2019-10-13T10:08:15.000Z</time>
      </trkpt>
      <trkpt lat="44.23424" lon="2.97349">
        <ele>845</ele>
        <time>2019-10-13T10:08:16.000Z</time>
      </trkpt>
      <trkpt lat="44.23423" lon="2.97349">
        <ele>845</ele>
        <time>2019-10-13T10:08:17.000Z</time>
      </trkpt>
      <trkpt lat="44.23421" lon="2.97348">
        <ele>845</ele>
        <time>2019-10-13T10:08:18.000Z</time>
      </trkpt>
      <trkpt lat="44.23419" lon="2.97348">
        <ele>845</ele>
        <time>2019-10-13T10:08:19.000Z</time>
      </trkpt>
      <trkpt lat="44.23418" lon="2.97348">
        <ele>845</ele>
        <time>2019-10-13T10:08:20.000Z</time>
      </trkpt>
      <trkpt lat="44.23416" lon="2.97348">
        <ele>845</ele>
        <time>2019-10-13T10:08:21.000Z</time>
      </trkpt>
      <trkpt lat="44.23414" lon="2.97348">
        <ele>844</ele>
        <time>2019-10-13T10:08:22.000Z</time>
      </trkpt>
      <trkpt lat="44.23412" lon="2.97348">
        <ele>844</ele>
        <time>2019-10-13T10:08:23.000Z</time>
      </trkpt>
      <trkpt lat="44.23411" lon="2.97348">
        <ele>844</ele>
        <time>2019-10-13T10:08:24.000Z</time>
      </trkpt>
      <trkpt lat="44.23409" lon="2.97348">
        <ele>844</ele>
        <time>2019-10-13T10:08:25.000Z</time>
      </trkpt>
      <trkpt lat="44.23407" lon="2.97348">
        <ele>844</ele>
        <time>2019-10-13T10:08:26.000Z</time>
      </trkpt>
      <trkpt lat="44.23406" lon="2.97348">
        <ele>844</ele>
        <time>2019-10-13T10:08:27.000Z</time>
      </trkpt>
      <trkpt lat="44.23404" lon="2.97348">
        <ele>844</ele>
        <time>2019-10-13T10:08:28.000Z</time>
      </trkpt>
      <trkpt lat="44.23402" lon="2.97348">
        <ele>844</ele>
        <time>2019-10-13T10:08:29.000Z</time>
      </trkpt>
      <trkpt lat="44.23401" lon="2.97348">
        <ele>844</ele>
        <time>2019-10-13T10:08:30.000Z</time>
      </trkpt>
      <trkpt lat="44.23399" lon="2.97348">
        <ele>844</ele>
        <time>2019-10-13T10:08:31.000Z</time>
      </trkpt>
      <trkpt lat="44.23398" lon="2.97348">
        <ele>844</ele>
        <time>2019-10-13T10:08:32.000Z</time>
      </trkpt>
      <trkpt lat="44.23396" lon="2.97348">
        <ele>844</ele>
        <time>2019-10-13T10:08:33.000Z</time>
      </trkpt>
      <trkpt lat="44.23394" lon="2.97348">
        <ele>844</ele>
        <time>2019-10-13T10:08:34.000Z</time>
      </trkpt>
      <trkpt lat="44.23393" lon="2.97348">
        <ele>844</ele>
        <time>2019-10-13T10:08:35.000Z</time>
      </trkpt>
      <trkpt lat="44.23391" lon="2.97348">
        <ele>844</ele>
        <time>2019-10-13T10:08:36.000Z</time>
      </trkpt>
      <trkpt lat="44.23389" lon="2.97348">
        <ele>844</ele>
        <time>2019-10-13T10:08:37.000Z</time>
      </trkpt>
      <trkpt lat="44.23388" lon="2.97348">
        <ele>844</ele>
        <time>2019-10-13T10:08:38.000Z</time>
      </trkpt>
      <trkpt lat="44.23386" lon="2.97348">
        <ele>844</ele>
        <time>2019-10-13T10:08:39.000Z</time>
      </trkpt>
      <trkpt lat="44.23384" lon="2.97348">
        <ele>844</ele>
        <time>2019-10-13T10:08:40.000Z</time>
      </trkpt>
      <trkpt lat="44.23383" lon="2.97348">
        <ele>844</ele>
        <time>2019-10-13T10:08:41.000Z</time>
      </trkpt>
      <trkpt lat="44.23381" lon="2.97348">
        <ele>844</ele>
        <time>2019-10-13T10:08:42.000Z</time>
      </trkpt>
      <trkpt lat="44.23379" lon="2.97348">
        <ele>844</ele>
        <time>2019-10-13T10:08:43.000Z</time>
      </trkpt>
      <trkpt lat="44.23377" lon="2.97348">
        <ele>844</ele>
        <time>2019-10-13T10:08:44.000Z</time>
      </trkpt>
      <trkpt lat="44.23376" lon="2.97348">
        <ele>844</ele>
        <time>2019-10-13T10:08:45.000Z</time>
      </trkpt>
      <trkpt lat="44.23374" lon="2.97348">
        <ele>844</ele>
        <time>2019-10-13T10:08:46.000Z</time>
      </trkpt>
      <trkpt lat="44.23372" lon="2.97348">
        <ele>844</ele>
        <time>2019-10-13T10:08:47.000Z</time>
      </trkpt>
      <trkpt lat="44.23371" lon="2.97348">
        <ele>844</ele>
        <time>2019-10-13T10:08:48.000Z</time>
      </trkpt>
      <trkpt lat="44.23369" lon="2.97348">
        <ele>844</ele>
        <time>2019-10-13T10:08:49.000Z</time>
      </trkpt>
      <trkpt lat="44.23367" lon="2.97348">
        <ele>844</ele>
        <time>2019-10-13T10:08:50.000Z</time>
      </trkpt>
      <trkpt lat="44.23366" lon="2.97348">
        <ele>844</ele>
        <time>2019-10-13T10:08:51.000Z</time>
      </trkpt>
      <trkpt lat="44.23364" lon="2.97348">
        <ele>844</ele>
        <time>2019-10-13T10:08:52.000Z</time>
      </trkpt>
      <trkpt lat="44.23362" lon="2.97348">
        <ele>844</ele>
        <time>2019-10-13T10:08:53.000Z</time>
      </trkpt>
      <trkpt lat="44.23361" lon="2.97348">
        <ele>844</ele>
        <time>2019-10-13T10:08:54.000Z</time>
      </trkpt>
      <trkpt lat="44.23359" lon="2.97348">
        <ele>844</ele>
        <time>2019-10-13T10:08:55.000Z</time>
      </trkpt>
      <trkpt lat="44.23358" lon="2.97348">
        <ele>844</ele>
        <time>2019-10-13T10:08:56.000Z</time>
      </trkpt>
      <trkpt lat="44.23356" lon="2.97348">
        <ele>844</ele>
        <time>2019-10-13T10:08:57.000Z</time>
      </trkpt>
      <trkpt lat="44.23354" lon="2.97348">
        <ele>844</ele>
        <time>2019-10-13T10:08:58.000Z</time>
      </trkpt>
      <trkpt lat="44.23352" lon="2.97348">
        <ele>844</ele>
        <time>2019-10-13T10:08:59.000Z</time>
      </trkpt>
      <trkpt lat="44.23351" lon="2.97348">
        <ele>844</ele>
        <time>2019-10-13T10:09:00.000Z</time>
      </trkpt>
      <trkpt lat="44.23349" lon="2.97348">
        <ele>844</ele>
        <time>2019-10-13T10:09:01.000Z</time>
      </trkpt>
      <trkpt lat="44.23347" lon="2.97348">
        <ele>844</ele>
        <time>2019-10-13T10:09:02.000Z</time>
      </trkpt>
      <trkpt lat="44.23345" lon="2.97348">
        <ele>844</ele>
        <time>2019-10-13T10:09:03.000Z</time>
      </trkpt>
      <trkpt lat="44.23343" lon="2.97348">
        <ele>844</ele>
        <time>2019-10-13T10:09:04.000Z</time>
      </trkpt>
      <trkpt lat="44.23342" lon="2.97348">
        <ele>844</ele>
        <time>2019-10-13T10:09:05.000Z</time>
      </trkpt>
      <trkpt lat="44.2334" lon="2.97348">
        <ele>844</ele>
        <time>2019-10-13T10:09:06.000Z</time>
      </trkpt>
      <trkpt lat="44.23338" lon="2.97348">
        <ele>844</ele>
        <time>2019-10-13T10:09:07.000Z</time>
      </trkpt>
      <trkpt lat="44.23336" lon="2.97348">
        <ele>844</ele>
        <time>2019-10-13T10:09:08.000Z</time>
      </trkpt>
      <trkpt lat="44.23334" lon="2.97348">
        <ele>844</ele>
        <time>2019-10-13T10:09:09.000Z</time>
      </trkpt>
      <trkpt lat="44.23332" lon="2.97348">
        <ele>844</ele>
        <time>2019-10-13T10:09:10.000Z</time>
      </trkpt>
      <trkpt lat="44.2333" lon="2.97348">
        <ele>844</ele>
        <time>2019-10-13T10:09:11.000Z</time>
      </trkpt>
      <trkpt lat="44.23328" lon="2.97348">
        <ele>844</ele>
        <time>2019-10-13T10:09:12.000Z</time>
      </trkpt>
      <trkpt lat="44.23326" lon="2.97348">
        <ele>844</ele>
        <time>2019-10-13T10:09:13.000Z</time>
      </trkpt>
      <trkpt lat="44.23324" lon="2.97348">
        <ele>844</ele>
        <time>2019-10-13T10:09:14.000Z</time>
      </trkpt>
      <trkpt lat="44.23323" lon="2.97348">
        <ele>844</ele>
        <time>2019-10-13T10:09:15.000Z</time>
      </trkpt>
      <trkpt lat="44.23321" lon="2.97348">
        <ele>844</ele>
        <time>2019-10-13T10:09:16.000Z</time>
      </trkpt>
      <trkpt lat="44.23319" lon="2.97349">
        <ele>844</ele>
        <time>2019-10-13T10:09:17.000Z</time>
      </trkpt>
      <trkpt lat="44.23317" lon="2.97349">
        <ele>844</ele>
        <time>2019-10-13T10:09:18.000Z</time>
      </trkpt>
      <trkpt lat="44.23316" lon="2.97349">
        <ele>844</ele>
        <time>2019-10-13T10:09:19.000Z</time>
      </trkpt>
      <trkpt lat="44.23314" lon="2.9735">
        <ele>844</ele>
        <time>2019-10-13T10:09:20.000Z</time>
      </trkpt>
      <trkpt lat="44.23312" lon="2.97351">
        <ele>844</ele>
        <time>2019-10-13T10:09:21.000Z</time>
      </trkpt>
      <trkpt lat="44.2331" lon="2.97352">
        <ele>844</ele>
        <time>2019-10-13T10:09:22.000Z</time>
      </trkpt>
      <trkpt lat="44.23309" lon="2.97353">
        <ele>843</ele>
        <time>2019-10-13T10:09:23.000Z</time>
      </trkpt>
      <trkpt lat="44.23308" lon="2.97354">
        <ele>843</ele>
        <time>2019-10-13T10:09:24.000Z</time>
      </trkpt>
      <trkpt lat="44.23306" lon="2.97355">
        <ele>843</ele>
        <time>2019-10-13T10:09:25.000Z</time>
      </trkpt>
      <trkpt lat="44.23304" lon="2.97356">
        <ele>843</ele>
        <time>2019-10-13T10:09:26.000Z</time>
      </trkpt>
      <trkpt lat="44.23302" lon="2.97358">
        <ele>843</ele>
        <time>2019-10-13T10:09:27.000Z</time>
      </trkpt>
      <trkpt lat="44.23301" lon="2.97359">
        <ele>843</ele>
        <time>2019-10-13T10:09:28.000Z</time>
      </trkpt>
      <trkpt lat="44.23299" lon="2.9736">
        <ele>843</ele>
        <time>2019-10-13T10:09:29.000Z</time>
      </trkpt>
      <trkpt lat="44.23297" lon="2.97361">
        <ele>843</ele>
        <time>2019-10-13T10:09:30.000Z</time>
      </trkpt>
      <trkpt lat="44.23296" lon="2.97362">
        <ele>842</ele>
        <time>2019-10-13T10:09:31.000Z</time>
      </trkpt>
      <trkpt lat="44.23294" lon="2.97364">
        <ele>842</ele>
        <time>2019-10-13T10:09:32.000Z</time>
      </trkpt>
      <trkpt lat="44.23292" lon="2.97365">
        <ele>842</ele>
        <time>2019-10-13T10:09:33.000Z</time>
      </trkpt>
      <trkpt lat="44.23291" lon="2.97366">
        <ele>842</ele>
        <time>2019-10-13T10:09:34.000Z</time>
      </trkpt>
      <trkpt lat="44.23289" lon="2.97367">
        <ele>842</ele>
        <time>2019-10-13T10:09:35.000Z</time>
      </trkpt>
      <trkpt lat="44.23288" lon="2.97369">
        <ele>842</ele>
        <time>2019-10-13T10:09:36.000Z</time>
      </trkpt>
      <trkpt lat="44.23286" lon="2.9737">
        <ele>842</ele>
        <time>2019-10-13T10:09:37.000Z</time>
      </trkpt>
      <trkpt lat="44.23285" lon="2.97372">
        <ele>842</ele>
        <time>2019-10-13T10:09:38.000Z</time>
      </trkpt>
      <trkpt lat="44.23284" lon="2.97374">
        <ele>842</ele>
        <time>2019-10-13T10:09:39.000Z</time>
      </trkpt>
      <trkpt lat="44.23282" lon="2.97375">
        <ele>841</ele>
        <time>2019-10-13T10:09:40.000Z</time>
      </trkpt>
      <trkpt lat="44.23281" lon="2.97377">
        <ele>841</ele>
        <time>2019-10-13T10:09:41.000Z</time>
      </trkpt>
      <trkpt lat="44.23279" lon="2.97378">
        <ele>841</ele>
        <time>2019-10-13T10:09:42.000Z</time>
      </trkpt>
      <trkpt lat="44.23278" lon="2.97379">
        <ele>841</ele>
        <time>2019-10-13T10:09:43.000Z</time>
      </trkpt>
      <trkpt lat="44.23277" lon="2.97381">
        <ele>841</ele>
        <time>2019-10-13T10:09:44.000Z</time>
      </trkpt>
      <trkpt lat="44.23275" lon="2.97382">
        <ele>841</ele>
        <time>2019-10-13T10:09:45.000Z</time>
      </trkpt>
      <trkpt lat="44.23274" lon="2.97383">
        <ele>840</ele>
        <time>2019-10-13T10:09:46.000Z</time>
      </trkpt>
      <trkpt lat="44.23273" lon="2.97385">
        <ele>840</ele>
        <time>2019-10-13T10:09:47.000Z</time>
      </trkpt>
      <trkpt lat="44.23271" lon="2.97387">
        <ele>840</ele>
        <time>2019-10-13T10:09:48.000Z</time>
      </trkpt>
      <trkpt lat="44.2327" lon="2.97388">
        <ele>840</ele>
        <time>2019-10-13T10:09:49.000Z</time>
      </trkpt>
      <trkpt lat="44.23268" lon="2.9739">
        <ele>840</ele>
        <time>2019-10-13T10:09:50.000Z</time>
      </trkpt>
      <trkpt lat="44.23267" lon="2.97391">
        <ele>839</ele>
        <time>2019-10-13T10:09:51.000Z</time>
      </trkpt>
      <trkpt lat="44.23266" lon="2.97393">
        <ele>839</ele>
        <time>2019-10-13T10:09:52.000Z</time>
      </trkpt>
      <trkpt lat="44.23265" lon="2.97395">
        <ele>839</ele>
        <time>2019-10-13T10:09:53.000Z</time>
      </trkpt>
      <trkpt lat="44.23264" lon="2.97397">
        <ele>839</ele>
        <time>2019-10-13T10:09:54.000Z</time>
      </trkpt>
      <trkpt lat="44.23263" lon="2.97399">
        <ele>839</ele>
        <time>2019-10-13T10:09:55.000Z</time>
      </trkpt>
      <trkpt lat="44.23261" lon="2.974">
        <ele>839</ele>
        <time>2019-10-13T10:09:56.000Z</time>
      </trkpt>
      <trkpt lat="44.23259" lon="2.97401">
        <ele>839</ele>
        <time>2019-10-13T10:09:57.000Z</time>
      </trkpt>
      <trkpt lat="44.23257" lon="2.97402">
        <ele>839</ele>
        <time>2019-10-13T10:09:58.000Z</time>
      </trkpt>
      <trkpt lat="44.23255" lon="2.97402">
        <ele>839</ele>
        <time>2019-10-13T10:09:59.000Z</time>
      </trkpt>
      <trkpt lat="44.23253" lon="2.97403">
        <ele>839</ele>
        <time>2019-10-13T10:10:00.000Z</time>
      </trkpt>
      <trkpt lat="44.23251" lon="2.97403">
        <ele>838</ele>
        <time>2019-10-13T10:10:01.000Z</time>
      </trkpt>
      <trkpt lat="44.23249" lon="2.97403">
        <ele>838</ele>
        <time>2019-10-13T10:10:02.000Z</time>
      </trkpt>
      <trkpt lat="44.23247" lon="2.97403">
        <ele>838</ele>
        <time>2019-10-13T10:10:03.000Z</time>
      </trkpt>
      <trkpt lat="44.23245" lon="2.97404">
        <ele>838</ele>
        <time>2019-10-13T10:10:04.000Z</time>
      </trkpt>
      <trkpt lat="44.23243" lon="2.97404">
        <ele>838</ele>
        <time>2019-10-13T10:10:05.000Z</time>
      </trkpt>
      <trkpt lat="44.23241" lon="2.97405">
        <ele>838</ele>
        <time>2019-10-13T10:10:06.000Z</time>
      </trkpt>
      <trkpt lat="44.23239" lon="2.97405">
        <ele>838</ele>
        <time>2019-10-13T10:10:07.000Z</time>
      </trkpt>
      <trkpt lat="44.23237" lon="2.97406">
        <ele>838</ele>
        <time>2019-10-13T10:10:08.000Z</time>
      </trkpt>
      <trkpt lat="44.23235" lon="2.97406">
        <ele>838</ele>
        <time>2019-10-13T10:10:09.000Z</time>
      </trkpt>
      <trkpt lat="44.23234" lon="2.97406">
        <ele>838</ele>
        <time>2019-10-13T10:10:10.000Z</time>
      </trkpt>
      <trkpt lat="44.23232" lon="2.97407">
        <ele>838</ele>
        <time>2019-10-13T10:10:11.000Z</time>
      </trkpt>
      <trkpt lat="44.2323" lon="2.97407">
        <ele>838</ele>
        <time>2019-10-13T10:10:12.000Z</time>
      </trkpt>
      <trkpt lat="44.23228" lon="2.97407">
        <ele>838</ele>
        <time>2019-10-13T10:10:13.000Z</time>
      </trkpt>
      <trkpt lat="44.23226" lon="2.97407">
        <ele>838</ele>
        <time>2019-10-13T10:10:14.000Z</time>
      </trkpt>
      <trkpt lat="44.23224" lon="2.97407">
        <ele>838</ele>
        <time>2019-10-13T10:10:15.000Z</time>
      </trkpt>
      <trkpt lat="44.23222" lon="2.97407">
        <ele>838</ele>
        <time>2019-10-13T10:10:16.000Z</time>
      </trkpt>
      <trkpt lat="44.23221" lon="2.97408">
        <ele>838</ele>
        <time>2019-10-13T10:10:17.000Z</time>
      </trkpt>
      <trkpt lat="44.23219" lon="2.97408">
        <ele>838</ele>
        <time>2019-10-13T10:10:18.000Z</time>
      </trkpt>
      <trkpt lat="44.23217" lon="2.97408">
        <ele>838</ele>
        <time>2019-10-13T10:10:19.000Z</time>
      </trkpt>
      <trkpt lat="44.23215" lon="2.97408">
        <ele>838</ele>
        <time>2019-10-13T10:10:20.000Z</time>
      </trkpt>
      <trkpt lat="44.23213" lon="2.97408">
        <ele>838</ele>
        <time>2019-10-13T10:10:21.000Z</time>
      </trkpt>
      <trkpt lat="44.23211" lon="2.97407">
        <ele>838</ele>
        <time>2019-10-13T10:10:22.000Z</time>
      </trkpt>
      <trkpt lat="44.2321" lon="2.97407">
        <ele>838</ele>
        <time>2019-10-13T10:10:23.000Z</time>
      </trkpt>
      <trkpt lat="44.23208" lon="2.97407">
        <ele>838</ele>
        <time>2019-10-13T10:10:24.000Z</time>
      </trkpt>
      <trkpt lat="44.23206" lon="2.97407">
        <ele>838</ele>
        <time>2019-10-13T10:10:25.000Z</time>
      </trkpt>
      <trkpt lat="44.23204" lon="2.97408">
        <ele>838</ele>
        <time>2019-10-13T10:10:26.000Z</time>
      </trkpt>
      <trkpt lat="44.23202" lon="2.97408">
        <ele>838</ele>
        <time>2019-10-13T10:10:27.000Z</time>
      </trkpt>
      <trkpt lat="44.232" lon="2.97409">
        <ele>838</ele>
        <time>2019-10-13T10:10:28.000Z</time>
      </trkpt>
      <trkpt lat="44.23198" lon="2.97409">
        <ele>838</ele>
        <time>2019-10-13T10:10:29.000Z</time>
      </trkpt>
      <trkpt lat="44.23197" lon="2.9741">
        <ele>839</ele>
        <time>2019-10-13T10:10:30.000Z</time>
      </trkpt>
      <trkpt lat="44.23195" lon="2.9741">
        <ele>839</ele>
        <time>2019-10-13T10:10:31.000Z</time>
      </trkpt>
      <trkpt lat="44.23193" lon="2.97411">
        <ele>839</ele>
        <time>2019-10-13T10:10:32.000Z</time>
      </trkpt>
      <trkpt lat="44.23191" lon="2.97411">
        <ele>839</ele>
        <time>2019-10-13T10:10:33.000Z</time>
      </trkpt>
      <trkpt lat="44.23189" lon="2.97411">
        <ele>839</ele>
        <time>2019-10-13T10:10:34.000Z</time>
      </trkpt>
      <trkpt lat="44.23188" lon="2.97411">
        <ele>839</ele>
        <time>2019-10-13T10:10:35.000Z</time>
      </trkpt>
      <trkpt lat="44.23186" lon="2.97411">
        <ele>839</ele>
        <time>2019-10-13T10:10:36.000Z</time>
      </trkpt>
      <trkpt lat="44.23185" lon="2.9741">
        <ele>839</ele>
        <time>2019-10-13T10:10:37.000Z</time>
      </trkpt>
      <trkpt lat="44.23183" lon="2.97409">
        <ele>839</ele>
        <time>2019-10-13T10:10:38.000Z</time>
      </trkpt>
      <trkpt lat="44.23182" lon="2.97409">
        <ele>839</ele>
        <time>2019-10-13T10:10:39.000Z</time>
      </trkpt>
      <trkpt lat="44.2318" lon="2.97408">
        <ele>838</ele>
        <time>2019-10-13T10:10:40.000Z</time>
      </trkpt>
      <trkpt lat="44.23178" lon="2.97408">
        <ele>838</ele>
        <time>2019-10-13T10:10:41.000Z</time>
      </trkpt>
      <trkpt lat="44.23176" lon="2.97408">
        <ele>838</ele>
        <time>2019-10-13T10:10:42.000Z</time>
      </trkpt>
      <trkpt lat="44.23175" lon="2.97409">
        <ele>838</ele>
        <time>2019-10-13T10:10:43.000Z</time>
      </trkpt>
      <trkpt lat="44.23173" lon="2.97409">
        <ele>837</ele>
        <time>2019-10-13T10:10:44.000Z</time>
      </trkpt>
      <trkpt lat="44.23171" lon="2.9741">
        <ele>837</ele>
        <time>2019-10-13T10:10:45.000Z</time>
      </trkpt>
      <trkpt lat="44.23169" lon="2.9741">
        <ele>837</ele>
        <time>2019-10-13T10:10:46.000Z</time>
      </trkpt>
      <trkpt lat="44.23167" lon="2.97411">
        <ele>837</ele>
        <time>2019-10-13T10:10:47.000Z</time>
      </trkpt>
      <trkpt lat="44.23165" lon="2.97411">
        <ele>836</ele>
        <time>2019-10-13T10:10:48.000Z</time>
      </trkpt>
      <trkpt lat="44.23163" lon="2.97411">
        <ele>836</ele>
        <time>2019-10-13T10:10:49.000Z</time>
      </trkpt>
      <trkpt lat="44.23162" lon="2.9741">
        <ele>836</ele>
        <time>2019-10-13T10:10:50.000Z</time>
      </trkpt>
      <trkpt lat="44.2316" lon="2.9741">
        <ele>836</ele>
        <time>2019-10-13T10:10:51.000Z</time>
      </trkpt>
      <trkpt lat="44.23158" lon="2.97409">
        <ele>836</ele>
        <time>2019-10-13T10:10:52.000Z</time>
      </trkpt>
      <trkpt lat="44.23157" lon="2.97409">
        <ele>836</ele>
        <time>2019-10-13T10:10:53.000Z</time>
      </trkpt>
      <trkpt lat="44.23155" lon="2.97409">
        <ele>836</ele>
        <time>2019-10-13T10:10:54.000Z</time>
      </trkpt>
      <trkpt lat="44.23153" lon="2.97408">
        <ele>835</ele>
        <time>2019-10-13T10:10:55.000Z</time>
      </trkpt>
      <trkpt lat="44.23151" lon="2.97408">
        <ele>835</ele>
        <time>2019-10-13T10:10:56.000Z</time>
      </trkpt>
      <trkpt lat="44.23149" lon="2.97408">
        <ele>835</ele>
        <time>2019-10-13T10:10:57.000Z</time>
      </trkpt>
      <trkpt lat="44.23148" lon="2.97407">
        <ele>835</ele>
        <time>2019-10-13T10:10:58.000Z</time>
      </trkpt>
      <trkpt lat="44.23146" lon="2.97407">
        <ele>835</ele>
        <time>2019-10-13T10:10:59.000Z</time>
      </trkpt>
      <trkpt lat="44.23144" lon="2.97407">
        <ele>834</ele>
        <time>2019-10-13T10:11:00.000Z</time>
      </trkpt>
      <trkpt lat="44.23142" lon="2.97408">
        <ele>834</ele>
        <time>2019-10-13T10:11:01.000Z</time>
      </trkpt>
      <trkpt lat="44.23141" lon="2.97408">
        <ele>834</ele>
        <time>2019-10-13T10:11:02.000Z</time>
      </trkpt>
      <trkpt lat="44.23139" lon="2.97408">
        <ele>834</ele>
        <time>2019-10-13T10:11:03.000Z</time>
      </trkpt>
      <trkpt lat="44.23137" lon="2.97408">
        <ele>833</ele>
        <time>2019-10-13T10:11:04.000Z</time>
      </trkpt>
      <trkpt lat="44.23135" lon="2.97408">
        <ele>833</ele>
        <time>2019-10-13T10:11:05.000Z</time>
      </trkpt>
      <trkpt lat="44.23133" lon="2.97409">
        <ele>833</ele>
        <time>2019-10-13T10:11:06.000Z</time>
      </trkpt>
      <trkpt lat="44.23131" lon="2.97409">
        <ele>833</ele>
        <time>2019-10-13T10:11:07.000Z</time>
      </trkpt>
      <trkpt lat="44.23129" lon="2.97409">
        <ele>833</ele>
        <time>2019-10-13T10:11:08.000Z</time>
      </trkpt>
      <trkpt lat="44.23127" lon="2.97409">
        <ele>832</ele>
        <time>2019-10-13T10:11:09.000Z</time>
      </trkpt>
      <trkpt lat="44.23125" lon="2.9741">
        <ele>832</ele>
        <time>2019-10-13T10:11:10.000Z</time>
      </trkpt>
      <trkpt lat="44.23123" lon="2.9741">
        <ele>832</ele>
        <time>2019-10-13T10:11:11.000Z</time>
      </trkpt>
      <trkpt lat="44.23122" lon="2.9741">
        <ele>832</ele>
        <time>2019-10-13T10:11:12.000Z</time>
      </trkpt>
      <trkpt lat="44.2312" lon="2.9741">
        <ele>832</ele>
        <time>2019-10-13T10:11:13.000Z</time>
      </trkpt>
      <trkpt lat="44.23118" lon="2.97409">
        <ele>831</ele>
        <time>2019-10-13T10:11:14.000Z</time>
      </trkpt>
      <trkpt lat="44.23117" lon="2.97409">
        <ele>831</ele>
        <time>2019-10-13T10:11:15.000Z</time>
      </trkpt>
      <trkpt lat="44.23115" lon="2.97409">
        <ele>831</ele>
        <time>2019-10-13T10:11:16.000Z</time>
      </trkpt>
      <trkpt lat="44.23113" lon="2.97409">
        <ele>831</ele>
        <time>2019-10-13T10:11:17.000Z</time>
      </trkpt>
      <trkpt lat="44.23112" lon="2.9741">
        <ele>831</ele>
        <time>2019-10-13T10:11:18.000Z</time>
      </trkpt>
      <trkpt lat="44.2311" lon="2.9741">
        <ele>830</ele>
        <time>2019-10-13T10:11:19.000Z</time>
      </trkpt>
      <trkpt lat="44.23108" lon="2.9741">
        <ele>830</ele>
        <time>2019-10-13T10:11:20.000Z</time>
      </trkpt>
      <trkpt lat="44.23107" lon="2.9741">
        <ele>830</ele>
        <time>2019-10-13T10:11:21.000Z</time>
      </trkpt>
      <trkpt lat="44.23105" lon="2.97411">
        <ele>830</ele>
        <time>2019-10-13T10:11:22.000Z</time>
      </trkpt>
      <trkpt lat="44.23103" lon="2.97412">
        <ele>830</ele>
        <time>2019-10-13T10:11:23.000Z</time>
      </trkpt>
      <trkpt lat="44.23102" lon="2.97412">
        <ele>829</ele>
        <time>2019-10-13T10:11:24.000Z</time>
      </trkpt>
      <trkpt lat="44.231" lon="2.97414">
        <ele>829</ele>
        <time>2019-10-13T10:11:25.000Z</time>
      </trkpt>
      <trkpt lat="44.23099" lon="2.97414">
        <ele>829</ele>
        <time>2019-10-13T10:11:26.000Z</time>
      </trkpt>
      <trkpt lat="44.23097" lon="2.97415">
        <ele>829</ele>
        <time>2019-10-13T10:11:27.000Z</time>
      </trkpt>
      <trkpt lat="44.23096" lon="2.97416">
        <ele>828</ele>
        <time>2019-10-13T10:11:28.000Z</time>
      </trkpt>
      <trkpt lat="44.23094" lon="2.97418">
        <ele>828</ele>
        <time>2019-10-13T10:11:29.000Z</time>
      </trkpt>
      <trkpt lat="44.23093" lon="2.97419">
        <ele>828</ele>
        <time>2019-10-13T10:11:30.000Z</time>
      </trkpt>
      <trkpt lat="44.23091" lon="2.97421">
        <ele>828</ele>
        <time>2019-10-13T10:11:31.000Z</time>
      </trkpt>
      <trkpt lat="44.23089" lon="2.97422">
        <ele>828</ele>
        <time>2019-10-13T10:11:32.000Z</time>
      </trkpt>
      <trkpt lat="44.23088" lon="2.97424">
        <ele>828</ele>
        <time>2019-10-13T10:11:33.000Z</time>
      </trkpt>
      <trkpt lat="44.23086" lon="2.97425">
        <ele>827</ele>
        <time>2019-10-13T10:11:34.000Z</time>
      </trkpt>
      <trkpt lat="44.23085" lon="2.97427">
        <ele>827</ele>
        <time>2019-10-13T10:11:35.000Z</time>
      </trkpt>
      <trkpt lat="44.23084" lon="2.97429">
        <ele>827</ele>
        <time>2019-10-13T10:11:36.000Z</time>
      </trkpt>
      <trkpt lat="44.23082" lon="2.97431">
        <ele>826</ele>
        <time>2019-10-13T10:11:37.000Z</time>
      </trkpt>
      <trkpt lat="44.23081" lon="2.97432">
        <ele>826</ele>
        <time>2019-10-13T10:11:38.000Z</time>
      </trkpt>
      <trkpt lat="44.23079" lon="2.97433">
        <ele>826</ele>
        <time>2019-10-13T10:11:39.000Z</time>
      </trkpt>
      <trkpt lat="44.23077" lon="2.97434">
        <ele>826</ele>
        <time>2019-10-13T10:11:40.000Z</time>
      </trkpt>
      <trkpt lat="44.23075" lon="2.97435">
        <ele>825</ele>
        <time>2019-10-13T10:11:41.000Z</time>
      </trkpt>
      <trkpt lat="44.23073" lon="2.97437">
        <ele>825</ele>
        <time>2019-10-13T10:11:42.000Z</time>
      </trkpt>
      <trkpt lat="44.23072" lon="2.97437">
        <ele>825</ele>
        <time>2019-10-13T10:11:43.000Z</time>
      </trkpt>
      <trkpt lat="44.2307" lon="2.97438">
        <ele>825</ele>
        <time>2019-10-13T10:11:44.000Z</time>
      </trkpt>
      <trkpt lat="44.23068" lon="2.97439">
        <ele>824</ele>
        <time>2019-10-13T10:11:45.000Z</time>
      </trkpt>
      <trkpt lat="44.23066" lon="2.97439">
        <ele>824</ele>
        <time>2019-10-13T10:11:46.000Z</time>
      </trkpt>
      <trkpt lat="44.23064" lon="2.97439">
        <ele>824</ele>
        <time>2019-10-13T10:11:47.000Z</time>
      </trkpt>
      <trkpt lat="44.23062" lon="2.97439">
        <ele>824</ele>
        <time>2019-10-13T10:11:48.000Z</time>
      </trkpt>
      <trkpt lat="44.2306" lon="2.97439">
        <ele>824</ele>
        <time>2019-10-13T10:11:49.000Z</time>
      </trkpt>
      <trkpt lat="44.23058" lon="2.97439">
        <ele>823</ele>
        <time>2019-10-13T10:11:50.000Z</time>
      </trkpt>
      <trkpt lat="44.23056" lon="2.97438">
        <ele>823</ele>
        <time>2019-10-13T10:11:51.000Z</time>
      </trkpt>
      <trkpt lat="44.23054" lon="2.97437">
        <ele>823</ele>
        <time>2019-10-13T10:11:52.000Z</time>
      </trkpt>
      <trkpt lat="44.23053" lon="2.97437">
        <ele>823</ele>
        <time>2019-10-13T10:11:53.000Z</time>
      </trkpt>
      <trkpt lat="44.23051" lon="2.97436">
        <ele>823</ele>
        <time>2019-10-13T10:11:54.000Z</time>
      </trkpt>
      <trkpt lat="44.23049" lon="2.97435">
        <ele>822</ele>
        <time>2019-10-13T10:11:55.000Z</time>
      </trkpt>
      <trkpt lat="44.23048" lon="2.97435">
        <ele>822</ele>
        <time>2019-10-13T10:11:56.000Z</time>
      </trkpt>
      <trkpt lat="44.23046" lon="2.97434">
        <ele>822</ele>
        <time>2019-10-13T10:11:57.000Z</time>
      </trkpt>
      <trkpt lat="44.23044" lon="2.97433">
        <ele>822</ele>
        <time>2019-10-13T10:11:58.000Z</time>
      </trkpt>
      <trkpt lat="44.23042" lon="2.97432">
        <ele>822</ele>
        <time>2019-10-13T10:11:59.000Z</time>
      </trkpt>
      <trkpt lat="44.23041" lon="2.97432">
        <ele>821</ele>
        <time>2019-10-13T10:12:00.000Z</time>
      </trkpt>
      <trkpt lat="44.23039" lon="2.97431">
        <ele>821</ele>
        <time>2019-10-13T10:12:01.000Z</time>
      </trkpt>
      <trkpt lat="44.23038" lon="2.97431">
        <ele>821</ele>
        <time>2019-10-13T10:12:02.000Z</time>
      </trkpt>
      <trkpt lat="44.23037" lon="2.9743">
        <ele>821</ele>
        <time>2019-10-13T10:12:03.000Z</time>
      </trkpt>
      <trkpt lat="44.23035" lon="2.97429">
        <ele>821</ele>
        <time>2019-10-13T10:12:04.000Z</time>
      </trkpt>
      <trkpt lat="44.23034" lon="2.97428">
        <ele>820</ele>
        <time>2019-10-13T10:12:05.000Z</time>
      </trkpt>
      <trkpt lat="44.23032" lon="2.97427">
        <ele>820</ele>
        <time>2019-10-13T10:12:06.000Z</time>
      </trkpt>
      <trkpt lat="44.23031" lon="2.97427">
        <ele>820</ele>
        <time>2019-10-13T10:12:07.000Z</time>
      </trkpt>
      <trkpt lat="44.23029" lon="2.97426">
        <ele>820</ele>
        <time>2019-10-13T10:12:08.000Z</time>
      </trkpt>
      <trkpt lat="44.23027" lon="2.97426">
        <ele>819</ele>
        <time>2019-10-13T10:12:09.000Z</time>
      </trkpt>
      <trkpt lat="44.23025" lon="2.97426">
        <ele>819</ele>
        <time>2019-10-13T10:12:10.000Z</time>
      </trkpt>
      <trkpt lat="44.23024" lon="2.97425">
        <ele>819</ele>
        <time>2019-10-13T10:12:11.000Z</time>
      </trkpt>
      <trkpt lat="44.23022" lon="2.97424">
        <ele>818</ele>
        <time>2019-10-13T10:12:12.000Z</time>
      </trkpt>
      <trkpt lat="44.2302" lon="2.97424">
        <ele>818</ele>
        <time>2019-10-13T10:12:13.000Z</time>
      </trkpt>
      <trkpt lat="44.23019" lon="2.97424">
        <ele>818</ele>
        <time>2019-10-13T10:12:14.000Z</time>
      </trkpt>
      <trkpt lat="44.23017" lon="2.97424">
        <ele>817</ele>
        <time>2019-10-13T10:12:15.000Z</time>
      </trkpt>
      <trkpt lat="44.23016" lon="2.97424">
        <ele>817</ele>
        <time>2019-10-13T10:12:16.000Z</time>
      </trkpt>
      <trkpt lat="44.23014" lon="2.97424">
        <ele>817</ele>
        <time>2019-10-13T10:12:17.000Z</time>
      </trkpt>
      <trkpt lat="44.23013" lon="2.97424">
        <ele>817</ele>
        <time>2019-10-13T10:12:18.000Z</time>
      </trkpt>
      <trkpt lat="44.23011" lon="2.97424">
        <ele>816</ele>
        <time>2019-10-13T10:12:19.000Z</time>
      </trkpt>
      <trkpt lat="44.23009" lon="2.97424">
        <ele>816</ele>
        <time>2019-10-13T10:12:20.000Z</time>
      </trkpt>
      <trkpt lat="44.23008" lon="2.97424">
        <ele>816</ele>
        <time>2019-10-13T10:12:21.000Z</time>
      </trkpt>
      <trkpt lat="44.23006" lon="2.97424">
        <ele>816</ele>
        <time>2019-10-13T10:12:22.000Z</time>
      </trkpt>
      <trkpt lat="44.23004" lon="2.97424">
        <ele>816</ele>
        <time>2019-10-13T10:12:23.000Z</time>
      </trkpt>
      <trkpt lat="44.23003" lon="2.97424">
        <ele>816</ele>
        <time>2019-10-13T10:12:24.000Z</time>
      </trkpt>
      <trkpt lat="44.23001" lon="2.97424">
        <ele>815</ele>
        <time>2019-10-13T10:12:25.000Z</time>
      </trkpt>
      <trkpt lat="44.23" lon="2.97424">
        <ele>815</ele>
        <time>2019-10-13T10:12:26.000Z</time>
      </trkpt>
      <trkpt lat="44.22998" lon="2.97423">
        <ele>815</ele>
        <time>2019-10-13T10:12:27.000Z</time>
      </trkpt>
      <trkpt lat="44.22996" lon="2.97423">
        <ele>815</ele>
        <time>2019-10-13T10:12:28.000Z</time>
      </trkpt>
      <trkpt lat="44.22995" lon="2.97423">
        <ele>814</ele>
        <time>2019-10-13T10:12:29.000Z</time>
      </trkpt>
      <trkpt lat="44.22993" lon="2.97422">
        <ele>814</ele>
        <time>2019-10-13T10:12:30.000Z</time>
      </trkpt>
      <trkpt lat="44.22991" lon="2.97422">
        <ele>814</ele>
        <time>2019-10-13T10:12:31.000Z</time>
      </trkpt>
      <trkpt lat="44.22989" lon="2.97422">
        <ele>813</ele>
        <time>2019-10-13T10:12:32.000Z</time>
      </trkpt>
      <trkpt lat="44.22988" lon="2.97422">
        <ele>813</ele>
        <time>2019-10-13T10:12:33.000Z</time>
      </trkpt>
      <trkpt lat="44.22986" lon="2.97422">
        <ele>813</ele>
        <time>2019-10-13T10:12:34.000Z</time>
      </trkpt>
      <trkpt lat="44.22984" lon="2.97422">
        <ele>813</ele>
        <time>2019-10-13T10:12:35.000Z</time>
      </trkpt>
      <trkpt lat="44.22982" lon="2.97421">
        <ele>812</ele>
        <time>2019-10-13T10:12:36.000Z</time>
      </trkpt>
      <trkpt lat="44.22981" lon="2.97421">
        <ele>812</ele>
        <time>2019-10-13T10:12:37.000Z</time>
      </trkpt>
      <trkpt lat="44.22979" lon="2.9742">
        <ele>812</ele>
        <time>2019-10-13T10:12:38.000Z</time>
      </trkpt>
      <trkpt lat="44.22978" lon="2.97419">
        <ele>812</ele>
        <time>2019-10-13T10:12:39.000Z</time>
      </trkpt>
      <trkpt lat="44.22976" lon="2.97419">
        <ele>811</ele>
        <time>2019-10-13T10:12:40.000Z</time>
      </trkpt>
      <trkpt lat="44.22974" lon="2.97418">
        <ele>811</ele>
        <time>2019-10-13T10:12:41.000Z</time>
      </trkpt>
      <trkpt lat="44.22972" lon="2.97418">
        <ele>811</ele>
        <time>2019-10-13T10:12:42.000Z</time>
      </trkpt>
      <trkpt lat="44.22971" lon="2.97418">
        <ele>811</ele>
        <time>2019-10-13T10:12:43.000Z</time>
      </trkpt>
      <trkpt lat="44.22969" lon="2.97417">
        <ele>810</ele>
        <time>2019-10-13T10:12:44.000Z</time>
      </trkpt>
      <trkpt lat="44.22967" lon="2.97417">
        <ele>810</ele>
        <time>2019-10-13T10:12:45.000Z</time>
      </trkpt>
      <trkpt lat="44.22965" lon="2.97416">
        <ele>810</ele>
        <time>2019-10-13T10:12:46.000Z</time>
      </trkpt>
      <trkpt lat="44.22964" lon="2.97416">
        <ele>810</ele>
        <time>2019-10-13T10:12:47.000Z</time>
      </trkpt>
      <trkpt lat="44.22962" lon="2.97415">
        <ele>809</ele>
        <time>2019-10-13T10:12:48.000Z</time>
      </trkpt>
      <trkpt lat="44.2296" lon="2.97414">
        <ele>809</ele>
        <time>2019-10-13T10:12:49.000Z</time>
      </trkpt>
      <trkpt lat="44.22958" lon="2.97414">
        <ele>809</ele>
        <time>2019-10-13T10:12:50.000Z</time>
      </trkpt>
      <trkpt lat="44.22957" lon="2.97413">
        <ele>808</ele>
        <time>2019-10-13T10:12:51.000Z</time>
      </trkpt>
      <trkpt lat="44.22955" lon="2.97412">
        <ele>808</ele>
        <time>2019-10-13T10:12:52.000Z</time>
      </trkpt>
      <trkpt lat="44.22953" lon="2.97412">
        <ele>808</ele>
        <time>2019-10-13T10:12:53.000Z</time>
      </trkpt>
      <trkpt lat="44.22951" lon="2.97411">
        <ele>808</ele>
        <time>2019-10-13T10:12:54.000Z</time>
      </trkpt>
      <trkpt lat="44.2295" lon="2.97411">
        <ele>808</ele>
        <time>2019-10-13T10:12:55.000Z</time>
      </trkpt>
      <trkpt lat="44.22948" lon="2.9741">
        <ele>808</ele>
        <time>2019-10-13T10:12:56.000Z</time>
      </trkpt>
      <trkpt lat="44.22946" lon="2.9741">
        <ele>807</ele>
        <time>2019-10-13T10:12:57.000Z</time>
      </trkpt>
      <trkpt lat="44.22945" lon="2.97409">
        <ele>807</ele>
        <time>2019-10-13T10:12:58.000Z</time>
      </trkpt>
      <trkpt lat="44.22943" lon="2.97408">
        <ele>807</ele>
        <time>2019-10-13T10:12:59.000Z</time>
      </trkpt>
      <trkpt lat="44.22942" lon="2.97407">
        <ele>807</ele>
        <time>2019-10-13T10:13:00.000Z</time>
      </trkpt>
      <trkpt lat="44.2294" lon="2.97407">
        <ele>807</ele>
        <time>2019-10-13T10:13:01.000Z</time>
      </trkpt>
      <trkpt lat="44.22938" lon="2.97406">
        <ele>807</ele>
        <time>2019-10-13T10:13:02.000Z</time>
      </trkpt>
      <trkpt lat="44.22937" lon="2.97406">
        <ele>807</ele>
        <time>2019-10-13T10:13:03.000Z</time>
      </trkpt>
      <trkpt lat="44.22935" lon="2.97405">
        <ele>806</ele>
        <time>2019-10-13T10:13:04.000Z</time>
      </trkpt>
      <trkpt lat="44.22933" lon="2.97404">
        <ele>806</ele>
        <time>2019-10-13T10:13:05.000Z</time>
      </trkpt>
      <trkpt lat="44.22932" lon="2.97403">
        <ele>806</ele>
        <time>2019-10-13T10:13:06.000Z</time>
      </trkpt>
      <trkpt lat="44.2293" lon="2.97403">
        <ele>806</ele>
        <time>2019-10-13T10:13:07.000Z</time>
      </trkpt>
      <trkpt lat="44.22928" lon="2.97402">
        <ele>806</ele>
        <time>2019-10-13T10:13:08.000Z</time>
      </trkpt>
      <trkpt lat="44.22927" lon="2.97401">
        <ele>805</ele>
        <time>2019-10-13T10:13:09.000Z</time>
      </trkpt>
      <trkpt lat="44.22925" lon="2.97401">
        <ele>805</ele>
        <time>2019-10-13T10:13:10.000Z</time>
      </trkpt>
      <trkpt lat="44.22923" lon="2.974">
        <ele>805</ele>
        <time>2019-10-13T10:13:11.000Z</time>
      </trkpt>
      <trkpt lat="44.22921" lon="2.974">
        <ele>805</ele>
        <time>2019-10-13T10:13:12.000Z</time>
      </trkpt>
      <trkpt lat="44.22919" lon="2.97399">
        <ele>805</ele>
        <time>2019-10-13T10:13:13.000Z</time>
      </trkpt>
      <trkpt lat="44.22917" lon="2.97399">
        <ele>805</ele>
        <time>2019-10-13T10:13:14.000Z</time>
      </trkpt>
      <trkpt lat="44.22916" lon="2.97398">
        <ele>804</ele>
        <time>2019-10-13T10:13:15.000Z</time>
      </trkpt>
      <trkpt lat="44.22914" lon="2.97398">
        <ele>804</ele>
        <time>2019-10-13T10:13:16.000Z</time>
      </trkpt>
      <trkpt lat="44.22912" lon="2.97398">
        <ele>804</ele>
        <time>2019-10-13T10:13:17.000Z</time>
      </trkpt>
      <trkpt lat="44.2291" lon="2.97398">
        <ele>804</ele>
        <time>2019-10-13T10:13:18.000Z</time>
      </trkpt>
      <trkpt lat="44.22909" lon="2.97397">
        <ele>804</ele>
        <time>2019-10-13T10:13:19.000Z</time>
      </trkpt>
      <trkpt lat="44.22907" lon="2.97397">
        <ele>804</ele>
        <time>2019-10-13T10:13:20.000Z</time>
      </trkpt>
      <trkpt lat="44.22905" lon="2.97397">
        <ele>803</ele>
        <time>2019-10-13T10:13:21.000Z</time>
      </trkpt>
      <trkpt lat="44.22904" lon="2.97396">
        <ele>803</ele>
        <time>2019-10-13T10:13:22.000Z</time>
      </trkpt>
      <trkpt lat="44.22902" lon="2.97396">
        <ele>803</ele>
        <time>2019-10-13T10:13:23.000Z</time>
      </trkpt>
      <trkpt lat="44.229" lon="2.97395">
        <ele>803</ele>
        <time>2019-10-13T10:13:24.000Z</time>
      </trkpt>
      <trkpt lat="44.22899" lon="2.97394">
        <ele>803</ele>
        <time>2019-10-13T10:13:25.000Z</time>
      </trkpt>
      <trkpt lat="44.22897" lon="2.97393">
        <ele>802</ele>
        <time>2019-10-13T10:13:26.000Z</time>
      </trkpt>
      <trkpt lat="44.22895" lon="2.97392">
        <ele>802</ele>
        <time>2019-10-13T10:13:27.000Z</time>
      </trkpt>
      <trkpt lat="44.22893" lon="2.97391">
        <ele>802</ele>
        <time>2019-10-13T10:13:28.000Z</time>
      </trkpt>
      <trkpt lat="44.22891" lon="2.9739">
        <ele>802</ele>
        <time>2019-10-13T10:13:29.000Z</time>
      </trkpt>
      <trkpt lat="44.2289" lon="2.9739">
        <ele>802</ele>
        <time>2019-10-13T10:13:30.000Z</time>
      </trkpt>
      <trkpt lat="44.22888" lon="2.97389">
        <ele>801</ele>
        <time>2019-10-13T10:13:31.000Z</time>
      </trkpt>
      <trkpt lat="44.22886" lon="2.97388">
        <ele>801</ele>
        <time>2019-10-13T10:13:32.000Z</time>
      </trkpt>
      <trkpt lat="44.22884" lon="2.97387">
        <ele>801</ele>
        <time>2019-10-13T10:13:33.000Z</time>
      </trkpt>
      <trkpt lat="44.22882" lon="2.97386">
        <ele>801</ele>
        <time>2019-10-13T10:13:34.000Z</time>
      </trkpt>
      <trkpt lat="44.2288" lon="2.97386">
        <ele>801</ele>
        <time>2019-10-13T10:13:35.000Z</time>
      </trkpt>
      <trkpt lat="44.22879" lon="2.97385">
        <ele>801</ele>
        <time>2019-10-13T10:13:36.000Z</time>
      </trkpt>
      <trkpt lat="44.22877" lon="2.97384">
        <ele>801</ele>
        <time>2019-10-13T10:13:37.000Z</time>
      </trkpt>
      <trkpt lat="44.22875" lon="2.97384">
        <ele>801</ele>
        <time>2019-10-13T10:13:38.000Z</time>
      </trkpt>
      <trkpt lat="44.22873" lon="2.97383">
        <ele>801</ele>
        <time>2019-10-13T10:13:39.000Z</time>
      </trkpt>
      <trkpt lat="44.22872" lon="2.97383">
        <ele>801</ele>
        <time>2019-10-13T10:13:40.000Z</time>
      </trkpt>
      <trkpt lat="44.2287" lon="2.97383">
        <ele>800</ele>
        <time>2019-10-13T10:13:41.000Z</time>
      </trkpt>
      <trkpt lat="44.22868" lon="2.97382">
        <ele>800</ele>
        <time>2019-10-13T10:13:42.000Z</time>
      </trkpt>
      <trkpt lat="44.22867" lon="2.97382">
        <ele>800</ele>
        <time>2019-10-13T10:13:43.000Z</time>
      </trkpt>
      <trkpt lat="44.22866" lon="2.97381">
        <ele>800</ele>
        <time>2019-10-13T10:13:44.000Z</time>
      </trkpt>
      <trkpt lat="44.22864" lon="2.97381">
        <ele>800</ele>
        <time>2019-10-13T10:13:45.000Z</time>
      </trkpt>
      <trkpt lat="44.22862" lon="2.97381">
        <ele>800</ele>
        <time>2019-10-13T10:13:46.000Z</time>
      </trkpt>
      <trkpt lat="44.2286" lon="2.97381">
        <ele>800</ele>
        <time>2019-10-13T10:13:47.000Z</time>
      </trkpt>
      <trkpt lat="44.22858" lon="2.97381">
        <ele>800</ele>
        <time>2019-10-13T10:13:48.000Z</time>
      </trkpt>
      <trkpt lat="44.22856" lon="2.97381">
        <ele>800</ele>
        <time>2019-10-13T10:13:49.000Z</time>
      </trkpt>
      <trkpt lat="44.22854" lon="2.97381">
        <ele>800</ele>
        <time>2019-10-13T10:13:50.000Z</time>
      </trkpt>
      <trkpt lat="44.22853" lon="2.97381">
        <ele>800</ele>
        <time>2019-10-13T10:13:51.000Z</time>
      </trkpt>
      <trkpt lat="44.22851" lon="2.97381">
        <ele>800</ele>
        <time>2019-10-13T10:13:52.000Z</time>
      </trkpt>
      <trkpt lat="44.22849" lon="2.97382">
        <ele>800</ele>
        <time>2019-10-13T10:13:53.000Z</time>
      </trkpt>
      <trkpt lat="44.22848" lon="2.97382">
        <ele>800</ele>
        <time>2019-10-13T10:13:54.000Z</time>
      </trkpt>
      <trkpt lat="44.22846" lon="2.97381">
        <ele>800</ele>
        <time>2019-10-13T10:13:55.000Z</time>
      </trkpt>
      <trkpt lat="44.22845" lon="2.97381">
        <ele>800</ele>
        <time>2019-10-13T10:13:56.000Z</time>
      </trkpt>
      <trkpt lat="44.22843" lon="2.97382">
        <ele>800</ele>
        <time>2019-10-13T10:13:57.000Z</time>
      </trkpt>
      <trkpt lat="44.22841" lon="2.97382">
        <ele>799</ele>
        <time>2019-10-13T10:13:58.000Z</time>
      </trkpt>
      <trkpt lat="44.22839" lon="2.97382">
        <ele>799</ele>
        <time>2019-10-13T10:13:59.000Z</time>
      </trkpt>
      <trkpt lat="44.22838" lon="2.97382">
        <ele>799</ele>
        <time>2019-10-13T10:14:00.000Z</time>
      </trkpt>
      <trkpt lat="44.22836" lon="2.97382">
        <ele>799</ele>
        <time>2019-10-13T10:14:01.000Z</time>
      </trkpt>
      <trkpt lat="44.22834" lon="2.97382">
        <ele>799</ele>
        <time>2019-10-13T10:14:02.000Z</time>
      </trkpt>
      <trkpt lat="44.22832" lon="2.97382">
        <ele>799</ele>
        <time>2019-10-13T10:14:03.000Z</time>
      </trkpt>
      <trkpt lat="44.22831" lon="2.97383">
        <ele>799</ele>
        <time>2019-10-13T10:14:04.000Z</time>
      </trkpt>
      <trkpt lat="44.22829" lon="2.97383">
        <ele>799</ele>
        <time>2019-10-13T10:14:05.000Z</time>
      </trkpt>
      <trkpt lat="44.22827" lon="2.97383">
        <ele>799</ele>
        <time>2019-10-13T10:14:06.000Z</time>
      </trkpt>
      <trkpt lat="44.22825" lon="2.97383">
        <ele>799</ele>
        <time>2019-10-13T10:14:07.000Z</time>
      </trkpt>
      <trkpt lat="44.22823" lon="2.97383">
        <ele>799</ele>
        <time>2019-10-13T10:14:08.000Z</time>
      </trkpt>
      <trkpt lat="44.22821" lon="2.97383">
        <ele>799</ele>
        <time>2019-10-13T10:14:09.000Z</time>
      </trkpt>
      <trkpt lat="44.2282" lon="2.97383">
        <ele>799</ele>
        <time>2019-10-13T10:14:10.000Z</time>
      </trkpt>
      <trkpt lat="44.22818" lon="2.97383">
        <ele>799</ele>
        <time>2019-10-13T10:14:11.000Z</time>
      </trkpt>
      <trkpt lat="44.22816" lon="2.97383">
        <ele>799</ele>
        <time>2019-10-13T10:14:12.000Z</time>
      </trkpt>
      <trkpt lat="44.22814" lon="2.97382">
        <ele>799</ele>
        <time>2019-10-13T10:14:13.000Z</time>
      </trkpt>
      <trkpt lat="44.22812" lon="2.97382">
        <ele>799</ele>
        <time>2019-10-13T10:14:14.000Z</time>
      </trkpt>
      <trkpt lat="44.22811" lon="2.97381">
        <ele>799</ele>
        <time>2019-10-13T10:14:15.000Z</time>
      </trkpt>
      <trkpt lat="44.22809" lon="2.97381">
        <ele>798</ele>
        <time>2019-10-13T10:14:16.000Z</time>
      </trkpt>
      <trkpt lat="44.22807" lon="2.97381">
        <ele>798</ele>
        <time>2019-10-13T10:14:17.000Z</time>
      </trkpt>
      <trkpt lat="44.22805" lon="2.9738">
        <ele>798</ele>
        <time>2019-10-13T10:14:18.000Z</time>
      </trkpt>
      <trkpt lat="44.22803" lon="2.9738">
        <ele>798</ele>
        <time>2019-10-13T10:14:19.000Z</time>
      </trkpt>
      <trkpt lat="44.22801" lon="2.97379">
        <ele>798</ele>
        <time>2019-10-13T10:14:20.000Z</time>
      </trkpt>
      <trkpt lat="44.22799" lon="2.97379">
        <ele>798</ele>
        <time>2019-10-13T10:14:21.000Z</time>
      </trkpt>
      <trkpt lat="44.22797" lon="2.97379">
        <ele>798</ele>
        <time>2019-10-13T10:14:22.000Z</time>
      </trkpt>
      <trkpt lat="44.22795" lon="2.97378">
        <ele>798</ele>
        <time>2019-10-13T10:14:23.000Z</time>
      </trkpt>
      <trkpt lat="44.22794" lon="2.97377">
        <ele>797</ele>
        <time>2019-10-13T10:14:24.000Z</time>
      </trkpt>
      <trkpt lat="44.22792" lon="2.97376">
        <ele>797</ele>
        <time>2019-10-13T10:14:25.000Z</time>
      </trkpt>
      <trkpt lat="44.2279" lon="2.97375">
        <ele>797</ele>
        <time>2019-10-13T10:14:26.000Z</time>
      </trkpt>
      <trkpt lat="44.22788" lon="2.97374">
        <ele>797</ele>
        <time>2019-10-13T10:14:27.000Z</time>
      </trkpt>
      <trkpt lat="44.22787" lon="2.97373">
        <ele>797</ele>
        <time>2019-10-13T10:14:28.000Z</time>
      </trkpt>
      <trkpt lat="44.22785" lon="2.97372">
        <ele>797</ele>
        <time>2019-10-13T10:14:29.000Z</time>
      </trkpt>
      <trkpt lat="44.22783" lon="2.97371">
        <ele>796</ele>
        <time>2019-10-13T10:14:30.000Z</time>
      </trkpt>
      <trkpt lat="44.22781" lon="2.9737">
        <ele>796</ele>
        <time>2019-10-13T10:14:31.000Z</time>
      </trkpt>
      <trkpt lat="44.2278" lon="2.97369">
        <ele>796</ele>
        <time>2019-10-13T10:14:32.000Z</time>
      </trkpt>
      <trkpt lat="44.22778" lon="2.97368">
        <ele>796</ele>
        <time>2019-10-13T10:14:33.000Z</time>
      </trkpt>
      <trkpt lat="44.22776" lon="2.97367">
        <ele>795</ele>
        <time>2019-10-13T10:14:34.000Z</time>
      </trkpt>
      <trkpt lat="44.22775" lon="2.97366">
        <ele>795</ele>
        <time>2019-10-13T10:14:35.000Z</time>
      </trkpt>
      <trkpt lat="44.22773" lon="2.97364">
        <ele>795</ele>
        <time>2019-10-13T10:14:36.000Z</time>
      </trkpt>
      <trkpt lat="44.22771" lon="2.97363">
        <ele>794</ele>
        <time>2019-10-13T10:14:37.000Z</time>
      </trkpt>
      <trkpt lat="44.22769" lon="2.97362">
        <ele>794</ele>
        <time>2019-10-13T10:14:38.000Z</time>
      </trkpt>
      <trkpt lat="44.22767" lon="2.97361">
        <ele>794</ele>
        <time>2019-10-13T10:14:39.000Z</time>
      </trkpt>
      <trkpt lat="44.22766" lon="2.9736">
        <ele>794</ele>
        <time>2019-10-13T10:14:40.000Z</time>
      </trkpt>
      <trkpt lat="44.22764" lon="2.97359">
        <ele>794</ele>
        <time>2019-10-13T10:14:41.000Z</time>
      </trkpt>
      <trkpt lat="44.22762" lon="2.97357">
        <ele>794</ele>
        <time>2019-10-13T10:14:42.000Z</time>
      </trkpt>
      <trkpt lat="44.22761" lon="2.97357">
        <ele>794</ele>
        <time>2019-10-13T10:14:43.000Z</time>
      </trkpt>
      <trkpt lat="44.22759" lon="2.97356">
        <ele>793</ele>
        <time>2019-10-13T10:14:44.000Z</time>
      </trkpt>
      <trkpt lat="44.22757" lon="2.97355">
        <ele>793</ele>
        <time>2019-10-13T10:14:45.000Z</time>
      </trkpt>
      <trkpt lat="44.22755" lon="2.97354">
        <ele>793</ele>
        <time>2019-10-13T10:14:46.000Z</time>
      </trkpt>
      <trkpt lat="44.22754" lon="2.97353">
        <ele>793</ele>
        <time>2019-10-13T10:14:47.000Z</time>
      </trkpt>
      <trkpt lat="44.22752" lon="2.97351">
        <ele>793</ele>
        <time>2019-10-13T10:14:48.000Z</time>
      </trkpt>
      <trkpt lat="44.2275" lon="2.9735">
        <ele>792</ele>
        <time>2019-10-13T10:14:49.000Z</time>
      </trkpt>
      <trkpt lat="44.22749" lon="2.97349">
        <ele>792</ele>
        <time>2019-10-13T10:14:50.000Z</time>
      </trkpt>
      <trkpt lat="44.22747" lon="2.97347">
        <ele>792</ele>
        <time>2019-10-13T10:14:51.000Z</time>
      </trkpt>
      <trkpt lat="44.22746" lon="2.97346">
        <ele>792</ele>
        <time>2019-10-13T10:14:52.000Z</time>
      </trkpt>
      <trkpt lat="44.22744" lon="2.97345">
        <ele>792</ele>
        <time>2019-10-13T10:14:53.000Z</time>
      </trkpt>
      <trkpt lat="44.22742" lon="2.97343">
        <ele>791</ele>
        <time>2019-10-13T10:14:54.000Z</time>
      </trkpt>
      <trkpt lat="44.22741" lon="2.97342">
        <ele>791</ele>
        <time>2019-10-13T10:14:55.000Z</time>
      </trkpt>
      <trkpt lat="44.22739" lon="2.97341">
        <ele>791</ele>
        <time>2019-10-13T10:14:56.000Z</time>
      </trkpt>
      <trkpt lat="44.22738" lon="2.9734">
        <ele>790</ele>
        <time>2019-10-13T10:14:57.000Z</time>
      </trkpt>
      <trkpt lat="44.22736" lon="2.97339">
        <ele>790</ele>
        <time>2019-10-13T10:14:58.000Z</time>
      </trkpt>
      <trkpt lat="44.22734" lon="2.97338">
        <ele>790</ele>
        <time>2019-10-13T10:14:59.000Z</time>
      </trkpt>
      <trkpt lat="44.22733" lon="2.97337">
        <ele>790</ele>
        <time>2019-10-13T10:15:00.000Z</time>
      </trkpt>
      <trkpt lat="44.22731" lon="2.97336">
        <ele>790</ele>
        <time>2019-10-13T10:15:01.000Z</time>
      </trkpt>
      <trkpt lat="44.2273" lon="2.97336">
        <ele>789</ele>
        <time>2019-10-13T10:15:02.000Z</time>
      </trkpt>
      <trkpt lat="44.22728" lon="2.97335">
        <ele>789</ele>
        <time>2019-10-13T10:15:03.000Z</time>
      </trkpt>
      <trkpt lat="44.22726" lon="2.97335">
        <ele>789</ele>
        <time>2019-10-13T10:15:04.000Z</time>
      </trkpt>
      <trkpt lat="44.22724" lon="2.97335">
        <ele>789</ele>
        <time>2019-10-13T10:15:05.000Z</time>
      </trkpt>
      <trkpt lat="44.22722" lon="2.97334">
        <ele>789</ele>
        <time>2019-10-13T10:15:06.000Z</time>
      </trkpt>
      <trkpt lat="44.2272" lon="2.97334">
        <ele>788</ele>
        <time>2019-10-13T10:15:07.000Z</time>
      </trkpt>
      <trkpt lat="44.22718" lon="2.97334">
        <ele>788</ele>
        <time>2019-10-13T10:15:08.000Z</time>
      </trkpt>
      <trkpt lat="44.22716" lon="2.97333">
        <ele>788</ele>
        <time>2019-10-13T10:15:09.000Z</time>
      </trkpt>
      <trkpt lat="44.22714" lon="2.97333">
        <ele>788</ele>
        <time>2019-10-13T10:15:10.000Z</time>
      </trkpt>
      <trkpt lat="44.22713" lon="2.97332">
        <ele>788</ele>
        <time>2019-10-13T10:15:11.000Z</time>
      </trkpt>
      <trkpt lat="44.22711" lon="2.97332">
        <ele>788</ele>
        <time>2019-10-13T10:15:12.000Z</time>
      </trkpt>
      <trkpt lat="44.22709" lon="2.97331">
        <ele>788</ele>
        <time>2019-10-13T10:15:13.000Z</time>
      </trkpt>
      <trkpt lat="44.22707" lon="2.97331">
        <ele>788</ele>
        <time>2019-10-13T10:15:14.000Z</time>
      </trkpt>
      <trkpt lat="44.22705" lon="2.9733">
        <ele>788</ele>
        <time>2019-10-13T10:15:15.000Z</time>
      </trkpt>
      <trkpt lat="44.22704" lon="2.97329">
        <ele>787</ele>
        <time>2019-10-13T10:15:16.000Z</time>
      </trkpt>
      <trkpt lat="44.22702" lon="2.97327">
        <ele>787</ele>
        <time>2019-10-13T10:15:17.000Z</time>
      </trkpt>
      <trkpt lat="44.22701" lon="2.97326">
        <ele>787</ele>
        <time>2019-10-13T10:15:18.000Z</time>
      </trkpt>
      <trkpt lat="44.22699" lon="2.97325">
        <ele>787</ele>
        <time>2019-10-13T10:15:19.000Z</time>
      </trkpt>
      <trkpt lat="44.22697" lon="2.97324">
        <ele>786</ele>
        <time>2019-10-13T10:15:20.000Z</time>
      </trkpt>
      <trkpt lat="44.22696" lon="2.97323">
        <ele>786</ele>
        <time>2019-10-13T10:15:21.000Z</time>
      </trkpt>
      <trkpt lat="44.22694" lon="2.97322">
        <ele>786</ele>
        <time>2019-10-13T10:15:22.000Z</time>
      </trkpt>
      <trkpt lat="44.22693" lon="2.9732">
        <ele>786</ele>
        <time>2019-10-13T10:15:23.000Z</time>
      </trkpt>
      <trkpt lat="44.22691" lon="2.97319">
        <ele>785</ele>
        <time>2019-10-13T10:15:24.000Z</time>
      </trkpt>
      <trkpt lat="44.22689" lon="2.97318">
        <ele>785</ele>
        <time>2019-10-13T10:15:25.000Z</time>
      </trkpt>
      <trkpt lat="44.22688" lon="2.97317">
        <ele>785</ele>
        <time>2019-10-13T10:15:26.000Z</time>
      </trkpt>
      <trkpt lat="44.22686" lon="2.97316">
        <ele>784</ele>
        <time>2019-10-13T10:15:27.000Z</time>
      </trkpt>
      <trkpt lat="44.22684" lon="2.97315">
        <ele>784</ele>
        <time>2019-10-13T10:15:28.000Z</time>
      </trkpt>
      <trkpt lat="44.22682" lon="2.97314">
        <ele>784</ele>
        <time>2019-10-13T10:15:29.000Z</time>
      </trkpt>
      <trkpt lat="44.22681" lon="2.97313">
        <ele>784</ele>
        <time>2019-10-13T10:15:30.000Z</time>
      </trkpt>
      <trkpt lat="44.22679" lon="2.97312">
        <ele>784</ele>
        <time>2019-10-13T10:15:31.000Z</time>
      </trkpt>
      <trkpt lat="44.22677" lon="2.97311">
        <ele>783</ele>
        <time>2019-10-13T10:15:32.000Z</time>
      </trkpt>
      <trkpt lat="44.22676" lon="2.9731">
        <ele>783</ele>
        <time>2019-10-13T10:15:33.000Z</time>
      </trkpt>
      <trkpt lat="44.22674" lon="2.97309">
        <ele>783</ele>
        <time>2019-10-13T10:15:34.000Z</time>
      </trkpt>
      <trkpt lat="44.22672" lon="2.97308">
        <ele>783</ele>
        <time>2019-10-13T10:15:35.000Z</time>
      </trkpt>
      <trkpt lat="44.22671" lon="2.97307">
        <ele>783</ele>
        <time>2019-10-13T10:15:36.000Z</time>
      </trkpt>
      <trkpt lat="44.22669" lon="2.97307">
        <ele>782</ele>
        <time>2019-10-13T10:15:37.000Z</time>
      </trkpt>
      <trkpt lat="44.22667" lon="2.97306">
        <ele>782</ele>
        <time>2019-10-13T10:15:38.000Z</time>
      </trkpt>
      <trkpt lat="44.22665" lon="2.97305">
        <ele>782</ele>
        <time>2019-10-13T10:15:39.000Z</time>
      </trkpt>
      <trkpt lat="44.22664" lon="2.97305">
        <ele>782</ele>
        <time>2019-10-13T10:15:40.000Z</time>
      </trkpt>
      <trkpt lat="44.22662" lon="2.97304">
        <ele>782</ele>
        <time>2019-10-13T10:15:41.000Z</time>
      </trkpt>
      <trkpt lat="44.2266" lon="2.97303">
        <ele>782</ele>
        <time>2019-10-13T10:15:42.000Z</time>
      </trkpt>
      <trkpt lat="44.22659" lon="2.97302">
        <ele>781</ele>
        <time>2019-10-13T10:15:43.000Z</time>
      </trkpt>
      <trkpt lat="44.22657" lon="2.97301">
        <ele>781</ele>
        <time>2019-10-13T10:15:44.000Z</time>
      </trkpt>
      <trkpt lat="44.22655" lon="2.973">
        <ele>781</ele>
        <time>2019-10-13T10:15:45.000Z</time>
      </trkpt>
      <trkpt lat="44.22654" lon="2.97299">
        <ele>781</ele>
        <time>2019-10-13T10:15:46.000Z</time>
      </trkpt>
      <trkpt lat="44.22652" lon="2.97297">
        <ele>781</ele>
        <time>2019-10-13T10:15:47.000Z</time>
      </trkpt>
      <trkpt lat="44.22651" lon="2.97296">
        <ele>781</ele>
        <time>2019-10-13T10:15:48.000Z</time>
      </trkpt>
      <trkpt lat="44.2265" lon="2.97294">
        <ele>781</ele>
        <time>2019-10-13T10:15:49.000Z</time>
      </trkpt>
      <trkpt lat="44.22649" lon="2.97293">
        <ele>781</ele>
        <time>2019-10-13T10:15:50.000Z</time>
      </trkpt>
      <trkpt lat="44.22648" lon="2.97291">
        <ele>781</ele>
        <time>2019-10-13T10:15:51.000Z</time>
      </trkpt>
      <trkpt lat="44.22647" lon="2.97289">
        <ele>780</ele>
        <time>2019-10-13T10:15:52.000Z</time>
      </trkpt>
      <trkpt lat="44.22646" lon="2.97287">
        <ele>780</ele>
        <time>2019-10-13T10:15:53.000Z</time>
      </trkpt>
      <trkpt lat="44.22645" lon="2.97286">
        <ele>780</ele>
        <time>2019-10-13T10:15:54.000Z</time>
      </trkpt>
      <trkpt lat="44.22643" lon="2.97284">
        <ele>780</ele>
        <time>2019-10-13T10:15:55.000Z</time>
      </trkpt>
      <trkpt lat="44.22642" lon="2.97283">
        <ele>780</ele>
        <time>2019-10-13T10:15:56.000Z</time>
      </trkpt>
      <trkpt lat="44.22641" lon="2.97282">
        <ele>780</ele>
        <time>2019-10-13T10:15:57.000Z</time>
      </trkpt>
      <trkpt lat="44.2264" lon="2.97281">
        <ele>780</ele>
        <time>2019-10-13T10:15:58.000Z</time>
      </trkpt>
      <trkpt lat="44.22638" lon="2.9728">
        <ele>780</ele>
        <time>2019-10-13T10:15:59.000Z</time>
      </trkpt>
      <trkpt lat="44.22637" lon="2.97279">
        <ele>780</ele>
        <time>2019-10-13T10:16:00.000Z</time>
      </trkpt>
      <trkpt lat="44.22635" lon="2.97278">
        <ele>780</ele>
        <time>2019-10-13T10:16:01.000Z</time>
      </trkpt>
      <trkpt lat="44.22633" lon="2.97277">
        <ele>780</ele>
        <time>2019-10-13T10:16:02.000Z</time>
      </trkpt>
      <trkpt lat="44.22632" lon="2.97276">
        <ele>780</ele>
        <time>2019-10-13T10:16:03.000Z</time>
      </trkpt>
      <trkpt lat="44.2263" lon="2.97275">
        <ele>780</ele>
        <time>2019-10-13T10:16:04.000Z</time>
      </trkpt>
      <trkpt lat="44.22629" lon="2.97275">
        <ele>780</ele>
        <time>2019-10-13T10:16:05.000Z</time>
      </trkpt>
      <trkpt lat="44.22627" lon="2.97274">
        <ele>780</ele>
        <time>2019-10-13T10:16:06.000Z</time>
      </trkpt>
      <trkpt lat="44.22625" lon="2.97274">
        <ele>779</ele>
        <time>2019-10-13T10:16:07.000Z</time>
      </trkpt>
      <trkpt lat="44.22624" lon="2.97273">
        <ele>779</ele>
        <time>2019-10-13T10:16:08.000Z</time>
      </trkpt>
      <trkpt lat="44.22622" lon="2.97273">
        <ele>779</ele>
        <time>2019-10-13T10:16:09.000Z</time>
      </trkpt>
      <trkpt lat="44.2262" lon="2.97272">
        <ele>779</ele>
        <time>2019-10-13T10:16:10.000Z</time>
      </trkpt>
      <trkpt lat="44.22619" lon="2.97271">
        <ele>779</ele>
        <time>2019-10-13T10:16:11.000Z</time>
      </trkpt>
      <trkpt lat="44.22617" lon="2.97271">
        <ele>779</ele>
        <time>2019-10-13T10:16:12.000Z</time>
      </trkpt>
      <trkpt lat="44.22615" lon="2.9727">
        <ele>778</ele>
        <time>2019-10-13T10:16:13.000Z</time>
      </trkpt>
      <trkpt lat="44.22614" lon="2.97269">
        <ele>778</ele>
        <time>2019-10-13T10:16:14.000Z</time>
      </trkpt>
      <trkpt lat="44.22612" lon="2.97268">
        <ele>778</ele>
        <time>2019-10-13T10:16:15.000Z</time>
      </trkpt>
      <trkpt lat="44.2261" lon="2.97268">
        <ele>778</ele>
        <time>2019-10-13T10:16:16.000Z</time>
      </trkpt>
      <trkpt lat="44.22609" lon="2.97267">
        <ele>778</ele>
        <time>2019-10-13T10:16:17.000Z</time>
      </trkpt>
      <trkpt lat="44.22607" lon="2.97266">
        <ele>778</ele>
        <time>2019-10-13T10:16:18.000Z</time>
      </trkpt>
      <trkpt lat="44.22605" lon="2.97265">
        <ele>777</ele>
        <time>2019-10-13T10:16:19.000Z</time>
      </trkpt>
      <trkpt lat="44.22604" lon="2.97264">
        <ele>777</ele>
        <time>2019-10-13T10:16:20.000Z</time>
      </trkpt>
      <trkpt lat="44.22602" lon="2.97263">
        <ele>777</ele>
        <time>2019-10-13T10:16:21.000Z</time>
      </trkpt>
      <trkpt lat="44.226" lon="2.97262">
        <ele>777</ele>
        <time>2019-10-13T10:16:22.000Z</time>
      </trkpt>
      <trkpt lat="44.22599" lon="2.97261">
        <ele>777</ele>
        <time>2019-10-13T10:16:23.000Z</time>
      </trkpt>
      <trkpt lat="44.22597" lon="2.9726">
        <ele>776</ele>
        <time>2019-10-13T10:16:24.000Z</time>
      </trkpt>
      <trkpt lat="44.22595" lon="2.97259">
        <ele>776</ele>
        <time>2019-10-13T10:16:25.000Z</time>
      </trkpt>
      <trkpt lat="44.22593" lon="2.97258">
        <ele>776</ele>
        <time>2019-10-13T10:16:26.000Z</time>
      </trkpt>
      <trkpt lat="44.22592" lon="2.97258">
        <ele>776</ele>
        <time>2019-10-13T10:16:27.000Z</time>
      </trkpt>
      <trkpt lat="44.2259" lon="2.97257">
        <ele>776</ele>
        <time>2019-10-13T10:16:28.000Z</time>
      </trkpt>
      <trkpt lat="44.22588" lon="2.97256">
        <ele>776</ele>
        <time>2019-10-13T10:16:29.000Z</time>
      </trkpt>
      <trkpt lat="44.22586" lon="2.97255">
        <ele>776</ele>
        <time>2019-10-13T10:16:30.000Z</time>
      </trkpt>
      <trkpt lat="44.22584" lon="2.97254">
        <ele>776</ele>
        <time>2019-10-13T10:16:31.000Z</time>
      </trkpt>
      <trkpt lat="44.22583" lon="2.97253">
        <ele>775</ele>
        <time>2019-10-13T10:16:32.000Z</time>
      </trkpt>
      <trkpt lat="44.22581" lon="2.97253">
        <ele>775</ele>
        <time>2019-10-13T10:16:33.000Z</time>
      </trkpt>
      <trkpt lat="44.22579" lon="2.97252">
        <ele>775</ele>
        <time>2019-10-13T10:16:34.000Z</time>
      </trkpt>
      <trkpt lat="44.22577" lon="2.97251">
        <ele>775</ele>
        <time>2019-10-13T10:16:35.000Z</time>
      </trkpt>
      <trkpt lat="44.22576" lon="2.9725">
        <ele>775</ele>
        <time>2019-10-13T10:16:36.000Z</time>
      </trkpt>
      <trkpt lat="44.22574" lon="2.97249">
        <ele>775</ele>
        <time>2019-10-13T10:16:37.000Z</time>
      </trkpt>
      <trkpt lat="44.22572" lon="2.97248">
        <ele>775</ele>
        <time>2019-10-13T10:16:38.000Z</time>
      </trkpt>
      <trkpt lat="44.22571" lon="2.97247">
        <ele>774</ele>
        <time>2019-10-13T10:16:39.000Z</time>
      </trkpt>
      <trkpt lat="44.22569" lon="2.97246">
        <ele>774</ele>
        <time>2019-10-13T10:16:40.000Z</time>
      </trkpt>
      <trkpt lat="44.22567" lon="2.97245">
        <ele>774</ele>
        <time>2019-10-13T10:16:41.000Z</time>
      </trkpt>
      <trkpt lat="44.22566" lon="2.97244">
        <ele>774</ele>
        <time>2019-10-13T10:16:42.000Z</time>
      </trkpt>
      <trkpt lat="44.22564" lon="2.97243">
        <ele>774</ele>
        <time>2019-10-13T10:16:43.000Z</time>
      </trkpt>
      <trkpt lat="44.22562" lon="2.97242">
        <ele>774</ele>
        <time>2019-10-13T10:16:44.000Z</time>
      </trkpt>
      <trkpt lat="44.22561" lon="2.97241">
        <ele>773</ele>
        <time>2019-10-13T10:16:45.000Z</time>
      </trkpt>
      <trkpt lat="44.22559" lon="2.97239">
        <ele>773</ele>
        <time>2019-10-13T10:16:46.000Z</time>
      </trkpt>
      <trkpt lat="44.22558" lon="2.97238">
        <ele>773</ele>
        <time>2019-10-13T10:16:47.000Z</time>
      </trkpt>
      <trkpt lat="44.22556" lon="2.97237">
        <ele>773</ele>
        <time>2019-10-13T10:16:48.000Z</time>
      </trkpt>
      <trkpt lat="44.22555" lon="2.97236">
        <ele>773</ele>
        <time>2019-10-13T10:16:49.000Z</time>
      </trkpt>
      <trkpt lat="44.22553" lon="2.97234">
        <ele>772</ele>
        <time>2019-10-13T10:16:50.000Z</time>
      </trkpt>
      <trkpt lat="44.22552" lon="2.97233">
        <ele>772</ele>
        <time>2019-10-13T10:16:51.000Z</time>
      </trkpt>
      <trkpt lat="44.2255" lon="2.97232">
        <ele>772</ele>
        <time>2019-10-13T10:16:52.000Z</time>
      </trkpt>
      <trkpt lat="44.22548" lon="2.9723">
        <ele>772</ele>
        <time>2019-10-13T10:16:53.000Z</time>
      </trkpt>
      <trkpt lat="44.22547" lon="2.97229">
        <ele>772</ele>
        <time>2019-10-13T10:16:54.000Z</time>
      </trkpt>
      <trkpt lat="44.22545" lon="2.97228">
        <ele>771</ele>
        <time>2019-10-13T10:16:55.000Z</time>
      </trkpt>
      <trkpt lat="44.22544" lon="2.97226">
        <ele>771</ele>
        <time>2019-10-13T10:16:56.000Z</time>
      </trkpt>
      <trkpt lat="44.22543" lon="2.97225">
        <ele>771</ele>
        <time>2019-10-13T10:16:57.000Z</time>
      </trkpt>
      <trkpt lat="44.22542" lon="2.97223">
        <ele>771</ele>
        <time>2019-10-13T10:16:58.000Z</time>
      </trkpt>
      <trkpt lat="44.2254" lon="2.97222">
        <ele>771</ele>
        <time>2019-10-13T10:16:59.000Z</time>
      </trkpt>
      <trkpt lat="44.22539" lon="2.9722">
        <ele>771</ele>
        <time>2019-10-13T10:17:00.000Z</time>
      </trkpt>
      <trkpt lat="44.22538" lon="2.97219">
        <ele>771</ele>
        <time>2019-10-13T10:17:01.000Z</time>
      </trkpt>
      <trkpt lat="44.22537" lon="2.97218">
        <ele>771</ele>
        <time>2019-10-13T10:17:02.000Z</time>
      </trkpt>
      <trkpt lat="44.22536" lon="2.97217">
        <ele>771</ele>
        <time>2019-10-13T10:17:03.000Z</time>
      </trkpt>
      <trkpt lat="44.22534" lon="2.97216">
        <ele>771</ele>
        <time>2019-10-13T10:17:04.000Z</time>
      </trkpt>
      <trkpt lat="44.22533" lon="2.97215">
        <ele>770</ele>
        <time>2019-10-13T10:17:05.000Z</time>
      </trkpt>
      <trkpt lat="44.22532" lon="2.97214">
        <ele>770</ele>
        <time>2019-10-13T10:17:06.000Z</time>
      </trkpt>
      <trkpt lat="44.22531" lon="2.97214">
        <ele>770</ele>
        <time>2019-10-13T10:17:07.000Z</time>
      </trkpt>
      <trkpt lat="44.22529" lon="2.97213">
        <ele>770</ele>
        <time>2019-10-13T10:17:08.000Z</time>
      </trkpt>
      <trkpt lat="44.22528" lon="2.97213">
        <ele>770</ele>
        <time>2019-10-13T10:17:09.000Z</time>
      </trkpt>
      <trkpt lat="44.22526" lon="2.97213">
        <ele>770</ele>
        <time>2019-10-13T10:17:10.000Z</time>
      </trkpt>
      <trkpt lat="44.22525" lon="2.97213">
        <ele>770</ele>
        <time>2019-10-13T10:17:11.000Z</time>
      </trkpt>
      <trkpt lat="44.22523" lon="2.97213">
        <ele>770</ele>
        <time>2019-10-13T10:17:12.000Z</time>
      </trkpt>
      <trkpt lat="44.22521" lon="2.97213">
        <ele>770</ele>
        <time>2019-10-13T10:17:13.000Z</time>
      </trkpt>
      <trkpt lat="44.2252" lon="2.97213">
        <ele>770</ele>
        <time>2019-10-13T10:17:14.000Z</time>
      </trkpt>
      <trkpt lat="44.22518" lon="2.97213">
        <ele>770</ele>
        <time>2019-10-13T10:17:15.000Z</time>
      </trkpt>
      <trkpt lat="44.22516" lon="2.97213">
        <ele>770</ele>
        <time>2019-10-13T10:17:16.000Z</time>
      </trkpt>
      <trkpt lat="44.22515" lon="2.97214">
        <ele>769</ele>
        <time>2019-10-13T10:17:17.000Z</time>
      </trkpt>
      <trkpt lat="44.22513" lon="2.97214">
        <ele>769</ele>
        <time>2019-10-13T10:17:18.000Z</time>
      </trkpt>
      <trkpt lat="44.22511" lon="2.97214">
        <ele>769</ele>
        <time>2019-10-13T10:17:19.000Z</time>
      </trkpt>
      <trkpt lat="44.22509" lon="2.97214">
        <ele>769</ele>
        <time>2019-10-13T10:17:20.000Z</time>
      </trkpt>
      <trkpt lat="44.22507" lon="2.97214">
        <ele>769</ele>
        <time>2019-10-13T10:17:21.000Z</time>
      </trkpt>
      <trkpt lat="44.22505" lon="2.97215">
        <ele>768</ele>
        <time>2019-10-13T10:17:22.000Z</time>
      </trkpt>
      <trkpt lat="44.22503" lon="2.97215">
        <ele>768</ele>
        <time>2019-10-13T10:17:23.000Z</time>
      </trkpt>
      <trkpt lat="44.22501" lon="2.97215">
        <ele>768</ele>
        <time>2019-10-13T10:17:24.000Z</time>
      </trkpt>
      <trkpt lat="44.22499" lon="2.97216">
        <ele>768</ele>
        <time>2019-10-13T10:17:25.000Z</time>
      </trkpt>
      <trkpt lat="44.22497" lon="2.97217">
        <ele>768</ele>
        <time>2019-10-13T10:17:26.000Z</time>
      </trkpt>
      <trkpt lat="44.22495" lon="2.97217">
        <ele>768</ele>
        <time>2019-10-13T10:17:27.000Z</time>
      </trkpt>
      <trkpt lat="44.22494" lon="2.97218">
        <ele>767</ele>
        <time>2019-10-13T10:17:28.000Z</time>
      </trkpt>
      <trkpt lat="44.22492" lon="2.97218">
        <ele>767</ele>
        <time>2019-10-13T10:17:29.000Z</time>
      </trkpt>
      <trkpt lat="44.2249" lon="2.97219">
        <ele>767</ele>
        <time>2019-10-13T10:17:30.000Z</time>
      </trkpt>
      <trkpt lat="44.22489" lon="2.97219">
        <ele>767</ele>
        <time>2019-10-13T10:17:31.000Z</time>
      </trkpt>
      <trkpt lat="44.22487" lon="2.9722">
        <ele>767</ele>
        <time>2019-10-13T10:17:32.000Z</time>
      </trkpt>
      <trkpt lat="44.22485" lon="2.9722">
        <ele>767</ele>
        <time>2019-10-13T10:17:33.000Z</time>
      </trkpt>
      <trkpt lat="44.22484" lon="2.9722">
        <ele>766</ele>
        <time>2019-10-13T10:17:34.000Z</time>
      </trkpt>
      <trkpt lat="44.22482" lon="2.97221">
        <ele>766</ele>
        <time>2019-10-13T10:17:35.000Z</time>
      </trkpt>
      <trkpt lat="44.2248" lon="2.97221">
        <ele>766</ele>
        <time>2019-10-13T10:17:36.000Z</time>
      </trkpt>
      <trkpt lat="44.22478" lon="2.97221">
        <ele>766</ele>
        <time>2019-10-13T10:17:37.000Z</time>
      </trkpt>
      <trkpt lat="44.22476" lon="2.97222">
        <ele>766</ele>
        <time>2019-10-13T10:17:38.000Z</time>
      </trkpt>
      <trkpt lat="44.22474" lon="2.97222">
        <ele>765</ele>
        <time>2019-10-13T10:17:39.000Z</time>
      </trkpt>
      <trkpt lat="44.22472" lon="2.97223">
        <ele>765</ele>
        <time>2019-10-13T10:17:40.000Z</time>
      </trkpt>
      <trkpt lat="44.22471" lon="2.97223">
        <ele>765</ele>
        <time>2019-10-13T10:17:41.000Z</time>
      </trkpt>
      <trkpt lat="44.22469" lon="2.97224">
        <ele>765</ele>
        <time>2019-10-13T10:17:42.000Z</time>
      </trkpt>
      <trkpt lat="44.22467" lon="2.97225">
        <ele>765</ele>
        <time>2019-10-13T10:17:43.000Z</time>
      </trkpt>
      <trkpt lat="44.22466" lon="2.97225">
        <ele>764</ele>
        <time>2019-10-13T10:17:44.000Z</time>
      </trkpt>
      <trkpt lat="44.22464" lon="2.97226">
        <ele>764</ele>
        <time>2019-10-13T10:17:45.000Z</time>
      </trkpt>
      <trkpt lat="44.22463" lon="2.97226">
        <ele>764</ele>
        <time>2019-10-13T10:17:46.000Z</time>
      </trkpt>
      <trkpt lat="44.22462" lon="2.97226">
        <ele>764</ele>
        <time>2019-10-13T10:17:47.000Z</time>
      </trkpt>
      <trkpt lat="44.2246" lon="2.97226">
        <ele>763</ele>
        <time>2019-10-13T10:17:48.000Z</time>
      </trkpt>
      <trkpt lat="44.22458" lon="2.97226">
        <ele>763</ele>
        <time>2019-10-13T10:17:49.000Z</time>
      </trkpt>
      <trkpt lat="44.22456" lon="2.97226">
        <ele>763</ele>
        <time>2019-10-13T10:17:50.000Z</time>
      </trkpt>
      <trkpt lat="44.22455" lon="2.97226">
        <ele>763</ele>
        <time>2019-10-13T10:17:51.000Z</time>
      </trkpt>
      <trkpt lat="44.22453" lon="2.97226">
        <ele>762</ele>
        <time>2019-10-13T10:17:52.000Z</time>
      </trkpt>
      <trkpt lat="44.22451" lon="2.97226">
        <ele>762</ele>
        <time>2019-10-13T10:17:53.000Z</time>
      </trkpt>
      <trkpt lat="44.22449" lon="2.97226">
        <ele>762</ele>
        <time>2019-10-13T10:17:54.000Z</time>
      </trkpt>
      <trkpt lat="44.22448" lon="2.97226">
        <ele>762</ele>
        <time>2019-10-13T10:17:55.000Z</time>
      </trkpt>
      <trkpt lat="44.22446" lon="2.97227">
        <ele>762</ele>
        <time>2019-10-13T10:17:56.000Z</time>
      </trkpt>
      <trkpt lat="44.22445" lon="2.97227">
        <ele>761</ele>
        <time>2019-10-13T10:17:57.000Z</time>
      </trkpt>
      <trkpt lat="44.22443" lon="2.97227">
        <ele>761</ele>
        <time>2019-10-13T10:17:58.000Z</time>
      </trkpt>
      <trkpt lat="44.22442" lon="2.97228">
        <ele>761</ele>
        <time>2019-10-13T10:17:59.000Z</time>
      </trkpt>
      <trkpt lat="44.2244" lon="2.97229">
        <ele>761</ele>
        <time>2019-10-13T10:18:00.000Z</time>
      </trkpt>
      <trkpt lat="44.22439" lon="2.9723">
        <ele>761</ele>
        <time>2019-10-13T10:18:01.000Z</time>
      </trkpt>
      <trkpt lat="44.22437" lon="2.97232">
        <ele>760</ele>
        <time>2019-10-13T10:18:02.000Z</time>
      </trkpt>
      <trkpt lat="44.22436" lon="2.97233">
        <ele>760</ele>
        <time>2019-10-13T10:18:03.000Z</time>
      </trkpt>
      <trkpt lat="44.22434" lon="2.97235">
        <ele>760</ele>
        <time>2019-10-13T10:18:04.000Z</time>
      </trkpt>
      <trkpt lat="44.22433" lon="2.97236">
        <ele>760</ele>
        <time>2019-10-13T10:18:05.000Z</time>
      </trkpt>
      <trkpt lat="44.22432" lon="2.97238">
        <ele>760</ele>
        <time>2019-10-13T10:18:06.000Z</time>
      </trkpt>
      <trkpt lat="44.22431" lon="2.9724">
        <ele>759</ele>
        <time>2019-10-13T10:18:07.000Z</time>
      </trkpt>
      <trkpt lat="44.2243" lon="2.97242">
        <ele>759</ele>
        <time>2019-10-13T10:18:08.000Z</time>
      </trkpt>
      <trkpt lat="44.22428" lon="2.97244">
        <ele>759</ele>
        <time>2019-10-13T10:18:09.000Z</time>
      </trkpt>
      <trkpt lat="44.22427" lon="2.97246">
        <ele>759</ele>
        <time>2019-10-13T10:18:10.000Z</time>
      </trkpt>
      <trkpt lat="44.22426" lon="2.97248">
        <ele>759</ele>
        <time>2019-10-13T10:18:11.000Z</time>
      </trkpt>
      <trkpt lat="44.22425" lon="2.97249">
        <ele>759</ele>
        <time>2019-10-13T10:18:12.000Z</time>
      </trkpt>
      <trkpt lat="44.22424" lon="2.97251">
        <ele>758</ele>
        <time>2019-10-13T10:18:13.000Z</time>
      </trkpt>
      <trkpt lat="44.22423" lon="2.97253">
        <ele>758</ele>
        <time>2019-10-13T10:18:14.000Z</time>
      </trkpt>
      <trkpt lat="44.22422" lon="2.97255">
        <ele>758</ele>
        <time>2019-10-13T10:18:15.000Z</time>
      </trkpt>
      <trkpt lat="44.22421" lon="2.97257">
        <ele>758</ele>
        <time>2019-10-13T10:18:16.000Z</time>
      </trkpt>
      <trkpt lat="44.2242" lon="2.97258">
        <ele>758</ele>
        <time>2019-10-13T10:18:17.000Z</time>
      </trkpt>
      <trkpt lat="44.22419" lon="2.9726">
        <ele>758</ele>
        <time>2019-10-13T10:18:18.000Z</time>
      </trkpt>
      <trkpt lat="44.22419" lon="2.97261">
        <ele>758</ele>
        <time>2019-10-13T10:18:19.000Z</time>
      </trkpt>
      <trkpt lat="44.22418" lon="2.97262">
        <ele>757</ele>
        <time>2019-10-13T10:18:20.000Z</time>
      </trkpt>
      <trkpt lat="44.22417" lon="2.97264">
        <ele>757</ele>
        <time>2019-10-13T10:18:21.000Z</time>
      </trkpt>
      <trkpt lat="44.22416" lon="2.97265">
        <ele>757</ele>
        <time>2019-10-13T10:18:22.000Z</time>
      </trkpt>
      <trkpt lat="44.22415" lon="2.97266">
        <ele>757</ele>
        <time>2019-10-13T10:18:23.000Z</time>
      </trkpt>
      <trkpt lat="44.22413" lon="2.97268">
        <ele>757</ele>
        <time>2019-10-13T10:18:24.000Z</time>
      </trkpt>
      <trkpt lat="44.22412" lon="2.97269">
        <ele>757</ele>
        <time>2019-10-13T10:18:25.000Z</time>
      </trkpt>
      <trkpt lat="44.22411" lon="2.97271">
        <ele>757</ele>
        <time>2019-10-13T10:18:26.000Z</time>
      </trkpt>
      <trkpt lat="44.2241" lon="2.97273">
        <ele>756</ele>
        <time>2019-10-13T10:18:27.000Z</time>
      </trkpt>
      <trkpt lat="44.22409" lon="2.97275">
        <ele>756</ele>
        <time>2019-10-13T10:18:28.000Z</time>
      </trkpt>
      <trkpt lat="44.22408" lon="2.97277">
        <ele>756</ele>
        <time>2019-10-13T10:18:29.000Z</time>
      </trkpt>
      <trkpt lat="44.22406" lon="2.97278">
        <ele>756</ele>
        <time>2019-10-13T10:18:30.000Z</time>
      </trkpt>
      <trkpt lat="44.22405" lon="2.9728">
        <ele>756</ele>
        <time>2019-10-13T10:18:31.000Z</time>
      </trkpt>
      <trkpt lat="44.22404" lon="2.97281">
        <ele>756</ele>
        <time>2019-10-13T10:18:32.000Z</time>
      </trkpt>
      <trkpt lat="44.22402" lon="2.97283">
        <ele>756</ele>
        <time>2019-10-13T10:18:33.000Z</time>
      </trkpt>
      <trkpt lat="44.22401" lon="2.97285">
        <ele>756</ele>
        <time>2019-10-13T10:18:34.000Z</time>
      </trkpt>
      <trkpt lat="44.22399" lon="2.97287">
        <ele>756</ele>
        <time>2019-10-13T10:18:35.000Z</time>
      </trkpt>
      <trkpt lat="44.22398" lon="2.97289">
        <ele>756</ele>
        <time>2019-10-13T10:18:36.000Z</time>
      </trkpt>
      <trkpt lat="44.22397" lon="2.97291">
        <ele>756</ele>
        <time>2019-10-13T10:18:37.000Z</time>
      </trkpt>
      <trkpt lat="44.22395" lon="2.97292">
        <ele>756</ele>
        <time>2019-10-13T10:18:38.000Z</time>
      </trkpt>
      <trkpt lat="44.22394" lon="2.97294">
        <ele>756</ele>
        <time>2019-10-13T10:18:39.000Z</time>
      </trkpt>
      <trkpt lat="44.22393" lon="2.97296">
        <ele>755</ele>
        <time>2019-10-13T10:18:40.000Z</time>
      </trkpt>
      <trkpt lat="44.22392" lon="2.97298">
        <ele>755</ele>
        <time>2019-10-13T10:18:41.000Z</time>
      </trkpt>
      <trkpt lat="44.2239" lon="2.97299">
        <ele>755</ele>
        <time>2019-10-13T10:18:42.000Z</time>
      </trkpt>
      <trkpt lat="44.22389" lon="2.97301">
        <ele>755</ele>
        <time>2019-10-13T10:18:43.000Z</time>
      </trkpt>
      <trkpt lat="44.22388" lon="2.97303">
        <ele>755</ele>
        <time>2019-10-13T10:18:44.000Z</time>
      </trkpt>
      <trkpt lat="44.22387" lon="2.97305">
        <ele>755</ele>
        <time>2019-10-13T10:18:45.000Z</time>
      </trkpt>
      <trkpt lat="44.22386" lon="2.97307">
        <ele>755</ele>
        <time>2019-10-13T10:18:46.000Z</time>
      </trkpt>
      <trkpt lat="44.22385" lon="2.97308">
        <ele>755</ele>
        <time>2019-10-13T10:18:47.000Z</time>
      </trkpt>
      <trkpt lat="44.22383" lon="2.9731">
        <ele>755</ele>
        <time>2019-10-13T10:18:48.000Z</time>
      </trkpt>
      <trkpt lat="44.22382" lon="2.97312">
        <ele>755</ele>
        <time>2019-10-13T10:18:49.000Z</time>
      </trkpt>
      <trkpt lat="44.22381" lon="2.97314">
        <ele>755</ele>
        <time>2019-10-13T10:18:50.000Z</time>
      </trkpt>
      <trkpt lat="44.2238" lon="2.97315">
        <ele>755</ele>
        <time>2019-10-13T10:18:51.000Z</time>
      </trkpt>
      <trkpt lat="44.22379" lon="2.97317">
        <ele>755</ele>
        <time>2019-10-13T10:18:52.000Z</time>
      </trkpt>
      <trkpt lat="44.22378" lon="2.97318">
        <ele>756</ele>
        <time>2019-10-13T10:18:53.000Z</time>
      </trkpt>
      <trkpt lat="44.22376" lon="2.9732">
        <ele>756</ele>
        <time>2019-10-13T10:18:54.000Z</time>
      </trkpt>
      <trkpt lat="44.22375" lon="2.9732">
        <ele>756</ele>
        <time>2019-10-13T10:18:55.000Z</time>
      </trkpt>
      <trkpt lat="44.22373" lon="2.9732">
        <ele>756</ele>
        <time>2019-10-13T10:18:56.000Z</time>
      </trkpt>
      <trkpt lat="44.22372" lon="2.9732">
        <ele>756</ele>
        <time>2019-10-13T10:18:57.000Z</time>
      </trkpt>
      <trkpt lat="44.2237" lon="2.97318">
        <ele>756</ele>
        <time>2019-10-13T10:18:58.000Z</time>
      </trkpt>
      <trkpt lat="44.2237" lon="2.97317">
        <ele>756</ele>
        <time>2019-10-13T10:18:59.000Z</time>
      </trkpt>
      <trkpt lat="44.22369" lon="2.97315">
        <ele>756</ele>
        <time>2019-10-13T10:19:00.000Z</time>
      </trkpt>
      <trkpt lat="44.22368" lon="2.97313">
        <ele>756</ele>
        <time>2019-10-13T10:19:01.000Z</time>
      </trkpt>
      <trkpt lat="44.22368" lon="2.97311">
        <ele>756</ele>
        <time>2019-10-13T10:19:02.000Z</time>
      </trkpt>
      <trkpt lat="44.22368" lon="2.97309">
        <ele>756</ele>
        <time>2019-10-13T10:19:03.000Z</time>
      </trkpt>
      <trkpt lat="44.22367" lon="2.97306">
        <ele>756</ele>
        <time>2019-10-13T10:19:04.000Z</time>
      </trkpt>
      <trkpt lat="44.22367" lon="2.97304">
        <ele>756</ele>
        <time>2019-10-13T10:19:05.000Z</time>
      </trkpt>
      <trkpt lat="44.22367" lon="2.97302">
        <ele>756</ele>
        <time>2019-10-13T10:19:06.000Z</time>
      </trkpt>
      <trkpt lat="44.22367" lon="2.973">
        <ele>756</ele>
        <time>2019-10-13T10:19:07.000Z</time>
      </trkpt>
      <trkpt lat="44.22366" lon="2.97298">
        <ele>756</ele>
        <time>2019-10-13T10:19:08.000Z</time>
      </trkpt>
      <trkpt lat="44.22366" lon="2.97296">
        <ele>756</ele>
        <time>2019-10-13T10:19:09.000Z</time>
      </trkpt>
      <trkpt lat="44.22366" lon="2.97293">
        <ele>756</ele>
        <time>2019-10-13T10:19:10.000Z</time>
      </trkpt>
      <trkpt lat="44.22366" lon="2.9729">
        <ele>756</ele>
        <time>2019-10-13T10:19:11.000Z</time>
      </trkpt>
      <trkpt lat="44.22365" lon="2.97288">
        <ele>756</ele>
        <time>2019-10-13T10:19:12.000Z</time>
      </trkpt>
      <trkpt lat="44.22365" lon="2.97285">
        <ele>756</ele>
        <time>2019-10-13T10:19:13.000Z</time>
      </trkpt>
      <trkpt lat="44.22365" lon="2.97281">
        <ele>756</ele>
        <time>2019-10-13T10:19:14.000Z</time>
      </trkpt>
      <trkpt lat="44.22364" lon="2.97277">
        <ele>757</ele>
        <time>2019-10-13T10:19:15.000Z</time>
      </trkpt>
      <trkpt lat="44.22363" lon="2.97273">
        <ele>757</ele>
        <time>2019-10-13T10:19:16.000Z</time>
      </trkpt>
      <trkpt lat="44.22363" lon="2.97268">
        <ele>757</ele>
        <time>2019-10-13T10:19:17.000Z</time>
      </trkpt>
      <trkpt lat="44.22362" lon="2.97262">
        <ele>757</ele>
        <time>2019-10-13T10:19:18.000Z</time>
      </trkpt>
      <trkpt lat="44.22361" lon="2.97256">
        <ele>757</ele>
        <time>2019-10-13T10:19:19.000Z</time>
      </trkpt>
      <trkpt lat="44.22361" lon="2.9725">
        <ele>758</ele>
        <time>2019-10-13T10:19:20.000Z</time>
      </trkpt>
      <trkpt lat="44.22361" lon="2.97243">
        <ele>758</ele>
        <time>2019-10-13T10:19:21.000Z</time>
      </trkpt>
      <trkpt lat="44.22361" lon="2.97235">
        <ele>758</ele>
        <time>2019-10-13T10:19:22.000Z</time>
      </trkpt>
      <trkpt lat="44.22361" lon="2.97227">
        <ele>758</ele>
        <time>2019-10-13T10:19:23.000Z</time>
      </trkpt>
      <trkpt lat="44.22361" lon="2.97218">
        <ele>758</ele>
        <time>2019-10-13T10:19:24.000Z</time>
      </trkpt>
      <trkpt lat="44.22361" lon="2.97209">
        <ele>758</ele>
        <time>2019-10-13T10:19:25.000Z</time>
      </trkpt>
      <trkpt lat="44.2236" lon="2.97199">
        <ele>759</ele>
        <time>2019-10-13T10:19:26.000Z</time>
      </trkpt>
      <trkpt lat="44.2236" lon="2.97188">
        <ele>759</ele>
        <time>2019-10-13T10:19:27.000Z</time>
      </trkpt>
      <trkpt lat="44.22359" lon="2.97178">
        <ele>759</ele>
        <time>2019-10-13T10:19:28.000Z</time>
      </trkpt>
      <trkpt lat="44.22358" lon="2.97168">
        <ele>759</ele>
        <time>2019-10-13T10:19:29.000Z</time>
      </trkpt>
      <trkpt lat="44.22358" lon="2.97158">
        <ele>760</ele>
        <time>2019-10-13T10:19:30.000Z</time>
      </trkpt>
      <trkpt lat="44.22356" lon="2.97149">
        <ele>760</ele>
        <time>2019-10-13T10:19:31.000Z</time>
      </trkpt>
      <trkpt lat="44.22355" lon="2.97139">
        <ele>760</ele>
        <time>2019-10-13T10:19:32.000Z</time>
      </trkpt>
      <trkpt lat="44.22354" lon="2.97129">
        <ele>761</ele>
        <time>2019-10-13T10:19:33.000Z</time>
      </trkpt>
      <trkpt lat="44.22354" lon="2.97119">
        <ele>761</ele>
        <time>2019-10-13T10:19:34.000Z</time>
      </trkpt>
      <trkpt lat="44.22354" lon="2.9711">
        <ele>761</ele>
        <time>2019-10-13T10:19:35.000Z</time>
      </trkpt>
      <trkpt lat="44.22355" lon="2.97101">
        <ele>761</ele>
        <time>2019-10-13T10:19:36.000Z</time>
      </trkpt>
      <trkpt lat="44.22357" lon="2.97093">
        <ele>761</ele>
        <time>2019-10-13T10:19:37.000Z</time>
      </trkpt>
      <trkpt lat="44.22361" lon="2.97086">
        <ele>761</ele>
        <time>2019-10-13T10:19:38.000Z</time>
      </trkpt>
      <trkpt lat="44.22366" lon="2.9708">
        <ele>762</ele>
        <time>2019-10-13T10:19:39.000Z</time>
      </trkpt>
      <trkpt lat="44.22373" lon="2.97077">
        <ele>762</ele>
        <time>2019-10-13T10:19:40.000Z</time>
      </trkpt>
      <trkpt lat="44.22381" lon="2.97074">
        <ele>762</ele>
        <time>2019-10-13T10:19:41.000Z</time>
      </trkpt>
      <trkpt lat="44.2239" lon="2.97072">
        <ele>762</ele>
        <time>2019-10-13T10:19:42.000Z</time>
      </trkpt>
      <trkpt lat="44.22399" lon="2.97068">
        <ele>762</ele>
        <time>2019-10-13T10:19:43.000Z</time>
      </trkpt>
      <trkpt lat="44.22408" lon="2.97062">
        <ele>762</ele>
        <time>2019-10-13T10:19:44.000Z</time>
      </trkpt>
      <trkpt lat="44.22417" lon="2.97056">
        <ele>762</ele>
        <time>2019-10-13T10:19:45.000Z</time>
      </trkpt>
      <trkpt lat="44.22426" lon="2.9705">
        <ele>762</ele>
        <time>2019-10-13T10:19:46.000Z</time>
      </trkpt>
      <trkpt lat="44.22436" lon="2.97043">
        <ele>762</ele>
        <time>2019-10-13T10:19:47.000Z</time>
      </trkpt>
      <trkpt lat="44.22445" lon="2.97037">
        <ele>762</ele>
        <time>2019-10-13T10:19:48.000Z</time>
      </trkpt>
      <trkpt lat="44.22455" lon="2.97029">
        <ele>763</ele>
        <time>2019-10-13T10:19:49.000Z</time>
      </trkpt>
      <trkpt lat="44.22464" lon="2.97022">
        <ele>763</ele>
        <time>2019-10-13T10:19:50.000Z</time>
      </trkpt>
      <trkpt lat="44.22474" lon="2.97014">
        <ele>763</ele>
        <time>2019-10-13T10:19:51.000Z</time>
      </trkpt>
      <trkpt lat="44.22482" lon="2.97006">
        <ele>763</ele>
        <time>2019-10-13T10:19:52.000Z</time>
      </trkpt>
      <trkpt lat="44.2249" lon="2.96997">
        <ele>763</ele>
        <time>2019-10-13T10:19:53.000Z</time>
      </trkpt>
      <trkpt lat="44.22498" lon="2.96987">
        <ele>763</ele>
        <time>2019-10-13T10:19:54.000Z</time>
      </trkpt>
      <trkpt lat="44.22505" lon="2.96977">
        <ele>763</ele>
        <time>2019-10-13T10:19:55.000Z</time>
      </trkpt>
      <trkpt lat="44.22511" lon="2.96967">
        <ele>763</ele>
        <time>2019-10-13T10:19:56.000Z</time>
      </trkpt>
      <trkpt lat="44.22517" lon="2.96956">
        <ele>764</ele>
        <time>2019-10-13T10:19:57.000Z</time>
      </trkpt>
      <trkpt lat="44.22523" lon="2.96946">
        <ele>764</ele>
        <time>2019-10-13T10:19:58.000Z</time>
      </trkpt>
      <trkpt lat="44.22528" lon="2.96936">
        <ele>764</ele>
        <time>2019-10-13T10:19:59.000Z</time>
      </trkpt>
      <trkpt lat="44.22534" lon="2.96925">
        <ele>765</ele>
        <time>2019-10-13T10:20:00.000Z</time>
      </trkpt>
      <trkpt lat="44.22539" lon="2.96915">
        <ele>766</ele>
        <time>2019-10-13T10:20:01.000Z</time>
      </trkpt>
      <trkpt lat="44.22544" lon="2.96906">
        <ele>766</ele>
        <time>2019-10-13T10:20:02.000Z</time>
      </trkpt>
      <trkpt lat="44.22548" lon="2.96896">
        <ele>767</ele>
        <time>2019-10-13T10:20:03.000Z</time>
      </trkpt>
      <trkpt lat="44.22553" lon="2.96887">
        <ele>768</ele>
        <time>2019-10-13T10:20:04.000Z</time>
      </trkpt>
      <trkpt lat="44.22558" lon="2.96879">
        <ele>768</ele>
        <time>2019-10-13T10:20:05.000Z</time>
      </trkpt>
      <trkpt lat="44.22563" lon="2.96871">
        <ele>769</ele>
        <time>2019-10-13T10:20:06.000Z</time>
      </trkpt>
      <trkpt lat="44.22568" lon="2.96863">
        <ele>770</ele>
        <time>2019-10-13T10:20:07.000Z</time>
      </trkpt>
      <trkpt lat="44.22574" lon="2.96855">
        <ele>770</ele>
        <time>2019-10-13T10:20:08.000Z</time>
      </trkpt>
      <trkpt lat="44.22579" lon="2.96849">
        <ele>771</ele>
        <time>2019-10-13T10:20:09.000Z</time>
      </trkpt>
      <trkpt lat="44.22584" lon="2.96842">
        <ele>771</ele>
        <time>2019-10-13T10:20:10.000Z</time>
      </trkpt>
      <trkpt lat="44.22588" lon="2.96835">
        <ele>772</ele>
        <time>2019-10-13T10:20:11.000Z</time>
      </trkpt>
      <trkpt lat="44.22593" lon="2.96829">
        <ele>772</ele>
        <time>2019-10-13T10:20:12.000Z</time>
      </trkpt>
      <trkpt lat="44.22597" lon="2.96824">
        <ele>773</ele>
        <time>2019-10-13T10:20:13.000Z</time>
      </trkpt>
      <trkpt lat="44.22601" lon="2.96818">
        <ele>773</ele>
        <time>2019-10-13T10:20:14.000Z</time>
      </trkpt>
      <trkpt lat="44.22604" lon="2.96814">
        <ele>773</ele>
        <time>2019-10-13T10:20:15.000Z</time>
      </trkpt>
      <trkpt lat="44.22608" lon="2.96809">
        <ele>774</ele>
        <time>2019-10-13T10:20:16.000Z</time>
      </trkpt>
      <trkpt lat="44.22612" lon="2.96804">
        <ele>774</ele>
        <time>2019-10-13T10:20:17.000Z</time>
      </trkpt>
      <trkpt lat="44.22616" lon="2.96798">
        <ele>774</ele>
        <time>2019-10-13T10:20:18.000Z</time>
      </trkpt>
      <trkpt lat="44.22621" lon="2.96792">
        <ele>774</ele>
        <time>2019-10-13T10:20:19.000Z</time>
      </trkpt>
      <trkpt lat="44.22626" lon="2.96785">
        <ele>775</ele>
        <time>2019-10-13T10:20:20.000Z</time>
      </trkpt>
      <trkpt lat="44.2263" lon="2.96777">
        <ele>775</ele>
        <time>2019-10-13T10:20:21.000Z</time>
      </trkpt>
      <trkpt lat="44.22635" lon="2.96769">
        <ele>775</ele>
        <time>2019-10-13T10:20:22.000Z</time>
      </trkpt>
      <trkpt lat="44.22638" lon="2.96761">
        <ele>775</ele>
        <time>2019-10-13T10:20:23.000Z</time>
      </trkpt>
      <trkpt lat="44.22642" lon="2.96753">
        <ele>775</ele>
        <time>2019-10-13T10:20:24.000Z</time>
      </trkpt>
      <trkpt lat="44.22645" lon="2.96744">
        <ele>776</ele>
        <time>2019-10-13T10:20:25.000Z</time>
      </trkpt>
      <trkpt lat="44.22648" lon="2.96735">
        <ele>776</ele>
        <time>2019-10-13T10:20:26.000Z</time>
      </trkpt>
      <trkpt lat="44.22651" lon="2.96727">
        <ele>776</ele>
        <time>2019-10-13T10:20:27.000Z</time>
      </trkpt>
      <trkpt lat="44.22653" lon="2.96718">
        <ele>776</ele>
        <time>2019-10-13T10:20:28.000Z</time>
      </trkpt>
      <trkpt lat="44.22656" lon="2.9671">
        <ele>776</ele>
        <time>2019-10-13T10:20:29.000Z</time>
      </trkpt>
      <trkpt lat="44.22659" lon="2.96701">
        <ele>777</ele>
        <time>2019-10-13T10:20:30.000Z</time>
      </trkpt>
      <trkpt lat="44.22663" lon="2.96692">
        <ele>777</ele>
        <time>2019-10-13T10:20:31.000Z</time>
      </trkpt>
      <trkpt lat="44.22666" lon="2.96683">
        <ele>777</ele>
        <time>2019-10-13T10:20:32.000Z</time>
      </trkpt>
      <trkpt lat="44.2267" lon="2.96675">
        <ele>778</ele>
        <time>2019-10-13T10:20:33.000Z</time>
      </trkpt>
      <trkpt lat="44.22675" lon="2.96666">
        <ele>778</ele>
        <time>2019-10-13T10:20:34.000Z</time>
      </trkpt>
      <trkpt lat="44.2268" lon="2.96658">
        <ele>778</ele>
        <time>2019-10-13T10:20:35.000Z</time>
      </trkpt>
      <trkpt lat="44.22685" lon="2.96651">
        <ele>778</ele>
        <time>2019-10-13T10:20:36.000Z</time>
      </trkpt>
      <trkpt lat="44.22691" lon="2.96645">
        <ele>779</ele>
        <time>2019-10-13T10:20:37.000Z</time>
      </trkpt>
      <trkpt lat="44.22697" lon="2.9664">
        <ele>779</ele>
        <time>2019-10-13T10:20:38.000Z</time>
      </trkpt>
      <trkpt lat="44.22702" lon="2.96635">
        <ele>779</ele>
        <time>2019-10-13T10:20:39.000Z</time>
      </trkpt>
      <trkpt lat="44.22708" lon="2.96629">
        <ele>780</ele>
        <time>2019-10-13T10:20:40.000Z</time>
      </trkpt>
      <trkpt lat="44.22713" lon="2.96624">
        <ele>780</ele>
        <time>2019-10-13T10:20:41.000Z</time>
      </trkpt>
      <trkpt lat="44.22719" lon="2.96619">
        <ele>781</ele>
        <time>2019-10-13T10:20:42.000Z</time>
      </trkpt>
      <trkpt lat="44.22724" lon="2.96615">
        <ele>781</ele>
        <time>2019-10-13T10:20:43.000Z</time>
      </trkpt>
      <trkpt lat="44.22729" lon="2.96611">
        <ele>782</ele>
        <time>2019-10-13T10:20:44.000Z</time>
      </trkpt>
      <trkpt lat="44.22734" lon="2.96607">
        <ele>782</ele>
        <time>2019-10-13T10:20:45.000Z</time>
      </trkpt>
      <trkpt lat="44.22738" lon="2.96603">
        <ele>783</ele>
        <time>2019-10-13T10:20:46.000Z</time>
      </trkpt>
      <trkpt lat="44.22742" lon="2.96599">
        <ele>784</ele>
        <time>2019-10-13T10:20:47.000Z</time>
      </trkpt>
      <trkpt lat="44.22745" lon="2.96596">
        <ele>784</ele>
        <time>2019-10-13T10:20:48.000Z</time>
      </trkpt>
      <trkpt lat="44.22747" lon="2.96594">
        <ele>785</ele>
        <time>2019-10-13T10:20:49.000Z</time>
      </trkpt>
      <trkpt lat="44.22748" lon="2.96592">
        <ele>785</ele>
        <time>2019-10-13T10:20:50.000Z</time>
      </trkpt>
      <trkpt lat="44.22749" lon="2.9659">
        <ele>785</ele>
        <time>2019-10-13T10:20:51.000Z</time>
      </trkpt>
      <trkpt lat="44.2275" lon="2.96589">
        <ele>786</ele>
        <time>2019-10-13T10:20:52.000Z</time>
      </trkpt>
      <trkpt lat="44.22751" lon="2.96588">
        <ele>786</ele>
        <time>2019-10-13T10:20:53.000Z</time>
      </trkpt>
      <trkpt lat="44.22752" lon="2.96586">
        <ele>787</ele>
        <time>2019-10-13T10:20:54.000Z</time>
      </trkpt>
      <trkpt lat="44.22753" lon="2.96586">
        <ele>787</ele>
        <time>2019-10-13T10:20:55.000Z</time>
      </trkpt>
      <trkpt lat="44.22753" lon="2.96586">
        <ele>787</ele>
        <time>2019-10-13T10:20:56.000Z</time>
      </trkpt>
      <trkpt lat="44.22753" lon="2.96586">
        <ele>787</ele>
        <time>2019-10-13T10:20:57.000Z</time>
      </trkpt>
      <trkpt lat="44.22753" lon="2.96586">
        <ele>787</ele>
        <time>2019-10-13T10:20:58.000Z</time>
      </trkpt>
      <trkpt lat="44.22753" lon="2.96586">
        <ele>787</ele>
        <time>2019-10-13T10:20:59.000Z</time>
      </trkpt>
      <trkpt lat="44.22753" lon="2.96586">
        <ele>787</ele>
        <time>2019-10-13T10:21:00.000Z</time>
      </trkpt>
      <trkpt lat="44.22754" lon="2.96586">
        <ele>787</ele>
        <time>2019-10-13T10:21:01.000Z</time>
      </trkpt>
      <trkpt lat="44.22754" lon="2.96586">
        <ele>788</ele>
        <time>2019-10-13T10:21:02.000Z</time>
      </trkpt>
      <trkpt lat="44.22755" lon="2.96585">
        <ele>788</ele>
        <time>2019-10-13T10:21:03.000Z</time>
      </trkpt>
      <trkpt lat="44.22756" lon="2.96585">
        <ele>788</ele>
        <time>2019-10-13T10:21:04.000Z</time>
      </trkpt>
      <trkpt lat="44.22757" lon="2.96584">
        <ele>788</ele>
        <time>2019-10-13T10:21:05.000Z</time>
      </trkpt>
      <trkpt lat="44.22758" lon="2.96583">
        <ele>788</ele>
        <time>2019-10-13T10:21:06.000Z</time>
      </trkpt>
      <trkpt lat="44.22759" lon="2.96582">
        <ele>788</ele>
        <time>2019-10-13T10:21:07.000Z</time>
      </trkpt>
      <trkpt lat="44.2276" lon="2.9658">
        <ele>788</ele>
        <time>2019-10-13T10:21:08.000Z</time>
      </trkpt>
      <trkpt lat="44.22761" lon="2.96579">
        <ele>789</ele>
        <time>2019-10-13T10:21:09.000Z</time>
      </trkpt>
      <trkpt lat="44.22762" lon="2.96577">
        <ele>789</ele>
        <time>2019-10-13T10:21:10.000Z</time>
      </trkpt>
      <trkpt lat="44.22763" lon="2.96576">
        <ele>789</ele>
        <time>2019-10-13T10:21:11.000Z</time>
      </trkpt>
      <trkpt lat="44.22764" lon="2.96575">
        <ele>789</ele>
        <time>2019-10-13T10:21:12.000Z</time>
      </trkpt>
      <trkpt lat="44.22765" lon="2.96574">
        <ele>790</ele>
        <time>2019-10-13T10:21:13.000Z</time>
      </trkpt>
      <trkpt lat="44.22765" lon="2.96572">
        <ele>790</ele>
        <time>2019-10-13T10:21:14.000Z</time>
      </trkpt>
      <trkpt lat="44.22766" lon="2.96571">
        <ele>790</ele>
        <time>2019-10-13T10:21:15.000Z</time>
      </trkpt>
      <trkpt lat="44.22767" lon="2.96569">
        <ele>790</ele>
        <time>2019-10-13T10:21:16.000Z</time>
      </trkpt>
      <trkpt lat="44.22768" lon="2.96568">
        <ele>791</ele>
        <time>2019-10-13T10:21:17.000Z</time>
      </trkpt>
      <trkpt lat="44.22769" lon="2.96567">
        <ele>791</ele>
        <time>2019-10-13T10:21:18.000Z</time>
      </trkpt>
      <trkpt lat="44.2277" lon="2.96565">
        <ele>791</ele>
        <time>2019-10-13T10:21:19.000Z</time>
      </trkpt>
      <trkpt lat="44.22772" lon="2.96564">
        <ele>791</ele>
        <time>2019-10-13T10:21:20.000Z</time>
      </trkpt>
      <trkpt lat="44.22772" lon="2.96563">
        <ele>792</ele>
        <time>2019-10-13T10:21:21.000Z</time>
      </trkpt>
      <trkpt lat="44.22774" lon="2.96561">
        <ele>792</ele>
        <time>2019-10-13T10:21:22.000Z</time>
      </trkpt>
      <trkpt lat="44.22775" lon="2.9656">
        <ele>792</ele>
        <time>2019-10-13T10:21:23.000Z</time>
      </trkpt>
      <trkpt lat="44.22776" lon="2.96559">
        <ele>792</ele>
        <time>2019-10-13T10:21:24.000Z</time>
      </trkpt>
      <trkpt lat="44.22777" lon="2.96557">
        <ele>792</ele>
        <time>2019-10-13T10:21:25.000Z</time>
      </trkpt>
      <trkpt lat="44.22778" lon="2.96556">
        <ele>793</ele>
        <time>2019-10-13T10:21:26.000Z</time>
      </trkpt>
      <trkpt lat="44.22779" lon="2.96555">
        <ele>793</ele>
        <time>2019-10-13T10:21:27.000Z</time>
      </trkpt>
      <trkpt lat="44.2278" lon="2.96554">
        <ele>793</ele>
        <time>2019-10-13T10:21:28.000Z</time>
      </trkpt>
      <trkpt lat="44.22781" lon="2.96552">
        <ele>793</ele>
        <time>2019-10-13T10:21:29.000Z</time>
      </trkpt>
      <trkpt lat="44.22782" lon="2.96551">
        <ele>793</ele>
        <time>2019-10-13T10:21:30.000Z</time>
      </trkpt>
      <trkpt lat="44.22783" lon="2.9655">
        <ele>793</ele>
        <time>2019-10-13T10:21:31.000Z</time>
      </trkpt>
      <trkpt lat="44.22784" lon="2.96549">
        <ele>793</ele>
        <time>2019-10-13T10:21:32.000Z</time>
      </trkpt>
      <trkpt lat="44.22785" lon="2.96547">
        <ele>794</ele>
        <time>2019-10-13T10:21:33.000Z</time>
      </trkpt>
      <trkpt lat="44.22786" lon="2.96546">
        <ele>794</ele>
        <time>2019-10-13T10:21:34.000Z</time>
      </trkpt>
      <trkpt lat="44.22787" lon="2.96545">
        <ele>794</ele>
        <time>2019-10-13T10:21:35.000Z</time>
      </trkpt>
      <trkpt lat="44.22788" lon="2.96544">
        <ele>794</ele>
        <time>2019-10-13T10:21:36.000Z</time>
      </trkpt>
      <trkpt lat="44.22789" lon="2.96543">
        <ele>794</ele>
        <time>2019-10-13T10:21:37.000Z</time>
      </trkpt>
      <trkpt lat="44.2279" lon="2.96542">
        <ele>794</ele>
        <time>2019-10-13T10:21:38.000Z</time>
      </trkpt>
      <trkpt lat="44.22791" lon="2.9654">
        <ele>794</ele>
        <time>2019-10-13T10:21:39.000Z</time>
      </trkpt>
      <trkpt lat="44.22791" lon="2.96539">
        <ele>795</ele>
        <time>2019-10-13T10:21:40.000Z</time>
      </trkpt>
      <trkpt lat="44.22792" lon="2.96538">
        <ele>795</ele>
        <time>2019-10-13T10:21:41.000Z</time>
      </trkpt>
      <trkpt lat="44.22793" lon="2.96537">
        <ele>795</ele>
        <time>2019-10-13T10:21:42.000Z</time>
      </trkpt>
      <trkpt lat="44.22794" lon="2.96536">
        <ele>795</ele>
        <time>2019-10-13T10:21:43.000Z</time>
      </trkpt>
      <trkpt lat="44.22795" lon="2.96535">
        <ele>795</ele>
        <time>2019-10-13T10:21:44.000Z</time>
      </trkpt>
      <trkpt lat="44.22796" lon="2.96533">
        <ele>795</ele>
        <time>2019-10-13T10:21:45.000Z</time>
      </trkpt>
      <trkpt lat="44.22798" lon="2.96532">
        <ele>796</ele>
        <time>2019-10-13T10:21:46.000Z</time>
      </trkpt>
      <trkpt lat="44.22799" lon="2.96531">
        <ele>796</ele>
        <time>2019-10-13T10:21:47.000Z</time>
      </trkpt>
      <trkpt lat="44.228" lon="2.9653">
        <ele>796</ele>
        <time>2019-10-13T10:21:48.000Z</time>
      </trkpt>
      <trkpt lat="44.22801" lon="2.96528">
        <ele>796</ele>
        <time>2019-10-13T10:21:49.000Z</time>
      </trkpt>
      <trkpt lat="44.22802" lon="2.96527">
        <ele>797</ele>
        <time>2019-10-13T10:21:50.000Z</time>
      </trkpt>
      <trkpt lat="44.22803" lon="2.96526">
        <ele>797</ele>
        <time>2019-10-13T10:21:51.000Z</time>
      </trkpt>
      <trkpt lat="44.22804" lon="2.96525">
        <ele>797</ele>
        <time>2019-10-13T10:21:52.000Z</time>
      </trkpt>
      <trkpt lat="44.22805" lon="2.96524">
        <ele>797</ele>
        <time>2019-10-13T10:21:53.000Z</time>
      </trkpt>
      <trkpt lat="44.22807" lon="2.96523">
        <ele>797</ele>
        <time>2019-10-13T10:21:54.000Z</time>
      </trkpt>
      <trkpt lat="44.22808" lon="2.96522">
        <ele>798</ele>
        <time>2019-10-13T10:21:55.000Z</time>
      </trkpt>
      <trkpt lat="44.22809" lon="2.96521">
        <ele>798</ele>
        <time>2019-10-13T10:21:56.000Z</time>
      </trkpt>
      <trkpt lat="44.2281" lon="2.96519">
        <ele>798</ele>
        <time>2019-10-13T10:21:57.000Z</time>
      </trkpt>
      <trkpt lat="44.22811" lon="2.96518">
        <ele>798</ele>
        <time>2019-10-13T10:21:58.000Z</time>
      </trkpt>
      <trkpt lat="44.22811" lon="2.96517">
        <ele>798</ele>
        <time>2019-10-13T10:21:59.000Z</time>
      </trkpt>
      <trkpt lat="44.22812" lon="2.96515">
        <ele>798</ele>
        <time>2019-10-13T10:22:00.000Z</time>
      </trkpt>
      <trkpt lat="44.22813" lon="2.96514">
        <ele>798</ele>
        <time>2019-10-13T10:22:01.000Z</time>
      </trkpt>
      <trkpt lat="44.22814" lon="2.96513">
        <ele>798</ele>
        <time>2019-10-13T10:22:02.000Z</time>
      </trkpt>
      <trkpt lat="44.22815" lon="2.96512">
        <ele>798</ele>
        <time>2019-10-13T10:22:03.000Z</time>
      </trkpt>
      <trkpt lat="44.22815" lon="2.96512">
        <ele>799</ele>
        <time>2019-10-13T10:22:04.000Z</time>
      </trkpt>
      <trkpt lat="44.22816" lon="2.96511">
        <ele>799</ele>
        <time>2019-10-13T10:22:05.000Z</time>
      </trkpt>
      <trkpt lat="44.22817" lon="2.9651">
        <ele>799</ele>
        <time>2019-10-13T10:22:06.000Z</time>
      </trkpt>
      <trkpt lat="44.22817" lon="2.9651">
        <ele>799</ele>
        <time>2019-10-13T10:22:07.000Z</time>
      </trkpt>
      <trkpt lat="44.22817" lon="2.96509">
        <ele>799</ele>
        <time>2019-10-13T10:22:08.000Z</time>
      </trkpt>
      <trkpt lat="44.22817" lon="2.96509">
        <ele>799</ele>
        <time>2019-10-13T10:22:09.000Z</time>
      </trkpt>
      <trkpt lat="44.22818" lon="2.96509">
        <ele>799</ele>
        <time>2019-10-13T10:22:10.000Z</time>
      </trkpt>
      <trkpt lat="44.22818" lon="2.96509">
        <ele>799</ele>
        <time>2019-10-13T10:22:11.000Z</time>
      </trkpt>
      <trkpt lat="44.22818" lon="2.96509">
        <ele>799</ele>
        <time>2019-10-13T10:22:12.000Z</time>
      </trkpt>
      <trkpt lat="44.22818" lon="2.96509">
        <ele>799</ele>
        <time>2019-10-13T10:22:13.000Z</time>
      </trkpt>
      <trkpt lat="44.22818" lon="2.96509">
        <ele>799</ele>
        <time>2019-10-13T10:22:14.000Z</time>
      </trkpt>
      <trkpt lat="44.22818" lon="2.96509">
        <ele>799</ele>
        <time>2019-10-13T10:22:15.000Z</time>
      </trkpt>
      <trkpt lat="44.22818" lon="2.96508">
        <ele>799</ele>
        <time>2019-10-13T10:22:16.000Z</time>
      </trkpt>
      <trkpt lat="44.22819" lon="2.96508">
        <ele>800</ele>
        <time>2019-10-13T10:22:17.000Z</time>
      </trkpt>
      <trkpt lat="44.2282" lon="2.96508">
        <ele>800</ele>
        <time>2019-10-13T10:22:18.000Z</time>
      </trkpt>
      <trkpt lat="44.22821" lon="2.96507">
        <ele>800</ele>
        <time>2019-10-13T10:22:19.000Z</time>
      </trkpt>
      <trkpt lat="44.22822" lon="2.96506">
        <ele>800</ele>
        <time>2019-10-13T10:22:20.000Z</time>
      </trkpt>
      <trkpt lat="44.22823" lon="2.96505">
        <ele>800</ele>
        <time>2019-10-13T10:22:21.000Z</time>
      </trkpt>
      <trkpt lat="44.22824" lon="2.96503">
        <ele>800</ele>
        <time>2019-10-13T10:22:22.000Z</time>
      </trkpt>
      <trkpt lat="44.22824" lon="2.96501">
        <ele>800</ele>
        <time>2019-10-13T10:22:23.000Z</time>
      </trkpt>
      <trkpt lat="44.22824" lon="2.96499">
        <ele>800</ele>
        <time>2019-10-13T10:22:24.000Z</time>
      </trkpt>
      <trkpt lat="44.22824" lon="2.96498">
        <ele>801</ele>
        <time>2019-10-13T10:22:25.000Z</time>
      </trkpt>
      <trkpt lat="44.22824" lon="2.96496">
        <ele>801</ele>
        <time>2019-10-13T10:22:26.000Z</time>
      </trkpt>
      <trkpt lat="44.22823" lon="2.96495">
        <ele>801</ele>
        <time>2019-10-13T10:22:27.000Z</time>
      </trkpt>
      <trkpt lat="44.22823" lon="2.96494">
        <ele>801</ele>
        <time>2019-10-13T10:22:28.000Z</time>
      </trkpt>
      <trkpt lat="44.22822" lon="2.96493">
        <ele>801</ele>
        <time>2019-10-13T10:22:29.000Z</time>
      </trkpt>
      <trkpt lat="44.22822" lon="2.96491">
        <ele>801</ele>
        <time>2019-10-13T10:22:30.000Z</time>
      </trkpt>
      <trkpt lat="44.22821" lon="2.9649">
        <ele>802</ele>
        <time>2019-10-13T10:22:31.000Z</time>
      </trkpt>
      <trkpt lat="44.2282" lon="2.96488">
        <ele>802</ele>
        <time>2019-10-13T10:22:32.000Z</time>
      </trkpt>
      <trkpt lat="44.22819" lon="2.96487">
        <ele>802</ele>
        <time>2019-10-13T10:22:33.000Z</time>
      </trkpt>
      <trkpt lat="44.22819" lon="2.96485">
        <ele>802</ele>
        <time>2019-10-13T10:22:34.000Z</time>
      </trkpt>
      <trkpt lat="44.22817" lon="2.96484">
        <ele>802</ele>
        <time>2019-10-13T10:22:35.000Z</time>
      </trkpt>
      <trkpt lat="44.22816" lon="2.96483">
        <ele>802</ele>
        <time>2019-10-13T10:22:36.000Z</time>
      </trkpt>
      <trkpt lat="44.22815" lon="2.96482">
        <ele>803</ele>
        <time>2019-10-13T10:22:37.000Z</time>
      </trkpt>
      <trkpt lat="44.22814" lon="2.9648">
        <ele>803</ele>
        <time>2019-10-13T10:22:38.000Z</time>
      </trkpt>
      <trkpt lat="44.22813" lon="2.96479">
        <ele>803</ele>
        <time>2019-10-13T10:22:39.000Z</time>
      </trkpt>
      <trkpt lat="44.22812" lon="2.96478">
        <ele>803</ele>
        <time>2019-10-13T10:22:40.000Z</time>
      </trkpt>
      <trkpt lat="44.22811" lon="2.96478">
        <ele>803</ele>
        <time>2019-10-13T10:22:41.000Z</time>
      </trkpt>
      <trkpt lat="44.22809" lon="2.96477">
        <ele>804</ele>
        <time>2019-10-13T10:22:42.000Z</time>
      </trkpt>
      <trkpt lat="44.22808" lon="2.96476">
        <ele>804</ele>
        <time>2019-10-13T10:22:43.000Z</time>
      </trkpt>
      <trkpt lat="44.22807" lon="2.96475">
        <ele>804</ele>
        <time>2019-10-13T10:22:44.000Z</time>
      </trkpt>
      <trkpt lat="44.22806" lon="2.96475">
        <ele>804</ele>
        <time>2019-10-13T10:22:45.000Z</time>
      </trkpt>
      <trkpt lat="44.22804" lon="2.96474">
        <ele>805</ele>
        <time>2019-10-13T10:22:46.000Z</time>
      </trkpt>
      <trkpt lat="44.22802" lon="2.96473">
        <ele>805</ele>
        <time>2019-10-13T10:22:47.000Z</time>
      </trkpt>
      <trkpt lat="44.22801" lon="2.96472">
        <ele>805</ele>
        <time>2019-10-13T10:22:48.000Z</time>
      </trkpt>
      <trkpt lat="44.228" lon="2.96472">
        <ele>805</ele>
        <time>2019-10-13T10:22:49.000Z</time>
      </trkpt>
      <trkpt lat="44.22798" lon="2.96471">
        <ele>805</ele>
        <time>2019-10-13T10:22:50.000Z</time>
      </trkpt>
      <trkpt lat="44.22797" lon="2.9647">
        <ele>806</ele>
        <time>2019-10-13T10:22:51.000Z</time>
      </trkpt>
      <trkpt lat="44.22796" lon="2.9647">
        <ele>806</ele>
        <time>2019-10-13T10:22:52.000Z</time>
      </trkpt>
      <trkpt lat="44.22795" lon="2.96469">
        <ele>806</ele>
        <time>2019-10-13T10:22:53.000Z</time>
      </trkpt>
      <trkpt lat="44.22795" lon="2.96469">
        <ele>807</ele>
        <time>2019-10-13T10:22:54.000Z</time>
      </trkpt>
      <trkpt lat="44.22794" lon="2.96469">
        <ele>807</ele>
        <time>2019-10-13T10:22:55.000Z</time>
      </trkpt>
      <trkpt lat="44.22793" lon="2.96468">
        <ele>807</ele>
        <time>2019-10-13T10:22:56.000Z</time>
      </trkpt>
      <trkpt lat="44.22791" lon="2.96468">
        <ele>807</ele>
        <time>2019-10-13T10:22:57.000Z</time>
      </trkpt>
      <trkpt lat="44.2279" lon="2.96467">
        <ele>807</ele>
        <time>2019-10-13T10:22:58.000Z</time>
      </trkpt>
      <trkpt lat="44.22789" lon="2.96466">
        <ele>808</ele>
        <time>2019-10-13T10:22:59.000Z</time>
      </trkpt>
      <trkpt lat="44.22787" lon="2.96465">
        <ele>808</ele>
        <time>2019-10-13T10:23:00.000Z</time>
      </trkpt>
      <trkpt lat="44.22786" lon="2.96464">
        <ele>808</ele>
        <time>2019-10-13T10:23:01.000Z</time>
      </trkpt>
      <trkpt lat="44.22784" lon="2.96463">
        <ele>808</ele>
        <time>2019-10-13T10:23:02.000Z</time>
      </trkpt>
      <trkpt lat="44.22783" lon="2.96463">
        <ele>809</ele>
        <time>2019-10-13T10:23:03.000Z</time>
      </trkpt>
      <trkpt lat="44.22781" lon="2.96462">
        <ele>809</ele>
        <time>2019-10-13T10:23:04.000Z</time>
      </trkpt>
      <trkpt lat="44.2278" lon="2.96462">
        <ele>809</ele>
        <time>2019-10-13T10:23:05.000Z</time>
      </trkpt>
      <trkpt lat="44.22779" lon="2.96461">
        <ele>809</ele>
        <time>2019-10-13T10:23:06.000Z</time>
      </trkpt>
      <trkpt lat="44.22777" lon="2.96461">
        <ele>809</ele>
        <time>2019-10-13T10:23:07.000Z</time>
      </trkpt>
      <trkpt lat="44.22776" lon="2.9646">
        <ele>810</ele>
        <time>2019-10-13T10:23:08.000Z</time>
      </trkpt>
      <trkpt lat="44.22775" lon="2.9646">
        <ele>810</ele>
        <time>2019-10-13T10:23:09.000Z</time>
      </trkpt>
      <trkpt lat="44.22774" lon="2.96459">
        <ele>810</ele>
        <time>2019-10-13T10:23:10.000Z</time>
      </trkpt>
      <trkpt lat="44.22772" lon="2.96458">
        <ele>810</ele>
        <time>2019-10-13T10:23:11.000Z</time>
      </trkpt>
      <trkpt lat="44.22771" lon="2.96457">
        <ele>811</ele>
        <time>2019-10-13T10:23:12.000Z</time>
      </trkpt>
      <trkpt lat="44.2277" lon="2.96457">
        <ele>811</ele>
        <time>2019-10-13T10:23:13.000Z</time>
      </trkpt>
      <trkpt lat="44.22768" lon="2.96456">
        <ele>811</ele>
        <time>2019-10-13T10:23:14.000Z</time>
      </trkpt>
      <trkpt lat="44.22767" lon="2.96455">
        <ele>811</ele>
        <time>2019-10-13T10:23:15.000Z</time>
      </trkpt>
      <trkpt lat="44.22766" lon="2.96454">
        <ele>811</ele>
        <time>2019-10-13T10:23:16.000Z</time>
      </trkpt>
      <trkpt lat="44.22765" lon="2.96454">
        <ele>812</ele>
        <time>2019-10-13T10:23:17.000Z</time>
      </trkpt>
      <trkpt lat="44.22764" lon="2.96453">
        <ele>812</ele>
        <time>2019-10-13T10:23:18.000Z</time>
      </trkpt>
      <trkpt lat="44.22762" lon="2.96453">
        <ele>812</ele>
        <time>2019-10-13T10:23:19.000Z</time>
      </trkpt>
      <trkpt lat="44.22761" lon="2.96452">
        <ele>812</ele>
        <time>2019-10-13T10:23:20.000Z</time>
      </trkpt>
      <trkpt lat="44.22759" lon="2.96452">
        <ele>812</ele>
        <time>2019-10-13T10:23:21.000Z</time>
      </trkpt>
      <trkpt lat="44.22758" lon="2.96452">
        <ele>812</ele>
        <time>2019-10-13T10:23:22.000Z</time>
      </trkpt>
      <trkpt lat="44.22757" lon="2.96451">
        <ele>812</ele>
        <time>2019-10-13T10:23:23.000Z</time>
      </trkpt>
      <trkpt lat="44.22755" lon="2.96451">
        <ele>813</ele>
        <time>2019-10-13T10:23:24.000Z</time>
      </trkpt>
      <trkpt lat="44.22754" lon="2.96451">
        <ele>813</ele>
        <time>2019-10-13T10:23:25.000Z</time>
      </trkpt>
      <trkpt lat="44.22752" lon="2.9645">
        <ele>813</ele>
        <time>2019-10-13T10:23:26.000Z</time>
      </trkpt>
      <trkpt lat="44.22751" lon="2.9645">
        <ele>813</ele>
        <time>2019-10-13T10:23:27.000Z</time>
      </trkpt>
      <trkpt lat="44.2275" lon="2.9645">
        <ele>813</ele>
        <time>2019-10-13T10:23:28.000Z</time>
      </trkpt>
      <trkpt lat="44.22748" lon="2.96451">
        <ele>813</ele>
        <time>2019-10-13T10:23:29.000Z</time>
      </trkpt>
      <trkpt lat="44.22746" lon="2.96451">
        <ele>813</ele>
        <time>2019-10-13T10:23:30.000Z</time>
      </trkpt>
      <trkpt lat="44.22745" lon="2.96451">
        <ele>814</ele>
        <time>2019-10-13T10:23:31.000Z</time>
      </trkpt>
      <trkpt lat="44.22743" lon="2.96451">
        <ele>814</ele>
        <time>2019-10-13T10:23:32.000Z</time>
      </trkpt>
      <trkpt lat="44.22742" lon="2.96451">
        <ele>814</ele>
        <time>2019-10-13T10:23:33.000Z</time>
      </trkpt>
      <trkpt lat="44.2274" lon="2.96451">
        <ele>814</ele>
        <time>2019-10-13T10:23:34.000Z</time>
      </trkpt>
      <trkpt lat="44.22738" lon="2.96451">
        <ele>814</ele>
        <time>2019-10-13T10:23:35.000Z</time>
      </trkpt>
      <trkpt lat="44.22737" lon="2.96452">
        <ele>814</ele>
        <time>2019-10-13T10:23:36.000Z</time>
      </trkpt>
      <trkpt lat="44.22735" lon="2.96452">
        <ele>814</ele>
        <time>2019-10-13T10:23:37.000Z</time>
      </trkpt>
      <trkpt lat="44.22733" lon="2.96452">
        <ele>814</ele>
        <time>2019-10-13T10:23:38.000Z</time>
      </trkpt>
      <trkpt lat="44.22732" lon="2.96452">
        <ele>815</ele>
        <time>2019-10-13T10:23:39.000Z</time>
      </trkpt>
      <trkpt lat="44.2273" lon="2.96453">
        <ele>815</ele>
        <time>2019-10-13T10:23:40.000Z</time>
      </trkpt>
      <trkpt lat="44.22729" lon="2.96453">
        <ele>815</ele>
        <time>2019-10-13T10:23:41.000Z</time>
      </trkpt>
      <trkpt lat="44.22727" lon="2.96453">
        <ele>815</ele>
        <time>2019-10-13T10:23:42.000Z</time>
      </trkpt>
      <trkpt lat="44.22726" lon="2.96453">
        <ele>815</ele>
        <time>2019-10-13T10:23:43.000Z</time>
      </trkpt>
      <trkpt lat="44.22724" lon="2.96454">
        <ele>815</ele>
        <time>2019-10-13T10:23:44.000Z</time>
      </trkpt>
      <trkpt lat="44.22723" lon="2.96454">
        <ele>815</ele>
        <time>2019-10-13T10:23:45.000Z</time>
      </trkpt>
      <trkpt lat="44.22722" lon="2.96454">
        <ele>816</ele>
        <time>2019-10-13T10:23:46.000Z</time>
      </trkpt>
      <trkpt lat="44.2272" lon="2.96454">
        <ele>816</ele>
        <time>2019-10-13T10:23:47.000Z</time>
      </trkpt>
      <trkpt lat="44.22719" lon="2.96453">
        <ele>816</ele>
        <time>2019-10-13T10:23:48.000Z</time>
      </trkpt>
      <trkpt lat="44.22718" lon="2.96453">
        <ele>816</ele>
        <time>2019-10-13T10:23:49.000Z</time>
      </trkpt>
      <trkpt lat="44.22716" lon="2.96452">
        <ele>816</ele>
        <time>2019-10-13T10:23:50.000Z</time>
      </trkpt>
      <trkpt lat="44.22715" lon="2.96452">
        <ele>817</ele>
        <time>2019-10-13T10:23:51.000Z</time>
      </trkpt>
      <trkpt lat="44.22713" lon="2.96451">
        <ele>817</ele>
        <time>2019-10-13T10:23:52.000Z</time>
      </trkpt>
      <trkpt lat="44.22712" lon="2.96451">
        <ele>817</ele>
        <time>2019-10-13T10:23:53.000Z</time>
      </trkpt>
      <trkpt lat="44.2271" lon="2.96451">
        <ele>817</ele>
        <time>2019-10-13T10:23:54.000Z</time>
      </trkpt>
      <trkpt lat="44.22709" lon="2.96451">
        <ele>818</ele>
        <time>2019-10-13T10:23:55.000Z</time>
      </trkpt>
      <trkpt lat="44.22707" lon="2.96451">
        <ele>818</ele>
        <time>2019-10-13T10:23:56.000Z</time>
      </trkpt>
      <trkpt lat="44.22706" lon="2.96451">
        <ele>818</ele>
        <time>2019-10-13T10:23:57.000Z</time>
      </trkpt>
      <trkpt lat="44.22705" lon="2.9645">
        <ele>818</ele>
        <time>2019-10-13T10:23:58.000Z</time>
      </trkpt>
      <trkpt lat="44.22704" lon="2.96449">
        <ele>818</ele>
        <time>2019-10-13T10:23:59.000Z</time>
      </trkpt>
      <trkpt lat="44.22703" lon="2.96449">
        <ele>819</ele>
        <time>2019-10-13T10:24:00.000Z</time>
      </trkpt>
      <trkpt lat="44.22702" lon="2.96448">
        <ele>819</ele>
        <time>2019-10-13T10:24:01.000Z</time>
      </trkpt>
      <trkpt lat="44.22701" lon="2.96447">
        <ele>819</ele>
        <time>2019-10-13T10:24:02.000Z</time>
      </trkpt>
      <trkpt lat="44.227" lon="2.96446">
        <ele>819</ele>
        <time>2019-10-13T10:24:03.000Z</time>
      </trkpt>
      <trkpt lat="44.22699" lon="2.96446">
        <ele>819</ele>
        <time>2019-10-13T10:24:04.000Z</time>
      </trkpt>
      <trkpt lat="44.22698" lon="2.96445">
        <ele>819</ele>
        <time>2019-10-13T10:24:05.000Z</time>
      </trkpt>
      <trkpt lat="44.22696" lon="2.96444">
        <ele>820</ele>
        <time>2019-10-13T10:24:06.000Z</time>
      </trkpt>
      <trkpt lat="44.22695" lon="2.96444">
        <ele>820</ele>
        <time>2019-10-13T10:24:07.000Z</time>
      </trkpt>
      <trkpt lat="44.22694" lon="2.96444">
        <ele>820</ele>
        <time>2019-10-13T10:24:08.000Z</time>
      </trkpt>
      <trkpt lat="44.22693" lon="2.96443">
        <ele>820</ele>
        <time>2019-10-13T10:24:09.000Z</time>
      </trkpt>
      <trkpt lat="44.22691" lon="2.96443">
        <ele>820</ele>
        <time>2019-10-13T10:24:10.000Z</time>
      </trkpt>
      <trkpt lat="44.2269" lon="2.96443">
        <ele>821</ele>
        <time>2019-10-13T10:24:11.000Z</time>
      </trkpt>
      <trkpt lat="44.22689" lon="2.96443">
        <ele>821</ele>
        <time>2019-10-13T10:24:12.000Z</time>
      </trkpt>
      <trkpt lat="44.22688" lon="2.96442">
        <ele>821</ele>
        <time>2019-10-13T10:24:13.000Z</time>
      </trkpt>
      <trkpt lat="44.22687" lon="2.96442">
        <ele>821</ele>
        <time>2019-10-13T10:24:14.000Z</time>
      </trkpt>
      <trkpt lat="44.22685" lon="2.96442">
        <ele>821</ele>
        <time>2019-10-13T10:24:15.000Z</time>
      </trkpt>
      <trkpt lat="44.22684" lon="2.96443">
        <ele>822</ele>
        <time>2019-10-13T10:24:16.000Z</time>
      </trkpt>
      <trkpt lat="44.22682" lon="2.96444">
        <ele>822</ele>
        <time>2019-10-13T10:24:17.000Z</time>
      </trkpt>
      <trkpt lat="44.22681" lon="2.96444">
        <ele>822</ele>
        <time>2019-10-13T10:24:18.000Z</time>
      </trkpt>
      <trkpt lat="44.2268" lon="2.96444">
        <ele>822</ele>
        <time>2019-10-13T10:24:19.000Z</time>
      </trkpt>
      <trkpt lat="44.22678" lon="2.96445">
        <ele>822</ele>
        <time>2019-10-13T10:24:20.000Z</time>
      </trkpt>
      <trkpt lat="44.22677" lon="2.96445">
        <ele>822</ele>
        <time>2019-10-13T10:24:21.000Z</time>
      </trkpt>
      <trkpt lat="44.22676" lon="2.96446">
        <ele>823</ele>
        <time>2019-10-13T10:24:22.000Z</time>
      </trkpt>
      <trkpt lat="44.22675" lon="2.96447">
        <ele>823</ele>
        <time>2019-10-13T10:24:23.000Z</time>
      </trkpt>
      <trkpt lat="44.22674" lon="2.96447">
        <ele>823</ele>
        <time>2019-10-13T10:24:24.000Z</time>
      </trkpt>
      <trkpt lat="44.22673" lon="2.96447">
        <ele>823</ele>
        <time>2019-10-13T10:24:25.000Z</time>
      </trkpt>
      <trkpt lat="44.22672" lon="2.96447">
        <ele>823</ele>
        <time>2019-10-13T10:24:26.000Z</time>
      </trkpt>
      <trkpt lat="44.22671" lon="2.96448">
        <ele>823</ele>
        <time>2019-10-13T10:24:27.000Z</time>
      </trkpt>
      <trkpt lat="44.2267" lon="2.96448">
        <ele>823</ele>
        <time>2019-10-13T10:24:28.000Z</time>
      </trkpt>
      <trkpt lat="44.22669" lon="2.96448">
        <ele>823</ele>
        <time>2019-10-13T10:24:29.000Z</time>
      </trkpt>
      <trkpt lat="44.22667" lon="2.96448">
        <ele>824</ele>
        <time>2019-10-13T10:24:30.000Z</time>
      </trkpt>
      <trkpt lat="44.22666" lon="2.96448">
        <ele>824</ele>
        <time>2019-10-13T10:24:31.000Z</time>
      </trkpt>
      <trkpt lat="44.22664" lon="2.96448">
        <ele>824</ele>
        <time>2019-10-13T10:24:32.000Z</time>
      </trkpt>
      <trkpt lat="44.22663" lon="2.96447">
        <ele>824</ele>
        <time>2019-10-13T10:24:33.000Z</time>
      </trkpt>
      <trkpt lat="44.22662" lon="2.96447">
        <ele>824</ele>
        <time>2019-10-13T10:24:34.000Z</time>
      </trkpt>
      <trkpt lat="44.22661" lon="2.96446">
        <ele>824</ele>
        <time>2019-10-13T10:24:35.000Z</time>
      </trkpt>
      <trkpt lat="44.2266" lon="2.96445">
        <ele>824</ele>
        <time>2019-10-13T10:24:36.000Z</time>
      </trkpt>
      <trkpt lat="44.22659" lon="2.96445">
        <ele>825</ele>
        <time>2019-10-13T10:24:37.000Z</time>
      </trkpt>
      <trkpt lat="44.22658" lon="2.96444">
        <ele>825</ele>
        <time>2019-10-13T10:24:38.000Z</time>
      </trkpt>
      <trkpt lat="44.22657" lon="2.96443">
        <ele>825</ele>
        <time>2019-10-13T10:24:39.000Z</time>
      </trkpt>
      <trkpt lat="44.22656" lon="2.96442">
        <ele>825</ele>
        <time>2019-10-13T10:24:40.000Z</time>
      </trkpt>
      <trkpt lat="44.22655" lon="2.96441">
        <ele>825</ele>
        <time>2019-10-13T10:24:41.000Z</time>
      </trkpt>
      <trkpt lat="44.22654" lon="2.9644">
        <ele>825</ele>
        <time>2019-10-13T10:24:42.000Z</time>
      </trkpt>
      <trkpt lat="44.22653" lon="2.96439">
        <ele>826</ele>
        <time>2019-10-13T10:24:43.000Z</time>
      </trkpt>
      <trkpt lat="44.22652" lon="2.96438">
        <ele>826</ele>
        <time>2019-10-13T10:24:44.000Z</time>
      </trkpt>
      <trkpt lat="44.22651" lon="2.96437">
        <ele>826</ele>
        <time>2019-10-13T10:24:45.000Z</time>
      </trkpt>
      <trkpt lat="44.2265" lon="2.96435">
        <ele>826</ele>
        <time>2019-10-13T10:24:46.000Z</time>
      </trkpt>
      <trkpt lat="44.22649" lon="2.96433">
        <ele>827</ele>
        <time>2019-10-13T10:24:47.000Z</time>
      </trkpt>
      <trkpt lat="44.22648" lon="2.96432">
        <ele>827</ele>
        <time>2019-10-13T10:24:48.000Z</time>
      </trkpt>
      <trkpt lat="44.22646" lon="2.9643">
        <ele>827</ele>
        <time>2019-10-13T10:24:49.000Z</time>
      </trkpt>
      <trkpt lat="44.22645" lon="2.96429">
        <ele>828</ele>
        <time>2019-10-13T10:24:50.000Z</time>
      </trkpt>
      <trkpt lat="44.22644" lon="2.96427">
        <ele>828</ele>
        <time>2019-10-13T10:24:51.000Z</time>
      </trkpt>
      <trkpt lat="44.22642" lon="2.96427">
        <ele>828</ele>
        <time>2019-10-13T10:24:52.000Z</time>
      </trkpt>
      <trkpt lat="44.22641" lon="2.96425">
        <ele>828</ele>
        <time>2019-10-13T10:24:53.000Z</time>
      </trkpt>
      <trkpt lat="44.2264" lon="2.96424">
        <ele>829</ele>
        <time>2019-10-13T10:24:54.000Z</time>
      </trkpt>
      <trkpt lat="44.22639" lon="2.96423">
        <ele>829</ele>
        <time>2019-10-13T10:24:55.000Z</time>
      </trkpt>
      <trkpt lat="44.22638" lon="2.96422">
        <ele>829</ele>
        <time>2019-10-13T10:24:56.000Z</time>
      </trkpt>
      <trkpt lat="44.22637" lon="2.9642">
        <ele>830</ele>
        <time>2019-10-13T10:24:57.000Z</time>
      </trkpt>
      <trkpt lat="44.22636" lon="2.96418">
        <ele>830</ele>
        <time>2019-10-13T10:24:58.000Z</time>
      </trkpt>
      <trkpt lat="44.22635" lon="2.96417">
        <ele>830</ele>
        <time>2019-10-13T10:24:59.000Z</time>
      </trkpt>
      <trkpt lat="44.22634" lon="2.96415">
        <ele>830</ele>
        <time>2019-10-13T10:25:00.000Z</time>
      </trkpt>
      <trkpt lat="44.22633" lon="2.96414">
        <ele>830</ele>
        <time>2019-10-13T10:25:01.000Z</time>
      </trkpt>
      <trkpt lat="44.22632" lon="2.96412">
        <ele>831</ele>
        <time>2019-10-13T10:25:02.000Z</time>
      </trkpt>
      <trkpt lat="44.22631" lon="2.96412">
        <ele>831</ele>
        <time>2019-10-13T10:25:03.000Z</time>
      </trkpt>
      <trkpt lat="44.2263" lon="2.96411">
        <ele>831</ele>
        <time>2019-10-13T10:25:04.000Z</time>
      </trkpt>
      <trkpt lat="44.22629" lon="2.9641">
        <ele>831</ele>
        <time>2019-10-13T10:25:05.000Z</time>
      </trkpt>
      <trkpt lat="44.22628" lon="2.96409">
        <ele>831</ele>
        <time>2019-10-13T10:25:06.000Z</time>
      </trkpt>
      <trkpt lat="44.22627" lon="2.96408">
        <ele>831</ele>
        <time>2019-10-13T10:25:07.000Z</time>
      </trkpt>
      <trkpt lat="44.22625" lon="2.96407">
        <ele>831</ele>
        <time>2019-10-13T10:25:08.000Z</time>
      </trkpt>
      <trkpt lat="44.22624" lon="2.96406">
        <ele>831</ele>
        <time>2019-10-13T10:25:09.000Z</time>
      </trkpt>
      <trkpt lat="44.22623" lon="2.96405">
        <ele>831</ele>
        <time>2019-10-13T10:25:10.000Z</time>
      </trkpt>
      <trkpt lat="44.22622" lon="2.96404">
        <ele>831</ele>
        <time>2019-10-13T10:25:11.000Z</time>
      </trkpt>
      <trkpt lat="44.2262" lon="2.96403">
        <ele>831</ele>
        <time>2019-10-13T10:25:12.000Z</time>
      </trkpt>
      <trkpt lat="44.22619" lon="2.96402">
        <ele>832</ele>
        <time>2019-10-13T10:25:13.000Z</time>
      </trkpt>
      <trkpt lat="44.22617" lon="2.964">
        <ele>832</ele>
        <time>2019-10-13T10:25:14.000Z</time>
      </trkpt>
      <trkpt lat="44.22616" lon="2.96399">
        <ele>832</ele>
        <time>2019-10-13T10:25:15.000Z</time>
      </trkpt>
      <trkpt lat="44.22615" lon="2.96398">
        <ele>832</ele>
        <time>2019-10-13T10:25:16.000Z</time>
      </trkpt>
      <trkpt lat="44.22614" lon="2.96397">
        <ele>832</ele>
        <time>2019-10-13T10:25:17.000Z</time>
      </trkpt>
      <trkpt lat="44.22612" lon="2.96395">
        <ele>832</ele>
        <time>2019-10-13T10:25:18.000Z</time>
      </trkpt>
      <trkpt lat="44.22611" lon="2.96394">
        <ele>832</ele>
        <time>2019-10-13T10:25:19.000Z</time>
      </trkpt>
      <trkpt lat="44.22609" lon="2.96393">
        <ele>832</ele>
        <time>2019-10-13T10:25:20.000Z</time>
      </trkpt>
      <trkpt lat="44.22608" lon="2.96391">
        <ele>831</ele>
        <time>2019-10-13T10:25:21.000Z</time>
      </trkpt>
      <trkpt lat="44.22607" lon="2.9639">
        <ele>831</ele>
        <time>2019-10-13T10:25:22.000Z</time>
      </trkpt>
      <trkpt lat="44.22606" lon="2.96388">
        <ele>831</ele>
        <time>2019-10-13T10:25:23.000Z</time>
      </trkpt>
      <trkpt lat="44.22605" lon="2.96387">
        <ele>831</ele>
        <time>2019-10-13T10:25:24.000Z</time>
      </trkpt>
      <trkpt lat="44.22603" lon="2.96385">
        <ele>831</ele>
        <time>2019-10-13T10:25:25.000Z</time>
      </trkpt>
      <trkpt lat="44.22602" lon="2.96384">
        <ele>831</ele>
        <time>2019-10-13T10:25:26.000Z</time>
      </trkpt>
      <trkpt lat="44.22601" lon="2.96383">
        <ele>831</ele>
        <time>2019-10-13T10:25:27.000Z</time>
      </trkpt>
      <trkpt lat="44.226" lon="2.96382">
        <ele>831</ele>
        <time>2019-10-13T10:25:28.000Z</time>
      </trkpt>
      <trkpt lat="44.226" lon="2.96382">
        <ele>831</ele>
        <time>2019-10-13T10:25:29.000Z</time>
      </trkpt>
      <trkpt lat="44.22599" lon="2.96381">
        <ele>831</ele>
        <time>2019-10-13T10:25:30.000Z</time>
      </trkpt>
      <trkpt lat="44.22598" lon="2.96379">
        <ele>831</ele>
        <time>2019-10-13T10:25:31.000Z</time>
      </trkpt>
      <trkpt lat="44.22597" lon="2.96378">
        <ele>831</ele>
        <time>2019-10-13T10:25:32.000Z</time>
      </trkpt>
      <trkpt lat="44.22596" lon="2.96377">
        <ele>831</ele>
        <time>2019-10-13T10:25:33.000Z</time>
      </trkpt>
      <trkpt lat="44.22595" lon="2.96376">
        <ele>832</ele>
        <time>2019-10-13T10:25:34.000Z</time>
      </trkpt>
      <trkpt lat="44.22594" lon="2.96375">
        <ele>832</ele>
        <time>2019-10-13T10:25:35.000Z</time>
      </trkpt>
      <trkpt lat="44.22593" lon="2.96374">
        <ele>832</ele>
        <time>2019-10-13T10:25:36.000Z</time>
      </trkpt>
      <trkpt lat="44.22593" lon="2.96373">
        <ele>832</ele>
        <time>2019-10-13T10:25:37.000Z</time>
      </trkpt>
      <trkpt lat="44.22593" lon="2.96373">
        <ele>832</ele>
        <time>2019-10-13T10:25:38.000Z</time>
      </trkpt>
      <trkpt lat="44.22593" lon="2.96373">
        <ele>832</ele>
        <time>2019-10-13T10:25:39.000Z</time>
      </trkpt>
      <trkpt lat="44.22593" lon="2.96373">
        <ele>833</ele>
        <time>2019-10-13T10:25:40.000Z</time>
      </trkpt>
      <trkpt lat="44.22593" lon="2.96373">
        <ele>833</ele>
        <time>2019-10-13T10:25:41.000Z</time>
      </trkpt>
      <trkpt lat="44.22593" lon="2.96373">
        <ele>833</ele>
        <time>2019-10-13T10:25:42.000Z</time>
      </trkpt>
      <trkpt lat="44.22593" lon="2.96373">
        <ele>833</ele>
        <time>2019-10-13T10:25:43.000Z</time>
      </trkpt>
      <trkpt lat="44.22592" lon="2.96373">
        <ele>833</ele>
        <time>2019-10-13T10:25:44.000Z</time>
      </trkpt>
      <trkpt lat="44.22592" lon="2.96372">
        <ele>833</ele>
        <time>2019-10-13T10:25:45.000Z</time>
      </trkpt>
      <trkpt lat="44.22592" lon="2.96372">
        <ele>834</ele>
        <time>2019-10-13T10:25:46.000Z</time>
      </trkpt>
      <trkpt lat="44.22592" lon="2.96372">
        <ele>834</ele>
        <time>2019-10-13T10:25:47.000Z</time>
      </trkpt>
      <trkpt lat="44.22592" lon="2.96372">
        <ele>834</ele>
        <time>2019-10-13T10:25:48.000Z</time>
      </trkpt>
      <trkpt lat="44.22592" lon="2.96372">
        <ele>834</ele>
        <time>2019-10-13T10:25:49.000Z</time>
      </trkpt>
      <trkpt lat="44.22591" lon="2.96372">
        <ele>834</ele>
        <time>2019-10-13T10:25:50.000Z</time>
      </trkpt>
      <trkpt lat="44.22591" lon="2.96372">
        <ele>834</ele>
        <time>2019-10-13T10:25:51.000Z</time>
      </trkpt>
      <trkpt lat="44.2259" lon="2.96371">
        <ele>834</ele>
        <time>2019-10-13T10:25:52.000Z</time>
      </trkpt>
      <trkpt lat="44.2259" lon="2.96371">
        <ele>835</ele>
        <time>2019-10-13T10:25:53.000Z</time>
      </trkpt>
      <trkpt lat="44.22589" lon="2.9637">
        <ele>835</ele>
        <time>2019-10-13T10:25:54.000Z</time>
      </trkpt>
      <trkpt lat="44.22589" lon="2.96369">
        <ele>835</ele>
        <time>2019-10-13T10:25:55.000Z</time>
      </trkpt>
      <trkpt lat="44.22589" lon="2.96368">
        <ele>835</ele>
        <time>2019-10-13T10:25:56.000Z</time>
      </trkpt>
      <trkpt lat="44.22588" lon="2.96368">
        <ele>835</ele>
        <time>2019-10-13T10:25:57.000Z</time>
      </trkpt>
      <trkpt lat="44.22588" lon="2.96368">
        <ele>835</ele>
        <time>2019-10-13T10:25:58.000Z</time>
      </trkpt>
      <trkpt lat="44.22588" lon="2.96367">
        <ele>835</ele>
        <time>2019-10-13T10:25:59.000Z</time>
      </trkpt>
      <trkpt lat="44.22588" lon="2.96367">
        <ele>835</ele>
        <time>2019-10-13T10:26:00.000Z</time>
      </trkpt>
      <trkpt lat="44.22588" lon="2.96367">
        <ele>835</ele>
        <time>2019-10-13T10:26:01.000Z</time>
      </trkpt>
      <trkpt lat="44.22587" lon="2.96366">
        <ele>835</ele>
        <time>2019-10-13T10:26:02.000Z</time>
      </trkpt>
      <trkpt lat="44.22587" lon="2.96365">
        <ele>835</ele>
        <time>2019-10-13T10:26:03.000Z</time>
      </trkpt>
      <trkpt lat="44.22586" lon="2.96364">
        <ele>835</ele>
        <time>2019-10-13T10:26:04.000Z</time>
      </trkpt>
      <trkpt lat="44.22586" lon="2.96364">
        <ele>835</ele>
        <time>2019-10-13T10:26:05.000Z</time>
      </trkpt>
      <trkpt lat="44.22585" lon="2.96363">
        <ele>835</ele>
        <time>2019-10-13T10:26:06.000Z</time>
      </trkpt>
      <trkpt lat="44.22585" lon="2.96362">
        <ele>835</ele>
        <time>2019-10-13T10:26:07.000Z</time>
      </trkpt>
      <trkpt lat="44.22584" lon="2.96361">
        <ele>835</ele>
        <time>2019-10-13T10:26:08.000Z</time>
      </trkpt>
      <trkpt lat="44.22583" lon="2.96361">
        <ele>835</ele>
        <time>2019-10-13T10:26:09.000Z</time>
      </trkpt>
      <trkpt lat="44.22582" lon="2.9636">
        <ele>835</ele>
        <time>2019-10-13T10:26:10.000Z</time>
      </trkpt>
      <trkpt lat="44.22582" lon="2.9636">
        <ele>835</ele>
        <time>2019-10-13T10:26:11.000Z</time>
      </trkpt>
      <trkpt lat="44.22581" lon="2.9636">
        <ele>836</ele>
        <time>2019-10-13T10:26:12.000Z</time>
      </trkpt>
      <trkpt lat="44.2258" lon="2.96359">
        <ele>836</ele>
        <time>2019-10-13T10:26:13.000Z</time>
      </trkpt>
      <trkpt lat="44.22579" lon="2.96358">
        <ele>836</ele>
        <time>2019-10-13T10:26:14.000Z</time>
      </trkpt>
      <trkpt lat="44.22578" lon="2.96358">
        <ele>836</ele>
        <time>2019-10-13T10:26:15.000Z</time>
      </trkpt>
      <trkpt lat="44.22578" lon="2.96358">
        <ele>836</ele>
        <time>2019-10-13T10:26:16.000Z</time>
      </trkpt>
      <trkpt lat="44.22577" lon="2.96357">
        <ele>836</ele>
        <time>2019-10-13T10:26:17.000Z</time>
      </trkpt>
      <trkpt lat="44.22575" lon="2.96357">
        <ele>836</ele>
        <time>2019-10-13T10:26:18.000Z</time>
      </trkpt>
      <trkpt lat="44.22574" lon="2.96356">
        <ele>836</ele>
        <time>2019-10-13T10:26:19.000Z</time>
      </trkpt>
      <trkpt lat="44.22573" lon="2.96356">
        <ele>836</ele>
        <time>2019-10-13T10:26:20.000Z</time>
      </trkpt>
      <trkpt lat="44.22572" lon="2.96355">
        <ele>836</ele>
        <time>2019-10-13T10:26:21.000Z</time>
      </trkpt>
      <trkpt lat="44.22572" lon="2.96355">
        <ele>836</ele>
        <time>2019-10-13T10:26:22.000Z</time>
      </trkpt>
      <trkpt lat="44.2257" lon="2.96354">
        <ele>836</ele>
        <time>2019-10-13T10:26:23.000Z</time>
      </trkpt>
      <trkpt lat="44.22569" lon="2.96353">
        <ele>836</ele>
        <time>2019-10-13T10:26:24.000Z</time>
      </trkpt>
      <trkpt lat="44.22568" lon="2.96352">
        <ele>836</ele>
        <time>2019-10-13T10:26:25.000Z</time>
      </trkpt>
      <trkpt lat="44.22567" lon="2.96351">
        <ele>836</ele>
        <time>2019-10-13T10:26:26.000Z</time>
      </trkpt>
      <trkpt lat="44.22566" lon="2.9635">
        <ele>836</ele>
        <time>2019-10-13T10:26:27.000Z</time>
      </trkpt>
      <trkpt lat="44.22565" lon="2.9635">
        <ele>837</ele>
        <time>2019-10-13T10:26:28.000Z</time>
      </trkpt>
      <trkpt lat="44.22564" lon="2.96349">
        <ele>837</ele>
        <time>2019-10-13T10:26:29.000Z</time>
      </trkpt>
      <trkpt lat="44.22562" lon="2.96349">
        <ele>837</ele>
        <time>2019-10-13T10:26:30.000Z</time>
      </trkpt>
      <trkpt lat="44.22561" lon="2.96348">
        <ele>837</ele>
        <time>2019-10-13T10:26:31.000Z</time>
      </trkpt>
      <trkpt lat="44.2256" lon="2.96347">
        <ele>837</ele>
        <time>2019-10-13T10:26:32.000Z</time>
      </trkpt>
      <trkpt lat="44.22559" lon="2.96346">
        <ele>837</ele>
        <time>2019-10-13T10:26:33.000Z</time>
      </trkpt>
      <trkpt lat="44.22558" lon="2.96345">
        <ele>837</ele>
        <time>2019-10-13T10:26:34.000Z</time>
      </trkpt>
      <trkpt lat="44.22556" lon="2.96345">
        <ele>838</ele>
        <time>2019-10-13T10:26:35.000Z</time>
      </trkpt>
      <trkpt lat="44.22555" lon="2.96344">
        <ele>838</ele>
        <time>2019-10-13T10:26:36.000Z</time>
      </trkpt>
      <trkpt lat="44.22554" lon="2.96344">
        <ele>838</ele>
        <time>2019-10-13T10:26:37.000Z</time>
      </trkpt>
      <trkpt lat="44.22553" lon="2.96344">
        <ele>838</ele>
        <time>2019-10-13T10:26:38.000Z</time>
      </trkpt>
      <trkpt lat="44.22552" lon="2.96343">
        <ele>838</ele>
        <time>2019-10-13T10:26:39.000Z</time>
      </trkpt>
      <trkpt lat="44.22551" lon="2.96343">
        <ele>838</ele>
        <time>2019-10-13T10:26:40.000Z</time>
      </trkpt>
      <trkpt lat="44.2255" lon="2.96342">
        <ele>838</ele>
        <time>2019-10-13T10:26:41.000Z</time>
      </trkpt>
      <trkpt lat="44.22549" lon="2.96342">
        <ele>838</ele>
        <time>2019-10-13T10:26:42.000Z</time>
      </trkpt>
      <trkpt lat="44.22548" lon="2.96341">
        <ele>838</ele>
        <time>2019-10-13T10:26:43.000Z</time>
      </trkpt>
      <trkpt lat="44.22546" lon="2.9634">
        <ele>838</ele>
        <time>2019-10-13T10:26:44.000Z</time>
      </trkpt>
      <trkpt lat="44.22546" lon="2.9634">
        <ele>838</ele>
        <time>2019-10-13T10:26:45.000Z</time>
      </trkpt>
      <trkpt lat="44.22544" lon="2.9634">
        <ele>838</ele>
        <time>2019-10-13T10:26:46.000Z</time>
      </trkpt>
      <trkpt lat="44.22543" lon="2.96339">
        <ele>838</ele>
        <time>2019-10-13T10:26:47.000Z</time>
      </trkpt>
      <trkpt lat="44.22542" lon="2.96339">
        <ele>839</ele>
        <time>2019-10-13T10:26:48.000Z</time>
      </trkpt>
      <trkpt lat="44.22541" lon="2.96338">
        <ele>839</ele>
        <time>2019-10-13T10:26:49.000Z</time>
      </trkpt>
      <trkpt lat="44.22541" lon="2.96338">
        <ele>839</ele>
        <time>2019-10-13T10:26:50.000Z</time>
      </trkpt>
      <trkpt lat="44.2254" lon="2.96338">
        <ele>839</ele>
        <time>2019-10-13T10:26:51.000Z</time>
      </trkpt>
      <trkpt lat="44.22539" lon="2.96338">
        <ele>839</ele>
        <time>2019-10-13T10:26:52.000Z</time>
      </trkpt>
      <trkpt lat="44.22538" lon="2.96337">
        <ele>839</ele>
        <time>2019-10-13T10:26:53.000Z</time>
      </trkpt>
      <trkpt lat="44.22537" lon="2.96336">
        <ele>839</ele>
        <time>2019-10-13T10:26:54.000Z</time>
      </trkpt>
      <trkpt lat="44.22536" lon="2.96335">
        <ele>839</ele>
        <time>2019-10-13T10:26:55.000Z</time>
      </trkpt>
      <trkpt lat="44.22535" lon="2.96334">
        <ele>839</ele>
        <time>2019-10-13T10:26:56.000Z</time>
      </trkpt>
      <trkpt lat="44.22534" lon="2.96334">
        <ele>839</ele>
        <time>2019-10-13T10:26:57.000Z</time>
      </trkpt>
      <trkpt lat="44.22533" lon="2.96333">
        <ele>839</ele>
        <time>2019-10-13T10:26:58.000Z</time>
      </trkpt>
      <trkpt lat="44.22531" lon="2.96332">
        <ele>839</ele>
        <time>2019-10-13T10:26:59.000Z</time>
      </trkpt>
      <trkpt lat="44.22531" lon="2.96331">
        <ele>839</ele>
        <time>2019-10-13T10:27:00.000Z</time>
      </trkpt>
      <trkpt lat="44.2253" lon="2.96331">
        <ele>839</ele>
        <time>2019-10-13T10:27:01.000Z</time>
      </trkpt>
      <trkpt lat="44.22529" lon="2.96329">
        <ele>839</ele>
        <time>2019-10-13T10:27:02.000Z</time>
      </trkpt>
      <trkpt lat="44.22528" lon="2.96328">
        <ele>839</ele>
        <time>2019-10-13T10:27:03.000Z</time>
      </trkpt>
      <trkpt lat="44.22527" lon="2.96327">
        <ele>839</ele>
        <time>2019-10-13T10:27:04.000Z</time>
      </trkpt>
      <trkpt lat="44.22526" lon="2.96326">
        <ele>840</ele>
        <time>2019-10-13T10:27:05.000Z</time>
      </trkpt>
      <trkpt lat="44.22526" lon="2.96325">
        <ele>840</ele>
        <time>2019-10-13T10:27:06.000Z</time>
      </trkpt>
      <trkpt lat="44.22525" lon="2.96323">
        <ele>840</ele>
        <time>2019-10-13T10:27:07.000Z</time>
      </trkpt>
      <trkpt lat="44.22524" lon="2.96322">
        <ele>840</ele>
        <time>2019-10-13T10:27:08.000Z</time>
      </trkpt>
      <trkpt lat="44.22523" lon="2.96321">
        <ele>840</ele>
        <time>2019-10-13T10:27:09.000Z</time>
      </trkpt>
      <trkpt lat="44.22522" lon="2.96319">
        <ele>840</ele>
        <time>2019-10-13T10:27:10.000Z</time>
      </trkpt>
      <trkpt lat="44.22521" lon="2.96318">
        <ele>840</ele>
        <time>2019-10-13T10:27:11.000Z</time>
      </trkpt>
      <trkpt lat="44.2252" lon="2.96316">
        <ele>840</ele>
        <time>2019-10-13T10:27:12.000Z</time>
      </trkpt>
      <trkpt lat="44.22518" lon="2.96315">
        <ele>840</ele>
        <time>2019-10-13T10:27:13.000Z</time>
      </trkpt>
      <trkpt lat="44.22517" lon="2.96313">
        <ele>840</ele>
        <time>2019-10-13T10:27:14.000Z</time>
      </trkpt>
      <trkpt lat="44.22516" lon="2.96312">
        <ele>840</ele>
        <time>2019-10-13T10:27:15.000Z</time>
      </trkpt>
      <trkpt lat="44.22516" lon="2.96311">
        <ele>840</ele>
        <time>2019-10-13T10:27:16.000Z</time>
      </trkpt>
      <trkpt lat="44.22515" lon="2.96309">
        <ele>840</ele>
        <time>2019-10-13T10:27:17.000Z</time>
      </trkpt>
      <trkpt lat="44.22514" lon="2.96308">
        <ele>840</ele>
        <time>2019-10-13T10:27:18.000Z</time>
      </trkpt>
      <trkpt lat="44.22513" lon="2.96307">
        <ele>840</ele>
        <time>2019-10-13T10:27:19.000Z</time>
      </trkpt>
      <trkpt lat="44.22512" lon="2.96306">
        <ele>840</ele>
        <time>2019-10-13T10:27:20.000Z</time>
      </trkpt>
      <trkpt lat="44.22511" lon="2.96305">
        <ele>840</ele>
        <time>2019-10-13T10:27:21.000Z</time>
      </trkpt>
      <trkpt lat="44.22511" lon="2.96304">
        <ele>840</ele>
        <time>2019-10-13T10:27:22.000Z</time>
      </trkpt>
      <trkpt lat="44.2251" lon="2.96303">
        <ele>840</ele>
        <time>2019-10-13T10:27:23.000Z</time>
      </trkpt>
      <trkpt lat="44.22509" lon="2.96302">
        <ele>840</ele>
        <time>2019-10-13T10:27:24.000Z</time>
      </trkpt>
      <trkpt lat="44.22508" lon="2.96301">
        <ele>840</ele>
        <time>2019-10-13T10:27:25.000Z</time>
      </trkpt>
      <trkpt lat="44.22507" lon="2.963">
        <ele>840</ele>
        <time>2019-10-13T10:27:26.000Z</time>
      </trkpt>
      <trkpt lat="44.22507" lon="2.96299">
        <ele>840</ele>
        <time>2019-10-13T10:27:27.000Z</time>
      </trkpt>
      <trkpt lat="44.22506" lon="2.96298">
        <ele>840</ele>
        <time>2019-10-13T10:27:28.000Z</time>
      </trkpt>
      <trkpt lat="44.22505" lon="2.96297">
        <ele>840</ele>
        <time>2019-10-13T10:27:29.000Z</time>
      </trkpt>
      <trkpt lat="44.22504" lon="2.96296">
        <ele>840</ele>
        <time>2019-10-13T10:27:30.000Z</time>
      </trkpt>
      <trkpt lat="44.22503" lon="2.96295">
        <ele>840</ele>
        <time>2019-10-13T10:27:31.000Z</time>
      </trkpt>
      <trkpt lat="44.22502" lon="2.96294">
        <ele>840</ele>
        <time>2019-10-13T10:27:32.000Z</time>
      </trkpt>
      <trkpt lat="44.22501" lon="2.96293">
        <ele>840</ele>
        <time>2019-10-13T10:27:33.000Z</time>
      </trkpt>
      <trkpt lat="44.225" lon="2.96292">
        <ele>840</ele>
        <time>2019-10-13T10:27:34.000Z</time>
      </trkpt>
      <trkpt lat="44.22499" lon="2.96291">
        <ele>840</ele>
        <time>2019-10-13T10:27:35.000Z</time>
      </trkpt>
      <trkpt lat="44.22499" lon="2.9629">
        <ele>840</ele>
        <time>2019-10-13T10:27:36.000Z</time>
      </trkpt>
      <trkpt lat="44.22498" lon="2.96289">
        <ele>840</ele>
        <time>2019-10-13T10:27:37.000Z</time>
      </trkpt>
      <trkpt lat="44.22497" lon="2.96288">
        <ele>840</ele>
        <time>2019-10-13T10:27:38.000Z</time>
      </trkpt>
      <trkpt lat="44.22496" lon="2.96287">
        <ele>840</ele>
        <time>2019-10-13T10:27:39.000Z</time>
      </trkpt>
      <trkpt lat="44.22495" lon="2.96286">
        <ele>840</ele>
        <time>2019-10-13T10:27:40.000Z</time>
      </trkpt>
      <trkpt lat="44.22494" lon="2.96284">
        <ele>840</ele>
        <time>2019-10-13T10:27:41.000Z</time>
      </trkpt>
      <trkpt lat="44.22493" lon="2.96283">
        <ele>840</ele>
        <time>2019-10-13T10:27:42.000Z</time>
      </trkpt>
      <trkpt lat="44.22492" lon="2.96282">
        <ele>840</ele>
        <time>2019-10-13T10:27:43.000Z</time>
      </trkpt>
      <trkpt lat="44.22491" lon="2.9628">
        <ele>840</ele>
        <time>2019-10-13T10:27:44.000Z</time>
      </trkpt>
      <trkpt lat="44.2249" lon="2.96279">
        <ele>840</ele>
        <time>2019-10-13T10:27:45.000Z</time>
      </trkpt>
      <trkpt lat="44.2249" lon="2.96278">
        <ele>840</ele>
        <time>2019-10-13T10:27:46.000Z</time>
      </trkpt>
      <trkpt lat="44.22489" lon="2.96277">
        <ele>840</ele>
        <time>2019-10-13T10:27:47.000Z</time>
      </trkpt>
      <trkpt lat="44.22488" lon="2.96276">
        <ele>840</ele>
        <time>2019-10-13T10:27:48.000Z</time>
      </trkpt>
      <trkpt lat="44.22487" lon="2.96275">
        <ele>840</ele>
        <time>2019-10-13T10:27:49.000Z</time>
      </trkpt>
      <trkpt lat="44.22486" lon="2.96274">
        <ele>840</ele>
        <time>2019-10-13T10:27:50.000Z</time>
      </trkpt>
      <trkpt lat="44.22485" lon="2.96273">
        <ele>840</ele>
        <time>2019-10-13T10:27:51.000Z</time>
      </trkpt>
      <trkpt lat="44.22484" lon="2.96272">
        <ele>840</ele>
        <time>2019-10-13T10:27:52.000Z</time>
      </trkpt>
      <trkpt lat="44.22483" lon="2.96271">
        <ele>840</ele>
        <time>2019-10-13T10:27:53.000Z</time>
      </trkpt>
      <trkpt lat="44.22482" lon="2.9627">
        <ele>840</ele>
        <time>2019-10-13T10:27:54.000Z</time>
      </trkpt>
      <trkpt lat="44.22481" lon="2.96269">
        <ele>840</ele>
        <time>2019-10-13T10:27:55.000Z</time>
      </trkpt>
      <trkpt lat="44.2248" lon="2.96268">
        <ele>840</ele>
        <time>2019-10-13T10:27:56.000Z</time>
      </trkpt>
      <trkpt lat="44.22479" lon="2.96267">
        <ele>840</ele>
        <time>2019-10-13T10:27:57.000Z</time>
      </trkpt>
      <trkpt lat="44.22478" lon="2.96266">
        <ele>840</ele>
        <time>2019-10-13T10:27:58.000Z</time>
      </trkpt>
      <trkpt lat="44.22477" lon="2.96265">
        <ele>840</ele>
        <time>2019-10-13T10:27:59.000Z</time>
      </trkpt>
      <trkpt lat="44.22476" lon="2.96264">
        <ele>840</ele>
        <time>2019-10-13T10:28:00.000Z</time>
      </trkpt>
      <trkpt lat="44.22476" lon="2.96263">
        <ele>840</ele>
        <time>2019-10-13T10:28:01.000Z</time>
      </trkpt>
      <trkpt lat="44.22475" lon="2.96262">
        <ele>840</ele>
        <time>2019-10-13T10:28:02.000Z</time>
      </trkpt>
      <trkpt lat="44.22474" lon="2.96261">
        <ele>840</ele>
        <time>2019-10-13T10:28:03.000Z</time>
      </trkpt>
      <trkpt lat="44.22473" lon="2.9626">
        <ele>840</ele>
        <time>2019-10-13T10:28:04.000Z</time>
      </trkpt>
      <trkpt lat="44.22472" lon="2.96259">
        <ele>840</ele>
        <time>2019-10-13T10:28:05.000Z</time>
      </trkpt>
      <trkpt lat="44.22471" lon="2.96258">
        <ele>840</ele>
        <time>2019-10-13T10:28:06.000Z</time>
      </trkpt>
      <trkpt lat="44.2247" lon="2.96257">
        <ele>841</ele>
        <time>2019-10-13T10:28:07.000Z</time>
      </trkpt>
      <trkpt lat="44.22469" lon="2.96256">
        <ele>841</ele>
        <time>2019-10-13T10:28:08.000Z</time>
      </trkpt>
      <trkpt lat="44.22468" lon="2.96255">
        <ele>841</ele>
        <time>2019-10-13T10:28:09.000Z</time>
      </trkpt>
      <trkpt lat="44.22467" lon="2.96253">
        <ele>841</ele>
        <time>2019-10-13T10:28:10.000Z</time>
      </trkpt>
      <trkpt lat="44.22466" lon="2.96252">
        <ele>841</ele>
        <time>2019-10-13T10:28:11.000Z</time>
      </trkpt>
      <trkpt lat="44.22465" lon="2.96251">
        <ele>841</ele>
        <time>2019-10-13T10:28:12.000Z</time>
      </trkpt>
      <trkpt lat="44.22464" lon="2.9625">
        <ele>841</ele>
        <time>2019-10-13T10:28:13.000Z</time>
      </trkpt>
      <trkpt lat="44.22463" lon="2.96249">
        <ele>841</ele>
        <time>2019-10-13T10:28:14.000Z</time>
      </trkpt>
      <trkpt lat="44.22462" lon="2.96248">
        <ele>841</ele>
        <time>2019-10-13T10:28:15.000Z</time>
      </trkpt>
      <trkpt lat="44.22461" lon="2.96248">
        <ele>841</ele>
        <time>2019-10-13T10:28:16.000Z</time>
      </trkpt>
      <trkpt lat="44.22461" lon="2.96247">
        <ele>842</ele>
        <time>2019-10-13T10:28:17.000Z</time>
      </trkpt>
      <trkpt lat="44.22459" lon="2.96246">
        <ele>842</ele>
        <time>2019-10-13T10:28:18.000Z</time>
      </trkpt>
      <trkpt lat="44.22458" lon="2.96245">
        <ele>842</ele>
        <time>2019-10-13T10:28:19.000Z</time>
      </trkpt>
      <trkpt lat="44.22457" lon="2.96244">
        <ele>842</ele>
        <time>2019-10-13T10:28:20.000Z</time>
      </trkpt>
      <trkpt lat="44.22457" lon="2.96243">
        <ele>842</ele>
        <time>2019-10-13T10:28:21.000Z</time>
      </trkpt>
      <trkpt lat="44.22455" lon="2.96241">
        <ele>842</ele>
        <time>2019-10-13T10:28:22.000Z</time>
      </trkpt>
      <trkpt lat="44.22454" lon="2.96241">
        <ele>842</ele>
        <time>2019-10-13T10:28:23.000Z</time>
      </trkpt>
      <trkpt lat="44.22453" lon="2.96239">
        <ele>842</ele>
        <time>2019-10-13T10:28:24.000Z</time>
      </trkpt>
      <trkpt lat="44.22452" lon="2.96238">
        <ele>842</ele>
        <time>2019-10-13T10:28:25.000Z</time>
      </trkpt>
      <trkpt lat="44.2245" lon="2.96236">
        <ele>842</ele>
        <time>2019-10-13T10:28:26.000Z</time>
      </trkpt>
      <trkpt lat="44.22449" lon="2.96235">
        <ele>842</ele>
        <time>2019-10-13T10:28:27.000Z</time>
      </trkpt>
      <trkpt lat="44.22448" lon="2.96234">
        <ele>842</ele>
        <time>2019-10-13T10:28:28.000Z</time>
      </trkpt>
      <trkpt lat="44.22447" lon="2.96233">
        <ele>843</ele>
        <time>2019-10-13T10:28:29.000Z</time>
      </trkpt>
      <trkpt lat="44.22446" lon="2.96232">
        <ele>843</ele>
        <time>2019-10-13T10:28:30.000Z</time>
      </trkpt>
      <trkpt lat="44.22445" lon="2.9623">
        <ele>843</ele>
        <time>2019-10-13T10:28:31.000Z</time>
      </trkpt>
      <trkpt lat="44.22444" lon="2.96229">
        <ele>843</ele>
        <time>2019-10-13T10:28:32.000Z</time>
      </trkpt>
      <trkpt lat="44.22443" lon="2.96227">
        <ele>843</ele>
        <time>2019-10-13T10:28:33.000Z</time>
      </trkpt>
      <trkpt lat="44.22442" lon="2.96225">
        <ele>843</ele>
        <time>2019-10-13T10:28:34.000Z</time>
      </trkpt>
      <trkpt lat="44.2244" lon="2.96224">
        <ele>843</ele>
        <time>2019-10-13T10:28:35.000Z</time>
      </trkpt>
      <trkpt lat="44.22439" lon="2.96222">
        <ele>844</ele>
        <time>2019-10-13T10:28:36.000Z</time>
      </trkpt>
      <trkpt lat="44.22438" lon="2.96221">
        <ele>844</ele>
        <time>2019-10-13T10:28:37.000Z</time>
      </trkpt>
      <trkpt lat="44.22437" lon="2.96219">
        <ele>844</ele>
        <time>2019-10-13T10:28:38.000Z</time>
      </trkpt>
      <trkpt lat="44.22436" lon="2.96217">
        <ele>844</ele>
        <time>2019-10-13T10:28:39.000Z</time>
      </trkpt>
      <trkpt lat="44.22435" lon="2.96216">
        <ele>844</ele>
        <time>2019-10-13T10:28:40.000Z</time>
      </trkpt>
      <trkpt lat="44.22434" lon="2.96215">
        <ele>844</ele>
        <time>2019-10-13T10:28:41.000Z</time>
      </trkpt>
      <trkpt lat="44.22433" lon="2.96214">
        <ele>844</ele>
        <time>2019-10-13T10:28:42.000Z</time>
      </trkpt>
      <trkpt lat="44.22431" lon="2.96213">
        <ele>844</ele>
        <time>2019-10-13T10:28:43.000Z</time>
      </trkpt>
      <trkpt lat="44.2243" lon="2.96212">
        <ele>844</ele>
        <time>2019-10-13T10:28:44.000Z</time>
      </trkpt>
      <trkpt lat="44.22429" lon="2.9621">
        <ele>844</ele>
        <time>2019-10-13T10:28:45.000Z</time>
      </trkpt>
      <trkpt lat="44.22428" lon="2.96209">
        <ele>844</ele>
        <time>2019-10-13T10:28:46.000Z</time>
      </trkpt>
      <trkpt lat="44.22427" lon="2.96208">
        <ele>844</ele>
        <time>2019-10-13T10:28:47.000Z</time>
      </trkpt>
      <trkpt lat="44.22426" lon="2.96207">
        <ele>844</ele>
        <time>2019-10-13T10:28:48.000Z</time>
      </trkpt>
      <trkpt lat="44.22425" lon="2.96205">
        <ele>844</ele>
        <time>2019-10-13T10:28:49.000Z</time>
      </trkpt>
      <trkpt lat="44.22424" lon="2.96204">
        <ele>844</ele>
        <time>2019-10-13T10:28:50.000Z</time>
      </trkpt>
      <trkpt lat="44.22423" lon="2.96202">
        <ele>843</ele>
        <time>2019-10-13T10:28:51.000Z</time>
      </trkpt>
      <trkpt lat="44.22422" lon="2.96201">
        <ele>843</ele>
        <time>2019-10-13T10:28:52.000Z</time>
      </trkpt>
      <trkpt lat="44.22421" lon="2.962">
        <ele>843</ele>
        <time>2019-10-13T10:28:53.000Z</time>
      </trkpt>
      <trkpt lat="44.2242" lon="2.96199">
        <ele>843</ele>
        <time>2019-10-13T10:28:54.000Z</time>
      </trkpt>
      <trkpt lat="44.22419" lon="2.96197">
        <ele>843</ele>
        <time>2019-10-13T10:28:55.000Z</time>
      </trkpt>
      <trkpt lat="44.22418" lon="2.96196">
        <ele>843</ele>
        <time>2019-10-13T10:28:56.000Z</time>
      </trkpt>
      <trkpt lat="44.22417" lon="2.96195">
        <ele>843</ele>
        <time>2019-10-13T10:28:57.000Z</time>
      </trkpt>
      <trkpt lat="44.22416" lon="2.96193">
        <ele>843</ele>
        <time>2019-10-13T10:28:58.000Z</time>
      </trkpt>
      <trkpt lat="44.22415" lon="2.96192">
        <ele>843</ele>
        <time>2019-10-13T10:28:59.000Z</time>
      </trkpt>
      <trkpt lat="44.22414" lon="2.96191">
        <ele>843</ele>
        <time>2019-10-13T10:29:00.000Z</time>
      </trkpt>
      <trkpt lat="44.22413" lon="2.9619">
        <ele>843</ele>
        <time>2019-10-13T10:29:01.000Z</time>
      </trkpt>
      <trkpt lat="44.22412" lon="2.96189">
        <ele>844</ele>
        <time>2019-10-13T10:29:02.000Z</time>
      </trkpt>
      <trkpt lat="44.22411" lon="2.96187">
        <ele>844</ele>
        <time>2019-10-13T10:29:03.000Z</time>
      </trkpt>
      <trkpt lat="44.2241" lon="2.96186">
        <ele>844</ele>
        <time>2019-10-13T10:29:04.000Z</time>
      </trkpt>
      <trkpt lat="44.22408" lon="2.96185">
        <ele>844</ele>
        <time>2019-10-13T10:29:05.000Z</time>
      </trkpt>
      <trkpt lat="44.22407" lon="2.96183">
        <ele>844</ele>
        <time>2019-10-13T10:29:06.000Z</time>
      </trkpt>
      <trkpt lat="44.22406" lon="2.96182">
        <ele>844</ele>
        <time>2019-10-13T10:29:07.000Z</time>
      </trkpt>
      <trkpt lat="44.22405" lon="2.9618">
        <ele>844</ele>
        <time>2019-10-13T10:29:08.000Z</time>
      </trkpt>
      <trkpt lat="44.22405" lon="2.96178">
        <ele>844</ele>
        <time>2019-10-13T10:29:09.000Z</time>
      </trkpt>
      <trkpt lat="44.22404" lon="2.96176">
        <ele>844</ele>
        <time>2019-10-13T10:29:10.000Z</time>
      </trkpt>
      <trkpt lat="44.22404" lon="2.96174">
        <ele>844</ele>
        <time>2019-10-13T10:29:11.000Z</time>
      </trkpt>
      <trkpt lat="44.22403" lon="2.96172">
        <ele>844</ele>
        <time>2019-10-13T10:29:12.000Z</time>
      </trkpt>
      <trkpt lat="44.22403" lon="2.96171">
        <ele>843</ele>
        <time>2019-10-13T10:29:13.000Z</time>
      </trkpt>
      <trkpt lat="44.22402" lon="2.96169">
        <ele>843</ele>
        <time>2019-10-13T10:29:14.000Z</time>
      </trkpt>
      <trkpt lat="44.22402" lon="2.96167">
        <ele>843</ele>
        <time>2019-10-13T10:29:15.000Z</time>
      </trkpt>
      <trkpt lat="44.22401" lon="2.96166">
        <ele>843</ele>
        <time>2019-10-13T10:29:16.000Z</time>
      </trkpt>
      <trkpt lat="44.22401" lon="2.96164">
        <ele>843</ele>
        <time>2019-10-13T10:29:17.000Z</time>
      </trkpt>
      <trkpt lat="44.224" lon="2.96163">
        <ele>843</ele>
        <time>2019-10-13T10:29:18.000Z</time>
      </trkpt>
      <trkpt lat="44.224" lon="2.96161">
        <ele>843</ele>
        <time>2019-10-13T10:29:19.000Z</time>
      </trkpt>
      <trkpt lat="44.22399" lon="2.9616">
        <ele>843</ele>
        <time>2019-10-13T10:29:20.000Z</time>
      </trkpt>
      <trkpt lat="44.22399" lon="2.96158">
        <ele>843</ele>
        <time>2019-10-13T10:29:21.000Z</time>
      </trkpt>
      <trkpt lat="44.22399" lon="2.96156">
        <ele>843</ele>
        <time>2019-10-13T10:29:22.000Z</time>
      </trkpt>
      <trkpt lat="44.22398" lon="2.96154">
        <ele>843</ele>
        <time>2019-10-13T10:29:23.000Z</time>
      </trkpt>
      <trkpt lat="44.22397" lon="2.96152">
        <ele>843</ele>
        <time>2019-10-13T10:29:24.000Z</time>
      </trkpt>
      <trkpt lat="44.22397" lon="2.96151">
        <ele>843</ele>
        <time>2019-10-13T10:29:25.000Z</time>
      </trkpt>
      <trkpt lat="44.22396" lon="2.9615">
        <ele>843</ele>
        <time>2019-10-13T10:29:26.000Z</time>
      </trkpt>
      <trkpt lat="44.22396" lon="2.96149">
        <ele>843</ele>
        <time>2019-10-13T10:29:27.000Z</time>
      </trkpt>
      <trkpt lat="44.22395" lon="2.96148">
        <ele>843</ele>
        <time>2019-10-13T10:29:28.000Z</time>
      </trkpt>
      <trkpt lat="44.22394" lon="2.96148">
        <ele>843</ele>
        <time>2019-10-13T10:29:29.000Z</time>
      </trkpt>
      <trkpt lat="44.22393" lon="2.96148">
        <ele>843</ele>
        <time>2019-10-13T10:29:30.000Z</time>
      </trkpt>
      <trkpt lat="44.22393" lon="2.96149">
        <ele>843</ele>
        <time>2019-10-13T10:29:31.000Z</time>
      </trkpt>
      <trkpt lat="44.22392" lon="2.9615">
        <ele>843</ele>
        <time>2019-10-13T10:29:32.000Z</time>
      </trkpt>
      <trkpt lat="44.22391" lon="2.96151">
        <ele>843</ele>
        <time>2019-10-13T10:29:33.000Z</time>
      </trkpt>
      <trkpt lat="44.2239" lon="2.96151">
        <ele>842</ele>
        <time>2019-10-13T10:29:34.000Z</time>
      </trkpt>
      <trkpt lat="44.22389" lon="2.96152">
        <ele>842</ele>
        <time>2019-10-13T10:29:35.000Z</time>
      </trkpt>
      <trkpt lat="44.22389" lon="2.96153">
        <ele>842</ele>
        <time>2019-10-13T10:29:36.000Z</time>
      </trkpt>
      <trkpt lat="44.22388" lon="2.96154">
        <ele>842</ele>
        <time>2019-10-13T10:29:37.000Z</time>
      </trkpt>
      <trkpt lat="44.22389" lon="2.96155">
        <ele>842</ele>
        <time>2019-10-13T10:29:38.000Z</time>
      </trkpt>
      <trkpt lat="44.22389" lon="2.96155">
        <ele>842</ele>
        <time>2019-10-13T10:29:39.000Z</time>
      </trkpt>
      <trkpt lat="44.22389" lon="2.96155">
        <ele>842</ele>
        <time>2019-10-13T10:29:40.000Z</time>
      </trkpt>
      <trkpt lat="44.22389" lon="2.96155">
        <ele>842</ele>
        <time>2019-10-13T10:29:41.000Z</time>
      </trkpt>
      <trkpt lat="44.22389" lon="2.96154">
        <ele>842</ele>
        <time>2019-10-13T10:29:42.000Z</time>
      </trkpt>
      <trkpt lat="44.22389" lon="2.96154">
        <ele>842</ele>
        <time>2019-10-13T10:29:43.000Z</time>
      </trkpt>
      <trkpt lat="44.22389" lon="2.96154">
        <ele>842</ele>
        <time>2019-10-13T10:29:44.000Z</time>
      </trkpt>
      <trkpt lat="44.22389" lon="2.96154">
        <ele>842</ele>
        <time>2019-10-13T10:29:45.000Z</time>
      </trkpt>
      <trkpt lat="44.22389" lon="2.96155">
        <ele>843</ele>
        <time>2019-10-13T10:29:46.000Z</time>
      </trkpt>
      <trkpt lat="44.22389" lon="2.96155">
        <ele>843</ele>
        <time>2019-10-13T10:29:47.000Z</time>
      </trkpt>
      <trkpt lat="44.22389" lon="2.96155">
        <ele>843</ele>
        <time>2019-10-13T10:29:48.000Z</time>
      </trkpt>
      <trkpt lat="44.22389" lon="2.96155">
        <ele>843</ele>
        <time>2019-10-13T10:29:49.000Z</time>
      </trkpt>
      <trkpt lat="44.22389" lon="2.96155">
        <ele>843</ele>
        <time>2019-10-13T10:29:50.000Z</time>
      </trkpt>
      <trkpt lat="44.22389" lon="2.96155">
        <ele>843</ele>
        <time>2019-10-13T10:29:51.000Z</time>
      </trkpt>
      <trkpt lat="44.22389" lon="2.96155">
        <ele>843</ele>
        <time>2019-10-13T10:29:52.000Z</time>
      </trkpt>
      <trkpt lat="44.22389" lon="2.96155">
        <ele>843</ele>
        <time>2019-10-13T10:29:53.000Z</time>
      </trkpt>
      <trkpt lat="44.22389" lon="2.96155">
        <ele>843</ele>
        <time>2019-10-13T10:29:54.000Z</time>
      </trkpt>
      <trkpt lat="44.22389" lon="2.96155">
        <ele>843</ele>
        <time>2019-10-13T10:29:55.000Z</time>
      </trkpt>
      <trkpt lat="44.22389" lon="2.96155">
        <ele>843</ele>
        <time>2019-10-13T10:29:56.000Z</time>
      </trkpt>
      <trkpt lat="44.22389" lon="2.96155">
        <ele>843</ele>
        <time>2019-10-13T10:29:57.000Z</time>
      </trkpt>
      <trkpt lat="44.22389" lon="2.96155">
        <ele>843</ele>
        <time>2019-10-13T10:29:58.000Z</time>
      </trkpt>
      <trkpt lat="44.22389" lon="2.96154">
        <ele>843</ele>
        <time>2019-10-13T10:29:59.000Z</time>
      </trkpt>
      <trkpt lat="44.22389" lon="2.96154">
        <ele>843</ele>
        <time>2019-10-13T10:30:00.000Z</time>
      </trkpt>
      <trkpt lat="44.22389" lon="2.96155">
        <ele>843</ele>
        <time>2019-10-13T10:30:01.000Z</time>
      </trkpt>
      <trkpt lat="44.22389" lon="2.96154">
        <ele>843</ele>
        <time>2019-10-13T10:30:02.000Z</time>
      </trkpt>
      <trkpt lat="44.22389" lon="2.96154">
        <ele>843</ele>
        <time>2019-10-13T10:30:03.000Z</time>
      </trkpt>
      <trkpt lat="44.22389" lon="2.96154">
        <ele>843</ele>
        <time>2019-10-13T10:30:04.000Z</time>
      </trkpt>
      <trkpt lat="44.22388" lon="2.96153">
        <ele>843</ele>
        <time>2019-10-13T10:30:05.000Z</time>
      </trkpt>
      <trkpt lat="44.22388" lon="2.96153">
        <ele>843</ele>
        <time>2019-10-13T10:30:06.000Z</time>
      </trkpt>
      <trkpt lat="44.22388" lon="2.96152">
        <ele>843</ele>
        <time>2019-10-13T10:30:07.000Z</time>
      </trkpt>
      <trkpt lat="44.22387" lon="2.96152">
        <ele>843</ele>
        <time>2019-10-13T10:30:08.000Z</time>
      </trkpt>
      <trkpt lat="44.22386" lon="2.96152">
        <ele>843</ele>
        <time>2019-10-13T10:30:09.000Z</time>
      </trkpt>
      <trkpt lat="44.22386" lon="2.96153">
        <ele>843</ele>
        <time>2019-10-13T10:30:10.000Z</time>
      </trkpt>
      <trkpt lat="44.22386" lon="2.96155">
        <ele>843</ele>
        <time>2019-10-13T10:30:11.000Z</time>
      </trkpt>
      <trkpt lat="44.22386" lon="2.96156">
        <ele>843</ele>
        <time>2019-10-13T10:30:12.000Z</time>
      </trkpt>
      <trkpt lat="44.22385" lon="2.96157">
        <ele>843</ele>
        <time>2019-10-13T10:30:13.000Z</time>
      </trkpt>
      <trkpt lat="44.22385" lon="2.96159">
        <ele>843</ele>
        <time>2019-10-13T10:30:14.000Z</time>
      </trkpt>
      <trkpt lat="44.22385" lon="2.96161">
        <ele>843</ele>
        <time>2019-10-13T10:30:15.000Z</time>
      </trkpt>
      <trkpt lat="44.22385" lon="2.96162">
        <ele>843</ele>
        <time>2019-10-13T10:30:16.000Z</time>
      </trkpt>
      <trkpt lat="44.22385" lon="2.96164">
        <ele>843</ele>
        <time>2019-10-13T10:30:17.000Z</time>
      </trkpt>
      <trkpt lat="44.22384" lon="2.96165">
        <ele>843</ele>
        <time>2019-10-13T10:30:18.000Z</time>
      </trkpt>
      <trkpt lat="44.22384" lon="2.96167">
        <ele>843</ele>
        <time>2019-10-13T10:30:19.000Z</time>
      </trkpt>
      <trkpt lat="44.22383" lon="2.96168">
        <ele>842</ele>
        <time>2019-10-13T10:30:20.000Z</time>
      </trkpt>
      <trkpt lat="44.22383" lon="2.9617">
        <ele>842</ele>
        <time>2019-10-13T10:30:21.000Z</time>
      </trkpt>
      <trkpt lat="44.22383" lon="2.96172">
        <ele>842</ele>
        <time>2019-10-13T10:30:22.000Z</time>
      </trkpt>
      <trkpt lat="44.22383" lon="2.96173">
        <ele>842</ele>
        <time>2019-10-13T10:30:23.000Z</time>
      </trkpt>
      <trkpt lat="44.22383" lon="2.96175">
        <ele>842</ele>
        <time>2019-10-13T10:30:24.000Z</time>
      </trkpt>
      <trkpt lat="44.22383" lon="2.96176">
        <ele>842</ele>
        <time>2019-10-13T10:30:25.000Z</time>
      </trkpt>
      <trkpt lat="44.22383" lon="2.96177">
        <ele>842</ele>
        <time>2019-10-13T10:30:26.000Z</time>
      </trkpt>
      <trkpt lat="44.22383" lon="2.96178">
        <ele>842</ele>
        <time>2019-10-13T10:30:27.000Z</time>
      </trkpt>
      <trkpt lat="44.22383" lon="2.96177">
        <ele>842</ele>
        <time>2019-10-13T10:30:28.000Z</time>
      </trkpt>
      <trkpt lat="44.22383" lon="2.96177">
        <ele>842</ele>
        <time>2019-10-13T10:30:29.000Z</time>
      </trkpt>
      <trkpt lat="44.22383" lon="2.96177">
        <ele>841</ele>
        <time>2019-10-13T10:30:30.000Z</time>
      </trkpt>
      <trkpt lat="44.22383" lon="2.96177">
        <ele>841</ele>
        <time>2019-10-13T10:30:31.000Z</time>
      </trkpt>
      <trkpt lat="44.22383" lon="2.96177">
        <ele>841</ele>
        <time>2019-10-13T10:30:32.000Z</time>
      </trkpt>
      <trkpt lat="44.22383" lon="2.96177">
        <ele>841</ele>
        <time>2019-10-13T10:30:33.000Z</time>
      </trkpt>
      <trkpt lat="44.22383" lon="2.96177">
        <ele>841</ele>
        <time>2019-10-13T10:30:34.000Z</time>
      </trkpt>
      <trkpt lat="44.22383" lon="2.96176">
        <ele>841</ele>
        <time>2019-10-13T10:30:35.000Z</time>
      </trkpt>
      <trkpt lat="44.22383" lon="2.96175">
        <ele>841</ele>
        <time>2019-10-13T10:30:36.000Z</time>
      </trkpt>
      <trkpt lat="44.22383" lon="2.96175">
        <ele>841</ele>
        <time>2019-10-13T10:30:37.000Z</time>
      </trkpt>
      <trkpt lat="44.22383" lon="2.96174">
        <ele>841</ele>
        <time>2019-10-13T10:30:38.000Z</time>
      </trkpt>
      <trkpt lat="44.22384" lon="2.96172">
        <ele>840</ele>
        <time>2019-10-13T10:30:39.000Z</time>
      </trkpt>
      <trkpt lat="44.22384" lon="2.96171">
        <ele>840</ele>
        <time>2019-10-13T10:30:40.000Z</time>
      </trkpt>
      <trkpt lat="44.22385" lon="2.9617">
        <ele>840</ele>
        <time>2019-10-13T10:30:41.000Z</time>
      </trkpt>
      <trkpt lat="44.22385" lon="2.96169">
        <ele>840</ele>
        <time>2019-10-13T10:30:42.000Z</time>
      </trkpt>
      <trkpt lat="44.22386" lon="2.96168">
        <ele>840</ele>
        <time>2019-10-13T10:30:43.000Z</time>
      </trkpt>
      <trkpt lat="44.22386" lon="2.96167">
        <ele>840</ele>
        <time>2019-10-13T10:30:44.000Z</time>
      </trkpt>
      <trkpt lat="44.22387" lon="2.96166">
        <ele>841</ele>
        <time>2019-10-13T10:30:45.000Z</time>
      </trkpt>
      <trkpt lat="44.22387" lon="2.96165">
        <ele>841</ele>
        <time>2019-10-13T10:30:46.000Z</time>
      </trkpt>
      <trkpt lat="44.22387" lon="2.96164">
        <ele>841</ele>
        <time>2019-10-13T10:30:47.000Z</time>
      </trkpt>
      <trkpt lat="44.22387" lon="2.96163">
        <ele>841</ele>
        <time>2019-10-13T10:30:48.000Z</time>
      </trkpt>
      <trkpt lat="44.22387" lon="2.96163">
        <ele>841</ele>
        <time>2019-10-13T10:30:49.000Z</time>
      </trkpt>
      <trkpt lat="44.22387" lon="2.96163">
        <ele>841</ele>
        <time>2019-10-13T10:30:50.000Z</time>
      </trkpt>
      <trkpt lat="44.22387" lon="2.96164">
        <ele>841</ele>
        <time>2019-10-13T10:30:51.000Z</time>
      </trkpt>
      <trkpt lat="44.22387" lon="2.96164">
        <ele>841</ele>
        <time>2019-10-13T10:30:52.000Z</time>
      </trkpt>
      <trkpt lat="44.22387" lon="2.96164">
        <ele>841</ele>
        <time>2019-10-13T10:30:53.000Z</time>
      </trkpt>
      <trkpt lat="44.22387" lon="2.96165">
        <ele>841</ele>
        <time>2019-10-13T10:30:54.000Z</time>
      </trkpt>
      <trkpt lat="44.22387" lon="2.96166">
        <ele>841</ele>
        <time>2019-10-13T10:30:55.000Z</time>
      </trkpt>
      <trkpt lat="44.22387" lon="2.96167">
        <ele>841</ele>
        <time>2019-10-13T10:30:56.000Z</time>
      </trkpt>
      <trkpt lat="44.22387" lon="2.96167">
        <ele>841</ele>
        <time>2019-10-13T10:30:57.000Z</time>
      </trkpt>
      <trkpt lat="44.22387" lon="2.96166">
        <ele>841</ele>
        <time>2019-10-13T10:30:58.000Z</time>
      </trkpt>
      <trkpt lat="44.22388" lon="2.96166">
        <ele>841</ele>
        <time>2019-10-13T10:30:59.000Z</time>
      </trkpt>
      <trkpt lat="44.22388" lon="2.96166">
        <ele>841</ele>
        <time>2019-10-13T10:31:00.000Z</time>
      </trkpt>
      <trkpt lat="44.22388" lon="2.96166">
        <ele>841</ele>
        <time>2019-10-13T10:31:01.000Z</time>
      </trkpt>
      <trkpt lat="44.22388" lon="2.96166">
        <ele>841</ele>
        <time>2019-10-13T10:31:02.000Z</time>
      </trkpt>
      <trkpt lat="44.22388" lon="2.96166">
        <ele>841</ele>
        <time>2019-10-13T10:31:03.000Z</time>
      </trkpt>
      <trkpt lat="44.22387" lon="2.96166">
        <ele>841</ele>
        <time>2019-10-13T10:31:04.000Z</time>
      </trkpt>
      <trkpt lat="44.22388" lon="2.96166">
        <ele>841</ele>
        <time>2019-10-13T10:31:05.000Z</time>
      </trkpt>
      <trkpt lat="44.22388" lon="2.96166">
        <ele>841</ele>
        <time>2019-10-13T10:31:06.000Z</time>
      </trkpt>
      <trkpt lat="44.22388" lon="2.96167">
        <ele>841</ele>
        <time>2019-10-13T10:31:07.000Z</time>
      </trkpt>
      <trkpt lat="44.22387" lon="2.96167">
        <ele>841</ele>
        <time>2019-10-13T10:31:08.000Z</time>
      </trkpt>
      <trkpt lat="44.22387" lon="2.96167">
        <ele>841</ele>
        <time>2019-10-13T10:31:09.000Z</time>
      </trkpt>
      <trkpt lat="44.22386" lon="2.96166">
        <ele>841</ele>
        <time>2019-10-13T10:31:10.000Z</time>
      </trkpt>
      <trkpt lat="44.22386" lon="2.96166">
        <ele>841</ele>
        <time>2019-10-13T10:31:11.000Z</time>
      </trkpt>
      <trkpt lat="44.22386" lon="2.96165">
        <ele>841</ele>
        <time>2019-10-13T10:31:12.000Z</time>
      </trkpt>
      <trkpt lat="44.22385" lon="2.96165">
        <ele>841</ele>
        <time>2019-10-13T10:31:13.000Z</time>
      </trkpt>
      <trkpt lat="44.22385" lon="2.96165">
        <ele>841</ele>
        <time>2019-10-13T10:31:14.000Z</time>
      </trkpt>
      <trkpt lat="44.22386" lon="2.96165">
        <ele>841</ele>
        <time>2019-10-13T10:31:15.000Z</time>
      </trkpt>
      <trkpt lat="44.22386" lon="2.96166">
        <ele>841</ele>
        <time>2019-10-13T10:31:16.000Z</time>
      </trkpt>
      <trkpt lat="44.22387" lon="2.96166">
        <ele>841</ele>
        <time>2019-10-13T10:31:17.000Z</time>
      </trkpt>
      <trkpt lat="44.22387" lon="2.96167">
        <ele>841</ele>
        <time>2019-10-13T10:31:18.000Z</time>
      </trkpt>
      <trkpt lat="44.22387" lon="2.96166">
        <ele>841</ele>
        <time>2019-10-13T10:31:19.000Z</time>
      </trkpt>
      <trkpt lat="44.22387" lon="2.96166">
        <ele>841</ele>
        <time>2019-10-13T10:31:20.000Z</time>
      </trkpt>
      <trkpt lat="44.22387" lon="2.96166">
        <ele>841</ele>
        <time>2019-10-13T10:31:21.000Z</time>
      </trkpt>
      <trkpt lat="44.22387" lon="2.96167">
        <ele>841</ele>
        <time>2019-10-13T10:31:22.000Z</time>
      </trkpt>
      <trkpt lat="44.22387" lon="2.96168">
        <ele>841</ele>
        <time>2019-10-13T10:31:23.000Z</time>
      </trkpt>
      <trkpt lat="44.22387" lon="2.96169">
        <ele>841</ele>
        <time>2019-10-13T10:31:24.000Z</time>
      </trkpt>
      <trkpt lat="44.22387" lon="2.96169">
        <ele>840</ele>
        <time>2019-10-13T10:31:25.000Z</time>
      </trkpt>
      <trkpt lat="44.22387" lon="2.9617">
        <ele>840</ele>
        <time>2019-10-13T10:31:26.000Z</time>
      </trkpt>
      <trkpt lat="44.22387" lon="2.9617">
        <ele>840</ele>
        <time>2019-10-13T10:31:27.000Z</time>
      </trkpt>
      <trkpt lat="44.22388" lon="2.96171">
        <ele>841</ele>
        <time>2019-10-13T10:31:28.000Z</time>
      </trkpt>
      <trkpt lat="44.22388" lon="2.96171">
        <ele>841</ele>
        <time>2019-10-13T10:31:29.000Z</time>
      </trkpt>
      <trkpt lat="44.22389" lon="2.96171">
        <ele>841</ele>
        <time>2019-10-13T10:31:30.000Z</time>
      </trkpt>
      <trkpt lat="44.22388" lon="2.96171">
        <ele>841</ele>
        <time>2019-10-13T10:31:31.000Z</time>
      </trkpt>
      <trkpt lat="44.22388" lon="2.96171">
        <ele>841</ele>
        <time>2019-10-13T10:31:32.000Z</time>
      </trkpt>
      <trkpt lat="44.22388" lon="2.96171">
        <ele>841</ele>
        <time>2019-10-13T10:31:33.000Z</time>
      </trkpt>
      <trkpt lat="44.22388" lon="2.9617">
        <ele>841</ele>
        <time>2019-10-13T10:31:34.000Z</time>
      </trkpt>
      <trkpt lat="44.22388" lon="2.9617">
        <ele>841</ele>
        <time>2019-10-13T10:31:35.000Z</time>
      </trkpt>
      <trkpt lat="44.22388" lon="2.96171">
        <ele>840</ele>
        <time>2019-10-13T10:31:36.000Z</time>
      </trkpt>
      <trkpt lat="44.22388" lon="2.96171">
        <ele>840</ele>
        <time>2019-10-13T10:31:37.000Z</time>
      </trkpt>
      <trkpt lat="44.22388" lon="2.96171">
        <ele>840</ele>
        <time>2019-10-13T10:31:38.000Z</time>
      </trkpt>
      <trkpt lat="44.22388" lon="2.96171">
        <ele>840</ele>
        <time>2019-10-13T10:31:39.000Z</time>
      </trkpt>
      <trkpt lat="44.22388" lon="2.96171">
        <ele>840</ele>
        <time>2019-10-13T10:31:40.000Z</time>
      </trkpt>
      <trkpt lat="44.22388" lon="2.96171">
        <ele>840</ele>
        <time>2019-10-13T10:31:41.000Z</time>
      </trkpt>
      <trkpt lat="44.22388" lon="2.96172">
        <ele>840</ele>
        <time>2019-10-13T10:31:42.000Z</time>
      </trkpt>
      <trkpt lat="44.22389" lon="2.96172">
        <ele>840</ele>
        <time>2019-10-13T10:31:43.000Z</time>
      </trkpt>
      <trkpt lat="44.22389" lon="2.96173">
        <ele>840</ele>
        <time>2019-10-13T10:31:44.000Z</time>
      </trkpt>
      <trkpt lat="44.22389" lon="2.96174">
        <ele>840</ele>
        <time>2019-10-13T10:31:45.000Z</time>
      </trkpt>
      <trkpt lat="44.22389" lon="2.96174">
        <ele>840</ele>
        <time>2019-10-13T10:31:46.000Z</time>
      </trkpt>
      <trkpt lat="44.22389" lon="2.96174">
        <ele>840</ele>
        <time>2019-10-13T10:31:47.000Z</time>
      </trkpt>
      <trkpt lat="44.22389" lon="2.96174">
        <ele>840</ele>
        <time>2019-10-13T10:31:48.000Z</time>
      </trkpt>
      <trkpt lat="44.22389" lon="2.96174">
        <ele>840</ele>
        <time>2019-10-13T10:31:49.000Z</time>
      </trkpt>
      <trkpt lat="44.22389" lon="2.96174">
        <ele>840</ele>
        <time>2019-10-13T10:31:50.000Z</time>
      </trkpt>
      <trkpt lat="44.22389" lon="2.96174">
        <ele>840</ele>
        <time>2019-10-13T10:31:51.000Z</time>
      </trkpt>
      <trkpt lat="44.2239" lon="2.96174">
        <ele>840</ele>
        <time>2019-10-13T10:31:52.000Z</time>
      </trkpt>
      <trkpt lat="44.2239" lon="2.96175">
        <ele>840</ele>
        <time>2019-10-13T10:31:53.000Z</time>
      </trkpt>
      <trkpt lat="44.2239" lon="2.96175">
        <ele>840</ele>
        <time>2019-10-13T10:31:54.000Z</time>
      </trkpt>
      <trkpt lat="44.22391" lon="2.96175">
        <ele>840</ele>
        <time>2019-10-13T10:31:55.000Z</time>
      </trkpt>
      <trkpt lat="44.22391" lon="2.96175">
        <ele>840</ele>
        <time>2019-10-13T10:31:56.000Z</time>
      </trkpt>
      <trkpt lat="44.22391" lon="2.96175">
        <ele>840</ele>
        <time>2019-10-13T10:31:57.000Z</time>
      </trkpt>
      <trkpt lat="44.22392" lon="2.96175">
        <ele>840</ele>
        <time>2019-10-13T10:31:58.000Z</time>
      </trkpt>
      <trkpt lat="44.22392" lon="2.96174">
        <ele>840</ele>
        <time>2019-10-13T10:31:59.000Z</time>
      </trkpt>
      <trkpt lat="44.22392" lon="2.96175">
        <ele>840</ele>
        <time>2019-10-13T10:32:00.000Z</time>
      </trkpt>
      <trkpt lat="44.22392" lon="2.96175">
        <ele>840</ele>
        <time>2019-10-13T10:32:01.000Z</time>
      </trkpt>
      <trkpt lat="44.22392" lon="2.96175">
        <ele>840</ele>
        <time>2019-10-13T10:32:02.000Z</time>
      </trkpt>
      <trkpt lat="44.22392" lon="2.96175">
        <ele>840</ele>
        <time>2019-10-13T10:32:03.000Z</time>
      </trkpt>
      <trkpt lat="44.22391" lon="2.96174">
        <ele>840</ele>
        <time>2019-10-13T10:32:04.000Z</time>
      </trkpt>
      <trkpt lat="44.22391" lon="2.96173">
        <ele>840</ele>
        <time>2019-10-13T10:32:05.000Z</time>
      </trkpt>
      <trkpt lat="44.22391" lon="2.96171">
        <ele>840</ele>
        <time>2019-10-13T10:32:06.000Z</time>
      </trkpt>
      <trkpt lat="44.22391" lon="2.9617">
        <ele>840</ele>
        <time>2019-10-13T10:32:07.000Z</time>
      </trkpt>
      <trkpt lat="44.22392" lon="2.9617">
        <ele>840</ele>
        <time>2019-10-13T10:32:08.000Z</time>
      </trkpt>
      <trkpt lat="44.22392" lon="2.96169">
        <ele>840</ele>
        <time>2019-10-13T10:32:09.000Z</time>
      </trkpt>
      <trkpt lat="44.22393" lon="2.96169">
        <ele>840</ele>
        <time>2019-10-13T10:32:10.000Z</time>
      </trkpt>
      <trkpt lat="44.22393" lon="2.96169">
        <ele>840</ele>
        <time>2019-10-13T10:32:11.000Z</time>
      </trkpt>
      <trkpt lat="44.22393" lon="2.96169">
        <ele>840</ele>
        <time>2019-10-13T10:32:12.000Z</time>
      </trkpt>
      <trkpt lat="44.22393" lon="2.96169">
        <ele>840</ele>
        <time>2019-10-13T10:32:13.000Z</time>
      </trkpt>
      <trkpt lat="44.22393" lon="2.96169">
        <ele>840</ele>
        <time>2019-10-13T10:32:14.000Z</time>
      </trkpt>
      <trkpt lat="44.22393" lon="2.96169">
        <ele>840</ele>
        <time>2019-10-13T10:32:15.000Z</time>
      </trkpt>
      <trkpt lat="44.22393" lon="2.96168">
        <ele>840</ele>
        <time>2019-10-13T10:32:16.000Z</time>
      </trkpt>
      <trkpt lat="44.22393" lon="2.96168">
        <ele>840</ele>
        <time>2019-10-13T10:32:17.000Z</time>
      </trkpt>
      <trkpt lat="44.22394" lon="2.96168">
        <ele>840</ele>
        <time>2019-10-13T10:32:18.000Z</time>
      </trkpt>
      <trkpt lat="44.22394" lon="2.96169">
        <ele>840</ele>
        <time>2019-10-13T10:32:19.000Z</time>
      </trkpt>
      <trkpt lat="44.22395" lon="2.9617">
        <ele>840</ele>
        <time>2019-10-13T10:32:20.000Z</time>
      </trkpt>
      <trkpt lat="44.22395" lon="2.96171">
        <ele>840</ele>
        <time>2019-10-13T10:32:21.000Z</time>
      </trkpt>
      <trkpt lat="44.22395" lon="2.96172">
        <ele>840</ele>
        <time>2019-10-13T10:32:22.000Z</time>
      </trkpt>
      <trkpt lat="44.22395" lon="2.96173">
        <ele>840</ele>
        <time>2019-10-13T10:32:23.000Z</time>
      </trkpt>
      <trkpt lat="44.22395" lon="2.96173">
        <ele>840</ele>
        <time>2019-10-13T10:32:24.000Z</time>
      </trkpt>
      <trkpt lat="44.22395" lon="2.96173">
        <ele>840</ele>
        <time>2019-10-13T10:32:25.000Z</time>
      </trkpt>
      <trkpt lat="44.22394" lon="2.96173">
        <ele>839</ele>
        <time>2019-10-13T10:32:26.000Z</time>
      </trkpt>
      <trkpt lat="44.22395" lon="2.96173">
        <ele>839</ele>
        <time>2019-10-13T10:32:27.000Z</time>
      </trkpt>
      <trkpt lat="44.22394" lon="2.96173">
        <ele>839</ele>
        <time>2019-10-13T10:32:28.000Z</time>
      </trkpt>
      <trkpt lat="44.22394" lon="2.96173">
        <ele>839</ele>
        <time>2019-10-13T10:32:29.000Z</time>
      </trkpt>
      <trkpt lat="44.22394" lon="2.96173">
        <ele>839</ele>
        <time>2019-10-13T10:32:30.000Z</time>
      </trkpt>
      <trkpt lat="44.22394" lon="2.96173">
        <ele>839</ele>
        <time>2019-10-13T10:32:31.000Z</time>
      </trkpt>
      <trkpt lat="44.22394" lon="2.96174">
        <ele>839</ele>
        <time>2019-10-13T10:32:32.000Z</time>
      </trkpt>
      <trkpt lat="44.22394" lon="2.96174">
        <ele>839</ele>
        <time>2019-10-13T10:32:33.000Z</time>
      </trkpt>
      <trkpt lat="44.22394" lon="2.96174">
        <ele>839</ele>
        <time>2019-10-13T10:32:34.000Z</time>
      </trkpt>
      <trkpt lat="44.22394" lon="2.96174">
        <ele>839</ele>
        <time>2019-10-13T10:32:35.000Z</time>
      </trkpt>
      <trkpt lat="44.22395" lon="2.96175">
        <ele>838</ele>
        <time>2019-10-13T10:32:36.000Z</time>
      </trkpt>
      <trkpt lat="44.22395" lon="2.96175">
        <ele>838</ele>
        <time>2019-10-13T10:32:37.000Z</time>
      </trkpt>
      <trkpt lat="44.22395" lon="2.96175">
        <ele>838</ele>
        <time>2019-10-13T10:32:38.000Z</time>
      </trkpt>
      <trkpt lat="44.22395" lon="2.96176">
        <ele>838</ele>
        <time>2019-10-13T10:32:39.000Z</time>
      </trkpt>
      <trkpt lat="44.22395" lon="2.96176">
        <ele>838</ele>
        <time>2019-10-13T10:32:40.000Z</time>
      </trkpt>
      <trkpt lat="44.22395" lon="2.96177">
        <ele>838</ele>
        <time>2019-10-13T10:32:41.000Z</time>
      </trkpt>
      <trkpt lat="44.22395" lon="2.96177">
        <ele>838</ele>
        <time>2019-10-13T10:32:42.000Z</time>
      </trkpt>
      <trkpt lat="44.22396" lon="2.96177">
        <ele>838</ele>
        <time>2019-10-13T10:32:43.000Z</time>
      </trkpt>
      <trkpt lat="44.22396" lon="2.96177">
        <ele>838</ele>
        <time>2019-10-13T10:32:44.000Z</time>
      </trkpt>
      <trkpt lat="44.22395" lon="2.96177">
        <ele>838</ele>
        <time>2019-10-13T10:32:45.000Z</time>
      </trkpt>
      <trkpt lat="44.22396" lon="2.96177">
        <ele>838</ele>
        <time>2019-10-13T10:32:46.000Z</time>
      </trkpt>
      <trkpt lat="44.22396" lon="2.96178">
        <ele>838</ele>
        <time>2019-10-13T10:32:47.000Z</time>
      </trkpt>
      <trkpt lat="44.22395" lon="2.96178">
        <ele>838</ele>
        <time>2019-10-13T10:32:48.000Z</time>
      </trkpt>
      <trkpt lat="44.22396" lon="2.96178">
        <ele>838</ele>
        <time>2019-10-13T10:32:49.000Z</time>
      </trkpt>
      <trkpt lat="44.22396" lon="2.96178">
        <ele>838</ele>
        <time>2019-10-13T10:32:50.000Z</time>
      </trkpt>
      <trkpt lat="44.22396" lon="2.96178">
        <ele>838</ele>
        <time>2019-10-13T10:32:51.000Z</time>
      </trkpt>
      <trkpt lat="44.22396" lon="2.96178">
        <ele>838</ele>
        <time>2019-10-13T10:32:52.000Z</time>
      </trkpt>
      <trkpt lat="44.22396" lon="2.96179">
        <ele>838</ele>
        <time>2019-10-13T10:32:53.000Z</time>
      </trkpt>
      <trkpt lat="44.22396" lon="2.96179">
        <ele>838</ele>
        <time>2019-10-13T10:32:54.000Z</time>
      </trkpt>
      <trkpt lat="44.22396" lon="2.96179">
        <ele>838</ele>
        <time>2019-10-13T10:32:55.000Z</time>
      </trkpt>
      <trkpt lat="44.22396" lon="2.96179">
        <ele>838</ele>
        <time>2019-10-13T10:32:56.000Z</time>
      </trkpt>
      <trkpt lat="44.22396" lon="2.96179">
        <ele>838</ele>
        <time>2019-10-13T10:32:57.000Z</time>
      </trkpt>
      <trkpt lat="44.22396" lon="2.96179">
        <ele>838</ele>
        <time>2019-10-13T10:32:58.000Z</time>
      </trkpt>
      <trkpt lat="44.22396" lon="2.96178">
        <ele>838</ele>
        <time>2019-10-13T10:32:59.000Z</time>
      </trkpt>
      <trkpt lat="44.22396" lon="2.96179">
        <ele>838</ele>
        <time>2019-10-13T10:33:00.000Z</time>
      </trkpt>
      <trkpt lat="44.22396" lon="2.96179">
        <ele>837</ele>
        <time>2019-10-13T10:33:01.000Z</time>
      </trkpt>
      <trkpt lat="44.22396" lon="2.96179">
        <ele>837</ele>
        <time>2019-10-13T10:33:02.000Z</time>
      </trkpt>
      <trkpt lat="44.22397" lon="2.96179">
        <ele>837</ele>
        <time>2019-10-13T10:33:03.000Z</time>
      </trkpt>
      <trkpt lat="44.22397" lon="2.96179">
        <ele>837</ele>
        <time>2019-10-13T10:33:04.000Z</time>
      </trkpt>
      <trkpt lat="44.22398" lon="2.96179">
        <ele>837</ele>
        <time>2019-10-13T10:33:05.000Z</time>
      </trkpt>
      <trkpt lat="44.22398" lon="2.96179">
        <ele>837</ele>
        <time>2019-10-13T10:33:06.000Z</time>
      </trkpt>
      <trkpt lat="44.22398" lon="2.96179">
        <ele>837</ele>
        <time>2019-10-13T10:33:07.000Z</time>
      </trkpt>
      <trkpt lat="44.22397" lon="2.96179">
        <ele>837</ele>
        <time>2019-10-13T10:33:08.000Z</time>
      </trkpt>
      <trkpt lat="44.22396" lon="2.96178">
        <ele>837</ele>
        <time>2019-10-13T10:33:09.000Z</time>
      </trkpt>
      <trkpt lat="44.22396" lon="2.96178">
        <ele>837</ele>
        <time>2019-10-13T10:33:10.000Z</time>
      </trkpt>
      <trkpt lat="44.22396" lon="2.96178">
        <ele>837</ele>
        <time>2019-10-13T10:33:11.000Z</time>
      </trkpt>
      <trkpt lat="44.22396" lon="2.96178">
        <ele>837</ele>
        <time>2019-10-13T10:33:12.000Z</time>
      </trkpt>
      <trkpt lat="44.22396" lon="2.96177">
        <ele>837</ele>
        <time>2019-10-13T10:33:13.000Z</time>
      </trkpt>
      <trkpt lat="44.22396" lon="2.96177">
        <ele>837</ele>
        <time>2019-10-13T10:33:14.000Z</time>
      </trkpt>
      <trkpt lat="44.22396" lon="2.96177">
        <ele>837</ele>
        <time>2019-10-13T10:33:15.000Z</time>
      </trkpt>
      <trkpt lat="44.22395" lon="2.96177">
        <ele>837</ele>
        <time>2019-10-13T10:33:16.000Z</time>
      </trkpt>
      <trkpt lat="44.22395" lon="2.96177">
        <ele>837</ele>
        <time>2019-10-13T10:33:17.000Z</time>
      </trkpt>
      <trkpt lat="44.22395" lon="2.96177">
        <ele>837</ele>
        <time>2019-10-13T10:33:18.000Z</time>
      </trkpt>
      <trkpt lat="44.22395" lon="2.96178">
        <ele>837</ele>
        <time>2019-10-13T10:33:19.000Z</time>
      </trkpt>
      <trkpt lat="44.22395" lon="2.96178">
        <ele>837</ele>
        <time>2019-10-13T10:33:20.000Z</time>
      </trkpt>
      <trkpt lat="44.22395" lon="2.96178">
        <ele>837</ele>
        <time>2019-10-13T10:33:21.000Z</time>
      </trkpt>
      <trkpt lat="44.22396" lon="2.96178">
        <ele>837</ele>
        <time>2019-10-13T10:33:22.000Z</time>
      </trkpt>
      <trkpt lat="44.22397" lon="2.96178">
        <ele>837</ele>
        <time>2019-10-13T10:33:23.000Z</time>
      </trkpt>
      <trkpt lat="44.22398" lon="2.96178">
        <ele>837</ele>
        <time>2019-10-13T10:33:24.000Z</time>
      </trkpt>
      <trkpt lat="44.22398" lon="2.96178">
        <ele>837</ele>
        <time>2019-10-13T10:33:25.000Z</time>
      </trkpt>
      <trkpt lat="44.22398" lon="2.96177">
        <ele>837</ele>
        <time>2019-10-13T10:33:26.000Z</time>
      </trkpt>
      <trkpt lat="44.22398" lon="2.96176">
        <ele>837</ele>
        <time>2019-10-13T10:33:27.000Z</time>
      </trkpt>
      <trkpt lat="44.22397" lon="2.96175">
        <ele>837</ele>
        <time>2019-10-13T10:33:28.000Z</time>
      </trkpt>
      <trkpt lat="44.22397" lon="2.96175">
        <ele>837</ele>
        <time>2019-10-13T10:33:29.000Z</time>
      </trkpt>
      <trkpt lat="44.22397" lon="2.96174">
        <ele>837</ele>
        <time>2019-10-13T10:33:30.000Z</time>
      </trkpt>
      <trkpt lat="44.22396" lon="2.96172">
        <ele>837</ele>
        <time>2019-10-13T10:33:31.000Z</time>
      </trkpt>
      <trkpt lat="44.22396" lon="2.96171">
        <ele>837</ele>
        <time>2019-10-13T10:33:32.000Z</time>
      </trkpt>
      <trkpt lat="44.22395" lon="2.9617">
        <ele>838</ele>
        <time>2019-10-13T10:33:33.000Z</time>
      </trkpt>
      <trkpt lat="44.22394" lon="2.96169">
        <ele>838</ele>
        <time>2019-10-13T10:33:34.000Z</time>
      </trkpt>
      <trkpt lat="44.22393" lon="2.96168">
        <ele>838</ele>
        <time>2019-10-13T10:33:35.000Z</time>
      </trkpt>
      <trkpt lat="44.22393" lon="2.96167">
        <ele>838</ele>
        <time>2019-10-13T10:33:36.000Z</time>
      </trkpt>
      <trkpt lat="44.22393" lon="2.96165">
        <ele>839</ele>
        <time>2019-10-13T10:33:37.000Z</time>
      </trkpt>
      <trkpt lat="44.22393" lon="2.96164">
        <ele>839</ele>
        <time>2019-10-13T10:33:38.000Z</time>
      </trkpt>
      <trkpt lat="44.22393" lon="2.96162">
        <ele>839</ele>
        <time>2019-10-13T10:33:39.000Z</time>
      </trkpt>
      <trkpt lat="44.22393" lon="2.96161">
        <ele>840</ele>
        <time>2019-10-13T10:33:40.000Z</time>
      </trkpt>
      <trkpt lat="44.22393" lon="2.96161">
        <ele>840</ele>
        <time>2019-10-13T10:33:41.000Z</time>
      </trkpt>
      <trkpt lat="44.22393" lon="2.9616">
        <ele>840</ele>
        <time>2019-10-13T10:33:42.000Z</time>
      </trkpt>
      <trkpt lat="44.22392" lon="2.96159">
        <ele>840</ele>
        <time>2019-10-13T10:33:43.000Z</time>
      </trkpt>
      <trkpt lat="44.22392" lon="2.96159">
        <ele>841</ele>
        <time>2019-10-13T10:33:44.000Z</time>
      </trkpt>
      <trkpt lat="44.22391" lon="2.96159">
        <ele>841</ele>
        <time>2019-10-13T10:33:45.000Z</time>
      </trkpt>
      <trkpt lat="44.22391" lon="2.96158">
        <ele>841</ele>
        <time>2019-10-13T10:33:46.000Z</time>
      </trkpt>
      <trkpt lat="44.22391" lon="2.96158">
        <ele>841</ele>
        <time>2019-10-13T10:33:47.000Z</time>
      </trkpt>
      <trkpt lat="44.22391" lon="2.96158">
        <ele>841</ele>
        <time>2019-10-13T10:33:48.000Z</time>
      </trkpt>
      <trkpt lat="44.22391" lon="2.96158">
        <ele>841</ele>
        <time>2019-10-13T10:33:49.000Z</time>
      </trkpt>
      <trkpt lat="44.2239" lon="2.96157">
        <ele>841</ele>
        <time>2019-10-13T10:33:50.000Z</time>
      </trkpt>
      <trkpt lat="44.2239" lon="2.96157">
        <ele>842</ele>
        <time>2019-10-13T10:33:51.000Z</time>
      </trkpt>
      <trkpt lat="44.2239" lon="2.96157">
        <ele>842</ele>
        <time>2019-10-13T10:33:52.000Z</time>
      </trkpt>
      <trkpt lat="44.2239" lon="2.96157">
        <ele>842</ele>
        <time>2019-10-13T10:33:53.000Z</time>
      </trkpt>
      <trkpt lat="44.2239" lon="2.96157">
        <ele>842</ele>
        <time>2019-10-13T10:33:54.000Z</time>
      </trkpt>
      <trkpt lat="44.2239" lon="2.96157">
        <ele>842</ele>
        <time>2019-10-13T10:33:55.000Z</time>
      </trkpt>
      <trkpt lat="44.2239" lon="2.96156">
        <ele>842</ele>
        <time>2019-10-13T10:33:56.000Z</time>
      </trkpt>
      <trkpt lat="44.2239" lon="2.96156">
        <ele>842</ele>
        <time>2019-10-13T10:33:57.000Z</time>
      </trkpt>
      <trkpt lat="44.22389" lon="2.96157">
        <ele>842</ele>
        <time>2019-10-13T10:33:58.000Z</time>
      </trkpt>
      <trkpt lat="44.22389" lon="2.96157">
        <ele>842</ele>
        <time>2019-10-13T10:33:59.000Z</time>
      </trkpt>
      <trkpt lat="44.22389" lon="2.96157">
        <ele>842</ele>
        <time>2019-10-13T10:34:00.000Z</time>
      </trkpt>
      <trkpt lat="44.22389" lon="2.96156">
        <ele>842</ele>
        <time>2019-10-13T10:34:01.000Z</time>
      </trkpt>
      <trkpt lat="44.22389" lon="2.96157">
        <ele>843</ele>
        <time>2019-10-13T10:34:02.000Z</time>
      </trkpt>
      <trkpt lat="44.22388" lon="2.96157">
        <ele>843</ele>
        <time>2019-10-13T10:34:03.000Z</time>
      </trkpt>
      <trkpt lat="44.22388" lon="2.96156">
        <ele>843</ele>
        <time>2019-10-13T10:34:04.000Z</time>
      </trkpt>
      <trkpt lat="44.22388" lon="2.96156">
        <ele>843</ele>
        <time>2019-10-13T10:34:05.000Z</time>
      </trkpt>
      <trkpt lat="44.22388" lon="2.96156">
        <ele>843</ele>
        <time>2019-10-13T10:34:06.000Z</time>
      </trkpt>
      <trkpt lat="44.22388" lon="2.96155">
        <ele>843</ele>
        <time>2019-10-13T10:34:07.000Z</time>
      </trkpt>
      <trkpt lat="44.22388" lon="2.96155">
        <ele>843</ele>
        <time>2019-10-13T10:34:08.000Z</time>
      </trkpt>
      <trkpt lat="44.22388" lon="2.96155">
        <ele>843</ele>
        <time>2019-10-13T10:34:09.000Z</time>
      </trkpt>
      <trkpt lat="44.22388" lon="2.96155">
        <ele>843</ele>
        <time>2019-10-13T10:34:10.000Z</time>
      </trkpt>
      <trkpt lat="44.22388" lon="2.96155">
        <ele>843</ele>
        <time>2019-10-13T10:34:11.000Z</time>
      </trkpt>
      <trkpt lat="44.22388" lon="2.96155">
        <ele>843</ele>
        <time>2019-10-13T10:34:12.000Z</time>
      </trkpt>
      <trkpt lat="44.22388" lon="2.96155">
        <ele>843</ele>
        <time>2019-10-13T10:34:13.000Z</time>
      </trkpt>
      <trkpt lat="44.22387" lon="2.96156">
        <ele>843</ele>
        <time>2019-10-13T10:34:14.000Z</time>
      </trkpt>
      <trkpt lat="44.22387" lon="2.96157">
        <ele>843</ele>
        <time>2019-10-13T10:34:15.000Z</time>
      </trkpt>
      <trkpt lat="44.22387" lon="2.96158">
        <ele>843</ele>
        <time>2019-10-13T10:34:16.000Z</time>
      </trkpt>
      <trkpt lat="44.22387" lon="2.96159">
        <ele>843</ele>
        <time>2019-10-13T10:34:17.000Z</time>
      </trkpt>
      <trkpt lat="44.22386" lon="2.96161">
        <ele>843</ele>
        <time>2019-10-13T10:34:18.000Z</time>
      </trkpt>
      <trkpt lat="44.22386" lon="2.96163">
        <ele>843</ele>
        <time>2019-10-13T10:34:19.000Z</time>
      </trkpt>
      <trkpt lat="44.22386" lon="2.96164">
        <ele>843</ele>
        <time>2019-10-13T10:34:20.000Z</time>
      </trkpt>
      <trkpt lat="44.22385" lon="2.96166">
        <ele>843</ele>
        <time>2019-10-13T10:34:21.000Z</time>
      </trkpt>
      <trkpt lat="44.22385" lon="2.96167">
        <ele>843</ele>
        <time>2019-10-13T10:34:22.000Z</time>
      </trkpt>
      <trkpt lat="44.22384" lon="2.96169">
        <ele>843</ele>
        <time>2019-10-13T10:34:23.000Z</time>
      </trkpt>
      <trkpt lat="44.22383" lon="2.9617">
        <ele>843</ele>
        <time>2019-10-13T10:34:24.000Z</time>
      </trkpt>
      <trkpt lat="44.22383" lon="2.96171">
        <ele>843</ele>
        <time>2019-10-13T10:34:25.000Z</time>
      </trkpt>
      <trkpt lat="44.22383" lon="2.96172">
        <ele>843</ele>
        <time>2019-10-13T10:34:26.000Z</time>
      </trkpt>
      <trkpt lat="44.22383" lon="2.96172">
        <ele>843</ele>
        <time>2019-10-13T10:34:27.000Z</time>
      </trkpt>
      <trkpt lat="44.22384" lon="2.96172">
        <ele>843</ele>
        <time>2019-10-13T10:34:28.000Z</time>
      </trkpt>
      <trkpt lat="44.22384" lon="2.96173">
        <ele>843</ele>
        <time>2019-10-13T10:34:29.000Z</time>
      </trkpt>
      <trkpt lat="44.22384" lon="2.96173">
        <ele>843</ele>
        <time>2019-10-13T10:34:30.000Z</time>
      </trkpt>
      <trkpt lat="44.22384" lon="2.96173">
        <ele>843</ele>
        <time>2019-10-13T10:34:31.000Z</time>
      </trkpt>
      <trkpt lat="44.22384" lon="2.96172">
        <ele>843</ele>
        <time>2019-10-13T10:34:32.000Z</time>
      </trkpt>
      <trkpt lat="44.22383" lon="2.96172">
        <ele>843</ele>
        <time>2019-10-13T10:34:33.000Z</time>
      </trkpt>
      <trkpt lat="44.22383" lon="2.96172">
        <ele>843</ele>
        <time>2019-10-13T10:34:34.000Z</time>
      </trkpt>
      <trkpt lat="44.22383" lon="2.96172">
        <ele>843</ele>
        <time>2019-10-13T10:34:35.000Z</time>
      </trkpt>
      <trkpt lat="44.22383" lon="2.96172">
        <ele>843</ele>
        <time>2019-10-13T10:34:36.000Z</time>
      </trkpt>
      <trkpt lat="44.22383" lon="2.96172">
        <ele>843</ele>
        <time>2019-10-13T10:34:37.000Z</time>
      </trkpt>
      <trkpt lat="44.22383" lon="2.96172">
        <ele>843</ele>
        <time>2019-10-13T10:34:38.000Z</time>
      </trkpt>
      <trkpt lat="44.22383" lon="2.96172">
        <ele>843</ele>
        <time>2019-10-13T10:34:39.000Z</time>
      </trkpt>
      <trkpt lat="44.22383" lon="2.96172">
        <ele>843</ele>
        <time>2019-10-13T10:34:40.000Z</time>
      </trkpt>
      <trkpt lat="44.22383" lon="2.96172">
        <ele>843</ele>
        <time>2019-10-13T10:34:41.000Z</time>
      </trkpt>
      <trkpt lat="44.22383" lon="2.96171">
        <ele>843</ele>
        <time>2019-10-13T10:34:42.000Z</time>
      </trkpt>
      <trkpt lat="44.22382" lon="2.96171">
        <ele>843</ele>
        <time>2019-10-13T10:34:43.000Z</time>
      </trkpt>
      <trkpt lat="44.22382" lon="2.96171">
        <ele>843</ele>
        <time>2019-10-13T10:34:44.000Z</time>
      </trkpt>
      <trkpt lat="44.22381" lon="2.96172">
        <ele>842</ele>
        <time>2019-10-13T10:34:45.000Z</time>
      </trkpt>
      <trkpt lat="44.22382" lon="2.96173">
        <ele>842</ele>
        <time>2019-10-13T10:34:46.000Z</time>
      </trkpt>
      <trkpt lat="44.22382" lon="2.96174">
        <ele>842</ele>
        <time>2019-10-13T10:34:47.000Z</time>
      </trkpt>
      <trkpt lat="44.22383" lon="2.96174">
        <ele>842</ele>
        <time>2019-10-13T10:34:48.000Z</time>
      </trkpt>
      <trkpt lat="44.22383" lon="2.96173">
        <ele>842</ele>
        <time>2019-10-13T10:34:49.000Z</time>
      </trkpt>
      <trkpt lat="44.22383" lon="2.96173">
        <ele>842</ele>
        <time>2019-10-13T10:34:50.000Z</time>
      </trkpt>
      <trkpt lat="44.22384" lon="2.96172">
        <ele>842</ele>
        <time>2019-10-13T10:34:51.000Z</time>
      </trkpt>
      <trkpt lat="44.22384" lon="2.96173">
        <ele>842</ele>
        <time>2019-10-13T10:34:52.000Z</time>
      </trkpt>
      <trkpt lat="44.22384" lon="2.96173">
        <ele>841</ele>
        <time>2019-10-13T10:34:53.000Z</time>
      </trkpt>
      <trkpt lat="44.22384" lon="2.96174">
        <ele>841</ele>
        <time>2019-10-13T10:34:54.000Z</time>
      </trkpt>
      <trkpt lat="44.22384" lon="2.96174">
        <ele>841</ele>
        <time>2019-10-13T10:34:55.000Z</time>
      </trkpt>
      <trkpt lat="44.22383" lon="2.96174">
        <ele>841</ele>
        <time>2019-10-13T10:34:56.000Z</time>
      </trkpt>
      <trkpt lat="44.22383" lon="2.96174">
        <ele>841</ele>
        <time>2019-10-13T10:34:57.000Z</time>
      </trkpt>
      <trkpt lat="44.22384" lon="2.96174">
        <ele>841</ele>
        <time>2019-10-13T10:34:58.000Z</time>
      </trkpt>
      <trkpt lat="44.22384" lon="2.96174">
        <ele>841</ele>
        <time>2019-10-13T10:34:59.000Z</time>
      </trkpt>
      <trkpt lat="44.22383" lon="2.96175">
        <ele>840</ele>
        <time>2019-10-13T10:35:00.000Z</time>
      </trkpt>
      <trkpt lat="44.22383" lon="2.96174">
        <ele>840</ele>
        <time>2019-10-13T10:35:01.000Z</time>
      </trkpt>
      <trkpt lat="44.22383" lon="2.96173">
        <ele>840</ele>
        <time>2019-10-13T10:35:02.000Z</time>
      </trkpt>
      <trkpt lat="44.22383" lon="2.96172">
        <ele>840</ele>
        <time>2019-10-13T10:35:03.000Z</time>
      </trkpt>
      <trkpt lat="44.22383" lon="2.9617">
        <ele>840</ele>
        <time>2019-10-13T10:35:04.000Z</time>
      </trkpt>
      <trkpt lat="44.22383" lon="2.96169">
        <ele>840</ele>
        <time>2019-10-13T10:35:05.000Z</time>
      </trkpt>
      <trkpt lat="44.22384" lon="2.96168">
        <ele>840</ele>
        <time>2019-10-13T10:35:06.000Z</time>
      </trkpt>
      <trkpt lat="44.22384" lon="2.96167">
        <ele>840</ele>
        <time>2019-10-13T10:35:07.000Z</time>
      </trkpt>
      <trkpt lat="44.22385" lon="2.96165">
        <ele>841</ele>
        <time>2019-10-13T10:35:08.000Z</time>
      </trkpt>
      <trkpt lat="44.22386" lon="2.96163">
        <ele>841</ele>
        <time>2019-10-13T10:35:09.000Z</time>
      </trkpt>
      <trkpt lat="44.22386" lon="2.96162">
        <ele>841</ele>
        <time>2019-10-13T10:35:10.000Z</time>
      </trkpt>
      <trkpt lat="44.22387" lon="2.96161">
        <ele>841</ele>
        <time>2019-10-13T10:35:11.000Z</time>
      </trkpt>
      <trkpt lat="44.22387" lon="2.9616">
        <ele>841</ele>
        <time>2019-10-13T10:35:12.000Z</time>
      </trkpt>
      <trkpt lat="44.22388" lon="2.96159">
        <ele>842</ele>
        <time>2019-10-13T10:35:13.000Z</time>
      </trkpt>
      <trkpt lat="44.22387" lon="2.96158">
        <ele>842</ele>
        <time>2019-10-13T10:35:14.000Z</time>
      </trkpt>
      <trkpt lat="44.22387" lon="2.96156">
        <ele>842</ele>
        <time>2019-10-13T10:35:15.000Z</time>
      </trkpt>
      <trkpt lat="44.22387" lon="2.96154">
        <ele>842</ele>
        <time>2019-10-13T10:35:16.000Z</time>
      </trkpt>
      <trkpt lat="44.22387" lon="2.96153">
        <ele>842</ele>
        <time>2019-10-13T10:35:17.000Z</time>
      </trkpt>
      <trkpt lat="44.22388" lon="2.96152">
        <ele>842</ele>
        <time>2019-10-13T10:35:18.000Z</time>
      </trkpt>
      <trkpt lat="44.22388" lon="2.96152">
        <ele>842</ele>
        <time>2019-10-13T10:35:19.000Z</time>
      </trkpt>
      <trkpt lat="44.22389" lon="2.96153">
        <ele>842</ele>
        <time>2019-10-13T10:35:20.000Z</time>
      </trkpt>
      <trkpt lat="44.22389" lon="2.96153">
        <ele>842</ele>
        <time>2019-10-13T10:35:21.000Z</time>
      </trkpt>
      <trkpt lat="44.22389" lon="2.96153">
        <ele>842</ele>
        <time>2019-10-13T10:35:22.000Z</time>
      </trkpt>
      <trkpt lat="44.22389" lon="2.96153">
        <ele>843</ele>
        <time>2019-10-13T10:35:23.000Z</time>
      </trkpt>
      <trkpt lat="44.22389" lon="2.96153">
        <ele>843</ele>
        <time>2019-10-13T10:35:24.000Z</time>
      </trkpt>
      <trkpt lat="44.22389" lon="2.96153">
        <ele>843</ele>
        <time>2019-10-13T10:35:25.000Z</time>
      </trkpt>
      <trkpt lat="44.22389" lon="2.96153">
        <ele>843</ele>
        <time>2019-10-13T10:35:26.000Z</time>
      </trkpt>
      <trkpt lat="44.22388" lon="2.96153">
        <ele>843</ele>
        <time>2019-10-13T10:35:27.000Z</time>
      </trkpt>
      <trkpt lat="44.22388" lon="2.96153">
        <ele>843</ele>
        <time>2019-10-13T10:35:28.000Z</time>
      </trkpt>
      <trkpt lat="44.22388" lon="2.96154">
        <ele>843</ele>
        <time>2019-10-13T10:35:29.000Z</time>
      </trkpt>
      <trkpt lat="44.22388" lon="2.96155">
        <ele>843</ele>
        <time>2019-10-13T10:35:30.000Z</time>
      </trkpt>
      <trkpt lat="44.22388" lon="2.96156">
        <ele>843</ele>
        <time>2019-10-13T10:35:31.000Z</time>
      </trkpt>
      <trkpt lat="44.22388" lon="2.96157">
        <ele>843</ele>
        <time>2019-10-13T10:35:32.000Z</time>
      </trkpt>
      <trkpt lat="44.22388" lon="2.96159">
        <ele>843</ele>
        <time>2019-10-13T10:35:33.000Z</time>
      </trkpt>
      <trkpt lat="44.22387" lon="2.9616">
        <ele>843</ele>
        <time>2019-10-13T10:35:34.000Z</time>
      </trkpt>
      <trkpt lat="44.22387" lon="2.96162">
        <ele>842</ele>
        <time>2019-10-13T10:35:35.000Z</time>
      </trkpt>
      <trkpt lat="44.22386" lon="2.96164">
        <ele>842</ele>
        <time>2019-10-13T10:35:36.000Z</time>
      </trkpt>
      <trkpt lat="44.22386" lon="2.96165">
        <ele>842</ele>
        <time>2019-10-13T10:35:37.000Z</time>
      </trkpt>
      <trkpt lat="44.22386" lon="2.96167">
        <ele>842</ele>
        <time>2019-10-13T10:35:38.000Z</time>
      </trkpt>
      <trkpt lat="44.22385" lon="2.96169">
        <ele>842</ele>
        <time>2019-10-13T10:35:39.000Z</time>
      </trkpt>
      <trkpt lat="44.22385" lon="2.9617">
        <ele>842</ele>
        <time>2019-10-13T10:35:40.000Z</time>
      </trkpt>
      <trkpt lat="44.22384" lon="2.96172">
        <ele>842</ele>
        <time>2019-10-13T10:35:41.000Z</time>
      </trkpt>
      <trkpt lat="44.22384" lon="2.96173">
        <ele>842</ele>
        <time>2019-10-13T10:35:42.000Z</time>
      </trkpt>
      <trkpt lat="44.22384" lon="2.96173">
        <ele>842</ele>
        <time>2019-10-13T10:35:43.000Z</time>
      </trkpt>
      <trkpt lat="44.22385" lon="2.96173">
        <ele>842</ele>
        <time>2019-10-13T10:35:44.000Z</time>
      </trkpt>
      <trkpt lat="44.22385" lon="2.96174">
        <ele>842</ele>
        <time>2019-10-13T10:35:45.000Z</time>
      </trkpt>
      <trkpt lat="44.22384" lon="2.96174">
        <ele>842</ele>
        <time>2019-10-13T10:35:46.000Z</time>
      </trkpt>
      <trkpt lat="44.22384" lon="2.96174">
        <ele>842</ele>
        <time>2019-10-13T10:35:47.000Z</time>
      </trkpt>
      <trkpt lat="44.22384" lon="2.96174">
        <ele>842</ele>
        <time>2019-10-13T10:35:48.000Z</time>
      </trkpt>
      <trkpt lat="44.22383" lon="2.96175">
        <ele>842</ele>
        <time>2019-10-13T10:35:49.000Z</time>
      </trkpt>
      <trkpt lat="44.22383" lon="2.96175">
        <ele>842</ele>
        <time>2019-10-13T10:35:50.000Z</time>
      </trkpt>
      <trkpt lat="44.22383" lon="2.96175">
        <ele>842</ele>
        <time>2019-10-13T10:35:51.000Z</time>
      </trkpt>
      <trkpt lat="44.22383" lon="2.96175">
        <ele>842</ele>
        <time>2019-10-13T10:35:52.000Z</time>
      </trkpt>
      <trkpt lat="44.22383" lon="2.96175">
        <ele>842</ele>
        <time>2019-10-13T10:35:53.000Z</time>
      </trkpt>
      <trkpt lat="44.22383" lon="2.96175">
        <ele>842</ele>
        <time>2019-10-13T10:35:54.000Z</time>
      </trkpt>
      <trkpt lat="44.22383" lon="2.96175">
        <ele>842</ele>
        <time>2019-10-13T10:35:55.000Z</time>
      </trkpt>
      <trkpt lat="44.22383" lon="2.96176">
        <ele>842</ele>
        <time>2019-10-13T10:35:56.000Z</time>
      </trkpt>
      <trkpt lat="44.22383" lon="2.96176">
        <ele>841</ele>
        <time>2019-10-13T10:35:57.000Z</time>
      </trkpt>
      <trkpt lat="44.22383" lon="2.96175">
        <ele>841</ele>
        <time>2019-10-13T10:35:58.000Z</time>
      </trkpt>
      <trkpt lat="44.22383" lon="2.96175">
        <ele>841</ele>
        <time>2019-10-13T10:35:59.000Z</time>
      </trkpt>
      <trkpt lat="44.22382" lon="2.96175">
        <ele>841</ele>
        <time>2019-10-13T10:36:00.000Z</time>
      </trkpt>
      <trkpt lat="44.22383" lon="2.96175">
        <ele>841</ele>
        <time>2019-10-13T10:36:01.000Z</time>
      </trkpt>
      <trkpt lat="44.22383" lon="2.96176">
        <ele>841</ele>
        <time>2019-10-13T10:36:02.000Z</time>
      </trkpt>
      <trkpt lat="44.22383" lon="2.96176">
        <ele>841</ele>
        <time>2019-10-13T10:36:03.000Z</time>
      </trkpt>
      <trkpt lat="44.22384" lon="2.96175">
        <ele>841</ele>
        <time>2019-10-13T10:36:04.000Z</time>
      </trkpt>
      <trkpt lat="44.22384" lon="2.96174">
        <ele>841</ele>
        <time>2019-10-13T10:36:05.000Z</time>
      </trkpt>
      <trkpt lat="44.22385" lon="2.96174">
        <ele>841</ele>
        <time>2019-10-13T10:36:06.000Z</time>
      </trkpt>
      <trkpt lat="44.22386" lon="2.96174">
        <ele>841</ele>
        <time>2019-10-13T10:36:07.000Z</time>
      </trkpt>
      <trkpt lat="44.22386" lon="2.96174">
        <ele>840</ele>
        <time>2019-10-13T10:36:08.000Z</time>
      </trkpt>
      <trkpt lat="44.22386" lon="2.96174">
        <ele>840</ele>
        <time>2019-10-13T10:36:09.000Z</time>
      </trkpt>
      <trkpt lat="44.22386" lon="2.96174">
        <ele>840</ele>
        <time>2019-10-13T10:36:10.000Z</time>
      </trkpt>
      <trkpt lat="44.22386" lon="2.96174">
        <ele>840</ele>
        <time>2019-10-13T10:36:11.000Z</time>
      </trkpt>
      <trkpt lat="44.22385" lon="2.96175">
        <ele>840</ele>
        <time>2019-10-13T10:36:12.000Z</time>
      </trkpt>
      <trkpt lat="44.22385" lon="2.96175">
        <ele>840</ele>
        <time>2019-10-13T10:36:13.000Z</time>
      </trkpt>
      <trkpt lat="44.22385" lon="2.96175">
        <ele>840</ele>
        <time>2019-10-13T10:36:14.000Z</time>
      </trkpt>
      <trkpt lat="44.22385" lon="2.96175">
        <ele>840</ele>
        <time>2019-10-13T10:36:15.000Z</time>
      </trkpt>
      <trkpt lat="44.22384" lon="2.96174">
        <ele>840</ele>
        <time>2019-10-13T10:36:16.000Z</time>
      </trkpt>
      <trkpt lat="44.22384" lon="2.96174">
        <ele>840</ele>
        <time>2019-10-13T10:36:17.000Z</time>
      </trkpt>
      <trkpt lat="44.22383" lon="2.96173">
        <ele>839</ele>
        <time>2019-10-13T10:36:18.000Z</time>
      </trkpt>
      <trkpt lat="44.22383" lon="2.96173">
        <ele>839</ele>
        <time>2019-10-13T10:36:19.000Z</time>
      </trkpt>
      <trkpt lat="44.22383" lon="2.96172">
        <ele>839</ele>
        <time>2019-10-13T10:36:20.000Z</time>
      </trkpt>
      <trkpt lat="44.22383" lon="2.96172">
        <ele>839</ele>
        <time>2019-10-13T10:36:21.000Z</time>
      </trkpt>
      <trkpt lat="44.22383" lon="2.96173">
        <ele>839</ele>
        <time>2019-10-13T10:36:22.000Z</time>
      </trkpt>
      <trkpt lat="44.22383" lon="2.96173">
        <ele>839</ele>
        <time>2019-10-13T10:36:23.000Z</time>
      </trkpt>
      <trkpt lat="44.22383" lon="2.96173">
        <ele>839</ele>
        <time>2019-10-13T10:36:24.000Z</time>
      </trkpt>
      <trkpt lat="44.22383" lon="2.96174">
        <ele>839</ele>
        <time>2019-10-13T10:36:25.000Z</time>
      </trkpt>
      <trkpt lat="44.22383" lon="2.96174">
        <ele>839</ele>
        <time>2019-10-13T10:36:26.000Z</time>
      </trkpt>
      <trkpt lat="44.22383" lon="2.96174">
        <ele>839</ele>
        <time>2019-10-13T10:36:27.000Z</time>
      </trkpt>
      <trkpt lat="44.22382" lon="2.96174">
        <ele>839</ele>
        <time>2019-10-13T10:36:28.000Z</time>
      </trkpt>
      <trkpt lat="44.22382" lon="2.96173">
        <ele>839</ele>
        <time>2019-10-13T10:36:29.000Z</time>
      </trkpt>
      <trkpt lat="44.22382" lon="2.96174">
        <ele>839</ele>
        <time>2019-10-13T10:36:30.000Z</time>
      </trkpt>
      <trkpt lat="44.22382" lon="2.96174">
        <ele>839</ele>
        <time>2019-10-13T10:36:31.000Z</time>
      </trkpt>
      <trkpt lat="44.22382" lon="2.96173">
        <ele>839</ele>
        <time>2019-10-13T10:36:32.000Z</time>
      </trkpt>
      <trkpt lat="44.22382" lon="2.96173">
        <ele>839</ele>
        <time>2019-10-13T10:36:33.000Z</time>
      </trkpt>
      <trkpt lat="44.22382" lon="2.96174">
        <ele>840</ele>
        <time>2019-10-13T10:36:34.000Z</time>
      </trkpt>
      <trkpt lat="44.22382" lon="2.96174">
        <ele>840</ele>
        <time>2019-10-13T10:36:35.000Z</time>
      </trkpt>
      <trkpt lat="44.22383" lon="2.96174">
        <ele>840</ele>
        <time>2019-10-13T10:36:36.000Z</time>
      </trkpt>
      <trkpt lat="44.22383" lon="2.96174">
        <ele>840</ele>
        <time>2019-10-13T10:36:37.000Z</time>
      </trkpt>
      <trkpt lat="44.22382" lon="2.96174">
        <ele>840</ele>
        <time>2019-10-13T10:36:38.000Z</time>
      </trkpt>
      <trkpt lat="44.22382" lon="2.96174">
        <ele>841</ele>
        <time>2019-10-13T10:36:39.000Z</time>
      </trkpt>
      <trkpt lat="44.22382" lon="2.96173">
        <ele>841</ele>
        <time>2019-10-13T10:36:40.000Z</time>
      </trkpt>
      <trkpt lat="44.22382" lon="2.96173">
        <ele>841</ele>
        <time>2019-10-13T10:36:41.000Z</time>
      </trkpt>
      <trkpt lat="44.22382" lon="2.96173">
        <ele>841</ele>
        <time>2019-10-13T10:36:42.000Z</time>
      </trkpt>
      <trkpt lat="44.22382" lon="2.96173">
        <ele>841</ele>
        <time>2019-10-13T10:36:43.000Z</time>
      </trkpt>
      <trkpt lat="44.22382" lon="2.96173">
        <ele>841</ele>
        <time>2019-10-13T10:36:44.000Z</time>
      </trkpt>
      <trkpt lat="44.22382" lon="2.96173">
        <ele>841</ele>
        <time>2019-10-13T10:36:45.000Z</time>
      </trkpt>
      <trkpt lat="44.22382" lon="2.96173">
        <ele>841</ele>
        <time>2019-10-13T10:36:46.000Z</time>
      </trkpt>
      <trkpt lat="44.22382" lon="2.96173">
        <ele>841</ele>
        <time>2019-10-13T10:36:47.000Z</time>
      </trkpt>
      <trkpt lat="44.22382" lon="2.96173">
        <ele>841</ele>
        <time>2019-10-13T10:36:48.000Z</time>
      </trkpt>
      <trkpt lat="44.22382" lon="2.96173">
        <ele>841</ele>
        <time>2019-10-13T10:36:49.000Z</time>
      </trkpt>
      <trkpt lat="44.22382" lon="2.96173">
        <ele>841</ele>
        <time>2019-10-13T10:36:50.000Z</time>
      </trkpt>
      <trkpt lat="44.22382" lon="2.96173">
        <ele>841</ele>
        <time>2019-10-13T10:36:51.000Z</time>
      </trkpt>
      <trkpt lat="44.22382" lon="2.96173">
        <ele>841</ele>
        <time>2019-10-13T10:36:52.000Z</time>
      </trkpt>
      <trkpt lat="44.22382" lon="2.96173">
        <ele>841</ele>
        <time>2019-10-13T10:36:53.000Z</time>
      </trkpt>
      <trkpt lat="44.22382" lon="2.96173">
        <ele>841</ele>
        <time>2019-10-13T10:36:54.000Z</time>
      </trkpt>
      <trkpt lat="44.22382" lon="2.96173">
        <ele>841</ele>
        <time>2019-10-13T10:36:55.000Z</time>
      </trkpt>
    </trkseg>
  </trk>
</gpx>